Sasaki, Shun (2026): Radiosonde measurements from station Ishigakijima (2025-12) [dataset]. Japan Meteorological Agency, Tokyo, PANGAEA, https://doi.org/10.1594/PANGAEA.992664
Always quote citation above when using data! You can download the citation in several formats below.
Published: 2026-02-26 • DOI registered: 2026-03-27
Other version:
Sasaki, Shun (2026): BSRN Station-to-archive file for station Ishigakijima (2025-12) [dataset]. ftp://ftp.bsrn.awi.de/ish/ish1225.dat.gz
Project(s):
Coverage:
Latitude: 24.336700 * Longitude: 124.164400
Date/Time Start: 2025-12-01T00:00:00 * Date/Time End: 2025-12-31T23:59:00
Minimum ALTITUDE: 8 m * Maximum ALTITUDE: 28905 m
Event(s):
ISH (Ishigakijima) * Latitude: 24.336700 * Longitude: 124.164400 * Date/Time: 2010-04-01T00:00:00 * Elevation: 5.7 m * Station info: https://hdl.handle.net/10013/epic.44630.d026, update 2022: Ishigakijima.pdf * Location: Japan * Method/Device: Monitoring station (MONS) * Comment: BSRN station no: 7; Surface type: asphalt; Topography type: flat, rural; Horizon: doi:10.1594/PANGAEA.743878; Station scientist: SASAKI Shun (rrc-jma@met.kishou.go.jp)
Parameter(s):
| # | Name | Short Name | Unit | Principal Investigator | Method/Device | Comment |
|---|---|---|---|---|---|---|
| 1 | DATE/TIME | Date/Time | Sasaki, Shun | Geocode | ||
| 2 | ALTITUDE | Altitude | m | Sasaki, Shun | Geocode | |
| 3 | Pressure, at given altitude | PPPP | hPa | Sasaki, Shun | Radiosonde, Meisei, iMS | |
| 4 | Temperature, air | TTT | °C | Sasaki, Shun | Radiosonde, Meisei, iMS | |
| 5 | Dew/frost point | TdTdTd | °C | Sasaki, Shun | Radiosonde, Meisei, iMS | |
| 6 | Wind direction | dd | deg | Sasaki, Shun | Radiosonde, Meisei, iMS | |
| 7 | Wind speed | ff | m/s | Sasaki, Shun | Radiosonde, Meisei, iMS |
License:
Status:
Curation Level: Enhanced curation (CurationLevelC)
Size:
30315 data points
Data
| 1 Date/Time | 2 Altitude [m] | 3 PPPP [hPa] | 4 TTT [°C] | 5 TdTdTd [°C] | 6 dd [deg] | 7 ff [m/s] |
|---|---|---|---|---|---|---|
| 2025-12-01T00:00 | 9546 | 303 | -30.7 | -35.6 | ||
| 2025-12-01T00:00 | 9644 | 299 | 263 | 37 | ||
| 2025-12-01T00:01 | 9809 | 292 | -33.1 | -39.3 | ||
| 2025-12-01T00:01 | 9853 | 291 | -33.2 | -40.9 | ||
| 2025-12-01T00:01 | 9880 | 289 | 260 | 39 | ||
| 2025-12-01T00:01 | 9889 | 289 | -33.6 | -40.3 | ||
| 2025-12-01T00:01 | 9955 | 286 | -33.6 | -46.5 | ||
| 2025-12-01T00:01 | 9999 | 285 | 267 | 42 | ||
| 2025-12-01T00:02 | 10096 | 281 | -34.3 | -48.2 | ||
| 2025-12-01T00:02 | 10147 | 279 | -34.8 | -49.1 | ||
| 2025-12-01T00:02 | 10259 | 274 | 271 | 42 | ||
| 2025-12-01T00:02 | 10263 | 274 | -35.8 | -49.2 | ||
| 2025-12-01T00:03 | 10446 | 267 | -37.1 | -52.3 | ||
| 2025-12-01T00:03 | 10540 | 263 | 275 | 41 | ||
| 2025-12-01T00:04 | 10719 | 256 | -39.2 | -53.3 | ||
| 2025-12-01T00:04 | 10837 | 252 | -40.0 | -55.3 | ||
| 2025-12-01T00:04 | 10848 | 252 | 274 | 41 | ||
| 2025-12-01T00:05 | 11153 | 241 | 278 | 43 | ||
| 2025-12-01T00:06 | 11418 | 231 | 279 | 43 | ||
| 2025-12-01T00:07 | 11648 | 223 | 281 | 42 | ||
| 2025-12-01T00:08 | 11831 | 217 | -47.8 | |||
| 2025-12-01T00:08 | 11928 | 214 | 270 | 39 | ||
| 2025-12-01T00:09 | 12236 | 204 | 262 | 36 | ||
| 2025-12-01T00:09 | 12240 | 204 | -50.9 | |||
| 2025-12-01T00:10 | 12495 | 196 | 257 | 38 | ||
| 2025-12-01T00:11 | 12760 | 188 | 256 | 39 | ||
| 2025-12-01T00:12 | 13010 | 181 | 259 | 40 | ||
| 2025-12-01T00:13 | 13258 | 174 | 260 | 40 | ||
| 2025-12-01T00:14 | 13349 | 172 | -60.4 | |||
| 2025-12-01T00:14 | 13521 | 167 | 262 | 41 | ||
| 2025-12-01T00:15 | 13779 | 160 | 262 | 42 | ||
| 2025-12-01T00:16 | 13985 | 155 | -65.0 | |||
| 2025-12-01T00:16 | 14037 | 153 | 268 | 42 | ||
| 2025-12-01T00:17 | 14206 | 149 | -65.8 | |||
| 2025-12-01T00:17 | 14288 | 147 | 272 | 41 | ||
| 2025-12-01T00:18 | 14444 | 143 | -66.6 | |||
| 2025-12-01T00:18 | 14534 | 141 | 269 | 39 | ||
| 2025-12-01T00:19 | 14753 | 136 | -68.4 | |||
| 2025-12-01T00:19 | 14769 | 136 | 264 | 38 | ||
| 2025-12-01T00:20 | 15041 | 130 | 255 | 34 | ||
| 2025-12-01T00:20 | 15046 | 130 | -69.4 | |||
| 2025-12-01T00:21 | 15311 | 124 | 250 | 34 | ||
| 2025-12-01T00:22 | 15566 | 119 | 249 | 34 | ||
| 2025-12-01T00:23 | 15828 | 114 | 249 | 36 | ||
| 2025-12-01T00:24 | 15883 | 112 | -76.4 | |||
| 2025-12-01T00:24 | 16065 | 109 | -76.1 | |||
| 2025-12-01T00:24 | 16069 | 109 | 258 | 36 | ||
| 2025-12-01T00:25 | 16197 | 106 | -75.2 | |||
| 2025-12-01T00:25 | 16323 | 104 | 249 | 30 | ||
| 2025-12-01T00:26 | 16562 | 100 | 242 | 30 | ||
| 2025-12-01T00:26 | 16586 | 100 | -77.3 | |||
| 2025-12-01T00:27 | 16809 | 96 | 250 | 30 | ||
| 2025-12-01T00:28 | 17040 | 92 | 266 | 25 | ||
| 2025-12-01T00:29 | 17246 | 89 | -79.1 | |||
| 2025-12-01T00:29 | 17310 | 88 | 270 | 21 | ||
| 2025-12-01T00:30 | 17580 | 84 | 266 | 19 | ||
| 2025-12-01T00:30 | 17622 | 83 | -81.3 | |||
| 2025-12-01T00:31 | 17871 | 79 | 267 | 18 | ||
| 2025-12-01T00:31 | 17927 | 79 | -79.4 | |||
| 2025-12-01T00:32 | 17994 | 78 | 262 | 13 | ||
| 2025-12-01T00:33 | 18231 | 74 | -78.6 | |||
| 2025-12-01T00:33 | 18247 | 74 | 252 | 12 | ||
| 2025-12-01T00:33 | 18370 | 73 | -77.4 | |||
| 2025-12-01T00:33 | 18379 | 73 | 246 | 8 | ||
| 2025-12-01T00:33 | 18443 | 72 | -75.9 | |||
| 2025-12-01T00:34 | 18524 | 71 | 269 | 9 | ||
| 2025-12-01T00:34 | 18704 | 69 | 268 | 9 | ||
| 2025-12-01T00:34 | 18722 | 68 | -77.2 | |||
| 2025-12-01T00:35 | 18797 | 67 | -76.6 | |||
| 2025-12-01T00:35 | 18900 | 66 | 227 | 6 | ||
| 2025-12-01T00:36 | 19103 | 64 | 235 | 8 | ||
| 2025-12-01T00:36 | 19174 | 63 | -78.6 | |||
| 2025-12-01T00:36 | 19266 | 62 | 237 | 9 | ||
| 2025-12-01T00:37 | 19398 | 61 | 258 | 11 | ||
| 2025-12-01T00:37 | 19454 | 60 | -73.0 | |||
| 2025-12-01T00:38 | 19655 | 58 | 269 | 11 | ||
| 2025-12-01T00:38 | 19777 | 57 | 275 | 12 | ||
| 2025-12-01T00:38 | 19830 | 56 | -70.1 | |||
| 2025-12-01T00:39 | 20009 | 55 | 288 | 14 | ||
| 2025-12-01T00:39 | 20120 | 54 | -70.3 | |||
| 2025-12-01T00:40 | 20301 | 52 | 288 | 11 | ||
| 2025-12-01T00:40 | 20380 | 51 | -67.5 | |||
| 2025-12-01T00:40 | 20426 | 51 | 262 | 5 | ||
| 2025-12-01T00:40 | 20462 | 51 | -66.5 | |||
| 2025-12-01T00:41 | 20560 | 50 | 197 | 5 | ||
| 2025-12-01T00:41 | 20742 | 48 | 192 | 7 | ||
| 2025-12-01T00:42 | 20879 | 47 | 186 | 10 | ||
| 2025-12-01T00:43 | 21099 | 46 | 209 | 9 | ||
| 2025-12-01T00:43 | 21204 | 45 | -69.4 | |||
| 2025-12-01T00:44 | 21408 | 43 | 257 | 8 | ||
| 2025-12-01T00:44 | 21605 | 42 | -65.4 | 298 | 7 | |
| 2025-12-01T00:45 | 21768 | 41 | 276 | 6 | ||
| 2025-12-01T00:45 | 21921 | 40 | -62.0 | |||
| 2025-12-01T00:46 | 22047 | 39 | 324 | 6 | ||
| 2025-12-01T00:46 | 22144 | 38 | 4 | 4 | ||
| 2025-12-01T00:46 | 22227 | 38 | -58.1 | 44 | 3 | |
| 2025-12-01T00:47 | 22447 | 37 | 5 | 4 | ||
| 2025-12-01T00:48 | 22639 | 36 | -58.1 | |||
| 2025-12-01T00:48 | 22655 | 35 | 7 | 4 | ||
| 2025-12-01T00:48 | 22855 | 34 | 95 | 3 | ||
| 2025-12-01T00:49 | 23080 | 33 | 135 | 8 | ||
| 2025-12-01T00:49 | 23192 | 33 | -59.9 | |||
| 2025-12-01T00:50 | 23327 | 32 | 150 | 1 | ||
| 2025-12-01T00:51 | 23550 | 31 | 167 | 8 | ||
| 2025-12-01T00:51 | 23842 | 29 | 198 | 3 | ||
| 2025-12-01T00:52 | 24061 | 28 | 192 | 3 | ||
| 2025-12-01T00:52 | 24150 | 28 | -57.9 | |||
| 2025-12-01T00:53 | 24263 | 27 | 211 | 5 | ||
| 2025-12-01T00:53 | 24452 | 27 | 229 | 6 | ||
| 2025-12-01T00:54 | 24671 | 26 | 281 | 3 | ||
| 2025-12-01T00:55 | 24846 | 25 | -54.8 | |||
| 2025-12-01T00:55 | 24872 | 25 | 211 | 3 | ||
| 2025-12-01T00:56 | 25217 | 24 | 192 | 7 | ||
| 2025-12-01T00:57 | 25552 | 22 | 223 | 6 | ||
| 2025-12-01T00:57 | 25751 | 22 | 259 | 2 | ||
| 2025-12-01T00:58 | 25900 | 21 | 358 | 3 | ||
| 2025-12-01T00:58 | 25929 | 21 | -54.5 | 16 | 3 | |
| 2025-12-01T00:58 | 25990 | 21 | 26 | 4 | ||
| 2025-12-01T00:58 | 26085 | 21 | 10 | 5 | ||
| 2025-12-01T00:59 | 26244 | 20 | 54 | 5 | ||
| 2025-12-01T00:59 | 26306 | 20 | 52 | 6 | ||
| 2025-12-01T00:59 | 26404 | 20 | 66 | 12 | ||
| 2025-12-01T01:00 | 26503 | 19 | -53.5 | |||
| 2025-12-01T01:00 | 26614 | 19 | -53.6 | 67 | 11 | |
| 2025-12-01T11:31 | 8 | 1012 | 23.5 | 21.9 | 70 | 5 |
| 2025-12-01T11:31 | 14 | 1012 | 23.6 | 22.0 | 70 | 1 |
| 2025-12-01T11:31 | 53 | 1007 | 81 | 5 | ||
| 2025-12-01T11:32 | 183 | 992 | 69 | 9 | ||
| 2025-12-01T11:32 | 411 | 967 | 89 | 10 | ||
| 2025-12-01T11:33 | 496 | 957 | 20.2 | 19.7 | ||
| 2025-12-01T11:33 | 573 | 949 | 103 | 10 | ||
| 2025-12-01T11:33 | 702 | 935 | 100 | 8 | ||
| 2025-12-01T11:34 | 912 | 912 | 96 | 7 | ||
| 2025-12-01T11:34 | 928 | 911 | 17.9 | 17.7 | ||
| 2025-12-01T11:35 | 1252 | 877 | 104 | 5 | ||
| 2025-12-01T11:35 | 1320 | 870 | 15.9 | 15.6 | ||
| 2025-12-01T11:36 | 1454 | 856 | 64 | 2 | ||
| 2025-12-01T11:36 | 1703 | 832 | 13.6 | 13.1 | ||
| 2025-12-01T11:37 | 1748 | 827 | 264 | 2 | ||
| 2025-12-01T11:37 | 1806 | 822 | 311 | 4 | ||
| 2025-12-01T11:37 | 1874 | 815 | 12.4 | 10.3 | ||
| 2025-12-01T11:37 | 1995 | 803 | 312 | 4 | ||
| 2025-12-01T11:38 | 2296 | 775 | 0 | 0 | ||
| 2025-12-01T11:39 | 2560 | 751 | 9.8 | 8.2 | ||
| 2025-12-01T11:39 | 2651 | 743 | 256 | 2 | ||
| 2025-12-01T11:40 | 2792 | 730 | 286 | 3 | ||
| 2025-12-01T11:40 | 2903 | 720 | 293 | 5 | ||
| 2025-12-01T11:41 | 3152 | 699 | 6.1 | 4.6 | ||
| 2025-12-01T11:41 | 3251 | 691 | 275 | 12 | ||
| 2025-12-01T11:42 | 3483 | 671 | 275 | 10 | ||
| 2025-12-01T11:42 | 3521 | 668 | 3.2 | 0.3 | ||
| 2025-12-01T11:42 | 3638 | 658 | 2.3 | -3.2 | ||
| 2025-12-01T11:42 | 3674 | 655 | 266 | 18 | ||
| 2025-12-01T11:42 | 3705 | 653 | 1.8 | -11.4 | ||
| 2025-12-01T11:42 | 3741 | 650 | 4.3 | -12.6 | ||
| 2025-12-01T11:43 | 4035 | 627 | 272 | 16 | ||
| 2025-12-01T11:43 | 4131 | 619 | 2.3 | -24.3 | ||
| 2025-12-01T11:44 | 4392 | 600 | 264 | 15 | ||
| 2025-12-01T11:45 | 4618 | 583 | -0.7 | -25.8 | ||
| 2025-12-01T11:45 | 4717 | 576 | 265 | 16 | ||
| 2025-12-01T11:46 | 4977 | 557 | -2.7 | -31.3 | ||
| 2025-12-01T11:46 | 5040 | 553 | 279 | 21 | ||
| 2025-12-01T11:47 | 5372 | 530 | 263 | 20 | ||
| 2025-12-01T11:47 | 5446 | 525 | -5.9 | -33.8 | ||
| 2025-12-01T11:48 | 5611 | 514 | -6.6 | -34.3 | ||
| 2025-12-01T11:48 | 5705 | 508 | 259 | 24 | ||
| 2025-12-01T11:49 | 5996 | 489 | -9.3 | -34.4 | ||
| 2025-12-01T11:49 | 6041 | 487 | 260 | 23 | ||
| 2025-12-01T11:50 | 6148 | 480 | -10.0 | -39.4 | ||
| 2025-12-01T11:50 | 6247 | 474 | -10.5 | -41.3 | ||
| 2025-12-01T11:50 | 6310 | 470 | 277 | 26 | ||
| 2025-12-01T11:50 | 6322 | 469 | -8.4 | -43.6 | ||
| 2025-12-01T11:50 | 6357 | 467 | -7.7 | -43.1 | ||
| 2025-12-01T11:51 | 6653 | 450 | 277 | 27 | ||
| 2025-12-01T11:51 | 6681 | 448 | -9.4 | -39.0 | ||
| 2025-12-01T11:52 | 6991 | 430 | 284 | 28 | ||
| 2025-12-01T11:52 | 7079 | 425 | -11.9 | -40.9 | ||
| 2025-12-01T11:53 | 7309 | 413 | 285 | 34 | ||
| 2025-12-01T11:54 | 7519 | 401 | -14.7 | -37.1 | ||
| 2025-12-01T11:54 | 7658 | 394 | -15.7 | -36.5 | 287 | 38 |
| 2025-12-01T11:54 | 7777 | 388 | -16.4 | -37.7 | ||
| 2025-12-01T11:55 | 7997 | 377 | 281 | 38 | ||
| 2025-12-01T11:55 | 8144 | 369 | -19.1 | -40.0 | ||
| 2025-12-01T11:56 | 8244 | 364 | 278 | 37 | ||
| 2025-12-01T11:56 | 8465 | 354 | -21.3 | -44.0 | ||
| 2025-12-01T11:57 | 8566 | 349 | 278 | 36 | ||
| 2025-12-01T11:58 | 8842 | 336 | 278 | 38 | ||
| 2025-12-01T11:59 | 9125 | 323 | 278 | 34 | ||
| 2025-12-01T12:00 | 9416 | 310 | 282 | 33 | ||
| 2025-12-01T12:00 | 9584 | 303 | -30.6 | -50.8 | ||
| 2025-12-01T12:01 | 9698 | 298 | 280 | 33 | ||
| 2025-12-01T12:02 | 9999 | 286 | 283 | 34 | ||
| 2025-12-01T12:03 | 10298 | 274 | 287 | 36 | ||
| 2025-12-01T12:03 | 10560 | 263 | 289 | 35 | ||
| 2025-12-01T12:04 | 10647 | 260 | -40.0 | -54.8 | ||
| 2025-12-01T12:05 | 10914 | 250 | 298 | 36 | ||
| 2025-12-01T12:05 | 11010 | 247 | -42.2 | |||
| 2025-12-01T12:06 | 11215 | 239 | 296 | 36 | ||
| 2025-12-01T12:07 | 11493 | 230 | 293 | 35 | ||
| 2025-12-01T12:08 | 11760 | 220 | 295 | 36 | ||
| 2025-12-01T12:09 | 12016 | 212 | 297 | 37 | ||
| 2025-12-01T12:09 | 12080 | 210 | -51.0 | |||
| 2025-12-01T12:10 | 12272 | 204 | 296 | 36 | ||
| 2025-12-01T12:11 | 12535 | 196 | 296 | 34 | ||
| 2025-12-01T12:12 | 12802 | 188 | 296 | 34 | ||
| 2025-12-01T12:12 | 12829 | 187 | -56.7 | |||
| 2025-12-01T12:13 | 13105 | 179 | 280 | 33 | ||
| 2025-12-01T12:13 | 13272 | 174 | -59.3 | |||
| 2025-12-01T12:14 | 13477 | 168 | 265 | 35 | ||
| 2025-12-01T12:15 | 13807 | 160 | 257 | 34 | ||
| 2025-12-01T12:16 | 14085 | 153 | 257 | 36 | ||
| 2025-12-01T12:17 | 14378 | 145 | 263 | 39 | ||
| 2025-12-01T12:17 | 14490 | 143 | -69.6 | |||
| 2025-12-01T12:18 | 14670 | 138 | 276 | 42 | ||
| 2025-12-01T12:18 | 14731 | 137 | -69.3 | |||
| 2025-12-01T12:18 | 14791 | 136 | 281 | 38 | ||
| 2025-12-01T12:18 | 14902 | 133 | -67.3 | |||
| 2025-12-01T12:19 | 14992 | 131 | 279 | 28 | ||
| 2025-12-01T12:20 | 15209 | 126 | 267 | 25 | ||
| 2025-12-01T12:20 | 15380 | 123 | -70.0 | |||
| 2025-12-01T12:21 | 15474 | 121 | 270 | 25 | ||
| 2025-12-01T12:22 | 15757 | 115 | 259 | 25 | ||
| 2025-12-01T12:23 | 16043 | 110 | 257 | 27 | ||
| 2025-12-01T12:23 | 16252 | 106 | -76.9 | |||
| 2025-12-01T12:24 | 16323 | 105 | 263 | 28 | ||
| 2025-12-01T12:24 | 16555 | 100 | -76.7 | |||
| 2025-12-01T12:25 | 16615 | 99 | 265 | 26 | ||
| 2025-12-01T12:26 | 16921 | 94 | 270 | 24 | ||
| 2025-12-01T12:27 | 17236 | 89 | 287 | 22 | ||
| 2025-12-01T12:27 | 17260 | 89 | -80.6 | |||
| 2025-12-01T12:28 | 17519 | 85 | 270 | 20 | ||
| 2025-12-01T12:28 | 17634 | 83 | -81.4 | |||
| 2025-12-01T12:28 | 17640 | 83 | 267 | 19 | ||
| 2025-12-01T12:29 | 17757 | 81 | -80.1 | |||
| 2025-12-01T12:29 | 17798 | 81 | 265 | 17 | ||
| 2025-12-01T12:29 | 17827 | 80 | -76.4 | |||
| 2025-12-01T12:29 | 17927 | 79 | -76.2 | |||
| 2025-12-01T12:29 | 18018 | 78 | -75.8 | |||
| 2025-12-01T12:30 | 18092 | 77 | 261 | 15 | ||
| 2025-12-01T12:31 | 18413 | 72 | 241 | 10 | ||
| 2025-12-01T12:31 | 18557 | 71 | -79.7 | |||
| 2025-12-01T12:32 | 18705 | 69 | -78.6 | |||
| 2025-12-01T12:32 | 18720 | 69 | 260 | 12 | ||
| 2025-12-01T12:32 | 18888 | 67 | 278 | 11 | ||
| 2025-12-01T12:33 | 19044 | 65 | -77.8 | |||
| 2025-12-01T12:33 | 19062 | 65 | 274 | 11 | ||
| 2025-12-01T12:33 | 19235 | 63 | -75.4 | |||
| 2025-12-01T12:34 | 19328 | 62 | 285 | 11 | ||
| 2025-12-01T12:34 | 19470 | 60 | 258 | 8 | ||
| 2025-12-01T12:34 | 19540 | 60 | -71.5 | |||
| 2025-12-01T12:35 | 19608 | 59 | 222 | 9 | ||
| 2025-12-01T12:35 | 19822 | 57 | -71.9 | |||
| 2025-12-01T12:36 | 19916 | 56 | 226 | 7 | ||
| 2025-12-01T12:36 | 19994 | 55 | -68.4 | |||
| 2025-12-01T12:37 | 20047 | 55 | 189 | 3 | ||
| 2025-12-01T12:37 | 20121 | 54 | -68.4 | 187 | 5 | |
| 2025-12-02T00:41 | 8 | 1014 | 23.8 | 22.1 | 30 | 4 |
| 2025-12-02T00:41 | 10 | 1014 | 23.6 | 21.7 | 30 | 1 |
| 2025-12-02T00:41 | 18 | 1013 | 44 | 5 | ||
| 2025-12-02T00:42 | 190 | 993 | 31 | 8 | ||
| 2025-12-02T00:42 | 293 | 982 | 21.1 | 20.6 | ||
| 2025-12-02T00:42 | 377 | 972 | 21.1 | 19.6 | ||
| 2025-12-02T00:43 | 502 | 958 | 51 | 7 | ||
| 2025-12-02T00:43 | 772 | 929 | 18.6 | 17.4 | ||
| 2025-12-02T00:43 | 783 | 927 | 41 | 7 | ||
| 2025-12-02T00:44 | 1047 | 900 | 29 | 7 | ||
| 2025-12-02T00:44 | 1078 | 896 | 17.3 | 16.3 | ||
| 2025-12-02T00:45 | 1252 | 878 | 43 | 6 | ||
| 2025-12-02T00:45 | 1258 | 878 | 16.4 | 15.6 | ||
| 2025-12-02T00:45 | 1344 | 869 | 37 | 7 | ||
| 2025-12-02T00:46 | 1456 | 857 | 29 | 5 | ||
| 2025-12-02T00:46 | 1612 | 842 | 14.3 | 13.8 | ||
| 2025-12-02T00:46 | 1669 | 836 | 348 | 4 | ||
| 2025-12-02T00:47 | 1815 | 822 | 290 | 4 | ||
| 2025-12-02T00:47 | 1825 | 821 | 13.9 | 13.0 | ||
| 2025-12-02T00:47 | 1930 | 811 | 283 | 3 | ||
| 2025-12-02T00:47 | 2015 | 803 | 264 | 3 | ||
| 2025-12-02T00:48 | 2111 | 794 | 286 | 5 | ||
| 2025-12-02T00:48 | 2148 | 790 | 12.1 | 11.2 | ||
| 2025-12-02T00:48 | 2256 | 780 | 11.6 | 10.0 | ||
| 2025-12-02T00:48 | 2306 | 775 | 265 | 4 | ||
| 2025-12-02T00:48 | 2388 | 768 | 268 | 6 | ||
| 2025-12-02T00:49 | 2533 | 754 | 9.7 | 7.8 | ||
| 2025-12-02T00:49 | 2586 | 750 | 262 | 8 | ||
| 2025-12-02T00:50 | 2764 | 734 | 9.0 | 1.9 | ||
| 2025-12-02T00:50 | 2921 | 720 | 274 | 13 | ||
| 2025-12-02T00:50 | 2999 | 713 | 7.4 | -0.3 | ||
| 2025-12-02T00:50 | 3085 | 706 | 6.6 | 0.9 | ||
| 2025-12-02T00:51 | 3203 | 696 | 6.1 | -0.6 | ||
| 2025-12-02T00:51 | 3229 | 693 | 266 | 16 | ||
| 2025-12-02T00:51 | 3258 | 691 | 5.8 | -2.1 | ||
| 2025-12-02T00:52 | 3411 | 678 | 5.5 | -13.5 | ||
| 2025-12-02T00:52 | 3416 | 678 | 267 | 14 | ||
| 2025-12-02T00:52 | 3491 | 672 | 5.6 | -18.3 | ||
| 2025-12-02T00:52 | 3564 | 666 | 5.4 | -23.9 | 279 | 11 |
| 2025-12-02T00:53 | 3705 | 654 | 4.7 | -30.0 | ||
| 2025-12-02T00:53 | 3771 | 649 | 261 | 9 | ||
| 2025-12-02T00:53 | 3776 | 649 | 5.0 | -25.3 | ||
| 2025-12-02T00:54 | 4067 | 626 | 3.0 | -31.2 | ||
| 2025-12-02T00:54 | 4082 | 625 | 257 | 8 | ||
| 2025-12-02T00:54 | 4185 | 617 | 1.9 | -25.5 | ||
| 2025-12-02T00:54 | 4288 | 609 | 1.0 | -17.8 | ||
| 2025-12-02T00:55 | 4367 | 603 | 0.5 | -15.1 | ||
| 2025-12-02T00:55 | 4389 | 601 | 282 | 6 | ||
| 2025-12-02T00:55 | 4411 | 600 | 0.7 | -6.6 | ||
| 2025-12-02T00:55 | 4595 | 586 | 281 | 3 | ||
| 2025-12-02T00:55 | 4601 | 586 | -0.8 | -3.0 | ||
| 2025-12-02T00:55 | 4672 | 580 | 344 | 1 | ||
| 2025-12-02T00:56 | 4683 | 580 | -0.8 | -2.5 | ||
| 2025-12-02T00:56 | 4746 | 575 | 36 | 3 | ||
| 2025-12-02T00:56 | 4758 | 574 | -0.1 | -3.3 | ||
| 2025-12-02T00:56 | 4839 | 568 | 47 | 1 | ||
| 2025-12-02T00:56 | 4883 | 565 | -0.6 | -4.5 | ||
| 2025-12-02T00:57 | 5073 | 552 | -2.3 | -3.9 | ||
| 2025-12-02T00:57 | 5171 | 545 | 102 | 3 | ||
| 2025-12-02T00:58 | 5399 | 530 | 107 | 3 | ||
| 2025-12-02T00:58 | 5424 | 528 | -4.7 | -4.7 | ||
| 2025-12-02T00:58 | 5485 | 524 | -4.8 | -5.2 | ||
| 2025-12-02T00:58 | 5533 | 521 | -4.5 | -9.1 | ||
| 2025-12-02T00:58 | 5563 | 519 | 242 | 3 | ||
| 2025-12-02T00:58 | 5662 | 512 | -5.1 | -13.0 | ||
| 2025-12-02T00:58 | 5709 | 509 | 283 | 5 | ||
| 2025-12-02T00:59 | 5810 | 503 | -5.9 | -18.3 | ||
| 2025-12-02T00:59 | 5894 | 497 | -5.3 | -32.2 | ||
| 2025-12-02T00:59 | 5922 | 496 | 277 | 10 | ||
| 2025-12-02T01:00 | 6059 | 487 | -6.1 | -38.0 | ||
| 2025-12-02T01:00 | 6236 | 476 | 265 | 14 | ||
| 2025-12-02T01:00 | 6297 | 472 | -7.4 | -45.5 | ||
| 2025-12-02T01:01 | 6573 | 456 | 269 | 16 | ||
| 2025-12-02T01:01 | 6601 | 454 | -9.6 | -50.6 | ||
| 2025-12-02T01:02 | 6789 | 443 | 272 | 20 | ||
| 2025-12-02T01:03 | 7101 | 426 | 269 | 21 | ||
| 2025-12-02T01:03 | 7322 | 413 | -13.7 | -53.4 | ||
| 2025-12-02T01:04 | 7440 | 407 | 280 | 26 | ||
| 2025-12-02T01:04 | 7463 | 406 | -14.4 | -41.6 | ||
| 2025-12-02T01:04 | 7542 | 401 | -14.7 | -30.8 | ||
| 2025-12-02T01:05 | 7792 | 388 | 273 | 26 | ||
| 2025-12-02T01:05 | 7962 | 380 | -18.7 | -30.7 | ||
| 2025-12-02T01:06 | 8076 | 374 | -19.5 | -32.0 | ||
| 2025-12-02T01:06 | 8125 | 371 | 275 | 29 | ||
| 2025-12-02T01:06 | 8131 | 371 | -19.2 | -39.4 | ||
| 2025-12-02T01:06 | 8261 | 365 | -20.4 | -35.0 | ||
| 2025-12-02T01:06 | 8343 | 361 | -20.6 | -40.5 | ||
| 2025-12-02T01:07 | 8452 | 355 | 270 | 28 | ||
| 2025-12-02T01:07 | 8469 | 355 | -21.5 | -39.0 | ||
| 2025-12-02T01:07 | 8637 | 347 | -22.6 | -45.9 | ||
| 2025-12-02T01:08 | 8780 | 340 | 268 | 31 | ||
| 2025-12-02T01:08 | 8846 | 337 | -24.3 | -40.9 | ||
| 2025-12-02T01:09 | 9113 | 324 | 276 | 30 | ||
| 2025-12-02T01:10 | 9445 | 310 | 278 | 31 | ||
| 2025-12-02T01:10 | 9504 | 307 | -30.3 | -42.0 | ||
| 2025-12-02T01:11 | 9743 | 297 | 281 | 33 | ||
| 2025-12-02T01:11 | 9927 | 289 | -34.2 | -44.4 | ||
| 2025-12-02T01:12 | 10000 | 286 | 285 | 33 | ||
| 2025-12-02T01:12 | 10215 | 278 | -36.7 | -47.2 | ||
| 2025-12-02T01:13 | 10281 | 275 | 284 | 33 | ||
| 2025-12-02T01:13 | 10358 | 272 | -37.7 | -48.9 | ||
| 2025-12-02T01:14 | 10544 | 265 | 286 | 33 | ||
| 2025-12-02T01:14 | 10643 | 261 | -39.6 | -53.6 | ||
| 2025-12-02T01:14 | 10681 | 259 | -40.0 | -53.6 | ||
| 2025-12-02T01:15 | 10833 | 254 | 288 | 33 | ||
| 2025-12-02T01:16 | 11106 | 244 | -43.5 | |||
| 2025-12-02T01:16 | 11158 | 242 | 288 | 36 | ||
| 2025-12-02T01:17 | 11468 | 231 | 288 | 35 | ||
| 2025-12-02T01:18 | 11738 | 222 | -48.2 | |||
| 2025-12-02T01:18 | 11752 | 221 | 289 | 38 | ||
| 2025-12-02T01:19 | 12026 | 212 | 288 | 36 | ||
| 2025-12-02T01:20 | 12316 | 203 | 286 | 33 | ||
| 2025-12-02T01:20 | 12341 | 202 | -52.7 | |||
| 2025-12-02T01:21 | 12611 | 194 | -53.5 | |||
| 2025-12-02T01:21 | 12693 | 191 | 279 | 28 | ||
| 2025-12-02T01:22 | 13107 | 179 | 263 | 27 | ||
| 2025-12-02T01:22 | 13221 | 176 | 259 | 28 | ||
| 2025-12-02T01:23 | 13508 | 168 | -61.4 | |||
| 2025-12-02T01:23 | 13584 | 166 | 253 | 33 | ||
| 2025-12-02T01:24 | 13845 | 159 | 256 | 34 | ||
| 2025-12-02T01:25 | 14114 | 152 | 261 | 34 | ||
| 2025-12-02T01:26 | 14382 | 146 | 267 | 34 | ||
| 2025-12-02T01:27 | 14654 | 139 | 272 | 37 | ||
| 2025-12-02T01:27 | 14669 | 139 | -69.9 | |||
| 2025-12-02T01:28 | 14893 | 134 | 284 | 32 | ||
| 2025-12-02T01:28 | 14913 | 133 | -68.9 | |||
| 2025-12-02T01:28 | 15005 | 131 | -68.4 | |||
| 2025-12-02T01:29 | 15190 | 127 | 287 | 22 | ||
| 2025-12-02T01:30 | 15394 | 123 | -69.3 | |||
| 2025-12-02T01:30 | 15465 | 121 | 282 | 18 | ||
| 2025-12-02T01:31 | 15778 | 115 | 277 | 15 | ||
| 2025-12-02T01:32 | 16087 | 109 | 268 | 13 | ||
| 2025-12-02T01:33 | 16385 | 104 | 262 | 16 | ||
| 2025-12-02T01:33 | 16595 | 100 | -79.2 | |||
| 2025-12-02T01:34 | 16684 | 98 | 246 | 16 | ||
| 2025-12-02T01:34 | 16765 | 97 | -80.2 | |||
| 2025-12-02T01:34 | 16879 | 95 | 250 | 19 | ||
| 2025-12-02T01:35 | 17138 | 91 | -82.4 | |||
| 2025-12-02T01:35 | 17181 | 90 | 266 | 20 | ||
| 2025-12-02T01:36 | 17474 | 86 | 272 | 14 | ||
| 2025-12-02T01:37 | 17746 | 81 | -82.1 | |||
| 2025-12-02T01:37 | 17754 | 81 | 275 | 18 | ||
| 2025-12-02T01:38 | 17886 | 79 | -80.5 | |||
| 2025-12-02T01:38 | 18037 | 77 | 257 | 18 | ||
| 2025-12-02T01:39 | 18096 | 77 | -79.7 | |||
| 2025-12-02T01:39 | 18330 | 73 | 264 | 17 | ||
| 2025-12-02T01:40 | 18422 | 72 | -80.4 | |||
| 2025-12-02T01:40 | 18518 | 71 | 273 | 13 | ||
| 2025-12-02T01:40 | 18542 | 71 | -79.4 | |||
| 2025-12-02T01:41 | 18812 | 67 | 282 | 12 | ||
| 2025-12-02T01:41 | 18837 | 67 | -78.4 | |||
| 2025-12-02T01:42 | 19037 | 65 | -76.8 | |||
| 2025-12-02T01:42 | 19111 | 64 | 264 | 5 | ||
| 2025-12-02T01:43 | 19266 | 62 | 259 | 5 | ||
| 2025-12-02T01:43 | 19303 | 62 | -73.7 | |||
| 2025-12-02T01:43 | 19448 | 60 | 199 | 6 | ||
| 2025-12-02T01:44 | 19748 | 57 | 228 | 7 | ||
| 2025-12-02T01:44 | 19767 | 57 | -72.9 | |||
| 2025-12-02T01:45 | 19871 | 56 | -72.1 | |||
| 2025-12-02T01:45 | 19931 | 56 | 216 | 9 | ||
| 2025-12-02T01:45 | 20051 | 55 | -72.2 | |||
| 2025-12-02T01:46 | 20253 | 53 | -67.9 | 260 | 8 | |
| 2025-12-02T01:47 | 20563 | 50 | 260 | 6 | ||
| 2025-12-02T01:47 | 20590 | 50 | -66.4 | |||
| 2025-12-02T01:47 | 20777 | 48 | 301 | 6 | ||
| 2025-12-02T01:48 | 20880 | 48 | 262 | 3 | ||
| 2025-12-02T01:48 | 20958 | 47 | 217 | 3 | ||
| 2025-12-02T01:48 | 20985 | 47 | -61.9 | |||
| 2025-12-02T01:49 | 21255 | 45 | 207 | 5 | ||
| 2025-12-02T01:50 | 21492 | 43 | 245 | 5 | ||
| 2025-12-02T01:50 | 21740 | 41 | 306 | 2 | ||
| 2025-12-02T01:50 | 21754 | 41 | -64.6 | |||
| 2025-12-02T01:51 | 21889 | 40 | 271 | 2 | ||
| 2025-12-02T01:51 | 22012 | 40 | 188 | 3 | ||
| 2025-12-02T01:51 | 22044 | 39 | -62.6 | |||
| 2025-12-02T01:52 | 22220 | 38 | 200 | 3 | ||
| 2025-12-02T01:52 | 22420 | 37 | 185 | 3 | ||
| 2025-12-02T01:53 | 22472 | 37 | -59.2 | |||
| 2025-12-02T01:53 | 22572 | 36 | 202 | 6 | ||
| 2025-12-02T01:53 | 22734 | 35 | 202 | 4 | ||
| 2025-12-02T01:54 | 22878 | 34 | 184 | 1 | ||
| 2025-12-02T01:54 | 23066 | 33 | -56.6 | |||
| 2025-12-02T01:55 | 23242 | 33 | 356 | 2 | ||
| 2025-12-02T01:56 | 23481 | 31 | 6 | 4 | ||
| 2025-12-02T01:56 | 23500 | 31 | 16 | 3 | ||
| 2025-12-02T01:56 | 23563 | 31 | 115 | 3 | ||
| 2025-12-02T01:56 | 23647 | 31 | 116 | 3 | ||
| 2025-12-02T01:56 | 23727 | 30 | 93 | 2 | ||
| 2025-12-02T01:57 | 23818 | 30 | 144 | 4 | ||
| 2025-12-02T01:57 | 24014 | 29 | 126 | 7 | ||
| 2025-12-02T01:58 | 24189 | 28 | -55.7 | |||
| 2025-12-02T01:58 | 24214 | 28 | 132 | 6 | ||
| 2025-12-02T01:58 | 24330 | 27 | 137 | 6 | ||
| 2025-12-02T01:59 | 24611 | 26 | 171 | 9 | ||
| 2025-12-02T02:00 | 24809 | 25 | 164 | 8 | ||
| 2025-12-02T02:00 | 25117 | 24 | 123 | 5 | ||
| 2025-12-02T02:01 | 25464 | 23 | 143 | 4 | ||
| 2025-12-02T02:02 | 25610 | 22 | -56.2 | |||
| 2025-12-02T02:02 | 25811 | 22 | 159 | 5 | ||
| 2025-12-02T02:03 | 25961 | 21 | 141 | 4 | ||
| 2025-12-02T02:04 | 26175 | 21 | -53.3 | |||
| 2025-12-02T02:04 | 26267 | 20 | 110 | 3 | ||
| 2025-12-02T02:04 | 26395 | 20 | 95 | 2 | ||
| 2025-12-02T02:04 | 26495 | 20 | 66 | 3 | ||
| 2025-12-02T02:05 | 26845 | 19 | -53.8 | 83 | 6 | |
| 2025-12-02T11:31 | 8 | 1015 | 22.9 | 18.9 | 20 | 5 |
| 2025-12-02T11:31 | 13 | 1014 | 22.9 | 19.1 | 20 | 2 |
| 2025-12-02T11:31 | 35 | 1012 | 59 | 3 | ||
| 2025-12-02T11:31 | 83 | 1006 | 23 | 7 | ||
| 2025-12-02T11:32 | 298 | 982 | 21.0 | 17.6 | ||
| 2025-12-02T11:32 | 437 | 966 | 25 | 12 | ||
| 2025-12-02T11:33 | 766 | 930 | 30 | 11 | ||
| 2025-12-02T11:33 | 845 | 921 | 16.7 | 15.1 | ||
| 2025-12-02T11:34 | 913 | 914 | 16.7 | 14.2 | ||
| 2025-12-02T11:34 | 1096 | 894 | 30 | 7 | ||
| 2025-12-02T11:35 | 1191 | 885 | 15.5 | 10.7 | ||
| 2025-12-02T11:35 | 1317 | 872 | 24 | 5 | ||
| 2025-12-02T11:36 | 1529 | 850 | 359 | 4 | ||
| 2025-12-02T11:36 | 1677 | 835 | 345 | 5 | ||
| 2025-12-02T11:36 | 1774 | 826 | 11.2 | 8.8 | ||
| 2025-12-02T11:36 | 1790 | 824 | 339 | 6 | ||
| 2025-12-02T11:37 | 1910 | 812 | 10.5 | 6.6 | ||
| 2025-12-02T11:37 | 1975 | 806 | 10.4 | 4.1 | ||
| 2025-12-02T11:37 | 1980 | 805 | 342 | 7 | ||
| 2025-12-02T11:38 | 2251 | 779 | 9.4 | 2.9 | ||
| 2025-12-02T11:38 | 2285 | 776 | 305 | 11 | ||
| 2025-12-02T11:38 | 2352 | 770 | 9.2 | 5.0 | ||
| 2025-12-02T11:38 | 2466 | 760 | 8.6 | 6.2 | ||
| 2025-12-02T11:39 | 2567 | 750 | 279 | 7 | ||
| 2025-12-02T11:39 | 2662 | 742 | 7.9 | 5.4 | ||
| 2025-12-02T11:39 | 2833 | 727 | 8.1 | 3.2 | ||
| 2025-12-02T11:40 | 2911 | 720 | 266 | 14 | ||
| 2025-12-02T11:40 | 3043 | 708 | 6.6 | 2.5 | ||
| 2025-12-02T11:40 | 3075 | 706 | 266 | 12 | ||
| 2025-12-02T11:41 | 3280 | 688 | 4.7 | 1.5 | ||
| 2025-12-02T11:41 | 3359 | 681 | 4.6 | -0.8 | ||
| 2025-12-02T11:41 | 3415 | 677 | 5.8 | -7.8 | ||
| 2025-12-02T11:41 | 3427 | 676 | 266 | 13 | ||
| 2025-12-02T11:42 | 3562 | 665 | 5.7 | -12.3 | ||
| 2025-12-02T11:42 | 3631 | 659 | 5.8 | -18.1 | ||
| 2025-12-02T11:42 | 3737 | 651 | 5.6 | -27.6 | ||
| 2025-12-02T11:42 | 3775 | 648 | 250 | 15 | ||
| 2025-12-02T11:42 | 3797 | 646 | 5.4 | -20.0 | ||
| 2025-12-02T11:43 | 4025 | 628 | 4.8 | -29.9 | ||
| 2025-12-02T11:43 | 4096 | 623 | 261 | 18 | ||
| 2025-12-02T11:44 | 4379 | 601 | 272 | 20 | ||
| 2025-12-02T11:44 | 4420 | 598 | 1.7 | -39.1 | ||
| 2025-12-02T11:44 | 4552 | 588 | 1.6 | -39.2 | ||
| 2025-12-02T11:45 | 4729 | 576 | 0.3 | -43.9 | ||
| 2025-12-02T11:45 | 4734 | 575 | 266 | 19 | ||
| 2025-12-02T11:46 | 5031 | 554 | -0.8 | -44.7 | ||
| 2025-12-02T11:46 | 5076 | 551 | 262 | 19 | ||
| 2025-12-02T11:47 | 5332 | 534 | 261 | 20 | ||
| 2025-12-02T11:47 | 5429 | 527 | -2.0 | -51.6 | ||
| 2025-12-02T11:47 | 5505 | 522 | -1.6 | -51.3 | ||
| 2025-12-02T11:48 | 5638 | 513 | 262 | 22 | ||
| 2025-12-02T11:48 | 5701 | 509 | -1.8 | -34.8 | ||
| 2025-12-02T11:49 | 5975 | 492 | 259 | 21 | ||
| 2025-12-02T11:49 | 6067 | 486 | -5.1 | -32.1 | ||
| 2025-12-02T11:50 | 6278 | 473 | 260 | 21 | ||
| 2025-12-02T11:50 | 6455 | 463 | -7.7 | -29.9 | ||
| 2025-12-02T11:51 | 6567 | 456 | -7.9 | -41.1 | 257 | 23 |
| 2025-12-02T11:51 | 6649 | 451 | -8.6 | -27.0 | ||
| 2025-12-02T11:52 | 6894 | 437 | 258 | 23 | ||
| 2025-12-02T11:52 | 6929 | 435 | -10.6 | -33.0 | ||
| 2025-12-02T11:52 | 6992 | 432 | -11.2 | -22.7 | ||
| 2025-12-02T11:53 | 7183 | 421 | -12.8 | -21.1 | ||
| 2025-12-02T11:53 | 7199 | 420 | 265 | 23 | ||
| 2025-12-02T11:53 | 7416 | 408 | -14.2 | -23.6 | ||
| 2025-12-02T11:54 | 7534 | 402 | -14.5 | -28.3 | ||
| 2025-12-02T11:54 | 7546 | 401 | 265 | 26 | ||
| 2025-12-02T11:54 | 7799 | 388 | -16.4 | -34.2 | ||
| 2025-12-02T11:55 | 7898 | 383 | 264 | 26 | ||
| 2025-12-02T11:55 | 7985 | 379 | -18.0 | -36.1 | ||
| 2025-12-02T11:55 | 8189 | 368 | -19.6 | -32.8 | ||
| 2025-12-02T11:56 | 8258 | 365 | 272 | 24 | ||
| 2025-12-02T11:57 | 8574 | 350 | 275 | 25 | ||
| 2025-12-02T11:57 | 8670 | 345 | -23.4 | -38.8 | ||
| 2025-12-02T11:58 | 8884 | 335 | 274 | 26 | ||
| 2025-12-02T11:59 | 9140 | 323 | 276 | 26 | ||
| 2025-12-02T11:59 | 9237 | 319 | -27.4 | -45.1 | ||
| 2025-12-02T12:00 | 9432 | 311 | 271 | 28 | ||
| 2025-12-02T12:00 | 9662 | 301 | -30.7 | -46.8 | ||
| 2025-12-02T12:01 | 9710 | 299 | 268 | 30 | ||
| 2025-12-02T12:02 | 9971 | 288 | 267 | 28 | ||
| 2025-12-02T12:03 | 10248 | 277 | 268 | 28 | ||
| 2025-12-02T12:04 | 10521 | 266 | 268 | 28 | ||
| 2025-12-02T12:04 | 10682 | 260 | -40.0 | -52.2 | ||
| 2025-12-02T12:05 | 10782 | 256 | 268 | 27 | ||
| 2025-12-02T12:06 | 11039 | 246 | 270 | 29 | ||
| 2025-12-02T12:07 | 11313 | 236 | 273 | 28 | ||
| 2025-12-02T12:08 | 11598 | 227 | 280 | 29 | ||
| 2025-12-02T12:09 | 11828 | 219 | -48.2 | |||
| 2025-12-02T12:09 | 11863 | 218 | 276 | 30 | ||
| 2025-12-02T12:10 | 12132 | 209 | 277 | 31 | ||
| 2025-12-02T12:11 | 12407 | 200 | 275 | 32 | ||
| 2025-12-02T12:12 | 12682 | 192 | 276 | 31 | ||
| 2025-12-02T12:13 | 12955 | 184 | 273 | 32 | ||
| 2025-12-02T12:14 | 13188 | 177 | -59.6 | |||
| 2025-12-02T12:14 | 13223 | 176 | 267 | 32 | ||
| 2025-12-02T12:15 | 13485 | 169 | 266 | 33 | ||
| 2025-12-02T12:16 | 13734 | 162 | 264 | 33 | ||
| 2025-12-02T12:16 | 13827 | 160 | -64.0 | |||
| 2025-12-02T12:17 | 14001 | 155 | 278 | 37 | ||
| 2025-12-02T12:17 | 14064 | 154 | -65.1 | |||
| 2025-12-02T12:18 | 14269 | 148 | 285 | 37 | ||
| 2025-12-02T12:19 | 14508 | 143 | -67.5 | |||
| 2025-12-02T12:19 | 14547 | 142 | 286 | 34 | ||
| 2025-12-02T12:20 | 14838 | 135 | 288 | 31 | ||
| 2025-12-02T12:20 | 14885 | 134 | -68.8 | |||
| 2025-12-02T12:21 | 15110 | 129 | 286 | 28 | ||
| 2025-12-02T12:22 | 15359 | 124 | 283 | 27 | ||
| 2025-12-02T12:22 | 15477 | 121 | -72.9 | |||
| 2025-12-02T12:23 | 15630 | 118 | 276 | 19 | ||
| 2025-12-02T12:23 | 15686 | 117 | -73.0 | |||
| 2025-12-02T12:23 | 15850 | 114 | 263 | 17 | ||
| 2025-12-02T12:24 | 16182 | 108 | 246 | 16 | ||
| 2025-12-02T12:25 | 16464 | 102 | 240 | 18 | ||
| 2025-12-02T12:26 | 16587 | 100 | -81.2 | |||
| 2025-12-02T12:26 | 16698 | 98 | -81.7 | |||
| 2025-12-02T12:26 | 16739 | 97 | 245 | 22 | ||
| 2025-12-02T12:27 | 16994 | 93 | 258 | 19 | ||
| 2025-12-02T12:28 | 17123 | 91 | -81.3 | |||
| 2025-12-02T12:28 | 17275 | 89 | -81.2 | |||
| 2025-12-02T12:28 | 17288 | 88 | 241 | 16 | ||
| 2025-12-02T12:29 | 17566 | 84 | -81.9 | |||
| 2025-12-02T12:29 | 17594 | 84 | 238 | 17 | ||
| 2025-12-02T12:30 | 17888 | 79 | 241 | 18 | ||
| 2025-12-02T12:30 | 17910 | 79 | -81.8 | |||
| 2025-12-02T12:31 | 18120 | 76 | -80.3 | |||
| 2025-12-02T12:31 | 18135 | 76 | 262 | 19 | ||
| 2025-12-02T12:32 | 18412 | 72 | 267 | 14 | ||
| 2025-12-02T12:33 | 18639 | 70 | -76.7 | |||
| 2025-12-02T12:33 | 18707 | 69 | 265 | 13 | ||
| 2025-12-02T12:34 | 18973 | 66 | 256 | 13 | ||
| 2025-12-02T12:35 | 19071 | 65 | -73.9 | |||
| 2025-12-02T12:35 | 19146 | 64 | 249 | 13 | ||
| 2025-12-02T12:35 | 19210 | 63 | -71.9 | |||
| 2025-12-02T12:35 | 19286 | 62 | 252 | 13 | ||
| 2025-12-02T12:36 | 19480 | 60 | -70.7 | |||
| 2025-12-02T12:36 | 19588 | 59 | 245 | 10 | ||
| 2025-12-02T12:37 | 19679 | 58 | -69.8 | |||
| 2025-12-02T12:37 | 19790 | 57 | -67.9 | |||
| 2025-12-02T12:37 | 19886 | 56 | 250 | 9 | ||
| 2025-12-02T12:38 | 20056 | 55 | -68.2 | |||
| 2025-12-02T12:38 | 20067 | 55 | 260 | 8 | ||
| 2025-12-02T12:39 | 20112 | 54 | 297 | 6 | ||
| 2025-12-02T12:39 | 20138 | 54 | -67.4 | 298 | 3 | |
| 2025-12-02T23:31 | 8 | 1019 | 21.2 | 14.6 | 20 | 7 |
| 2025-12-02T23:31 | 11 | 1018 | 21.2 | 14.8 | 36 | 1 |
| 2025-12-02T23:31 | 35 | 1016 | 17 | 4 | ||
| 2025-12-02T23:31 | 102 | 1008 | 20.2 | 14.3 | ||
| 2025-12-02T23:31 | 146 | 1003 | 30 | 10 | ||
| 2025-12-02T23:32 | 385 | 975 | 15 | 13 | ||
| 2025-12-02T23:33 | 629 | 948 | 15.3 | 12.6 | ||
| 2025-12-02T23:33 | 688 | 941 | 21 | 17 | ||
| 2025-12-02T23:34 | 911 | 916 | 20 | 15 | ||
| 2025-12-02T23:35 | 1213 | 884 | 10.7 | 10.2 | ||
| 2025-12-02T23:35 | 1223 | 883 | 22 | 13 | ||
| 2025-12-02T23:36 | 1443 | 860 | 11 | 9 | ||
| 2025-12-02T23:36 | 1665 | 837 | 8.4 | 7.8 | ||
| 2025-12-02T23:36 | 1680 | 836 | 342 | 10 | ||
| 2025-12-02T23:37 | 1759 | 828 | 9.0 | 6.1 | ||
| 2025-12-02T23:37 | 1839 | 820 | 11.5 | 5.6 | ||
| 2025-12-02T23:37 | 1972 | 807 | 322 | 11 | ||
| 2025-12-02T23:38 | 2016 | 803 | 11.6 | 3.1 | ||
| 2025-12-02T23:38 | 2119 | 793 | 315 | 9 | ||
| 2025-12-02T23:39 | 2361 | 770 | 307 | 10 | ||
| 2025-12-02T23:39 | 2422 | 764 | 8.1 | 1.7 | ||
| 2025-12-02T23:40 | 2700 | 739 | 313 | 9 | ||
| 2025-12-02T23:40 | 2740 | 735 | 5.5 | 1.2 | ||
| 2025-12-02T23:40 | 2809 | 729 | 5.3 | 1.6 | ||
| 2025-12-02T23:41 | 2994 | 713 | 295 | 9 | ||
| 2025-12-02T23:41 | 3251 | 691 | 1.9 | 0.7 | ||
| 2025-12-02T23:42 | 3331 | 684 | 289 | 7 | ||
| 2025-12-02T23:42 | 3414 | 677 | 1.5 | 0.3 | ||
| 2025-12-02T23:43 | 3656 | 657 | 286 | 13 | ||
| 2025-12-02T23:43 | 3683 | 655 | -0.2 | -0.8 | ||
| 2025-12-02T23:44 | 3974 | 631 | 288 | 15 | ||
| 2025-12-02T23:44 | 4016 | 628 | -2.7 | -3.4 | ||
| 2025-12-02T23:44 | 4262 | 609 | -3.6 | -4.3 | ||
| 2025-12-02T23:45 | 4282 | 607 | 294 | 14 | ||
| 2025-12-02T23:45 | 4313 | 605 | -2.7 | -6.2 | ||
| 2025-12-02T23:45 | 4368 | 601 | 296 | 19 | ||
| 2025-12-02T23:45 | 4394 | 599 | 0.0 | -12.0 | ||
| 2025-12-02T23:45 | 4437 | 596 | 3.2 | -19.5 | ||
| 2025-12-02T23:45 | 4448 | 595 | 287 | 25 | ||
| 2025-12-02T23:45 | 4542 | 588 | 4.3 | -25.9 | ||
| 2025-12-02T23:46 | 4617 | 583 | 4.4 | -16.6 | ||
| 2025-12-02T23:46 | 4762 | 572 | 274 | 25 | ||
| 2025-12-02T23:47 | 5105 | 548 | 265 | 25 | ||
| 2025-12-02T23:47 | 5117 | 548 | 1.2 | -19.3 | ||
| 2025-12-02T23:48 | 5398 | 529 | -1.0 | -23.7 | ||
| 2025-12-02T23:48 | 5444 | 526 | 271 | 25 | ||
| 2025-12-02T23:48 | 5592 | 516 | -2.3 | -21.2 | ||
| 2025-12-02T23:49 | 5680 | 510 | -2.7 | -22.6 | ||
| 2025-12-02T23:49 | 5798 | 503 | 268 | 26 | ||
| 2025-12-02T23:49 | 5803 | 503 | -3.0 | -32.7 | ||
| 2025-12-02T23:50 | 6054 | 487 | -4.0 | -38.2 | ||
| 2025-12-02T23:50 | 6148 | 481 | 267 | 29 | ||
| 2025-12-02T23:51 | 6481 | 461 | 264 | 29 | ||
| 2025-12-02T23:52 | 6650 | 451 | -8.4 | -38.2 | ||
| 2025-12-02T23:52 | 6811 | 442 | 270 | 29 | ||
| 2025-12-02T23:53 | 7094 | 426 | -12.3 | -39.9 | ||
| 2025-12-02T23:53 | 7131 | 424 | 267 | 29 | ||
| 2025-12-02T23:54 | 7382 | 410 | -13.9 | -47.6 | ||
| 2025-12-02T23:54 | 7456 | 406 | 265 | 30 | ||
| 2025-12-02T23:55 | 7697 | 393 | -15.4 | -51.2 | ||
| 2025-12-02T23:55 | 7799 | 388 | 271 | 32 | ||
| 2025-12-02T23:56 | 8101 | 373 | 271 | 32 | ||
| 2025-12-02T23:56 | 8247 | 366 | -19.7 | -54.2 | ||
| 2025-12-02T23:57 | 8457 | 355 | 277 | 32 | ||
| 2025-12-02T23:57 | 8462 | 355 | -21.2 | -51.0 | ||
| 2025-12-02T23:58 | 8729 | 342 | -23.4 | -49.8 | ||
| 2025-12-02T23:58 | 8779 | 340 | 275 | 32 | ||
| 2025-12-02T23:59 | 9098 | 325 | 271 | 34 | ||
| 2025-12-02T23:59 | 9181 | 322 | -26.5 | -53.5 | ||
| 2025-12-03T00:00 | 9413 | 312 | 270 | 34 | ||
| 2025-12-03T00:01 | 9672 | 301 | 271 | 33 | ||
| 2025-12-03T00:02 | 9923 | 290 | 272 | 33 | ||
| 2025-12-03T00:02 | 10002 | 287 | -34.3 | -54.6 | ||
| 2025-12-03T00:03 | 10175 | 280 | 274 | 32 | ||
| 2025-12-03T00:04 | 10446 | 269 | 278 | 32 | ||
| 2025-12-03T00:05 | 10754 | 257 | -39.7 | -57.1 | ||
| 2025-12-03T00:05 | 10764 | 257 | 274 | 30 | ||
| 2025-12-03T00:05 | 10809 | 255 | -40.0 | -57.9 | ||
| 2025-12-03T00:06 | 11059 | 246 | 268 | 31 | ||
| 2025-12-03T00:07 | 11382 | 234 | 269 | 33 | ||
| 2025-12-03T00:08 | 11674 | 224 | 267 | 34 | ||
| 2025-12-03T00:09 | 11817 | 220 | -48.8 | |||
| 2025-12-03T00:09 | 11955 | 215 | 265 | 34 | ||
| 2025-12-03T00:10 | 12231 | 206 | 269 | 34 | ||
| 2025-12-03T00:11 | 12511 | 197 | 270 | 35 | ||
| 2025-12-03T00:12 | 12791 | 189 | 268 | 35 | ||
| 2025-12-03T00:13 | 13067 | 181 | 271 | 37 | ||
| 2025-12-03T00:13 | 13188 | 177 | -60.1 | |||
| 2025-12-03T00:14 | 13336 | 173 | 269 | 36 | ||
| 2025-12-03T00:15 | 13467 | 169 | -61.4 | |||
| 2025-12-03T00:15 | 13597 | 166 | 267 | 35 | ||
| 2025-12-03T00:16 | 13863 | 159 | 267 | 33 | ||
| 2025-12-03T00:17 | 14139 | 152 | 267 | 30 | ||
| 2025-12-03T00:18 | 14440 | 145 | 272 | 28 | ||
| 2025-12-03T00:19 | 14664 | 139 | -68.5 | |||
| 2025-12-03T00:19 | 14758 | 137 | 282 | 28 | ||
| 2025-12-03T00:20 | 14970 | 132 | -70.4 | |||
| 2025-12-03T00:20 | 14982 | 132 | 283 | 25 | ||
| 2025-12-03T00:20 | 15180 | 128 | 273 | 20 | ||
| 2025-12-03T00:21 | 15366 | 124 | -72.6 | |||
| 2025-12-03T00:21 | 15664 | 118 | 240 | 21 | ||
| 2025-12-03T00:22 | 15932 | 112 | 234 | 23 | ||
| 2025-12-03T00:22 | 16085 | 109 | -78.5 | |||
| 2025-12-03T00:23 | 16203 | 107 | 231 | 27 | ||
| 2025-12-03T00:24 | 16536 | 101 | 251 | 28 | ||
| 2025-12-03T00:25 | 16823 | 96 | 262 | 28 | ||
| 2025-12-03T00:25 | 16985 | 93 | -82.9 | |||
| 2025-12-03T00:25 | 17078 | 92 | 267 | 27 | ||
| 2025-12-03T00:26 | 17208 | 89 | -82.2 | |||
| 2025-12-03T00:26 | 17283 | 88 | 250 | 24 | ||
| 2025-12-03T00:27 | 17455 | 86 | -82.5 | |||
| 2025-12-03T00:27 | 17574 | 84 | 258 | 27 | ||
| 2025-12-03T00:28 | 17843 | 80 | 272 | 25 | ||
| 2025-12-03T00:28 | 17942 | 78 | -82.1 | |||
| 2025-12-03T00:29 | 18141 | 76 | 283 | 21 | ||
| 2025-12-03T00:29 | 18200 | 75 | -80.8 | |||
| 2025-12-03T00:30 | 18329 | 73 | -79.3 | |||
| 2025-12-03T00:30 | 18422 | 72 | 268 | 13 | ||
| 2025-12-03T00:31 | 18680 | 69 | 244 | 13 | ||
| 2025-12-03T00:31 | 18803 | 67 | -80.3 | |||
| 2025-12-03T00:32 | 18948 | 66 | -78.5 | 264 | 13 | |
| 2025-12-03T00:33 | 19247 | 62 | -74.4 | 286 | 10 | |
| 2025-12-03T00:33 | 19372 | 61 | 313 | 7 | ||
| 2025-12-03T00:34 | 19476 | 60 | -72.9 | |||
| 2025-12-03T00:34 | 19514 | 60 | 311 | 9 | ||
| 2025-12-03T00:34 | 19652 | 58 | -71.9 | |||
| 2025-12-03T00:34 | 19735 | 57 | -70.5 | |||
| 2025-12-03T00:35 | 19789 | 57 | 303 | 7 | ||
| 2025-12-03T00:35 | 19881 | 56 | 277 | 5 | ||
| 2025-12-03T00:35 | 19970 | 55 | 210 | 6 | ||
| 2025-12-03T00:35 | 20014 | 55 | -66.5 | |||
| 2025-12-03T00:36 | 20283 | 52 | 219 | 9 | ||
| 2025-12-03T00:37 | 20449 | 51 | -67.6 | |||
| 2025-12-03T00:37 | 20470 | 51 | 228 | 9 | ||
| 2025-12-03T00:38 | 20689 | 49 | -64.8 | |||
| 2025-12-03T00:38 | 20790 | 48 | 296 | 11 | ||
| 2025-12-03T00:39 | 21048 | 46 | 319 | 7 | ||
| 2025-12-03T00:39 | 21062 | 46 | -63.0 | |||
| 2025-12-03T00:39 | 21157 | 45 | 322 | 1 | ||
| 2025-12-03T00:39 | 21280 | 44 | 176 | 3 | ||
| 2025-12-03T00:40 | 21380 | 44 | -62.3 | |||
| 2025-12-03T00:40 | 21493 | 43 | 228 | 5 | ||
| 2025-12-03T00:41 | 21665 | 42 | 220 | 2 | ||
| 2025-12-03T00:41 | 21787 | 41 | 233 | 2 | ||
| 2025-12-03T00:41 | 21970 | 40 | 287 | 5 | ||
| 2025-12-03T00:42 | 22129 | 39 | 278 | 2 | ||
| 2025-12-03T00:43 | 22476 | 37 | 235 | 2 | ||
| 2025-12-03T00:43 | 22493 | 37 | -60.5 | |||
| 2025-12-03T00:44 | 22789 | 35 | 312 | 3 | ||
| 2025-12-03T00:44 | 22934 | 34 | 353 | 5 | ||
| 2025-12-03T00:45 | 23163 | 33 | 360 | 3 | ||
| 2025-12-03T00:45 | 23180 | 33 | 4 | 3 | ||
| 2025-12-03T00:45 | 23278 | 32 | 52 | 2 | ||
| 2025-12-03T00:46 | 23359 | 32 | 129 | 3 | ||
| 2025-12-03T00:46 | 23438 | 31 | 123 | 4 | ||
| 2025-12-03T00:46 | 23541 | 31 | 53 | 4 | ||
| 2025-12-03T00:46 | 23603 | 31 | -57.0 | |||
| 2025-12-03T00:47 | 23901 | 29 | 91 | 7 | ||
| 2025-12-03T00:47 | 23966 | 29 | -55.8 | |||
| 2025-12-03T00:48 | 24056 | 29 | 83 | 6 | ||
| 2025-12-03T00:48 | 24194 | 28 | 99 | 5 | ||
| 2025-12-03T00:48 | 24352 | 27 | -55.0 | 80 | 9 | |
| 2025-12-03T11:31 | 8 | 1021 | 20.0 | 12.3 | 20 | 7 |
| 2025-12-03T11:31 | 15 | 1020 | 20.1 | 12.4 | 11 | 1 |
| 2025-12-03T11:31 | 44 | 1017 | 18 | 3 | ||
| 2025-12-03T11:31 | 79 | 1012 | 33 | 7 | ||
| 2025-12-03T11:32 | 225 | 995 | 11 | 10 | ||
| 2025-12-03T11:32 | 311 | 985 | 17.6 | 10.5 | ||
| 2025-12-03T11:32 | 385 | 977 | 23 | 12 | ||
| 2025-12-03T11:32 | 521 | 961 | 21 | 16 | ||
| 2025-12-03T11:33 | 867 | 923 | 20 | 17 | ||
| 2025-12-03T11:33 | 872 | 922 | 12.3 | 7.8 | ||
| 2025-12-03T11:34 | 1133 | 894 | 10.1 | 6.8 | ||
| 2025-12-03T11:34 | 1187 | 888 | 9 | 17 | ||
| 2025-12-03T11:35 | 1281 | 878 | 9.3 | 4.9 | ||
| 2025-12-03T11:35 | 1515 | 854 | 357 | 14 | ||
| 2025-12-03T11:36 | 1551 | 850 | 7.3 | 5.4 | ||
| 2025-12-03T11:36 | 1814 | 823 | 7 | 11 | ||
| 2025-12-03T11:37 | 2078 | 797 | 3.6 | 3.0 | ||
| 2025-12-03T11:37 | 2129 | 792 | 2 | 12 | ||
| 2025-12-03T11:38 | 2190 | 786 | 3.6 | 0.8 | ||
| 2025-12-03T11:38 | 2291 | 776 | 4.5 | -1.1 | ||
| 2025-12-03T11:38 | 2302 | 775 | 315 | 8 | ||
| 2025-12-03T11:38 | 2366 | 769 | 6.1 | -1.1 | ||
| 2025-12-03T11:38 | 2409 | 765 | 6.9 | -1.0 | ||
| 2025-12-03T11:38 | 2495 | 757 | 7.5 | -0.5 | ||
| 2025-12-03T11:39 | 2579 | 750 | 287 | 10 | ||
| 2025-12-03T11:39 | 2637 | 744 | 7.6 | -1.4 | ||
| 2025-12-03T11:39 | 2732 | 736 | 273 | 10 | ||
| 2025-12-03T11:39 | 2850 | 725 | 6.0 | -2.4 | ||
| 2025-12-03T11:40 | 3040 | 709 | 285 | 12 | ||
| 2025-12-03T11:40 | 3222 | 693 | 3.5 | -0.7 | ||
| 2025-12-03T11:41 | 3411 | 677 | 290 | 13 | ||
| 2025-12-03T11:41 | 3546 | 666 | 0.7 | -1.7 | ||
| 2025-12-03T11:42 | 3743 | 650 | 284 | 14 | ||
| 2025-12-03T11:42 | 3795 | 645 | -1.0 | -2.1 | ||
| 2025-12-03T11:43 | 3931 | 634 | -1.2 | -2.9 | ||
| 2025-12-03T11:43 | 3987 | 630 | 288 | 17 | ||
| 2025-12-03T11:43 | 4022 | 627 | -1.1 | -4.4 | ||
| 2025-12-03T11:43 | 4071 | 623 | 0.7 | -9.6 | ||
| 2025-12-03T11:43 | 4137 | 618 | 1.1 | -12.7 | ||
| 2025-12-03T11:43 | 4169 | 616 | 288 | 16 | ||
| 2025-12-03T11:43 | 4208 | 613 | 1.4 | -9.8 | ||
| 2025-12-03T11:44 | 4315 | 605 | 1.4 | -8.2 | ||
| 2025-12-03T11:44 | 4349 | 602 | 281 | 21 | ||
| 2025-12-03T11:44 | 4427 | 597 | 1.4 | -10.1 | ||
| 2025-12-03T11:44 | 4470 | 593 | 2.7 | -21.4 | ||
| 2025-12-03T11:44 | 4527 | 589 | 3.1 | -24.6 | ||
| 2025-12-03T11:44 | 4545 | 588 | 282 | 22 | ||
| 2025-12-03T11:45 | 4608 | 583 | 3.1 | -31.1 | ||
| 2025-12-03T11:45 | 4703 | 577 | 2.4 | -17.7 | ||
| 2025-12-03T11:45 | 4838 | 567 | 282 | 25 | ||
| 2025-12-03T11:45 | 4931 | 560 | 1.3 | -20.5 | ||
| 2025-12-03T11:46 | 5031 | 553 | 1.2 | -19.9 | ||
| 2025-12-03T11:46 | 5087 | 550 | 1.2 | -22.6 | ||
| 2025-12-03T11:46 | 5163 | 545 | 0.7 | -17.1 | ||
| 2025-12-03T11:46 | 5212 | 541 | 273 | 25 | ||
| 2025-12-03T11:46 | 5290 | 536 | -0.1 | -14.1 | ||
| 2025-12-03T11:47 | 5424 | 527 | -0.3 | -16.2 | ||
| 2025-12-03T11:47 | 5471 | 524 | 275 | 29 | ||
| 2025-12-03T11:47 | 5640 | 513 | -0.3 | -21.8 | ||
| 2025-12-03T11:48 | 5800 | 503 | 271 | 25 | ||
| 2025-12-03T11:48 | 5869 | 498 | -1.8 | -28.5 | ||
| 2025-12-03T11:49 | 6093 | 485 | -3.2 | -27.8 | ||
| 2025-12-03T11:49 | 6103 | 484 | 270 | 26 | ||
| 2025-12-03T11:50 | 6400 | 466 | 281 | 26 | ||
| 2025-12-03T11:50 | 6566 | 456 | -6.3 | -27.4 | ||
| 2025-12-03T11:51 | 6748 | 446 | 280 | 28 | ||
| 2025-12-03T11:52 | 7116 | 425 | 278 | 28 | ||
| 2025-12-03T11:53 | 7337 | 413 | -13.0 | -35.7 | ||
| 2025-12-03T11:53 | 7440 | 407 | 270 | 29 | ||
| 2025-12-03T11:53 | 7473 | 405 | -12.6 | -49.2 | ||
| 2025-12-03T11:54 | 7759 | 390 | 273 | 31 | ||
| 2025-12-03T11:54 | 7811 | 388 | -14.9 | -54.2 | ||
| 2025-12-03T11:55 | 7963 | 380 | 274 | 29 | ||
| 2025-12-03T11:56 | 8283 | 364 | 272 | 28 | ||
| 2025-12-03T11:56 | 8308 | 363 | -18.7 | -53.5 | ||
| 2025-12-03T11:57 | 8582 | 350 | 268 | 28 | ||
| 2025-12-03T11:58 | 8875 | 336 | 269 | 29 | ||
| 2025-12-03T11:59 | 9169 | 323 | -26.0 | -54.6 | ||
| 2025-12-03T11:59 | 9185 | 322 | 267 | 30 | ||
| 2025-12-03T12:00 | 9498 | 308 | 266 | 29 | ||
| 2025-12-03T12:00 | 9618 | 303 | -30.0 | -53.8 | ||
| 2025-12-03T12:01 | 9794 | 296 | 260 | 30 | ||
| 2025-12-03T12:02 | 10090 | 283 | 258 | 31 | ||
| 2025-12-03T12:02 | 10323 | 274 | -35.8 | -56.6 | ||
| 2025-12-03T12:03 | 10394 | 271 | 254 | 31 | ||
| 2025-12-03T12:04 | 10682 | 260 | 257 | 31 | ||
| 2025-12-03T12:04 | 10803 | 256 | -40.0 | -59.2 | ||
| 2025-12-03T12:05 | 10958 | 250 | 261 | 31 | ||
| 2025-12-03T12:06 | 11228 | 240 | 264 | 31 | ||
| 2025-12-03T12:07 | 11512 | 230 | 267 | 28 | ||
| 2025-12-03T12:08 | 11787 | 221 | 261 | 29 | ||
| 2025-12-03T12:08 | 11880 | 218 | -48.2 | |||
| 2025-12-03T12:09 | 12077 | 211 | 259 | 30 | ||
| 2025-12-03T12:10 | 12362 | 202 | 253 | 30 | ||
| 2025-12-03T12:11 | 12637 | 194 | 255 | 29 | ||
| 2025-12-03T12:12 | 12910 | 186 | 258 | 30 | ||
| 2025-12-03T12:12 | 12924 | 185 | -56.1 | |||
| 2025-12-03T12:13 | 13186 | 178 | 258 | 30 | ||
| 2025-12-03T12:13 | 13467 | 170 | 255 | 30 | ||
| 2025-12-03T12:14 | 13775 | 162 | 254 | 30 | ||
| 2025-12-03T12:16 | 14089 | 154 | 255 | 31 | ||
| 2025-12-03T12:17 | 14399 | 146 | 261 | 31 | ||
| 2025-12-03T12:17 | 14413 | 146 | -67.5 | |||
| 2025-12-03T12:18 | 14689 | 139 | 257 | 30 | ||
| 2025-12-03T12:19 | 14977 | 132 | 255 | 29 | ||
| 2025-12-03T12:20 | 15267 | 126 | 255 | 29 | ||
| 2025-12-03T12:20 | 15308 | 125 | -74.3 | |||
| 2025-12-03T12:21 | 15543 | 120 | -75.0 | |||
| 2025-12-03T12:21 | 15553 | 120 | 246 | 28 | ||
| 2025-12-03T12:22 | 15853 | 114 | 239 | 29 | ||
| 2025-12-03T12:22 | 16054 | 110 | -78.1 | |||
| 2025-12-03T12:23 | 16134 | 108 | 243 | 30 | ||
| 2025-12-03T12:23 | 16255 | 106 | -78.9 | |||
| 2025-12-03T12:24 | 16421 | 103 | 264 | 33 | ||
| 2025-12-03T12:24 | 16479 | 102 | -78.9 | |||
| 2025-12-03T12:25 | 16711 | 98 | 274 | 32 | ||
| 2025-12-03T12:25 | 16829 | 96 | -80.6 | |||
| 2025-12-03T12:26 | 16989 | 93 | 267 | 29 | ||
| 2025-12-03T12:27 | 17276 | 89 | 265 | 30 | ||
| 2025-12-03T12:27 | 17455 | 86 | -80.2 | |||
| 2025-12-03T12:27 | 17522 | 85 | 283 | 25 | ||
| 2025-12-03T12:28 | 17567 | 84 | -79.3 | |||
| 2025-12-03T12:28 | 17808 | 81 | 282 | 19 | ||
| 2025-12-03T12:29 | 17836 | 80 | -79.8 | |||
| 2025-12-03T12:29 | 17957 | 79 | -77.6 | |||
| 2025-12-03T12:29 | 18091 | 77 | 243 | 12 | ||
| 2025-12-03T12:30 | 18236 | 75 | -77.2 | |||
| 2025-12-03T12:31 | 18376 | 73 | 249 | 14 | ||
| 2025-12-03T12:31 | 18527 | 71 | -77.9 | |||
| 2025-12-03T12:31 | 18575 | 71 | 253 | 14 | ||
| 2025-12-03T12:32 | 18722 | 69 | -76.1 | |||
| 2025-12-03T12:32 | 18833 | 67 | -73.0 | |||
| 2025-12-03T12:32 | 18850 | 67 | 259 | 11 | ||
| 2025-12-03T12:33 | 18938 | 66 | 247 | 9 | ||
| 2025-12-03T12:33 | 18976 | 66 | -71.8 | |||
| 2025-12-03T12:33 | 19047 | 65 | 228 | 11 | ||
| 2025-12-03T12:33 | 19212 | 63 | 248 | 12 | ||
| 2025-12-03T12:34 | 19230 | 63 | -70.8 | |||
| 2025-12-03T12:34 | 19346 | 62 | 254 | 10 | ||
| 2025-12-03T12:35 | 19532 | 60 | -67.1 | |||
| 2025-12-03T12:35 | 19563 | 60 | 271 | 7 | ||
| 2025-12-03T12:35 | 19687 | 58 | 242 | 5 | ||
| 2025-12-03T12:35 | 19809 | 57 | 240 | 7 | ||
| 2025-12-03T12:36 | 20139 | 54 | 272 | 9 | ||
| 2025-12-03T12:37 | 20320 | 53 | -71.1 | |||
| 2025-12-03T12:37 | 20443 | 51 | 282 | 10 | ||
| 2025-12-03T12:38 | 20479 | 51 | -69.8 | |||
| 2025-12-03T12:38 | 20593 | 50 | 298 | 9 | ||
| 2025-12-03T12:38 | 20643 | 50 | -67.1 | |||
| 2025-12-03T12:39 | 20768 | 49 | 323 | 6 | ||
| 2025-12-03T12:39 | 20817 | 48 | 312 | 2 | ||
| 2025-12-03T12:39 | 20869 | 48 | -62.3 | |||
| 2025-12-03T12:39 | 21026 | 47 | 196 | 1 | ||
| 2025-12-03T12:40 | 21104 | 46 | 198 | 8 | ||
| 2025-12-03T12:40 | 21197 | 45 | 221 | 2 | ||
| 2025-12-03T12:41 | 21487 | 43 | 295 | 3 | ||
| 2025-12-03T12:41 | 21532 | 43 | -63.8 | |||
| 2025-12-03T12:41 | 21647 | 42 | 359 | 1 | ||
| 2025-12-03T12:41 | 21707 | 42 | -60.5 | |||
| 2025-12-03T12:42 | 21902 | 41 | 62 | 4 | ||
| 2025-12-03T12:42 | 22010 | 40 | 81 | 4 | ||
| 2025-12-03T12:43 | 22152 | 39 | 139 | 5 | ||
| 2025-12-03T12:43 | 22252 | 38 | -60.5 | |||
| 2025-12-03T12:43 | 22331 | 38 | 151 | 6 | ||
| 2025-12-03T12:44 | 22446 | 37 | 166 | 4 | ||
| 2025-12-03T12:44 | 22602 | 36 | 128 | 1 | ||
| 2025-12-03T12:45 | 22939 | 34 | 186 | 1 | ||
| 2025-12-03T12:46 | 23237 | 33 | 339 | 3 | ||
| 2025-12-03T12:47 | 23414 | 32 | -58.3 | |||
| 2025-12-03T12:47 | 23572 | 31 | 340 | 8 | ||
| 2025-12-03T12:47 | 23736 | 30 | 333 | 4 | ||
| 2025-12-03T12:48 | 23974 | 29 | 334 | 7 | ||
| 2025-12-03T12:48 | 24082 | 29 | 7 | 4 | ||
| 2025-12-03T12:49 | 24169 | 28 | 34 | 5 | ||
| 2025-12-03T12:49 | 24329 | 28 | -56.6 | |||
| 2025-12-03T12:49 | 24403 | 27 | 8 | 9 | ||
| 2025-12-03T12:50 | 24452 | 27 | -56.9 | 14 | 10 | |
| 2025-12-03T23:31 | 8 | 1023 | 18.4 | 9.5 | 20 | 4 |
| 2025-12-03T23:31 | 14 | 1022 | 18.5 | 9.6 | 359 | 1 |
| 2025-12-03T23:31 | 93 | 1013 | 35 | 6 | ||
| 2025-12-03T23:32 | 207 | 999 | 17.0 | 8.2 | ||
| 2025-12-03T23:32 | 283 | 990 | 27 | 8 | ||
| 2025-12-03T23:32 | 471 | 969 | 36 | 10 | ||
| 2025-12-03T23:33 | 640 | 949 | 41 | 10 | ||
| 2025-12-03T23:33 | 792 | 932 | 55 | 10 | ||
| 2025-12-03T23:34 | 1104 | 898 | 55 | 10 | ||
| 2025-12-03T23:35 | 1256 | 882 | 7.5 | 6.0 | ||
| 2025-12-03T23:35 | 1289 | 878 | 45 | 11 | ||
| 2025-12-03T23:36 | 1522 | 854 | 41 | 11 | ||
| 2025-12-03T23:36 | 1563 | 849 | 5.4 | 4.5 | ||
| 2025-12-03T23:37 | 1829 | 822 | 22 | 11 | ||
| 2025-12-03T23:37 | 2078 | 797 | 2.4 | 2.0 | ||
| 2025-12-03T23:37 | 2117 | 793 | 2.6 | -0.5 | ||
| 2025-12-03T23:37 | 2138 | 791 | 350 | 11 | ||
| 2025-12-03T23:38 | 2179 | 788 | 6.9 | -4.2 | ||
| 2025-12-03T23:38 | 2200 | 786 | 8.3 | -4.2 | ||
| 2025-12-03T23:38 | 2313 | 775 | 328 | 10 | ||
| 2025-12-03T23:38 | 2341 | 772 | 8.2 | -6.0 | ||
| 2025-12-03T23:39 | 2639 | 745 | 322 | 9 | ||
| 2025-12-03T23:40 | 2966 | 715 | 302 | 8 | ||
| 2025-12-03T23:40 | 2989 | 713 | 3.3 | -8.1 | ||
| 2025-12-03T23:40 | 3208 | 694 | 283 | 10 | ||
| 2025-12-03T23:40 | 3218 | 693 | 1.1 | -6.7 | ||
| 2025-12-03T23:41 | 3346 | 682 | 286 | 9 | ||
| 2025-12-03T23:41 | 3356 | 682 | 0.1 | -4.5 | ||
| 2025-12-03T23:41 | 3500 | 669 | -0.4 | -7.2 | ||
| 2025-12-03T23:42 | 3597 | 661 | -0.1 | -8.8 | ||
| 2025-12-03T23:42 | 3677 | 655 | 297 | 10 | ||
| 2025-12-03T23:42 | 3763 | 648 | -1.0 | -11.7 | ||
| 2025-12-03T23:42 | 3838 | 642 | 1.7 | -15.3 | ||
| 2025-12-03T23:42 | 3884 | 638 | 3.2 | -18.9 | ||
| 2025-12-03T23:43 | 3926 | 635 | 294 | 18 | ||
| 2025-12-03T23:43 | 3938 | 634 | 4.0 | -24.9 | ||
| 2025-12-03T23:43 | 3974 | 631 | 5.8 | -33.4 | ||
| 2025-12-03T23:43 | 4041 | 626 | 286 | 21 | ||
| 2025-12-03T23:43 | 4079 | 623 | 6.2 | -40.0 | ||
| 2025-12-03T23:43 | 4269 | 609 | 295 | 17 | ||
| 2025-12-03T23:44 | 4402 | 599 | 4.8 | -47.3 | ||
| 2025-12-03T23:45 | 4668 | 580 | 282 | 19 | ||
| 2025-12-03T23:45 | 4953 | 560 | 2.4 | -48.8 | ||
| 2025-12-03T23:45 | 5044 | 553 | 276 | 21 | ||
| 2025-12-03T23:46 | 5095 | 550 | 2.0 | -19.9 | ||
| 2025-12-03T23:46 | 5302 | 536 | 275 | 23 | ||
| 2025-12-03T23:47 | 5417 | 528 | 0.4 | -22.5 | ||
| 2025-12-03T23:47 | 5592 | 517 | 267 | 24 | ||
| 2025-12-03T23:48 | 5920 | 496 | 270 | 22 | ||
| 2025-12-03T23:49 | 5983 | 492 | -4.0 | -26.9 | ||
| 2025-12-03T23:49 | 6247 | 476 | -5.9 | -29.2 | ||
| 2025-12-03T23:49 | 6264 | 475 | 278 | 23 | ||
| 2025-12-03T23:50 | 6449 | 463 | -7.6 | -31.3 | ||
| 2025-12-03T23:50 | 6624 | 453 | 275 | 24 | ||
| 2025-12-03T23:50 | 6630 | 453 | -8.4 | -39.7 | ||
| 2025-12-03T23:51 | 6706 | 448 | -8.1 | -43.3 | ||
| 2025-12-03T23:51 | 6976 | 433 | 277 | 27 | ||
| 2025-12-03T23:52 | 7266 | 417 | -11.8 | -48.6 | ||
| 2025-12-03T23:52 | 7345 | 413 | 278 | 28 | ||
| 2025-12-03T23:53 | 7713 | 393 | 276 | 28 | ||
| 2025-12-03T23:53 | 7732 | 392 | -15.8 | -47.0 | ||
| 2025-12-03T23:54 | 8085 | 374 | 270 | 29 | ||
| 2025-12-03T23:55 | 8192 | 369 | -19.6 | -46.8 | ||
| 2025-12-03T23:55 | 8437 | 357 | 266 | 29 | ||
| 2025-12-03T23:56 | 8784 | 340 | 261 | 28 | ||
| 2025-12-03T23:57 | 9116 | 325 | 260 | 30 | ||
| 2025-12-03T23:58 | 9186 | 322 | -27.6 | -47.0 | ||
| 2025-12-03T23:58 | 9413 | 312 | -29.6 | -47.5 | ||
| 2025-12-03T23:58 | 9454 | 310 | 263 | 30 | ||
| 2025-12-03T23:59 | 9730 | 298 | -32.5 | -47.1 | ||
| 2025-12-03T23:59 | 9783 | 296 | 264 | 30 | ||
| 2025-12-04T00:00 | 10086 | 283 | 262 | 30 | ||
| 2025-12-04T00:00 | 10105 | 283 | -35.9 | -46.2 | ||
| 2025-12-04T00:01 | 10206 | 279 | -36.1 | -48.7 | ||
| 2025-12-04T00:01 | 10396 | 271 | 264 | 32 | ||
| 2025-12-04T00:01 | 10437 | 269 | -38.0 | -49.5 | ||
| 2025-12-04T00:02 | 10636 | 262 | -38.9 | -55.3 | ||
| 2025-12-04T00:02 | 10681 | 260 | 264 | 32 | ||
| 2025-12-04T00:03 | 10905 | 252 | -40.0 | -60.8 | ||
| 2025-12-04T00:03 | 10957 | 250 | 262 | 34 | ||
| 2025-12-04T00:04 | 11240 | 240 | 261 | 33 | ||
| 2025-12-04T00:05 | 11498 | 231 | -44.3 | |||
| 2025-12-04T00:05 | 11516 | 230 | 259 | 34 | ||
| 2025-12-04T00:06 | 11795 | 220 | 256 | 36 | ||
| 2025-12-04T00:07 | 12063 | 212 | 255 | 37 | ||
| 2025-12-04T00:08 | 12335 | 203 | 259 | 36 | ||
| 2025-12-04T00:09 | 12607 | 195 | 258 | 36 | ||
| 2025-12-04T00:10 | 12877 | 187 | -55.9 | |||
| 2025-12-04T00:10 | 12896 | 186 | 257 | 33 | ||
| 2025-12-04T00:11 | 13173 | 178 | 256 | 33 | ||
| 2025-12-04T00:12 | 13430 | 171 | 254 | 32 | ||
| 2025-12-04T00:13 | 13689 | 164 | 249 | 31 | ||
| 2025-12-04T00:14 | 13767 | 162 | -63.1 | |||
| 2025-12-04T00:14 | 13953 | 157 | 250 | 30 | ||
| 2025-12-04T00:15 | 14067 | 154 | -64.9 | |||
| 2025-12-04T00:15 | 14229 | 150 | 254 | 29 | ||
| 2025-12-04T00:16 | 14510 | 143 | 251 | 30 | ||
| 2025-12-04T00:17 | 14799 | 137 | 242 | 29 | ||
| 2025-12-04T00:18 | 15080 | 130 | 247 | 30 | ||
| 2025-12-04T00:19 | 15363 | 124 | 245 | 30 | ||
| 2025-12-04T00:20 | 15481 | 122 | -75.5 | |||
| 2025-12-04T00:20 | 15648 | 118 | 251 | 29 | ||
| 2025-12-04T00:21 | 15806 | 115 | -76.8 | |||
| 2025-12-04T00:21 | 15941 | 112 | 257 | 30 | ||
| 2025-12-04T00:22 | 16061 | 110 | -77.1 | |||
| 2025-12-04T00:22 | 16252 | 106 | -78.0 | |||
| 2025-12-04T00:22 | 16267 | 106 | 271 | 27 | ||
| 2025-12-04T00:23 | 16432 | 103 | -78.0 | |||
| 2025-12-04T00:23 | 16569 | 101 | 266 | 26 | ||
| 2025-12-04T00:24 | 16797 | 97 | -80.1 | |||
| 2025-12-04T00:24 | 16849 | 96 | 276 | 26 | ||
| 2025-12-04T00:25 | 17117 | 91 | 277 | 26 | ||
| 2025-12-04T00:26 | 17239 | 89 | -82.3 | |||
| 2025-12-04T00:26 | 17393 | 87 | 287 | 22 | ||
| 2025-12-04T00:26 | 17398 | 87 | -81.3 | |||
| 2025-12-04T00:27 | 17489 | 85 | -79.7 | |||
| 2025-12-04T00:27 | 17558 | 84 | 261 | 16 | ||
| 2025-12-04T00:28 | 17839 | 80 | 246 | 19 | ||
| 2025-12-04T00:28 | 17923 | 79 | -81.3 | |||
| 2025-12-04T00:29 | 18109 | 76 | 260 | 21 | ||
| 2025-12-04T00:30 | 18342 | 73 | -80.6 | |||
| 2025-12-04T00:30 | 18383 | 73 | 279 | 19 | ||
| 2025-12-04T00:31 | 18589 | 70 | -76.6 | |||
| 2025-12-04T00:31 | 18619 | 70 | 254 | 11 | ||
| 2025-12-04T00:32 | 18908 | 66 | 259 | 13 | ||
| 2025-12-04T00:32 | 19029 | 65 | -76.8 | |||
| 2025-12-04T00:33 | 19148 | 64 | 273 | 11 | ||
| 2025-12-04T00:33 | 19330 | 62 | -75.5 | |||
| 2025-12-04T00:33 | 19339 | 62 | 287 | 11 | ||
| 2025-12-04T00:33 | 19399 | 61 | -72.1 | |||
| 2025-12-04T00:34 | 19465 | 60 | 271 | 6 | ||
| 2025-12-04T00:34 | 19552 | 59 | -72.8 | |||
| 2025-12-04T00:34 | 19602 | 59 | 291 | 5 | ||
| 2025-12-04T00:34 | 19643 | 59 | -71.8 | |||
| 2025-12-04T00:35 | 19788 | 57 | 331 | 4 | ||
| 2025-12-04T00:35 | 19966 | 55 | -72.1 | |||
| 2025-12-04T00:36 | 20040 | 55 | 293 | 5 | ||
| 2025-12-04T00:36 | 20193 | 53 | 325 | 6 | ||
| 2025-12-04T00:37 | 20412 | 51 | -67.6 | |||
| 2025-12-04T00:37 | 20517 | 51 | 349 | 8 | ||
| 2025-12-04T00:37 | 20637 | 50 | -67.4 | |||
| 2025-12-04T00:38 | 20685 | 49 | 313 | 2 | ||
| 2025-12-04T00:38 | 20824 | 48 | -66.4 | |||
| 2025-12-04T00:38 | 20861 | 48 | 263 | 3 | ||
| 2025-12-04T00:39 | 21014 | 47 | 253 | 4 | ||
| 2025-12-04T00:39 | 21132 | 46 | 283 | 6 | ||
| 2025-12-04T00:39 | 21160 | 45 | -67.2 | |||
| 2025-12-04T00:39 | 21293 | 44 | 303 | 5 | ||
| 2025-12-04T00:40 | 21432 | 43 | -63.2 | |||
| 2025-12-04T00:40 | 21562 | 43 | 338 | 3 | ||
| 2025-12-04T00:40 | 21576 | 42 | -61.3 | |||
| 2025-12-04T00:41 | 21784 | 41 | 176 | 3 | ||
| 2025-12-04T00:41 | 21908 | 40 | 165 | 1 | ||
| 2025-12-04T00:41 | 21924 | 40 | -60.3 | |||
| 2025-12-04T00:42 | 22052 | 39 | 26 | 3 | ||
| 2025-12-04T00:42 | 22278 | 38 | 6 | 6 | ||
| 2025-12-04T00:43 | 22511 | 37 | -60.7 | |||
| 2025-12-04T00:43 | 22528 | 36 | 25 | 7 | ||
| 2025-12-04T00:44 | 22651 | 36 | 24 | 9 | ||
| 2025-12-04T00:45 | 22973 | 34 | -58.6 | |||
| 2025-12-04T00:45 | 22992 | 34 | 46 | 8 | ||
| 2025-12-04T00:45 | 23217 | 33 | 44 | 8 | ||
| 2025-12-04T00:46 | 23431 | 32 | -58.7 | |||
| 2025-12-04T00:46 | 23513 | 31 | 42 | 8 | ||
| 2025-12-04T00:46 | 23595 | 31 | -57.5 | |||
| 2025-12-04T00:46 | 23637 | 31 | 61 | 7 | ||
| 2025-12-04T00:47 | 23805 | 30 | 36 | 10 | ||
| 2025-12-04T00:48 | 24108 | 28 | 37 | 10 | ||
| 2025-12-04T00:49 | 24385 | 27 | 48 | 10 | ||
| 2025-12-04T00:49 | 24431 | 27 | -56.1 | |||
| 2025-12-04T00:49 | 24544 | 26 | -55.4 | 42 | 11 | |
| 2025-12-04T11:31 | 8 | 1022 | 19.1 | 11.9 | 20 | 4 |
| 2025-12-04T11:31 | 10 | 1021 | 19.1 | 12.1 | 0 | 0 |
| 2025-12-04T11:31 | 30 | 1019 | 27 | 3 | ||
| 2025-12-04T11:31 | 115 | 1009 | 19.3 | 10.6 | ||
| 2025-12-04T11:32 | 265 | 992 | 58 | 8 | ||
| 2025-12-04T11:32 | 412 | 975 | 16.9 | 9.1 | ||
| 2025-12-04T11:33 | 584 | 955 | 43 | 8 | ||
| 2025-12-04T11:34 | 817 | 929 | 13.1 | 8.2 | ||
| 2025-12-04T11:34 | 866 | 924 | 47 | 8 | ||
| 2025-12-04T11:34 | 1054 | 903 | 67 | 8 | ||
| 2025-12-04T11:35 | 1230 | 884 | 9.8 | 5.4 | ||
| 2025-12-04T11:35 | 1358 | 871 | 58 | 5 | ||
| 2025-12-04T11:36 | 1538 | 852 | 57 | 6 | ||
| 2025-12-04T11:37 | 1857 | 819 | 31 | 5 | ||
| 2025-12-04T11:37 | 1960 | 809 | 3.3 | 2.6 | ||
| 2025-12-04T11:38 | 2141 | 791 | 33 | 5 | ||
| 2025-12-04T11:38 | 2151 | 790 | 1.8 | 0.9 | ||
| 2025-12-04T11:38 | 2178 | 788 | 2.4 | -0.9 | ||
| 2025-12-04T11:38 | 2209 | 785 | 4.1 | -6.2 | ||
| 2025-12-04T11:38 | 2235 | 782 | 6.1 | -15.2 | ||
| 2025-12-04T11:38 | 2265 | 779 | 7.5 | -11.3 | ||
| 2025-12-04T11:38 | 2286 | 777 | 343 | 10 | ||
| 2025-12-04T11:38 | 2316 | 774 | 7.7 | -7.6 | ||
| 2025-12-04T11:39 | 2517 | 756 | 337 | 6 | ||
| 2025-12-04T11:39 | 2629 | 745 | 321 | 5 | ||
| 2025-12-04T11:40 | 2801 | 730 | 5.0 | -8.5 | ||
| 2025-12-04T11:40 | 2967 | 715 | 331 | 6 | ||
| 2025-12-04T11:41 | 3149 | 699 | 2.5 | -8.0 | ||
| 2025-12-04T11:41 | 3194 | 695 | 327 | 8 | ||
| 2025-12-04T11:42 | 3484 | 671 | 0.0 | -7.3 | 301 | 12 |
| 2025-12-04T11:42 | 3540 | 666 | 0.0 | -8.2 | ||
| 2025-12-04T11:43 | 3690 | 654 | 313 | 10 | ||
| 2025-12-04T11:43 | 3735 | 650 | 0.7 | -15.8 | ||
| 2025-12-04T11:43 | 3790 | 645 | 1.0 | -18.9 | ||
| 2025-12-04T11:43 | 3844 | 641 | 2.8 | -24.8 | ||
| 2025-12-04T11:43 | 3944 | 633 | 4.0 | -28.8 | ||
| 2025-12-04T11:43 | 3958 | 632 | 288 | 14 | ||
| 2025-12-04T11:44 | 4129 | 619 | 4.1 | -32.3 | ||
| 2025-12-04T11:44 | 4260 | 609 | 4.3 | -37.3 | ||
| 2025-12-04T11:44 | 4277 | 608 | 298 | 18 | ||
| 2025-12-04T11:45 | 4453 | 595 | 4.1 | -41.4 | ||
| 2025-12-04T11:45 | 4617 | 583 | 280 | 19 | ||
| 2025-12-04T11:46 | 4677 | 579 | 2.9 | -42.2 | ||
| 2025-12-04T11:46 | 4952 | 559 | 279 | 19 | ||
| 2025-12-04T11:47 | 5154 | 545 | 0.2 | -50.2 | ||
| 2025-12-04T11:47 | 5287 | 536 | 277 | 20 | ||
| 2025-12-04T11:48 | 5483 | 523 | -1.3 | -41.2 | ||
| 2025-12-04T11:48 | 5600 | 516 | 276 | 21 | ||
| 2025-12-04T11:49 | 5794 | 503 | -3.6 | -27.3 | ||
| 2025-12-04T11:49 | 5907 | 496 | 271 | 21 | ||
| 2025-12-04T11:50 | 6109 | 483 | -5.0 | -33.1 | ||
| 2025-12-04T11:50 | 6202 | 478 | 274 | 25 | ||
| 2025-12-04T11:50 | 6233 | 476 | -4.9 | -47.4 | ||
| 2025-12-04T11:51 | 6511 | 459 | 271 | 29 | ||
| 2025-12-04T11:52 | 6807 | 442 | -9.4 | -31.3 | ||
| 2025-12-04T11:52 | 6835 | 440 | 270 | 27 | ||
| 2025-12-04T11:53 | 6947 | 434 | -10.3 | -35.2 | ||
| 2025-12-04T11:53 | 7162 | 422 | 273 | 30 | ||
| 2025-12-04T11:54 | 7283 | 416 | -12.8 | -41.6 | ||
| 2025-12-04T11:54 | 7423 | 408 | -14.0 | -39.1 | ||
| 2025-12-04T11:54 | 7482 | 405 | 271 | 29 | ||
| 2025-12-04T11:55 | 7805 | 388 | -17.3 | -41.7 | ||
| 2025-12-04T11:55 | 7816 | 387 | 268 | 29 | ||
| 2025-12-04T11:56 | 8113 | 372 | 264 | 30 | ||
| 2025-12-04T11:57 | 8360 | 360 | -20.8 | -46.5 | ||
| 2025-12-04T11:57 | 8421 | 357 | 263 | 31 | ||
| 2025-12-04T11:58 | 8572 | 350 | -22.5 | -41.5 | ||
| 2025-12-04T11:58 | 8707 | 343 | -23.6 | -37.8 | ||
| 2025-12-04T11:58 | 8712 | 343 | 262 | 32 | ||
| 2025-12-04T11:59 | 8888 | 335 | -24.4 | -42.0 | ||
| 2025-12-04T11:59 | 8965 | 332 | -24.8 | -42.3 | ||
| 2025-12-04T11:59 | 9011 | 329 | 260 | 33 | ||
| 2025-12-04T12:00 | 9304 | 316 | 260 | 33 | ||
| 2025-12-04T12:01 | 9519 | 307 | -29.9 | -41.6 | ||
| 2025-12-04T12:01 | 9598 | 304 | 256 | 34 | ||
| 2025-12-04T12:02 | 9784 | 296 | -31.7 | -46.0 | ||
| 2025-12-04T12:02 | 9885 | 292 | 261 | 35 | ||
| 2025-12-04T12:03 | 10012 | 286 | -32.5 | -53.1 | ||
| 2025-12-04T12:03 | 10169 | 280 | 260 | 36 | ||
| 2025-12-04T12:04 | 10470 | 268 | 257 | 36 | ||
| 2025-12-04T12:05 | 10551 | 265 | -36.5 | -55.7 | ||
| 2025-12-04T12:05 | 10771 | 257 | 252 | 36 | ||
| 2025-12-04T12:06 | 11036 | 247 | -40.0 | -59.2 | ||
| 2025-12-04T12:06 | 11060 | 246 | 255 | 36 | ||
| 2025-12-04T12:07 | 11345 | 236 | 255 | 35 | ||
| 2025-12-04T12:08 | 11626 | 226 | 254 | 35 | ||
| 2025-12-04T12:09 | 11891 | 217 | 253 | 35 | ||
| 2025-12-04T12:10 | 12155 | 209 | 248 | 35 | ||
| 2025-12-04T12:11 | 12390 | 201 | -50.7 | |||
| 2025-12-04T12:11 | 12411 | 201 | 250 | 37 | ||
| 2025-12-04T12:12 | 12664 | 193 | 249 | 36 | ||
| 2025-12-04T12:13 | 12927 | 185 | 250 | 36 | ||
| 2025-12-04T12:14 | 13204 | 177 | 250 | 36 | ||
| 2025-12-04T12:15 | 13498 | 169 | -59.9 | 254 | 35 | |
| 2025-12-04T12:16 | 13789 | 162 | 256 | 35 | ||
| 2025-12-04T12:17 | 14079 | 154 | 254 | 32 | ||
| 2025-12-04T12:18 | 14153 | 152 | -65.2 | |||
| 2025-12-04T12:18 | 14361 | 147 | 251 | 32 | ||
| 2025-12-04T12:19 | 14522 | 143 | -68.0 | |||
| 2025-12-04T12:19 | 14611 | 141 | -66.9 | |||
| 2025-12-04T12:19 | 14657 | 140 | 243 | 31 | ||
| 2025-12-04T12:20 | 14952 | 133 | 242 | 31 | ||
| 2025-12-04T12:21 | 15224 | 127 | 246 | 32 | ||
| 2025-12-04T12:22 | 15500 | 121 | 249 | 32 | ||
| 2025-12-04T12:23 | 15774 | 116 | 254 | 31 | ||
| 2025-12-04T12:24 | 15883 | 114 | -77.4 | |||
| 2025-12-04T12:24 | 16056 | 110 | 266 | 29 | ||
| 2025-12-04T12:25 | 16257 | 106 | -79.8 | |||
| 2025-12-04T12:25 | 16330 | 105 | 270 | 29 | ||
| 2025-12-04T12:26 | 16497 | 102 | -81.6 | |||
| 2025-12-04T12:26 | 16592 | 100 | 265 | 28 | ||
| 2025-12-04T12:27 | 16711 | 98 | -81.7 | |||
| 2025-12-04T12:27 | 16846 | 96 | 267 | 26 | ||
| 2025-12-04T12:28 | 17109 | 91 | 279 | 22 | ||
| 2025-12-04T12:28 | 17144 | 91 | -81.7 | |||
| 2025-12-04T12:29 | 17397 | 87 | 268 | 17 | ||
| 2025-12-04T12:30 | 17527 | 85 | -82.9 | |||
| 2025-12-04T12:30 | 17571 | 84 | 269 | 17 | ||
| 2025-12-04T12:31 | 17810 | 81 | -81.3 | |||
| 2025-12-04T12:31 | 17854 | 80 | 279 | 17 | ||
| 2025-12-04T12:32 | 18139 | 76 | -82.2 | |||
| 2025-12-04T12:32 | 18147 | 76 | 291 | 20 | ||
| 2025-12-04T12:32 | 18289 | 74 | -80.3 | |||
| 2025-12-04T12:33 | 18406 | 72 | 303 | 13 | ||
| 2025-12-04T12:33 | 18459 | 72 | -80.2 | |||
| 2025-12-04T12:33 | 18533 | 71 | -78.9 | |||
| 2025-12-04T12:33 | 18571 | 70 | 279 | 5 | ||
| 2025-12-04T12:33 | 18613 | 70 | -77.5 | |||
| 2025-12-04T12:34 | 18796 | 68 | 213 | 5 | ||
| 2025-12-04T12:34 | 18908 | 66 | 224 | 7 | ||
| 2025-12-04T12:34 | 18932 | 66 | -78.6 | |||
| 2025-12-04T12:35 | 19064 | 65 | -78.0 | |||
| 2025-12-04T12:35 | 19073 | 64 | 237 | 7 | ||
| 2025-12-04T12:35 | 19155 | 64 | -76.0 | |||
| 2025-12-04T12:35 | 19247 | 63 | 301 | 12 | ||
| 2025-12-04T12:36 | 19359 | 61 | -73.7 | |||
| 2025-12-04T12:36 | 19417 | 61 | -71.0 | |||
| 2025-12-04T12:36 | 19427 | 61 | 263 | 9 | ||
| 2025-12-04T12:37 | 19635 | 59 | 290 | 9 | ||
| 2025-12-04T12:37 | 19676 | 58 | -70.2 | 329 | 9 | |
| 2025-12-04T23:31 | 8 | 1022 | 20.3 | 12.5 | 20 | 3 |
| 2025-12-04T23:31 | 18 | 1020 | 80 | 3 | ||
| 2025-12-04T23:31 | 37 | 1018 | 19.9 | 11.7 | ||
| 2025-12-04T23:32 | 187 | 1001 | 19.7 | 10.4 | ||
| 2025-12-04T23:32 | 296 | 988 | 45 | 8 | ||
| 2025-12-04T23:33 | 501 | 964 | 52 | 8 | ||
| 2025-12-04T23:34 | 825 | 928 | 50 | 8 | ||
| 2025-12-04T23:34 | 1023 | 907 | 11.9 | 7.6 | ||
| 2025-12-04T23:35 | 1155 | 892 | 58 | 8 | ||
| 2025-12-04T23:35 | 1220 | 886 | 10.8 | 4.9 | ||
| 2025-12-04T23:35 | 1408 | 866 | 57 | 7 | ||
| 2025-12-04T23:36 | 1645 | 841 | 7.4 | 3.8 | ||
| 2025-12-04T23:36 | 1699 | 836 | 57 | 6 | ||
| 2025-12-04T23:37 | 1794 | 826 | 45 | 6 | ||
| 2025-12-04T23:37 | 2049 | 801 | 35 | 8 | ||
| 2025-12-04T23:38 | 2251 | 781 | 2.3 | 2.2 | ||
| 2025-12-04T23:38 | 2384 | 769 | 17 | 6 | ||
| 2025-12-04T23:39 | 2421 | 765 | 1.5 | 0.8 | ||
| 2025-12-04T23:39 | 2493 | 758 | 3.1 | -0.9 | 332 | 9 |
| 2025-12-04T23:39 | 2523 | 755 | 3.1 | -4.4 | ||
| 2025-12-04T23:39 | 2553 | 753 | 3.5 | -5.7 | ||
| 2025-12-04T23:39 | 2608 | 748 | 4.0 | -4.5 | ||
| 2025-12-04T23:39 | 2633 | 745 | 4.4 | -4.3 | ||
| 2025-12-04T23:40 | 2774 | 732 | 330 | 8 | ||
| 2025-12-04T23:40 | 2794 | 731 | 2.9 | -0.6 | ||
| 2025-12-04T23:40 | 2979 | 714 | 2.3 | -5.1 | ||
| 2025-12-04T23:41 | 3051 | 708 | 1.9 | -5.5 | ||
| 2025-12-04T23:41 | 3077 | 705 | 315 | 4 | ||
| 2025-12-04T23:41 | 3114 | 702 | 1.5 | -4.8 | ||
| 2025-12-04T23:41 | 3188 | 696 | 298 | 5 | ||
| 2025-12-04T23:42 | 3334 | 683 | 0.4 | -7.1 | ||
| 2025-12-04T23:42 | 3487 | 670 | 277 | 10 | ||
| 2025-12-04T23:42 | 3524 | 667 | 0.7 | -10.8 | ||
| 2025-12-04T23:42 | 3603 | 661 | 282 | 12 | ||
| 2025-12-04T23:43 | 3632 | 658 | 0.7 | -14.1 | ||
| 2025-12-04T23:43 | 3662 | 656 | 2.8 | -20.6 | ||
| 2025-12-04T23:43 | 3759 | 648 | 3.7 | -27.6 | ||
| 2025-12-04T23:43 | 3802 | 645 | 289 | 13 | ||
| 2025-12-04T23:43 | 3884 | 638 | 4.6 | -31.9 | ||
| 2025-12-04T23:44 | 3945 | 633 | 277 | 16 | ||
| 2025-12-04T23:44 | 4223 | 612 | 3.1 | -35.3 | ||
| 2025-12-04T23:45 | 4295 | 607 | 267 | 17 | ||
| 2025-12-04T23:45 | 4429 | 597 | 2.1 | -38.9 | ||
| 2025-12-04T23:46 | 4636 | 581 | 1.3 | -43.3 | ||
| 2025-12-04T23:46 | 4660 | 580 | 258 | 18 | ||
| 2025-12-04T23:47 | 4974 | 557 | 0.4 | -50.1 | ||
| 2025-12-04T23:47 | 5014 | 555 | 264 | 18 | ||
| 2025-12-04T23:48 | 5349 | 532 | 267 | 19 | ||
| 2025-12-04T23:48 | 5392 | 529 | -2.0 | -51.6 | ||
| 2025-12-04T23:48 | 5556 | 518 | -2.5 | -33.7 | ||
| 2025-12-04T23:49 | 5669 | 511 | 271 | 21 | ||
| 2025-12-04T23:49 | 5674 | 510 | -3.3 | -30.7 | ||
| 2025-12-04T23:49 | 5875 | 498 | -4.9 | -29.1 | ||
| 2025-12-04T23:49 | 5921 | 495 | 269 | 22 | ||
| 2025-12-04T23:50 | 6036 | 487 | -5.5 | -36.0 | ||
| 2025-12-04T23:50 | 6174 | 479 | 273 | 27 | ||
| 2025-12-04T23:50 | 6227 | 476 | -6.6 | -34.3 | ||
| 2025-12-04T23:51 | 6293 | 472 | -7.0 | -27.4 | ||
| 2025-12-04T23:51 | 6519 | 458 | -8.5 | -26.0 | 263 | 28 |
| 2025-12-04T23:52 | 6783 | 443 | -10.8 | -25.8 | ||
| 2025-12-04T23:52 | 6829 | 440 | -11.0 | -29.6 | ||
| 2025-12-04T23:52 | 6852 | 439 | 266 | 29 | ||
| 2025-12-04T23:52 | 6962 | 432 | -11.9 | -26.0 | ||
| 2025-12-04T23:53 | 7021 | 429 | -11.5 | -39.3 | ||
| 2025-12-04T23:53 | 7201 | 419 | 258 | 31 | ||
| 2025-12-04T23:54 | 7378 | 410 | -14.4 | -40.4 | ||
| 2025-12-04T23:54 | 7503 | 403 | 258 | 32 | ||
| 2025-12-04T23:54 | 7584 | 398 | -16.0 | -37.4 | ||
| 2025-12-04T23:55 | 7800 | 387 | 257 | 32 | ||
| 2025-12-04T23:55 | 7847 | 385 | -18.6 | -36.0 | ||
| 2025-12-04T23:56 | 8105 | 371 | -20.6 | -37.8 | 257 | 31 |
| 2025-12-04T23:56 | 8177 | 368 | -20.3 | -41.7 | ||
| 2025-12-04T23:57 | 8323 | 361 | -21.5 | -38.0 | ||
| 2025-12-04T23:57 | 8420 | 356 | 258 | 31 | ||
| 2025-12-04T23:58 | 8615 | 347 | -23.9 | -38.8 | ||
| 2025-12-04T23:58 | 8684 | 343 | 259 | 33 | ||
| 2025-12-04T23:59 | 8799 | 338 | -24.4 | -45.7 | ||
| 2025-12-04T23:59 | 8943 | 331 | 260 | 33 | ||
| 2025-12-05T00:00 | 9175 | 321 | 257 | 33 | ||
| 2025-12-05T00:00 | 9203 | 320 | -27.8 | -48.5 | ||
| 2025-12-05T00:01 | 9327 | 314 | -28.6 | -53.8 | ||
| 2025-12-05T00:01 | 9425 | 310 | 259 | 31 | ||
| 2025-12-05T00:02 | 9614 | 302 | -30.2 | -56.3 | ||
| 2025-12-05T00:02 | 9660 | 300 | 258 | 32 | ||
| 2025-12-05T00:03 | 9893 | 290 | 258 | 33 | ||
| 2025-12-05T00:04 | 10008 | 285 | -31.8 | -62.9 | ||
| 2025-12-05T00:04 | 10143 | 280 | 260 | 35 | ||
| 2025-12-05T00:04 | 10199 | 278 | -32.4 | -63.4 | ||
| 2025-12-05T00:05 | 10414 | 269 | 259 | 34 | ||
| 2025-12-05T00:06 | 10700 | 259 | 260 | 34 | ||
| 2025-12-05T00:07 | 10808 | 255 | -36.9 | -64.6 | ||
| 2025-12-05T00:07 | 10998 | 248 | 256 | 34 | ||
| 2025-12-05T00:08 | 11184 | 241 | -40.0 | -68.9 | ||
| 2025-12-05T00:08 | 11287 | 237 | 253 | 35 | ||
| 2025-12-05T00:09 | 11560 | 228 | 258 | 37 | ||
| 2025-12-05T00:10 | 11853 | 218 | 256 | 37 | ||
| 2025-12-05T00:10 | 11909 | 216 | -46.4 | |||
| 2025-12-05T00:11 | 12128 | 209 | 256 | 36 | ||
| 2025-12-05T00:12 | 12373 | 202 | 256 | 36 | ||
| 2025-12-05T00:13 | 12590 | 195 | -51.8 | |||
| 2025-12-05T00:13 | 12607 | 194 | 253 | 35 | ||
| 2025-12-05T00:14 | 12921 | 185 | -54.1 | 242 | 35 | |
| 2025-12-05T00:15 | 13218 | 177 | 238 | 34 | ||
| 2025-12-05T00:16 | 13484 | 169 | 244 | 35 | ||
| 2025-12-05T00:17 | 13759 | 162 | 246 | 33 | ||
| 2025-12-05T00:18 | 14017 | 155 | -64.0 | |||
| 2025-12-05T00:18 | 14031 | 155 | 247 | 33 | ||
| 2025-12-05T00:19 | 14304 | 148 | 245 | 30 | ||
| 2025-12-05T00:20 | 14570 | 142 | 247 | 30 | ||
| 2025-12-05T00:21 | 14844 | 135 | 251 | 31 | ||
| 2025-12-05T00:22 | 15124 | 129 | 249 | 31 | ||
| 2025-12-05T00:22 | 15161 | 128 | -74.2 | |||
| 2025-12-05T00:23 | 15408 | 123 | 253 | 32 | ||
| 2025-12-05T00:24 | 15698 | 117 | 255 | 33 | ||
| 2025-12-05T00:25 | 15869 | 113 | -80.4 | |||
| 2025-12-05T00:25 | 15939 | 112 | 263 | 32 | ||
| 2025-12-05T00:25 | 16053 | 110 | -80.0 | |||
| 2025-12-05T00:26 | 16166 | 108 | 271 | 29 | ||
| 2025-12-05T00:26 | 16175 | 107 | -79.9 | |||
| 2025-12-05T00:26 | 16286 | 105 | -77.9 | |||
| 2025-12-05T00:27 | 16446 | 103 | 284 | 26 | ||
| 2025-12-05T00:27 | 16503 | 102 | -79.5 | |||
| 2025-12-05T00:28 | 16713 | 98 | 276 | 18 | ||
| 2025-12-05T00:28 | 16763 | 97 | -78.4 | |||
| 2025-12-05T00:29 | 16969 | 94 | -78.8 | |||
| 2025-12-05T00:29 | 16998 | 93 | 265 | 15 | ||
| 2025-12-05T00:30 | 17300 | 88 | 260 | 17 | ||
| 2025-12-05T00:31 | 17612 | 83 | 289 | 16 | ||
| 2025-12-05T00:31 | 17713 | 82 | -83.8 | |||
| 2025-12-05T00:32 | 17802 | 81 | 299 | 13 | ||
| 2025-12-05T00:32 | 17950 | 79 | -80.2 | |||
| 2025-12-05T00:32 | 17964 | 78 | 317 | 10 | ||
| 2025-12-05T00:33 | 18133 | 76 | 320 | 8 | ||
| 2025-12-05T00:33 | 18176 | 75 | -80.0 | |||
| 2025-12-05T00:33 | 18343 | 73 | -79.8 | |||
| 2025-12-05T00:33 | 18375 | 73 | 328 | 10 | ||
| 2025-12-05T00:34 | 18502 | 71 | -76.4 | |||
| 2025-12-05T00:34 | 18525 | 71 | 1 | 8 | ||
| 2025-12-05T00:34 | 18676 | 69 | 4 | 5 | ||
| 2025-12-05T00:35 | 18850 | 67 | 299 | 2 | ||
| 2025-12-05T00:36 | 18995 | 65 | -77.6 | |||
| 2025-12-05T00:36 | 19058 | 65 | 250 | 7 | ||
| 2025-12-05T00:36 | 19221 | 63 | 276 | 5 | ||
| 2025-12-05T00:37 | 19295 | 62 | -76.8 | |||
| 2025-12-05T00:37 | 19415 | 61 | 10 | 5 | ||
| 2025-12-05T00:37 | 19505 | 60 | -74.4 | |||
| 2025-12-05T00:37 | 19512 | 60 | 10 | 4 | ||
| 2025-12-05T00:38 | 19640 | 58 | 311 | 5 | ||
| 2025-12-05T00:38 | 19833 | 57 | 323 | 9 | ||
| 2025-12-05T00:39 | 19854 | 56 | -75.0 | |||
| 2025-12-05T00:39 | 20021 | 55 | -71.3 | |||
| 2025-12-05T00:39 | 20031 | 55 | 2 | 11 | ||
| 2025-12-05T00:39 | 20139 | 54 | 4 | 10 | ||
| 2025-12-05T00:40 | 20174 | 53 | -70.8 | |||
| 2025-12-05T00:40 | 20243 | 53 | -69.8 | |||
| 2025-12-05T00:40 | 20277 | 52 | 341 | 8 | ||
| 2025-12-05T00:40 | 20439 | 51 | 350 | 9 | ||
| 2025-12-05T00:40 | 20449 | 51 | -66.4 | |||
| 2025-12-05T00:41 | 20533 | 50 | -65.3 | |||
| 2025-12-05T00:41 | 20554 | 50 | 4 | 6 | ||
| 2025-12-05T00:41 | 20680 | 49 | 13 | 4 | ||
| 2025-12-05T00:41 | 20767 | 48 | 15 | 2 | ||
| 2025-12-05T00:42 | 21064 | 46 | 57 | 2 | ||
| 2025-12-05T00:43 | 21169 | 45 | 107 | 4 | ||
| 2025-12-05T00:43 | 21224 | 45 | -65.8 | |||
| 2025-12-05T00:44 | 21457 | 43 | 146 | 2 | ||
| 2025-12-05T00:44 | 21614 | 42 | -66.5 | |||
| 2025-12-05T00:44 | 21685 | 42 | 345 | 3 | ||
| 2025-12-05T00:45 | 21822 | 41 | 7 | 7 | ||
| 2025-12-05T00:45 | 21930 | 40 | -60.9 | |||
| 2025-12-05T00:45 | 22024 | 39 | 29 | 7 | ||
| 2025-12-05T00:46 | 22217 | 38 | 63 | 5 | ||
| 2025-12-05T00:47 | 22513 | 36 | 21 | 8 | ||
| 2025-12-05T00:48 | 22701 | 35 | -63.5 | |||
| 2025-12-05T00:48 | 22806 | 35 | 42 | 10 | ||
| 2025-12-05T00:49 | 23060 | 33 | -61.8 | |||
| 2025-12-05T00:49 | 23138 | 33 | 55 | 10 | ||
| 2025-12-05T00:49 | 23252 | 32 | -59.7 | |||
| 2025-12-05T00:50 | 23488 | 31 | 97 | 10 | ||
| 2025-12-05T00:51 | 23673 | 30 | -59.5 | |||
| 2025-12-05T00:51 | 23842 | 29 | 69 | 11 | ||
| 2025-12-05T00:52 | 24197 | 28 | -58.1 | 92 | 13 | |
| 2025-12-05T00:53 | 24357 | 27 | 81 | 11 | ||
| 2025-12-05T00:53 | 24548 | 26 | 72 | 14 | ||
| 2025-12-05T00:54 | 24894 | 25 | 70 | 18 | ||
| 2025-12-05T00:54 | 24945 | 25 | -56.8 | |||
| 2025-12-05T00:55 | 25262 | 23 | 76 | 18 | ||
| 2025-12-05T00:56 | 25396 | 23 | -59.0 | |||
| 2025-12-05T00:56 | 25507 | 23 | -57.8 | 66 | 13 | |
| 2025-12-05T12:30 | 8 | 1019 | 20.7 | 15.3 | 50 | 6 |
| 2025-12-05T12:30 | 15 | 1018 | 20.8 | 15.6 | 51 | 1 |
| 2025-12-05T12:30 | 47 | 1015 | 66 | 2 | ||
| 2025-12-05T12:30 | 72 | 1012 | 33 | 10 | ||
| 2025-12-05T12:30 | 108 | 1008 | 20.4 | 15.0 | ||
| 2025-12-05T12:31 | 191 | 998 | 61 | 10 | ||
| 2025-12-05T12:32 | 513 | 961 | 55 | 13 | ||
| 2025-12-05T12:32 | 683 | 942 | 15.4 | 12.0 | ||
| 2025-12-05T12:32 | 794 | 930 | 67 | 12 | ||
| 2025-12-05T12:33 | 986 | 909 | 76 | 10 | ||
| 2025-12-05T12:34 | 1298 | 876 | 90 | 9 | ||
| 2025-12-05T12:34 | 1326 | 873 | 10.6 | 8.4 | ||
| 2025-12-05T12:35 | 1619 | 843 | 75 | 7 | ||
| 2025-12-05T12:35 | 1699 | 835 | 8.0 | 6.8 | ||
| 2025-12-05T12:36 | 1858 | 819 | 78 | 7 | ||
| 2025-12-05T12:36 | 2067 | 798 | 5.4 | 4.7 | ||
| 2025-12-05T12:36 | 2083 | 797 | 51 | 7 | ||
| 2025-12-05T12:37 | 2110 | 794 | 5.3 | 3.5 | ||
| 2025-12-05T12:37 | 2176 | 788 | 5.8 | 3.5 | ||
| 2025-12-05T12:37 | 2338 | 772 | 45 | 5 | ||
| 2025-12-05T12:37 | 2367 | 769 | 4.4 | 1.8 | ||
| 2025-12-05T12:38 | 2531 | 754 | 3.3 | 0.7 | ||
| 2025-12-05T12:38 | 2542 | 753 | 13 | 3 | ||
| 2025-12-05T12:38 | 2582 | 749 | 4.8 | -0.8 | ||
| 2025-12-05T12:38 | 2609 | 747 | 218 | 1 | ||
| 2025-12-05T12:38 | 2725 | 736 | 341 | 3 | ||
| 2025-12-05T12:39 | 2834 | 726 | 314 | 5 | ||
| 2025-12-05T12:39 | 2996 | 712 | 307 | 6 | ||
| 2025-12-05T12:40 | 3141 | 699 | 0.2 | -2.0 | ||
| 2025-12-05T12:40 | 3246 | 690 | 296 | 7 | ||
| 2025-12-05T12:41 | 3409 | 676 | 311 | 9 | ||
| 2025-12-05T12:41 | 3577 | 662 | 292 | 9 | ||
| 2025-12-05T12:41 | 3614 | 659 | -3.6 | -4.0 | ||
| 2025-12-05T12:42 | 3799 | 644 | -4.7 | -5.7 | 286 | 9 |
| 2025-12-05T12:42 | 3852 | 639 | -3.8 | -8.8 | ||
| 2025-12-05T12:42 | 3901 | 635 | -1.8 | -16.7 | ||
| 2025-12-05T12:42 | 3938 | 632 | 271 | 21 | ||
| 2025-12-05T12:42 | 3943 | 632 | -0.2 | -20.5 | ||
| 2025-12-05T12:42 | 4021 | 626 | 6.6 | -22.9 | ||
| 2025-12-05T12:43 | 4093 | 621 | 266 | 19 | ||
| 2025-12-05T12:43 | 4180 | 614 | 6.7 | -28.5 | ||
| 2025-12-05T12:43 | 4358 | 601 | 5.8 | -46.7 | ||
| 2025-12-05T12:44 | 4453 | 594 | 260 | 18 | ||
| 2025-12-05T12:45 | 4821 | 567 | 260 | 18 | ||
| 2025-12-05T12:45 | 5046 | 552 | 1.3 | -43.3 | ||
| 2025-12-05T12:46 | 5203 | 541 | 266 | 21 | ||
| 2025-12-05T12:47 | 5561 | 517 | -2.5 | -45.8 | ||
| 2025-12-05T12:47 | 5594 | 515 | 255 | 22 | ||
| 2025-12-05T12:47 | 5814 | 501 | -4.7 | -36.9 | ||
| 2025-12-05T12:48 | 5935 | 493 | -5.7 | -27.6 | ||
| 2025-12-05T12:48 | 5985 | 490 | 261 | 25 | ||
| 2025-12-05T12:48 | 6169 | 479 | -6.9 | -30.8 | ||
| 2025-12-05T12:49 | 6345 | 468 | 263 | 30 | ||
| 2025-12-05T12:49 | 6596 | 453 | -10.8 | -26.6 | ||
| 2025-12-05T12:50 | 6711 | 446 | 262 | 29 | ||
| 2025-12-05T12:50 | 6762 | 443 | -12.1 | -28.2 | ||
| 2025-12-05T12:50 | 6877 | 437 | -13.0 | -28.9 | ||
| 2025-12-05T12:51 | 7023 | 428 | -13.1 | -39.4 | ||
| 2025-12-05T12:51 | 7059 | 426 | 256 | 31 | ||
| 2025-12-05T12:51 | 7320 | 412 | -14.8 | -35.7 | ||
| 2025-12-05T12:52 | 7434 | 406 | 256 | 31 | ||
| 2025-12-05T12:52 | 7683 | 393 | -16.7 | -38.0 | ||
| 2025-12-05T12:53 | 7789 | 387 | 260 | 34 | ||
| 2025-12-05T12:53 | 7961 | 378 | -18.8 | -39.7 | ||
| 2025-12-05T12:54 | 8117 | 371 | -19.1 | -47.8 | ||
| 2025-12-05T12:54 | 8140 | 369 | 262 | 33 | ||
| 2025-12-05T12:55 | 8428 | 355 | -21.3 | -46.9 | ||
| 2025-12-05T12:55 | 8472 | 353 | 263 | 32 | ||
| 2025-12-05T12:55 | 8709 | 342 | -22.7 | -49.2 | ||
| 2025-12-05T12:56 | 8804 | 338 | 259 | 35 | ||
| 2025-12-05T12:57 | 9119 | 323 | 263 | 34 | ||
| 2025-12-05T12:57 | 9254 | 317 | -26.6 | -53.5 | ||
| 2025-12-05T12:58 | 9420 | 310 | 264 | 34 | ||
| 2025-12-05T12:58 | 9609 | 302 | -29.8 | -57.5 | ||
| 2025-12-05T12:59 | 9696 | 298 | 261 | 36 | ||
| 2025-12-05T12:59 | 9898 | 290 | -30.4 | -59.7 | ||
| 2025-12-05T13:00 | 9961 | 287 | 258 | 35 | ||
| 2025-12-05T13:01 | 10241 | 276 | 258 | 35 | ||
| 2025-12-05T13:02 | 10534 | 265 | 260 | 34 | ||
| 2025-12-05T13:02 | 10649 | 261 | -35.9 | -65.9 | ||
| 2025-12-05T13:03 | 10838 | 254 | 253 | 34 | ||
| 2025-12-05T13:04 | 11138 | 243 | 254 | 34 | ||
| 2025-12-05T13:04 | 11162 | 242 | -40.0 | -68.9 | ||
| 2025-12-05T13:05 | 11444 | 232 | 253 | 34 | ||
| 2025-12-05T13:06 | 11739 | 222 | 249 | 34 | ||
| 2025-12-05T13:07 | 12007 | 213 | 244 | 34 | ||
| 2025-12-05T13:08 | 12288 | 204 | 242 | 35 | ||
| 2025-12-05T13:08 | 12316 | 204 | -49.8 | |||
| 2025-12-05T13:09 | 12606 | 195 | 239 | 36 | ||
| 2025-12-05T13:10 | 12883 | 186 | 245 | 37 | ||
| 2025-12-05T13:11 | 13190 | 178 | 241 | 37 | ||
| 2025-12-05T13:11 | 13327 | 174 | -58.2 | |||
| 2025-12-05T13:12 | 13501 | 169 | 238 | 37 | ||
| 2025-12-05T13:13 | 13831 | 160 | 231 | 39 | ||
| 2025-12-05T13:14 | 14163 | 152 | 235 | 38 | ||
| 2025-12-05T13:15 | 14459 | 145 | 239 | 35 | ||
| 2025-12-05T13:15 | 14561 | 142 | -68.5 | |||
| 2025-12-05T13:16 | 14746 | 138 | 239 | 35 | ||
| 2025-12-05T13:17 | 15023 | 131 | 239 | 35 | ||
| 2025-12-05T13:17 | 15228 | 127 | -74.4 | |||
| 2025-12-05T13:18 | 15325 | 125 | 247 | 32 | ||
| 2025-12-05T13:18 | 15370 | 124 | -74.9 | |||
| 2025-12-05T13:19 | 15653 | 118 | 264 | 30 | ||
| 2025-12-05T13:19 | 15835 | 114 | -77.5 | |||
| 2025-12-05T13:20 | 15943 | 112 | 263 | 27 | ||
| 2025-12-05T13:20 | 15948 | 112 | -77.0 | |||
| 2025-12-05T13:21 | 16218 | 107 | 270 | 23 | ||
| 2025-12-05T13:21 | 16227 | 107 | -77.2 | |||
| 2025-12-05T13:22 | 16499 | 102 | 260 | 20 | ||
| 2025-12-05T13:23 | 16777 | 97 | 267 | 19 | ||
| 2025-12-05T13:23 | 16842 | 96 | -79.0 | |||
| 2025-12-05T13:24 | 17055 | 92 | 284 | 18 | ||
| 2025-12-05T13:24 | 17272 | 89 | 273 | 15 | ||
| 2025-12-05T13:25 | 17446 | 86 | 264 | 15 | ||
| 2025-12-05T13:25 | 17480 | 86 | -80.4 | |||
| 2025-12-05T13:26 | 17579 | 84 | 246 | 11 | ||
| 2025-12-05T13:26 | 17698 | 82 | -79.8 | |||
| 2025-12-05T13:26 | 17726 | 82 | 235 | 10 | ||
| 2025-12-05T13:26 | 17801 | 81 | -78.9 | |||
| 2025-12-05T13:27 | 18023 | 78 | 189 | 6 | ||
| 2025-12-05T13:27 | 18134 | 76 | -79.9 | |||
| 2025-12-05T13:28 | 18157 | 76 | 187 | 7 | ||
| 2025-12-05T13:28 | 18247 | 75 | -77.3 | |||
| 2025-12-05T13:28 | 18263 | 75 | 138 | 7 | ||
| 2025-12-05T13:29 | 18490 | 72 | 154 | 9 | ||
| 2025-12-05T13:29 | 18596 | 70 | -77.7 | |||
| 2025-12-05T13:30 | 18778 | 68 | 150 | 6 | ||
| 2025-12-05T13:30 | 18946 | 66 | 110 | 6 | ||
| 2025-12-05T13:31 | 19044 | 65 | 81 | 8 | ||
| 2025-12-05T13:31 | 19178 | 64 | -78.1 | |||
| 2025-12-05T13:32 | 19332 | 62 | 106 | 12 | ||
| 2025-12-05T13:32 | 19361 | 62 | -74.9 | |||
| 2025-12-05T13:32 | 19543 | 60 | -74.7 | |||
| 2025-12-05T13:33 | 19600 | 59 | 116 | 10 | ||
| 2025-12-05T13:33 | 19801 | 57 | 157 | 8 | ||
| 2025-12-05T13:34 | 19935 | 56 | 166 | 5 | ||
| 2025-12-05T13:34 | 20072 | 55 | -74.4 | |||
| 2025-12-05T13:34 | 20103 | 54 | 240 | 4 | ||
| 2025-12-05T13:34 | 20169 | 54 | 231 | 1 | ||
| 2025-12-05T13:35 | 20249 | 53 | -70.3 | |||
| 2025-12-05T13:35 | 20294 | 53 | 51 | 3 | ||
| 2025-12-05T13:35 | 20406 | 52 | -69.6 | 109 | 4 | |
| 2025-12-05T13:36 | 20513 | 51 | 146 | 5 | ||
| 2025-12-05T13:36 | 20596 | 50 | 145 | 3 | ||
| 2025-12-05T13:36 | 20608 | 50 | -66.8 | |||
| 2025-12-05T13:36 | 20757 | 49 | -64.6 | |||
| 2025-12-05T13:37 | 20897 | 48 | 0 | 0 | ||
| 2025-12-05T13:37 | 21000 | 47 | 38 | 3 | ||
| 2025-12-05T13:38 | 21121 | 46 | -62.9 | |||
| 2025-12-05T13:38 | 21230 | 45 | 24 | 7 | ||
| 2025-12-05T13:39 | 21551 | 43 | 35 | 6 | ||
| 2025-12-05T13:39 | 21624 | 42 | -61.2 | |||
| 2025-12-05T13:39 | 21728 | 42 | 47 | 6 | ||
| 2025-12-05T13:40 | 21830 | 41 | 102 | 6 | ||
| 2025-12-05T13:40 | 21925 | 40 | 85 | 4 | ||
| 2025-12-05T13:40 | 22003 | 40 | 27 | 5 | ||
| 2025-12-05T13:41 | 22096 | 39 | 40 | 6 | ||
| 2025-12-05T13:41 | 22276 | 38 | 119 | 8 | ||
| 2025-12-05T13:41 | 22361 | 38 | -59.4 | |||
| 2025-12-05T13:42 | 22443 | 37 | 115 | 6 | ||
| 2025-12-05T13:42 | 22562 | 36 | 42 | 6 | ||
| 2025-12-05T13:43 | 22882 | 35 | 50 | 8 | ||
| 2025-12-05T13:44 | 23199 | 33 | 54 | 8 | ||
| 2025-12-05T13:45 | 23396 | 32 | 73 | 11 | ||
| 2025-12-05T13:45 | 23453 | 32 | -59.0 | |||
| 2025-12-05T13:45 | 23515 | 31 | 58 | 12 | ||
| 2025-12-05T13:46 | 23718 | 30 | 86 | 13 | ||
| 2025-12-05T13:46 | 23761 | 30 | -59.3 | |||
| 2025-12-05T13:47 | 24056 | 29 | 101 | 12 | ||
| 2025-12-05T13:47 | 24300 | 28 | -60.9 | 56 | 8 | |
| 2025-12-05T13:48 | 24553 | 26 | 70 | 10 | ||
| 2025-12-05T13:49 | 24795 | 25 | 98 | 8 | ||
| 2025-12-05T13:50 | 25145 | 24 | 68 | 6 | ||
| 2025-12-05T13:51 | 25358 | 23 | -59.4 | |||
| 2025-12-05T13:51 | 25465 | 23 | 55 | 6 | ||
| 2025-12-05T13:51 | 25576 | 22 | -58.5 | |||
| 2025-12-05T13:52 | 25808 | 22 | 96 | 7 | ||
| 2025-12-05T13:53 | 26129 | 21 | -58.6 | 83 | 8 | |
| 2025-12-05T23:31 | 8 | 1020 | 21.8 | 14.0 | 60 | 5 |
| 2025-12-05T23:31 | 12 | 1019 | 21.8 | 14.0 | 80 | 1 |
| 2025-12-05T23:31 | 68 | 1013 | 57 | 7 | ||
| 2025-12-05T23:32 | 363 | 979 | 68 | 9 | ||
| 2025-12-05T23:33 | 693 | 941 | 64 | 8 | ||
| 2025-12-05T23:34 | 850 | 924 | 14.1 | 11.8 | ||
| 2025-12-05T23:34 | 993 | 909 | 62 | 10 | ||
| 2025-12-05T23:34 | 1035 | 904 | 12.5 | 10.7 | ||
| 2025-12-05T23:35 | 1304 | 876 | 57 | 10 | ||
| 2025-12-05T23:35 | 1416 | 864 | 9.4 | 8.0 | ||
| 2025-12-05T23:36 | 1601 | 845 | 8.1 | 6.7 | ||
| 2025-12-05T23:36 | 1629 | 842 | 49 | 9 | ||
| 2025-12-05T23:36 | 1689 | 836 | 7.8 | 5.6 | ||
| 2025-12-05T23:37 | 1820 | 823 | 7.9 | 2.6 | ||
| 2025-12-05T23:37 | 1972 | 808 | 33 | 10 | ||
| 2025-12-05T23:38 | 2167 | 789 | 33 | 6 | ||
| 2025-12-05T23:38 | 2249 | 781 | 4.5 | 3.2 | ||
| 2025-12-05T23:38 | 2362 | 770 | 37 | 3 | ||
| 2025-12-05T23:39 | 2501 | 757 | 301 | 3 | ||
| 2025-12-05T23:39 | 2568 | 751 | 3.7 | 3.3 | ||
| 2025-12-05T23:39 | 2653 | 743 | 292 | 6 | ||
| 2025-12-05T23:40 | 2985 | 713 | 272 | 8 | ||
| 2025-12-05T23:41 | 3144 | 699 | 240 | 6 | ||
| 2025-12-05T23:41 | 3333 | 683 | 254 | 9 | ||
| 2025-12-05T23:42 | 3560 | 664 | 257 | 12 | ||
| 2025-12-05T23:42 | 3577 | 662 | -1.6 | -1.7 | ||
| 2025-12-05T23:43 | 3862 | 639 | 278 | 14 | ||
| 2025-12-05T23:43 | 4038 | 625 | -4.1 | -5.3 | ||
| 2025-12-05T23:43 | 4044 | 625 | 272 | 16 | ||
| 2025-12-05T23:43 | 4078 | 622 | -3.3 | -10.0 | ||
| 2025-12-05T23:44 | 4142 | 617 | -1.6 | -15.1 | ||
| 2025-12-05T23:44 | 4182 | 614 | 0.6 | -20.4 | ||
| 2025-12-05T23:44 | 4187 | 613 | 280 | 24 | ||
| 2025-12-05T23:44 | 4232 | 610 | 1.8 | -22.1 | ||
| 2025-12-05T23:44 | 4328 | 603 | 2.2 | -27.5 | ||
| 2025-12-05T23:44 | 4393 | 598 | 2.5 | -31.6 | ||
| 2025-12-05T23:45 | 4455 | 593 | 275 | 25 | ||
| 2025-12-05T23:45 | 4461 | 593 | 2.8 | -35.5 | ||
| 2025-12-05T23:45 | 4670 | 578 | 2.5 | -42.5 | ||
| 2025-12-05T23:46 | 4805 | 568 | 263 | 27 | ||
| 2025-12-05T23:46 | 4865 | 564 | 2.8 | -48.6 | ||
| 2025-12-05T23:46 | 4938 | 559 | 2.4 | -48.8 | ||
| 2025-12-05T23:46 | 5031 | 553 | 2.1 | -42.7 | ||
| 2025-12-05T23:47 | 5108 | 547 | 263 | 28 | ||
| 2025-12-05T23:47 | 5256 | 537 | 1.4 | -49.5 | ||
| 2025-12-05T23:48 | 5418 | 527 | 0.9 | -49.8 | ||
| 2025-12-05T23:48 | 5424 | 526 | 266 | 29 | ||
| 2025-12-05T23:49 | 5783 | 503 | 265 | 28 | ||
| 2025-12-05T23:49 | 5905 | 495 | -3.4 | -52.5 | ||
| 2025-12-05T23:49 | 6070 | 485 | -4.3 | -53.1 | ||
| 2025-12-05T23:50 | 6150 | 480 | 264 | 27 | ||
| 2025-12-05T23:50 | 6310 | 470 | -5.6 | -53.9 | ||
| 2025-12-05T23:51 | 6501 | 459 | 260 | 29 | ||
| 2025-12-05T23:51 | 6525 | 458 | -6.5 | -48.5 | ||
| 2025-12-05T23:52 | 6862 | 438 | -9.6 | -39.1 | ||
| 2025-12-05T23:52 | 6876 | 437 | 262 | 31 | ||
| 2025-12-05T23:52 | 7201 | 419 | -12.0 | -39.7 | ||
| 2025-12-05T23:53 | 7271 | 415 | 249 | 28 | ||
| 2025-12-05T23:53 | 7595 | 398 | -15.1 | -39.1 | ||
| 2025-12-05T23:54 | 7647 | 395 | 245 | 29 | ||
| 2025-12-05T23:54 | 7920 | 381 | -17.9 | -44.3 | ||
| 2025-12-05T23:55 | 8006 | 377 | 258 | 29 | ||
| 2025-12-05T23:56 | 8349 | 360 | 254 | 29 | ||
| 2025-12-05T23:56 | 8542 | 351 | -22.6 | -46.9 | ||
| 2025-12-05T23:57 | 8675 | 344 | 251 | 30 | ||
| 2025-12-05T23:57 | 8976 | 330 | -25.9 | -48.6 | ||
| 2025-12-05T23:58 | 9002 | 329 | 257 | 32 | ||
| 2025-12-05T23:58 | 9240 | 318 | -27.7 | -52.0 | ||
| 2025-12-05T23:59 | 9302 | 316 | 258 | 33 | ||
| 2025-12-06T00:00 | 9625 | 302 | 258 | 32 | ||
| 2025-12-06T00:01 | 9921 | 289 | 263 | 34 | ||
| 2025-12-06T00:02 | 10148 | 280 | 262 | 34 | ||
| 2025-12-06T00:02 | 10321 | 273 | -36.0 | -58.5 | ||
| 2025-12-06T00:03 | 10397 | 270 | 266 | 35 | ||
| 2025-12-06T00:04 | 10689 | 259 | 266 | 37 | ||
| 2025-12-06T00:05 | 10944 | 250 | 263 | 36 | ||
| 2025-12-06T00:05 | 10983 | 248 | -39.7 | -66.7 | ||
| 2025-12-06T00:05 | 11013 | 247 | -40.0 | -66.9 | ||
| 2025-12-06T00:06 | 11207 | 240 | 262 | 36 | ||
| 2025-12-06T00:06 | 11221 | 240 | -41.3 | |||
| 2025-12-06T00:07 | 11486 | 230 | 252 | 37 | ||
| 2025-12-06T00:08 | 11756 | 221 | 253 | 38 | ||
| 2025-12-06T00:09 | 12020 | 213 | 256 | 39 | ||
| 2025-12-06T00:10 | 12264 | 205 | -49.4 | |||
| 2025-12-06T00:10 | 12276 | 204 | 256 | 40 | ||
| 2025-12-06T00:11 | 12569 | 196 | 249 | 40 | ||
| 2025-12-06T00:11 | 12670 | 193 | -52.7 | |||
| 2025-12-06T00:12 | 12931 | 185 | 242 | 39 | ||
| 2025-12-06T00:13 | 13221 | 177 | 239 | 41 | ||
| 2025-12-06T00:14 | 13541 | 168 | 234 | 39 | ||
| 2025-12-06T00:14 | 13817 | 161 | 232 | 38 | ||
| 2025-12-06T00:15 | 14032 | 155 | -64.4 | |||
| 2025-12-06T00:15 | 14090 | 153 | 238 | 38 | ||
| 2025-12-06T00:16 | 14209 | 151 | 242 | 36 | ||
| 2025-12-06T00:17 | 14568 | 142 | 250 | 34 | ||
| 2025-12-06T00:18 | 14852 | 135 | 254 | 33 | ||
| 2025-12-06T00:18 | 14898 | 134 | -70.7 | |||
| 2025-12-06T00:19 | 15129 | 129 | 272 | 29 | ||
| 2025-12-06T00:19 | 15170 | 128 | -71.0 | |||
| 2025-12-06T00:19 | 15355 | 124 | -71.1 | |||
| 2025-12-06T00:20 | 15401 | 123 | 280 | 24 | ||
| 2025-12-06T00:21 | 15683 | 117 | 285 | 18 | ||
| 2025-12-06T00:21 | 15875 | 114 | 276 | 15 | ||
| 2025-12-06T00:21 | 15920 | 113 | -72.8 | |||
| 2025-12-06T00:22 | 16161 | 108 | 265 | 14 | ||
| 2025-12-06T00:23 | 16440 | 103 | 265 | 13 | ||
| 2025-12-06T00:23 | 16460 | 103 | -76.4 | |||
| 2025-12-06T00:24 | 16717 | 98 | 253 | 8 | ||
| 2025-12-06T00:25 | 16894 | 95 | -78.0 | |||
| 2025-12-06T00:25 | 16959 | 94 | 273 | 5 | ||
| 2025-12-06T00:26 | 17201 | 90 | 290 | 5 | ||
| 2025-12-06T00:26 | 17335 | 88 | 274 | 5 | ||
| 2025-12-06T00:27 | 17619 | 84 | 249 | 4 | ||
| 2025-12-06T00:28 | 17694 | 83 | -82.7 | |||
| 2025-12-06T00:28 | 17768 | 82 | 237 | 7 | ||
| 2025-12-06T00:29 | 17928 | 79 | -82.0 | |||
| 2025-12-06T00:29 | 17935 | 79 | 253 | 6 | ||
| 2025-12-06T00:29 | 18070 | 77 | -81.4 | |||
| 2025-12-06T00:29 | 18129 | 76 | 218 | 9 | ||
| 2025-12-06T00:30 | 18431 | 72 | 235 | 16 | ||
| 2025-12-06T00:30 | 18468 | 72 | -83.0 | |||
| 2025-12-06T00:31 | 18577 | 71 | 237 | 11 | ||
| 2025-12-06T00:31 | 18660 | 70 | -80.4 | |||
| 2025-12-06T00:31 | 18675 | 69 | 229 | 7 | ||
| 2025-12-06T00:32 | 18806 | 68 | -78.5 | |||
| 2025-12-06T00:32 | 18876 | 67 | -76.9 | 156 | 12 | |
| 2025-12-06T00:33 | 19130 | 64 | -76.9 | |||
| 2025-12-06T00:33 | 19175 | 64 | 170 | 10 | ||
| 2025-12-06T00:33 | 19331 | 62 | 180 | 4 | ||
| 2025-12-06T00:34 | 19415 | 61 | -74.9 | |||
| 2025-12-06T00:34 | 19434 | 61 | 263 | 4 | ||
| 2025-12-06T00:34 | 19550 | 60 | 313 | 1 | ||
| 2025-12-06T00:34 | 19628 | 59 | 44 | 3 | ||
| 2025-12-06T00:35 | 19760 | 57 | -73.1 | |||
| 2025-12-06T00:35 | 19813 | 57 | 82 | 6 | ||
| 2025-12-06T00:35 | 19973 | 55 | 85 | 12 | ||
| 2025-12-06T00:35 | 19984 | 55 | -71.1 | |||
| 2025-12-06T00:36 | 20091 | 54 | -70.3 | |||
| 2025-12-06T00:36 | 20234 | 53 | 120 | 7 | ||
| 2025-12-06T00:36 | 20322 | 52 | -70.2 | |||
| 2025-12-06T00:37 | 20417 | 51 | -68.2 | |||
| 2025-12-06T00:37 | 20428 | 51 | 128 | 6 | ||
| 2025-12-06T00:37 | 20580 | 50 | 130 | 4 | ||
| 2025-12-06T00:38 | 20730 | 49 | 126 | 5 | ||
| 2025-12-06T00:39 | 21050 | 46 | 121 | 3 | ||
| 2025-12-06T00:39 | 21277 | 45 | 129 | 5 | ||
| 2025-12-06T00:40 | 21427 | 44 | 137 | 5 | ||
| 2025-12-06T00:40 | 21512 | 43 | -65.0 | |||
| 2025-12-06T00:40 | 21568 | 43 | 103 | 1 | ||
| 2025-12-06T00:41 | 21685 | 42 | -64.5 | 31 | 3 | |
| 2025-12-06T00:41 | 21789 | 41 | 71 | 4 | ||
| 2025-12-06T00:41 | 21864 | 41 | -62.3 | |||
| 2025-12-06T00:41 | 21880 | 40 | 117 | 5 | ||
| 2025-12-06T00:42 | 22111 | 39 | 88 | 5 | ||
| 2025-12-06T00:43 | 22439 | 37 | 91 | 8 | ||
| 2025-12-06T00:43 | 22487 | 37 | -63.3 | |||
| 2025-12-06T00:43 | 22607 | 36 | 63 | 7 | ||
| 2025-12-06T00:44 | 22851 | 35 | 87 | 7 | ||
| 2025-12-06T00:44 | 22962 | 34 | -61.4 | |||
| 2025-12-06T00:45 | 23206 | 33 | 68 | 6 | ||
| 2025-12-06T00:45 | 23298 | 32 | -60.9 | |||
| 2025-12-06T00:46 | 23377 | 32 | 67 | 9 | ||
| 2025-12-06T00:46 | 23558 | 31 | -59.0 | |||
| 2025-12-06T00:47 | 23682 | 30 | 83 | 9 | ||
| 2025-12-06T00:47 | 23851 | 29 | -57.1 | |||
| 2025-12-06T00:48 | 24028 | 29 | 63 | 14 | ||
| 2025-12-06T00:48 | 24251 | 28 | 59 | 15 | ||
| 2025-12-06T00:49 | 24462 | 27 | -58.7 | |||
| 2025-12-06T00:49 | 24604 | 26 | 61 | 15 | ||
| 2025-12-06T00:50 | 24952 | 25 | 75 | 16 | ||
| 2025-12-06T00:51 | 25131 | 24 | -57.8 | |||
| 2025-12-06T00:51 | 25305 | 23 | -57.5 | 91 | 12 | |
| 2025-12-06T11:31 | 8 | 1019 | 21.4 | 14.3 | 50 | 4 |
| 2025-12-06T11:31 | 10 | 1019 | 21.5 | 14.7 | 0 | 0 |
| 2025-12-06T11:31 | 54 | 1014 | 46 | 6 | ||
| 2025-12-06T11:32 | 232 | 993 | 20.4 | 14.1 | ||
| 2025-12-06T11:32 | 294 | 986 | 58 | 10 | ||
| 2025-12-06T11:33 | 553 | 957 | 17.5 | 12.4 | ||
| 2025-12-06T11:33 | 605 | 951 | 61 | 12 | ||
| 2025-12-06T11:34 | 907 | 918 | 62 | 10 | ||
| 2025-12-06T11:34 | 1072 | 900 | 13.0 | 8.9 | ||
| 2025-12-06T11:35 | 1130 | 894 | 42 | 10 | ||
| 2025-12-06T11:35 | 1319 | 874 | 42 | 10 | ||
| 2025-12-06T11:36 | 1422 | 863 | 10.5 | 6.3 | ||
| 2025-12-06T11:36 | 1503 | 855 | 10.6 | 5.2 | ||
| 2025-12-06T11:36 | 1570 | 848 | 360 | 8 | ||
| 2025-12-06T11:37 | 1708 | 834 | 10.2 | 3.7 | ||
| 2025-12-06T11:37 | 1776 | 827 | 10.9 | -0.3 | ||
| 2025-12-06T11:37 | 1834 | 822 | 330 | 6 | ||
| 2025-12-06T11:37 | 1888 | 816 | 11.2 | 0.6 | ||
| 2025-12-06T11:37 | 1947 | 811 | 11.3 | 2.1 | ||
| 2025-12-06T11:37 | 2012 | 804 | 325 | 5 | ||
| 2025-12-06T11:38 | 2134 | 792 | 348 | 2 | ||
| 2025-12-06T11:38 | 2275 | 779 | 320 | 3 | ||
| 2025-12-06T11:39 | 2458 | 762 | 7.2 | 0.6 | 352 | 6 |
| 2025-12-06T11:39 | 2520 | 756 | 8.1 | -5.7 | ||
| 2025-12-06T11:39 | 2586 | 750 | 8.3 | -11.6 | ||
| 2025-12-06T11:39 | 2608 | 748 | 354 | 6 | ||
| 2025-12-06T11:40 | 2723 | 738 | 51 | 3 | ||
| 2025-12-06T11:40 | 2991 | 714 | 7.1 | -32.5 | ||
| 2025-12-06T11:41 | 3050 | 709 | 13 | 8 | ||
| 2025-12-06T11:41 | 3345 | 684 | 4.5 | -23.5 | ||
| 2025-12-06T11:42 | 3387 | 680 | 2 | 8 | ||
| 2025-12-06T11:43 | 3745 | 651 | 21 | 6 | ||
| 2025-12-06T11:44 | 4075 | 624 | -2.2 | -27.0 | ||
| 2025-12-06T11:44 | 4092 | 623 | 360 | 6 | ||
| 2025-12-06T11:44 | 4266 | 610 | -2.6 | -39.4 | ||
| 2025-12-06T11:44 | 4365 | 602 | -2.7 | -52.0 | ||
| 2025-12-06T11:45 | 4401 | 599 | 25 | 4 | ||
| 2025-12-06T11:45 | 4512 | 591 | -1.6 | -51.3 | 306 | 8 |
| 2025-12-06T11:45 | 4547 | 588 | -1.1 | -51.0 | ||
| 2025-12-06T11:45 | 4575 | 586 | -0.9 | -50.9 | ||
| 2025-12-06T11:45 | 4698 | 577 | 0.8 | -49.8 | ||
| 2025-12-06T11:45 | 4720 | 576 | 281 | 15 | ||
| 2025-12-06T11:46 | 4782 | 571 | 1.6 | -49.3 | ||
| 2025-12-06T11:46 | 4991 | 557 | 289 | 18 | ||
| 2025-12-06T11:47 | 5149 | 546 | -0.5 | -37.9 | ||
| 2025-12-06T11:47 | 5246 | 539 | -0.3 | -44.3 | ||
| 2025-12-06T11:47 | 5320 | 534 | 273 | 22 | ||
| 2025-12-06T11:48 | 5499 | 522 | -1.4 | -41.3 | ||
| 2025-12-06T11:48 | 5653 | 512 | 265 | 23 | ||
| 2025-12-06T11:49 | 5989 | 491 | 265 | 23 | ||
| 2025-12-06T11:50 | 6148 | 481 | -6.8 | -45.1 | ||
| 2025-12-06T11:50 | 6335 | 469 | 270 | 25 | ||
| 2025-12-06T11:51 | 6655 | 450 | -9.9 | -50.8 | ||
| 2025-12-06T11:51 | 6684 | 449 | 268 | 27 | ||
| 2025-12-06T11:52 | 7013 | 430 | 268 | 24 | ||
| 2025-12-06T11:53 | 7177 | 421 | -13.3 | -53.1 | ||
| 2025-12-06T11:53 | 7351 | 411 | 268 | 27 | ||
| 2025-12-06T11:53 | 7413 | 408 | -13.5 | -58.9 | ||
| 2025-12-06T11:54 | 7589 | 398 | -14.1 | -59.3 | ||
| 2025-12-06T11:54 | 7670 | 394 | 269 | 29 | ||
| 2025-12-06T11:54 | 7675 | 394 | -14.2 | -47.8 | ||
| 2025-12-06T11:55 | 7975 | 379 | 271 | 29 | ||
| 2025-12-06T11:56 | 8210 | 367 | -19.1 | -44.1 | ||
| 2025-12-06T11:56 | 8285 | 363 | 271 | 29 | ||
| 2025-12-06T11:57 | 8510 | 352 | -21.2 | -48.0 | ||
| 2025-12-06T11:57 | 8599 | 348 | 271 | 30 | ||
| 2025-12-06T11:58 | 8906 | 334 | 263 | 30 | ||
| 2025-12-06T11:58 | 8960 | 331 | -24.2 | -53.2 | ||
| 2025-12-06T11:59 | 9232 | 319 | 260 | 30 | ||
| 2025-12-06T12:00 | 9551 | 305 | 260 | 29 | ||
| 2025-12-06T12:01 | 9873 | 292 | 259 | 30 | ||
| 2025-12-06T12:01 | 9901 | 290 | -32.9 | -57.2 | ||
| 2025-12-06T12:02 | 10215 | 278 | 266 | 32 | ||
| 2025-12-06T12:02 | 10237 | 277 | -35.0 | -60.0 | ||
| 2025-12-06T12:03 | 10524 | 266 | 271 | 34 | ||
| 2025-12-06T12:03 | 10538 | 265 | -36.7 | -62.7 | ||
| 2025-12-06T12:04 | 10782 | 256 | 267 | 33 | ||
| 2025-12-06T12:05 | 11042 | 246 | -40.0 | -65.3 | 263 | 34 |
| 2025-12-06T12:06 | 11307 | 237 | 255 | 35 | ||
| 2025-12-06T12:07 | 11508 | 230 | -43.2 | |||
| 2025-12-06T12:07 | 11567 | 228 | 257 | 37 | ||
| 2025-12-06T12:08 | 11813 | 220 | 253 | 37 | ||
| 2025-12-06T12:09 | 12097 | 211 | 250 | 37 | ||
| 2025-12-06T12:09 | 12150 | 209 | -48.0 | |||
| 2025-12-06T12:10 | 12338 | 203 | 248 | 37 | ||
| 2025-12-06T12:11 | 12696 | 192 | 240 | 34 | ||
| 2025-12-06T12:12 | 12960 | 184 | -55.0 | |||
| 2025-12-06T12:12 | 13053 | 182 | 230 | 36 | ||
| 2025-12-06T12:13 | 13357 | 173 | 227 | 38 | ||
| 2025-12-06T12:14 | 13637 | 166 | 226 | 39 | ||
| 2025-12-06T12:14 | 13820 | 161 | -62.0 | |||
| 2025-12-06T12:15 | 13946 | 158 | 230 | 39 | ||
| 2025-12-06T12:16 | 14306 | 149 | 240 | 34 | ||
| 2025-12-06T12:17 | 14617 | 141 | 251 | 31 | ||
| 2025-12-06T12:18 | 14889 | 135 | 254 | 30 | ||
| 2025-12-06T12:18 | 15056 | 131 | -71.9 | |||
| 2025-12-06T12:19 | 15167 | 129 | 255 | 27 | ||
| 2025-12-06T12:19 | 15389 | 124 | -73.3 | |||
| 2025-12-06T12:20 | 15460 | 122 | 243 | 23 | ||
| 2025-12-06T12:20 | 15603 | 119 | -74.7 | |||
| 2025-12-06T12:21 | 15741 | 117 | 239 | 20 | ||
| 2025-12-06T12:21 | 15958 | 112 | -76.2 | |||
| 2025-12-06T12:22 | 16018 | 111 | 250 | 17 | ||
| 2025-12-06T12:22 | 16230 | 107 | 237 | 12 | ||
| 2025-12-06T12:23 | 16325 | 105 | -77.7 | |||
| 2025-12-06T12:24 | 16507 | 102 | 247 | 12 | ||
| 2025-12-06T12:24 | 16643 | 100 | -79.2 | |||
| 2025-12-06T12:24 | 16681 | 99 | 256 | 11 | ||
| 2025-12-06T12:25 | 16863 | 96 | 222 | 8 | ||
| 2025-12-06T12:25 | 17083 | 92 | -80.2 | |||
| 2025-12-06T12:26 | 17158 | 91 | 186 | 14 | ||
| 2025-12-06T12:27 | 17419 | 87 | 187 | 11 | ||
| 2025-12-06T12:27 | 17509 | 85 | -80.8 | |||
| 2025-12-06T12:28 | 17690 | 83 | 181 | 12 | ||
| 2025-12-06T12:28 | 17774 | 82 | -81.7 | |||
| 2025-12-06T12:29 | 17968 | 79 | 203 | 13 | ||
| 2025-12-06T12:29 | 18090 | 77 | -82.2 | |||
| 2025-12-06T12:30 | 18229 | 75 | 217 | 7 | ||
| 2025-12-06T12:30 | 18290 | 74 | -82.1 | |||
| 2025-12-06T12:30 | 18312 | 74 | 228 | 4 | ||
| 2025-12-06T12:30 | 18383 | 73 | -79.7 | |||
| 2025-12-06T12:30 | 18397 | 73 | 195 | 6 | ||
| 2025-12-06T12:31 | 18586 | 71 | 191 | 10 | ||
| 2025-12-06T12:31 | 18641 | 70 | -80.6 | |||
| 2025-12-06T12:32 | 18798 | 68 | 236 | 10 | ||
| 2025-12-06T12:32 | 18950 | 66 | -75.4 | |||
| 2025-12-06T12:33 | 19086 | 65 | 308 | 4 | ||
| 2025-12-06T12:33 | 19112 | 64 | -72.7 | |||
| 2025-12-06T12:33 | 19307 | 62 | 345 | 3 | ||
| 2025-12-06T12:34 | 19518 | 60 | 159 | 3 | ||
| 2025-12-06T12:34 | 19637 | 59 | 153 | 8 | ||
| 2025-12-06T12:35 | 19647 | 59 | -73.4 | |||
| 2025-12-06T12:35 | 19759 | 58 | 149 | 7 | ||
| 2025-12-06T12:36 | 19944 | 56 | 128 | 5 | ||
| 2025-12-06T12:36 | 20127 | 54 | -70.7 | |||
| 2025-12-06T12:36 | 20184 | 54 | 97 | 3 | ||
| 2025-12-06T12:37 | 20294 | 53 | 67 | 3 | ||
| 2025-12-06T12:37 | 20373 | 52 | 65 | 4 | ||
| 2025-12-06T12:37 | 20467 | 51 | -69.9 | 50 | 7 | |
| 2025-12-06T12:38 | 20584 | 50 | -68.8 | |||
| 2025-12-06T12:38 | 20609 | 50 | 92 | 10 | ||
| 2025-12-06T12:38 | 20651 | 50 | -67.5 | 87 | 8 | |
| 2025-12-06T23:31 | 8 | 1020 | 21.2 | 14.6 | 30 | 3 |
| 2025-12-06T23:31 | 14 | 1019 | 21.3 | 14.9 | 0 | 0 |
| 2025-12-06T23:31 | 48 | 1015 | 21.3 | 13.7 | ||
| 2025-12-06T23:31 | 87 | 1011 | 66 | 4 | ||
| 2025-12-06T23:31 | 126 | 1006 | 22.1 | 13.2 | ||
| 2025-12-06T23:32 | 305 | 986 | 61 | 9 | ||
| 2025-12-06T23:32 | 487 | 965 | 18.7 | 11.8 | ||
| 2025-12-06T23:33 | 636 | 948 | 65 | 9 | ||
| 2025-12-06T23:34 | 993 | 909 | 71 | 8 | ||
| 2025-12-06T23:35 | 1226 | 884 | 11.7 | 10.6 | ||
| 2025-12-06T23:35 | 1347 | 872 | 95 | 10 | ||
| 2025-12-06T23:35 | 1423 | 864 | 11.0 | 6.9 | ||
| 2025-12-06T23:36 | 1706 | 835 | 103 | 10 | ||
| 2025-12-06T23:37 | 1912 | 814 | 6.4 | 4.7 | ||
| 2025-12-06T23:37 | 1968 | 809 | 6.6 | 0.9 | ||
| 2025-12-06T23:37 | 2040 | 802 | 8.1 | -10.3 | ||
| 2025-12-06T23:37 | 2045 | 801 | 82 | 10 | ||
| 2025-12-06T23:37 | 2073 | 798 | 9.9 | -20.4 | ||
| 2025-12-06T23:37 | 2163 | 790 | 10.4 | -22.5 | ||
| 2025-12-06T23:37 | 2192 | 787 | 11.9 | -36.2 | ||
| 2025-12-06T23:38 | 2326 | 775 | 12.2 | -36.0 | ||
| 2025-12-06T23:38 | 2332 | 774 | 105 | 11 | ||
| 2025-12-06T23:39 | 2686 | 742 | 108 | 10 | ||
| 2025-12-06T23:39 | 2733 | 738 | 9.4 | -33.8 | ||
| 2025-12-06T23:40 | 3033 | 711 | 106 | 10 | ||
| 2025-12-06T23:40 | 3217 | 696 | 108 | 11 | ||
| 2025-12-06T23:40 | 3248 | 693 | 5.6 | -36.4 | ||
| 2025-12-06T23:41 | 3531 | 669 | 3.5 | -37.9 | ||
| 2025-12-06T23:41 | 3566 | 666 | 87 | 10 | ||
| 2025-12-06T23:42 | 3918 | 638 | 2.0 | -49.1 | ||
| 2025-12-06T23:42 | 3924 | 637 | 128 | 3 | ||
| 2025-12-06T23:42 | 3996 | 632 | 2.4 | -48.8 | ||
| 2025-12-06T23:43 | 4125 | 622 | 1.5 | -49.4 | ||
| 2025-12-06T23:43 | 4177 | 618 | 1.7 | -49.3 | 324 | 3 |
| 2025-12-06T23:43 | 4287 | 609 | 324 | 1 | ||
| 2025-12-06T23:43 | 4358 | 604 | 1.0 | -49.7 | ||
| 2025-12-06T23:43 | 4364 | 603 | 249 | 3 | ||
| 2025-12-06T23:44 | 4479 | 595 | 0.7 | -39.8 | ||
| 2025-12-06T23:44 | 4560 | 589 | 244 | 3 | ||
| 2025-12-06T23:44 | 4678 | 580 | 261 | 4 | ||
| 2025-12-06T23:44 | 4761 | 574 | 272 | 3 | ||
| 2025-12-06T23:45 | 4840 | 569 | 316 | 4 | ||
| 2025-12-06T23:45 | 4927 | 562 | -3.0 | -35.7 | ||
| 2025-12-06T23:46 | 5098 | 550 | -2.7 | -42.2 | ||
| 2025-12-06T23:46 | 5159 | 546 | 287 | 12 | ||
| 2025-12-06T23:46 | 5193 | 544 | -2.7 | -42.2 | ||
| 2025-12-06T23:47 | 5457 | 526 | 272 | 16 | ||
| 2025-12-06T23:47 | 5499 | 523 | -3.3 | -46.3 | ||
| 2025-12-06T23:48 | 5746 | 507 | -4.7 | -47.3 | ||
| 2025-12-06T23:48 | 5778 | 505 | 260 | 18 | ||
| 2025-12-06T23:49 | 6087 | 485 | -5.9 | -44.4 | ||
| 2025-12-06T23:49 | 6110 | 484 | 270 | 18 | ||
| 2025-12-06T23:50 | 6429 | 465 | 272 | 21 | ||
| 2025-12-06T23:50 | 6591 | 455 | -8.8 | -50.1 | ||
| 2025-12-06T23:50 | 6654 | 451 | 270 | 23 | ||
| 2025-12-06T23:51 | 6826 | 441 | -9.3 | -50.4 | ||
| 2025-12-06T23:51 | 6953 | 434 | 277 | 25 | ||
| 2025-12-06T23:52 | 7033 | 430 | -10.4 | -42.9 | ||
| 2025-12-06T23:52 | 7257 | 417 | 260 | 26 | ||
| 2025-12-06T23:53 | 7296 | 415 | -12.2 | -38.7 | ||
| 2025-12-06T23:53 | 7542 | 402 | 259 | 26 | ||
| 2025-12-06T23:54 | 7746 | 391 | -16.2 | -39.9 | ||
| 2025-12-06T23:54 | 7833 | 387 | 257 | 23 | ||
| 2025-12-06T23:55 | 8175 | 369 | 264 | 24 | ||
| 2025-12-06T23:56 | 8406 | 358 | -21.9 | -43.0 | ||
| 2025-12-06T23:56 | 8479 | 354 | 276 | 27 | ||
| 2025-12-06T23:56 | 8488 | 354 | -22.0 | -47.5 | ||
| 2025-12-06T23:57 | 8667 | 346 | -23.3 | -48.5 | ||
| 2025-12-06T23:57 | 8726 | 343 | 278 | 28 | ||
| 2025-12-06T23:58 | 8991 | 330 | -25.3 | -51.2 | 272 | 27 |
| 2025-12-06T23:59 | 9143 | 324 | -26.3 | -53.3 | ||
| 2025-12-06T23:59 | 9278 | 318 | 267 | 29 | ||
| 2025-12-07T00:00 | 9446 | 310 | -28.7 | -53.9 | ||
| 2025-12-07T00:00 | 9585 | 304 | 264 | 28 | ||
| 2025-12-07T00:01 | 9891 | 291 | 266 | 30 | ||
| 2025-12-07T00:02 | 10081 | 284 | -33.8 | -56.8 | ||
| 2025-12-07T00:02 | 10171 | 280 | 267 | 29 | ||
| 2025-12-07T00:03 | 10434 | 270 | 267 | 30 | ||
| 2025-12-07T00:04 | 10703 | 259 | 261 | 30 | ||
| 2025-12-07T00:05 | 10906 | 252 | -40.0 | -60.8 | ||
| 2025-12-07T00:05 | 10998 | 248 | 250 | 32 | ||
| 2025-12-07T00:06 | 11276 | 238 | 243 | 32 | ||
| 2025-12-07T00:07 | 11546 | 229 | 246 | 33 | ||
| 2025-12-07T00:08 | 11826 | 219 | 246 | 35 | ||
| 2025-12-07T00:09 | 12074 | 211 | -48.3 | |||
| 2025-12-07T00:09 | 12113 | 210 | 247 | 36 | ||
| 2025-12-07T00:10 | 12409 | 201 | 244 | 37 | ||
| 2025-12-07T00:11 | 12711 | 192 | 238 | 38 | ||
| 2025-12-07T00:12 | 13055 | 182 | 232 | 37 | ||
| 2025-12-07T00:13 | 13253 | 176 | -58.4 | |||
| 2025-12-07T00:13 | 13414 | 172 | 226 | 35 | ||
| 2025-12-07T00:14 | 13736 | 163 | 227 | 34 | ||
| 2025-12-07T00:15 | 14048 | 155 | 234 | 35 | ||
| 2025-12-07T00:16 | 14358 | 147 | 242 | 35 | ||
| 2025-12-07T00:17 | 14577 | 142 | -69.2 | |||
| 2025-12-07T00:17 | 14645 | 140 | 249 | 36 | ||
| 2025-12-07T00:18 | 14803 | 137 | -69.6 | |||
| 2025-12-07T00:18 | 14947 | 133 | 257 | 31 | ||
| 2025-12-07T00:19 | 15263 | 126 | 263 | 27 | ||
| 2025-12-07T00:20 | 15365 | 124 | -73.7 | |||
| 2025-12-07T00:20 | 15575 | 120 | 260 | 23 | ||
| 2025-12-07T00:20 | 15585 | 120 | -73.6 | |||
| 2025-12-07T00:21 | 15794 | 115 | -74.2 | |||
| 2025-12-07T00:21 | 15866 | 114 | 261 | 18 | ||
| 2025-12-07T00:22 | 16148 | 109 | 253 | 15 | ||
| 2025-12-07T00:23 | 16267 | 106 | -77.1 | |||
| 2025-12-07T00:23 | 16448 | 103 | 225 | 17 | ||
| 2025-12-07T00:24 | 16629 | 100 | -78.8 | |||
| 2025-12-07T00:24 | 16761 | 98 | 234 | 15 | ||
| 2025-12-07T00:25 | 17063 | 92 | 241 | 14 | ||
| 2025-12-07T00:26 | 17360 | 88 | 244 | 16 | ||
| 2025-12-07T00:27 | 17410 | 87 | -84.3 | |||
| 2025-12-07T00:27 | 17613 | 84 | -82.6 | |||
| 2025-12-07T00:27 | 17639 | 83 | 241 | 15 | ||
| 2025-12-07T00:28 | 17796 | 81 | 230 | 11 | ||
| 2025-12-07T00:28 | 17853 | 80 | -80.8 | |||
| 2025-12-07T00:28 | 17918 | 79 | 195 | 12 | ||
| 2025-12-07T00:29 | 17959 | 79 | -79.9 | |||
| 2025-12-07T00:29 | 18210 | 75 | 204 | 14 | ||
| 2025-12-07T00:30 | 18469 | 72 | -79.8 | |||
| 2025-12-07T00:30 | 18486 | 72 | 248 | 10 | ||
| 2025-12-07T00:31 | 18575 | 71 | -77.9 | |||
| 2025-12-07T00:31 | 18632 | 70 | 289 | 5 | ||
| 2025-12-07T00:31 | 18779 | 68 | 261 | 1 | ||
| 2025-12-07T00:32 | 18881 | 67 | 53 | 3 | ||
| 2025-12-07T00:32 | 18975 | 66 | 63 | 4 | ||
| 2025-12-07T00:32 | 19065 | 65 | 80 | 5 | ||
| 2025-12-07T00:33 | 19136 | 64 | -77.5 | |||
| 2025-12-07T00:33 | 19198 | 63 | 106 | 7 | ||
| 2025-12-07T00:33 | 19352 | 62 | -76.8 | |||
| 2025-12-07T00:33 | 19408 | 61 | 143 | 6 | ||
| 2025-12-07T00:34 | 19495 | 60 | 153 | 1 | ||
| 2025-12-07T00:34 | 19526 | 60 | -75.7 | |||
| 2025-12-07T00:34 | 19660 | 58 | -74.0 | |||
| 2025-12-07T00:35 | 19806 | 57 | -71.9 | 111 | 3 | |
| 2025-12-07T00:35 | 20019 | 55 | 142 | 6 | ||
| 2025-12-07T00:36 | 20183 | 54 | -71.3 | |||
| 2025-12-07T00:36 | 20286 | 53 | 142 | 6 | ||
| 2025-12-07T00:37 | 20467 | 51 | 142 | 8 | ||
| 2025-12-07T00:38 | 20704 | 49 | 135 | 8 | ||
| 2025-12-07T00:38 | 20804 | 48 | -68.8 | |||
| 2025-12-07T00:38 | 20906 | 47 | 118 | 6 | ||
| 2025-12-07T00:39 | 20995 | 47 | 93 | 8 | ||
| 2025-12-07T00:39 | 21113 | 46 | -64.9 | |||
| 2025-12-07T00:39 | 21140 | 46 | 104 | 11 | ||
| 2025-12-07T00:40 | 21468 | 43 | 121 | 9 | ||
| 2025-12-07T00:41 | 21669 | 42 | -66.1 | |||
| 2025-12-07T00:41 | 21758 | 41 | 101 | 7 | ||
| 2025-12-07T00:41 | 21924 | 40 | 113 | 13 | ||
| 2025-12-07T00:42 | 22049 | 39 | -63.5 | |||
| 2025-12-07T00:42 | 22188 | 38 | 114 | 9 | ||
| 2025-12-07T00:43 | 22385 | 37 | 85 | 6 | ||
| 2025-12-07T00:43 | 22521 | 36 | -61.9 | 104 | 6 | |
| 2025-12-07T00:44 | 22672 | 36 | 54 | 6 | ||
| 2025-12-07T00:44 | 22852 | 35 | 63 | 7 | ||
| 2025-12-07T00:45 | 23109 | 33 | 47 | 12 | ||
| 2025-12-07T00:45 | 23185 | 33 | -59.9 | |||
| 2025-12-07T00:46 | 23478 | 31 | 55 | 14 | ||
| 2025-12-07T00:46 | 23600 | 31 | -59.3 | |||
| 2025-12-07T00:47 | 23831 | 30 | 67 | 17 | ||
| 2025-12-07T00:47 | 23961 | 29 | -57.5 | |||
| 2025-12-07T00:48 | 24070 | 28 | 76 | 17 | ||
| 2025-12-07T00:49 | 24434 | 27 | 75 | 14 | ||
| 2025-12-07T00:49 | 24552 | 26 | -59.7 | |||
| 2025-12-07T00:50 | 24819 | 25 | 76 | 18 | ||
| 2025-12-07T00:51 | 25156 | 24 | -55.6 | 87 | 19 | |
| 2025-12-07T00:51 | 25292 | 23 | 83 | 18 | ||
| 2025-12-07T00:52 | 25570 | 22 | 77 | 10 | ||
| 2025-12-07T00:53 | 25925 | 21 | 91 | 16 | ||
| 2025-12-07T00:54 | 26171 | 20 | -55.7 | |||
| 2025-12-07T00:54 | 26301 | 20 | 98 | 14 | ||
| 2025-12-07T00:55 | 26623 | 19 | 92 | 6 | ||
| 2025-12-07T00:55 | 26723 | 19 | 107 | 5 | ||
| 2025-12-07T00:55 | 26861 | 18 | 73 | 5 | ||
| 2025-12-07T00:57 | 27254 | 17 | 69 | 7 | ||
| 2025-12-07T00:57 | 27458 | 17 | -55.3 | 112 | 5 | |
| 2025-12-07T11:31 | 8 | 1019 | 23.7 | 16.0 | 70 | 6 |
| 2025-12-07T11:31 | 17 | 1018 | 23.7 | 16.5 | 70 | 1 |
| 2025-12-07T11:31 | 43 | 1015 | 72 | 2 | ||
| 2025-12-07T11:31 | 74 | 1011 | 77 | 8 | ||
| 2025-12-07T11:32 | 212 | 995 | 74 | 11 | ||
| 2025-12-07T11:33 | 541 | 958 | 81 | 11 | ||
| 2025-12-07T11:33 | 740 | 936 | 17.0 | 14.6 | ||
| 2025-12-07T11:34 | 875 | 921 | 85 | 10 | ||
| 2025-12-07T11:34 | 965 | 912 | 15.0 | 13.2 | ||
| 2025-12-07T11:34 | 1074 | 900 | 14.0 | 13.4 | ||
| 2025-12-07T11:34 | 1138 | 893 | 13.5 | 12.6 | ||
| 2025-12-07T11:35 | 1171 | 890 | 103 | 8 | ||
| 2025-12-07T11:35 | 1176 | 889 | 13.8 | 11.7 | ||
| 2025-12-07T11:35 | 1369 | 869 | 126 | 7 | ||
| 2025-12-07T11:35 | 1447 | 861 | 11.9 | 11.1 | ||
| 2025-12-07T11:36 | 1572 | 849 | 136 | 7 | ||
| 2025-12-07T11:37 | 1856 | 820 | 9.6 | 8.4 | ||
| 2025-12-07T11:37 | 1879 | 818 | 157 | 9 | ||
| 2025-12-07T11:37 | 2018 | 804 | 154 | 10 | ||
| 2025-12-07T11:37 | 2116 | 795 | 7.7 | 6.8 | ||
| 2025-12-07T11:38 | 2351 | 773 | 163 | 11 | ||
| 2025-12-07T11:38 | 2478 | 761 | 5.2 | 5.1 | ||
| 2025-12-07T11:39 | 2542 | 755 | 5.0 | 4.1 | ||
| 2025-12-07T11:39 | 2547 | 754 | 154 | 12 | ||
| 2025-12-07T11:39 | 2651 | 745 | 3.9 | -5.6 | ||
| 2025-12-07T11:39 | 2688 | 741 | 3.8 | -6.5 | ||
| 2025-12-07T11:39 | 2725 | 738 | 5.3 | -5.4 | ||
| 2025-12-07T11:39 | 2790 | 732 | 6.9 | -6.1 | ||
| 2025-12-07T11:39 | 2816 | 730 | 8.0 | -6.2 | ||
| 2025-12-07T11:40 | 2864 | 726 | 185 | 8 | ||
| 2025-12-07T11:40 | 3139 | 702 | 5.2 | -10.2 | ||
| 2025-12-07T11:41 | 3186 | 698 | 211 | 8 | ||
| 2025-12-07T11:41 | 3216 | 695 | 5.6 | -15.0 | ||
| 2025-12-07T11:41 | 3288 | 689 | 5.7 | -18.2 | ||
| 2025-12-07T11:41 | 3381 | 681 | 5.4 | -22.8 | ||
| 2025-12-07T11:41 | 3475 | 673 | 203 | 10 | ||
| 2025-12-07T11:42 | 3551 | 667 | 5.8 | -31.1 | ||
| 2025-12-07T11:42 | 3746 | 652 | 4.7 | -34.2 | 220 | 7 |
| 2025-12-07T11:42 | 3791 | 648 | 5.7 | -40.3 | ||
| 2025-12-07T11:43 | 3967 | 634 | 5.5 | -46.9 | ||
| 2025-12-07T11:43 | 4026 | 630 | 231 | 7 | ||
| 2025-12-07T11:44 | 4405 | 601 | 223 | 10 | ||
| 2025-12-07T11:44 | 4662 | 582 | 0.8 | -39.8 | ||
| 2025-12-07T11:45 | 4668 | 582 | 240 | 11 | ||
| 2025-12-07T11:45 | 4815 | 571 | 0.6 | -43.7 | ||
| 2025-12-07T11:45 | 4909 | 564 | 231 | 16 | ||
| 2025-12-07T11:45 | 5016 | 557 | -0.5 | -44.5 | ||
| 2025-12-07T11:46 | 5266 | 540 | 245 | 19 | ||
| 2025-12-07T11:46 | 5325 | 536 | -1.5 | -41.4 | ||
| 2025-12-07T11:47 | 5587 | 518 | 244 | 20 | ||
| 2025-12-07T11:48 | 5949 | 495 | 252 | 21 | ||
| 2025-12-07T11:49 | 6101 | 485 | -7.7 | -40.9 | ||
| 2025-12-07T11:49 | 6281 | 474 | -8.6 | -43.7 | ||
| 2025-12-07T11:49 | 6293 | 473 | 247 | 22 | ||
| 2025-12-07T11:50 | 6642 | 452 | 250 | 21 | ||
| 2025-12-07T11:51 | 6841 | 441 | -12.7 | -46.7 | ||
| 2025-12-07T11:51 | 6992 | 432 | 262 | 25 | ||
| 2025-12-07T11:51 | 7060 | 428 | -13.1 | -38.4 | ||
| 2025-12-07T11:52 | 7321 | 414 | -15.0 | -31.1 | ||
| 2025-12-07T11:52 | 7332 | 413 | 266 | 29 | ||
| 2025-12-07T11:53 | 7548 | 402 | -16.2 | -35.7 | ||
| 2025-12-07T11:53 | 7626 | 397 | 262 | 31 | ||
| 2025-12-07T11:53 | 7719 | 393 | -16.7 | -36.7 | ||
| 2025-12-07T11:54 | 7974 | 379 | 250 | 29 | ||
| 2025-12-07T11:55 | 8183 | 369 | -19.9 | -38.8 | ||
| 2025-12-07T11:55 | 8260 | 365 | -19.8 | -45.8 | ||
| 2025-12-07T11:55 | 8305 | 363 | 257 | 31 | ||
| 2025-12-07T11:56 | 8632 | 347 | 265 | 33 | ||
| 2025-12-07T11:57 | 8909 | 334 | 264 | 34 | ||
| 2025-12-07T11:58 | 9169 | 323 | 265 | 35 | ||
| 2025-12-07T11:58 | 9178 | 322 | -26.2 | -51.9 | ||
| 2025-12-07T11:59 | 9455 | 310 | 262 | 35 | ||
| 2025-12-07T12:00 | 9715 | 299 | 266 | 35 | ||
| 2025-12-07T12:01 | 10003 | 287 | -32.8 | -56.0 | ||
| 2025-12-07T12:01 | 10008 | 287 | 258 | 34 | ||
| 2025-12-07T12:02 | 10334 | 274 | 250 | 36 | ||
| 2025-12-07T12:03 | 10628 | 262 | 245 | 35 | ||
| 2025-12-07T12:04 | 10878 | 253 | 250 | 35 | ||
| 2025-12-07T12:04 | 10980 | 249 | -40.0 | -63.9 | ||
| 2025-12-07T12:05 | 11155 | 243 | 248 | 35 | ||
| 2025-12-07T12:06 | 11429 | 233 | 249 | 35 | ||
| 2025-12-07T12:07 | 11691 | 224 | 246 | 34 | ||
| 2025-12-07T12:07 | 11713 | 223 | -46.0 | |||
| 2025-12-07T12:08 | 11968 | 215 | 242 | 37 | ||
| 2025-12-07T12:09 | 12247 | 206 | 241 | 38 | ||
| 2025-12-07T12:09 | 12270 | 205 | -50.3 | |||
| 2025-12-07T12:10 | 12517 | 198 | 238 | 38 | ||
| 2025-12-07T12:11 | 12779 | 190 | 239 | 39 | ||
| 2025-12-07T12:12 | 13042 | 182 | 244 | 38 | ||
| 2025-12-07T12:13 | 13305 | 175 | -58.0 | |||
| 2025-12-07T12:13 | 13336 | 174 | 238 | 38 | ||
| 2025-12-07T12:14 | 13625 | 166 | 234 | 40 | ||
| 2025-12-07T12:15 | 13887 | 159 | 234 | 40 | ||
| 2025-12-07T12:16 | 14165 | 152 | 235 | 38 | ||
| 2025-12-07T12:17 | 14453 | 145 | 240 | 37 | ||
| 2025-12-07T12:17 | 14468 | 145 | -67.4 | |||
| 2025-12-07T12:18 | 14751 | 138 | 250 | 32 | ||
| 2025-12-07T12:18 | 14771 | 137 | -68.6 | |||
| 2025-12-07T12:19 | 15055 | 131 | 256 | 29 | ||
| 2025-12-07T12:20 | 15371 | 124 | 253 | 27 | ||
| 2025-12-07T12:21 | 15591 | 120 | -75.1 | |||
| 2025-12-07T12:21 | 15686 | 118 | 241 | 24 | ||
| 2025-12-07T12:21 | 15707 | 117 | -74.7 | |||
| 2025-12-07T12:22 | 15987 | 112 | 232 | 23 | ||
| 2025-12-07T12:23 | 16268 | 106 | 234 | 22 | ||
| 2025-12-07T12:24 | 16436 | 103 | -79.8 | |||
| 2025-12-07T12:24 | 16546 | 101 | 241 | 19 | ||
| 2025-12-07T12:25 | 16722 | 98 | -80.8 | |||
| 2025-12-07T12:25 | 16768 | 97 | 254 | 20 | ||
| 2025-12-07T12:25 | 16879 | 95 | -79.8 | |||
| 2025-12-07T12:26 | 17047 | 93 | 254 | 18 | ||
| 2025-12-07T12:27 | 17338 | 88 | 256 | 19 | ||
| 2025-12-07T12:28 | 17564 | 84 | -84.1 | |||
| 2025-12-07T12:28 | 17603 | 84 | 260 | 15 | ||
| 2025-12-07T12:28 | 17724 | 82 | 246 | 9 | ||
| 2025-12-07T12:28 | 17766 | 81 | -80.8 | |||
| 2025-12-07T12:29 | 17849 | 80 | -80.1 | |||
| 2025-12-07T12:29 | 17885 | 80 | 241 | 11 | ||
| 2025-12-07T12:29 | 17986 | 78 | 244 | 11 | ||
| 2025-12-07T12:29 | 18035 | 78 | -80.1 | |||
| 2025-12-07T12:30 | 18168 | 76 | 246 | 12 | ||
| 2025-12-07T12:31 | 18435 | 72 | 271 | 9 | ||
| 2025-12-07T12:31 | 18512 | 71 | -80.6 | |||
| 2025-12-07T12:31 | 18520 | 71 | 251 | 4 | ||
| 2025-12-07T12:31 | 18598 | 70 | 192 | 4 | ||
| 2025-12-07T12:32 | 18804 | 68 | 165 | 10 | ||
| 2025-12-07T12:32 | 18880 | 67 | -79.9 | |||
| 2025-12-07T12:33 | 18983 | 66 | 182 | 12 | ||
| 2025-12-07T12:33 | 19186 | 63 | -77.3 | |||
| 2025-12-07T12:33 | 19194 | 63 | 182 | 14 | ||
| 2025-12-07T12:34 | 19290 | 62 | -74.4 | |||
| 2025-12-07T12:34 | 19374 | 61 | -71.5 | |||
| 2025-12-07T12:34 | 19404 | 61 | 162 | 8 | ||
| 2025-12-07T12:35 | 19580 | 59 | -71.2 | 186 | 8 | |
| 2025-12-07T12:35 | 19612 | 59 | 182 | 3 | ||
| 2025-12-07T12:36 | 19615 | 59 | -70.1 | 154 | 2 | |
| 2025-12-07T23:31 | 8 | 1019 | 23.2 | 16.7 | 80 | 4 |
| 2025-12-07T23:31 | 14 | 1018 | 23.3 | 17.1 | 94 | 1 |
| 2025-12-07T23:31 | 62 | 1012 | 80 | 4 | ||
| 2025-12-07T23:32 | 271 | 988 | 95 | 9 | ||
| 2025-12-07T23:32 | 454 | 968 | 19.4 | 15.5 | ||
| 2025-12-07T23:32 | 468 | 966 | 99 | 11 | ||
| 2025-12-07T23:33 | 689 | 941 | 17.5 | 13.8 | 101 | 8 |
| 2025-12-07T23:34 | 821 | 927 | 85 | 4 | ||
| 2025-12-07T23:34 | 827 | 926 | 17.3 | 11.8 | ||
| 2025-12-07T23:34 | 931 | 915 | 16.8 | 10.2 | ||
| 2025-12-07T23:34 | 961 | 912 | 16.2 | 9.4 | ||
| 2025-12-07T23:34 | 990 | 909 | 41 | 5 | ||
| 2025-12-07T23:35 | 1106 | 896 | 358 | 4 | ||
| 2025-12-07T23:35 | 1248 | 882 | 21 | 5 | ||
| 2025-12-07T23:36 | 1408 | 865 | 12.8 | 8.7 | ||
| 2025-12-07T23:36 | 1469 | 859 | 22 | 5 | ||
| 2025-12-07T23:36 | 1494 | 856 | 12.1 | 9.1 | ||
| 2025-12-07T23:37 | 1631 | 842 | 22 | 5 | ||
| 2025-12-07T23:37 | 1667 | 839 | 10.6 | 7.8 | ||
| 2025-12-07T23:38 | 1805 | 825 | 9.7 | 7.5 | ||
| 2025-12-07T23:38 | 1813 | 824 | 25 | 5 | ||
| 2025-12-07T23:39 | 2020 | 804 | 7.8 | 7.2 | ||
| 2025-12-07T23:39 | 2033 | 802 | 43 | 3 | ||
| 2025-12-07T23:39 | 2150 | 791 | 39 | 2 | ||
| 2025-12-07T23:39 | 2193 | 787 | 6.9 | 6.8 | ||
| 2025-12-07T23:39 | 2253 | 781 | 17 | 4 | ||
| 2025-12-07T23:40 | 2440 | 764 | 24 | 3 | ||
| 2025-12-07T23:40 | 2600 | 749 | 5.1 | 5.0 | ||
| 2025-12-07T23:41 | 2678 | 742 | 282 | 3 | ||
| 2025-12-07T23:41 | 2763 | 734 | 267 | 3 | ||
| 2025-12-07T23:41 | 2915 | 721 | 292 | 3 | ||
| 2025-12-07T23:42 | 3226 | 693 | 1.4 | 1.4 | ||
| 2025-12-07T23:42 | 3237 | 693 | 301 | 4 | ||
| 2025-12-07T23:43 | 3357 | 682 | 308 | 5 | ||
| 2025-12-07T23:43 | 3454 | 674 | 0.1 | 0.0 | ||
| 2025-12-07T23:43 | 3510 | 669 | 295 | 5 | ||
| 2025-12-07T23:44 | 3702 | 654 | -1.3 | -1.7 | ||
| 2025-12-07T23:44 | 3709 | 653 | 292 | 10 | ||
| 2025-12-07T23:44 | 3788 | 647 | -2.2 | -5.0 | ||
| 2025-12-07T23:44 | 3857 | 641 | -2.8 | -11.8 | ||
| 2025-12-07T23:44 | 3885 | 639 | -3.1 | -12.1 | ||
| 2025-12-07T23:44 | 3889 | 638 | 284 | 21 | ||
| 2025-12-07T23:44 | 3918 | 636 | -3.4 | -15.1 | ||
| 2025-12-07T23:45 | 4018 | 628 | -3.9 | -17.1 | ||
| 2025-12-07T23:45 | 4054 | 625 | -4.1 | -18.0 | ||
| 2025-12-07T23:45 | 4097 | 622 | -4.4 | -19.4 | ||
| 2025-12-07T23:45 | 4119 | 620 | 282 | 20 | ||
| 2025-12-07T23:45 | 4123 | 620 | -4.0 | -19.0 | ||
| 2025-12-07T23:46 | 4234 | 611 | -4.5 | -19.5 | ||
| 2025-12-07T23:46 | 4358 | 601 | -5.0 | -20.7 | ||
| 2025-12-07T23:46 | 4401 | 598 | -4.6 | -20.0 | ||
| 2025-12-07T23:46 | 4423 | 597 | 282 | 23 | ||
| 2025-12-07T23:46 | 4476 | 592 | -4.7 | -20.5 | ||
| 2025-12-07T23:47 | 4550 | 587 | -5.0 | -22.5 | ||
| 2025-12-07T23:47 | 4600 | 583 | -4.4 | -23.0 | ||
| 2025-12-07T23:47 | 4654 | 579 | -4.2 | -23.9 | ||
| 2025-12-07T23:47 | 4688 | 577 | -3.4 | -23.8 | ||
| 2025-12-07T23:47 | 4725 | 574 | 277 | 22 | ||
| 2025-12-07T23:47 | 4730 | 574 | -3.1 | -23.5 | ||
| 2025-12-07T23:48 | 4861 | 564 | -2.2 | -25.4 | ||
| 2025-12-07T23:48 | 4906 | 561 | 0.5 | -25.7 | ||
| 2025-12-07T23:48 | 4919 | 560 | 1.2 | -27.1 | ||
| 2025-12-07T23:48 | 4987 | 555 | 276 | 19 | ||
| 2025-12-07T23:48 | 4991 | 555 | 0.7 | -23.8 | ||
| 2025-12-07T23:49 | 5261 | 537 | 271 | 19 | ||
| 2025-12-07T23:49 | 5286 | 535 | -0.9 | -29.9 | ||
| 2025-12-07T23:50 | 5413 | 527 | 279 | 19 | ||
| 2025-12-07T23:50 | 5640 | 512 | -2.8 | -31.4 | ||
| 2025-12-07T23:50 | 5674 | 510 | 273 | 23 | ||
| 2025-12-07T23:51 | 5804 | 501 | 267 | 23 | ||
| 2025-12-07T23:51 | 6047 | 486 | 273 | 23 | ||
| 2025-12-07T23:52 | 6113 | 482 | -6.4 | -31.2 | ||
| 2025-12-07T23:52 | 6367 | 466 | 273 | 25 | ||
| 2025-12-07T23:53 | 6407 | 464 | -8.4 | -34.7 | ||
| 2025-12-07T23:53 | 6687 | 448 | 274 | 26 | ||
| 2025-12-07T23:54 | 6837 | 439 | -11.3 | -38.0 | ||
| 2025-12-07T23:54 | 6992 | 430 | -11.8 | -40.8 | ||
| 2025-12-07T23:54 | 7003 | 429 | 267 | 27 | ||
| 2025-12-07T23:55 | 7139 | 422 | -12.6 | -38.0 | ||
| 2025-12-07T23:55 | 7170 | 420 | 271 | 30 | ||
| 2025-12-07T23:56 | 7485 | 403 | 273 | 31 | ||
| 2025-12-07T23:57 | 7805 | 386 | 277 | 34 | ||
| 2025-12-07T23:57 | 7842 | 384 | -18.9 | -42.1 | ||
| 2025-12-07T23:57 | 7943 | 379 | -19.5 | -41.8 | ||
| 2025-12-07T23:58 | 8009 | 376 | -19.1 | -42.3 | ||
| 2025-12-07T23:58 | 8103 | 371 | 281 | 37 | ||
| 2025-12-07T23:58 | 8175 | 367 | -19.4 | -42.5 | ||
| 2025-12-07T23:59 | 8305 | 361 | 281 | 37 | ||
| 2025-12-07T23:59 | 8358 | 359 | -20.5 | -42.6 | ||
| 2025-12-07T23:59 | 8567 | 349 | -21.8 | -43.6 | ||
| 2025-12-08T00:00 | 8611 | 346 | -22.2 | -38.6 | ||
| 2025-12-08T00:00 | 8622 | 346 | 277 | 37 | ||
| 2025-12-08T00:00 | 8846 | 335 | -24.1 | -46.3 | ||
| 2025-12-08T00:01 | 8983 | 329 | 275 | 35 | ||
| 2025-12-08T00:02 | 9354 | 313 | 269 | 34 | ||
| 2025-12-08T00:03 | 9698 | 298 | 263 | 35 | ||
| 2025-12-08T00:03 | 9703 | 298 | -31.2 | -52.9 | ||
| 2025-12-08T00:04 | 10054 | 283 | 258 | 34 | ||
| 2025-12-08T00:04 | 10319 | 273 | -35.6 | -56.4 | ||
| 2025-12-08T00:05 | 10398 | 270 | -34.7 | -57.5 | ||
| 2025-12-08T00:05 | 10416 | 269 | 263 | 38 | ||
| 2025-12-08T00:06 | 10766 | 256 | 257 | 36 | ||
| 2025-12-08T00:06 | 10866 | 252 | -38.7 | -57.5 | ||
| 2025-12-08T00:06 | 11041 | 246 | -40.0 | -59.2 | ||
| 2025-12-08T00:07 | 11102 | 243 | 256 | 38 | ||
| 2025-12-08T00:08 | 11462 | 231 | 257 | 37 | ||
| 2025-12-08T00:09 | 11793 | 220 | 250 | 38 | ||
| 2025-12-08T00:10 | 12115 | 209 | 251 | 37 | ||
| 2025-12-08T00:10 | 12214 | 206 | -49.5 | |||
| 2025-12-08T00:11 | 12448 | 199 | 242 | 40 | ||
| 2025-12-08T00:12 | 12733 | 190 | 239 | 39 | ||
| 2025-12-08T00:13 | 13000 | 182 | 240 | 39 | ||
| 2025-12-08T00:13 | 13165 | 178 | -58.2 | |||
| 2025-12-08T00:13 | 13312 | 174 | -59.6 | 240 | 40 | |
| 2025-12-08T11:31 | 8 | 1019 | 22.7 | 17.0 | 40 | 5 |
| 2025-12-08T11:31 | 11 | 1019 | 22.7 | 17.2 | 40 | 1 |
| 2025-12-08T11:31 | 27 | 1017 | 65 | 3 | ||
| 2025-12-08T11:31 | 68 | 1012 | 36 | 6 | ||
| 2025-12-08T11:32 | 217 | 995 | 21.8 | 16.1 | ||
| 2025-12-08T11:32 | 283 | 987 | 56 | 12 | ||
| 2025-12-08T11:33 | 619 | 950 | 54 | 11 | ||
| 2025-12-08T11:34 | 892 | 920 | 54 | 12 | ||
| 2025-12-08T11:34 | 1089 | 899 | 13.9 | 12.8 | ||
| 2025-12-08T11:34 | 1183 | 889 | 13.6 | 10.9 | ||
| 2025-12-08T11:35 | 1231 | 884 | 49 | 10 | ||
| 2025-12-08T11:35 | 1263 | 881 | 13.2 | 10.0 | ||
| 2025-12-08T11:35 | 1375 | 869 | 12.5 | 9.5 | ||
| 2025-12-08T11:35 | 1475 | 859 | 12.4 | 8.1 | ||
| 2025-12-08T11:35 | 1503 | 856 | 57 | 7 | ||
| 2025-12-08T11:36 | 1720 | 834 | 26 | 6 | ||
| 2025-12-08T11:37 | 2060 | 801 | 32 | 6 | ||
| 2025-12-08T11:37 | 2082 | 799 | 8.9 | 6.3 | ||
| 2025-12-08T11:37 | 2162 | 791 | 5 | 7 | ||
| 2025-12-08T11:38 | 2231 | 784 | 8.5 | 6.6 | ||
| 2025-12-08T11:38 | 2272 | 780 | 341 | 6 | ||
| 2025-12-08T11:39 | 2600 | 750 | 5.7 | 5.0 | ||
| 2025-12-08T11:39 | 2622 | 748 | 334 | 6 | ||
| 2025-12-08T11:39 | 2628 | 747 | 5.5 | -2.6 | ||
| 2025-12-08T11:39 | 2644 | 746 | 7.0 | -8.2 | ||
| 2025-12-08T11:39 | 2683 | 742 | 10.4 | -9.3 | ||
| 2025-12-08T11:39 | 2828 | 729 | 6 | 4 | ||
| 2025-12-08T11:40 | 3105 | 706 | 46 | 6 | ||
| 2025-12-08T11:41 | 3239 | 694 | 7.1 | -32.5 | ||
| 2025-12-08T11:41 | 3273 | 691 | 7.3 | -39.3 | ||
| 2025-12-08T11:41 | 3278 | 691 | 52 | 9 | ||
| 2025-12-08T11:41 | 3317 | 688 | 7.6 | -45.6 | ||
| 2025-12-08T11:42 | 3602 | 664 | 26 | 7 | ||
| 2025-12-08T11:42 | 3734 | 653 | 6.2 | -46.5 | ||
| 2025-12-08T11:43 | 3935 | 638 | 1 | 4 | ||
| 2025-12-08T11:43 | 3958 | 636 | 4.7 | -47.4 | ||
| 2025-12-08T11:43 | 4130 | 622 | 338 | 4 | ||
| 2025-12-08T11:44 | 4231 | 615 | 312 | 4 | ||
| 2025-12-08T11:44 | 4276 | 611 | 2.5 | -42.5 | ||
| 2025-12-08T11:44 | 4464 | 597 | 314 | 7 | ||
| 2025-12-08T11:45 | 4601 | 587 | 0.9 | -32.8 | ||
| 2025-12-08T11:45 | 4811 | 572 | 282 | 8 | ||
| 2025-12-08T11:46 | 4899 | 566 | -1.0 | -38.2 | ||
| 2025-12-08T11:46 | 5160 | 547 | 265 | 17 | ||
| 2025-12-08T11:46 | 5228 | 543 | -1.5 | -41.4 | ||
| 2025-12-08T11:47 | 5490 | 525 | 258 | 20 | ||
| 2025-12-08T11:48 | 5648 | 515 | -4.4 | -40.7 | ||
| 2025-12-08T11:48 | 5819 | 503 | 255 | 18 | ||
| 2025-12-08T11:49 | 6148 | 483 | 259 | 17 | ||
| 2025-12-08T11:49 | 6159 | 482 | -8.9 | -34.1 | ||
| 2025-12-08T11:50 | 6380 | 468 | -10.0 | -40.9 | ||
| 2025-12-08T11:50 | 6472 | 463 | 274 | 21 | ||
| 2025-12-08T11:51 | 6781 | 445 | 274 | 23 | ||
| 2025-12-08T11:51 | 6835 | 442 | -12.4 | -49.0 | ||
| 2025-12-08T11:52 | 7036 | 430 | -13.4 | -53.2 | ||
| 2025-12-08T11:52 | 7105 | 426 | 272 | 25 | ||
| 2025-12-08T11:53 | 7422 | 409 | 278 | 26 | ||
| 2025-12-08T11:53 | 7458 | 407 | -15.9 | -51.5 | ||
| 2025-12-08T11:54 | 7563 | 401 | -15.9 | -42.7 | ||
| 2025-12-08T11:54 | 7642 | 397 | -16.3 | -38.4 | ||
| 2025-12-08T11:54 | 7732 | 392 | -16.7 | -41.2 | ||
| 2025-12-08T11:54 | 7737 | 392 | 280 | 29 | ||
| 2025-12-08T11:55 | 8046 | 376 | 275 | 29 | ||
| 2025-12-08T11:56 | 8339 | 361 | 275 | 28 | ||
| 2025-12-08T11:57 | 8398 | 358 | -22.4 | -44.1 | ||
| 2025-12-08T11:57 | 8517 | 353 | -23.1 | -47.3 | ||
| 2025-12-08T11:57 | 8600 | 349 | 284 | 30 | ||
| 2025-12-08T11:57 | 8660 | 346 | -23.4 | -49.8 | ||
| 2025-12-08T11:58 | 8888 | 335 | 281 | 31 | ||
| 2025-12-08T11:59 | 9094 | 326 | -26.9 | -52.5 | ||
| 2025-12-08T11:59 | 9171 | 322 | 285 | 31 | ||
| 2025-12-08T12:00 | 9301 | 316 | -28.2 | -51.3 | ||
| 2025-12-08T12:00 | 9457 | 310 | 290 | 35 | ||
| 2025-12-08T12:01 | 9673 | 300 | -30.8 | -55.5 | ||
| 2025-12-08T12:01 | 9731 | 298 | 287 | 35 | ||
| 2025-12-08T12:02 | 9998 | 287 | 283 | 34 | ||
| 2025-12-08T12:03 | 10264 | 276 | 283 | 34 | ||
| 2025-12-08T12:04 | 10533 | 266 | 287 | 37 | ||
| 2025-12-08T12:05 | 10648 | 261 | -37.2 | -63.1 | ||
| 2025-12-08T12:05 | 10821 | 255 | 285 | 36 | ||
| 2025-12-08T12:06 | 11097 | 245 | -40.0 | -66.9 | ||
| 2025-12-08T12:06 | 11116 | 244 | 272 | 35 | ||
| 2025-12-08T12:07 | 11403 | 234 | 265 | 36 | ||
| 2025-12-08T12:08 | 11679 | 225 | 262 | 36 | ||
| 2025-12-08T12:09 | 11965 | 215 | 257 | 36 | ||
| 2025-12-08T12:09 | 11974 | 215 | -47.5 | |||
| 2025-12-08T12:10 | 12236 | 206 | 258 | 37 | ||
| 2025-12-08T12:11 | 12508 | 198 | 257 | 37 | ||
| 2025-12-08T12:12 | 12777 | 190 | 255 | 37 | ||
| 2025-12-08T12:13 | 13041 | 182 | 254 | 37 | ||
| 2025-12-08T12:14 | 13339 | 174 | 250 | 34 | ||
| 2025-12-08T12:14 | 13349 | 173 | -59.4 | |||
| 2025-12-08T12:15 | 13617 | 166 | 249 | 36 | ||
| 2025-12-08T12:16 | 13882 | 159 | 251 | 36 | ||
| 2025-12-08T12:17 | 14146 | 152 | 253 | 37 | ||
| 2025-12-08T12:18 | 14285 | 149 | -67.3 | |||
| 2025-12-08T12:18 | 14419 | 146 | 256 | 38 | ||
| 2025-12-08T12:19 | 14696 | 139 | 257 | 39 | ||
| 2025-12-08T12:20 | 14913 | 134 | -72.6 | |||
| 2025-12-08T12:20 | 14969 | 133 | 262 | 36 | ||
| 2025-12-08T12:21 | 15284 | 126 | 275 | 33 | ||
| 2025-12-08T12:21 | 15331 | 125 | -74.3 | |||
| 2025-12-08T12:22 | 15575 | 120 | 279 | 31 | ||
| 2025-12-08T12:22 | 15594 | 119 | -76.1 | |||
| 2025-12-08T12:23 | 15857 | 114 | 272 | 23 | ||
| 2025-12-08T12:24 | 16002 | 111 | -77.0 | |||
| 2025-12-08T12:24 | 16139 | 108 | 251 | 21 | ||
| 2025-12-08T12:25 | 16327 | 105 | -78.2 | |||
| 2025-12-08T12:25 | 16413 | 103 | 243 | 20 | ||
| 2025-12-08T12:26 | 16606 | 100 | -79.6 | |||
| 2025-12-08T12:26 | 16691 | 98 | 249 | 19 | ||
| 2025-12-08T12:27 | 16973 | 94 | 252 | 17 | ||
| 2025-12-08T12:27 | 17039 | 92 | -82.6 | |||
| 2025-12-08T12:28 | 17208 | 90 | -83.2 | |||
| 2025-12-08T12:28 | 17270 | 89 | 249 | 16 | ||
| 2025-12-08T12:29 | 17513 | 85 | -83.0 | |||
| 2025-12-08T12:29 | 17561 | 84 | 272 | 17 | ||
| 2025-12-08T12:29 | 17620 | 83 | -79.9 | |||
| 2025-12-08T12:30 | 17838 | 80 | 253 | 13 | ||
| 2025-12-08T12:30 | 17844 | 80 | -78.3 | |||
| 2025-12-08T12:31 | 18103 | 76 | 259 | 12 | ||
| 2025-12-08T12:32 | 18224 | 75 | -80.1 | |||
| 2025-12-08T12:32 | 18301 | 74 | 253 | 9 | ||
| 2025-12-08T12:32 | 18386 | 73 | -77.7 | |||
| 2025-12-08T12:33 | 18586 | 70 | 282 | 8 | ||
| 2025-12-08T12:34 | 18793 | 68 | 252 | 6 | ||
| 2025-12-08T12:34 | 19000 | 65 | 263 | 7 | ||
| 2025-12-08T12:35 | 19113 | 64 | 263 | 4 | ||
| 2025-12-08T12:35 | 19214 | 63 | 211 | 4 | ||
| 2025-12-08T12:35 | 19251 | 63 | -77.3 | |||
| 2025-12-08T12:36 | 19392 | 61 | -76.1 | 200 | 7 | |
| 2025-12-08T12:36 | 19562 | 59 | 174 | 9 | ||
| 2025-12-08T12:37 | 19657 | 58 | -69.8 | |||
| 2025-12-08T12:37 | 19716 | 58 | 178 | 1 | ||
| 2025-12-08T12:37 | 19834 | 57 | -69.2 | |||
| 2025-12-08T12:38 | 20014 | 55 | 231 | 1 | ||
| 2025-12-08T12:39 | 20202 | 53 | -70.3 | |||
| 2025-12-08T12:39 | 20257 | 53 | 210 | 2 | ||
| 2025-12-08T12:39 | 20336 | 52 | -69.4 | 95 | 3 | |
| 2025-12-08T12:40 | 20511 | 51 | 84 | 3 | ||
| 2025-12-08T12:40 | 20763 | 48 | 103 | 4 | ||
| 2025-12-08T12:41 | 20892 | 47 | -67.6 | 100 | 6 | |
| 2025-12-08T12:41 | 20975 | 47 | -66.0 | 90 | 3 | |
| 2025-12-08T23:31 | 8 | 1020 | 23.4 | 16.5 | 70 | 6 |
| 2025-12-08T23:31 | 13 | 1019 | 23.4 | 16.7 | 62 | 1 |
| 2025-12-08T23:31 | 29 | 1017 | 64 | 2 | ||
| 2025-12-08T23:31 | 50 | 1015 | 73 | 9 | ||
| 2025-12-08T23:32 | 351 | 980 | 73 | 11 | ||
| 2025-12-08T23:33 | 560 | 957 | 77 | 12 | ||
| 2025-12-08T23:33 | 611 | 951 | 18.0 | 14.3 | ||
| 2025-12-08T23:33 | 701 | 941 | 17.1 | 13.8 | ||
| 2025-12-08T23:34 | 774 | 933 | 16.7 | 12.0 | ||
| 2025-12-08T23:34 | 876 | 922 | 72 | 13 | ||
| 2025-12-08T23:35 | 1190 | 888 | 80 | 11 | ||
| 2025-12-08T23:35 | 1225 | 885 | 12.9 | 9.3 | ||
| 2025-12-08T23:35 | 1334 | 873 | 12.3 | 9.0 | ||
| 2025-12-08T23:36 | 1414 | 865 | 71 | 10 | ||
| 2025-12-08T23:36 | 1480 | 858 | 12.0 | 7.5 | ||
| 2025-12-08T23:37 | 1729 | 833 | 67 | 10 | ||
| 2025-12-08T23:37 | 1875 | 819 | 9.5 | 4.5 | ||
| 2025-12-08T23:37 | 2008 | 806 | 56 | 9 | ||
| 2025-12-08T23:38 | 2229 | 784 | 49 | 9 | ||
| 2025-12-08T23:38 | 2389 | 769 | 5.0 | 4.0 | ||
| 2025-12-08T23:38 | 2401 | 768 | 46 | 7 | ||
| 2025-12-08T23:39 | 2626 | 747 | 43 | 6 | ||
| 2025-12-08T23:39 | 2733 | 737 | 2.5 | 2.1 | ||
| 2025-12-08T23:40 | 2881 | 724 | 1.6 | 0.7 | ||
| 2025-12-08T23:40 | 2898 | 722 | 1.6 | -0.6 | 46 | 2 |
| 2025-12-08T23:40 | 2927 | 720 | 3.3 | -3.5 | ||
| 2025-12-08T23:40 | 2950 | 718 | 224 | 2 | ||
| 2025-12-08T23:40 | 3021 | 712 | 4.2 | -7.9 | ||
| 2025-12-08T23:40 | 3072 | 707 | 5.5 | -13.0 | ||
| 2025-12-08T23:41 | 3133 | 702 | 5.7 | -16.8 | ||
| 2025-12-08T23:41 | 3197 | 696 | 7.1 | -26.5 | ||
| 2025-12-08T23:41 | 3236 | 693 | 236 | 10 | ||
| 2025-12-08T23:41 | 3275 | 690 | 7.1 | -26.5 | ||
| 2025-12-08T23:41 | 3351 | 683 | 240 | 8 | ||
| 2025-12-08T23:42 | 3512 | 670 | 8.3 | -45.1 | ||
| 2025-12-08T23:42 | 3531 | 669 | 194 | 7 | ||
| 2025-12-08T23:43 | 3885 | 640 | 247 | 7 | ||
| 2025-12-08T23:43 | 3944 | 636 | 7.2 | -35.3 | ||
| 2025-12-08T23:44 | 4243 | 613 | 266 | 8 | ||
| 2025-12-08T23:45 | 4543 | 591 | 269 | 7 | ||
| 2025-12-08T23:45 | 4588 | 587 | 2.0 | -33.8 | ||
| 2025-12-08T23:46 | 4878 | 567 | 277 | 12 | ||
| 2025-12-08T23:46 | 4939 | 562 | -0.3 | -33.7 | ||
| 2025-12-08T23:47 | 5216 | 543 | 269 | 19 | ||
| 2025-12-08T23:48 | 5547 | 521 | 272 | 20 | ||
| 2025-12-08T23:49 | 5857 | 501 | -5.4 | -53.7 | ||
| 2025-12-08T23:49 | 5867 | 500 | 269 | 21 | ||
| 2025-12-08T23:49 | 6074 | 487 | -6.9 | -54.7 | ||
| 2025-12-08T23:50 | 6165 | 481 | 275 | 23 | ||
| 2025-12-08T23:50 | 6248 | 476 | -6.8 | -38.5 | ||
| 2025-12-08T23:51 | 6476 | 462 | 287 | 21 | ||
| 2025-12-08T23:51 | 6530 | 459 | -9.4 | -32.0 | ||
| 2025-12-08T23:52 | 6785 | 444 | 291 | 22 | ||
| 2025-12-08T23:52 | 6801 | 443 | -11.6 | -29.1 | ||
| 2025-12-08T23:52 | 7014 | 431 | 283 | 26 | ||
| 2025-12-08T23:53 | 7118 | 425 | -11.8 | -35.5 | ||
| 2025-12-08T23:53 | 7332 | 414 | 285 | 27 | ||
| 2025-12-08T23:54 | 7574 | 401 | -15.5 | -38.5 | ||
| 2025-12-08T23:54 | 7652 | 397 | 290 | 27 | ||
| 2025-12-08T23:54 | 7657 | 396 | -15.3 | -44.9 | ||
| 2025-12-08T23:55 | 7968 | 380 | 296 | 28 | ||
| 2025-12-08T23:56 | 8126 | 372 | -19.2 | -41.5 | ||
| 2025-12-08T23:56 | 8286 | 364 | 294 | 28 | ||
| 2025-12-08T23:57 | 8616 | 348 | 295 | 29 | ||
| 2025-12-08T23:58 | 8810 | 339 | -25.5 | -42.4 | ||
| 2025-12-08T23:58 | 8921 | 334 | 286 | 29 | ||
| 2025-12-08T23:59 | 9199 | 321 | -28.5 | -45.0 | ||
| 2025-12-08T23:59 | 9240 | 319 | 290 | 29 | ||
| 2025-12-09T00:00 | 9338 | 315 | -28.9 | -48.1 | ||
| 2025-12-09T00:00 | 9480 | 309 | -28.9 | -51.0 | ||
| 2025-12-09T00:00 | 9571 | 305 | 290 | 30 | ||
| 2025-12-09T00:01 | 9874 | 292 | 292 | 30 | ||
| 2025-12-09T00:02 | 10164 | 280 | 292 | 30 | ||
| 2025-12-09T00:03 | 10365 | 272 | -36.6 | -55.1 | ||
| 2025-12-09T00:03 | 10459 | 269 | 297 | 31 | ||
| 2025-12-09T00:04 | 10736 | 258 | -39.2 | -60.2 | ||
| 2025-12-09T00:04 | 10811 | 255 | 284 | 30 | ||
| 2025-12-09T00:04 | 10839 | 254 | -40.0 | -60.8 | ||
| 2025-12-09T00:05 | 11126 | 244 | 271 | 29 | ||
| 2025-12-09T00:06 | 11422 | 233 | 265 | 31 | ||
| 2025-12-09T00:07 | 11532 | 230 | -45.7 | |||
| 2025-12-09T00:07 | 11717 | 223 | 259 | 31 | ||
| 2025-12-09T00:08 | 12015 | 213 | 258 | 33 | ||
| 2025-12-09T00:09 | 12281 | 205 | 263 | 33 | ||
| 2025-12-09T00:10 | 12545 | 197 | 261 | 33 | ||
| 2025-12-09T00:11 | 12809 | 189 | 264 | 34 | ||
| 2025-12-09T00:12 | 12911 | 186 | -56.7 | |||
| 2025-12-09T00:12 | 13086 | 180 | 266 | 35 | ||
| 2025-12-09T00:13 | 13357 | 173 | 265 | 35 | ||
| 2025-12-09T00:14 | 13635 | 165 | 266 | 34 | ||
| 2025-12-09T00:15 | 13916 | 158 | 270 | 35 | ||
| 2025-12-09T00:16 | 14156 | 152 | -67.2 | |||
| 2025-12-09T00:16 | 14198 | 151 | 272 | 39 | ||
| 2025-12-09T00:17 | 14485 | 144 | 271 | 39 | ||
| 2025-12-09T00:18 | 14763 | 137 | 271 | 39 | ||
| 2025-12-09T00:19 | 15031 | 131 | 277 | 36 | ||
| 2025-12-09T00:20 | 15155 | 128 | -73.6 | |||
| 2025-12-09T00:20 | 15191 | 127 | 280 | 34 | ||
| 2025-12-09T00:21 | 15459 | 122 | 276 | 29 | ||
| 2025-12-09T00:21 | 15495 | 121 | -74.9 | |||
| 2025-12-09T00:22 | 15747 | 116 | 253 | 25 | ||
| 2025-12-09T00:22 | 15792 | 115 | -75.0 | |||
| 2025-12-09T00:23 | 16042 | 110 | 250 | 25 | ||
| 2025-12-09T00:24 | 16334 | 105 | 256 | 24 | ||
| 2025-12-09T00:24 | 16510 | 101 | -80.1 | |||
| 2025-12-09T00:25 | 16635 | 99 | 270 | 21 | ||
| 2025-12-09T00:26 | 16939 | 94 | 265 | 17 | ||
| 2025-12-09T00:27 | 17231 | 89 | 264 | 17 | ||
| 2025-12-09T00:27 | 17352 | 87 | -83.9 | |||
| 2025-12-09T00:28 | 17520 | 85 | 266 | 17 | ||
| 2025-12-09T00:28 | 17625 | 83 | -82.4 | |||
| 2025-12-09T00:29 | 17783 | 81 | 279 | 14 | ||
| 2025-12-09T00:29 | 17861 | 80 | -79.9 | |||
| 2025-12-09T00:30 | 18070 | 77 | 274 | 10 | ||
| 2025-12-09T00:30 | 18272 | 74 | 242 | 11 | ||
| 2025-12-09T00:31 | 18370 | 73 | -81.1 | |||
| 2025-12-09T00:31 | 18418 | 72 | 244 | 10 | ||
| 2025-12-09T00:31 | 18504 | 71 | -78.0 | |||
| 2025-12-09T00:32 | 18593 | 70 | 217 | 9 | ||
| 2025-12-09T00:32 | 18879 | 67 | 235 | 9 | ||
| 2025-12-09T00:33 | 19131 | 64 | 245 | 4 | ||
| 2025-12-09T00:34 | 19212 | 63 | -77.0 | |||
| 2025-12-09T00:34 | 19221 | 63 | 274 | 2 | ||
| 2025-12-09T00:34 | 19332 | 61 | -75.0 | |||
| 2025-12-09T00:34 | 19371 | 61 | 256 | 3 | ||
| 2025-12-09T00:34 | 19427 | 60 | -74.3 | |||
| 2025-12-09T00:35 | 19597 | 59 | -74.9 | |||
| 2025-12-09T00:35 | 19665 | 58 | 242 | 6 | ||
| 2025-12-09T00:35 | 19736 | 57 | -74.8 | |||
| 2025-12-09T00:35 | 19816 | 57 | -74.3 | 285 | 4 | |
| 2025-12-09T00:36 | 19898 | 56 | 306 | 2 | ||
| 2025-12-09T00:36 | 19984 | 55 | 197 | 3 | ||
| 2025-12-09T00:37 | 20150 | 53 | -69.6 | 233 | 2 | |
| 2025-12-09T00:37 | 20251 | 53 | 135 | 3 | ||
| 2025-12-09T00:37 | 20263 | 52 | -66.7 | |||
| 2025-12-09T00:37 | 20333 | 52 | -65.4 | |||
| 2025-12-09T00:37 | 20369 | 52 | 126 | 4 | ||
| 2025-12-09T00:38 | 20544 | 50 | 68 | 4 | ||
| 2025-12-09T00:38 | 20682 | 49 | 70 | 4 | ||
| 2025-12-09T00:38 | 20718 | 49 | -65.6 | |||
| 2025-12-09T00:39 | 20806 | 48 | 46 | 4 | ||
| 2025-12-09T00:39 | 20962 | 47 | 64 | 8 | ||
| 2025-12-09T00:39 | 21044 | 46 | -63.8 | |||
| 2025-12-09T00:40 | 21124 | 46 | 84 | 8 | ||
| 2025-12-09T00:41 | 21452 | 43 | 68 | 6 | ||
| 2025-12-09T00:41 | 21552 | 42 | 72 | 5 | ||
| 2025-12-09T00:41 | 21624 | 42 | -64.5 | |||
| 2025-12-09T00:41 | 21670 | 42 | 92 | 5 | ||
| 2025-12-09T00:42 | 21775 | 41 | 76 | 1 | ||
| 2025-12-09T00:42 | 21880 | 40 | 311 | 3 | ||
| 2025-12-09T00:42 | 21969 | 40 | 352 | 5 | ||
| 2025-12-09T00:43 | 22256 | 38 | 31 | 5 | ||
| 2025-12-09T00:44 | 22389 | 37 | 56 | 4 | ||
| 2025-12-09T00:44 | 22471 | 37 | 101 | 3 | ||
| 2025-12-09T00:44 | 22555 | 36 | -61.7 | |||
| 2025-12-09T00:44 | 22678 | 35 | 55 | 3 | ||
| 2025-12-09T00:45 | 22805 | 35 | 92 | 4 | ||
| 2025-12-09T00:45 | 22822 | 35 | -60.5 | |||
| 2025-12-09T00:46 | 23060 | 33 | 63 | 9 | ||
| 2025-12-09T00:47 | 23402 | 31 | 57 | 8 | ||
| 2025-12-09T00:47 | 23521 | 31 | -63.2 | |||
| 2025-12-09T00:48 | 23749 | 30 | 78 | 7 | ||
| 2025-12-09T00:48 | 23962 | 29 | 89 | 9 | ||
| 2025-12-09T00:49 | 24185 | 28 | -57.6 | |||
| 2025-12-09T00:49 | 24297 | 27 | 41 | 12 | ||
| 2025-12-09T00:50 | 24633 | 26 | 80 | 12 | ||
| 2025-12-09T00:50 | 24657 | 26 | -57.7 | |||
| 2025-12-09T00:51 | 24882 | 25 | 57 | 14 | ||
| 2025-12-09T00:52 | 25246 | 23 | 61 | 13 | ||
| 2025-12-09T00:52 | 25437 | 23 | 66 | 10 | ||
| 2025-12-09T00:53 | 25464 | 23 | -58.2 | |||
| 2025-12-09T00:53 | 25750 | 22 | 70 | 13 | ||
| 2025-12-09T00:53 | 25809 | 21 | -58.4 | |||
| 2025-12-09T00:54 | 26047 | 21 | 100 | 12 | ||
| 2025-12-09T00:54 | 26204 | 20 | 114 | 6 | ||
| 2025-12-09T00:55 | 26332 | 20 | 86 | 7 | ||
| 2025-12-09T00:55 | 26365 | 20 | -56.3 | |||
| 2025-12-09T00:56 | 26698 | 19 | 113 | 5 | ||
| 2025-12-09T00:56 | 26870 | 18 | 116 | 3 | ||
| 2025-12-09T00:57 | 27016 | 18 | 76 | 3 | ||
| 2025-12-09T00:57 | 27238 | 17 | 147 | 3 | ||
| 2025-12-09T00:58 | 27506 | 16 | 179 | 3 | ||
| 2025-12-09T00:59 | 27664 | 16 | 164 | 3 | ||
| 2025-12-09T00:59 | 27746 | 16 | -52.5 | |||
| 2025-12-09T00:59 | 27868 | 16 | 10 | 3 | ||
| 2025-12-09T01:00 | 27993 | 15 | 24 | 7 | ||
| 2025-12-09T01:00 | 28123 | 15 | 340 | 2 | ||
| 2025-12-09T01:01 | 28345 | 14 | 170 | 2 | ||
| 2025-12-09T01:01 | 28525 | 14 | 202 | 3 | ||
| 2025-12-09T01:01 | 28612 | 14 | -53.2 | 143 | 2 | |
| 2025-12-09T11:31 | 8 | 1019 | 23.5 | 17.5 | 80 | 6 |
| 2025-12-09T11:31 | 14 | 1019 | 23.6 | 17.6 | 76 | 1 |
| 2025-12-09T11:31 | 77 | 1011 | 78 | 8 | ||
| 2025-12-09T11:32 | 184 | 999 | 83 | 12 | ||
| 2025-12-09T11:32 | 233 | 993 | 21.9 | 16.4 | ||
| 2025-12-09T11:32 | 512 | 962 | 88 | 10 | ||
| 2025-12-09T11:33 | 804 | 930 | 16.7 | 13.6 | ||
| 2025-12-09T11:34 | 857 | 924 | 88 | 10 | ||
| 2025-12-09T11:35 | 1188 | 889 | 87 | 9 | ||
| 2025-12-09T11:35 | 1467 | 860 | 11.6 | 8.1 | ||
| 2025-12-09T11:36 | 1487 | 858 | 88 | 8 | ||
| 2025-12-09T11:36 | 1518 | 855 | 11.6 | 8.3 | ||
| 2025-12-09T11:36 | 1645 | 842 | 10.9 | 7.8 | ||
| 2025-12-09T11:37 | 1789 | 827 | 76 | 7 | ||
| 2025-12-09T11:37 | 1840 | 822 | 9.6 | 7.2 | ||
| 2025-12-09T11:37 | 2098 | 797 | 34 | 5 | ||
| 2025-12-09T11:38 | 2412 | 767 | 5.9 | 5.2 | ||
| 2025-12-09T11:39 | 2441 | 765 | 10 | 6 | ||
| 2025-12-09T11:39 | 2740 | 737 | 355 | 8 | ||
| 2025-12-09T11:39 | 2751 | 736 | 3.3 | 2.6 | ||
| 2025-12-09T11:40 | 2848 | 727 | 313 | 5 | ||
| 2025-12-09T11:40 | 2883 | 724 | 3.3 | 1.0 | ||
| 2025-12-09T11:40 | 2965 | 717 | 3.6 | -0.4 | ||
| 2025-12-09T11:40 | 3011 | 713 | 314 | 5 | ||
| 2025-12-09T11:40 | 3023 | 712 | 5.2 | -4.6 | ||
| 2025-12-09T11:40 | 3064 | 708 | 6.8 | -5.9 | ||
| 2025-12-09T11:40 | 3122 | 703 | 6.6 | -6.7 | ||
| 2025-12-09T11:41 | 3178 | 699 | 306 | 6 | ||
| 2025-12-09T11:41 | 3211 | 696 | 6.8 | -11.9 | ||
| 2025-12-09T11:41 | 3372 | 682 | 6.9 | -18.8 | ||
| 2025-12-09T11:41 | 3430 | 678 | 7.6 | -26.1 | ||
| 2025-12-09T11:42 | 3452 | 676 | 293 | 6 | ||
| 2025-12-09T11:42 | 3541 | 668 | 8.3 | -34.6 | ||
| 2025-12-09T11:42 | 3622 | 662 | 242 | 6 | ||
| 2025-12-09T11:42 | 3646 | 660 | 8.5 | -34.4 | ||
| 2025-12-09T11:43 | 3877 | 642 | 260 | 8 | ||
| 2025-12-09T11:43 | 3938 | 637 | 6.0 | -36.2 | ||
| 2025-12-09T11:43 | 3997 | 632 | 298 | 8 | ||
| 2025-12-09T11:44 | 4159 | 620 | 295 | 8 | ||
| 2025-12-09T11:44 | 4267 | 612 | 4.5 | -34.3 | ||
| 2025-12-09T11:45 | 4478 | 596 | 302 | 12 | ||
| 2025-12-09T11:45 | 4546 | 591 | 3.3 | -38.0 | ||
| 2025-12-09T11:45 | 4641 | 584 | 3.2 | -38.1 | ||
| 2025-12-09T11:46 | 4791 | 573 | 296 | 14 | ||
| 2025-12-09T11:46 | 4938 | 563 | 1.7 | -39.1 | ||
| 2025-12-09T11:46 | 5108 | 551 | 289 | 16 | ||
| 2025-12-09T11:47 | 5319 | 537 | 0.4 | -33.1 | ||
| 2025-12-09T11:47 | 5463 | 527 | 287 | 18 | ||
| 2025-12-09T11:48 | 5644 | 515 | -1.0 | -41.0 | ||
| 2025-12-09T11:48 | 5795 | 506 | 275 | 18 | ||
| 2025-12-09T11:49 | 5824 | 504 | -2.4 | -26.3 | ||
| 2025-12-09T11:49 | 6137 | 484 | 276 | 18 | ||
| 2025-12-09T11:50 | 6486 | 463 | 283 | 18 | ||
| 2025-12-09T11:51 | 6664 | 453 | -9.9 | -23.9 | ||
| 2025-12-09T11:51 | 6843 | 442 | 286 | 23 | ||
| 2025-12-09T11:52 | 6937 | 437 | -10.1 | -28.8 | ||
| 2025-12-09T11:52 | 7183 | 423 | 286 | 23 | ||
| 2025-12-09T11:53 | 7487 | 407 | -14.8 | -31.8 | ||
| 2025-12-09T11:53 | 7527 | 404 | 290 | 23 | ||
| 2025-12-09T11:54 | 7582 | 401 | -15.4 | -32.8 | ||
| 2025-12-09T11:54 | 7848 | 388 | 289 | 22 | ||
| 2025-12-09T11:55 | 8037 | 378 | -19.5 | -33.8 | ||
| 2025-12-09T11:55 | 8173 | 371 | -20.1 | -37.3 | ||
| 2025-12-09T11:55 | 8179 | 371 | 291 | 25 | ||
| 2025-12-09T11:56 | 8326 | 363 | -21.5 | -33.2 | ||
| 2025-12-09T11:56 | 8496 | 355 | 293 | 25 | ||
| 2025-12-09T11:57 | 8783 | 341 | 291 | 26 | ||
| 2025-12-09T11:58 | 9040 | 329 | -27.1 | -44.8 | ||
| 2025-12-09T11:58 | 9089 | 327 | 289 | 27 | ||
| 2025-12-09T11:59 | 9163 | 324 | -27.8 | -46.5 | ||
| 2025-12-09T11:59 | 9353 | 315 | 287 | 27 | ||
| 2025-12-09T12:00 | 9515 | 308 | -30.5 | -46.2 | ||
| 2025-12-09T12:00 | 9633 | 303 | 286 | 28 | ||
| 2025-12-09T12:01 | 9768 | 297 | -32.6 | -48.0 | ||
| 2025-12-09T12:01 | 9885 | 292 | -32.7 | -53.3 | ||
| 2025-12-09T12:01 | 9913 | 291 | 282 | 26 | ||
| 2025-12-09T12:02 | 10178 | 281 | 288 | 25 | ||
| 2025-12-09T12:03 | 10432 | 270 | 278 | 26 | ||
| 2025-12-09T12:04 | 10684 | 261 | -38.4 | -59.5 | ||
| 2025-12-09T12:04 | 10689 | 261 | 278 | 26 | ||
| 2025-12-09T12:05 | 10849 | 254 | -40.0 | -60.0 | ||
| 2025-12-09T12:05 | 10962 | 250 | 281 | 26 | ||
| 2025-12-09T12:06 | 11225 | 241 | 278 | 27 | ||
| 2025-12-09T12:07 | 11465 | 232 | -45.3 | |||
| 2025-12-09T12:07 | 11478 | 232 | 271 | 29 | ||
| 2025-12-09T12:08 | 11735 | 223 | 268 | 29 | ||
| 2025-12-09T12:09 | 11991 | 215 | -49.0 | |||
| 2025-12-09T12:09 | 12016 | 214 | 271 | 29 | ||
| 2025-12-09T12:10 | 12315 | 204 | 274 | 29 | ||
| 2025-12-09T12:11 | 12613 | 195 | 280 | 29 | ||
| 2025-12-09T12:12 | 12904 | 186 | 281 | 29 | ||
| 2025-12-09T12:13 | 13193 | 178 | 279 | 28 | ||
| 2025-12-09T12:14 | 13221 | 177 | -59.4 | |||
| 2025-12-09T12:14 | 13476 | 170 | 275 | 31 | ||
| 2025-12-09T12:15 | 13756 | 162 | 276 | 31 | ||
| 2025-12-09T12:16 | 13765 | 162 | -63.6 | |||
| 2025-12-09T12:16 | 14034 | 155 | 279 | 31 | ||
| 2025-12-09T12:17 | 14273 | 149 | 279 | 33 | ||
| 2025-12-09T12:18 | 14538 | 143 | 277 | 33 | ||
| 2025-12-09T12:19 | 14805 | 136 | 280 | 33 | ||
| 2025-12-09T12:20 | 15077 | 130 | 279 | 31 | ||
| 2025-12-09T12:21 | 15114 | 129 | -74.1 | |||
| 2025-12-09T12:21 | 15353 | 124 | 271 | 29 | ||
| 2025-12-09T12:22 | 15490 | 121 | -76.1 | |||
| 2025-12-09T12:22 | 15623 | 118 | 266 | 27 | ||
| 2025-12-09T12:23 | 15742 | 116 | -75.9 | |||
| 2025-12-09T12:23 | 15889 | 113 | 257 | 28 | ||
| 2025-12-09T12:24 | 16161 | 108 | 257 | 29 | ||
| 2025-12-09T12:25 | 16377 | 104 | -80.1 | |||
| 2025-12-09T12:25 | 16434 | 103 | 271 | 28 | ||
| 2025-12-09T12:26 | 16681 | 98 | 283 | 24 | ||
| 2025-12-09T12:26 | 16690 | 98 | -80.5 | |||
| 2025-12-09T12:27 | 16954 | 94 | 286 | 19 | ||
| 2025-12-09T12:28 | 17145 | 91 | -81.6 | |||
| 2025-12-09T12:28 | 17231 | 89 | 283 | 18 | ||
| 2025-12-09T12:29 | 17371 | 87 | -80.7 | |||
| 2025-12-09T12:29 | 17385 | 87 | 290 | 17 | ||
| 2025-12-09T12:29 | 17577 | 84 | -79.9 | 265 | 12 | |
| 2025-12-09T12:30 | 17742 | 81 | -79.5 | |||
| 2025-12-09T12:30 | 17784 | 81 | 280 | 11 | ||
| 2025-12-09T12:31 | 17988 | 78 | 267 | 6 | ||
| 2025-12-09T12:31 | 18025 | 77 | -80.1 | |||
| 2025-12-09T12:32 | 18197 | 75 | 264 | 8 | ||
| 2025-12-09T12:32 | 18249 | 74 | -80.6 | |||
| 2025-12-09T12:32 | 18420 | 72 | -78.2 | |||
| 2025-12-09T12:33 | 18483 | 71 | 291 | 12 | ||
| 2025-12-09T12:33 | 18678 | 69 | 307 | 9 | ||
| 2025-12-09T12:34 | 18809 | 67 | -79.8 | |||
| 2025-12-09T12:34 | 18862 | 67 | 330 | 6 | ||
| 2025-12-09T12:34 | 18938 | 66 | 281 | 4 | ||
| 2025-12-09T12:34 | 19009 | 65 | 206 | 5 | ||
| 2025-12-09T12:35 | 19054 | 65 | -75.7 | |||
| 2025-12-09T12:35 | 19156 | 64 | 191 | 10 | ||
| 2025-12-09T12:35 | 19207 | 63 | -75.8 | |||
| 2025-12-09T12:35 | 19286 | 62 | 218 | 6 | ||
| 2025-12-09T12:36 | 19352 | 61 | -72.7 | |||
| 2025-12-09T12:36 | 19436 | 61 | 268 | 5 | ||
| 2025-12-09T12:37 | 19683 | 58 | 318 | 1 | ||
| 2025-12-09T12:37 | 19782 | 57 | -74.1 | |||
| 2025-12-09T12:37 | 19835 | 57 | 237 | 3 | ||
| 2025-12-09T12:38 | 19983 | 55 | 356 | 1 | ||
| 2025-12-09T12:38 | 20025 | 55 | -67.8 | |||
| 2025-12-09T12:38 | 20139 | 54 | -66.7 | |||
| 2025-12-09T12:38 | 20196 | 53 | 141 | 2 | ||
| 2025-12-09T12:39 | 20487 | 51 | 112 | 3 | ||
| 2025-12-09T12:40 | 20534 | 50 | -66.1 | |||
| 2025-12-09T12:40 | 20582 | 50 | 100 | 3 | ||
| 2025-12-09T12:40 | 20643 | 49 | -64.8 | 23 | 3 | |
| 2025-12-09T23:31 | 8 | 1019 | 23.6 | 17.6 | 100 | 7 |
| 2025-12-09T23:31 | 12 | 1018 | 23.6 | 17.8 | 100 | 1 |
| 2025-12-09T23:31 | 28 | 1016 | 107 | 2 | ||
| 2025-12-09T23:31 | 51 | 1014 | 23.1 | 17.1 | 107 | 11 |
| 2025-12-09T23:32 | 220 | 994 | 96 | 11 | ||
| 2025-12-09T23:33 | 540 | 958 | 99 | 11 | ||
| 2025-12-09T23:34 | 919 | 917 | 108 | 11 | ||
| 2025-12-09T23:34 | 952 | 913 | 15.1 | 13.5 | ||
| 2025-12-09T23:34 | 1191 | 887 | 106 | 10 | ||
| 2025-12-09T23:35 | 1303 | 876 | 12.6 | 11.2 | ||
| 2025-12-09T23:35 | 1445 | 861 | 11.6 | 9.2 | ||
| 2025-12-09T23:35 | 1521 | 853 | 11.0 | 10.8 | ||
| 2025-12-09T23:35 | 1588 | 846 | 101 | 9 | ||
| 2025-12-09T23:36 | 1774 | 828 | 109 | 7 | ||
| 2025-12-09T23:36 | 1813 | 824 | 8.5 | 7.9 | ||
| 2025-12-09T23:36 | 1848 | 820 | 8.0 | 7.2 | ||
| 2025-12-09T23:36 | 1859 | 819 | 8.9 | 8.3 | ||
| 2025-12-09T23:36 | 1876 | 818 | 8.3 | 7.5 | ||
| 2025-12-09T23:36 | 1917 | 813 | 8.2 | 5.3 | ||
| 2025-12-09T23:36 | 1941 | 811 | 151 | 3 | ||
| 2025-12-09T23:37 | 1965 | 809 | 9.2 | 5.7 | ||
| 2025-12-09T23:37 | 2017 | 804 | 9.4 | 5.6 | ||
| 2025-12-09T23:37 | 2080 | 798 | 9.2 | 5.2 | ||
| 2025-12-09T23:37 | 2097 | 796 | 176 | 2 | ||
| 2025-12-09T23:37 | 2136 | 792 | 9.1 | 5.3 | ||
| 2025-12-09T23:37 | 2271 | 780 | 8.7 | 4.1 | ||
| 2025-12-09T23:38 | 2413 | 766 | 282 | 2 | ||
| 2025-12-09T23:39 | 2729 | 738 | 5.1 | 4.1 | 297 | 6 |
| 2025-12-09T23:39 | 2861 | 726 | 4.5 | 3.6 | ||
| 2025-12-09T23:39 | 2979 | 715 | 4.6 | 2.5 | ||
| 2025-12-09T23:40 | 3129 | 702 | 4.1 | 0.4 | ||
| 2025-12-09T23:40 | 3135 | 702 | 302 | 12 | ||
| 2025-12-09T23:40 | 3209 | 695 | 5.2 | -2.9 | ||
| 2025-12-09T23:40 | 3265 | 691 | 6.9 | -7.9 | ||
| 2025-12-09T23:40 | 3333 | 685 | 7.8 | -12.6 | ||
| 2025-12-09T23:40 | 3369 | 682 | 9.8 | -19.3 | ||
| 2025-12-09T23:40 | 3420 | 678 | 10.0 | -24.3 | ||
| 2025-12-09T23:41 | 3453 | 675 | 261 | 13 | ||
| 2025-12-09T23:41 | 3484 | 673 | 9.8 | -26.2 | ||
| 2025-12-09T23:41 | 3552 | 667 | 9.9 | -30.5 | ||
| 2025-12-09T23:41 | 3769 | 650 | 258 | 14 | ||
| 2025-12-09T23:42 | 4001 | 632 | 7.7 | -35.0 | ||
| 2025-12-09T23:43 | 4131 | 622 | 252 | 11 | ||
| 2025-12-09T23:43 | 4475 | 596 | 259 | 13 | ||
| 2025-12-09T23:44 | 4820 | 571 | 1.8 | -39.1 | ||
| 2025-12-09T23:45 | 4826 | 571 | 263 | 11 | ||
| 2025-12-09T23:45 | 5125 | 550 | -0.2 | -35.4 | ||
| 2025-12-09T23:45 | 5171 | 547 | 273 | 12 | ||
| 2025-12-09T23:46 | 5487 | 526 | -2.2 | -41.8 | ||
| 2025-12-09T23:46 | 5522 | 523 | 281 | 14 | ||
| 2025-12-09T23:47 | 5759 | 508 | -3.2 | -28.6 | ||
| 2025-12-09T23:47 | 5884 | 500 | 280 | 16 | ||
| 2025-12-09T23:48 | 6247 | 477 | 282 | 17 | ||
| 2025-12-09T23:49 | 6290 | 475 | -8.0 | -28.8 | ||
| 2025-12-09T23:49 | 6484 | 463 | -9.1 | -28.5 | ||
| 2025-12-09T23:50 | 6624 | 454 | 272 | 20 | ||
| 2025-12-09T23:50 | 6729 | 448 | -11.0 | -27.2 | ||
| 2025-12-09T23:50 | 6977 | 434 | -12.9 | -25.8 | ||
| 2025-12-09T23:50 | 6982 | 434 | 274 | 20 | ||
| 2025-12-09T23:52 | 7333 | 414 | 268 | 23 | ||
| 2025-12-09T23:52 | 7449 | 408 | -15.9 | -34.3 | ||
| 2025-12-09T23:53 | 7661 | 396 | 269 | 23 | ||
| 2025-12-09T23:53 | 7699 | 394 | -16.9 | -40.5 | ||
| 2025-12-09T23:53 | 7896 | 384 | -17.5 | -45.2 | ||
| 2025-12-09T23:53 | 7958 | 381 | 273 | 25 | ||
| 2025-12-09T23:54 | 8251 | 366 | 277 | 25 | ||
| 2025-12-09T23:55 | 8548 | 352 | 282 | 25 | ||
| 2025-12-09T23:56 | 8646 | 347 | -23.5 | -44.3 | ||
| 2025-12-09T23:56 | 8792 | 340 | -24.9 | -41.4 | ||
| 2025-12-09T23:57 | 8857 | 337 | 277 | 24 | ||
| 2025-12-09T23:57 | 9100 | 326 | -26.9 | -46.4 | ||
| 2025-12-09T23:57 | 9182 | 322 | 267 | 26 | ||
| 2025-12-09T23:59 | 9522 | 307 | 274 | 26 | ||
| 2025-12-09T23:59 | 9637 | 303 | -31.5 | -49.6 | ||
| 2025-12-09T23:59 | 9852 | 293 | 285 | 28 | ||
| 2025-12-10T00:00 | 10182 | 280 | 287 | 29 | ||
| 2025-12-10T00:02 | 10535 | 266 | 282 | 29 | ||
| 2025-12-10T00:02 | 10843 | 254 | -40.0 | -61.7 | ||
| 2025-12-10T00:02 | 10858 | 254 | 272 | 29 | ||
| 2025-12-10T00:03 | 11156 | 243 | 276 | 28 | ||
| 2025-12-10T00:05 | 11497 | 231 | 275 | 28 | ||
| 2025-12-10T00:06 | 11802 | 220 | 274 | 27 | ||
| 2025-12-10T00:07 | 12088 | 211 | 272 | 27 | ||
| 2025-12-10T00:07 | 12363 | 202 | -53.0 | |||
| 2025-12-10T00:07 | 12377 | 202 | 265 | 26 | ||
| 2025-12-10T00:09 | 12661 | 193 | 273 | 29 | ||
| 2025-12-10T00:09 | 12794 | 189 | -55.7 | |||
| 2025-12-10T00:09 | 12937 | 185 | 274 | 30 | ||
| 2025-12-10T00:10 | 13216 | 177 | 277 | 29 | ||
| 2025-12-10T00:11 | 13502 | 169 | 279 | 30 | ||
| 2025-12-10T00:12 | 13784 | 161 | 285 | 29 | ||
| 2025-12-10T00:13 | 14025 | 155 | -65.9 | |||
| 2025-12-10T00:14 | 14068 | 154 | 285 | 30 | ||
| 2025-12-10T00:14 | 14283 | 149 | -67.4 | |||
| 2025-12-10T00:14 | 14354 | 147 | 286 | 33 | ||
| 2025-12-10T00:15 | 14646 | 140 | 287 | 33 | ||
| 2025-12-10T00:16 | 14958 | 133 | 281 | 30 | ||
| 2025-12-10T00:17 | 15117 | 129 | -73.4 | |||
| 2025-12-10T00:18 | 15258 | 126 | 269 | 30 | ||
| 2025-12-10T00:19 | 15535 | 120 | -77.0 | 266 | 30 | |
| 2025-12-10T00:20 | 15799 | 115 | 261 | 31 | ||
| 2025-12-10T00:20 | 15995 | 111 | -79.3 | |||
| 2025-12-10T00:21 | 16070 | 109 | 273 | 30 | ||
| 2025-12-10T00:21 | 16180 | 107 | -79.3 | |||
| 2025-12-10T00:21 | 16315 | 105 | 282 | 26 | ||
| 2025-12-10T00:21 | 16331 | 104 | -79.5 | |||
| 2025-12-10T00:22 | 16433 | 103 | -78.6 | |||
| 2025-12-10T00:22 | 16593 | 100 | 293 | 18 | ||
| 2025-12-10T00:23 | 16849 | 95 | -81.5 | |||
| 2025-12-10T00:23 | 16872 | 95 | 277 | 17 | ||
| 2025-12-10T00:24 | 17166 | 90 | 262 | 16 | ||
| 2025-12-10T00:25 | 17372 | 87 | 260 | 12 | ||
| 2025-12-10T00:25 | 17481 | 85 | -80.8 | |||
| 2025-12-10T00:25 | 17541 | 84 | 224 | 14 | ||
| 2025-12-10T00:26 | 17909 | 79 | 218 | 13 | ||
| 2025-12-10T00:27 | 18022 | 77 | -83.9 | |||
| 2025-12-10T00:27 | 18161 | 75 | 246 | 8 | ||
| 2025-12-10T00:27 | 18257 | 74 | -81.6 | |||
| 2025-12-10T00:28 | 18418 | 72 | 239 | 13 | ||
| 2025-12-10T00:28 | 18433 | 72 | -80.1 | |||
| 2025-12-10T00:29 | 18585 | 70 | 236 | 6 | ||
| 2025-12-10T00:29 | 18687 | 69 | 228 | 7 | ||
| 2025-12-10T00:29 | 18769 | 68 | -77.2 | |||
| 2025-12-10T00:29 | 18846 | 67 | -76.4 | |||
| 2025-12-10T00:30 | 18871 | 67 | 252 | 7 | ||
| 2025-12-10T00:30 | 18996 | 65 | -76.2 | |||
| 2025-12-10T00:30 | 19091 | 64 | -75.1 | 281 | 7 | |
| 2025-12-10T00:31 | 19231 | 63 | 289 | 4 | ||
| 2025-12-10T00:32 | 19465 | 60 | -74.7 | |||
| 2025-12-10T00:32 | 19516 | 60 | 189 | 9 | ||
| 2025-12-10T00:32 | 19551 | 59 | -74.2 | |||
| 2025-12-10T00:32 | 19735 | 57 | -68.7 | |||
| 2025-12-10T00:32 | 19766 | 57 | 236 | 6 | ||
| 2025-12-10T00:33 | 19999 | 55 | -69.9 | |||
| 2025-12-10T00:33 | 20077 | 54 | 225 | 6 | ||
| 2025-12-10T00:34 | 20266 | 52 | 264 | 3 | ||
| 2025-12-10T00:34 | 20382 | 51 | -67.0 | |||
| 2025-12-10T00:35 | 20586 | 50 | 358 | 1 | ||
| 2025-12-10T00:35 | 20596 | 50 | -66.3 | |||
| 2025-12-10T00:36 | 20911 | 47 | 70 | 1 | ||
| 2025-12-10T00:36 | 20963 | 47 | -63.7 | |||
| 2025-12-10T00:37 | 21055 | 46 | 76 | 5 | ||
| 2025-12-10T00:37 | 21203 | 45 | 68 | 3 | ||
| 2025-12-10T00:38 | 21399 | 44 | 34 | 5 | ||
| 2025-12-10T00:38 | 21582 | 42 | -62.9 | |||
| 2025-12-10T00:38 | 21641 | 42 | 29 | 6 | ||
| 2025-12-10T00:39 | 21849 | 40 | 343 | 4 | ||
| 2025-12-10T00:40 | 22020 | 39 | 27 | 5 | ||
| 2025-12-10T00:40 | 22130 | 39 | 34 | 5 | ||
| 2025-12-10T00:40 | 22196 | 38 | -61.8 | |||
| 2025-12-10T00:40 | 22262 | 38 | 91 | 8 | ||
| 2025-12-10T00:41 | 22483 | 37 | 91 | 4 | ||
| 2025-12-10T00:42 | 22745 | 35 | 92 | 9 | ||
| 2025-12-10T00:42 | 22869 | 34 | 106 | 7 | ||
| 2025-12-10T00:43 | 23055 | 33 | -59.6 | |||
| 2025-12-10T00:43 | 23074 | 33 | 58 | 7 | ||
| 2025-12-10T00:44 | 23400 | 32 | -60.4 | |||
| 2025-12-10T00:44 | 23420 | 31 | 62 | 9 | ||
| 2025-12-10T00:45 | 23683 | 30 | 80 | 7 | ||
| 2025-12-10T00:45 | 23870 | 29 | 58 | 12 | ||
| 2025-12-10T00:46 | 24201 | 28 | 48 | 12 | ||
| 2025-12-10T00:47 | 24406 | 27 | -59.1 | |||
| 2025-12-10T00:47 | 24526 | 26 | 91 | 13 | ||
| 2025-12-10T00:48 | 24869 | 25 | 127 | 13 | ||
| 2025-12-10T00:48 | 25023 | 24 | 117 | 8 | ||
| 2025-12-10T00:49 | 25153 | 24 | 80 | 7 | ||
| 2025-12-10T00:49 | 25313 | 23 | 88 | 6 | ||
| 2025-12-10T00:50 | 25509 | 23 | -56.7 | 69 | 7 | |
| 2025-12-10T00:50 | 25682 | 22 | 58 | 3 | ||
| 2025-12-10T00:51 | 26006 | 21 | 46 | 3 | ||
| 2025-12-10T00:52 | 26187 | 20 | 44 | 6 | ||
| 2025-12-10T00:52 | 26377 | 20 | 85 | 4 | ||
| 2025-12-10T00:53 | 26540 | 19 | 70 | 3 | ||
| 2025-12-10T00:53 | 26640 | 19 | 360 | 3 | ||
| 2025-12-10T00:53 | 26709 | 19 | -58.6 | |||
| 2025-12-10T00:53 | 26741 | 19 | 110 | 4 | ||
| 2025-12-10T00:54 | 26843 | 18 | 127 | 8 | ||
| 2025-12-10T00:54 | 26914 | 18 | -56.8 | |||
| 2025-12-10T00:54 | 27022 | 18 | 100 | 4 | ||
| 2025-12-10T00:55 | 27277 | 17 | 350 | 4 | ||
| 2025-12-10T00:55 | 27464 | 17 | -57.2 | 314 | 4 | |
| 2025-12-10T00:56 | 27582 | 16 | 347 | 4 | ||
| 2025-12-10T00:56 | 27821 | 16 | 350 | 6 | ||
| 2025-12-10T00:57 | 27986 | 15 | 13 | 4 | ||
| 2025-12-10T00:57 | 28026 | 15 | -55.6 | |||
| 2025-12-10T00:58 | 28242 | 15 | -53.2 | |||
| 2025-12-10T00:58 | 28287 | 15 | 119 | 4 | ||
| 2025-12-10T00:58 | 28468 | 14 | 153 | 6 | ||
| 2025-12-10T00:59 | 28604 | 14 | 163 | 2 | ||
| 2025-12-10T00:59 | 28844 | 13 | 74 | 1 | ||
| 2025-12-10T00:59 | 28905 | 13 | -53.7 | 19 | 3 | |
| 2025-12-10T11:31 | 8 | 1017 | 24.3 | 18.3 | 130 | 6 |
| 2025-12-10T11:31 | 14 | 1016 | 24.3 | 18.5 | 0 | 0 |
| 2025-12-10T11:31 | 46 | 1013 | 119 | 4 | ||
| 2025-12-10T11:31 | 102 | 1006 | 135 | 8 | ||
| 2025-12-10T11:32 | 319 | 982 | 21.6 | 17.4 | ||
| 2025-12-10T11:32 | 442 | 968 | 133 | 10 | ||
| 2025-12-10T11:33 | 622 | 948 | 147 | 9 | ||
| 2025-12-10T11:34 | 952 | 912 | 139 | 9 | ||
| 2025-12-10T11:34 | 1030 | 904 | 15.1 | 14.3 | ||
| 2025-12-10T11:34 | 1118 | 895 | 14.6 | 12.6 | ||
| 2025-12-10T11:35 | 1245 | 881 | 153 | 6 | ||
| 2025-12-10T11:36 | 1567 | 848 | 159 | 7 | ||
| 2025-12-10T11:36 | 1703 | 834 | 10.6 | 9.0 | ||
| 2025-12-10T11:36 | 1785 | 826 | 168 | 8 | ||
| 2025-12-10T11:37 | 1878 | 817 | 10.0 | 6.5 | ||
| 2025-12-10T11:37 | 1926 | 812 | 10.7 | 3.0 | ||
| 2025-12-10T11:37 | 1937 | 811 | 170 | 9 | ||
| 2025-12-10T11:37 | 2031 | 802 | 10.5 | 2.3 | ||
| 2025-12-10T11:38 | 2178 | 788 | 9.7 | 3.4 | ||
| 2025-12-10T11:38 | 2261 | 781 | 213 | 6 | ||
| 2025-12-10T11:38 | 2351 | 772 | 244 | 6 | ||
| 2025-12-10T11:39 | 2589 | 750 | 250 | 8 | ||
| 2025-12-10T11:39 | 2631 | 746 | 6.0 | 5.1 | ||
| 2025-12-10T11:39 | 2811 | 730 | 264 | 10 | ||
| 2025-12-10T11:40 | 2874 | 724 | 4.9 | 3.4 | ||
| 2025-12-10T11:40 | 3011 | 712 | 3.9 | 2.7 | ||
| 2025-12-10T11:40 | 3068 | 707 | 4.3 | 1.2 | ||
| 2025-12-10T11:40 | 3115 | 703 | 297 | 10 | ||
| 2025-12-10T11:40 | 3131 | 702 | 5.5 | -2.1 | ||
| 2025-12-10T11:41 | 3186 | 697 | 5.8 | -4.6 | ||
| 2025-12-10T11:41 | 3234 | 693 | 6.8 | -10.9 | ||
| 2025-12-10T11:41 | 3283 | 689 | 273 | 10 | ||
| 2025-12-10T11:41 | 3304 | 687 | 7.4 | -16.1 | ||
| 2025-12-10T11:41 | 3373 | 682 | 8.8 | -31.3 | ||
| 2025-12-10T11:42 | 3492 | 672 | 275 | 15 | ||
| 2025-12-10T11:42 | 3629 | 661 | 270 | 14 | ||
| 2025-12-10T11:42 | 3703 | 655 | 7.4 | -35.2 | ||
| 2025-12-10T11:43 | 3821 | 645 | 268 | 14 | ||
| 2025-12-10T11:43 | 3858 | 642 | 7.0 | -35.5 | ||
| 2025-12-10T11:43 | 3954 | 635 | 270 | 16 | ||
| 2025-12-10T11:44 | 4244 | 613 | 6.7 | -46.1 | ||
| 2025-12-10T11:44 | 4283 | 610 | 274 | 15 | ||
| 2025-12-10T11:44 | 4438 | 599 | 5.6 | -40.4 | ||
| 2025-12-10T11:45 | 4624 | 585 | 262 | 13 | ||
| 2025-12-10T11:45 | 4654 | 583 | 4.2 | -47.7 | ||
| 2025-12-10T11:46 | 4982 | 560 | 270 | 13 | ||
| 2025-12-10T11:47 | 5266 | 541 | -0.3 | -44.3 | ||
| 2025-12-10T11:47 | 5339 | 536 | 269 | 13 | ||
| 2025-12-10T11:47 | 5441 | 529 | -1.7 | -29.4 | ||
| 2025-12-10T11:47 | 5515 | 524 | -1.6 | -34.6 | ||
| 2025-12-10T11:48 | 5682 | 513 | 258 | 15 | ||
| 2025-12-10T11:49 | 5873 | 501 | -4.2 | -28.6 | ||
| 2025-12-10T11:49 | 5975 | 494 | -4.5 | -29.7 | ||
| 2025-12-10T11:49 | 6001 | 493 | 271 | 21 | ||
| 2025-12-10T11:50 | 6310 | 473 | 270 | 20 | ||
| 2025-12-10T11:51 | 6591 | 457 | 271 | 21 | ||
| 2025-12-10T11:51 | 6669 | 452 | -10.3 | -30.7 | ||
| 2025-12-10T11:52 | 6798 | 444 | -9.9 | -36.9 | ||
| 2025-12-10T11:52 | 6901 | 439 | 259 | 23 | ||
| 2025-12-10T11:53 | 7210 | 421 | 257 | 24 | ||
| 2025-12-10T11:53 | 7326 | 415 | -14.3 | -38.4 | ||
| 2025-12-10T11:54 | 7508 | 405 | 265 | 26 | ||
| 2025-12-10T11:55 | 7793 | 390 | 270 | 27 | ||
| 2025-12-10T11:55 | 7906 | 384 | -18.6 | -44.8 | ||
| 2025-12-10T11:56 | 8064 | 376 | -19.5 | -45.5 | 271 | 26 |
| 2025-12-10T11:57 | 8256 | 366 | 267 | 23 | ||
| 2025-12-10T11:58 | 8512 | 354 | 266 | 24 | ||
| 2025-12-10T11:58 | 8643 | 347 | -23.2 | -50.9 | ||
| 2025-12-10T11:59 | 8768 | 342 | 262 | 25 | ||
| 2025-12-10T11:59 | 8937 | 334 | -25.1 | -52.4 | ||
| 2025-12-10T12:00 | 9032 | 330 | 257 | 25 | ||
| 2025-12-10T12:01 | 9308 | 317 | 258 | 25 | ||
| 2025-12-10T12:01 | 9508 | 308 | -30.0 | -52.8 | ||
| 2025-12-10T12:02 | 9574 | 305 | 264 | 26 | ||
| 2025-12-10T12:02 | 9701 | 300 | -31.0 | -55.7 | ||
| 2025-12-10T12:03 | 9841 | 294 | 266 | 27 | ||
| 2025-12-10T12:04 | 10098 | 284 | 266 | 26 | ||
| 2025-12-10T12:05 | 10350 | 273 | 260 | 27 | ||
| 2025-12-10T12:06 | 10569 | 265 | -38.2 | -58.5 | ||
| 2025-12-10T12:06 | 10598 | 264 | 264 | 27 | ||
| 2025-12-10T12:07 | 10843 | 255 | 265 | 27 | ||
| 2025-12-10T12:07 | 10890 | 253 | -40.0 | -59.2 | ||
| 2025-12-10T12:08 | 11098 | 245 | 264 | 28 | ||
| 2025-12-10T12:09 | 11364 | 236 | 259 | 29 | ||
| 2025-12-10T12:09 | 11404 | 234 | -44.0 | |||
| 2025-12-10T12:10 | 11638 | 226 | 265 | 29 | ||
| 2025-12-10T12:11 | 11909 | 217 | 270 | 27 | ||
| 2025-12-10T12:12 | 12187 | 208 | 274 | 27 | ||
| 2025-12-10T12:13 | 12428 | 201 | -53.3 | |||
| 2025-12-10T12:13 | 12459 | 200 | 273 | 27 | ||
| 2025-12-10T12:14 | 12730 | 191 | 267 | 27 | ||
| 2025-12-10T12:15 | 13036 | 182 | 271 | 27 | ||
| 2025-12-10T12:16 | 13336 | 174 | 276 | 27 | ||
| 2025-12-10T12:17 | 13621 | 166 | 277 | 29 | ||
| 2025-12-10T12:18 | 13872 | 159 | -65.5 | |||
| 2025-12-10T12:18 | 13906 | 158 | 277 | 29 | ||
| 2025-12-10T12:18 | 14111 | 153 | -66.9 | |||
| 2025-12-10T12:19 | 14184 | 151 | 276 | 30 | ||
| 2025-12-10T12:19 | 14332 | 148 | -67.5 | |||
| 2025-12-10T12:20 | 14437 | 145 | -67.5 | |||
| 2025-12-10T12:20 | 14450 | 145 | 282 | 31 | ||
| 2025-12-10T12:21 | 14713 | 138 | 282 | 30 | ||
| 2025-12-10T12:22 | 14978 | 132 | 278 | 28 | ||
| 2025-12-10T12:23 | 15245 | 127 | 274 | 29 | ||
| 2025-12-10T12:23 | 15308 | 125 | -74.9 | |||
| 2025-12-10T12:24 | 15526 | 121 | 264 | 29 | ||
| 2025-12-10T12:24 | 15615 | 119 | -77.0 | |||
| 2025-12-10T12:25 | 15813 | 115 | 260 | 30 | ||
| 2025-12-10T12:25 | 15962 | 112 | -79.1 | |||
| 2025-12-10T12:26 | 16083 | 109 | 270 | 30 | ||
| 2025-12-10T12:26 | 16225 | 107 | -78.6 | |||
| 2025-12-10T12:27 | 16349 | 104 | 263 | 23 | ||
| 2025-12-10T12:27 | 16404 | 103 | -77.8 | |||
| 2025-12-10T12:28 | 16583 | 100 | 257 | 21 | ||
| 2025-12-10T12:29 | 16834 | 96 | 267 | 20 | ||
| 2025-12-10T12:30 | 17113 | 91 | 262 | 17 | ||
| 2025-12-10T12:30 | 17149 | 91 | -80.3 | |||
| 2025-12-10T12:31 | 17402 | 87 | 263 | 15 | ||
| 2025-12-10T12:32 | 17685 | 82 | 260 | 17 | ||
| 2025-12-10T12:32 | 17767 | 81 | -84.6 | |||
| 2025-12-10T12:32 | 17885 | 79 | -83.1 | |||
| 2025-12-10T12:33 | 17963 | 78 | 275 | 16 | ||
| 2025-12-10T12:33 | 18012 | 78 | -82.5 | |||
| 2025-12-10T12:33 | 18072 | 77 | -80.9 | |||
| 2025-12-10T12:34 | 18243 | 75 | 255 | 18 | ||
| 2025-12-10T12:34 | 18373 | 73 | -80.6 | |||
| 2025-12-10T12:35 | 18485 | 71 | -77.9 | |||
| 2025-12-10T12:35 | 18494 | 71 | 262 | 15 | ||
| 2025-12-10T12:35 | 18665 | 69 | -75.6 | 260 | 17 | |
| 2025-12-10T12:36 | 18861 | 67 | 283 | 13 | ||
| 2025-12-10T12:37 | 19094 | 64 | 280 | 6 | ||
| 2025-12-10T12:37 | 19256 | 63 | 247 | 3 | ||
| 2025-12-10T12:38 | 19427 | 61 | -74.4 | |||
| 2025-12-10T12:38 | 19494 | 60 | 226 | 8 | ||
| 2025-12-10T12:38 | 19515 | 60 | -71.8 | |||
| 2025-12-10T12:39 | 19655 | 58 | 270 | 6 | ||
| 2025-12-10T12:39 | 19757 | 57 | 207 | 6 | ||
| 2025-12-10T12:39 | 19775 | 57 | -70.8 | |||
| 2025-12-10T12:39 | 19859 | 56 | 224 | 7 | ||
| 2025-12-10T12:39 | 19921 | 56 | -68.8 | |||
| 2025-12-10T12:39 | 19942 | 56 | 249 | 7 | ||
| 2025-12-10T12:40 | 20175 | 54 | -66.7 | |||
| 2025-12-10T12:40 | 20187 | 53 | 193 | 5 | ||
| 2025-12-10T12:40 | 20244 | 53 | -63.2 | |||
| 2025-12-10T12:42 | 20409 | 52 | 207 | 6 | ||
| 2025-12-10T12:42 | 20446 | 51 | 206 | 2 | ||
| 2025-12-10T12:42 | 20460 | 51 | -64.1 | 46 | 3 | |
| 2025-12-10T23:31 | 8 | 1018 | 20.2 | 18.9 | 310 | 6 |
| 2025-12-10T23:31 | 13 | 1017 | 20.7 | 19.0 | 304 | 1 |
| 2025-12-10T23:31 | 19 | 1016 | 21.1 | 19.6 | ||
| 2025-12-10T23:31 | 43 | 1014 | 19.6 | 18.6 | ||
| 2025-12-10T23:31 | 49 | 1013 | 335 | 3 | ||
| 2025-12-10T23:31 | 89 | 1008 | 310 | 9 | ||
| 2025-12-10T23:32 | 166 | 999 | 313 | 6 | ||
| 2025-12-10T23:32 | 229 | 992 | 18.3 | 17.3 | ||
| 2025-12-10T23:32 | 250 | 990 | 329 | 9 | ||
| 2025-12-10T23:33 | 440 | 968 | 331 | 10 | ||
| 2025-12-10T23:33 | 456 | 966 | 16.7 | 16.4 | ||
| 2025-12-10T23:33 | 535 | 957 | 310 | 11 | ||
| 2025-12-10T23:34 | 688 | 940 | 300 | 9 | ||
| 2025-12-10T23:34 | 768 | 931 | 298 | 9 | ||
| 2025-12-10T23:35 | 823 | 925 | 310 | 5 | ||
| 2025-12-10T23:35 | 872 | 920 | 287 | 6 | ||
| 2025-12-10T23:35 | 942 | 913 | 319 | 5 | ||
| 2025-12-10T23:35 | 971 | 909 | 292 | 2 | ||
| 2025-12-10T23:35 | 1005 | 906 | 14.4 | 14.2 | 239 | 3 |
| 2025-12-10T23:36 | 1084 | 897 | 280 | 6 | ||
| 2025-12-10T23:36 | 1172 | 888 | 248 | 3 | ||
| 2025-12-10T23:36 | 1227 | 882 | 306 | 4 | ||
| 2025-12-10T23:37 | 1314 | 873 | 271 | 6 | ||
| 2025-12-10T23:37 | 1375 | 867 | 308 | 5 | ||
| 2025-12-10T23:37 | 1443 | 860 | 266 | 3 | ||
| 2025-12-10T23:37 | 1493 | 855 | 268 | 4 | ||
| 2025-12-10T23:37 | 1553 | 849 | 248 | 5 | ||
| 2025-12-10T23:38 | 1627 | 841 | 284 | 1 | ||
| 2025-12-10T23:38 | 1724 | 831 | 257 | 3 | ||
| 2025-12-10T23:39 | 1916 | 813 | 245 | 3 | ||
| 2025-12-10T23:39 | 1995 | 805 | 242 | 4 | ||
| 2025-12-10T23:39 | 2046 | 800 | 214 | 3 | ||
| 2025-12-10T23:40 | 2122 | 793 | 261 | 3 | ||
| 2025-12-10T23:40 | 2206 | 785 | 235 | 3 | ||
| 2025-12-10T23:40 | 2324 | 774 | 8.3 | 8.3 | 254 | 3 |
| 2025-12-10T23:41 | 2440 | 763 | 267 | 4 | ||
| 2025-12-10T23:42 | 2751 | 735 | 275 | 3 | ||
| 2025-12-10T23:43 | 3050 | 708 | 5.0 | 5.0 | ||
| 2025-12-10T23:43 | 3055 | 708 | 266 | 8 | ||
| 2025-12-10T23:43 | 3181 | 697 | 4.3 | 3.9 | ||
| 2025-12-10T23:43 | 3191 | 696 | 273 | 7 | ||
| 2025-12-10T23:43 | 3229 | 693 | 3.8 | -1.6 | ||
| 2025-12-10T23:44 | 3291 | 688 | 3.2 | -6.8 | ||
| 2025-12-10T23:44 | 3301 | 687 | 295 | 9 | ||
| 2025-12-10T23:44 | 3504 | 669 | 1.2 | -13.3 | 291 | 13 |
| 2025-12-10T23:45 | 3625 | 659 | 0.3 | -14.9 | ||
| 2025-12-10T23:45 | 3726 | 651 | 0.1 | -16.7 | ||
| 2025-12-10T23:45 | 3810 | 644 | 0.6 | -19.8 | ||
| 2025-12-10T23:45 | 3858 | 641 | 282 | 16 | ||
| 2025-12-10T23:46 | 3937 | 634 | 1.0 | -20.1 | ||
| 2025-12-10T23:46 | 4027 | 627 | 1.5 | -21.0 | ||
| 2025-12-10T23:46 | 4063 | 624 | 2.7 | -21.4 | ||
| 2025-12-10T23:46 | 4112 | 621 | 6.2 | -22.1 | ||
| 2025-12-10T23:46 | 4143 | 618 | 6.6 | -21.8 | ||
| 2025-12-10T23:46 | 4220 | 613 | 285 | 17 | ||
| 2025-12-10T23:47 | 4565 | 587 | 275 | 15 | ||
| 2025-12-10T23:48 | 4721 | 576 | 3.2 | -26.7 | ||
| 2025-12-10T23:48 | 4926 | 562 | 273 | 16 | ||
| 2025-12-10T23:49 | 5065 | 552 | 268 | 16 | ||
| 2025-12-10T23:49 | 5224 | 541 | -0.7 | -31.0 | ||
| 2025-12-10T23:50 | 5385 | 530 | 278 | 16 | ||
| 2025-12-10T23:50 | 5459 | 525 | -2.7 | -32.5 | ||
| 2025-12-10T23:51 | 5682 | 511 | -3.9 | -34.8 | ||
| 2025-12-10T23:51 | 5703 | 509 | 260 | 18 | ||
| 2025-12-10T23:52 | 6025 | 489 | 249 | 18 | ||
| 2025-12-10T23:52 | 6099 | 484 | -7.1 | -28.7 | ||
| 2025-12-10T23:53 | 6355 | 468 | -9.2 | -29.2 | ||
| 2025-12-10T23:53 | 6366 | 468 | 259 | 19 | ||
| 2025-12-10T23:54 | 6703 | 448 | 256 | 22 | ||
| 2025-12-10T23:54 | 6714 | 447 | -10.9 | -35.7 | ||
| 2025-12-10T23:55 | 7057 | 427 | 258 | 20 | ||
| 2025-12-10T23:55 | 7133 | 423 | -13.9 | -35.0 | ||
| 2025-12-10T23:56 | 7394 | 409 | 262 | 22 | ||
| 2025-12-10T23:56 | 7617 | 397 | 264 | 22 | ||
| 2025-12-10T23:57 | 7708 | 392 | -17.3 | -42.7 | ||
| 2025-12-10T23:57 | 7946 | 380 | 260 | 24 | ||
| 2025-12-10T23:58 | 8088 | 372 | -20.5 | -37.7 | ||
| 2025-12-10T23:58 | 8303 | 362 | 265 | 25 | ||
| 2025-12-10T23:59 | 8385 | 358 | -22.5 | -41.5 | ||
| 2025-12-10T23:59 | 8521 | 351 | -22.5 | -46.8 | ||
| 2025-12-10T23:59 | 8674 | 344 | 256 | 25 | ||
| 2025-12-11T00:00 | 8890 | 334 | -24.7 | -46.8 | ||
| 2025-12-11T00:00 | 9061 | 326 | 261 | 26 | ||
| 2025-12-11T00:01 | 9171 | 321 | -26.3 | -48.1 | ||
| 2025-12-11T00:01 | 9235 | 318 | -27.0 | -45.3 | ||
| 2025-12-11T00:01 | 9279 | 316 | -27.5 | -46.9 | ||
| 2025-12-11T00:01 | 9419 | 310 | -28.7 | -47.9 | ||
| 2025-12-11T00:01 | 9437 | 309 | 263 | 26 | ||
| 2025-12-11T00:02 | 9621 | 302 | -30.4 | -47.1 | ||
| 2025-12-11T00:02 | 9709 | 298 | -30.5 | -48.8 | ||
| 2025-12-11T00:02 | 9792 | 294 | 258 | 27 | ||
| 2025-12-11T00:02 | 9822 | 293 | -31.4 | -44.6 | ||
| 2025-12-11T00:03 | 10151 | 280 | 266 | 27 | ||
| 2025-12-11T00:04 | 10330 | 273 | -35.7 | -46.5 | ||
| 2025-12-11T00:04 | 10420 | 269 | 258 | 26 | ||
| 2025-12-11T00:05 | 10667 | 260 | 254 | 26 | ||
| 2025-12-11T00:05 | 10671 | 260 | -38.2 | -49.1 | ||
| 2025-12-11T00:06 | 10924 | 250 | -40.0 | -54.0 | ||
| 2025-12-11T00:06 | 10930 | 250 | -40.0 | -54.0 | ||
| 2025-12-11T00:06 | 10982 | 248 | 266 | 27 | ||
| 2025-12-11T00:08 | 11296 | 237 | 263 | 27 | ||
| 2025-12-11T00:08 | 11555 | 228 | 264 | 26 | ||
| 2025-12-11T00:09 | 11804 | 220 | 264 | 26 | ||
| 2025-12-11T00:10 | 11931 | 215 | -48.3 | |||
| 2025-12-11T00:10 | 12058 | 211 | 263 | 26 | ||
| 2025-12-11T00:11 | 12324 | 203 | 258 | 27 | ||
| 2025-12-11T00:12 | 12611 | 194 | 253 | 29 | ||
| 2025-12-11T00:13 | 12877 | 186 | 250 | 30 | ||
| 2025-12-11T00:14 | 13147 | 178 | 249 | 29 | ||
| 2025-12-11T00:15 | 13282 | 174 | -60.6 | |||
| 2025-12-11T00:15 | 13416 | 171 | 250 | 29 | ||
| 2025-12-11T00:16 | 13676 | 163 | 256 | 30 | ||
| 2025-12-11T00:17 | 13931 | 157 | 259 | 30 | ||
| 2025-12-11T00:18 | 14079 | 153 | -66.9 | |||
| 2025-12-11T00:18 | 14187 | 150 | 253 | 31 | ||
| 2025-12-11T00:19 | 14447 | 144 | 259 | 31 | ||
| 2025-12-11T00:20 | 14715 | 137 | 260 | 30 | ||
| 2025-12-11T00:21 | 15000 | 131 | 255 | 30 | ||
| 2025-12-11T00:22 | 15291 | 125 | -75.4 | |||
| 2025-12-11T00:22 | 15301 | 124 | 263 | 30 | ||
| 2025-12-11T00:23 | 15580 | 118 | 270 | 28 | ||
| 2025-12-11T00:24 | 15838 | 113 | 268 | 27 | ||
| 2025-12-11T00:25 | 15903 | 112 | -79.7 | |||
| 2025-12-11T00:25 | 16097 | 108 | 268 | 29 | ||
| 2025-12-11T00:26 | 16350 | 103 | 280 | 25 | ||
| 2025-12-11T00:26 | 16380 | 103 | -80.5 | |||
| 2025-12-11T00:27 | 16605 | 99 | -80.5 | |||
| 2025-12-11T00:27 | 16616 | 99 | 271 | 25 | ||
| 2025-12-11T00:28 | 16731 | 97 | -78.8 | |||
| 2025-12-11T00:28 | 16891 | 94 | 273 | 20 | ||
| 2025-12-11T00:29 | 17143 | 90 | -81.1 | |||
| 2025-12-11T00:29 | 17168 | 89 | 258 | 18 | ||
| 2025-12-11T00:30 | 17400 | 86 | 243 | 17 | ||
| 2025-12-11T00:31 | 17524 | 84 | -80.9 | |||
| 2025-12-11T00:31 | 17682 | 82 | 279 | 15 | ||
| 2025-12-11T00:31 | 17729 | 81 | -81.1 | |||
| 2025-12-11T00:32 | 17907 | 78 | -81.1 | |||
| 2025-12-11T00:32 | 17950 | 78 | 261 | 12 | ||
| 2025-12-11T00:33 | 18245 | 74 | 238 | 13 | ||
| 2025-12-11T00:34 | 18347 | 73 | -83.1 | |||
| 2025-12-11T00:34 | 18518 | 70 | -79.9 | |||
| 2025-12-11T00:34 | 18540 | 70 | 243 | 14 | ||
| 2025-12-11T00:35 | 18751 | 68 | 267 | 9 | ||
| 2025-12-11T00:35 | 18778 | 67 | -75.8 | |||
| 2025-12-11T00:36 | 18951 | 65 | 237 | 12 | ||
| 2025-12-11T00:36 | 18961 | 65 | -73.8 | |||
| 2025-12-11T00:36 | 19170 | 63 | -72.3 | |||
| 2025-12-11T00:36 | 19211 | 62 | 222 | 16 | ||
| 2025-12-11T00:37 | 19519 | 59 | 262 | 10 | ||
| 2025-12-11T00:38 | 19659 | 58 | 260 | 6 | ||
| 2025-12-11T00:38 | 19693 | 58 | -72.3 | |||
| 2025-12-11T00:38 | 19774 | 57 | 234 | 9 | ||
| 2025-12-11T00:39 | 19964 | 55 | 255 | 7 | ||
| 2025-12-11T00:39 | 20083 | 54 | 268 | 3 | ||
| 2025-12-11T00:40 | 20152 | 53 | -68.9 | |||
| 2025-12-11T00:40 | 20185 | 53 | 282 | 7 | ||
| 2025-12-11T00:40 | 20368 | 51 | -69.7 | |||
| 2025-12-11T00:40 | 20416 | 51 | 271 | 11 | ||
| 2025-12-11T00:41 | 20438 | 51 | -69.3 | |||
| 2025-12-11T00:41 | 20533 | 50 | -67.6 | |||
| 2025-12-11T00:41 | 20593 | 49 | 305 | 11 | ||
| 2025-12-11T00:42 | 20890 | 47 | -68.1 | 326 | 4 | |
| 2025-12-11T00:42 | 20984 | 46 | 285 | 5 | ||
| 2025-12-11T00:43 | 21089 | 46 | -64.0 | |||
| 2025-12-11T00:43 | 21157 | 45 | 321 | 7 | ||
| 2025-12-11T00:43 | 21308 | 44 | 306 | 6 | ||
| 2025-12-11T00:44 | 21524 | 42 | 342 | 1 | ||
| 2025-12-11T00:45 | 21838 | 40 | 257 | 2 | ||
| 2025-12-11T00:45 | 21853 | 40 | -60.9 | |||
| 2025-12-11T00:45 | 21895 | 40 | -61.0 | 243 | 3 | |
| 2025-12-11T11:31 | 8 | 1017 | 22.5 | 17.0 | 20 | 5 |
| 2025-12-11T11:31 | 13 | 1017 | 22.6 | 17.3 | 23 | 1 |
| 2025-12-11T11:31 | 36 | 1014 | 344 | 2 | ||
| 2025-12-11T11:31 | 75 | 1010 | 358 | 6 | ||
| 2025-12-11T11:32 | 208 | 994 | 10 | 9 | ||
| 2025-12-11T11:32 | 375 | 975 | 19.9 | 15.8 | ||
| 2025-12-11T11:33 | 580 | 952 | 12 | 12 | ||
| 2025-12-11T11:33 | 859 | 922 | 15.7 | 13.2 | ||
| 2025-12-11T11:33 | 876 | 920 | 12 | 12 | ||
| 2025-12-11T11:34 | 1027 | 904 | 15.2 | 10.0 | ||
| 2025-12-11T11:34 | 1033 | 903 | 12 | 9 | ||
| 2025-12-11T11:34 | 1088 | 897 | 15.7 | 8.2 | ||
| 2025-12-11T11:35 | 1239 | 881 | 14.8 | 6.9 | ||
| 2025-12-11T11:35 | 1295 | 876 | 327 | 7 | ||
| 2025-12-11T11:35 | 1450 | 860 | 13.5 | 6.8 | ||
| 2025-12-11T11:35 | 1506 | 854 | 311 | 7 | ||
| 2025-12-11T11:36 | 1611 | 843 | 12.8 | 8.7 | ||
| 2025-12-11T11:36 | 1716 | 833 | 311 | 1 | ||
| 2025-12-11T11:37 | 1998 | 805 | 9.9 | 6.6 | ||
| 2025-12-11T11:37 | 2061 | 799 | 289 | 2 | ||
| 2025-12-11T11:38 | 2350 | 772 | 7.6 | 4.0 | ||
| 2025-12-11T11:38 | 2415 | 766 | 211 | 3 | ||
| 2025-12-11T11:38 | 2508 | 757 | 6.3 | 3.8 | ||
| 2025-12-11T11:39 | 2624 | 747 | 211 | 4 | ||
| 2025-12-11T11:39 | 2694 | 740 | 5.0 | 1.8 | ||
| 2025-12-11T11:39 | 2789 | 732 | 187 | 7 | ||
| 2025-12-11T11:39 | 2795 | 731 | 5.6 | -3.5 | ||
| 2025-12-11T11:39 | 2862 | 725 | 234 | 5 | ||
| 2025-12-11T11:39 | 2874 | 724 | 6.7 | -7.3 | ||
| 2025-12-11T11:39 | 2922 | 720 | 10.1 | -22.8 | 275 | 6 |
| 2025-12-11T11:40 | 2977 | 715 | 11.1 | -25.2 | ||
| 2025-12-11T11:40 | 3164 | 699 | 281 | 8 | ||
| 2025-12-11T11:41 | 3365 | 682 | 8.6 | -23.9 | ||
| 2025-12-11T11:41 | 3508 | 671 | 274 | 10 | ||
| 2025-12-11T11:41 | 3549 | 667 | 7.2 | -20.4 | ||
| 2025-12-11T11:41 | 3642 | 660 | 7.0 | -21.5 | ||
| 2025-12-11T11:42 | 3736 | 652 | 6.1 | -14.6 | ||
| 2025-12-11T11:42 | 3785 | 649 | 280 | 10 | ||
| 2025-12-11T11:42 | 3979 | 633 | 4.8 | -26.8 | ||
| 2025-12-11T11:43 | 4101 | 624 | 4.3 | -28.6 | ||
| 2025-12-11T11:43 | 4159 | 619 | 284 | 13 | ||
| 2025-12-11T11:43 | 4269 | 611 | 4.6 | -30.0 | ||
| 2025-12-11T11:44 | 4481 | 595 | 3.6 | -32.7 | ||
| 2025-12-11T11:44 | 4502 | 594 | 285 | 15 | ||
| 2025-12-11T11:45 | 4749 | 576 | 1.8 | -29.1 | ||
| 2025-12-11T11:45 | 4829 | 570 | 273 | 15 | ||
| 2025-12-11T11:45 | 4979 | 560 | 0.4 | -33.1 | ||
| 2025-12-11T11:46 | 5169 | 546 | 268 | 15 | ||
| 2025-12-11T11:46 | 5254 | 541 | -1.4 | -31.5 | ||
| 2025-12-11T11:47 | 5482 | 525 | 261 | 13 | ||
| 2025-12-11T11:47 | 5531 | 522 | -2.4 | -35.2 | ||
| 2025-12-11T11:48 | 5778 | 506 | 271 | 14 | ||
| 2025-12-11T11:49 | 6106 | 485 | 281 | 15 | ||
| 2025-12-11T11:50 | 6403 | 467 | 284 | 17 | ||
| 2025-12-11T11:50 | 6551 | 458 | -10.6 | -41.4 | ||
| 2025-12-11T11:51 | 6689 | 450 | 279 | 16 | ||
| 2025-12-11T11:52 | 6900 | 438 | -13.1 | -36.6 | ||
| 2025-12-11T11:52 | 6957 | 435 | -13.3 | -26.2 | ||
| 2025-12-11T11:52 | 6966 | 434 | 286 | 16 | ||
| 2025-12-11T11:52 | 7043 | 430 | -14.1 | -24.8 | ||
| 2025-12-11T11:52 | 7086 | 427 | -14.3 | -29.2 | ||
| 2025-12-11T11:52 | 7124 | 425 | -14.4 | -40.4 | ||
| 2025-12-11T11:53 | 7242 | 419 | -15.0 | -48.4 | ||
| 2025-12-11T11:53 | 7251 | 418 | 275 | 17 | ||
| 2025-12-11T11:53 | 7282 | 416 | -15.3 | -39.2 | ||
| 2025-12-11T11:53 | 7326 | 414 | -15.4 | -46.7 | ||
| 2025-12-11T11:53 | 7388 | 411 | -15.9 | -34.3 | ||
| 2025-12-11T11:53 | 7421 | 409 | -16.1 | -24.8 | ||
| 2025-12-11T11:54 | 7500 | 405 | 268 | 17 | ||
| 2025-12-11T11:54 | 7660 | 396 | -17.5 | -27.1 | ||
| 2025-12-11T11:55 | 7760 | 391 | 271 | 19 | ||
| 2025-12-11T11:55 | 7784 | 389 | -17.6 | -29.7 | ||
| 2025-12-11T11:55 | 7934 | 382 | -18.8 | -25.6 | ||
| 2025-12-11T11:56 | 8043 | 376 | 272 | 20 | ||
| 2025-12-11T11:56 | 8119 | 372 | -20.4 | -25.8 | ||
| 2025-12-11T11:57 | 8313 | 363 | 263 | 21 | ||
| 2025-12-11T11:58 | 8553 | 351 | -23.0 | -36.2 | ||
| 2025-12-11T11:58 | 8599 | 349 | 259 | 23 | ||
| 2025-12-11T11:58 | 8761 | 341 | -24.1 | -42.3 | ||
| 2025-12-11T11:59 | 8866 | 336 | 255 | 23 | ||
| 2025-12-11T12:00 | 9114 | 325 | -27.0 | -37.3 | ||
| 2025-12-11T12:00 | 9122 | 325 | 255 | 23 | ||
| 2025-12-11T12:00 | 9267 | 318 | -27.3 | -41.4 | ||
| 2025-12-11T12:01 | 9356 | 314 | -27.7 | -43.4 | ||
| 2025-12-11T12:01 | 9378 | 313 | 252 | 27 | ||
| 2025-12-11T12:02 | 9636 | 302 | 251 | 28 | ||
| 2025-12-11T12:02 | 9720 | 299 | -30.8 | -45.6 | ||
| 2025-12-11T12:03 | 9830 | 294 | -31.2 | -50.6 | ||
| 2025-12-11T12:03 | 9881 | 292 | 252 | 28 | ||
| 2025-12-11T12:04 | 10165 | 280 | 251 | 28 | ||
| 2025-12-11T12:05 | 10489 | 268 | 254 | 26 | ||
| 2025-12-11T12:06 | 10793 | 256 | 250 | 27 | ||
| 2025-12-11T12:06 | 10851 | 254 | -40.0 | -52.5 | ||
| 2025-12-11T12:07 | 11076 | 246 | 248 | 28 | ||
| 2025-12-11T12:08 | 11358 | 236 | 246 | 30 | ||
| 2025-12-11T12:09 | 11635 | 226 | 248 | 31 | ||
| 2025-12-11T12:09 | 11754 | 222 | -47.1 | |||
| 2025-12-11T12:10 | 11901 | 217 | 251 | 31 | ||
| 2025-12-11T12:11 | 12192 | 208 | 246 | 32 | ||
| 2025-12-11T12:12 | 12461 | 199 | 247 | 30 | ||
| 2025-12-11T12:13 | 12719 | 191 | 247 | 32 | ||
| 2025-12-11T12:14 | 13002 | 183 | 239 | 33 | ||
| 2025-12-11T12:14 | 13102 | 180 | -58.5 | |||
| 2025-12-11T12:15 | 13223 | 177 | 241 | 35 | ||
| 2025-12-11T12:15 | 13329 | 174 | 247 | 32 | ||
| 2025-12-11T12:16 | 13681 | 164 | -62.5 | |||
| 2025-12-11T12:16 | 13734 | 163 | 250 | 34 | ||
| 2025-12-11T12:17 | 13879 | 159 | 262 | 34 | ||
| 2025-12-11T12:17 | 14135 | 152 | 261 | 33 | ||
| 2025-12-11T12:18 | 14430 | 145 | 271 | 31 | ||
| 2025-12-11T12:19 | 14738 | 138 | 277 | 31 | ||
| 2025-12-11T12:20 | 14764 | 137 | -71.1 | |||
| 2025-12-11T12:21 | 15043 | 131 | 275 | 31 | ||
| 2025-12-11T12:22 | 15334 | 124 | 273 | 30 | ||
| 2025-12-11T12:22 | 15532 | 120 | -77.6 | |||
| 2025-12-11T12:22 | 15623 | 118 | 273 | 28 | ||
| 2025-12-11T12:23 | 15913 | 112 | 267 | 28 | ||
| 2025-12-11T12:24 | 16063 | 110 | -80.8 | |||
| 2025-12-11T12:24 | 16186 | 107 | -81.4 | |||
| 2025-12-11T12:25 | 16195 | 107 | 262 | 27 | ||
| 2025-12-11T12:25 | 16313 | 105 | -79.9 | |||
| 2025-12-11T12:25 | 16416 | 103 | -79.9 | |||
| 2025-12-11T12:25 | 16423 | 103 | 269 | 23 | ||
| 2025-12-11T12:26 | 16539 | 101 | -79.0 | |||
| 2025-12-11T12:26 | 16704 | 98 | 266 | 22 | ||
| 2025-12-11T12:27 | 16986 | 93 | 258 | 19 | ||
| 2025-12-11T12:28 | 17270 | 88 | 246 | 18 | ||
| 2025-12-11T12:29 | 17315 | 88 | -83.6 | |||
| 2025-12-11T12:29 | 17549 | 84 | 258 | 20 | ||
| 2025-12-11T12:30 | 17614 | 83 | -82.2 | |||
| 2025-12-11T12:30 | 17705 | 82 | 264 | 16 | ||
| 2025-12-11T12:30 | 17781 | 81 | -80.0 | |||
| 2025-12-11T12:31 | 17980 | 78 | 285 | 14 | ||
| 2025-12-11T12:32 | 18158 | 75 | -79.7 | |||
| 2025-12-11T12:32 | 18266 | 74 | 300 | 16 | ||
| 2025-12-11T12:32 | 18280 | 74 | -78.8 | |||
| 2025-12-11T12:33 | 18564 | 70 | -77.9 | 270 | 9 | |
| 2025-12-11T12:34 | 18744 | 68 | -78.6 | |||
| 2025-12-11T12:34 | 18770 | 68 | 241 | 9 | ||
| 2025-12-11T12:34 | 18874 | 67 | 268 | 8 | ||
| 2025-12-11T12:34 | 18901 | 66 | -75.9 | |||
| 2025-12-11T12:35 | 19005 | 65 | 257 | 9 | ||
| 2025-12-11T12:35 | 19031 | 65 | -76.1 | |||
| 2025-12-11T12:35 | 19146 | 63 | 277 | 9 | ||
| 2025-12-11T12:36 | 19361 | 61 | 278 | 8 | ||
| 2025-12-11T12:36 | 19467 | 60 | 227 | 8 | ||
| 2025-12-11T12:37 | 19539 | 59 | -71.9 | |||
| 2025-12-11T12:37 | 19576 | 59 | 247 | 7 | ||
| 2025-12-11T12:37 | 19732 | 57 | 273 | 10 | ||
| 2025-12-11T12:37 | 19749 | 57 | -69.1 | |||
| 2025-12-11T12:37 | 19855 | 56 | -66.0 | |||
| 2025-12-11T12:38 | 19866 | 56 | 225 | 5 | ||
| 2025-12-11T12:38 | 19988 | 55 | 208 | 6 | ||
| 2025-12-11T12:39 | 20132 | 54 | 224 | 3 | ||
| 2025-12-11T12:39 | 20164 | 53 | -68.4 | 356 | 1 | |
| 2025-12-11T12:40 | 20174 | 53 | -66.5 | 299 | 6 | |
| 2025-12-11T23:31 | 8 | 1018 | 21.9 | 19.3 | 50 | 7 |
| 2025-12-11T23:31 | 13 | 1017 | 22.0 | 19.4 | 59 | 1 |
| 2025-12-11T23:31 | 44 | 1014 | 57 | 6 | ||
| 2025-12-11T23:31 | 146 | 1002 | 46 | 12 | ||
| 2025-12-11T23:32 | 343 | 979 | 19.6 | 18.1 | ||
| 2025-12-11T23:32 | 467 | 965 | 48 | 14 | ||
| 2025-12-11T23:33 | 551 | 956 | 17.8 | 16.7 | ||
| 2025-12-11T23:33 | 689 | 941 | 16.7 | 15.9 | ||
| 2025-12-11T23:33 | 732 | 936 | 54 | 13 | ||
| 2025-12-11T23:33 | 745 | 934 | 16.8 | 14.8 | ||
| 2025-12-11T23:34 | 866 | 921 | 16.0 | 14.4 | ||
| 2025-12-11T23:34 | 896 | 918 | 49 | 12 | ||
| 2025-12-11T23:34 | 991 | 908 | 15.8 | 13.1 | ||
| 2025-12-11T23:35 | 1111 | 895 | 14.8 | 12.5 | ||
| 2025-12-11T23:35 | 1205 | 885 | 80 | 10 | ||
| 2025-12-11T23:36 | 1524 | 853 | 49 | 7 | ||
| 2025-12-11T23:36 | 1554 | 849 | 11.9 | 11.0 | ||
| 2025-12-11T23:37 | 1668 | 838 | 15 | 4 | ||
| 2025-12-11T23:37 | 1681 | 837 | 11.7 | 8.6 | ||
| 2025-12-11T23:37 | 1731 | 832 | 11.3 | 8.5 | ||
| 2025-12-11T23:37 | 1835 | 822 | 36 | 4 | ||
| 2025-12-11T23:38 | 2031 | 802 | 62 | 3 | ||
| 2025-12-11T23:38 | 2049 | 801 | 9.1 | 8.0 | ||
| 2025-12-11T23:38 | 2105 | 795 | 9.0 | 7.1 | ||
| 2025-12-11T23:38 | 2139 | 792 | 9.2 | 5.7 | ||
| 2025-12-11T23:38 | 2158 | 790 | 106 | 4 | ||
| 2025-12-11T23:39 | 2263 | 780 | 47 | 3 | ||
| 2025-12-11T23:39 | 2272 | 779 | 7.8 | 5.1 | ||
| 2025-12-11T23:39 | 2348 | 772 | 8 | 3 | ||
| 2025-12-11T23:39 | 2361 | 771 | 7.2 | 4.0 | ||
| 2025-12-11T23:39 | 2457 | 762 | 7.1 | 5.7 | ||
| 2025-12-11T23:40 | 2488 | 759 | 18 | 1 | ||
| 2025-12-11T23:40 | 2585 | 750 | 6.8 | 4.5 | ||
| 2025-12-11T23:40 | 2741 | 736 | 4 | 4 | ||
| 2025-12-11T23:41 | 2832 | 728 | 20 | 3 | ||
| 2025-12-11T23:41 | 2995 | 713 | 23 | 3 | ||
| 2025-12-11T23:41 | 3013 | 712 | 3.1 | 2.8 | ||
| 2025-12-11T23:42 | 3134 | 701 | 2.1 | -0.2 | ||
| 2025-12-11T23:42 | 3152 | 700 | 2.3 | -1.9 | ||
| 2025-12-11T23:42 | 3176 | 698 | 292 | 7 | ||
| 2025-12-11T23:42 | 3208 | 695 | 6.6 | -10.2 | ||
| 2025-12-11T23:42 | 3252 | 691 | 9.8 | -20.4 | ||
| 2025-12-11T23:42 | 3314 | 686 | 287 | 13 | ||
| 2025-12-11T23:42 | 3333 | 685 | 9.9 | -21.6 | ||
| 2025-12-11T23:43 | 3501 | 671 | 283 | 11 | ||
| 2025-12-11T23:43 | 3555 | 667 | 8.6 | -14.4 | ||
| 2025-12-11T23:43 | 3759 | 650 | 270 | 9 | ||
| 2025-12-11T23:44 | 3956 | 635 | 270 | 8 | ||
| 2025-12-11T23:44 | 4095 | 624 | 4.2 | -15.7 | ||
| 2025-12-11T23:45 | 4205 | 615 | 4.4 | -27.1 | ||
| 2025-12-11T23:45 | 4325 | 607 | 273 | 10 | ||
| 2025-12-11T23:45 | 4363 | 604 | 3.6 | -29.1 | ||
| 2025-12-11T23:46 | 4699 | 579 | 283 | 11 | ||
| 2025-12-11T23:46 | 4724 | 577 | 1.2 | -34.4 | ||
| 2025-12-11T23:47 | 5066 | 553 | 276 | 13 | ||
| 2025-12-11T23:47 | 5091 | 551 | -1.1 | -38.3 | ||
| 2025-12-11T23:48 | 5429 | 528 | 265 | 14 | ||
| 2025-12-11T23:49 | 5777 | 505 | 268 | 13 | ||
| 2025-12-11T23:49 | 5931 | 495 | -7.6 | -35.1 | ||
| 2025-12-11T23:50 | 6080 | 486 | 261 | 14 | ||
| 2025-12-11T23:51 | 6387 | 467 | 254 | 14 | ||
| 2025-12-11T23:51 | 6429 | 464 | -10.3 | -36.2 | ||
| 2025-12-11T23:51 | 6505 | 460 | -10.9 | -26.7 | ||
| 2025-12-11T23:52 | 6620 | 453 | -11.9 | -15.4 | ||
| 2025-12-11T23:52 | 6653 | 451 | -12.2 | -16.2 | ||
| 2025-12-11T23:52 | 6697 | 449 | -12.1 | -23.8 | ||
| 2025-12-11T23:52 | 6713 | 448 | 263 | 17 | ||
| 2025-12-11T23:52 | 6774 | 444 | -12.5 | -27.7 | ||
| 2025-12-11T23:52 | 6801 | 442 | -12.7 | -23.2 | ||
| 2025-12-11T23:52 | 6829 | 441 | -13.0 | -18.8 | ||
| 2025-12-11T23:53 | 7044 | 428 | 267 | 18 | ||
| 2025-12-11T23:54 | 7394 | 409 | 276 | 21 | ||
| 2025-12-11T23:54 | 7467 | 405 | -17.9 | -21.4 | ||
| 2025-12-11T23:55 | 7748 | 390 | 282 | 21 | ||
| 2025-12-11T23:55 | 7819 | 386 | -20.7 | -23.0 | ||
| 2025-12-11T23:55 | 7884 | 383 | -21.2 | -24.3 | ||
| 2025-12-11T23:56 | 8027 | 376 | -21.3 | -30.8 | ||
| 2025-12-11T23:56 | 8113 | 371 | 262 | 22 | ||
| 2025-12-11T23:56 | 8125 | 371 | -21.7 | -35.0 | ||
| 2025-12-11T23:57 | 8496 | 352 | 252 | 21 | ||
| 2025-12-11T23:57 | 8604 | 347 | -24.8 | -44.0 | ||
| 2025-12-11T23:58 | 8841 | 336 | -26.4 | -39.5 | ||
| 2025-12-11T23:58 | 8878 | 334 | 256 | 25 | ||
| 2025-12-11T23:58 | 8929 | 332 | -27.2 | -41.3 | ||
| 2025-12-11T23:58 | 8985 | 329 | -27.6 | -42.0 | ||
| 2025-12-11T23:59 | 9208 | 319 | -29.4 | -40.0 | ||
| 2025-12-11T23:59 | 9236 | 318 | 258 | 26 | ||
| 2025-12-11T23:59 | 9390 | 311 | -30.7 | -40.7 | ||
| 2025-12-12T00:00 | 9568 | 303 | -32.4 | -40.1 | ||
| 2025-12-12T00:00 | 9574 | 303 | 256 | 26 | ||
| 2025-12-12T00:01 | 9767 | 295 | -34.1 | -40.9 | ||
| 2025-12-12T00:01 | 9907 | 289 | 260 | 25 | ||
| 2025-12-12T00:01 | 9960 | 287 | -35.2 | -45.3 | ||
| 2025-12-12T00:02 | 10212 | 277 | 257 | 24 | ||
| 2025-12-12T00:02 | 10297 | 273 | -37.7 | -48.1 | ||
| 2025-12-12T00:03 | 10492 | 266 | 245 | 26 | ||
| 2025-12-12T00:03 | 10599 | 262 | -38.4 | -55.4 | ||
| 2025-12-12T00:04 | 10713 | 257 | 250 | 25 | ||
| 2025-12-12T00:04 | 10825 | 253 | -40.0 | -56.8 | ||
| 2025-12-12T00:05 | 10952 | 248 | 245 | 27 | ||
| 2025-12-12T00:06 | 11217 | 239 | 249 | 30 | ||
| 2025-12-12T00:07 | 11497 | 229 | 251 | 28 | ||
| 2025-12-12T00:08 | 11784 | 219 | 254 | 26 | ||
| 2025-12-12T00:09 | 12062 | 210 | -49.4 | 263 | 26 | |
| 2025-12-12T00:10 | 12323 | 202 | 265 | 26 | ||
| 2025-12-12T00:11 | 12578 | 194 | 260 | 26 | ||
| 2025-12-12T00:12 | 12809 | 187 | 263 | 28 | ||
| 2025-12-12T00:12 | 12913 | 184 | -56.6 | |||
| 2025-12-12T00:13 | 13031 | 181 | 265 | 27 | ||
| 2025-12-12T00:14 | 13262 | 174 | 266 | 28 | ||
| 2025-12-12T00:15 | 13448 | 169 | -59.8 | |||
| 2025-12-12T00:15 | 13534 | 167 | 272 | 27 | ||
| 2025-12-12T00:16 | 13828 | 159 | 268 | 26 | ||
| 2025-12-12T00:17 | 14137 | 151 | 258 | 25 | ||
| 2025-12-12T00:17 | 14210 | 150 | -65.8 | |||
| 2025-12-12T00:18 | 14444 | 144 | 255 | 26 | ||
| 2025-12-12T00:19 | 14749 | 137 | 259 | 27 | ||
| 2025-12-12T00:20 | 15011 | 131 | -72.2 | |||
| 2025-12-12T00:20 | 15069 | 130 | 267 | 28 | ||
| 2025-12-12T00:21 | 15378 | 123 | 273 | 27 | ||
| 2025-12-12T00:22 | 15666 | 117 | 269 | 24 | ||
| 2025-12-12T00:23 | 15959 | 111 | 268 | 24 | ||
| 2025-12-12T00:23 | 16023 | 110 | -80.2 | |||
| 2025-12-12T00:23 | 16112 | 108 | -79.4 | |||
| 2025-12-12T00:24 | 16169 | 107 | 275 | 24 | ||
| 2025-12-12T00:24 | 16379 | 103 | -79.8 | |||
| 2025-12-12T00:25 | 16461 | 102 | 283 | 21 | ||
| 2025-12-12T00:25 | 16598 | 99 | -80.8 | |||
| 2025-12-12T00:26 | 16745 | 97 | 282 | 18 | ||
| 2025-12-12T00:26 | 16821 | 95 | -80.7 | |||
| 2025-12-12T00:27 | 17031 | 92 | 279 | 17 | ||
| 2025-12-12T00:27 | 17259 | 88 | -81.9 | |||
| 2025-12-12T00:28 | 17323 | 87 | 294 | 17 | ||
| 2025-12-12T00:28 | 17520 | 84 | 280 | 13 | ||
| 2025-12-12T00:29 | 17619 | 83 | -82.7 | |||
| 2025-12-12T00:29 | 17780 | 80 | -79.9 | |||
| 2025-12-12T00:29 | 17801 | 80 | 261 | 13 | ||
| 2025-12-12T00:30 | 17858 | 79 | -79.3 | |||
| 2025-12-12T00:30 | 17974 | 78 | 288 | 10 | ||
| 2025-12-12T00:30 | 18056 | 77 | -76.2 | 244 | 6 | |
| 2025-12-12T00:30 | 18124 | 76 | 223 | 6 | ||
| 2025-12-12T00:31 | 18248 | 74 | 232 | 6 | ||
| 2025-12-12T00:32 | 18531 | 70 | -79.0 | 230 | 6 | |
| 2025-12-12T00:33 | 18796 | 67 | 246 | 9 | ||
| 2025-12-12T00:33 | 18811 | 67 | -79.6 | |||
| 2025-12-12T00:33 | 19057 | 64 | -78.4 | |||
| 2025-12-12T00:34 | 19101 | 64 | 269 | 7 | ||
| 2025-12-12T00:34 | 19210 | 63 | 249 | 6 | ||
| 2025-12-12T00:34 | 19282 | 62 | -77.4 | |||
| 2025-12-12T00:34 | 19369 | 61 | -74.7 | 244 | 9 | |
| 2025-12-12T00:35 | 19466 | 60 | -71.7 | |||
| 2025-12-12T00:35 | 19593 | 59 | 281 | 9 | ||
| 2025-12-12T00:36 | 19761 | 57 | -70.3 | |||
| 2025-12-12T00:36 | 19772 | 57 | 322 | 7 | ||
| 2025-12-12T00:36 | 19963 | 55 | -70.0 | |||
| 2025-12-12T00:36 | 19984 | 55 | 302 | 4 | ||
| 2025-12-12T00:37 | 20151 | 53 | -69.0 | 244 | 4 | |
| 2025-12-12T00:37 | 20249 | 52 | -68.6 | |||
| 2025-12-12T00:37 | 20321 | 52 | 238 | 8 | ||
| 2025-12-12T00:38 | 20388 | 51 | -66.9 | |||
| 2025-12-12T00:38 | 20558 | 50 | 286 | 7 | ||
| 2025-12-12T00:39 | 20681 | 49 | 259 | 7 | ||
| 2025-12-12T00:39 | 20906 | 47 | -67.0 | 305 | 6 | |
| 2025-12-12T00:40 | 21221 | 45 | 281 | 6 | ||
| 2025-12-12T00:40 | 21251 | 44 | -66.2 | |||
| 2025-12-12T00:41 | 21488 | 43 | 302 | 10 | ||
| 2025-12-12T00:42 | 21735 | 41 | -62.6 | |||
| 2025-12-12T00:42 | 21810 | 41 | 23 | 8 | ||
| 2025-12-12T00:43 | 22142 | 38 | 24 | 11 | ||
| 2025-12-12T00:44 | 22252 | 38 | -63.6 | |||
| 2025-12-12T00:44 | 22470 | 36 | 69 | 8 | ||
| 2025-12-12T00:45 | 22607 | 36 | 83 | 5 | ||
| 2025-12-12T00:45 | 22694 | 35 | 88 | 4 | ||
| 2025-12-12T00:45 | 22765 | 35 | 102 | 4 | ||
| 2025-12-12T00:45 | 22874 | 34 | 95 | 7 | ||
| 2025-12-12T00:46 | 22913 | 34 | -61.1 | |||
| 2025-12-12T00:46 | 23209 | 32 | 139 | 8 | ||
| 2025-12-12T00:47 | 23462 | 31 | -61.7 | 108 | 2 | |
| 2025-12-12T00:48 | 23813 | 29 | -60.8 | 12 | 3 | |
| 2025-12-12T00:49 | 23941 | 29 | 2 | 6 | ||
| 2025-12-12T00:50 | 24300 | 27 | 70 | 4 | ||
| 2025-12-12T00:50 | 24440 | 27 | -59.1 | |||
| 2025-12-12T00:50 | 24511 | 26 | 85 | 8 | ||
| 2025-12-12T00:51 | 24634 | 26 | 78 | 6 | ||
| 2025-12-12T00:51 | 24809 | 25 | -57.3 | |||
| 2025-12-12T00:51 | 24835 | 25 | 120 | 4 | ||
| 2025-12-12T00:51 | 24935 | 25 | 148 | 4 | ||
| 2025-12-12T00:52 | 25065 | 24 | 86 | 4 | ||
| 2025-12-12T00:52 | 25196 | 24 | -58.4 | |||
| 2025-12-12T00:53 | 25444 | 23 | 78 | 11 | ||
| 2025-12-12T00:53 | 25582 | 22 | -59.8 | |||
| 2025-12-12T00:54 | 25754 | 22 | 80 | 8 | ||
| 2025-12-12T00:55 | 26022 | 21 | -59.9 | |||
| 2025-12-12T00:55 | 26050 | 21 | 134 | 8 | ||
| 2025-12-12T00:55 | 26271 | 20 | 148 | 9 | ||
| 2025-12-12T00:55 | 26334 | 20 | 145 | 5 | ||
| 2025-12-12T00:56 | 26396 | 19 | -58.1 | 110 | 4 | |
| 2025-12-12T11:31 | 8 | 1017 | 23.2 | 18.9 | 40 | 6 |
| 2025-12-12T11:31 | 12 | 1016 | 23.2 | 19.4 | 40 | 1 |
| 2025-12-12T11:31 | 36 | 1014 | 63 | 5 | ||
| 2025-12-12T11:32 | 222 | 992 | 48 | 9 | ||
| 2025-12-12T11:32 | 439 | 968 | 19.8 | 17.9 | ||
| 2025-12-12T11:33 | 526 | 958 | 55 | 11 | ||
| 2025-12-12T11:33 | 675 | 942 | 17.9 | 16.6 | ||
| 2025-12-12T11:34 | 826 | 925 | 17.0 | 15.2 | ||
| 2025-12-12T11:34 | 842 | 924 | 70 | 9 | ||
| 2025-12-12T11:34 | 858 | 922 | 17.6 | 14.3 | ||
| 2025-12-12T11:35 | 1152 | 890 | 67 | 6 | ||
| 2025-12-12T11:35 | 1231 | 882 | 14.5 | 12.7 | ||
| 2025-12-12T11:35 | 1252 | 880 | 85 | 8 | ||
| 2025-12-12T11:35 | 1292 | 876 | 13.9 | 12.1 | ||
| 2025-12-12T11:35 | 1322 | 873 | 14.3 | 11.6 | ||
| 2025-12-12T11:35 | 1363 | 868 | 85 | 6 | ||
| 2025-12-12T11:36 | 1436 | 861 | 79 | 5 | ||
| 2025-12-12T11:36 | 1444 | 860 | 13.2 | 10.0 | ||
| 2025-12-12T11:36 | 1518 | 853 | 106 | 5 | ||
| 2025-12-12T11:36 | 1551 | 849 | 12.4 | 10.5 | ||
| 2025-12-12T11:36 | 1574 | 847 | 12.2 | 11.7 | ||
| 2025-12-12T11:36 | 1594 | 845 | 86 | 8 | ||
| 2025-12-12T11:37 | 1601 | 844 | 12.0 | 11.2 | ||
| 2025-12-12T11:37 | 1709 | 833 | 11.1 | 9.5 | 95 | 6 |
| 2025-12-12T11:37 | 1804 | 824 | 10.7 | 8.6 | ||
| 2025-12-12T11:38 | 1877 | 817 | 10.8 | 8.0 | 94 | 3 |
| 2025-12-12T11:38 | 2084 | 797 | 22 | 4 | ||
| 2025-12-12T11:38 | 2142 | 791 | 9.4 | 6.5 | ||
| 2025-12-12T11:38 | 2164 | 789 | 54 | 2 | ||
| 2025-12-12T11:39 | 2301 | 776 | 9.1 | 4.5 | ||
| 2025-12-12T11:39 | 2477 | 760 | 106 | 2 | ||
| 2025-12-12T11:40 | 2601 | 749 | 7.2 | 2.3 | ||
| 2025-12-12T11:40 | 2646 | 745 | 80 | 3 | ||
| 2025-12-12T11:40 | 2663 | 743 | 7.0 | 1.3 | ||
| 2025-12-12T11:41 | 2907 | 721 | 66 | 7 | ||
| 2025-12-12T11:41 | 2932 | 719 | 5.3 | 2.3 | ||
| 2025-12-12T11:41 | 3041 | 710 | 5.4 | 1.5 | ||
| 2025-12-12T11:41 | 3051 | 709 | 7 | 5 | ||
| 2025-12-12T11:41 | 3092 | 705 | 6.7 | -2.2 | ||
| 2025-12-12T11:42 | 3137 | 701 | 7.1 | -8.5 | 314 | 3 |
| 2025-12-12T11:42 | 3211 | 695 | 350 | 3 | ||
| 2025-12-12T11:42 | 3232 | 693 | 6.6 | -13.1 | ||
| 2025-12-12T11:42 | 3324 | 685 | 6.3 | -19.3 | ||
| 2025-12-12T11:42 | 3380 | 681 | 6.5 | -14.9 | ||
| 2025-12-12T11:43 | 3441 | 676 | 6.6 | -25.4 | ||
| 2025-12-12T11:43 | 3499 | 671 | 314 | 10 | ||
| 2025-12-12T11:43 | 3530 | 668 | 6.9 | -19.7 | ||
| 2025-12-12T11:43 | 3576 | 665 | 7.1 | -25.0 | ||
| 2025-12-12T11:43 | 3639 | 660 | 6.8 | -21.7 | ||
| 2025-12-12T11:44 | 3800 | 647 | 309 | 11 | ||
| 2025-12-12T11:45 | 4141 | 620 | 4.8 | -37.0 | 285 | 12 |
| 2025-12-12T11:46 | 4507 | 593 | 272 | 11 | ||
| 2025-12-12T11:46 | 4534 | 591 | 1.9 | -25.5 | ||
| 2025-12-12T11:46 | 4709 | 578 | 0.9 | -31.2 | ||
| 2025-12-12T11:46 | 4779 | 573 | 270 | 11 | ||
| 2025-12-12T11:46 | 4799 | 572 | 0.2 | -22.0 | ||
| 2025-12-12T11:47 | 4921 | 563 | -0.5 | -29.6 | ||
| 2025-12-12T11:47 | 4977 | 559 | -1.1 | -21.8 | ||
| 2025-12-12T11:47 | 5105 | 550 | -1.7 | -34.7 | ||
| 2025-12-12T11:47 | 5143 | 547 | 251 | 14 | ||
| 2025-12-12T11:48 | 5366 | 532 | -3.5 | -36.0 | ||
| 2025-12-12T11:48 | 5418 | 529 | -3.7 | -25.9 | ||
| 2025-12-12T11:48 | 5476 | 525 | 258 | 15 | ||
| 2025-12-12T11:49 | 5521 | 522 | -4.8 | -13.4 | ||
| 2025-12-12T11:49 | 5567 | 519 | -5.3 | -9.9 | ||
| 2025-12-12T11:49 | 5708 | 510 | -5.8 | -12.7 | ||
| 2025-12-12T11:49 | 5809 | 503 | -5.8 | -18.8 | ||
| 2025-12-12T11:49 | 5814 | 503 | 261 | 15 | ||
| 2025-12-12T11:50 | 5908 | 497 | -5.8 | -23.6 | ||
| 2025-12-12T11:50 | 5978 | 492 | -6.1 | -26.0 | ||
| 2025-12-12T11:50 | 6132 | 483 | -7.0 | -20.2 | ||
| 2025-12-12T11:50 | 6143 | 482 | 269 | 18 | ||
| 2025-12-12T11:51 | 6419 | 465 | -9.6 | -22.9 | ||
| 2025-12-12T11:51 | 6491 | 461 | 266 | 17 | ||
| 2025-12-12T11:52 | 6840 | 440 | -13.0 | -29.4 | ||
| 2025-12-12T11:52 | 6846 | 440 | 255 | 18 | ||
| 2025-12-12T11:53 | 7050 | 428 | -14.2 | -38.3 | ||
| 2025-12-12T11:53 | 7207 | 420 | 255 | 20 | ||
| 2025-12-12T11:54 | 7298 | 415 | -16.3 | -30.2 | ||
| 2025-12-12T11:54 | 7412 | 408 | -17.4 | -28.1 | ||
| 2025-12-12T11:54 | 7571 | 400 | -18.8 | -26.9 | 254 | 20 |
| 2025-12-12T11:55 | 7625 | 397 | -19.1 | -32.4 | ||
| 2025-12-12T11:55 | 7669 | 394 | -19.5 | -30.5 | ||
| 2025-12-12T11:55 | 7719 | 392 | -19.8 | -26.3 | ||
| 2025-12-12T11:55 | 7907 | 382 | -21.4 | -25.7 | ||
| 2025-12-12T11:55 | 7944 | 380 | 251 | 21 | ||
| 2025-12-12T11:56 | 7982 | 378 | -21.8 | -28.0 | ||
| 2025-12-12T11:56 | 8114 | 371 | -22.0 | -37.2 | ||
| 2025-12-12T11:56 | 8325 | 361 | 251 | 23 | ||
| 2025-12-12T11:57 | 8383 | 358 | -24.0 | -37.7 | ||
| 2025-12-12T11:57 | 8627 | 346 | -25.5 | -37.1 | ||
| 2025-12-12T11:57 | 8719 | 342 | 264 | 24 | ||
| 2025-12-12T11:58 | 8759 | 340 | -26.7 | -39.1 | ||
| 2025-12-12T11:58 | 8960 | 331 | -28.1 | -40.7 | ||
| 2025-12-12T11:58 | 9045 | 327 | -28.9 | -39.9 | ||
| 2025-12-12T11:58 | 9084 | 325 | 260 | 23 | ||
| 2025-12-12T11:59 | 9138 | 322 | -28.8 | -42.3 | ||
| 2025-12-12T11:59 | 9295 | 315 | -28.7 | -47.3 | ||
| 2025-12-12T11:59 | 9376 | 312 | 252 | 24 | ||
| 2025-12-12T12:00 | 9618 | 301 | 252 | 26 | ||
| 2025-12-12T12:01 | 9861 | 291 | -33.2 | -48.5 | ||
| 2025-12-12T12:01 | 9916 | 289 | 250 | 26 | ||
| 2025-12-12T12:02 | 9977 | 286 | -33.8 | -50.5 | ||
| 2025-12-12T12:02 | 10241 | 276 | 257 | 26 | ||
| 2025-12-12T12:03 | 10329 | 272 | -36.5 | -54.4 | ||
| 2025-12-12T12:03 | 10521 | 265 | 261 | 26 | ||
| 2025-12-12T12:04 | 10790 | 255 | 264 | 27 | ||
| 2025-12-12T12:05 | 10821 | 254 | -40.0 | -59.2 | ||
| 2025-12-12T12:05 | 11055 | 245 | 264 | 26 | ||
| 2025-12-12T12:06 | 11324 | 235 | 268 | 27 | ||
| 2025-12-12T12:07 | 11572 | 227 | -46.6 | |||
| 2025-12-12T12:07 | 11620 | 225 | 268 | 29 | ||
| 2025-12-12T12:09 | 11910 | 215 | 267 | 30 | ||
| 2025-12-12T12:09 | 12154 | 208 | 267 | 30 | ||
| 2025-12-12T12:10 | 12365 | 201 | -52.6 | |||
| 2025-12-12T12:10 | 12398 | 200 | 271 | 30 | ||
| 2025-12-12T12:11 | 12656 | 192 | 266 | 31 | ||
| 2025-12-12T12:12 | 12927 | 184 | 270 | 31 | ||
| 2025-12-12T12:13 | 13207 | 176 | 273 | 31 | ||
| 2025-12-12T12:14 | 13309 | 173 | -58.6 | |||
| 2025-12-12T12:14 | 13503 | 168 | 275 | 31 | ||
| 2025-12-12T12:15 | 13793 | 160 | 278 | 31 | ||
| 2025-12-12T12:16 | 14034 | 154 | 277 | 31 | ||
| 2025-12-12T12:17 | 14165 | 151 | -65.8 | |||
| 2025-12-12T12:17 | 14224 | 149 | 270 | 29 | ||
| 2025-12-12T12:17 | 14359 | 146 | 266 | 24 | ||
| 2025-12-12T12:18 | 14619 | 140 | 263 | 23 | ||
| 2025-12-12T12:19 | 14641 | 139 | -68.9 | |||
| 2025-12-12T12:19 | 14889 | 134 | 261 | 25 | ||
| 2025-12-12T12:20 | 15169 | 127 | 261 | 26 | ||
| 2025-12-12T12:21 | 15230 | 126 | -73.3 | |||
| 2025-12-12T12:21 | 15455 | 121 | 256 | 25 | ||
| 2025-12-12T12:22 | 15522 | 120 | -74.9 | |||
| 2025-12-12T12:22 | 15679 | 117 | -74.9 | |||
| 2025-12-12T12:22 | 15740 | 116 | 258 | 20 | ||
| 2025-12-12T12:23 | 16029 | 110 | 259 | 20 | ||
| 2025-12-12T12:24 | 16238 | 106 | -79.5 | |||
| 2025-12-12T12:24 | 16314 | 105 | 241 | 18 | ||
| 2025-12-12T12:25 | 16535 | 101 | 250 | 14 | ||
| 2025-12-12T12:26 | 16753 | 97 | -81.0 | |||
| 2025-12-12T12:26 | 16812 | 96 | 248 | 9 | ||
| 2025-12-12T12:27 | 17091 | 91 | 233 | 10 | ||
| 2025-12-12T12:28 | 17183 | 90 | -83.4 | |||
| 2025-12-12T12:28 | 17362 | 87 | 242 | 15 | ||
| 2025-12-12T12:28 | 17414 | 86 | -81.2 | |||
| 2025-12-12T12:29 | 17593 | 83 | -81.4 | |||
| 2025-12-12T12:29 | 17647 | 82 | 270 | 14 | ||
| 2025-12-12T12:30 | 17883 | 79 | 290 | 14 | ||
| 2025-12-12T12:30 | 17890 | 79 | -81.1 | |||
| 2025-12-12T12:31 | 18063 | 77 | -80.9 | |||
| 2025-12-12T12:31 | 18154 | 75 | 299 | 13 | ||
| 2025-12-12T12:32 | 18351 | 73 | 274 | 12 | ||
| 2025-12-12T12:32 | 18407 | 72 | -80.1 | |||
| 2025-12-12T12:33 | 18607 | 70 | -78.9 | |||
| 2025-12-12T12:33 | 18631 | 69 | 305 | 13 | ||
| 2025-12-12T12:33 | 18841 | 67 | 300 | 7 | ||
| 2025-12-12T12:33 | 18848 | 67 | -76.8 | |||
| 2025-12-12T12:34 | 19126 | 64 | 247 | 9 | ||
| 2025-12-12T12:35 | 19377 | 61 | 258 | 10 | ||
| 2025-12-12T12:35 | 19387 | 61 | -75.9 | |||
| 2025-12-12T12:36 | 19481 | 60 | -73.5 | |||
| 2025-12-12T12:36 | 19512 | 59 | 279 | 7 | ||
| 2025-12-12T12:36 | 19603 | 59 | -70.6 | |||
| 2025-12-12T12:36 | 19624 | 58 | 224 | 7 | ||
| 2025-12-12T12:36 | 19704 | 58 | -70.1 | |||
| 2025-12-12T12:37 | 19736 | 57 | 241 | 7 | ||
| 2025-12-12T12:37 | 19756 | 57 | 260 | 6 | ||
| 2025-12-12T12:37 | 19770 | 57 | -66.9 | 304 | 7 | |
| 2025-12-12T23:31 | 8 | 1017 | 21.2 | 20.2 | 90 | 1 |
| 2025-12-12T23:31 | 14 | 1016 | 21.2 | 20.7 | 0 | 0 |
| 2025-12-12T23:32 | 242 | 990 | 19.6 | 19.6 | ||
| 2025-12-12T23:32 | 259 | 988 | 23 | 3 | ||
| 2025-12-12T23:32 | 421 | 970 | 72 | 5 | ||
| 2025-12-12T23:32 | 564 | 954 | 77 | 4 | ||
| 2025-12-12T23:33 | 759 | 932 | 17.0 | 17.0 | ||
| 2025-12-12T23:33 | 788 | 929 | 68 | 9 | ||
| 2025-12-12T23:34 | 1042 | 902 | 14.9 | 14.7 | ||
| 2025-12-12T23:34 | 1158 | 889 | 60 | 5 | ||
| 2025-12-12T23:34 | 1185 | 887 | 14.2 | 13.9 | ||
| 2025-12-12T23:34 | 1285 | 876 | 13.5 | 13.2 | ||
| 2025-12-12T23:35 | 1484 | 856 | 49 | 6 | ||
| 2025-12-12T23:36 | 1778 | 826 | 66 | 5 | ||
| 2025-12-12T23:36 | 1816 | 822 | 10.6 | 10.1 | ||
| 2025-12-12T23:36 | 1915 | 813 | 10.0 | 9.4 | ||
| 2025-12-12T23:36 | 1976 | 807 | 10.2 | 9.6 | ||
| 2025-12-12T23:36 | 2007 | 804 | 28 | 4 | ||
| 2025-12-12T23:37 | 2093 | 796 | 22 | 4 | ||
| 2025-12-12T23:37 | 2222 | 783 | 56 | 4 | ||
| 2025-12-12T23:38 | 2441 | 763 | 73 | 4 | ||
| 2025-12-12T23:38 | 2568 | 751 | 7.5 | 7.4 | 82 | 4 |
| 2025-12-12T23:38 | 2674 | 742 | 85 | 3 | ||
| 2025-12-12T23:39 | 2785 | 732 | 159 | 3 | ||
| 2025-12-12T23:39 | 2920 | 720 | 112 | 4 | ||
| 2025-12-12T23:40 | 3097 | 705 | 144 | 4 | ||
| 2025-12-12T23:40 | 3160 | 699 | 5.1 | 5.0 | ||
| 2025-12-12T23:40 | 3303 | 687 | 154 | 4 | ||
| 2025-12-12T23:40 | 3428 | 677 | 217 | 5 | ||
| 2025-12-12T23:41 | 3521 | 669 | 1.9 | 0.1 | ||
| 2025-12-12T23:41 | 3552 | 666 | 206 | 3 | ||
| 2025-12-12T23:41 | 3627 | 660 | 1.0 | -1.1 | ||
| 2025-12-12T23:41 | 3645 | 659 | 275 | 6 | ||
| 2025-12-12T23:41 | 3712 | 653 | 0.1 | -3.6 | ||
| 2025-12-12T23:41 | 3752 | 650 | 280 | 8 | ||
| 2025-12-12T23:42 | 3814 | 645 | -0.5 | -3.5 | ||
| 2025-12-12T23:42 | 3871 | 640 | 279 | 11 | ||
| 2025-12-12T23:42 | 3907 | 638 | 0.9 | -0.6 | ||
| 2025-12-12T23:43 | 4171 | 617 | 276 | 12 | ||
| 2025-12-12T23:43 | 4267 | 610 | -0.5 | -1.6 | ||
| 2025-12-12T23:43 | 4372 | 602 | 292 | 12 | ||
| 2025-12-12T23:44 | 4496 | 593 | -1.6 | -2.7 | ||
| 2025-12-12T23:44 | 4698 | 578 | 281 | 13 | ||
| 2025-12-12T23:44 | 4715 | 576 | -2.9 | -4.5 | ||
| 2025-12-12T23:45 | 4838 | 568 | -3.1 | -6.2 | ||
| 2025-12-12T23:45 | 4849 | 567 | 261 | 16 | ||
| 2025-12-12T23:45 | 4911 | 562 | -2.2 | -5.9 | ||
| 2025-12-12T23:45 | 5043 | 553 | -2.9 | -6.5 | ||
| 2025-12-12T23:46 | 5159 | 545 | -3.4 | -10.7 | ||
| 2025-12-12T23:46 | 5189 | 543 | 259 | 17 | ||
| 2025-12-12T23:46 | 5374 | 530 | -5.3 | -11.0 | ||
| 2025-12-12T23:47 | 5430 | 527 | -5.5 | -9.1 | ||
| 2025-12-12T23:47 | 5530 | 520 | -5.8 | -11.5 | ||
| 2025-12-12T23:47 | 5536 | 520 | 265 | 18 | ||
| 2025-12-12T23:47 | 5602 | 515 | -6.1 | -15.3 | ||
| 2025-12-12T23:48 | 5804 | 502 | -7.8 | -15.9 | ||
| 2025-12-12T23:48 | 5857 | 499 | -8.4 | -12.9 | ||
| 2025-12-12T23:48 | 5880 | 497 | 268 | 19 | ||
| 2025-12-12T23:48 | 5980 | 491 | -9.1 | -13.9 | ||
| 2025-12-12T23:48 | 6050 | 486 | -9.5 | -15.8 | ||
| 2025-12-12T23:49 | 6221 | 476 | 260 | 22 | ||
| 2025-12-12T23:49 | 6256 | 473 | -11.1 | -15.3 | ||
| 2025-12-12T23:50 | 6517 | 458 | 257 | 23 | ||
| 2025-12-12T23:50 | 6567 | 455 | -13.6 | -17.2 | ||
| 2025-12-12T23:50 | 6637 | 450 | -13.7 | -19.4 | ||
| 2025-12-12T23:51 | 6836 | 439 | 251 | 20 | ||
| 2025-12-12T23:51 | 6958 | 432 | -15.6 | -22.6 | ||
| 2025-12-12T23:52 | 7176 | 419 | 253 | 23 | ||
| 2025-12-12T23:52 | 7198 | 418 | -17.1 | -24.8 | ||
| 2025-12-12T23:53 | 7487 | 402 | 256 | 23 | ||
| 2025-12-12T23:53 | 7605 | 396 | -20.3 | -27.2 | ||
| 2025-12-12T23:54 | 7796 | 386 | 260 | 22 | ||
| 2025-12-12T23:54 | 7814 | 385 | -21.9 | -27.0 | ||
| 2025-12-12T23:54 | 7951 | 378 | -22.6 | -28.8 | ||
| 2025-12-12T23:55 | 8058 | 372 | -23.3 | -32.2 | ||
| 2025-12-12T23:55 | 8102 | 370 | 256 | 24 | ||
| 2025-12-12T23:55 | 8200 | 365 | -23.8 | -31.7 | ||
| 2025-12-12T23:56 | 8415 | 354 | -25.0 | -35.0 | ||
| 2025-12-12T23:56 | 8431 | 354 | 247 | 24 | ||
| 2025-12-12T23:56 | 8617 | 345 | -25.6 | -38.8 | ||
| 2025-12-12T23:57 | 8748 | 338 | -25.9 | -41.0 | ||
| 2025-12-12T23:57 | 8785 | 337 | 255 | 27 | ||
| 2025-12-12T23:57 | 8814 | 335 | -25.2 | -42.7 | ||
| 2025-12-12T23:57 | 8957 | 329 | 262 | 29 | ||
| 2025-12-12T23:58 | 9189 | 318 | -28.1 | -43.7 | ||
| 2025-12-12T23:58 | 9253 | 316 | 258 | 29 | ||
| 2025-12-12T23:59 | 9464 | 306 | -29.9 | -46.7 | ||
| 2025-12-12T23:59 | 9564 | 302 | 249 | 27 | ||
| 2025-12-12T23:59 | 9620 | 300 | -30.8 | -49.0 | ||
| 2025-12-13T00:00 | 9905 | 288 | 257 | 29 | ||
| 2025-12-13T00:01 | 10248 | 274 | 258 | 29 | ||
| 2025-12-13T00:02 | 10528 | 263 | -38.6 | -55.0 | ||
| 2025-12-13T00:02 | 10550 | 262 | 255 | 29 | ||
| 2025-12-13T00:03 | 10709 | 256 | -40.0 | -57.3 | ||
| 2025-12-13T00:03 | 10869 | 250 | 259 | 28 | ||
| 2025-12-13T00:04 | 11188 | 239 | -43.5 | |||
| 2025-12-13T00:04 | 11225 | 238 | 252 | 30 | ||
| 2025-12-13T00:05 | 11556 | 226 | 252 | 31 | ||
| 2025-12-13T00:06 | 11846 | 216 | 258 | 33 | ||
| 2025-12-13T00:07 | 12130 | 207 | 262 | 33 | ||
| 2025-12-13T00:08 | 12403 | 199 | -52.4 | 262 | 32 | |
| 2025-12-13T00:09 | 12719 | 189 | 256 | 33 | ||
| 2025-12-13T00:10 | 12910 | 184 | -56.3 | |||
| 2025-12-13T00:10 | 13027 | 180 | 259 | 31 | ||
| 2025-12-13T00:11 | 13332 | 172 | 262 | 33 | ||
| 2025-12-13T00:12 | 13575 | 165 | -61.6 | |||
| 2025-12-13T00:12 | 13618 | 164 | 263 | 34 | ||
| 2025-12-13T00:13 | 13914 | 156 | 259 | 34 | ||
| 2025-12-13T00:14 | 14161 | 150 | -65.8 | |||
| 2025-12-13T00:14 | 14218 | 149 | 258 | 30 | ||
| 2025-12-13T00:15 | 14361 | 145 | -67.0 | |||
| 2025-12-13T00:15 | 14557 | 141 | 255 | 28 | ||
| 2025-12-13T00:16 | 14889 | 133 | 255 | 26 | ||
| 2025-12-13T00:17 | 15153 | 127 | 246 | 31 | ||
| 2025-12-13T00:18 | 15343 | 123 | -73.8 | |||
| 2025-12-13T00:18 | 15432 | 121 | 247 | 30 | ||
| 2025-12-13T00:19 | 15764 | 114 | 248 | 29 | ||
| 2025-12-13T00:20 | 16094 | 108 | 256 | 30 | ||
| 2025-12-13T00:20 | 16240 | 105 | -80.1 | |||
| 2025-12-13T00:21 | 16436 | 102 | 264 | 29 | ||
| 2025-12-13T00:21 | 16561 | 99 | -80.9 | |||
| 2025-12-13T00:21 | 16613 | 98 | 263 | 24 | ||
| 2025-12-13T00:22 | 16720 | 97 | -80.6 | |||
| 2025-12-13T00:22 | 16753 | 96 | 261 | 23 | ||
| 2025-12-13T00:22 | 16867 | 94 | -80.4 | |||
| 2025-12-13T00:23 | 17061 | 91 | 248 | 16 | ||
| 2025-12-13T00:23 | 17175 | 89 | -80.3 | |||
| 2025-12-13T00:24 | 17349 | 86 | 249 | 12 | ||
| 2025-12-13T00:24 | 17527 | 84 | 273 | 10 | ||
| 2025-12-13T00:25 | 17751 | 80 | -83.1 | |||
| 2025-12-13T00:25 | 17808 | 80 | 258 | 9 | ||
| 2025-12-13T00:26 | 18012 | 77 | -84.3 | |||
| 2025-12-13T00:26 | 18079 | 76 | 238 | 9 | ||
| 2025-12-13T00:26 | 18107 | 75 | -80.7 | |||
| 2025-12-13T00:27 | 18216 | 74 | 237 | 12 | ||
| 2025-12-13T00:27 | 18223 | 74 | -78.9 | |||
| 2025-12-13T00:27 | 18387 | 72 | 265 | 10 | ||
| 2025-12-13T00:28 | 18516 | 70 | -77.8 | |||
| 2025-12-13T00:28 | 18540 | 70 | 271 | 6 | ||
| 2025-12-13T00:29 | 18815 | 67 | -78.1 | |||
| 2025-12-13T00:29 | 18825 | 67 | 263 | 10 | ||
| 2025-12-13T00:30 | 19108 | 63 | 260 | 12 | ||
| 2025-12-13T00:30 | 19171 | 63 | -76.8 | |||
| 2025-12-13T00:31 | 19311 | 61 | -75.1 | |||
| 2025-12-13T00:31 | 19330 | 61 | 274 | 9 | ||
| 2025-12-13T00:31 | 19370 | 61 | -73.3 | |||
| 2025-12-13T00:31 | 19524 | 59 | -73.6 | 224 | 9 | |
| 2025-12-13T00:32 | 19675 | 57 | -72.1 | |||
| 2025-12-13T00:32 | 19776 | 56 | 250 | 9 | ||
| 2025-12-13T00:33 | 19957 | 55 | 257 | 6 | ||
| 2025-12-13T00:33 | 20043 | 54 | -70.9 | |||
| 2025-12-13T00:34 | 20190 | 53 | -69.9 | |||
| 2025-12-13T00:34 | 20259 | 52 | 226 | 6 | ||
| 2025-12-13T00:34 | 20352 | 51 | 225 | 8 | ||
| 2025-12-13T00:35 | 20469 | 50 | 248 | 10 | ||
| 2025-12-13T00:35 | 20577 | 49 | 241 | 8 | ||
| 2025-12-13T00:35 | 20677 | 49 | 263 | 5 | ||
| 2025-12-13T00:35 | 20700 | 48 | -64.7 | |||
| 2025-12-13T00:36 | 20815 | 47 | 248 | 6 | ||
| 2025-12-13T00:36 | 20919 | 47 | 222 | 3 | ||
| 2025-12-13T00:36 | 20975 | 46 | -63.2 | |||
| 2025-12-13T00:36 | 21001 | 46 | 153 | 3 | ||
| 2025-12-13T00:37 | 21068 | 46 | 167 | 3 | ||
| 2025-12-13T00:37 | 21149 | 45 | 228 | 4 | ||
| 2025-12-13T00:38 | 21429 | 43 | 253 | 4 | ||
| 2025-12-13T00:39 | 21752 | 41 | 331 | 6 | ||
| 2025-12-13T00:39 | 21893 | 40 | 358 | 3 | ||
| 2025-12-13T00:40 | 22065 | 39 | -62.7 | |||
| 2025-12-13T00:40 | 22092 | 39 | 42 | 6 | ||
| 2025-12-13T00:41 | 22341 | 37 | -62.9 | |||
| 2025-12-13T00:41 | 22375 | 37 | 33 | 9 | ||
| 2025-12-13T00:41 | 22575 | 36 | -63.6 | |||
| 2025-12-13T00:41 | 22591 | 36 | 37 | 8 | ||
| 2025-12-13T00:42 | 22717 | 35 | 46 | 5 | ||
| 2025-12-13T00:42 | 22839 | 34 | 26 | 3 | ||
| 2025-12-13T00:42 | 22949 | 34 | 50 | 3 | ||
| 2025-12-13T00:43 | 23039 | 33 | 48 | 3 | ||
| 2025-12-13T00:43 | 23135 | 33 | -61.2 | 133 | 4 | |
| 2025-12-13T00:44 | 23309 | 32 | 184 | 2 | ||
| 2025-12-13T00:44 | 23450 | 31 | 92 | 3 | ||
| 2025-12-13T00:45 | 23737 | 30 | -60.1 | |||
| 2025-12-13T00:45 | 23781 | 29 | 339 | 3 | ||
| 2025-12-13T00:45 | 23863 | 29 | 333 | 4 | ||
| 2025-12-13T00:46 | 24085 | 28 | -59.5 | |||
| 2025-12-13T00:46 | 24173 | 28 | 56 | 6 | ||
| 2025-12-13T00:47 | 24432 | 26 | 79 | 8 | ||
| 2025-12-13T00:48 | 24624 | 26 | 71 | 10 | ||
| 2025-12-13T00:48 | 24877 | 25 | -57.3 | |||
| 2025-12-13T00:49 | 24978 | 24 | 86 | 14 | ||
| 2025-12-13T00:49 | 25190 | 23 | 98 | 14 | ||
| 2025-12-13T00:50 | 25494 | 22 | 107 | 13 | ||
| 2025-12-13T00:50 | 25577 | 22 | -59.1 | |||
| 2025-12-13T00:51 | 25808 | 21 | 113 | 10 | ||
| 2025-12-13T00:52 | 26081 | 20 | 146 | 16 | ||
| 2025-12-13T00:52 | 26114 | 20 | -57.3 | |||
| 2025-12-13T00:53 | 26335 | 20 | -57.0 | |||
| 2025-12-13T00:53 | 26401 | 19 | 154 | 12 | ||
| 2025-12-13T00:54 | 26771 | 18 | 175 | 6 | ||
| 2025-12-13T00:54 | 26842 | 18 | -57.5 | |||
| 2025-12-13T00:54 | 26950 | 18 | 165 | 6 | ||
| 2025-12-13T00:55 | 27091 | 17 | 176 | 7 | ||
| 2025-12-13T00:55 | 27356 | 17 | -57.4 | 168 | 13 | |
| 2025-12-13T00:56 | 27586 | 16 | 196 | 12 | ||
| 2025-12-13T00:57 | 27905 | 15 | -57.8 | 223 | 11 | |
| 2025-12-13T11:31 | 8 | 1016 | 20.9 | 19.7 | 40 | 4 |
| 2025-12-13T11:31 | 14 | 1016 | 21.0 | 20.0 | 0 | 0 |
| 2025-12-13T11:31 | 50 | 1011 | 72 | 3 | ||
| 2025-12-13T11:31 | 105 | 1005 | 46 | 6 | ||
| 2025-12-13T11:32 | 202 | 994 | 54 | 8 | ||
| 2025-12-13T11:32 | 266 | 986 | 19.1 | 18.6 | ||
| 2025-12-13T11:33 | 497 | 960 | 36 | 9 | ||
| 2025-12-13T11:33 | 607 | 948 | 17.3 | 16.8 | ||
| 2025-12-13T11:34 | 775 | 930 | 49 | 7 | ||
| 2025-12-13T11:35 | 1027 | 903 | 46 | 9 | ||
| 2025-12-13T11:35 | 1160 | 889 | 14.5 | 13.9 | ||
| 2025-12-13T11:36 | 1305 | 873 | 65 | 6 | ||
| 2025-12-13T11:37 | 1601 | 843 | 65 | 6 | ||
| 2025-12-13T11:37 | 1713 | 832 | 45 | 3 | ||
| 2025-12-13T11:37 | 1829 | 821 | 49 | 5 | ||
| 2025-12-13T11:38 | 2051 | 799 | 54 | 3 | ||
| 2025-12-13T11:39 | 2149 | 790 | 62 | 5 | ||
| 2025-12-13T11:40 | 2411 | 765 | 85 | 5 | ||
| 2025-12-13T11:40 | 2560 | 752 | 8.2 | 7.6 | ||
| 2025-12-13T11:40 | 2564 | 751 | 118 | 5 | ||
| 2025-12-13T11:41 | 2689 | 740 | 120 | 5 | ||
| 2025-12-13T11:41 | 2797 | 730 | 113 | 3 | ||
| 2025-12-13T11:41 | 2862 | 725 | 84 | 3 | ||
| 2025-12-13T11:41 | 2877 | 723 | 6.3 | 5.7 | ||
| 2025-12-13T11:42 | 2966 | 716 | 92 | 4 | ||
| 2025-12-13T11:42 | 3009 | 712 | 108 | 2 | ||
| 2025-12-13T11:42 | 3068 | 707 | 198 | 3 | ||
| 2025-12-13T11:43 | 3259 | 690 | 211 | 1 | ||
| 2025-12-13T11:43 | 3426 | 676 | 2.8 | 2.1 | ||
| 2025-12-13T11:43 | 3457 | 674 | 221 | 3 | ||
| 2025-12-13T11:44 | 3521 | 668 | 190 | 2 | ||
| 2025-12-13T11:44 | 3595 | 662 | 242 | 3 | ||
| 2025-12-13T11:44 | 3661 | 657 | 1.7 | 1.0 | ||
| 2025-12-13T11:44 | 3718 | 652 | 216 | 3 | ||
| 2025-12-13T11:44 | 3789 | 647 | 259 | 3 | ||
| 2025-12-13T11:45 | 3854 | 641 | 301 | 4 | ||
| 2025-12-13T11:45 | 3924 | 636 | 279 | 3 | ||
| 2025-12-13T11:45 | 3987 | 631 | 243 | 4 | ||
| 2025-12-13T11:46 | 4201 | 614 | 265 | 9 | ||
| 2025-12-13T11:46 | 4268 | 609 | -1.2 | -2.5 | ||
| 2025-12-13T11:47 | 4547 | 588 | 259 | 17 | ||
| 2025-12-13T11:47 | 4585 | 585 | -2.8 | -5.3 | ||
| 2025-12-13T11:47 | 4756 | 573 | 270 | 18 | ||
| 2025-12-13T11:48 | 5036 | 553 | 273 | 21 | ||
| 2025-12-13T11:49 | 5206 | 541 | -6.3 | -8.6 | ||
| 2025-12-13T11:49 | 5272 | 536 | 256 | 23 | ||
| 2025-12-13T11:49 | 5278 | 536 | -6.0 | -8.9 | ||
| 2025-12-13T11:50 | 5622 | 513 | 264 | 26 | ||
| 2025-12-13T11:51 | 5977 | 490 | 260 | 26 | ||
| 2025-12-13T11:51 | 6142 | 480 | -11.9 | -15.0 | ||
| 2025-12-13T11:52 | 6304 | 469 | 256 | 26 | ||
| 2025-12-13T11:53 | 6538 | 455 | -14.3 | -18.2 | ||
| 2025-12-13T11:53 | 6593 | 452 | 249 | 27 | ||
| 2025-12-13T11:53 | 6650 | 449 | -14.8 | -19.6 | ||
| 2025-12-13T11:54 | 6857 | 436 | 252 | 26 | ||
| 2025-12-13T11:54 | 6914 | 433 | -16.7 | -20.7 | ||
| 2025-12-13T11:54 | 7057 | 425 | -17.6 | -21.4 | ||
| 2025-12-13T11:55 | 7135 | 421 | -18.0 | -21.3 | 257 | 27 |
| 2025-12-13T11:55 | 7207 | 416 | -18.3 | -23.1 | ||
| 2025-12-13T11:55 | 7234 | 415 | -18.4 | -23.0 | ||
| 2025-12-13T11:55 | 7268 | 413 | -18.2 | -25.2 | ||
| 2025-12-13T11:56 | 7353 | 408 | -18.1 | -25.6 | ||
| 2025-12-13T11:56 | 7381 | 407 | 252 | 28 | ||
| 2025-12-13T11:56 | 7459 | 403 | -18.9 | -26.3 | ||
| 2025-12-13T11:57 | 7631 | 393 | 255 | 31 | ||
| 2025-12-13T11:57 | 7682 | 391 | -19.9 | -28.6 | ||
| 2025-12-13T11:57 | 7741 | 388 | -20.1 | -29.0 | ||
| 2025-12-13T11:57 | 7836 | 383 | -20.0 | -31.3 | ||
| 2025-12-13T11:58 | 7924 | 378 | 253 | 33 | ||
| 2025-12-13T11:58 | 7995 | 375 | -20.6 | -32.4 | ||
| 2025-12-13T11:59 | 8239 | 362 | 255 | 33 | ||
| 2025-12-13T11:59 | 8249 | 362 | -21.5 | -35.2 | ||
| 2025-12-13T11:59 | 8349 | 357 | -21.7 | -35.0 | ||
| 2025-12-13T11:59 | 8413 | 354 | -22.1 | -35.4 | ||
| 2025-12-13T12:00 | 8527 | 348 | 255 | 33 | ||
| 2025-12-13T12:00 | 8591 | 345 | -22.0 | -37.2 | ||
| 2025-12-13T12:01 | 8831 | 334 | 256 | 33 | ||
| 2025-12-13T12:02 | 9059 | 324 | -26.1 | -40.0 | ||
| 2025-12-13T12:02 | 9075 | 323 | 252 | 33 | ||
| 2025-12-13T12:03 | 9318 | 313 | 254 | 33 | ||
| 2025-12-13T12:04 | 9530 | 303 | -30.3 | -44.4 | ||
| 2025-12-13T12:04 | 9573 | 302 | 259 | 32 | ||
| 2025-12-13T12:05 | 9786 | 293 | 258 | 33 | ||
| 2025-12-13T12:06 | 10002 | 284 | 254 | 32 | ||
| 2025-12-13T12:06 | 10055 | 282 | -34.6 | -48.5 | ||
| 2025-12-13T12:07 | 10245 | 274 | 256 | 34 | ||
| 2025-12-13T12:08 | 10520 | 263 | -37.8 | -52.1 | ||
| 2025-12-13T12:08 | 10525 | 263 | 256 | 33 | ||
| 2025-12-13T12:09 | 10762 | 254 | -40.0 | -54.0 | ||
| 2025-12-13T12:09 | 10809 | 252 | 255 | 32 | ||
| 2025-12-13T12:10 | 11085 | 242 | 256 | 33 | ||
| 2025-12-13T12:11 | 11370 | 232 | 255 | 35 | ||
| 2025-12-13T12:12 | 11633 | 223 | -46.9 | |||
| 2025-12-13T12:12 | 11643 | 223 | 254 | 35 | ||
| 2025-12-13T12:13 | 11929 | 213 | 256 | 36 | ||
| 2025-12-13T12:13 | 12087 | 208 | -50.4 | |||
| 2025-12-13T12:13 | 12144 | 207 | 257 | 32 | ||
| 2025-12-13T12:14 | 12417 | 198 | 261 | 34 | ||
| 2025-12-13T12:15 | 12531 | 195 | -53.5 | |||
| 2025-12-13T12:15 | 12709 | 189 | 262 | 34 | ||
| 2025-12-13T12:16 | 13014 | 180 | 254 | 35 | ||
| 2025-12-13T12:17 | 13335 | 171 | 261 | 35 | ||
| 2025-12-13T12:18 | 13693 | 162 | 267 | 34 | ||
| 2025-12-13T12:19 | 13949 | 155 | -64.8 | |||
| 2025-12-13T12:19 | 14041 | 153 | 265 | 37 | ||
| 2025-12-13T12:20 | 14397 | 144 | 253 | 34 | ||
| 2025-12-13T12:21 | 14541 | 141 | -68.1 | |||
| 2025-12-13T12:21 | 14757 | 136 | 253 | 33 | ||
| 2025-12-13T12:22 | 14985 | 131 | -71.4 | |||
| 2025-12-13T12:22 | 15138 | 127 | 247 | 33 | ||
| 2025-12-13T12:23 | 15509 | 119 | 241 | 34 | ||
| 2025-12-13T12:24 | 15776 | 114 | -76.9 | |||
| 2025-12-13T12:24 | 15892 | 112 | 249 | 35 | ||
| 2025-12-13T12:25 | 15966 | 110 | -77.1 | 250 | 34 | |
| 2025-12-13T23:31 | 8 | 1021 | 17.5 | 11.8 | 360 | 9 |
| 2025-12-13T23:31 | 15 | 1020 | 17.6 | 12.1 | 360 | 1 |
| 2025-12-13T23:31 | 50 | 1016 | 16 | 2 | ||
| 2025-12-13T23:31 | 91 | 1011 | 7 | 11 | ||
| 2025-12-13T23:32 | 263 | 991 | 16 | 15 | ||
| 2025-12-13T23:32 | 411 | 974 | 13.8 | 9.8 | ||
| 2025-12-13T23:32 | 450 | 969 | 20 | 16 | ||
| 2025-12-13T23:33 | 609 | 951 | 3 | 20 | ||
| 2025-12-13T23:33 | 802 | 930 | 10.4 | 8.7 | ||
| 2025-12-13T23:33 | 832 | 926 | 5 | 19 | ||
| 2025-12-13T23:34 | 1011 | 906 | 9.1 | 7.5 | ||
| 2025-12-13T23:34 | 1193 | 887 | 2 | 16 | ||
| 2025-12-13T23:35 | 1300 | 875 | 7.2 | 6.3 | ||
| 2025-12-13T23:35 | 1445 | 860 | 7.0 | 4.8 | ||
| 2025-12-13T23:35 | 1475 | 857 | 345 | 13 | ||
| 2025-12-13T23:35 | 1487 | 856 | 7.9 | 3.7 | ||
| 2025-12-13T23:36 | 1610 | 843 | 7.9 | 5.9 | ||
| 2025-12-13T23:36 | 1641 | 840 | 329 | 13 | ||
| 2025-12-13T23:36 | 1866 | 817 | 7.0 | 6.7 | ||
| 2025-12-13T23:36 | 1891 | 815 | 343 | 6 | ||
| 2025-12-13T23:37 | 1985 | 805 | 273 | 3 | ||
| 2025-12-13T23:37 | 2023 | 802 | 8.2 | 7.9 | ||
| 2025-12-13T23:37 | 2061 | 798 | 199 | 3 | ||
| 2025-12-13T23:37 | 2298 | 775 | 8.3 | 8.2 | ||
| 2025-12-13T23:38 | 2359 | 770 | 205 | 9 | ||
| 2025-12-13T23:39 | 2727 | 736 | 236 | 10 | ||
| 2025-12-13T23:40 | 3113 | 702 | 267 | 11 | ||
| 2025-12-13T23:40 | 3299 | 687 | 3.4 | 3.3 | ||
| 2025-12-13T23:41 | 3471 | 672 | 266 | 14 | ||
| 2025-12-13T23:41 | 3567 | 664 | 1.4 | 1.0 | ||
| 2025-12-13T23:42 | 3825 | 643 | 265 | 14 | ||
| 2025-12-13T23:42 | 3897 | 638 | -0.4 | -1.5 | ||
| 2025-12-13T23:42 | 3933 | 635 | -0.5 | -1.8 | ||
| 2025-12-13T23:42 | 4082 | 623 | -1.0 | -4.2 | ||
| 2025-12-13T23:43 | 4136 | 619 | 257 | 16 | ||
| 2025-12-13T23:43 | 4156 | 617 | -1.1 | -4.3 | ||
| 2025-12-13T23:43 | 4340 | 603 | -1.0 | -6.0 | ||
| 2025-12-13T23:44 | 4426 | 597 | 256 | 17 | ||
| 2025-12-13T23:44 | 4501 | 591 | -1.0 | -5.4 | ||
| 2025-12-13T23:44 | 4551 | 587 | -0.7 | -5.3 | ||
| 2025-12-13T23:44 | 4717 | 575 | 258 | 21 | ||
| 2025-12-13T23:45 | 4850 | 566 | -2.6 | -7.7 | ||
| 2025-12-13T23:45 | 5057 | 551 | 256 | 21 | ||
| 2025-12-13T23:46 | 5296 | 535 | -6.2 | -8.6 | ||
| 2025-12-13T23:46 | 5386 | 529 | 255 | 25 | ||
| 2025-12-13T23:47 | 5448 | 524 | -7.1 | -9.2 | ||
| 2025-12-13T23:47 | 5607 | 514 | -7.7 | -11.7 | ||
| 2025-12-13T23:47 | 5713 | 507 | 251 | 26 | ||
| 2025-12-13T23:48 | 5780 | 502 | -9.0 | -13.1 | ||
| 2025-12-13T23:48 | 5901 | 495 | -9.7 | -14.7 | ||
| 2025-12-13T23:48 | 6035 | 486 | 255 | 28 | ||
| 2025-12-13T23:49 | 6419 | 462 | 254 | 28 | ||
| 2025-12-13T23:50 | 6815 | 439 | 256 | 28 | ||
| 2025-12-13T23:51 | 6853 | 436 | -18.6 | -18.6 | ||
| 2025-12-13T23:51 | 6991 | 428 | -18.8 | -19.2 | ||
| 2025-12-13T23:51 | 7052 | 425 | 259 | 28 | ||
| 2025-12-13T23:52 | 7287 | 412 | -20.6 | -21.1 | ||
| 2025-12-13T23:52 | 7352 | 408 | -20.9 | -22.4 | ||
| 2025-12-13T23:52 | 7433 | 404 | -21.1 | -22.7 | ||
| 2025-12-13T23:52 | 7439 | 403 | 257 | 30 | ||
| 2025-12-13T23:53 | 7624 | 393 | -22.6 | -25.0 | ||
| 2025-12-13T23:53 | 7668 | 391 | 256 | 33 | ||
| 2025-12-13T23:53 | 7763 | 386 | -23.4 | -29.7 | ||
| 2025-12-13T23:54 | 7970 | 375 | 249 | 37 | ||
| 2025-12-13T23:54 | 8036 | 372 | -24.5 | -32.2 | ||
| 2025-12-13T23:54 | 8176 | 365 | -24.3 | -33.8 | ||
| 2025-12-13T23:55 | 8273 | 360 | 247 | 38 | ||
| 2025-12-13T23:56 | 8601 | 344 | 244 | 38 | ||
| 2025-12-13T23:56 | 8649 | 342 | -25.2 | -38.1 | ||
| 2025-12-13T23:57 | 8856 | 332 | -26.4 | -38.8 | ||
| 2025-12-13T23:57 | 8895 | 330 | 248 | 39 | ||
| 2025-12-13T23:58 | 9130 | 320 | -27.6 | -41.6 | ||
| 2025-12-13T23:58 | 9202 | 317 | 252 | 39 | ||
| 2025-12-13T23:59 | 9503 | 304 | 253 | 39 | ||
| 2025-12-13T23:59 | 9629 | 298 | -31.2 | -45.6 | ||
| 2025-12-14T00:00 | 9772 | 292 | 251 | 40 | ||
| 2025-12-14T00:00 | 9800 | 291 | -32.3 | -46.9 | ||
| 2025-12-14T00:00 | 9976 | 284 | -33.7 | -47.7 | ||
| 2025-12-14T00:01 | 10054 | 281 | 249 | 40 | ||
| 2025-12-14T00:01 | 10238 | 273 | -36.2 | -50.7 | ||
| 2025-12-14T00:02 | 10351 | 269 | 252 | 40 | ||
| 2025-12-14T00:03 | 10638 | 258 | 252 | 41 | ||
| 2025-12-14T00:03 | 10694 | 256 | -40.0 | -55.3 | ||
| 2025-12-14T00:04 | 10928 | 247 | 249 | 40 | ||
| 2025-12-14T00:04 | 11017 | 244 | -42.4 | |||
| 2025-12-14T00:05 | 11226 | 237 | 254 | 43 | ||
| 2025-12-14T00:06 | 11534 | 226 | 251 | 42 | ||
| 2025-12-14T00:07 | 11809 | 217 | 254 | 43 | ||
| 2025-12-14T00:07 | 11960 | 212 | -49.3 | |||
| 2025-12-14T00:08 | 12074 | 208 | 251 | 43 | ||
| 2025-12-14T00:09 | 12336 | 200 | 252 | 43 | ||
| 2025-12-14T00:10 | 12604 | 192 | 252 | 43 | ||
| 2025-12-14T00:10 | 12692 | 189 | -55.0 | |||
| 2025-12-14T00:11 | 12893 | 183 | 248 | 41 | ||
| 2025-12-14T00:12 | 13203 | 175 | 255 | 43 | ||
| 2025-12-14T00:13 | 13490 | 167 | 257 | 43 | ||
| 2025-12-14T00:14 | 13777 | 159 | 258 | 43 | ||
| 2025-12-14T00:15 | 14070 | 152 | 259 | 44 | ||
| 2025-12-14T00:15 | 14171 | 149 | -65.6 | |||
| 2025-12-14T00:16 | 14404 | 144 | 254 | 43 | ||
| 2025-12-14T00:17 | 14703 | 136 | 248 | 42 | ||
| 2025-12-14T00:17 | 14888 | 132 | -71.0 | |||
| 2025-12-14T00:18 | 14981 | 130 | 243 | 43 | ||
| 2025-12-14T00:18 | 15132 | 127 | -72.5 | |||
| 2025-12-14T00:19 | 15233 | 125 | -71.8 | |||
| 2025-12-14T00:19 | 15269 | 124 | 251 | 39 | ||
| 2025-12-14T00:20 | 15570 | 118 | 260 | 35 | ||
| 2025-12-14T00:20 | 15695 | 115 | -75.1 | |||
| 2025-12-14T00:21 | 15852 | 112 | 260 | 35 | ||
| 2025-12-14T00:22 | 16131 | 107 | 255 | 33 | ||
| 2025-12-14T00:22 | 16256 | 105 | -79.4 | |||
| 2025-12-14T00:23 | 16425 | 101 | 244 | 32 | ||
| 2025-12-14T00:24 | 16724 | 96 | 231 | 32 | ||
| 2025-12-14T00:24 | 16913 | 93 | -81.6 | |||
| 2025-12-14T00:25 | 17023 | 91 | 244 | 32 | ||
| 2025-12-14T00:25 | 17127 | 90 | -81.0 | |||
| 2025-12-14T00:26 | 17351 | 86 | 261 | 30 | ||
| 2025-12-14T00:26 | 17496 | 84 | -82.2 | |||
| 2025-12-14T00:27 | 17644 | 82 | 261 | 22 | ||
| 2025-12-14T00:27 | 17750 | 80 | -78.4 | |||
| 2025-12-14T00:27 | 17799 | 79 | 266 | 21 | ||
| 2025-12-14T00:28 | 17947 | 77 | 250 | 18 | ||
| 2025-12-14T00:28 | 17960 | 77 | -76.2 | |||
| 2025-12-14T00:29 | 18257 | 73 | 243 | 23 | ||
| 2025-12-14T00:29 | 18345 | 72 | -78.4 | |||
| 2025-12-14T00:30 | 18566 | 70 | 266 | 17 | ||
| 2025-12-14T00:30 | 18679 | 68 | -77.4 | |||
| 2025-12-14T00:30 | 18708 | 68 | 247 | 15 | ||
| 2025-12-14T00:31 | 18789 | 67 | -75.8 | |||
| 2025-12-14T00:31 | 18844 | 66 | 241 | 15 | ||
| 2025-12-14T00:31 | 18870 | 66 | -74.2 | |||
| 2025-12-14T00:31 | 19013 | 64 | 241 | 11 | ||
| 2025-12-14T00:31 | 19033 | 64 | -74.1 | |||
| 2025-12-14T00:32 | 19164 | 63 | 257 | 10 | ||
| 2025-12-14T00:32 | 19227 | 62 | -71.0 | |||
| 2025-12-14T00:33 | 19370 | 61 | 280 | 12 | ||
| 2025-12-14T00:33 | 19538 | 59 | 266 | 9 | ||
| 2025-12-14T00:33 | 19578 | 58 | -70.8 | |||
| 2025-12-14T00:34 | 19664 | 58 | -69.3 | |||
| 2025-12-14T00:34 | 19722 | 57 | -69.4 | 243 | 9 | |
| 2025-12-14T11:31 | 8 | 1022 | 17.4 | 9.3 | 20 | 6 |
| 2025-12-14T11:31 | 11 | 1022 | 17.6 | 9.2 | 20 | 1 |
| 2025-12-14T11:31 | 22 | 1020 | 347 | 3 | ||
| 2025-12-14T11:31 | 53 | 1017 | 18 | 8 | ||
| 2025-12-14T11:32 | 287 | 989 | 32 | 9 | ||
| 2025-12-14T11:33 | 617 | 951 | 20 | 11 | ||
| 2025-12-14T11:33 | 748 | 936 | 10.9 | 7.0 | ||
| 2025-12-14T11:34 | 968 | 912 | 21 | 13 | ||
| 2025-12-14T11:35 | 1261 | 880 | 16 | 14 | ||
| 2025-12-14T11:35 | 1270 | 879 | 6.3 | 5.1 | ||
| 2025-12-14T11:35 | 1307 | 875 | 6.9 | 3.9 | ||
| 2025-12-14T11:35 | 1349 | 871 | 9 | 12 | ||
| 2025-12-14T11:35 | 1425 | 863 | 9.8 | -2.8 | ||
| 2025-12-14T11:36 | 1468 | 858 | 10.7 | -5.3 | ||
| 2025-12-14T11:36 | 1512 | 854 | 11.8 | -7.6 | ||
| 2025-12-14T11:36 | 1552 | 850 | 316 | 6 | ||
| 2025-12-14T11:36 | 1563 | 849 | 12.1 | -1.4 | ||
| 2025-12-14T11:36 | 1624 | 842 | 11.7 | 2.4 | ||
| 2025-12-14T11:36 | 1692 | 836 | 298 | 6 | ||
| 2025-12-14T11:36 | 1703 | 835 | 11.3 | 1.8 | ||
| 2025-12-14T11:37 | 1796 | 825 | 299 | 5 | ||
| 2025-12-14T11:37 | 1823 | 823 | 10.6 | -0.5 | ||
| 2025-12-14T11:37 | 1895 | 816 | 296 | 5 | ||
| 2025-12-14T11:37 | 1967 | 808 | 10.2 | -10.0 | ||
| 2025-12-14T11:37 | 2049 | 800 | 334 | 7 | ||
| 2025-12-14T11:37 | 2102 | 795 | 10.4 | -37.2 | ||
| 2025-12-14T11:38 | 2222 | 784 | 10.0 | -44.1 | ||
| 2025-12-14T11:38 | 2368 | 770 | 341 | 10 | ||
| 2025-12-14T11:38 | 2407 | 767 | 8.9 | -38.2 | ||
| 2025-12-14T11:39 | 2512 | 757 | 319 | 8 | ||
| 2025-12-14T11:39 | 2666 | 743 | 7.6 | -27.8 | ||
| 2025-12-14T11:39 | 2689 | 741 | 292 | 7 | ||
| 2025-12-14T11:40 | 2767 | 734 | 9.1 | -34.0 | ||
| 2025-12-14T11:40 | 2784 | 732 | 268 | 5 | ||
| 2025-12-14T11:40 | 2919 | 720 | 271 | 4 | ||
| 2025-12-14T11:40 | 3007 | 713 | 269 | 5 | ||
| 2025-12-14T11:40 | 3082 | 706 | 307 | 5 | ||
| 2025-12-14T11:41 | 3160 | 699 | 5.9 | -31.0 | ||
| 2025-12-14T11:41 | 3196 | 696 | 295 | 7 | ||
| 2025-12-14T11:41 | 3297 | 688 | 5.2 | -31.5 | ||
| 2025-12-14T11:42 | 3522 | 669 | 307 | 10 | ||
| 2025-12-14T11:43 | 3803 | 646 | 312 | 13 | ||
| 2025-12-14T11:43 | 3866 | 641 | 1.9 | -33.9 | ||
| 2025-12-14T11:44 | 4135 | 620 | 307 | 12 | ||
| 2025-12-14T11:44 | 4292 | 608 | -1.9 | -33.3 | ||
| 2025-12-14T11:45 | 4441 | 597 | 290 | 14 | ||
| 2025-12-14T11:45 | 4624 | 583 | 272 | 15 | ||
| 2025-12-14T11:45 | 4636 | 582 | -3.0 | -37.5 | ||
| 2025-12-14T11:46 | 4734 | 575 | -2.4 | -29.9 | ||
| 2025-12-14T11:46 | 4775 | 572 | 271 | 21 | ||
| 2025-12-14T11:46 | 4808 | 570 | -2.8 | -26.6 | ||
| 2025-12-14T11:47 | 5048 | 552 | -4.8 | -21.4 | ||
| 2025-12-14T11:47 | 5105 | 548 | 262 | 19 | ||
| 2025-12-14T11:47 | 5226 | 540 | -6.3 | -21.9 | ||
| 2025-12-14T11:47 | 5306 | 534 | -6.8 | -26.0 | ||
| 2025-12-14T11:47 | 5355 | 531 | -7.0 | -20.2 | ||
| 2025-12-14T11:48 | 5429 | 526 | 255 | 21 | ||
| 2025-12-14T11:48 | 5470 | 523 | -7.6 | -21.8 | ||
| 2025-12-14T11:48 | 5598 | 515 | -7.7 | -19.6 | ||
| 2025-12-14T11:48 | 5661 | 511 | -8.3 | -14.9 | ||
| 2025-12-14T11:49 | 5772 | 503 | -9.3 | -13.9 | ||
| 2025-12-14T11:49 | 5777 | 503 | 250 | 26 | ||
| 2025-12-14T11:49 | 5848 | 498 | -9.9 | -15.2 | ||
| 2025-12-14T11:49 | 6018 | 487 | -11.1 | -16.8 | ||
| 2025-12-14T11:50 | 6033 | 487 | 253 | 24 | ||
| 2025-12-14T11:50 | 6213 | 475 | -13.0 | -15.6 | ||
| 2025-12-14T11:50 | 6273 | 472 | 255 | 26 | ||
| 2025-12-14T11:51 | 6409 | 463 | -14.2 | -15.9 | 255 | 27 |
| 2025-12-14T11:51 | 6593 | 452 | -15.3 | -17.5 | ||
| 2025-12-14T11:51 | 6682 | 447 | 253 | 30 | ||
| 2025-12-14T11:52 | 6864 | 436 | 252 | 31 | ||
| 2025-12-14T11:53 | 7060 | 425 | -19.5 | -19.9 | ||
| 2025-12-14T11:53 | 7152 | 419 | -18.9 | -21.3 | 259 | 31 |
| 2025-12-14T11:54 | 7289 | 412 | -19.0 | -23.1 | ||
| 2025-12-14T11:54 | 7376 | 407 | 260 | 32 | ||
| 2025-12-14T11:55 | 7620 | 394 | 259 | 32 | ||
| 2025-12-14T11:55 | 7678 | 391 | -22.2 | -25.1 | ||
| 2025-12-14T11:56 | 7774 | 386 | -22.5 | -26.6 | ||
| 2025-12-14T11:56 | 7900 | 379 | 258 | 35 | ||
| 2025-12-14T11:56 | 7948 | 377 | -22.4 | -31.3 | ||
| 2025-12-14T11:56 | 7994 | 374 | -21.1 | -36.4 | ||
| 2025-12-14T11:57 | 8040 | 372 | 254 | 39 | ||
| 2025-12-14T11:57 | 8180 | 365 | -21.5 | -40.1 | ||
| 2025-12-14T11:58 | 8284 | 360 | 254 | 40 | ||
| 2025-12-14T11:59 | 8568 | 346 | 259 | 41 | ||
| 2025-12-14T11:59 | 8586 | 345 | -25.1 | -41.1 | ||
| 2025-12-14T11:59 | 8710 | 339 | -25.6 | -43.0 | ||
| 2025-12-14T12:00 | 8845 | 333 | 256 | 42 | ||
| 2025-12-14T12:00 | 8906 | 330 | -26.0 | -45.0 | ||
| 2025-12-14T12:01 | 9109 | 321 | 254 | 42 | ||
| 2025-12-14T12:02 | 9369 | 310 | 252 | 42 | ||
| 2025-12-14T12:02 | 9443 | 306 | -30.6 | -47.2 | ||
| 2025-12-14T12:03 | 9628 | 298 | 250 | 42 | ||
| 2025-12-14T12:03 | 9703 | 295 | -32.3 | -50.3 | ||
| 2025-12-14T12:04 | 9881 | 288 | 251 | 43 | ||
| 2025-12-14T12:04 | 10027 | 282 | -34.9 | -49.2 | ||
| 2025-12-14T12:05 | 10147 | 277 | 249 | 44 | ||
| 2025-12-14T12:05 | 10169 | 276 | -35.2 | -51.7 | ||
| 2025-12-14T12:06 | 10400 | 267 | 246 | 44 | ||
| 2025-12-14T12:07 | 10661 | 257 | 247 | 45 | ||
| 2025-12-14T12:07 | 10729 | 255 | -40.0 | -53.2 | ||
| 2025-12-14T12:08 | 10945 | 247 | 247 | 44 | ||
| 2025-12-14T12:09 | 11275 | 235 | 251 | 44 | ||
| 2025-12-14T12:10 | 11534 | 226 | -47.1 | |||
| 2025-12-14T12:10 | 11543 | 226 | 254 | 45 | ||
| 2025-12-14T12:11 | 11809 | 217 | 255 | 45 | ||
| 2025-12-14T12:11 | 11851 | 215 | -48.9 | |||
| 2025-12-14T12:12 | 12061 | 208 | 257 | 45 | ||
| 2025-12-14T12:13 | 12312 | 200 | 254 | 46 | ||
| 2025-12-14T12:14 | 12571 | 193 | 258 | 46 | ||
| 2025-12-14T12:15 | 12820 | 185 | -56.1 | |||
| 2025-12-14T12:15 | 12833 | 185 | 259 | 46 | ||
| 2025-12-14T12:16 | 13100 | 177 | 263 | 47 | ||
| 2025-12-14T12:17 | 13369 | 170 | 263 | 46 | ||
| 2025-12-14T12:18 | 13630 | 163 | -62.1 | |||
| 2025-12-14T12:18 | 13639 | 162 | 260 | 47 | ||
| 2025-12-14T12:19 | 13906 | 156 | 253 | 47 | ||
| 2025-12-14T12:19 | 13933 | 155 | -64.0 | |||
| 2025-12-14T12:20 | 14166 | 149 | 252 | 48 | ||
| 2025-12-14T12:21 | 14430 | 143 | 253 | 47 | ||
| 2025-12-14T12:21 | 14590 | 139 | -68.6 | |||
| 2025-12-14T12:22 | 14711 | 136 | 256 | 43 | ||
| 2025-12-14T12:22 | 14769 | 135 | -69.3 | |||
| 2025-12-14T12:23 | 15005 | 130 | 258 | 42 | ||
| 2025-12-14T12:24 | 15281 | 124 | -73.4 | |||
| 2025-12-14T12:24 | 15291 | 123 | 252 | 39 | ||
| 2025-12-14T12:24 | 15433 | 121 | -73.3 | |||
| 2025-12-14T12:25 | 15624 | 117 | 250 | 37 | ||
| 2025-12-14T12:26 | 15882 | 112 | 242 | 37 | ||
| 2025-12-14T12:27 | 16156 | 106 | 243 | 39 | ||
| 2025-12-14T12:27 | 16191 | 106 | -79.5 | |||
| 2025-12-14T12:27 | 16400 | 102 | -80.9 | |||
| 2025-12-14T12:28 | 16452 | 101 | 241 | 37 | ||
| 2025-12-14T12:28 | 16626 | 98 | -78.6 | |||
| 2025-12-14T12:28 | 16673 | 97 | 245 | 34 | ||
| 2025-12-14T12:29 | 16714 | 96 | -78.1 | |||
| 2025-12-14T12:29 | 16993 | 92 | 252 | 34 | ||
| 2025-12-14T12:30 | 17150 | 89 | -80.8 | |||
| 2025-12-14T12:30 | 17340 | 86 | 272 | 26 | ||
| 2025-12-14T12:31 | 17576 | 83 | 252 | 22 | ||
| 2025-12-14T12:32 | 17729 | 81 | -78.9 | |||
| 2025-12-14T12:32 | 17765 | 80 | 246 | 24 | ||
| 2025-12-14T12:33 | 17960 | 77 | -76.9 | |||
| 2025-12-14T12:33 | 18013 | 77 | 271 | 18 | ||
| 2025-12-14T12:34 | 18297 | 73 | 252 | 16 | ||
| 2025-12-14T12:34 | 18491 | 71 | -76.9 | |||
| 2025-12-14T12:35 | 18530 | 70 | 254 | 18 | ||
| 2025-12-14T12:35 | 18708 | 68 | 243 | 19 | ||
| 2025-12-14T12:36 | 18892 | 66 | 246 | 18 | ||
| 2025-12-14T12:36 | 18926 | 65 | -72.4 | |||
| 2025-12-14T12:37 | 19137 | 63 | 257 | 13 | ||
| 2025-12-14T12:37 | 19223 | 62 | -71.8 | |||
| 2025-12-14T12:38 | 19337 | 61 | 230 | 8 | ||
| 2025-12-14T12:38 | 19446 | 60 | -69.2 | |||
| 2025-12-14T12:38 | 19485 | 60 | 280 | 13 | ||
| 2025-12-14T12:39 | 19537 | 59 | -68.8 | |||
| 2025-12-14T12:39 | 19702 | 57 | 292 | 12 | ||
| 2025-12-14T12:40 | 19959 | 55 | -67.1 | |||
| 2025-12-14T12:41 | 20117 | 54 | 293 | 11 | ||
| 2025-12-14T12:41 | 20138 | 53 | -66.1 | |||
| 2025-12-14T12:41 | 20344 | 52 | 292 | 9 | ||
| 2025-12-14T12:41 | 20473 | 51 | 285 | 5 | ||
| 2025-12-14T12:42 | 20645 | 49 | 256 | 9 | ||
| 2025-12-14T12:42 | 20880 | 47 | -68.2 | |||
| 2025-12-14T12:43 | 20932 | 47 | 267 | 6 | ||
| 2025-12-14T12:43 | 21036 | 46 | -64.1 | 299 | 5 | |
| 2025-12-14T12:43 | 21090 | 46 | 288 | 2 | ||
| 2025-12-14T12:43 | 21157 | 45 | 255 | 3 | ||
| 2025-12-14T12:44 | 21267 | 44 | 330 | 5 | ||
| 2025-12-14T12:44 | 21365 | 44 | -64.1 | |||
| 2025-12-14T12:44 | 21451 | 43 | 337 | 5 | ||
| 2025-12-14T12:45 | 21651 | 42 | -63.8 | |||
| 2025-12-14T12:45 | 21667 | 42 | 282 | 7 | ||
| 2025-12-14T12:45 | 21801 | 41 | 309 | 5 | ||
| 2025-12-14T12:46 | 21925 | 40 | 286 | 1 | ||
| 2025-12-14T12:46 | 22005 | 39 | -60.5 | |||
| 2025-12-14T12:46 | 22068 | 39 | 143 | 3 | ||
| 2025-12-14T12:47 | 22244 | 38 | 196 | 5 | ||
| 2025-12-14T12:47 | 22358 | 37 | -61.4 | |||
| 2025-12-14T12:47 | 22444 | 37 | 181 | 6 | ||
| 2025-12-14T12:48 | 22671 | 35 | 174 | 2 | ||
| 2025-12-14T12:48 | 22758 | 35 | 131 | 4 | ||
| 2025-12-14T12:49 | 22866 | 34 | -60.9 | |||
| 2025-12-14T12:49 | 22920 | 34 | 122 | 5 | ||
| 2025-12-14T12:49 | 23107 | 33 | 163 | 3 | ||
| 2025-12-14T12:50 | 23259 | 32 | 170 | 2 | ||
| 2025-12-14T12:50 | 23397 | 31 | 108 | 2 | ||
| 2025-12-14T12:51 | 23539 | 31 | 167 | 2 | ||
| 2025-12-14T12:51 | 23601 | 30 | -58.7 | |||
| 2025-12-14T12:52 | 23876 | 29 | 226 | 2 | ||
| 2025-12-14T12:52 | 24032 | 28 | -56.4 | |||
| 2025-12-14T12:52 | 24076 | 28 | 153 | 3 | ||
| 2025-12-14T12:53 | 24447 | 27 | 220 | 6 | ||
| 2025-12-14T12:54 | 24617 | 26 | -56.6 | |||
| 2025-12-14T12:54 | 24714 | 26 | 229 | 7 | ||
| 2025-12-14T12:55 | 24867 | 25 | 259 | 8 | ||
| 2025-12-14T12:55 | 25128 | 24 | 233 | 8 | ||
| 2025-12-14T12:56 | 25323 | 23 | 247 | 4 | ||
| 2025-12-14T12:56 | 25350 | 23 | -52.4 | |||
| 2025-12-14T12:56 | 25491 | 23 | 288 | 5 | ||
| 2025-12-14T12:57 | 25815 | 22 | 278 | 9 | ||
| 2025-12-14T12:58 | 26029 | 21 | 270 | 12 | ||
| 2025-12-14T12:59 | 26286 | 20 | -51.4 | |||
| 2025-12-14T12:59 | 26319 | 20 | 291 | 12 | ||
| 2025-12-14T13:00 | 26683 | 19 | 284 | 10 | ||
| 2025-12-14T13:01 | 27035 | 18 | 274 | 13 | ||
| 2025-12-14T13:02 | 27370 | 17 | 261 | 10 | ||
| 2025-12-14T13:02 | 27446 | 17 | -55.3 | |||
| 2025-12-14T13:03 | 27637 | 16 | 251 | 12 | ||
| 2025-12-14T13:03 | 27679 | 16 | -53.6 | |||
| 2025-12-14T13:04 | 28004 | 15 | 246 | 10 | ||
| 2025-12-14T13:04 | 28134 | 15 | 266 | 10 | ||
| 2025-12-14T13:05 | 28269 | 15 | -56.7 | 294 | 6 | |
| 2025-12-14T23:31 | 8 | 1022 | 17.9 | 9.8 | 20 | 4 |
| 2025-12-14T23:31 | 11 | 1022 | 18.0 | 10.4 | 64 | 1 |
| 2025-12-14T23:31 | 36 | 1019 | 329 | 4 | ||
| 2025-12-14T23:31 | 82 | 1014 | 17.5 | 9.7 | ||
| 2025-12-14T23:31 | 149 | 1006 | 30 | 8 | ||
| 2025-12-14T23:32 | 431 | 973 | 14.7 | 8.4 | ||
| 2025-12-14T23:32 | 457 | 970 | 32 | 10 | ||
| 2025-12-14T23:33 | 789 | 932 | 47 | 9 | ||
| 2025-12-14T23:34 | 1151 | 892 | 62 | 11 | ||
| 2025-12-14T23:35 | 1488 | 857 | 62 | 11 | ||
| 2025-12-14T23:36 | 1539 | 851 | 4.7 | 4.7 | ||
| 2025-12-14T23:36 | 1598 | 845 | 4.4 | 4.0 | ||
| 2025-12-14T23:36 | 1624 | 843 | 4.2 | -1.4 | ||
| 2025-12-14T23:36 | 1634 | 842 | 66 | 10 | ||
| 2025-12-14T23:36 | 1655 | 839 | 7.2 | -8.4 | ||
| 2025-12-14T23:36 | 1670 | 838 | 7.8 | -11.0 | ||
| 2025-12-14T23:36 | 1721 | 833 | 8.0 | -16.3 | ||
| 2025-12-14T23:36 | 1772 | 828 | 10.0 | -33.4 | ||
| 2025-12-14T23:37 | 1838 | 821 | 13 | 7 | ||
| 2025-12-14T23:37 | 1889 | 816 | 11.5 | -24.9 | ||
| 2025-12-14T23:37 | 1996 | 806 | 16 | 5 | ||
| 2025-12-14T23:37 | 2111 | 795 | 10.3 | -27.8 | ||
| 2025-12-14T23:37 | 2136 | 792 | 19 | 5 | ||
| 2025-12-14T23:38 | 2224 | 784 | 19 | 2 | ||
| 2025-12-14T23:38 | 2344 | 773 | 10.6 | -19.8 | 272 | 3 |
| 2025-12-14T23:38 | 2459 | 762 | 11.3 | -27.1 | 277 | 4 |
| 2025-12-14T23:39 | 2638 | 746 | 9.7 | -23.1 | 259 | 5 |
| 2025-12-14T23:39 | 2683 | 742 | 9.4 | -17.7 | ||
| 2025-12-14T23:39 | 2760 | 735 | 9.3 | -30.9 | ||
| 2025-12-14T23:39 | 2792 | 732 | 274 | 5 | ||
| 2025-12-14T23:40 | 2993 | 714 | 260 | 4 | ||
| 2025-12-14T23:40 | 3097 | 705 | 246 | 4 | ||
| 2025-12-14T23:41 | 3199 | 696 | 6.7 | -32.7 | ||
| 2025-12-14T23:41 | 3383 | 681 | 261 | 5 | ||
| 2025-12-14T23:42 | 3507 | 671 | 261 | 5 | ||
| 2025-12-14T23:42 | 3643 | 660 | 3.7 | -30.7 | ||
| 2025-12-14T23:42 | 3701 | 655 | 258 | 5 | ||
| 2025-12-14T23:43 | 3877 | 641 | 269 | 4 | ||
| 2025-12-14T23:43 | 4039 | 628 | 253 | 6 | ||
| 2025-12-14T23:44 | 4319 | 606 | -1.5 | -34.6 | ||
| 2025-12-14T23:44 | 4345 | 604 | 244 | 9 | ||
| 2025-12-14T23:45 | 4503 | 592 | -2.6 | -39.4 | ||
| 2025-12-14T23:45 | 4672 | 580 | 275 | 12 | ||
| 2025-12-14T23:46 | 4869 | 566 | -5.2 | -35.8 | ||
| 2025-12-14T23:46 | 4946 | 560 | 266 | 14 | ||
| 2025-12-14T23:47 | 5063 | 552 | -5.9 | -30.0 | ||
| 2025-12-14T23:47 | 5226 | 540 | 252 | 20 | ||
| 2025-12-14T23:47 | 5339 | 533 | -7.9 | -11.9 | ||
| 2025-12-14T23:48 | 5475 | 523 | -8.7 | -11.5 | ||
| 2025-12-14T23:48 | 5548 | 518 | -8.6 | -13.3 | ||
| 2025-12-14T23:48 | 5565 | 517 | 252 | 23 | ||
| 2025-12-14T23:48 | 5593 | 515 | -8.8 | -13.3 | ||
| 2025-12-14T23:48 | 5674 | 510 | -9.2 | -17.0 | ||
| 2025-12-14T23:49 | 5729 | 506 | -9.2 | -17.3 | ||
| 2025-12-14T23:49 | 5823 | 500 | -9.8 | -13.2 | ||
| 2025-12-14T23:49 | 5889 | 496 | 252 | 26 | ||
| 2025-12-14T23:49 | 5939 | 493 | -10.2 | -14.5 | ||
| 2025-12-14T23:50 | 6031 | 487 | -10.9 | -13.5 | ||
| 2025-12-14T23:50 | 6187 | 477 | -11.8 | -15.7 | ||
| 2025-12-14T23:50 | 6204 | 476 | 261 | 26 | ||
| 2025-12-14T23:50 | 6278 | 472 | -12.6 | -17.1 | ||
| 2025-12-14T23:51 | 6351 | 467 | -13.0 | -17.7 | ||
| 2025-12-14T23:51 | 6466 | 460 | -13.9 | -17.2 | ||
| 2025-12-14T23:51 | 6476 | 460 | 263 | 27 | ||
| 2025-12-14T23:52 | 6811 | 440 | 260 | 28 | ||
| 2025-12-14T23:52 | 6857 | 437 | -16.4 | -20.9 | ||
| 2025-12-14T23:53 | 7037 | 427 | -18.0 | -22.0 | ||
| 2025-12-14T23:53 | 7147 | 421 | 259 | 27 | ||
| 2025-12-14T23:53 | 7169 | 419 | -18.4 | -23.9 | ||
| 2025-12-14T23:54 | 7358 | 409 | -19.6 | -24.7 | ||
| 2025-12-14T23:54 | 7462 | 403 | -20.3 | -26.2 | 255 | 29 |
| 2025-12-14T23:54 | 7495 | 401 | -20.3 | -26.6 | ||
| 2025-12-14T23:54 | 7549 | 398 | -20.0 | -30.4 | ||
| 2025-12-14T23:55 | 7669 | 392 | -20.3 | -30.2 | ||
| 2025-12-14T23:55 | 7791 | 385 | 255 | 32 | ||
| 2025-12-14T23:55 | 7836 | 383 | -21.0 | -39.1 | ||
| 2025-12-14T23:55 | 7914 | 379 | -20.8 | -40.1 | ||
| 2025-12-14T23:56 | 8004 | 374 | 261 | 36 | ||
| 2025-12-14T23:56 | 8032 | 373 | -21.7 | -37.8 | ||
| 2025-12-14T23:56 | 8076 | 371 | -21.9 | -38.9 | ||
| 2025-12-14T23:56 | 8162 | 367 | -22.7 | -34.0 | ||
| 2025-12-14T23:57 | 8332 | 358 | 259 | 38 | ||
| 2025-12-14T23:57 | 8371 | 356 | -24.6 | -32.1 | ||
| 2025-12-14T23:58 | 8673 | 342 | 251 | 38 | ||
| 2025-12-14T23:58 | 8733 | 339 | -27.7 | -33.8 | ||
| 2025-12-14T23:58 | 8893 | 331 | -28.4 | -33.6 | ||
| 2025-12-14T23:59 | 8936 | 329 | 254 | 40 | ||
| 2025-12-14T23:59 | 8957 | 328 | -28.8 | -34.0 | ||
| 2025-12-14T23:59 | 9106 | 322 | -29.3 | -40.8 | ||
| 2025-12-15T00:00 | 9188 | 318 | 247 | 39 | ||
| 2025-12-15T00:00 | 9237 | 316 | -30.3 | -38.4 | ||
| 2025-12-15T00:00 | 9328 | 312 | -30.8 | -42.7 | ||
| 2025-12-15T00:00 | 9377 | 310 | -31.1 | -40.1 | ||
| 2025-12-15T00:01 | 9435 | 307 | 243 | 42 | ||
| 2025-12-15T00:01 | 9439 | 307 | -30.8 | -44.1 | ||
| 2025-12-15T00:01 | 9534 | 303 | -31.3 | -41.7 | ||
| 2025-12-15T00:02 | 9684 | 297 | 247 | 44 | ||
| 2025-12-15T00:02 | 9875 | 289 | -34.2 | -43.9 | ||
| 2025-12-15T00:03 | 9929 | 286 | -34.2 | -46.4 | ||
| 2025-12-15T00:03 | 9934 | 286 | 248 | 44 | ||
| 2025-12-15T00:03 | 10052 | 281 | -35.2 | -47.6 | ||
| 2025-12-15T00:04 | 10188 | 276 | 247 | 44 | ||
| 2025-12-15T00:04 | 10331 | 270 | -37.4 | -53.0 | ||
| 2025-12-15T00:05 | 10451 | 266 | 247 | 45 | ||
| 2025-12-15T00:05 | 10600 | 260 | -39.0 | -57.7 | ||
| 2025-12-15T00:06 | 10725 | 255 | 250 | 45 | ||
| 2025-12-15T00:06 | 10757 | 254 | -40.0 | -59.2 | ||
| 2025-12-15T00:07 | 10997 | 245 | 252 | 46 | ||
| 2025-12-15T00:07 | 11229 | 237 | -44.0 | |||
| 2025-12-15T00:08 | 11259 | 236 | 259 | 47 | ||
| 2025-12-15T00:08 | 11436 | 230 | -44.4 | |||
| 2025-12-15T00:09 | 11505 | 227 | 259 | 46 | ||
| 2025-12-15T00:10 | 11759 | 219 | 261 | 46 | ||
| 2025-12-15T00:11 | 12021 | 210 | 257 | 45 | ||
| 2025-12-15T00:12 | 12268 | 203 | 255 | 44 | ||
| 2025-12-15T00:13 | 12524 | 195 | 257 | 44 | ||
| 2025-12-15T00:13 | 12714 | 189 | -55.7 | |||
| 2025-12-15T00:14 | 12790 | 187 | 257 | 44 | ||
| 2025-12-15T00:15 | 13063 | 179 | 258 | 44 | ||
| 2025-12-15T00:16 | 13342 | 171 | 259 | 45 | ||
| 2025-12-15T00:16 | 13411 | 169 | -61.3 | |||
| 2025-12-15T00:17 | 13621 | 164 | 264 | 47 | ||
| 2025-12-15T00:18 | 13909 | 156 | 259 | 47 | ||
| 2025-12-15T00:18 | 13918 | 156 | -64.5 | |||
| 2025-12-15T00:19 | 14185 | 149 | 257 | 48 | ||
| 2025-12-15T00:20 | 14460 | 142 | 256 | 46 | ||
| 2025-12-15T00:20 | 14501 | 141 | -68.9 | |||
| 2025-12-15T00:21 | 14730 | 136 | 262 | 42 | ||
| 2025-12-15T00:21 | 14894 | 132 | -71.0 | |||
| 2025-12-15T00:22 | 15007 | 130 | 259 | 42 | ||
| 2025-12-15T00:23 | 15296 | 124 | 252 | 40 | ||
| 2025-12-15T00:23 | 15537 | 119 | -75.8 | |||
| 2025-12-15T00:24 | 15579 | 118 | 244 | 40 | ||
| 2025-12-15T00:25 | 15873 | 112 | 246 | 39 | ||
| 2025-12-15T00:25 | 15884 | 112 | -76.2 | |||
| 2025-12-15T00:25 | 16054 | 108 | 247 | 40 | ||
| 2025-12-15T00:25 | 16199 | 106 | 254 | 40 | ||
| 2025-12-15T00:26 | 16255 | 105 | -78.8 | |||
| 2025-12-15T00:26 | 16522 | 100 | 251 | 40 | ||
| 2025-12-15T00:27 | 16603 | 98 | -80.9 | |||
| 2025-12-15T00:27 | 16697 | 97 | -78.5 | |||
| 2025-12-15T00:27 | 16834 | 95 | 257 | 36 | ||
| 2025-12-15T00:28 | 17136 | 90 | 274 | 32 | ||
| 2025-12-15T00:29 | 17302 | 87 | -79.1 | |||
| 2025-12-15T00:29 | 17354 | 86 | 265 | 23 | ||
| 2025-12-15T00:30 | 17650 | 82 | 265 | 23 | ||
| 2025-12-15T00:31 | 17742 | 81 | -78.6 | |||
| 2025-12-15T00:31 | 17929 | 78 | -78.1 | |||
| 2025-12-15T00:31 | 17951 | 78 | 258 | 19 | ||
| 2025-12-15T00:32 | 18061 | 76 | -77.4 | |||
| 2025-12-15T00:32 | 18251 | 74 | 259 | 18 | ||
| 2025-12-15T00:32 | 18288 | 73 | -76.6 | |||
| 2025-12-15T00:33 | 18458 | 71 | -76.4 | |||
| 2025-12-15T00:33 | 18554 | 70 | 261 | 16 | ||
| 2025-12-15T00:34 | 18686 | 68 | -76.2 | |||
| 2025-12-15T00:34 | 18753 | 67 | 278 | 15 | ||
| 2025-12-15T00:34 | 18860 | 66 | -71.9 | |||
| 2025-12-15T00:34 | 18895 | 66 | 270 | 7 | ||
| 2025-12-15T00:35 | 19095 | 64 | 253 | 8 | ||
| 2025-12-15T00:36 | 19302 | 61 | 269 | 10 | ||
| 2025-12-15T00:37 | 19622 | 58 | -72.1 | |||
| 2025-12-15T00:37 | 19639 | 58 | 262 | 10 | ||
| 2025-12-15T00:37 | 19711 | 57 | -71.3 | |||
| 2025-12-15T00:37 | 19793 | 57 | 261 | 6 | ||
| 2025-12-15T00:38 | 19956 | 55 | 299 | 7 | ||
| 2025-12-15T00:38 | 20056 | 54 | 258 | 6 | ||
| 2025-12-15T00:38 | 20134 | 53 | -69.4 | |||
| 2025-12-15T00:38 | 20165 | 53 | 222 | 6 | ||
| 2025-12-15T00:39 | 20381 | 51 | -68.6 | |||
| 2025-12-15T00:39 | 20406 | 51 | 271 | 5 | ||
| 2025-12-15T00:40 | 20562 | 50 | 242 | 7 | ||
| 2025-12-15T00:40 | 20623 | 49 | -68.2 | |||
| 2025-12-15T00:41 | 20859 | 47 | 254 | 7 | ||
| 2025-12-15T00:41 | 20923 | 47 | -66.1 | 258 | 5 | |
| 2025-12-15T11:31 | 8 | 1021 | 19.2 | 12.9 | 50 | 3 |
| 2025-12-15T11:31 | 9 | 1021 | 19.2 | 12.5 | 0 | 0 |
| 2025-12-15T11:31 | 39 | 1017 | 62 | 3 | ||
| 2025-12-15T11:31 | 123 | 1008 | 19.8 | 11.6 | ||
| 2025-12-15T11:32 | 170 | 1002 | 72 | 7 | ||
| 2025-12-15T11:33 | 519 | 962 | 81 | 7 | ||
| 2025-12-15T11:33 | 851 | 925 | 93 | 6 | ||
| 2025-12-15T11:34 | 1174 | 890 | 102 | 5 | ||
| 2025-12-15T11:35 | 1428 | 863 | 8.1 | 6.9 | ||
| 2025-12-15T11:35 | 1478 | 858 | 132 | 5 | ||
| 2025-12-15T11:36 | 1730 | 832 | 6.4 | 5.4 | ||
| 2025-12-15T11:36 | 1787 | 827 | 6.6 | 5.4 | ||
| 2025-12-15T11:36 | 1804 | 825 | 7.2 | 2.9 | ||
| 2025-12-15T11:36 | 1809 | 824 | 177 | 6 | ||
| 2025-12-15T11:36 | 1832 | 822 | 9.4 | -5.7 | ||
| 2025-12-15T11:36 | 1899 | 815 | 11.1 | -20.6 | ||
| 2025-12-15T11:37 | 1922 | 813 | 99 | 5 | ||
| 2025-12-15T11:37 | 1956 | 810 | 11.5 | -24.9 | ||
| 2025-12-15T11:37 | 2182 | 788 | 178 | 7 | ||
| 2025-12-15T11:37 | 2224 | 784 | 10.3 | -24.1 | ||
| 2025-12-15T11:38 | 2336 | 774 | 10.5 | -25.7 | 180 | 5 |
| 2025-12-15T11:38 | 2377 | 770 | 10.4 | -16.9 | ||
| 2025-12-15T11:38 | 2430 | 765 | 10.5 | -22.5 | ||
| 2025-12-15T11:38 | 2517 | 757 | 182 | 4 | ||
| 2025-12-15T11:39 | 2640 | 746 | 8.2 | 2.2 | ||
| 2025-12-15T11:39 | 2687 | 742 | 212 | 2 | ||
| 2025-12-15T11:39 | 2704 | 740 | 8.0 | 2.5 | ||
| 2025-12-15T11:39 | 2804 | 731 | 165 | 3 | ||
| 2025-12-15T11:39 | 2827 | 729 | 7.3 | 1.6 | ||
| 2025-12-15T11:39 | 2906 | 722 | 183 | 3 | ||
| 2025-12-15T11:40 | 3099 | 705 | 5.4 | 1.0 | 213 | 5 |
| 2025-12-15T11:40 | 3240 | 693 | 5.2 | -8.7 | ||
| 2025-12-15T11:41 | 3330 | 686 | 229 | 5 | ||
| 2025-12-15T11:41 | 3389 | 681 | 4.6 | -14.8 | ||
| 2025-12-15T11:41 | 3488 | 673 | 232 | 6 | ||
| 2025-12-15T11:41 | 3500 | 672 | 4.9 | -22.2 | ||
| 2025-12-15T11:42 | 3766 | 650 | 3.4 | -32.8 | ||
| 2025-12-15T11:42 | 3836 | 644 | 226 | 8 | ||
| 2025-12-15T11:43 | 4060 | 627 | 1.6 | -22.3 | ||
| 2025-12-15T11:43 | 4191 | 617 | 265 | 13 | ||
| 2025-12-15T11:43 | 4227 | 614 | 1.3 | -21.1 | ||
| 2025-12-15T11:44 | 4551 | 590 | 266 | 18 | ||
| 2025-12-15T11:45 | 4898 | 564 | 257 | 18 | ||
| 2025-12-15T11:45 | 5075 | 552 | -5.3 | -19.4 | ||
| 2025-12-15T11:46 | 5207 | 542 | -6.1 | -14.8 | ||
| 2025-12-15T11:46 | 5242 | 540 | 250 | 21 | ||
| 2025-12-15T11:46 | 5271 | 538 | -6.3 | -17.1 | ||
| 2025-12-15T11:47 | 5547 | 519 | -8.4 | -14.4 | ||
| 2025-12-15T11:47 | 5575 | 518 | 259 | 23 | ||
| 2025-12-15T11:47 | 5650 | 513 | -9.1 | -12.4 | ||
| 2025-12-15T11:48 | 5899 | 496 | 249 | 26 | ||
| 2025-12-15T11:48 | 5922 | 495 | -10.9 | -13.5 | ||
| 2025-12-15T11:49 | 6177 | 479 | -12.9 | -13.9 | ||
| 2025-12-15T11:49 | 6263 | 473 | 256 | 25 | ||
| 2025-12-15T11:49 | 6347 | 468 | -14.0 | -15.3 | ||
| 2025-12-15T11:50 | 6474 | 460 | -14.8 | -16.5 | ||
| 2025-12-15T11:50 | 6601 | 453 | 254 | 30 | ||
| 2025-12-15T11:50 | 6687 | 447 | -16.1 | -18.0 | ||
| 2025-12-15T11:51 | 6950 | 432 | 253 | 30 | ||
| 2025-12-15T11:51 | 6985 | 430 | -18.6 | -20.4 | ||
| 2025-12-15T11:51 | 7026 | 428 | -18.7 | -22.2 | ||
| 2025-12-15T11:51 | 7080 | 425 | -17.8 | -34.4 | ||
| 2025-12-15T11:52 | 7231 | 416 | -18.9 | -37.3 | ||
| 2025-12-15T11:52 | 7307 | 412 | 253 | 33 | ||
| 2025-12-15T11:52 | 7466 | 403 | -20.2 | -29.8 | ||
| 2025-12-15T11:53 | 7571 | 397 | -20.9 | -27.0 | ||
| 2025-12-15T11:53 | 7719 | 390 | 257 | 37 | ||
| 2025-12-15T11:54 | 8059 | 372 | -25.3 | -26.5 | ||
| 2025-12-15T11:54 | 8164 | 367 | 256 | 38 | ||
| 2025-12-15T11:54 | 8310 | 359 | -27.5 | -27.9 | ||
| 2025-12-15T11:55 | 8423 | 354 | -28.0 | -29.3 | ||
| 2025-12-15T11:55 | 8455 | 352 | 255 | 39 | ||
| 2025-12-15T11:55 | 8465 | 352 | -27.0 | -32.4 | ||
| 2025-12-15T11:55 | 8607 | 345 | -26.7 | -32.3 | ||
| 2025-12-15T11:56 | 8708 | 340 | -26.7 | -34.9 | 249 | 45 |
| 2025-12-15T11:56 | 8843 | 334 | -26.9 | -37.0 | ||
| 2025-12-15T11:56 | 8983 | 327 | -27.7 | -37.2 | ||
| 2025-12-15T11:57 | 9041 | 325 | 244 | 46 | ||
| 2025-12-15T11:57 | 9081 | 323 | -28.4 | -38.3 | ||
| 2025-12-15T11:57 | 9253 | 315 | -29.6 | -40.8 | ||
| 2025-12-15T11:57 | 9317 | 312 | 241 | 45 | ||
| 2025-12-15T11:58 | 9341 | 311 | -29.3 | -46.7 | ||
| 2025-12-15T11:58 | 9556 | 302 | -30.3 | -51.3 | ||
| 2025-12-15T11:59 | 9637 | 299 | 248 | 46 | ||
| 2025-12-15T12:00 | 9988 | 284 | 252 | 46 | ||
| 2025-12-15T12:01 | 10321 | 271 | 254 | 45 | ||
| 2025-12-15T12:01 | 10541 | 262 | -38.3 | -59.4 | ||
| 2025-12-15T12:01 | 10661 | 258 | 255 | 45 | ||
| 2025-12-15T12:02 | 10773 | 254 | -40.0 | -65.3 | ||
| 2025-12-15T12:03 | 11003 | 245 | 258 | 45 | ||
| 2025-12-15T12:03 | 11170 | 239 | -43.1 | |||
| 2025-12-15T12:04 | 11294 | 235 | 259 | 46 | ||
| 2025-12-15T12:04 | 11544 | 226 | -45.7 | |||
| 2025-12-15T12:04 | 11562 | 225 | 255 | 45 | ||
| 2025-12-15T12:05 | 11829 | 217 | 260 | 45 | ||
| 2025-12-15T12:06 | 12092 | 208 | 258 | 45 | ||
| 2025-12-15T12:07 | 12360 | 200 | 261 | 48 | ||
| 2025-12-15T12:08 | 12636 | 191 | 265 | 47 | ||
| 2025-12-15T12:09 | 12899 | 183 | -56.1 | |||
| 2025-12-15T12:09 | 12918 | 183 | 266 | 47 | ||
| 2025-12-15T12:10 | 13204 | 175 | 265 | 48 | ||
| 2025-12-15T12:11 | 13505 | 166 | 264 | 49 | ||
| 2025-12-15T12:12 | 13878 | 157 | 257 | 48 | ||
| 2025-12-15T12:13 | 14036 | 153 | -65.1 | |||
| 2025-12-15T12:14 | 14200 | 149 | 258 | 49 | ||
| 2025-12-15T12:15 | 14504 | 141 | 255 | 48 | ||
| 2025-12-15T12:15 | 14615 | 139 | -69.1 | |||
| 2025-12-15T12:15 | 14806 | 134 | 262 | 45 | ||
| 2025-12-15T12:16 | 14877 | 133 | -70.3 | |||
| 2025-12-15T12:16 | 15108 | 128 | 262 | 43 | ||
| 2025-12-15T12:17 | 15264 | 124 | -73.4 | |||
| 2025-12-15T12:18 | 15410 | 121 | 269 | 38 | ||
| 2025-12-15T12:18 | 15425 | 121 | -73.9 | |||
| 2025-12-15T12:19 | 15701 | 115 | 267 | 36 | ||
| 2025-12-15T12:20 | 15985 | 110 | 263 | 36 | ||
| 2025-12-15T12:20 | 16227 | 105 | -80.2 | |||
| 2025-12-15T12:21 | 16265 | 104 | 258 | 35 | ||
| 2025-12-15T12:21 | 16536 | 100 | -77.6 | |||
| 2025-12-15T12:22 | 16555 | 99 | 258 | 33 | ||
| 2025-12-15T12:22 | 16824 | 95 | -77.2 | |||
| 2025-12-15T12:23 | 16856 | 94 | 264 | 25 | ||
| 2025-12-15T12:23 | 16997 | 92 | -76.4 | |||
| 2025-12-15T12:24 | 17150 | 89 | 260 | 23 | ||
| 2025-12-15T12:25 | 17449 | 85 | 250 | 20 | ||
| 2025-12-15T12:25 | 17579 | 83 | -79.8 | |||
| 2025-12-15T12:25 | 17725 | 81 | -80.1 | |||
| 2025-12-15T12:26 | 17732 | 81 | 239 | 21 | ||
| 2025-12-15T12:26 | 17816 | 80 | -79.0 | |||
| 2025-12-15T12:26 | 17918 | 78 | -78.2 | |||
| 2025-12-15T12:26 | 17961 | 78 | 248 | 19 | ||
| 2025-12-15T12:27 | 18258 | 74 | -77.2 | 264 | 19 | |
| 2025-12-15T12:28 | 18539 | 70 | 276 | 14 | ||
| 2025-12-15T12:28 | 18553 | 70 | -76.3 | |||
| 2025-12-15T12:29 | 18825 | 67 | 258 | 9 | ||
| 2025-12-15T12:29 | 18870 | 66 | -75.0 | |||
| 2025-12-15T12:30 | 19030 | 64 | 244 | 12 | ||
| 2025-12-15T12:30 | 19103 | 64 | -72.4 | |||
| 2025-12-15T12:31 | 19232 | 62 | 260 | 8 | ||
| 2025-12-15T12:31 | 19418 | 60 | 281 | 10 | ||
| 2025-12-15T12:32 | 19639 | 58 | -69.6 | |||
| 2025-12-15T12:32 | 19722 | 57 | 268 | 9 | ||
| 2025-12-15T12:33 | 19888 | 56 | 249 | 6 | ||
| 2025-12-15T12:33 | 19965 | 55 | -69.4 | |||
| 2025-12-15T12:33 | 19987 | 55 | 234 | 7 | ||
| 2025-12-15T12:34 | 20165 | 53 | 270 | 7 | ||
| 2025-12-15T12:34 | 20301 | 52 | 210 | 8 | ||
| 2025-12-15T12:35 | 20441 | 51 | -67.1 | |||
| 2025-12-15T12:35 | 20525 | 50 | 256 | 7 | ||
| 2025-12-15T12:36 | 20699 | 49 | 244 | 7 | ||
| 2025-12-15T12:36 | 20900 | 47 | 306 | 6 | ||
| 2025-12-15T12:37 | 21015 | 46 | 358 | 2 | ||
| 2025-12-15T12:37 | 21283 | 44 | -66.3 | |||
| 2025-12-15T12:38 | 21309 | 44 | 255 | 2 | ||
| 2025-12-15T12:38 | 21449 | 43 | 273 | 4 | ||
| 2025-12-15T12:38 | 21522 | 43 | 294 | 4 | ||
| 2025-12-15T12:39 | 21667 | 42 | 267 | 5 | ||
| 2025-12-15T12:39 | 21924 | 40 | -66.0 | |||
| 2025-12-15T12:40 | 22000 | 39 | 346 | 4 | ||
| 2025-12-15T12:40 | 22027 | 39 | 359 | 4 | ||
| 2025-12-15T12:40 | 22044 | 39 | 4 | 3 | ||
| 2025-12-15T12:40 | 22091 | 39 | 352 | 2 | ||
| 2025-12-15T12:40 | 22154 | 38 | 292 | 4 | ||
| 2025-12-15T12:40 | 22237 | 38 | -64.3 | |||
| 2025-12-15T12:41 | 22286 | 38 | 283 | 3 | ||
| 2025-12-15T12:41 | 22385 | 37 | 304 | 3 | ||
| 2025-12-15T12:41 | 22450 | 37 | -60.8 | |||
| 2025-12-15T12:41 | 22486 | 36 | 255 | 3 | ||
| 2025-12-15T12:41 | 22554 | 36 | 193 | 3 | ||
| 2025-12-15T12:42 | 22626 | 36 | 197 | 3 | ||
| 2025-12-15T12:42 | 22696 | 35 | 213 | 2 | ||
| 2025-12-15T12:42 | 22857 | 34 | 151 | 3 | ||
| 2025-12-15T12:43 | 22988 | 34 | 155 | 7 | ||
| 2025-12-15T12:43 | 23160 | 33 | 197 | 4 | ||
| 2025-12-15T12:43 | 23180 | 33 | -58.1 | |||
| 2025-12-15T12:44 | 23376 | 32 | 213 | 2 | ||
| 2025-12-15T12:44 | 23538 | 31 | 172 | 3 | ||
| 2025-12-15T12:45 | 23599 | 30 | -58.6 | |||
| 2025-12-15T12:45 | 23724 | 30 | 222 | 4 | ||
| 2025-12-15T12:46 | 23961 | 29 | -55.6 | |||
| 2025-12-15T12:46 | 24074 | 28 | 169 | 2 | ||
| 2025-12-15T12:46 | 24233 | 28 | 215 | 5 | ||
| 2025-12-15T12:47 | 24444 | 27 | 259 | 5 | ||
| 2025-12-15T12:47 | 24586 | 26 | 287 | 5 | ||
| 2025-12-15T12:48 | 24837 | 25 | 291 | 5 | ||
| 2025-12-15T12:48 | 24913 | 25 | -56.6 | |||
| 2025-12-15T12:48 | 24966 | 25 | 292 | 8 | ||
| 2025-12-15T12:49 | 25177 | 24 | 307 | 6 | ||
| 2025-12-15T12:49 | 25287 | 23 | -54.0 | |||
| 2025-12-15T12:50 | 25511 | 23 | 322 | 12 | ||
| 2025-12-15T12:50 | 25688 | 22 | 304 | 14 | ||
| 2025-12-15T12:51 | 25930 | 21 | 317 | 13 | ||
| 2025-12-15T12:52 | 26180 | 20 | 319 | 16 | ||
| 2025-12-15T12:53 | 26439 | 20 | -50.0 | |||
| 2025-12-15T12:53 | 26506 | 19 | 319 | 15 | ||
| 2025-12-15T12:54 | 26889 | 18 | 308 | 13 | ||
| 2025-12-15T12:55 | 27254 | 17 | 320 | 14 | ||
| 2025-12-15T12:56 | 27562 | 16 | 333 | 13 | ||
| 2025-12-15T12:56 | 27772 | 16 | -54.0 | 331 | 7 | |
| 2025-12-15T23:31 | 8 | 1020 | 20.6 | 15.8 | 80 | 5 |
| 2025-12-15T23:31 | 14 | 1019 | 20.5 | 16.1 | 125 | 2 |
| 2025-12-15T23:31 | 35 | 1017 | 115 | 3 | ||
| 2025-12-15T23:31 | 55 | 1014 | 84 | 6 | ||
| 2025-12-15T23:32 | 395 | 975 | 83 | 7 | ||
| 2025-12-15T23:32 | 505 | 963 | 16.3 | 13.2 | ||
| 2025-12-15T23:33 | 748 | 935 | 60 | 4 | ||
| 2025-12-15T23:34 | 1043 | 903 | 13.0 | 10.4 | ||
| 2025-12-15T23:34 | 1050 | 903 | 141 | 2 | ||
| 2025-12-15T23:35 | 1423 | 863 | 103 | 3 | ||
| 2025-12-15T23:35 | 1502 | 855 | 9.3 | 9.2 | ||
| 2025-12-15T23:36 | 1793 | 826 | 133 | 4 | ||
| 2025-12-15T23:37 | 2050 | 800 | 168 | 3 | ||
| 2025-12-15T23:37 | 2056 | 799 | 6.2 | 6.1 | ||
| 2025-12-15T23:37 | 2319 | 774 | 173 | 5 | ||
| 2025-12-15T23:37 | 2338 | 773 | 4.8 | 3.9 | ||
| 2025-12-15T23:38 | 2446 | 762 | 271 | 5 | ||
| 2025-12-15T23:39 | 2729 | 736 | 5.4 | -3.2 | ||
| 2025-12-15T23:39 | 2745 | 735 | 271 | 9 | ||
| 2025-12-15T23:39 | 2777 | 732 | 6.4 | -9.5 | ||
| 2025-12-15T23:39 | 2808 | 729 | 9.2 | -12.6 | ||
| 2025-12-15T23:39 | 2937 | 718 | 8.8 | -15.7 | ||
| 2025-12-15T23:40 | 3061 | 707 | 265 | 10 | ||
| 2025-12-15T23:40 | 3100 | 704 | 7.6 | -15.9 | ||
| 2025-12-15T23:40 | 3231 | 693 | 270 | 9 | ||
| 2025-12-15T23:40 | 3326 | 685 | 7.0 | -13.9 | ||
| 2025-12-15T23:41 | 3553 | 666 | 265 | 11 | ||
| 2025-12-15T23:42 | 3897 | 639 | 262 | 10 | ||
| 2025-12-15T23:43 | 4076 | 624 | 0.4 | -14.4 | ||
| 2025-12-15T23:43 | 4261 | 610 | 254 | 12 | ||
| 2025-12-15T23:44 | 4508 | 591 | 253 | 14 | ||
| 2025-12-15T23:44 | 4555 | 588 | -4.3 | -11.5 | ||
| 2025-12-15T23:44 | 4744 | 574 | -6.0 | -12.1 | ||
| 2025-12-15T23:44 | 4790 | 570 | -6.3 | -14.3 | ||
| 2025-12-15T23:45 | 4828 | 568 | 262 | 19 | ||
| 2025-12-15T23:45 | 4833 | 567 | -4.2 | -28.6 | ||
| 2025-12-15T23:45 | 4881 | 564 | -3.0 | -42.4 | ||
| 2025-12-15T23:45 | 4958 | 558 | 271 | 19 | ||
| 2025-12-15T23:46 | 5149 | 545 | -4.7 | -47.3 | ||
| 2025-12-15T23:46 | 5161 | 544 | 270 | 17 | ||
| 2025-12-15T23:46 | 5431 | 526 | -6.6 | -44.9 | ||
| 2025-12-15T23:47 | 5505 | 521 | 267 | 21 | ||
| 2025-12-15T23:47 | 5812 | 501 | -9.2 | -50.3 | ||
| 2025-12-15T23:48 | 5861 | 497 | 269 | 21 | ||
| 2025-12-15T23:48 | 6023 | 487 | -10.3 | -51.1 | ||
| 2025-12-15T23:49 | 6210 | 475 | 260 | 19 | ||
| 2025-12-15T23:49 | 6447 | 461 | 260 | 21 | ||
| 2025-12-15T23:50 | 6556 | 454 | -14.5 | -59.6 | ||
| 2025-12-15T23:50 | 6755 | 443 | 256 | 22 | ||
| 2025-12-15T23:51 | 7061 | 425 | 252 | 21 | ||
| 2025-12-15T23:51 | 7087 | 423 | -19.0 | -62.5 | ||
| 2025-12-15T23:52 | 7268 | 413 | 254 | 23 | ||
| 2025-12-15T23:53 | 7439 | 404 | -21.4 | -64.1 | ||
| 2025-12-15T23:53 | 7568 | 397 | 249 | 26 | ||
| 2025-12-15T23:53 | 7619 | 394 | -22.5 | -59.5 | ||
| 2025-12-15T23:54 | 7850 | 382 | -24.2 | -60.7 | ||
| 2025-12-15T23:54 | 7865 | 381 | 255 | 28 | ||
| 2025-12-15T23:55 | 8034 | 372 | -23.9 | -60.4 | ||
| 2025-12-15T23:55 | 8172 | 365 | 255 | 33 | ||
| 2025-12-15T23:55 | 8178 | 365 | -24.9 | -58.0 | ||
| 2025-12-15T23:56 | 8346 | 356 | -24.7 | -57.8 | ||
| 2025-12-15T23:56 | 8510 | 349 | 249 | 37 | ||
| 2025-12-15T23:57 | 8696 | 340 | -26.7 | -57.0 | ||
| 2025-12-15T23:57 | 8854 | 332 | 247 | 39 | ||
| 2025-12-15T23:57 | 8975 | 327 | -29.0 | -56.9 | ||
| 2025-12-15T23:58 | 9192 | 317 | 244 | 41 | ||
| 2025-12-15T23:58 | 9345 | 310 | -32.1 | -53.6 | ||
| 2025-12-15T23:59 | 9484 | 304 | -33.3 | -49.1 | ||
| 2025-12-15T23:59 | 9516 | 303 | 245 | 41 | ||
| 2025-12-15T23:59 | 9616 | 298 | -34.3 | -48.2 | ||
| 2025-12-16T00:00 | 9714 | 294 | -34.6 | -46.1 | ||
| 2025-12-16T00:00 | 9836 | 289 | 249 | 44 | ||
| 2025-12-16T00:00 | 9955 | 284 | -36.1 | -52.9 | ||
| 2025-12-16T00:01 | 10141 | 277 | -36.3 | -59.8 | ||
| 2025-12-16T00:01 | 10147 | 276 | 251 | 44 | ||
| 2025-12-16T00:02 | 10317 | 270 | -36.6 | -64.3 | ||
| 2025-12-16T00:02 | 10455 | 264 | 251 | 46 | ||
| 2025-12-16T00:03 | 10753 | 253 | 256 | 46 | ||
| 2025-12-16T00:03 | 10839 | 250 | -39.9 | -63.8 | ||
| 2025-12-16T00:04 | 10895 | 248 | -40.0 | -63.9 | ||
| 2025-12-16T00:04 | 11038 | 243 | 256 | 47 | ||
| 2025-12-16T00:05 | 11341 | 232 | 260 | 48 | ||
| 2025-12-16T00:06 | 11621 | 223 | -45.7 | |||
| 2025-12-16T00:06 | 11646 | 222 | 261 | 49 | ||
| 2025-12-16T00:07 | 11953 | 212 | 262 | 48 | ||
| 2025-12-16T00:08 | 12261 | 202 | 262 | 48 | ||
| 2025-12-16T00:09 | 12580 | 192 | 262 | 47 | ||
| 2025-12-16T00:10 | 12771 | 187 | -56.4 | |||
| 2025-12-16T00:10 | 12875 | 184 | 259 | 49 | ||
| 2025-12-16T00:11 | 13181 | 175 | 258 | 50 | ||
| 2025-12-16T00:12 | 13400 | 169 | -60.1 | |||
| 2025-12-16T00:12 | 13494 | 166 | 259 | 51 | ||
| 2025-12-16T00:13 | 13807 | 158 | 258 | 50 | ||
| 2025-12-16T00:14 | 14031 | 152 | -64.7 | |||
| 2025-12-16T00:14 | 14117 | 150 | 252 | 49 | ||
| 2025-12-16T00:15 | 14311 | 146 | -66.6 | |||
| 2025-12-16T00:15 | 14418 | 143 | 255 | 47 | ||
| 2025-12-16T00:15 | 14516 | 141 | -67.2 | |||
| 2025-12-16T00:16 | 14736 | 136 | 263 | 44 | ||
| 2025-12-16T00:17 | 15017 | 129 | 265 | 42 | ||
| 2025-12-16T00:18 | 15277 | 124 | 264 | 41 | ||
| 2025-12-16T00:18 | 15292 | 123 | -74.2 | |||
| 2025-12-16T00:19 | 15537 | 118 | 266 | 40 | ||
| 2025-12-16T00:19 | 15651 | 116 | -76.5 | |||
| 2025-12-16T00:20 | 15795 | 113 | 255 | 36 | ||
| 2025-12-16T00:21 | 16069 | 108 | -77.1 | 250 | 36 | |
| 2025-12-16T00:21 | 16186 | 106 | -75.1 | |||
| 2025-12-16T00:22 | 16374 | 102 | 256 | 30 | ||
| 2025-12-16T00:22 | 16440 | 101 | -75.4 | |||
| 2025-12-16T00:23 | 16698 | 97 | 273 | 27 | ||
| 2025-12-16T00:24 | 16914 | 93 | -77.5 | |||
| 2025-12-16T00:24 | 16983 | 92 | 263 | 23 | ||
| 2025-12-16T00:25 | 17212 | 88 | 252 | 22 | ||
| 2025-12-16T00:26 | 17323 | 87 | -79.7 | 247 | 22 | |
| 2025-12-16T11:31 | 8 | 1019 | 22.3 | 16.8 | 90 | 5 |
| 2025-12-16T11:31 | 13 | 1019 | 22.4 | 17.1 | 90 | 1 |
| 2025-12-16T11:31 | 32 | 1016 | 91 | 5 | ||
| 2025-12-16T11:31 | 51 | 1014 | 88 | 9 | ||
| 2025-12-16T11:32 | 219 | 995 | 21.0 | 16.0 | ||
| 2025-12-16T11:32 | 418 | 972 | 106 | 8 | ||
| 2025-12-16T11:33 | 758 | 934 | 103 | 8 | ||
| 2025-12-16T11:34 | 946 | 914 | 14.5 | 13.4 | ||
| 2025-12-16T11:34 | 1115 | 896 | 13.7 | 11.6 | 97 | 6 |
| 2025-12-16T11:35 | 1238 | 883 | 13.4 | 10.6 | ||
| 2025-12-16T11:35 | 1273 | 879 | 100 | 4 | ||
| 2025-12-16T11:35 | 1369 | 869 | 12.4 | 9.6 | ||
| 2025-12-16T11:35 | 1417 | 864 | 108 | 3 | ||
| 2025-12-16T11:35 | 1476 | 858 | 11.9 | 8.7 | ||
| 2025-12-16T11:35 | 1541 | 852 | 83 | 2 | ||
| 2025-12-16T11:36 | 1649 | 841 | 10.4 | 8.0 | ||
| 2025-12-16T11:36 | 1722 | 833 | 76 | 2 | ||
| 2025-12-16T11:36 | 1797 | 826 | 9.4 | 6.8 | ||
| 2025-12-16T11:37 | 1969 | 809 | 338 | 2 | ||
| 2025-12-16T11:37 | 2025 | 803 | 7.0 | 5.8 | ||
| 2025-12-16T11:37 | 2050 | 801 | 7.5 | 5.5 | ||
| 2025-12-16T11:37 | 2064 | 800 | 332 | 5 | ||
| 2025-12-16T11:37 | 2068 | 799 | 7.3 | 4.8 | ||
| 2025-12-16T11:37 | 2091 | 797 | 7.9 | 3.9 | ||
| 2025-12-16T11:38 | 2283 | 779 | 6.5 | 3.3 | ||
| 2025-12-16T11:38 | 2300 | 777 | 310 | 5 | ||
| 2025-12-16T11:38 | 2323 | 775 | 7.6 | 2.5 | ||
| 2025-12-16T11:38 | 2341 | 773 | 8.3 | 0.3 | ||
| 2025-12-16T11:38 | 2359 | 772 | 9.3 | -2.0 | ||
| 2025-12-16T11:38 | 2383 | 769 | 265 | 6 | ||
| 2025-12-16T11:38 | 2432 | 765 | 9.7 | -3.9 | ||
| 2025-12-16T11:39 | 2588 | 751 | 9.9 | -8.2 | ||
| 2025-12-16T11:39 | 2624 | 747 | 287 | 6 | ||
| 2025-12-16T11:39 | 2743 | 737 | 277 | 5 | ||
| 2025-12-16T11:40 | 2865 | 726 | 282 | 7 | ||
| 2025-12-16T11:40 | 2877 | 725 | 8.0 | -6.9 | ||
| 2025-12-16T11:41 | 3198 | 697 | 261 | 13 | ||
| 2025-12-16T11:41 | 3323 | 686 | 5.1 | -10.3 | ||
| 2025-12-16T11:41 | 3353 | 684 | 259 | 15 | ||
| 2025-12-16T11:41 | 3484 | 673 | 260 | 18 | ||
| 2025-12-16T11:42 | 3593 | 664 | 4.1 | -5.9 | ||
| 2025-12-16T11:42 | 3827 | 645 | 249 | 20 | ||
| 2025-12-16T11:43 | 3957 | 635 | 0.7 | -5.5 | ||
| 2025-12-16T11:43 | 4134 | 621 | 256 | 21 | ||
| 2025-12-16T11:43 | 4144 | 620 | -0.8 | -6.0 | ||
| 2025-12-16T11:44 | 4255 | 612 | -1.4 | -7.7 | ||
| 2025-12-16T11:44 | 4295 | 608 | -0.7 | -22.8 | ||
| 2025-12-16T11:44 | 4328 | 606 | -0.4 | -28.4 | ||
| 2025-12-16T11:44 | 4435 | 598 | 255 | 22 | ||
| 2025-12-16T11:44 | 4452 | 597 | -0.6 | -22.0 | ||
| 2025-12-16T11:45 | 4653 | 582 | -1.0 | -51.0 | ||
| 2025-12-16T11:45 | 4789 | 572 | 262 | 18 | ||
| 2025-12-16T11:46 | 4906 | 564 | -2.9 | -39.6 | ||
| 2025-12-16T11:46 | 5157 | 546 | 272 | 20 | ||
| 2025-12-16T11:46 | 5163 | 545 | -5.0 | -41.1 | ||
| 2025-12-16T11:47 | 5263 | 539 | -5.6 | -36.1 | ||
| 2025-12-16T11:47 | 5359 | 532 | -6.3 | -28.8 | ||
| 2025-12-16T11:47 | 5475 | 524 | -7.4 | -20.3 | ||
| 2025-12-16T11:47 | 5486 | 523 | 271 | 23 | ||
| 2025-12-16T11:48 | 5742 | 506 | -9.7 | -20.8 | ||
| 2025-12-16T11:48 | 5825 | 501 | 274 | 24 | ||
| 2025-12-16T11:48 | 5917 | 495 | -10.8 | -28.9 | ||
| 2025-12-16T11:49 | 6031 | 488 | -11.0 | -24.8 | ||
| 2025-12-16T11:49 | 6183 | 478 | -12.3 | -19.7 | ||
| 2025-12-16T11:49 | 6189 | 478 | 273 | 30 | ||
| 2025-12-16T11:50 | 6487 | 459 | -13.6 | -21.8 | ||
| 2025-12-16T11:50 | 6581 | 454 | 261 | 34 | ||
| 2025-12-16T11:51 | 6739 | 444 | 255 | 35 | ||
| 2025-12-16T11:51 | 6914 | 434 | -16.8 | -20.2 | ||
| 2025-12-16T11:52 | 7115 | 423 | 251 | 34 | ||
| 2025-12-16T11:52 | 7294 | 413 | -20.1 | -21.4 | ||
| 2025-12-16T11:52 | 7343 | 410 | -19.6 | -22.2 | ||
| 2025-12-16T11:53 | 7386 | 408 | -18.2 | -26.5 | ||
| 2025-12-16T11:53 | 7421 | 406 | 244 | 39 | ||
| 2025-12-16T11:53 | 7426 | 405 | -18.4 | -24.8 | ||
| 2025-12-16T11:53 | 7471 | 403 | -18.3 | -28.6 | ||
| 2025-12-16T11:53 | 7533 | 400 | -18.6 | -32.3 | ||
| 2025-12-16T11:53 | 7596 | 396 | -19.1 | -35.5 | ||
| 2025-12-16T11:54 | 7696 | 391 | 245 | 39 | ||
| 2025-12-16T11:54 | 7721 | 390 | -20.1 | -31.6 | ||
| 2025-12-16T11:54 | 7958 | 377 | -22.0 | -33.4 | ||
| 2025-12-16T11:55 | 8035 | 373 | 243 | 38 | ||
| 2025-12-16T11:55 | 8053 | 373 | -22.6 | -39.5 | ||
| 2025-12-16T11:55 | 8203 | 365 | -23.8 | -33.6 | ||
| 2025-12-16T11:55 | 8338 | 358 | -25.1 | -31.2 | ||
| 2025-12-16T11:56 | 8390 | 356 | 236 | 41 | ||
| 2025-12-16T11:56 | 8412 | 355 | -25.8 | -29.1 | ||
| 2025-12-16T11:56 | 8543 | 348 | -27.0 | -29.3 | ||
| 2025-12-16T11:56 | 8651 | 343 | -27.6 | -31.7 | ||
| 2025-12-16T11:57 | 8716 | 340 | 240 | 42 | ||
| 2025-12-16T11:57 | 8768 | 338 | -28.7 | -33.4 | ||
| 2025-12-16T11:57 | 8925 | 330 | -29.5 | -39.1 | ||
| 2025-12-16T11:58 | 9027 | 325 | -29.6 | -45.4 | 247 | 42 |
| 2025-12-16T11:58 | 9196 | 318 | -30.8 | -48.5 | ||
| 2025-12-16T11:59 | 9266 | 315 | 248 | 42 | ||
| 2025-12-16T11:59 | 9298 | 313 | -31.1 | -53.7 | ||
| 2025-12-16T12:00 | 9510 | 304 | -32.7 | -47.3 | ||
| 2025-12-16T12:00 | 9514 | 304 | 249 | 45 | ||
| 2025-12-16T12:00 | 9669 | 297 | -33.2 | -52.3 | ||
| 2025-12-16T12:01 | 9767 | 293 | 247 | 47 | ||
| 2025-12-16T12:01 | 9829 | 291 | -33.0 | -61.6 | ||
| 2025-12-16T12:02 | 10029 | 282 | 248 | 48 | ||
| 2025-12-16T12:03 | 10280 | 273 | 249 | 47 | ||
| 2025-12-16T12:04 | 10549 | 262 | 252 | 47 | ||
| 2025-12-16T12:04 | 10564 | 262 | -37.2 | -66.9 | ||
| 2025-12-16T12:05 | 10847 | 251 | -40.0 | -68.9 | ||
| 2025-12-16T12:05 | 10867 | 250 | 254 | 49 | ||
| 2025-12-16T12:06 | 11134 | 241 | 255 | 48 | ||
| 2025-12-16T12:06 | 11291 | 235 | -43.3 | |||
| 2025-12-16T12:07 | 11403 | 231 | 255 | 48 | ||
| 2025-12-16T12:08 | 11674 | 222 | 257 | 47 | ||
| 2025-12-16T12:09 | 11936 | 213 | 257 | 48 | ||
| 2025-12-16T12:10 | 12195 | 205 | 255 | 48 | ||
| 2025-12-16T12:10 | 12396 | 199 | -52.7 | |||
| 2025-12-16T12:11 | 12465 | 197 | 258 | 50 | ||
| 2025-12-16T12:12 | 12735 | 188 | 260 | 49 | ||
| 2025-12-16T12:13 | 12987 | 181 | 264 | 50 | ||
| 2025-12-16T12:14 | 13242 | 174 | 265 | 51 | ||
| 2025-12-16T12:14 | 13294 | 173 | -60.3 | |||
| 2025-12-16T12:15 | 13497 | 167 | 265 | 51 | ||
| 2025-12-16T12:16 | 13764 | 160 | 263 | 51 | ||
| 2025-12-16T12:16 | 13895 | 157 | -65.3 | |||
| 2025-12-16T12:17 | 14031 | 153 | 256 | 50 | ||
| 2025-12-16T12:18 | 14285 | 147 | 254 | 52 | ||
| 2025-12-16T12:18 | 14432 | 143 | -68.5 | |||
| 2025-12-16T12:19 | 14538 | 141 | 254 | 50 | ||
| 2025-12-16T12:19 | 14617 | 139 | -69.2 | |||
| 2025-12-16T12:20 | 14818 | 134 | 259 | 46 | ||
| 2025-12-16T12:20 | 14930 | 132 | -70.6 | |||
| 2025-12-16T12:21 | 15115 | 128 | 263 | 45 | ||
| 2025-12-16T12:22 | 15403 | 121 | 263 | 43 | ||
| 2025-12-16T12:23 | 15683 | 116 | 259 | 42 | ||
| 2025-12-16T12:23 | 15802 | 113 | -77.9 | |||
| 2025-12-16T12:24 | 15940 | 111 | 250 | 38 | ||
| 2025-12-16T12:24 | 15956 | 110 | -77.6 | |||
| 2025-12-16T12:24 | 16029 | 109 | -75.4 | |||
| 2025-12-16T12:24 | 16067 | 108 | 253 | 35 | ||
| 2025-12-16T12:25 | 16209 | 106 | -72.8 | |||
| 2025-12-16T12:25 | 16255 | 105 | 258 | 27 | ||
| 2025-12-16T12:26 | 16516 | 100 | 255 | 25 | ||
| 2025-12-16T12:27 | 16704 | 97 | 244 | 23 | ||
| 2025-12-16T12:28 | 16985 | 92 | 232 | 24 | ||
| 2025-12-16T12:29 | 17264 | 88 | 237 | 24 | ||
| 2025-12-16T12:29 | 17498 | 84 | -81.1 | |||
| 2025-12-16T12:30 | 17539 | 84 | 240 | 24 | ||
| 2025-12-16T12:30 | 17635 | 82 | -77.5 | |||
| 2025-12-16T12:31 | 17811 | 80 | 270 | 21 | ||
| 2025-12-16T12:32 | 18080 | 76 | 267 | 17 | ||
| 2025-12-16T12:32 | 18194 | 75 | -78.2 | |||
| 2025-12-16T12:33 | 18334 | 73 | -75.4 | |||
| 2025-12-16T12:33 | 18349 | 73 | 221 | 17 | ||
| 2025-12-16T12:33 | 18510 | 71 | 226 | 16 | ||
| 2025-12-16T12:34 | 18633 | 69 | -76.1 | |||
| 2025-12-16T12:34 | 18684 | 69 | 239 | 13 | ||
| 2025-12-16T12:34 | 18753 | 68 | -75.8 | |||
| 2025-12-16T12:35 | 18907 | 66 | -75.1 | |||
| 2025-12-16T12:35 | 18950 | 66 | 261 | 16 | ||
| 2025-12-16T12:35 | 19110 | 64 | -73.9 | |||
| 2025-12-16T12:36 | 19176 | 63 | 246 | 10 | ||
| 2025-12-16T12:36 | 19270 | 62 | -71.1 | |||
| 2025-12-16T12:37 | 19463 | 60 | 259 | 5 | ||
| 2025-12-16T12:37 | 19503 | 60 | -71.2 | |||
| 2025-12-16T12:37 | 19643 | 58 | 235 | 7 | ||
| 2025-12-16T12:38 | 19922 | 56 | -72.3 | |||
| 2025-12-16T12:38 | 19943 | 55 | 291 | 5 | ||
| 2025-12-16T12:39 | 20060 | 54 | 290 | 3 | ||
| 2025-12-16T12:39 | 20083 | 54 | -70.9 | |||
| 2025-12-16T12:39 | 20117 | 54 | 235 | 4 | ||
| 2025-12-16T12:39 | 20274 | 52 | 245 | 7 | ||
| 2025-12-16T12:40 | 20424 | 51 | 224 | 7 | ||
| 2025-12-16T12:41 | 20603 | 50 | 292 | 3 | ||
| 2025-12-16T12:41 | 20738 | 48 | -68.0 | |||
| 2025-12-16T12:41 | 20751 | 48 | 254 | 5 | ||
| 2025-12-16T12:41 | 20876 | 47 | -67.9 | |||
| 2025-12-16T12:42 | 20914 | 47 | 275 | 9 | ||
| 2025-12-16T12:42 | 21006 | 46 | -65.7 | |||
| 2025-12-16T12:43 | 21219 | 45 | 347 | 4 | ||
| 2025-12-16T12:43 | 21287 | 44 | 22 | 2 | ||
| 2025-12-16T12:43 | 21329 | 44 | -65.0 | |||
| 2025-12-16T12:43 | 21413 | 43 | 162 | 3 | ||
| 2025-12-16T12:44 | 21511 | 43 | 205 | 3 | ||
| 2025-12-16T12:44 | 21640 | 42 | 212 | 4 | ||
| 2025-12-16T12:45 | 21821 | 41 | 246 | 2 | ||
| 2025-12-16T12:45 | 21900 | 40 | 227 | 3 | ||
| 2025-12-16T12:45 | 21957 | 40 | 193 | 4 | ||
| 2025-12-16T12:45 | 22066 | 39 | -62.7 | |||
| 2025-12-16T12:45 | 22116 | 39 | 217 | 6 | ||
| 2025-12-16T12:46 | 22246 | 38 | -60.2 | |||
| 2025-12-16T12:46 | 22280 | 38 | 258 | 1 | ||
| 2025-12-16T12:47 | 22516 | 36 | 149 | 2 | ||
| 2025-12-16T12:47 | 22691 | 35 | 145 | 4 | ||
| 2025-12-16T12:48 | 23004 | 34 | 147 | 4 | ||
| 2025-12-16T12:49 | 23330 | 32 | 150 | 4 | ||
| 2025-12-16T12:50 | 23429 | 31 | 154 | 3 | ||
| 2025-12-16T12:50 | 23610 | 30 | -59.6 | |||
| 2025-12-16T12:50 | 23714 | 30 | 336 | 3 | ||
| 2025-12-16T12:51 | 23862 | 29 | 351 | 4 | ||
| 2025-12-16T12:51 | 23885 | 29 | 360 | 4 | ||
| 2025-12-16T12:51 | 23908 | 29 | 13 | 4 | ||
| 2025-12-16T12:51 | 24016 | 29 | 53 | 7 | ||
| 2025-12-16T12:52 | 24265 | 27 | 57 | 5 | ||
| 2025-12-16T12:52 | 24384 | 27 | 29 | 1 | ||
| 2025-12-16T12:53 | 24481 | 27 | -56.0 | |||
| 2025-12-16T12:53 | 24627 | 26 | 87 | 5 | ||
| 2025-12-16T12:54 | 24775 | 25 | 122 | 2 | ||
| 2025-12-16T12:54 | 24901 | 25 | 133 | 6 | ||
| 2025-12-16T12:55 | 25108 | 24 | 132 | 3 | ||
| 2025-12-16T12:55 | 25218 | 24 | 52 | 2 | ||
| 2025-12-16T12:55 | 25274 | 23 | 357 | 3 | ||
| 2025-12-16T12:56 | 25413 | 23 | 317 | 3 | ||
| 2025-12-16T12:56 | 25524 | 23 | 275 | 5 | ||
| 2025-12-16T12:56 | 25562 | 22 | -54.5 | 275 | 5 | |
| 2025-12-16T23:31 | 8 | 1019 | 23.1 | 17.3 | 110 | 4 |
| 2025-12-16T23:31 | 15 | 1018 | 23.1 | 17.8 | 0 | 0 |
| 2025-12-16T23:31 | 38 | 1016 | 119 | 3 | ||
| 2025-12-16T23:31 | 87 | 1010 | 110 | 5 | ||
| 2025-12-16T23:31 | 135 | 1004 | 22.5 | 17.2 | ||
| 2025-12-16T23:32 | 242 | 992 | 113 | 5 | ||
| 2025-12-16T23:33 | 562 | 956 | 117 | 6 | ||
| 2025-12-16T23:33 | 718 | 939 | 141 | 5 | ||
| 2025-12-16T23:33 | 728 | 938 | 16.9 | 14.9 | ||
| 2025-12-16T23:34 | 857 | 924 | 125 | 4 | ||
| 2025-12-16T23:34 | 906 | 918 | 15.7 | 12.3 | ||
| 2025-12-16T23:34 | 930 | 916 | 108 | 4 | ||
| 2025-12-16T23:34 | 1003 | 908 | 114 | 3 | ||
| 2025-12-16T23:35 | 1080 | 900 | 106 | 3 | ||
| 2025-12-16T23:35 | 1138 | 893 | 14.4 | 11.0 | ||
| 2025-12-16T23:35 | 1244 | 882 | 219 | 1 | ||
| 2025-12-16T23:36 | 1404 | 866 | 12.3 | 10.4 | 278 | 2 |
| 2025-12-16T23:36 | 1517 | 854 | 11.5 | 9.9 | 256 | 3 |
| 2025-12-16T23:36 | 1617 | 844 | 284 | 3 | ||
| 2025-12-16T23:37 | 1712 | 834 | 279 | 4 | ||
| 2025-12-16T23:37 | 1818 | 824 | 294 | 4 | ||
| 2025-12-16T23:37 | 1900 | 816 | 9.2 | 7.8 | 264 | 4 |
| 2025-12-16T23:38 | 2020 | 804 | 302 | 7 | ||
| 2025-12-16T23:38 | 2052 | 801 | 9.1 | 5.7 | ||
| 2025-12-16T23:38 | 2135 | 793 | 8.7 | 6.7 | ||
| 2025-12-16T23:39 | 2276 | 779 | 278 | 9 | ||
| 2025-12-16T23:39 | 2412 | 767 | 6.5 | 5.6 | ||
| 2025-12-16T23:39 | 2489 | 760 | 6.3 | 4.9 | ||
| 2025-12-16T23:39 | 2512 | 758 | 282 | 9 | ||
| 2025-12-16T23:40 | 2712 | 739 | 5.2 | 0.9 | ||
| 2025-12-16T23:40 | 2747 | 736 | 5.4 | -2.0 | ||
| 2025-12-16T23:40 | 2799 | 731 | 5.0 | 1.3 | ||
| 2025-12-16T23:40 | 2849 | 727 | 294 | 12 | ||
| 2025-12-16T23:41 | 3050 | 709 | 3.6 | 1.6 | ||
| 2025-12-16T23:41 | 3189 | 697 | 303 | 11 | ||
| 2025-12-16T23:42 | 3398 | 679 | 300 | 12 | ||
| 2025-12-16T23:42 | 3410 | 678 | 1.4 | -0.8 | ||
| 2025-12-16T23:42 | 3604 | 662 | 298 | 17 | ||
| 2025-12-16T23:43 | 3638 | 660 | 0.3 | -2.2 | ||
| 2025-12-16T23:43 | 3824 | 644 | -1.0 | -4.0 | ||
| 2025-12-16T23:43 | 3857 | 642 | 290 | 19 | ||
| 2025-12-16T23:43 | 3878 | 640 | -0.8 | -4.5 | ||
| 2025-12-16T23:44 | 3961 | 633 | 286 | 21 | ||
| 2025-12-16T23:44 | 4066 | 625 | -2.0 | -5.3 | ||
| 2025-12-16T23:44 | 4226 | 613 | -2.6 | -7.3 | ||
| 2025-12-16T23:45 | 4281 | 608 | 281 | 26 | ||
| 2025-12-16T23:45 | 4286 | 608 | -3.0 | -7.9 | ||
| 2025-12-16T23:45 | 4383 | 601 | -2.2 | -8.3 | ||
| 2025-12-16T23:45 | 4491 | 593 | -2.9 | -6.9 | ||
| 2025-12-16T23:46 | 4609 | 584 | 270 | 26 | ||
| 2025-12-16T23:46 | 4621 | 583 | -3.4 | -8.1 | ||
| 2025-12-16T23:46 | 4723 | 575 | -3.2 | -14.6 | ||
| 2025-12-16T23:46 | 4825 | 568 | 264 | 29 | ||
| 2025-12-16T23:47 | 5010 | 555 | -5.5 | -14.0 | ||
| 2025-12-16T23:47 | 5088 | 549 | -5.8 | -15.3 | ||
| 2025-12-16T23:47 | 5135 | 546 | -5.9 | -20.3 | ||
| 2025-12-16T23:47 | 5159 | 544 | 266 | 28 | ||
| 2025-12-16T23:48 | 5322 | 533 | -7.3 | -25.4 | ||
| 2025-12-16T23:48 | 5435 | 525 | -7.4 | -32.0 | ||
| 2025-12-16T23:48 | 5521 | 520 | 267 | 25 | ||
| 2025-12-16T23:48 | 5551 | 518 | -7.9 | -39.3 | ||
| 2025-12-16T23:49 | 5875 | 496 | 265 | 25 | ||
| 2025-12-16T23:50 | 6102 | 482 | -11.9 | -42.4 | ||
| 2025-12-16T23:50 | 6244 | 473 | 261 | 27 | ||
| 2025-12-16T23:51 | 6399 | 464 | -14.1 | -53.7 | ||
| 2025-12-16T23:51 | 6533 | 455 | -14.8 | -37.2 | ||
| 2025-12-16T23:51 | 6608 | 451 | -15.4 | -27.7 | 257 | 32 |
| 2025-12-16T23:51 | 6715 | 445 | -16.4 | -24.0 | ||
| 2025-12-16T23:52 | 6776 | 441 | -17.0 | -22.9 | ||
| 2025-12-16T23:52 | 6883 | 435 | -17.8 | -20.3 | ||
| 2025-12-16T23:52 | 6934 | 432 | -17.4 | -22.1 | ||
| 2025-12-16T23:52 | 6946 | 431 | 251 | 37 | ||
| 2025-12-16T23:52 | 7014 | 427 | -17.1 | -25.5 | ||
| 2025-12-16T23:53 | 7215 | 416 | -18.2 | -25.7 | ||
| 2025-12-16T23:53 | 7282 | 412 | 248 | 40 | ||
| 2025-12-16T23:53 | 7386 | 407 | -19.2 | -28.7 | ||
| 2025-12-16T23:54 | 7606 | 395 | 240 | 41 | ||
| 2025-12-16T23:54 | 7668 | 391 | -21.3 | -31.1 | ||
| 2025-12-16T23:55 | 7822 | 383 | -21.0 | -49.3 | ||
| 2025-12-16T23:55 | 7909 | 379 | 242 | 41 | ||
| 2025-12-16T23:56 | 8051 | 372 | -22.3 | -53.7 | ||
| 2025-12-16T23:56 | 8102 | 369 | -21.4 | -58.7 | ||
| 2025-12-16T23:56 | 8221 | 363 | 246 | 41 | ||
| 2025-12-16T23:57 | 8558 | 347 | -24.1 | -65.8 | ||
| 2025-12-16T23:57 | 8569 | 346 | 243 | 42 | ||
| 2025-12-16T23:58 | 8820 | 334 | -25.7 | -66.9 | ||
| 2025-12-16T23:58 | 8936 | 329 | 245 | 46 | ||
| 2025-12-16T23:59 | 9148 | 320 | -27.4 | -62.9 | ||
| 2025-12-16T23:59 | 9303 | 313 | 240 | 47 | ||
| 2025-12-17T00:00 | 9487 | 305 | -30.0 | -64.7 | ||
| 2025-12-17T00:00 | 9580 | 301 | -30.2 | -64.8 | ||
| 2025-12-17T00:00 | 9629 | 299 | 244 | 47 | ||
| 2025-12-17T00:01 | 9908 | 287 | 240 | 48 | ||
| 2025-12-17T00:02 | 10179 | 276 | 243 | 48 | ||
| 2025-12-17T00:03 | 10425 | 267 | 246 | 47 | ||
| 2025-12-17T00:04 | 10673 | 257 | 247 | 47 | ||
| 2025-12-17T00:05 | 10812 | 252 | -40.0 | -68.9 | ||
| 2025-12-17T00:05 | 10816 | 252 | -40.0 | -68.9 | ||
| 2025-12-17T00:05 | 10928 | 248 | 250 | 47 | ||
| 2025-12-17T00:06 | 11188 | 238 | 252 | 48 | ||
| 2025-12-17T00:07 | 11451 | 229 | 252 | 48 | ||
| 2025-12-17T00:08 | 11600 | 224 | -46.0 | |||
| 2025-12-17T00:08 | 11724 | 220 | 252 | 47 | ||
| 2025-12-17T00:09 | 12000 | 211 | 253 | 47 | ||
| 2025-12-17T00:10 | 12285 | 202 | 257 | 48 | ||
| 2025-12-17T00:11 | 12565 | 193 | 257 | 49 | ||
| 2025-12-17T00:12 | 12776 | 187 | -55.7 | |||
| 2025-12-17T00:12 | 12846 | 185 | 255 | 49 | ||
| 2025-12-17T00:13 | 13121 | 177 | 254 | 48 | ||
| 2025-12-17T00:14 | 13376 | 170 | 252 | 48 | ||
| 2025-12-17T00:15 | 13618 | 164 | 252 | 51 | ||
| 2025-12-17T00:15 | 13634 | 163 | -63.4 | |||
| 2025-12-17T00:16 | 13861 | 157 | 249 | 50 | ||
| 2025-12-17T00:17 | 14126 | 151 | 246 | 50 | ||
| 2025-12-17T00:18 | 14224 | 148 | -66.1 | |||
| 2025-12-17T00:18 | 14370 | 145 | -66.7 | |||
| 2025-12-17T00:18 | 14422 | 143 | 249 | 48 | ||
| 2025-12-17T00:19 | 14764 | 135 | 253 | 48 | ||
| 2025-12-17T00:20 | 15094 | 128 | 253 | 47 | ||
| 2025-12-17T00:21 | 15431 | 121 | 252 | 44 | ||
| 2025-12-17T00:22 | 15734 | 115 | 249 | 43 | ||
| 2025-12-17T00:22 | 15768 | 114 | -79.0 | |||
| 2025-12-17T00:23 | 16026 | 109 | 245 | 42 | ||
| 2025-12-17T00:24 | 16198 | 106 | -79.8 | |||
| 2025-12-17T00:24 | 16248 | 105 | 246 | 40 | ||
| 2025-12-17T00:24 | 16288 | 104 | -77.3 | |||
| 2025-12-17T00:25 | 16579 | 99 | 263 | 37 | ||
| 2025-12-17T00:25 | 16743 | 96 | -78.7 | |||
| 2025-12-17T00:26 | 16863 | 94 | 266 | 31 | ||
| 2025-12-17T00:27 | 17161 | 89 | 262 | 28 | ||
| 2025-12-17T00:28 | 17469 | 84 | 256 | 27 | ||
| 2025-12-17T00:28 | 17509 | 84 | -80.7 | |||
| 2025-12-17T00:29 | 17695 | 81 | -79.2 | |||
| 2025-12-17T00:29 | 17771 | 80 | 259 | 23 | ||
| 2025-12-17T00:29 | 17884 | 78 | -80.0 | |||
| 2025-12-17T00:30 | 18077 | 76 | 252 | 17 | ||
| 2025-12-17T00:31 | 18332 | 73 | -79.6 | |||
| 2025-12-17T00:31 | 18353 | 72 | 248 | 19 | ||
| 2025-12-17T00:31 | 18481 | 71 | -75.4 | |||
| 2025-12-17T00:32 | 18582 | 69 | -74.3 | 263 | 19 | |
| 2025-12-17T00:32 | 18642 | 69 | -71.1 | |||
| 2025-12-17T00:32 | 18694 | 68 | 269 | 14 | ||
| 2025-12-17T00:33 | 18926 | 66 | -70.1 | |||
| 2025-12-17T00:33 | 18934 | 65 | 260 | 12 | ||
| 2025-12-17T00:34 | 19230 | 62 | -71.5 | 308 | 8 | |
| 2025-12-17T00:34 | 19334 | 61 | -70.2 | |||
| 2025-12-17T00:34 | 19366 | 61 | 290 | 6 | ||
| 2025-12-17T00:35 | 19525 | 59 | -70.4 | |||
| 2025-12-17T00:35 | 19546 | 59 | 324 | 1 | ||
| 2025-12-17T00:35 | 19782 | 57 | 232 | 3 | ||
| 2025-12-17T00:35 | 19792 | 57 | -71.4 | |||
| 2025-12-17T00:36 | 20005 | 55 | 217 | 11 | ||
| 2025-12-17T00:37 | 20158 | 53 | -68.8 | |||
| 2025-12-17T00:37 | 20191 | 53 | 252 | 9 | ||
| 2025-12-17T00:37 | 20390 | 51 | 245 | 8 | ||
| 2025-12-17T00:37 | 20472 | 51 | -64.6 | |||
| 2025-12-17T00:38 | 20584 | 50 | 293 | 6 | ||
| 2025-12-17T00:38 | 20705 | 49 | -64.9 | 274 | 5 | |
| 2025-12-17T00:39 | 20847 | 48 | 188 | 6 | ||
| 2025-12-17T00:39 | 21015 | 46 | 172 | 11 | ||
| 2025-12-17T00:40 | 21298 | 44 | -63.9 | |||
| 2025-12-17T00:40 | 21313 | 44 | 227 | 6 | ||
| 2025-12-17T00:40 | 21454 | 43 | 254 | 3 | ||
| 2025-12-17T00:41 | 21656 | 42 | 0 | 0 | ||
| 2025-12-17T00:41 | 21762 | 41 | 122 | 3 | ||
| 2025-12-17T00:42 | 21943 | 40 | 155 | 1 | ||
| 2025-12-17T00:42 | 22097 | 39 | 336 | 4 | ||
| 2025-12-17T00:43 | 22213 | 38 | 346 | 4 | ||
| 2025-12-17T00:43 | 22395 | 37 | -63.7 | |||
| 2025-12-17T00:43 | 22461 | 37 | 89 | 2 | ||
| 2025-12-17T00:44 | 22665 | 35 | 264 | 3 | ||
| 2025-12-17T00:45 | 22858 | 34 | -62.3 | |||
| 2025-12-17T00:45 | 22896 | 34 | 338 | 1 | ||
| 2025-12-17T00:45 | 23044 | 33 | 263 | 3 | ||
| 2025-12-17T00:46 | 23255 | 32 | 329 | 6 | ||
| 2025-12-17T00:46 | 23414 | 31 | -58.4 | 349 | 5 | |
| 2025-12-17T00:46 | 23434 | 31 | 358 | 6 | ||
| 2025-12-17T00:46 | 23453 | 31 | 7 | 6 | ||
| 2025-12-17T00:47 | 23684 | 30 | 53 | 8 | ||
| 2025-12-17T00:48 | 23980 | 29 | 126 | 3 | ||
| 2025-12-17T00:48 | 24022 | 28 | -59.1 | |||
| 2025-12-17T00:49 | 24204 | 28 | 208 | 3 | ||
| 2025-12-17T00:49 | 24456 | 27 | 230 | 3 | ||
| 2025-12-17T00:50 | 24677 | 26 | 181 | 3 | ||
| 2025-12-17T00:50 | 24751 | 25 | 166 | 2 | ||
| 2025-12-17T00:50 | 24826 | 25 | 93 | 3 | ||
| 2025-12-17T00:51 | 25006 | 24 | 93 | 3 | ||
| 2025-12-17T00:51 | 25111 | 24 | -57.4 | |||
| 2025-12-17T00:51 | 25163 | 24 | 103 | 3 | ||
| 2025-12-17T00:52 | 25268 | 23 | 103 | 4 | ||
| 2025-12-17T00:52 | 25490 | 23 | 147 | 5 | ||
| 2025-12-17T00:53 | 25836 | 21 | -56.6 | 109 | 5 | |
| 2025-12-17T00:54 | 25928 | 21 | 101 | 4 | ||
| 2025-12-17T00:54 | 26050 | 21 | 154 | 2 | ||
| 2025-12-17T00:54 | 26206 | 20 | 83 | 3 | ||
| 2025-12-17T00:55 | 26368 | 20 | 99 | 1 | ||
| 2025-12-17T00:56 | 26600 | 19 | 272 | 3 | ||
| 2025-12-17T00:56 | 26739 | 19 | 274 | 6 | ||
| 2025-12-17T00:56 | 26877 | 18 | 287 | 6 | ||
| 2025-12-17T00:56 | 26913 | 18 | -52.5 | |||
| 2025-12-17T00:57 | 27022 | 18 | 280 | 2 | ||
| 2025-12-17T00:57 | 27209 | 17 | 357 | 2 | ||
| 2025-12-17T00:58 | 27404 | 17 | 273 | 3 | ||
| 2025-12-17T00:58 | 27561 | 16 | 310 | 3 | ||
| 2025-12-17T00:58 | 27639 | 16 | 328 | 3 | ||
| 2025-12-17T00:59 | 27724 | 16 | 290 | 2 | ||
| 2025-12-17T00:59 | 27807 | 16 | 250 | 3 | ||
| 2025-12-17T00:59 | 27847 | 16 | -49.7 | |||
| 2025-12-17T00:59 | 28017 | 15 | 276 | 7 | ||
| 2025-12-17T01:00 | 28147 | 15 | 278 | 4 | ||
| 2025-12-17T01:00 | 28198 | 15 | -50.4 | 278 | 5 | |
| 2025-12-17T11:31 | 8 | 1021 | 21.5 | 15.1 | 50 | 4 |
| 2025-12-17T11:31 | 15 | 1020 | 21.7 | 15.5 | 52 | 1 |
| 2025-12-17T11:31 | 67 | 1014 | 47 | 3 | ||
| 2025-12-17T11:31 | 142 | 1005 | 56 | 9 | ||
| 2025-12-17T11:32 | 197 | 999 | 21.7 | 14.1 | ||
| 2025-12-17T11:32 | 464 | 968 | 54 | 9 | ||
| 2025-12-17T11:33 | 761 | 935 | 48 | 9 | ||
| 2025-12-17T11:34 | 842 | 926 | 15.6 | 11.6 | ||
| 2025-12-17T11:34 | 1054 | 904 | 13.9 | 12.1 | ||
| 2025-12-17T11:34 | 1107 | 898 | 54 | 8 | ||
| 2025-12-17T11:35 | 1228 | 885 | 14.3 | 7.4 | ||
| 2025-12-17T11:35 | 1432 | 864 | 3 | 4 | ||
| 2025-12-17T11:35 | 1517 | 855 | 355 | 4 | ||
| 2025-12-17T11:36 | 1650 | 842 | 14 | 3 | ||
| 2025-12-17T11:36 | 1838 | 823 | 9.2 | 8.0 | ||
| 2025-12-17T11:37 | 1860 | 821 | 16 | 1 | ||
| 2025-12-17T11:37 | 1932 | 814 | 9.0 | 7.3 | ||
| 2025-12-17T11:38 | 2190 | 789 | 323 | 1 | ||
| 2025-12-17T11:38 | 2196 | 788 | 7.3 | 5.4 | ||
| 2025-12-17T11:38 | 2363 | 772 | 6.1 | 3.6 | ||
| 2025-12-17T11:38 | 2412 | 768 | 304 | 3 | ||
| 2025-12-17T11:39 | 2542 | 756 | 7.0 | -5.0 | ||
| 2025-12-17T11:39 | 2574 | 753 | 7.2 | -6.5 | ||
| 2025-12-17T11:39 | 2615 | 749 | 7.6 | -6.5 | ||
| 2025-12-17T11:39 | 2620 | 749 | 312 | 10 | ||
| 2025-12-17T11:39 | 2702 | 741 | 7.1 | -4.3 | ||
| 2025-12-17T11:39 | 2749 | 737 | 6.9 | -1.0 | 301 | 13 |
| 2025-12-17T11:40 | 2960 | 718 | 5.4 | -0.4 | ||
| 2025-12-17T11:40 | 2990 | 716 | 285 | 9 | ||
| 2025-12-17T11:40 | 3058 | 710 | 5.4 | 0.0 | ||
| 2025-12-17T11:41 | 3274 | 691 | 246 | 10 | ||
| 2025-12-17T11:41 | 3327 | 687 | 3.3 | -0.5 | ||
| 2025-12-17T11:41 | 3429 | 678 | 3.5 | -2.0 | ||
| 2025-12-17T11:41 | 3435 | 678 | 268 | 13 | ||
| 2025-12-17T11:42 | 3665 | 659 | 2.0 | -3.9 | ||
| 2025-12-17T11:42 | 3774 | 650 | 271 | 15 | ||
| 2025-12-17T11:43 | 3870 | 642 | 0.0 | -5.6 | ||
| 2025-12-17T11:43 | 3965 | 635 | 281 | 16 | ||
| 2025-12-17T11:43 | 4162 | 619 | -2.7 | -7.8 | ||
| 2025-12-17T11:44 | 4252 | 612 | -2.9 | -11.9 | ||
| 2025-12-17T11:44 | 4310 | 608 | 265 | 16 | ||
| 2025-12-17T11:44 | 4355 | 604 | -3.3 | -11.8 | ||
| 2025-12-17T11:44 | 4503 | 593 | -3.8 | -10.9 | ||
| 2025-12-17T11:45 | 4614 | 585 | 247 | 17 | ||
| 2025-12-17T11:45 | 4718 | 577 | -5.3 | -13.2 | ||
| 2025-12-17T11:46 | 4849 | 567 | 245 | 19 | ||
| 2025-12-17T11:46 | 4869 | 566 | -5.5 | -25.5 | ||
| 2025-12-17T11:46 | 4914 | 563 | -4.8 | -38.8 | ||
| 2025-12-17T11:46 | 4964 | 559 | 249 | 14 | ||
| 2025-12-17T11:46 | 5086 | 550 | -5.6 | -41.5 | ||
| 2025-12-17T11:47 | 5298 | 536 | 265 | 19 | ||
| 2025-12-17T11:48 | 5499 | 522 | -8.0 | -39.4 | ||
| 2025-12-17T11:48 | 5658 | 511 | 270 | 23 | ||
| 2025-12-17T11:49 | 5924 | 494 | -10.5 | -36.3 | ||
| 2025-12-17T11:49 | 6012 | 488 | 269 | 24 | ||
| 2025-12-17T11:50 | 6366 | 466 | 267 | 27 | ||
| 2025-12-17T11:50 | 6404 | 464 | -14.6 | -39.6 | ||
| 2025-12-17T11:51 | 6661 | 448 | -14.5 | -50.5 | ||
| 2025-12-17T11:51 | 6751 | 443 | 253 | 31 | ||
| 2025-12-17T11:52 | 7027 | 427 | 249 | 32 | ||
| 2025-12-17T11:52 | 7059 | 425 | -15.6 | -54.7 | ||
| 2025-12-17T11:52 | 7313 | 411 | 249 | 36 | ||
| 2025-12-17T11:53 | 7477 | 402 | -18.4 | -56.6 | ||
| 2025-12-17T11:53 | 7600 | 396 | 247 | 36 | ||
| 2025-12-17T11:54 | 7756 | 387 | -19.9 | -48.4 | ||
| 2025-12-17T11:54 | 7837 | 383 | -20.0 | -40.0 | ||
| 2025-12-17T11:54 | 7934 | 378 | 237 | 40 | ||
| 2025-12-17T11:54 | 7945 | 378 | -20.7 | -40.0 | ||
| 2025-12-17T11:55 | 8081 | 371 | -21.7 | -37.8 | ||
| 2025-12-17T11:55 | 8232 | 363 | -22.4 | -36.7 | ||
| 2025-12-17T11:55 | 8263 | 362 | 230 | 41 | ||
| 2025-12-17T11:56 | 8567 | 347 | 230 | 41 | ||
| 2025-12-17T11:57 | 8670 | 342 | -25.8 | -41.3 | ||
| 2025-12-17T11:57 | 8785 | 337 | -25.7 | -46.8 | ||
| 2025-12-17T11:57 | 8859 | 333 | -26.2 | -40.4 | ||
| 2025-12-17T11:57 | 8877 | 333 | 237 | 44 | ||
| 2025-12-17T11:58 | 8996 | 327 | -27.4 | -42.7 | ||
| 2025-12-17T11:58 | 9098 | 322 | -27.7 | -57.7 | ||
| 2025-12-17T11:58 | 9152 | 320 | 240 | 43 | ||
| 2025-12-17T11:59 | 9305 | 313 | -29.1 | -61.0 | ||
| 2025-12-17T11:59 | 9437 | 308 | 243 | 43 | ||
| 2025-12-17T12:00 | 9508 | 304 | -29.6 | -64.4 | ||
| 2025-12-17T12:00 | 9708 | 296 | 245 | 41 | ||
| 2025-12-17T12:01 | 10040 | 282 | 250 | 42 | ||
| 2025-12-17T12:02 | 10316 | 271 | 250 | 43 | ||
| 2025-12-17T12:03 | 10574 | 261 | 253 | 42 | ||
| 2025-12-17T12:04 | 10678 | 257 | -40.0 | -63.9 | ||
| 2025-12-17T12:04 | 10837 | 251 | 254 | 42 | ||
| 2025-12-17T12:05 | 11111 | 241 | 257 | 43 | ||
| 2025-12-17T12:06 | 11206 | 238 | -44.1 | |||
| 2025-12-17T12:06 | 11396 | 231 | 261 | 46 | ||
| 2025-12-17T12:07 | 11665 | 222 | -46.5 | |||
| 2025-12-17T12:07 | 11679 | 222 | 260 | 47 | ||
| 2025-12-17T12:08 | 11987 | 212 | 257 | 50 | ||
| 2025-12-17T12:09 | 12305 | 202 | 257 | 49 | ||
| 2025-12-17T12:10 | 12620 | 192 | 255 | 48 | ||
| 2025-12-17T12:10 | 12641 | 191 | -55.6 | |||
| 2025-12-17T12:11 | 12926 | 183 | 255 | 49 | ||
| 2025-12-17T12:11 | 12965 | 182 | -58.2 | |||
| 2025-12-17T12:12 | 13211 | 175 | 257 | 51 | ||
| 2025-12-17T12:13 | 13489 | 167 | 254 | 52 | ||
| 2025-12-17T12:14 | 13754 | 160 | -63.6 | |||
| 2025-12-17T12:14 | 13758 | 160 | 253 | 52 | ||
| 2025-12-17T12:15 | 13928 | 156 | -64.7 | |||
| 2025-12-17T12:15 | 14026 | 153 | 250 | 51 | ||
| 2025-12-17T12:16 | 14144 | 150 | -65.0 | |||
| 2025-12-17T12:16 | 14302 | 146 | 251 | 48 | ||
| 2025-12-17T12:17 | 14578 | 140 | 253 | 47 | ||
| 2025-12-17T12:18 | 14853 | 133 | 253 | 47 | ||
| 2025-12-17T12:19 | 15134 | 127 | 253 | 47 | ||
| 2025-12-17T12:20 | 15357 | 122 | -75.7 | |||
| 2025-12-17T12:20 | 15418 | 121 | 248 | 44 | ||
| 2025-12-17T12:21 | 15564 | 118 | -76.0 | |||
| 2025-12-17T12:21 | 15701 | 115 | 248 | 43 | ||
| 2025-12-17T12:22 | 15997 | 109 | 247 | 40 | ||
| 2025-12-17T12:22 | 16047 | 109 | -77.4 | |||
| 2025-12-17T12:23 | 16251 | 105 | -77.4 | |||
| 2025-12-17T12:23 | 16266 | 104 | 253 | 37 | ||
| 2025-12-17T12:23 | 16351 | 103 | -76.1 | |||
| 2025-12-17T12:24 | 16555 | 99 | 258 | 31 | ||
| 2025-12-17T12:25 | 16720 | 97 | 249 | 29 | ||
| 2025-12-17T12:25 | 16773 | 96 | -78.2 | |||
| 2025-12-17T12:26 | 16954 | 93 | -77.6 | |||
| 2025-12-17T12:26 | 16993 | 92 | 253 | 32 | ||
| 2025-12-17T12:27 | 17271 | 88 | 261 | 30 | ||
| 2025-12-17T12:28 | 17571 | 83 | 267 | 26 | ||
| 2025-12-17T12:28 | 17703 | 81 | -79.3 | |||
| 2025-12-17T12:29 | 17796 | 80 | 264 | 19 | ||
| 2025-12-17T12:29 | 17859 | 79 | -78.8 | |||
| 2025-12-17T12:29 | 17925 | 78 | -77.1 | |||
| 2025-12-17T12:30 | 18073 | 76 | -76.3 | 245 | 20 | |
| 2025-12-17T12:31 | 18352 | 73 | 251 | 21 | ||
| 2025-12-17T12:31 | 18415 | 72 | -78.1 | |||
| 2025-12-17T12:31 | 18610 | 69 | 265 | 19 | ||
| 2025-12-17T12:32 | 18752 | 68 | -77.3 | |||
| 2025-12-17T12:32 | 18857 | 66 | 260 | 16 | ||
| 2025-12-17T12:33 | 18997 | 65 | -74.1 | |||
| 2025-12-17T12:33 | 19044 | 64 | 248 | 16 | ||
| 2025-12-17T12:33 | 19078 | 64 | -70.6 | |||
| 2025-12-17T12:34 | 19317 | 61 | 234 | 13 | ||
| 2025-12-17T12:35 | 19595 | 59 | 263 | 8 | ||
| 2025-12-17T12:35 | 19788 | 57 | 240 | 9 | ||
| 2025-12-17T12:36 | 19895 | 56 | -70.9 | |||
| 2025-12-17T12:36 | 19949 | 55 | 236 | 12 | ||
| 2025-12-17T12:36 | 20065 | 54 | -69.7 | |||
| 2025-12-17T12:37 | 20164 | 53 | 247 | 12 | ||
| 2025-12-17T12:37 | 20256 | 52 | -67.9 | |||
| 2025-12-17T12:37 | 20409 | 51 | 239 | 9 | ||
| 2025-12-17T12:37 | 20445 | 51 | -64.2 | |||
| 2025-12-17T12:38 | 20639 | 49 | 189 | 8 | ||
| 2025-12-17T12:39 | 20842 | 48 | 215 | 8 | ||
| 2025-12-17T12:39 | 21050 | 46 | 227 | 6 | ||
| 2025-12-17T12:40 | 21132 | 45 | 301 | 7 | ||
| 2025-12-17T12:40 | 21322 | 44 | -63.9 | |||
| 2025-12-17T12:40 | 21376 | 44 | 352 | 6 | ||
| 2025-12-17T12:41 | 21520 | 43 | 10 | 3 | ||
| 2025-12-17T12:42 | 21738 | 41 | 142 | 3 | ||
| 2025-12-17T12:43 | 22045 | 39 | 212 | 5 | ||
| 2025-12-17T12:43 | 22235 | 38 | 170 | 5 | ||
| 2025-12-17T12:43 | 22301 | 38 | -64.6 | |||
| 2025-12-17T12:44 | 22501 | 36 | 193 | 5 | ||
| 2025-12-17T12:44 | 22638 | 36 | 198 | 6 | ||
| 2025-12-17T12:45 | 22728 | 35 | -59.6 | |||
| 2025-12-17T12:45 | 22819 | 35 | 236 | 7 | ||
| 2025-12-17T12:46 | 23059 | 33 | 274 | 4 | ||
| 2025-12-17T12:46 | 23248 | 32 | 266 | 1 | ||
| 2025-12-17T12:47 | 23365 | 32 | 168 | 3 | ||
| 2025-12-17T12:47 | 23564 | 31 | -61.2 | |||
| 2025-12-17T12:47 | 23586 | 31 | 192 | 8 | ||
| 2025-12-17T12:48 | 23922 | 29 | 267 | 7 | ||
| 2025-12-17T12:48 | 23989 | 29 | -56.8 | |||
| 2025-12-17T12:49 | 24188 | 28 | 300 | 7 | ||
| 2025-12-17T12:49 | 24283 | 27 | -55.8 | |||
| 2025-12-17T12:50 | 24352 | 27 | 296 | 2 | ||
| 2025-12-17T12:50 | 24568 | 26 | -54.0 | |||
| 2025-12-17T12:50 | 24644 | 26 | 122 | 3 | ||
| 2025-12-17T12:51 | 24771 | 25 | 131 | 5 | ||
| 2025-12-17T12:51 | 24899 | 25 | 119 | 5 | ||
| 2025-12-17T12:52 | 25027 | 24 | 121 | 3 | ||
| 2025-12-17T12:52 | 25133 | 24 | 44 | 3 | ||
| 2025-12-17T12:52 | 25271 | 23 | 51 | 3 | ||
| 2025-12-17T12:53 | 25438 | 23 | 351 | 2 | ||
| 2025-12-17T12:54 | 25723 | 22 | 237 | 4 | ||
| 2025-12-17T12:54 | 26026 | 21 | -55.2 | 293 | 5 | |
| 2025-12-17T12:55 | 26243 | 20 | 333 | 4 | ||
| 2025-12-17T12:55 | 26308 | 20 | -55.2 | 314 | 2 | |
| 2025-12-17T12:56 | 26606 | 19 | 333 | 2 | ||
| 2025-12-17T12:56 | 26776 | 19 | -54.3 | 352 | 3 | |
| 2025-12-17T12:58 | 27132 | 18 | 336 | 1 | ||
| 2025-12-17T12:58 | 27354 | 17 | 336 | 3 | ||
| 2025-12-17T12:58 | 27469 | 17 | -52.9 | 307 | 6 | |
| 2025-12-17T23:31 | 8 | 1021 | 22.5 | 15.1 | 70 | 5 |
| 2025-12-17T23:31 | 13 | 1020 | 22.5 | 15.4 | 87 | 1 |
| 2025-12-17T23:31 | 91 | 1011 | 78 | 7 | ||
| 2025-12-17T23:32 | 243 | 994 | 20.8 | 14.2 | ||
| 2025-12-17T23:32 | 429 | 973 | 71 | 11 | ||
| 2025-12-17T23:33 | 769 | 935 | 72 | 10 | ||
| 2025-12-17T23:34 | 863 | 925 | 15.0 | 11.8 | ||
| 2025-12-17T23:34 | 964 | 913 | 14.6 | 9.4 | ||
| 2025-12-17T23:34 | 1122 | 897 | 84 | 9 | ||
| 2025-12-17T23:35 | 1349 | 873 | 11.4 | 10.5 | ||
| 2025-12-17T23:35 | 1476 | 859 | 81 | 6 | ||
| 2025-12-17T23:35 | 1506 | 856 | 11.0 | 8.8 | ||
| 2025-12-17T23:36 | 1674 | 839 | 60 | 5 | ||
| 2025-12-17T23:36 | 1794 | 827 | 47 | 4 | ||
| 2025-12-17T23:36 | 1800 | 827 | 9.8 | 8.6 | ||
| 2025-12-17T23:37 | 2017 | 805 | 8.5 | 7.1 | ||
| 2025-12-17T23:37 | 2117 | 796 | 8 | 3 | ||
| 2025-12-17T23:38 | 2433 | 766 | 5.5 | 5.2 | ||
| 2025-12-17T23:38 | 2459 | 763 | 292 | 2 | ||
| 2025-12-17T23:38 | 2572 | 753 | 6.2 | 4.0 | ||
| 2025-12-17T23:38 | 2599 | 750 | 254 | 5 | ||
| 2025-12-17T23:38 | 2678 | 743 | 6.3 | 3.1 | ||
| 2025-12-17T23:39 | 2757 | 736 | 6.9 | 2.0 | ||
| 2025-12-17T23:39 | 2949 | 719 | 284 | 8 | ||
| 2025-12-17T23:39 | 3045 | 711 | 6.1 | -0.6 | ||
| 2025-12-17T23:40 | 3336 | 686 | 262 | 10 | ||
| 2025-12-17T23:40 | 3386 | 682 | 3.2 | -1.7 | ||
| 2025-12-17T23:41 | 3584 | 665 | 2.2 | -3.9 | ||
| 2025-12-17T23:41 | 3698 | 656 | 254 | 14 | ||
| 2025-12-17T23:42 | 3976 | 634 | -1.1 | -6.3 | ||
| 2025-12-17T23:42 | 4052 | 628 | 251 | 14 | ||
| 2025-12-17T23:43 | 4207 | 616 | -2.9 | -7.6 | ||
| 2025-12-17T23:43 | 4249 | 612 | -2.6 | -9.1 | ||
| 2025-12-17T23:43 | 4338 | 606 | -2.7 | -11.4 | ||
| 2025-12-17T23:43 | 4398 | 601 | -3.0 | -11.7 | ||
| 2025-12-17T23:43 | 4425 | 599 | 262 | 11 | ||
| 2025-12-17T23:43 | 4432 | 598 | -2.1 | -14.5 | ||
| 2025-12-17T23:43 | 4525 | 591 | -2.2 | -21.6 | ||
| 2025-12-17T23:44 | 4590 | 587 | 261 | 13 | ||
| 2025-12-17T23:44 | 4619 | 584 | -2.1 | -27.8 | ||
| 2025-12-17T23:44 | 4879 | 566 | -2.8 | -35.5 | ||
| 2025-12-17T23:45 | 5016 | 556 | 258 | 18 | ||
| 2025-12-17T23:45 | 5189 | 544 | -5.3 | -34.5 | ||
| 2025-12-17T23:45 | 5267 | 539 | 250 | 19 | ||
| 2025-12-17T23:46 | 5570 | 518 | -8.4 | -34.7 | ||
| 2025-12-17T23:46 | 5597 | 516 | 252 | 21 | ||
| 2025-12-17T23:47 | 5908 | 496 | 257 | 22 | ||
| 2025-12-17T23:48 | 6137 | 481 | -13.1 | -40.5 | ||
| 2025-12-17T23:48 | 6227 | 475 | 254 | 21 | ||
| 2025-12-17T23:48 | 6254 | 474 | -13.6 | -43.6 | ||
| 2025-12-17T23:49 | 6327 | 469 | -13.3 | -47.1 | ||
| 2025-12-17T23:49 | 6554 | 455 | 252 | 24 | ||
| 2025-12-17T23:49 | 6618 | 452 | -14.3 | -50.4 | ||
| 2025-12-17T23:50 | 6909 | 434 | 249 | 24 | ||
| 2025-12-17T23:51 | 7251 | 415 | 249 | 26 | ||
| 2025-12-17T23:51 | 7285 | 413 | -19.8 | -54.3 | ||
| 2025-12-17T23:52 | 7393 | 407 | -20.2 | -54.6 | ||
| 2025-12-17T23:52 | 7608 | 395 | 244 | 28 | ||
| 2025-12-17T23:52 | 7690 | 391 | -22.0 | -50.0 | ||
| 2025-12-17T23:53 | 7963 | 377 | 240 | 31 | ||
| 2025-12-17T23:53 | 8046 | 372 | -22.9 | -56.5 | ||
| 2025-12-17T23:54 | 8132 | 368 | -22.9 | -65.0 | ||
| 2025-12-17T23:54 | 8264 | 362 | 243 | 35 | ||
| 2025-12-17T23:55 | 8548 | 348 | -25.1 | -66.5 | ||
| 2025-12-17T23:55 | 8552 | 347 | 246 | 38 | ||
| 2025-12-17T23:56 | 8859 | 333 | -26.9 | -67.7 | ||
| 2025-12-17T23:56 | 8864 | 333 | 246 | 40 | ||
| 2025-12-17T23:57 | 8961 | 328 | -27.0 | -67.7 | ||
| 2025-12-17T23:57 | 9158 | 320 | -27.4 | -62.9 | ||
| 2025-12-17T23:57 | 9185 | 318 | 239 | 41 | ||
| 2025-12-17T23:58 | 9524 | 304 | 246 | 42 | ||
| 2025-12-17T23:59 | 9629 | 299 | -30.8 | -65.3 | ||
| 2025-12-17T23:59 | 9868 | 289 | 249 | 42 | ||
| 2025-12-18T00:00 | 10195 | 276 | -35.1 | -63.2 | ||
| 2025-12-18T00:00 | 10200 | 276 | 253 | 42 | ||
| 2025-12-18T00:01 | 10495 | 264 | 257 | 44 | ||
| 2025-12-18T00:02 | 10818 | 252 | 255 | 46 | ||
| 2025-12-18T00:02 | 10839 | 251 | -40.0 | -62.7 | ||
| 2025-12-18T00:03 | 11106 | 242 | 253 | 47 | ||
| 2025-12-18T00:04 | 11383 | 232 | 253 | 47 | ||
| 2025-12-18T00:05 | 11652 | 223 | 254 | 46 | ||
| 2025-12-18T00:06 | 11925 | 214 | 254 | 46 | ||
| 2025-12-18T00:07 | 12081 | 209 | -51.4 | |||
| 2025-12-18T00:07 | 12201 | 205 | 253 | 48 | ||
| 2025-12-18T00:08 | 12481 | 196 | 254 | 50 | ||
| 2025-12-18T00:09 | 12628 | 192 | -55.8 | |||
| 2025-12-18T00:09 | 12765 | 188 | 253 | 49 | ||
| 2025-12-18T00:10 | 12918 | 183 | -58.1 | |||
| 2025-12-18T00:10 | 13041 | 180 | 250 | 51 | ||
| 2025-12-18T00:11 | 13315 | 172 | 246 | 51 | ||
| 2025-12-18T00:12 | 13599 | 164 | 242 | 50 | ||
| 2025-12-18T00:12 | 13653 | 163 | -63.0 | |||
| 2025-12-18T00:13 | 13849 | 158 | -64.1 | |||
| 2025-12-18T00:13 | 13923 | 156 | 239 | 51 | ||
| 2025-12-18T00:14 | 14336 | 145 | 248 | 49 | ||
| 2025-12-18T00:15 | 14578 | 140 | -69.8 | |||
| 2025-12-18T00:15 | 14707 | 137 | 252 | 46 | ||
| 2025-12-18T00:16 | 15012 | 130 | 253 | 45 | ||
| 2025-12-18T00:17 | 15303 | 123 | 252 | 43 | ||
| 2025-12-18T00:18 | 15436 | 121 | -77.4 | |||
| 2025-12-18T00:18 | 15525 | 119 | -76.4 | |||
| 2025-12-18T00:18 | 15586 | 117 | 255 | 42 | ||
| 2025-12-18T00:19 | 15787 | 113 | -78.5 | |||
| 2025-12-18T00:19 | 15859 | 112 | 252 | 40 | ||
| 2025-12-18T00:20 | 16044 | 108 | -78.0 | |||
| 2025-12-18T00:20 | 16130 | 107 | 250 | 37 | ||
| 2025-12-18T00:20 | 16153 | 106 | -77.9 | |||
| 2025-12-18T00:21 | 16386 | 102 | -78.2 | |||
| 2025-12-18T00:21 | 16415 | 101 | 261 | 35 | ||
| 2025-12-18T00:22 | 16564 | 99 | -77.9 | |||
| 2025-12-18T00:22 | 16718 | 96 | 251 | 28 | ||
| 2025-12-18T00:23 | 17008 | 91 | -79.2 | |||
| 2025-12-18T00:23 | 17028 | 91 | 243 | 27 | ||
| 2025-12-18T00:24 | 17338 | 86 | 245 | 30 | ||
| 2025-12-18T00:25 | 17473 | 84 | -80.1 | |||
| 2025-12-18T00:25 | 17540 | 83 | 256 | 28 | ||
| 2025-12-18T00:26 | 17727 | 81 | 242 | 24 | ||
| 2025-12-18T00:26 | 17790 | 80 | -79.1 | |||
| 2025-12-18T00:26 | 18009 | 77 | 253 | 26 | ||
| 2025-12-18T00:27 | 18221 | 74 | -77.8 | |||
| 2025-12-18T00:27 | 18290 | 73 | 274 | 25 | ||
| 2025-12-18T00:28 | 18548 | 70 | -75.6 | |||
| 2025-12-18T00:28 | 18582 | 69 | 270 | 16 | ||
| 2025-12-18T00:29 | 18821 | 67 | -73.8 | |||
| 2025-12-18T00:29 | 18875 | 66 | 257 | 19 | ||
| 2025-12-18T00:30 | 19054 | 64 | -70.1 | |||
| 2025-12-18T00:30 | 19179 | 63 | 263 | 13 | ||
| 2025-12-18T00:31 | 19373 | 61 | 230 | 13 | ||
| 2025-12-18T00:32 | 19583 | 59 | 230 | 10 | ||
| 2025-12-18T00:33 | 19815 | 56 | -68.1 | |||
| 2025-12-18T00:33 | 19825 | 56 | 289 | 6 | ||
| 2025-12-18T00:33 | 19942 | 55 | 298 | 2 | ||
| 2025-12-18T00:33 | 20074 | 54 | 250 | 3 | ||
| 2025-12-18T00:34 | 20269 | 52 | -68.6 | |||
| 2025-12-18T00:34 | 20363 | 51 | 266 | 5 | ||
| 2025-12-18T00:35 | 20481 | 50 | -68.3 | |||
| 2025-12-18T00:35 | 20648 | 49 | 277 | 8 | ||
| 2025-12-18T00:36 | 20787 | 48 | 288 | 8 | ||
| 2025-12-18T00:36 | 20928 | 47 | -65.4 | |||
| 2025-12-18T00:36 | 20939 | 47 | 290 | 8 | ||
| 2025-12-18T00:37 | 21166 | 45 | 340 | 4 | ||
| 2025-12-18T00:37 | 21221 | 45 | 296 | 2 | ||
| 2025-12-18T00:37 | 21274 | 44 | 237 | 3 | ||
| 2025-12-18T00:37 | 21343 | 44 | -63.6 | |||
| 2025-12-18T00:37 | 21387 | 43 | 239 | 5 | ||
| 2025-12-18T00:38 | 21529 | 42 | -61.8 | |||
| 2025-12-18T00:38 | 21543 | 42 | 321 | 5 | ||
| 2025-12-18T00:39 | 21795 | 41 | 11 | 5 | ||
| 2025-12-18T00:39 | 21950 | 40 | 324 | 2 | ||
| 2025-12-18T00:39 | 22043 | 39 | 307 | 3 | ||
| 2025-12-18T00:40 | 22305 | 37 | 1 | 7 | ||
| 2025-12-18T00:40 | 22355 | 37 | -60.7 | |||
| 2025-12-18T00:41 | 22528 | 36 | 52 | 2 | ||
| 2025-12-18T00:42 | 22791 | 35 | 91 | 3 | ||
| 2025-12-18T00:42 | 22976 | 34 | 110 | 7 | ||
| 2025-12-18T00:43 | 23202 | 32 | 167 | 2 | ||
| 2025-12-18T00:43 | 23281 | 32 | 222 | 4 | ||
| 2025-12-18T00:44 | 23420 | 31 | 246 | 4 | ||
| 2025-12-18T00:44 | 23520 | 31 | -58.2 | |||
| 2025-12-18T00:44 | 23581 | 31 | 206 | 1 | ||
| 2025-12-18T00:45 | 23832 | 29 | 179 | 4 | ||
| 2025-12-18T00:45 | 23984 | 29 | 181 | 5 | ||
| 2025-12-18T00:45 | 24006 | 29 | -60.0 | |||
| 2025-12-18T00:46 | 24119 | 28 | 157 | 7 | ||
| 2025-12-18T00:46 | 24189 | 28 | -56.1 | |||
| 2025-12-18T00:46 | 24419 | 27 | 211 | 7 | ||
| 2025-12-18T00:47 | 24468 | 27 | -55.8 | |||
| 2025-12-18T00:48 | 24786 | 25 | 237 | 10 | ||
| 2025-12-18T00:48 | 25126 | 24 | 217 | 8 | ||
| 2025-12-18T00:49 | 25233 | 24 | -54.6 | |||
| 2025-12-18T00:49 | 25458 | 23 | -55.8 | 297 | 3 | |
| 2025-12-18T11:31 | 8 | 1019 | 23.2 | 17.2 | 90 | 6 |
| 2025-12-18T11:31 | 13 | 1018 | 23.4 | 18.1 | 84 | 1 |
| 2025-12-18T11:31 | 73 | 1011 | 81 | 10 | ||
| 2025-12-18T11:32 | 206 | 996 | 99 | 9 | ||
| 2025-12-18T11:32 | 275 | 988 | 21.3 | 17.5 | ||
| 2025-12-18T11:32 | 341 | 981 | 85 | 9 | ||
| 2025-12-18T11:33 | 777 | 932 | 97 | 11 | ||
| 2025-12-18T11:33 | 897 | 919 | 15.4 | 15.4 | ||
| 2025-12-18T11:34 | 1167 | 890 | 14.0 | 14.0 | ||
| 2025-12-18T11:34 | 1222 | 885 | 94 | 9 | ||
| 2025-12-18T11:34 | 1334 | 873 | 12.9 | 12.9 | ||
| 2025-12-18T11:35 | 1631 | 842 | 89 | 4 | ||
| 2025-12-18T11:35 | 1765 | 829 | 9.7 | 9.6 | ||
| 2025-12-18T11:35 | 1814 | 824 | 75 | 3 | ||
| 2025-12-18T11:36 | 1909 | 815 | 83 | 4 | ||
| 2025-12-18T11:36 | 2012 | 805 | 90 | 4 | ||
| 2025-12-18T11:36 | 2056 | 800 | 7.8 | 7.7 | ||
| 2025-12-18T11:36 | 2132 | 793 | 164 | 2 | ||
| 2025-12-18T11:36 | 2200 | 787 | 7.0 | 6.3 | ||
| 2025-12-18T11:37 | 2236 | 783 | 221 | 3 | ||
| 2025-12-18T11:38 | 2537 | 755 | 278 | 3 | ||
| 2025-12-18T11:38 | 2585 | 750 | 5.7 | 4.3 | ||
| 2025-12-18T11:38 | 2749 | 736 | 253 | 8 | ||
| 2025-12-18T11:38 | 2799 | 731 | 5.1 | 3.3 | ||
| 2025-12-18T11:39 | 2913 | 721 | 260 | 8 | ||
| 2025-12-18T11:39 | 2997 | 714 | 4.1 | 2.1 | ||
| 2025-12-18T11:39 | 3047 | 709 | 267 | 9 | ||
| 2025-12-18T11:40 | 3410 | 678 | 262 | 11 | ||
| 2025-12-18T11:41 | 3605 | 662 | 0.2 | -1.7 | ||
| 2025-12-18T11:41 | 3698 | 654 | -0.2 | -5.0 | ||
| 2025-12-18T11:41 | 3721 | 653 | 254 | 15 | ||
| 2025-12-18T11:41 | 3795 | 647 | 0.3 | -4.5 | ||
| 2025-12-18T11:42 | 3935 | 635 | 241 | 14 | ||
| 2025-12-18T11:42 | 4113 | 621 | -1.3 | -5.2 | ||
| 2025-12-18T11:42 | 4125 | 621 | 236 | 11 | ||
| 2025-12-18T11:43 | 4308 | 606 | -1.1 | -6.3 | ||
| 2025-12-18T11:43 | 4318 | 606 | 244 | 13 | ||
| 2025-12-18T11:43 | 4348 | 603 | -0.3 | -7.6 | ||
| 2025-12-18T11:43 | 4388 | 600 | 0.2 | -7.8 | ||
| 2025-12-18T11:43 | 4435 | 597 | 0.6 | -8.1 | ||
| 2025-12-18T11:44 | 4614 | 584 | 255 | 16 | ||
| 2025-12-18T11:44 | 4753 | 574 | -1.6 | -10.7 | ||
| 2025-12-18T11:44 | 4852 | 567 | 243 | 17 | ||
| 2025-12-18T11:45 | 4950 | 560 | -2.9 | -11.4 | ||
| 2025-12-18T11:45 | 4985 | 557 | 245 | 17 | ||
| 2025-12-18T11:45 | 5098 | 549 | 248 | 18 | ||
| 2025-12-18T11:46 | 5234 | 540 | -4.9 | -13.5 | ||
| 2025-12-18T11:46 | 5432 | 526 | 244 | 18 | ||
| 2025-12-18T11:47 | 5595 | 515 | -8.0 | -15.5 | ||
| 2025-12-18T11:47 | 5722 | 507 | -8.9 | -18.4 | ||
| 2025-12-18T11:47 | 5751 | 505 | 253 | 20 | ||
| 2025-12-18T11:47 | 5822 | 501 | -9.2 | -26.6 | ||
| 2025-12-18T11:48 | 6114 | 482 | 256 | 19 | ||
| 2025-12-18T11:48 | 6188 | 477 | -12.4 | -21.9 | ||
| 2025-12-18T11:49 | 6407 | 464 | 258 | 25 | ||
| 2025-12-18T11:49 | 6427 | 463 | -14.2 | -16.6 | ||
| 2025-12-18T11:50 | 6731 | 444 | 251 | 24 | ||
| 2025-12-18T11:51 | 6906 | 434 | -17.5 | -19.1 | ||
| 2025-12-18T11:51 | 7058 | 425 | 243 | 28 | ||
| 2025-12-18T11:52 | 7389 | 407 | -20.9 | -21.4 | ||
| 2025-12-18T11:52 | 7408 | 406 | 241 | 29 | ||
| 2025-12-18T11:52 | 7548 | 398 | 240 | 30 | ||
| 2025-12-18T11:53 | 7608 | 395 | -21.9 | -22.8 | ||
| 2025-12-18T11:53 | 7904 | 379 | 242 | 34 | ||
| 2025-12-18T11:54 | 7991 | 375 | -24.6 | -26.4 | ||
| 2025-12-18T11:54 | 8050 | 372 | 248 | 36 | ||
| 2025-12-18T11:54 | 8144 | 367 | -25.4 | -29.6 | ||
| 2025-12-18T11:54 | 8158 | 366 | 246 | 39 | ||
| 2025-12-18T11:55 | 8330 | 358 | -25.4 | -30.1 | ||
| 2025-12-18T11:55 | 8414 | 354 | 240 | 41 | ||
| 2025-12-18T11:56 | 8561 | 347 | -26.2 | -31.7 | ||
| 2025-12-18T11:56 | 8694 | 340 | 238 | 42 | ||
| 2025-12-18T11:56 | 8765 | 337 | -28.0 | -36.7 | ||
| 2025-12-18T11:57 | 8977 | 327 | -28.9 | -42.1 | ||
| 2025-12-18T11:57 | 8992 | 326 | 241 | 42 | ||
| 2025-12-18T11:58 | 9190 | 317 | -29.2 | -43.0 | ||
| 2025-12-18T11:58 | 9270 | 314 | 244 | 42 | ||
| 2025-12-18T11:58 | 9305 | 312 | -29.5 | -43.7 | ||
| 2025-12-18T11:59 | 9426 | 307 | -30.0 | -45.8 | ||
| 2025-12-18T11:59 | 9531 | 302 | 248 | 42 | ||
| 2025-12-18T12:00 | 9787 | 292 | 248 | 44 | ||
| 2025-12-18T12:01 | 10040 | 281 | 252 | 44 | ||
| 2025-12-18T12:02 | 10205 | 275 | -35.0 | -51.5 | ||
| 2025-12-18T12:02 | 10294 | 271 | 252 | 45 | ||
| 2025-12-18T12:03 | 10448 | 265 | -37.1 | -52.3 | ||
| 2025-12-18T12:03 | 10546 | 261 | 253 | 44 | ||
| 2025-12-18T12:04 | 10783 | 252 | -40.0 | -53.2 | ||
| 2025-12-18T12:04 | 10799 | 252 | 251 | 45 | ||
| 2025-12-18T12:05 | 11036 | 243 | 252 | 47 | ||
| 2025-12-18T12:06 | 11273 | 235 | 251 | 48 | ||
| 2025-12-18T12:07 | 11528 | 226 | 251 | 47 | ||
| 2025-12-18T12:08 | 11797 | 217 | 252 | 49 | ||
| 2025-12-18T12:09 | 12055 | 209 | -50.9 | |||
| 2025-12-18T12:09 | 12073 | 208 | 247 | 49 | ||
| 2025-12-18T12:10 | 12356 | 199 | 243 | 49 | ||
| 2025-12-18T12:11 | 12631 | 191 | 239 | 46 | ||
| 2025-12-18T12:12 | 12901 | 183 | 239 | 47 | ||
| 2025-12-18T12:13 | 13060 | 178 | -58.0 | |||
| 2025-12-18T12:13 | 13175 | 175 | 241 | 47 | ||
| 2025-12-18T12:14 | 13381 | 169 | -59.7 | |||
| 2025-12-18T12:14 | 13480 | 167 | 246 | 44 | ||
| 2025-12-18T12:15 | 13793 | 159 | 248 | 45 | ||
| 2025-12-18T12:16 | 14104 | 151 | 250 | 46 | ||
| 2025-12-18T12:17 | 14376 | 144 | -68.7 | |||
| 2025-12-18T12:17 | 14380 | 144 | 256 | 45 | ||
| 2025-12-18T12:18 | 14642 | 138 | 258 | 42 | ||
| 2025-12-18T12:19 | 14758 | 135 | -71.2 | |||
| 2025-12-18T12:19 | 14912 | 132 | 259 | 42 | ||
| 2025-12-18T12:20 | 15186 | 125 | 255 | 39 | ||
| 2025-12-18T12:21 | 15512 | 119 | 249 | 39 | ||
| 2025-12-18T12:22 | 15721 | 114 | -78.7 | |||
| 2025-12-18T12:22 | 15796 | 113 | 245 | 39 | ||
| 2025-12-18T12:22 | 15898 | 111 | -77.9 | |||
| 2025-12-18T12:23 | 15960 | 110 | 254 | 41 | ||
| 2025-12-18T12:24 | 16272 | 104 | 263 | 34 | ||
| 2025-12-18T12:24 | 16398 | 102 | -80.0 | |||
| 2025-12-18T12:25 | 16574 | 98 | 254 | 34 | ||
| 2025-12-18T12:25 | 16698 | 96 | -78.4 | |||
| 2025-12-18T12:25 | 16792 | 95 | 267 | 32 | ||
| 2025-12-18T12:26 | 17037 | 91 | 254 | 32 | ||
| 2025-12-18T12:27 | 17095 | 90 | -79.7 | |||
| 2025-12-18T12:27 | 17210 | 88 | 255 | 31 | ||
| 2025-12-18T12:27 | 17347 | 86 | -76.7 | |||
| 2025-12-18T12:27 | 17368 | 86 | 261 | 27 | ||
| 2025-12-18T12:28 | 17557 | 83 | 263 | 26 | ||
| 2025-12-18T12:29 | 17741 | 80 | 254 | 23 | ||
| 2025-12-18T12:30 | 18033 | 76 | 244 | 24 | ||
| 2025-12-18T12:30 | 18125 | 75 | -78.3 | |||
| 2025-12-18T12:30 | 18178 | 74 | 250 | 22 | ||
| 2025-12-18T12:31 | 18262 | 73 | -75.1 | |||
| 2025-12-18T12:31 | 18349 | 72 | -72.5 | |||
| 2025-12-18T12:31 | 18384 | 72 | 221 | 17 | ||
| 2025-12-18T12:32 | 18680 | 68 | 271 | 15 | ||
| 2025-12-18T12:32 | 18706 | 68 | -71.1 | |||
| 2025-12-18T12:33 | 18997 | 65 | 297 | 12 | ||
| 2025-12-18T12:34 | 19276 | 62 | -74.1 | |||
| 2025-12-18T12:34 | 19305 | 61 | 275 | 12 | ||
| 2025-12-18T12:34 | 19354 | 61 | -74.0 | |||
| 2025-12-18T12:35 | 19469 | 60 | -72.3 | |||
| 2025-12-18T12:35 | 19557 | 59 | -71.3 | |||
| 2025-12-18T12:35 | 19568 | 59 | 283 | 12 | ||
| 2025-12-18T12:35 | 19620 | 58 | -69.1 | |||
| 2025-12-18T12:36 | 19736 | 57 | -67.6 | |||
| 2025-12-18T12:36 | 19756 | 57 | 231 | 10 | ||
| 2025-12-18T12:36 | 19820 | 56 | -64.1 | |||
| 2025-12-18T12:37 | 20055 | 54 | 233 | 8 | ||
| 2025-12-18T12:38 | 20328 | 52 | 288 | 5 | ||
| 2025-12-18T12:38 | 20486 | 50 | 248 | 2 | ||
| 2025-12-18T12:38 | 20595 | 50 | -66.1 | |||
| 2025-12-18T12:38 | 20608 | 49 | 225 | 5 | ||
| 2025-12-18T12:39 | 20769 | 48 | 215 | 4 | ||
| 2025-12-18T12:39 | 20832 | 48 | 201 | 2 | ||
| 2025-12-18T12:39 | 20911 | 47 | 166 | 3 | ||
| 2025-12-18T12:40 | 21000 | 46 | 188 | 4 | ||
| 2025-12-18T12:40 | 21054 | 46 | -65.1 | |||
| 2025-12-18T12:40 | 21149 | 45 | 251 | 7 | ||
| 2025-12-18T12:41 | 21298 | 44 | -64.7 | |||
| 2025-12-18T12:41 | 21312 | 44 | 263 | 11 | ||
| 2025-12-18T12:41 | 21526 | 43 | -62.8 | |||
| 2025-12-18T12:41 | 21554 | 42 | 318 | 12 | ||
| 2025-12-18T12:42 | 21761 | 41 | 327 | 8 | ||
| 2025-12-18T12:42 | 21945 | 40 | 288 | 9 | ||
| 2025-12-18T12:43 | 22038 | 39 | -62.6 | |||
| 2025-12-18T12:43 | 22084 | 39 | 299 | 9 | ||
| 2025-12-18T12:43 | 22211 | 38 | 297 | 2 | ||
| 2025-12-18T12:44 | 22549 | 36 | 234 | 3 | ||
| 2025-12-18T12:44 | 22566 | 36 | -58.1 | |||
| 2025-12-18T12:45 | 22710 | 35 | 221 | 7 | ||
| 2025-12-18T12:46 | 23058 | 33 | 276 | 7 | ||
| 2025-12-18T12:46 | 23211 | 32 | 333 | 4 | ||
| 2025-12-18T12:47 | 23310 | 32 | 18 | 4 | ||
| 2025-12-18T12:47 | 23369 | 32 | 357 | 3 | ||
| 2025-12-18T12:48 | 23718 | 30 | 198 | 3 | ||
| 2025-12-18T12:48 | 23761 | 30 | -57.0 | |||
| 2025-12-18T12:48 | 23913 | 29 | 234 | 10 | ||
| 2025-12-18T12:49 | 24112 | 28 | -57.1 | 235 | 16 | |
| 2025-12-18T12:50 | 24433 | 27 | 273 | 7 | ||
| 2025-12-18T12:50 | 24579 | 26 | 273 | 5 | ||
| 2025-12-18T12:50 | 24626 | 26 | -56.1 | |||
| 2025-12-18T12:51 | 24748 | 25 | 296 | 11 | ||
| 2025-12-18T12:51 | 24977 | 25 | 316 | 2 | ||
| 2025-12-18T12:52 | 25164 | 24 | 203 | 3 | ||
| 2025-12-18T12:52 | 25383 | 23 | 180 | 7 | ||
| 2025-12-18T12:53 | 25465 | 23 | -54.9 | |||
| 2025-12-18T12:53 | 25611 | 22 | 226 | 7 | ||
| 2025-12-18T12:54 | 25964 | 21 | 212 | 11 | ||
| 2025-12-18T12:54 | 26056 | 21 | -53.9 | |||
| 2025-12-18T12:55 | 26246 | 20 | -52.4 | |||
| 2025-12-18T12:55 | 26311 | 20 | 283 | 9 | ||
| 2025-12-18T12:56 | 26647 | 19 | -53.8 | 310 | 9 | |
| 2025-12-18T23:31 | 8 | 1018 | 23.6 | 18.0 | 120 | 8 |
| 2025-12-18T23:31 | 11 | 1018 | 23.7 | 18.1 | 123 | 1 |
| 2025-12-18T23:31 | 31 | 1015 | 141 | 6 | ||
| 2025-12-18T23:31 | 103 | 1007 | 125 | 9 | ||
| 2025-12-18T23:32 | 250 | 990 | 21.7 | 16.9 | ||
| 2025-12-18T23:32 | 448 | 968 | 124 | 12 | ||
| 2025-12-18T23:33 | 594 | 952 | 124 | 11 | ||
| 2025-12-18T23:33 | 731 | 936 | 17.1 | 14.7 | ||
| 2025-12-18T23:34 | 905 | 917 | 121 | 11 | ||
| 2025-12-18T23:34 | 967 | 911 | 15.8 | 12.2 | ||
| 2025-12-18T23:35 | 1223 | 884 | 123 | 10 | ||
| 2025-12-18T23:35 | 1228 | 883 | 14.3 | 11.1 | ||
| 2025-12-18T23:35 | 1374 | 868 | 14.1 | 7.8 | ||
| 2025-12-18T23:36 | 1517 | 854 | 157 | 7 | ||
| 2025-12-18T23:36 | 1549 | 850 | 13.2 | 6.3 | ||
| 2025-12-18T23:36 | 1601 | 845 | 13.3 | 5.9 | ||
| 2025-12-18T23:36 | 1658 | 839 | 13.1 | 5.3 | ||
| 2025-12-18T23:36 | 1695 | 836 | 13.5 | 4.6 | ||
| 2025-12-18T23:37 | 1833 | 822 | 179 | 8 | ||
| 2025-12-18T23:37 | 1860 | 820 | 12.5 | 2.1 | ||
| 2025-12-18T23:37 | 1961 | 810 | 11.5 | 3.8 | ||
| 2025-12-18T23:37 | 2036 | 802 | 197 | 7 | ||
| 2025-12-18T23:38 | 2262 | 781 | 8.7 | 7.2 | 216 | 7 |
| 2025-12-18T23:38 | 2376 | 770 | 208 | 8 | ||
| 2025-12-18T23:39 | 2532 | 756 | 7.6 | 5.2 | ||
| 2025-12-18T23:39 | 2621 | 748 | 195 | 8 | ||
| 2025-12-18T23:39 | 2676 | 743 | 7.7 | 4.3 | ||
| 2025-12-18T23:40 | 2748 | 736 | 206 | 5 | ||
| 2025-12-18T23:40 | 2775 | 734 | 7.5 | 3.7 | ||
| 2025-12-18T23:40 | 2879 | 725 | 251 | 4 | ||
| 2025-12-18T23:40 | 3011 | 713 | 5.9 | 3.6 | ||
| 2025-12-18T23:40 | 3027 | 712 | 265 | 5 | ||
| 2025-12-18T23:41 | 3316 | 687 | 236 | 8 | ||
| 2025-12-18T23:41 | 3322 | 687 | 4.0 | 1.7 | ||
| 2025-12-18T23:42 | 3617 | 662 | 2.5 | -0.4 | ||
| 2025-12-18T23:42 | 3657 | 659 | 249 | 7 | ||
| 2025-12-18T23:43 | 3746 | 652 | 2.4 | -1.2 | ||
| 2025-12-18T23:43 | 3848 | 644 | 1.9 | -2.6 | ||
| 2025-12-18T23:43 | 3974 | 634 | 1.1 | -3.8 | ||
| 2025-12-18T23:43 | 4016 | 630 | 248 | 10 | ||
| 2025-12-18T23:44 | 4207 | 615 | 257 | 9 | ||
| 2025-12-18T23:44 | 4272 | 611 | -1.5 | -4.0 | ||
| 2025-12-18T23:44 | 4384 | 602 | 260 | 12 | ||
| 2025-12-18T23:45 | 4610 | 585 | -3.1 | -7.4 | ||
| 2025-12-18T23:45 | 4731 | 576 | 249 | 12 | ||
| 2025-12-18T23:46 | 4939 | 561 | -5.8 | -7.0 | ||
| 2025-12-18T23:46 | 5050 | 553 | 252 | 14 | ||
| 2025-12-18T23:47 | 5172 | 545 | -7.5 | -10.4 | ||
| 2025-12-18T23:47 | 5231 | 541 | -7.7 | -11.9 | ||
| 2025-12-18T23:47 | 5345 | 533 | 252 | 16 | ||
| 2025-12-18T23:47 | 5376 | 531 | -8.7 | -10.8 | ||
| 2025-12-18T23:47 | 5470 | 524 | -9.3 | -11.8 | ||
| 2025-12-18T23:48 | 5708 | 508 | -10.4 | -11.3 | ||
| 2025-12-18T23:48 | 5714 | 508 | 249 | 19 | ||
| 2025-12-18T23:48 | 5821 | 501 | -11.1 | -12.6 | ||
| 2025-12-18T23:48 | 5872 | 498 | -11.2 | -17.4 | ||
| 2025-12-18T23:49 | 6016 | 488 | -12.2 | -15.7 | ||
| 2025-12-18T23:49 | 6063 | 485 | -12.5 | -16.8 | ||
| 2025-12-18T23:49 | 6103 | 483 | 247 | 23 | ||
| 2025-12-18T23:49 | 6116 | 482 | -12.7 | -15.3 | ||
| 2025-12-18T23:49 | 6235 | 474 | -13.5 | -16.2 | ||
| 2025-12-18T23:50 | 6503 | 458 | 240 | 25 | ||
| 2025-12-18T23:50 | 6509 | 458 | -15.2 | -18.0 | ||
| 2025-12-18T23:51 | 6748 | 443 | -17.1 | -19.4 | ||
| 2025-12-18T23:51 | 6873 | 436 | -17.5 | -18.5 | ||
| 2025-12-18T23:51 | 6899 | 434 | 239 | 26 | ||
| 2025-12-18T23:52 | 7117 | 422 | -18.4 | -19.0 | ||
| 2025-12-18T23:52 | 7302 | 412 | 241 | 31 | ||
| 2025-12-18T23:53 | 7578 | 397 | 241 | 33 | ||
| 2025-12-18T23:53 | 7786 | 386 | 242 | 36 | ||
| 2025-12-18T23:53 | 7818 | 384 | -22.1 | -22.9 | ||
| 2025-12-18T23:54 | 8055 | 372 | 239 | 38 | ||
| 2025-12-18T23:55 | 8423 | 353 | 237 | 40 | ||
| 2025-12-18T23:56 | 8734 | 338 | -28.5 | -29.3 | ||
| 2025-12-18T23:56 | 8802 | 335 | 233 | 38 | ||
| 2025-12-18T23:56 | 8993 | 326 | 231 | 40 | ||
| 2025-12-18T23:57 | 9059 | 323 | -31.2 | -31.8 | ||
| 2025-12-18T23:57 | 9125 | 320 | 228 | 38 | ||
| 2025-12-18T23:57 | 9170 | 318 | -31.8 | -32.8 | ||
| 2025-12-18T23:57 | 9232 | 315 | -31.3 | -34.4 | ||
| 2025-12-18T23:57 | 9286 | 313 | -30.5 | -37.0 | ||
| 2025-12-18T23:57 | 9308 | 312 | 237 | 47 | ||
| 2025-12-18T23:58 | 9481 | 305 | -31.2 | -38.6 | ||
| 2025-12-18T23:58 | 9619 | 299 | 238 | 45 | ||
| 2025-12-18T23:59 | 9940 | 285 | 242 | 45 | ||
| 2025-12-19T00:00 | 9961 | 285 | -34.4 | -44.0 | ||
| 2025-12-19T00:00 | 10267 | 272 | 245 | 46 | ||
| 2025-12-19T00:01 | 10614 | 259 | 250 | 47 | ||
| 2025-12-19T00:02 | 10695 | 256 | -39.5 | -49.4 | ||
| 2025-12-19T00:02 | 10759 | 254 | -40.0 | -49.9 | ||
| 2025-12-19T00:02 | 10854 | 250 | 246 | 47 | ||
| 2025-12-19T00:03 | 10992 | 245 | 244 | 47 | ||
| 2025-12-19T00:04 | 11349 | 232 | 246 | 48 | ||
| 2025-12-19T00:05 | 11656 | 222 | 250 | 50 | ||
| 2025-12-19T00:06 | 11942 | 212 | 246 | 50 | ||
| 2025-12-19T00:07 | 12246 | 203 | 245 | 52 | ||
| 2025-12-19T00:07 | 12352 | 199 | -53.6 | |||
| 2025-12-19T00:08 | 12534 | 194 | 244 | 50 | ||
| 2025-12-19T00:08 | 12615 | 191 | -55.5 | |||
| 2025-12-19T00:08 | 12809 | 186 | 239 | 51 | ||
| 2025-12-19T00:09 | 12986 | 180 | -57.8 | |||
| 2025-12-19T00:09 | 13106 | 177 | 235 | 51 | ||
| 2025-12-19T00:10 | 13413 | 169 | 239 | 51 | ||
| 2025-12-19T00:11 | 13751 | 160 | 245 | 51 | ||
| 2025-12-19T00:12 | 13849 | 157 | -64.7 | |||
| 2025-12-19T00:13 | 14065 | 152 | 247 | 50 | ||
| 2025-12-19T00:14 | 14355 | 144 | 246 | 50 | ||
| 2025-12-19T00:15 | 14650 | 137 | 247 | 50 | ||
| 2025-12-19T00:15 | 14852 | 133 | -73.9 | |||
| 2025-12-19T00:16 | 14936 | 131 | 246 | 45 | ||
| 2025-12-19T00:16 | 15062 | 128 | -74.4 | |||
| 2025-12-19T00:17 | 15213 | 125 | 251 | 45 | ||
| 2025-12-19T00:17 | 15313 | 123 | -75.6 | |||
| 2025-12-19T00:18 | 15485 | 119 | 259 | 44 | ||
| 2025-12-19T00:18 | 15503 | 119 | -74.4 | |||
| 2025-12-19T00:19 | 15748 | 114 | 269 | 44 | ||
| 2025-12-19T00:19 | 15861 | 112 | -75.9 | |||
| 2025-12-19T00:20 | 16018 | 109 | 266 | 41 | ||
| 2025-12-19T00:20 | 16167 | 106 | -76.6 | |||
| 2025-12-19T00:20 | 16250 | 104 | 268 | 40 | ||
| 2025-12-19T00:20 | 16272 | 104 | -75.9 | |||
| 2025-12-19T00:21 | 16539 | 99 | 278 | 41 | ||
| 2025-12-19T00:22 | 16816 | 95 | 283 | 38 | ||
| 2025-12-19T00:23 | 16974 | 92 | -78.9 | |||
| 2025-12-19T00:23 | 17100 | 90 | 272 | 30 | ||
| 2025-12-19T00:24 | 17240 | 88 | -79.3 | |||
| 2025-12-19T00:24 | 17343 | 86 | 261 | 31 | ||
| 2025-12-19T00:24 | 17397 | 85 | -78.9 | |||
| 2025-12-19T00:25 | 17484 | 84 | 272 | 30 | ||
| 2025-12-19T00:25 | 17629 | 82 | 273 | 24 | ||
| 2025-12-19T00:25 | 17638 | 82 | -76.4 | |||
| 2025-12-19T00:26 | 17736 | 80 | -75.9 | |||
| 2025-12-19T00:26 | 17802 | 80 | 280 | 21 | ||
| 2025-12-19T00:27 | 18070 | 76 | 280 | 17 | ||
| 2025-12-19T00:28 | 18343 | 72 | -75.0 | |||
| 2025-12-19T00:28 | 18351 | 72 | 287 | 16 | ||
| 2025-12-19T00:29 | 18624 | 69 | 272 | 15 | ||
| 2025-12-19T00:29 | 18693 | 68 | -72.9 | |||
| 2025-12-19T00:29 | 18796 | 67 | -72.1 | |||
| 2025-12-19T00:30 | 18941 | 65 | 254 | 8 | ||
| 2025-12-19T00:30 | 19123 | 63 | 228 | 9 | ||
| 2025-12-19T00:31 | 19370 | 61 | -72.8 | |||
| 2025-12-19T00:31 | 19428 | 60 | 264 | 15 | ||
| 2025-12-19T00:31 | 19507 | 59 | -71.0 | |||
| 2025-12-19T00:32 | 19647 | 58 | -69.1 | |||
| 2025-12-19T00:32 | 19712 | 57 | -68.1 | |||
| 2025-12-19T00:32 | 19722 | 57 | 289 | 15 | ||
| 2025-12-19T00:33 | 19870 | 56 | -68.0 | |||
| 2025-12-19T00:33 | 19912 | 56 | 295 | 14 | ||
| 2025-12-19T00:33 | 20080 | 54 | -67.2 | |||
| 2025-12-19T00:33 | 20102 | 54 | 281 | 3 | ||
| 2025-12-19T00:34 | 20167 | 53 | 233 | 3 | ||
| 2025-12-19T00:34 | 20191 | 53 | -66.6 | |||
| 2025-12-19T00:34 | 20296 | 52 | 228 | 6 | ||
| 2025-12-19T00:34 | 20423 | 51 | 253 | 5 | ||
| 2025-12-19T00:34 | 20447 | 51 | -65.3 | |||
| 2025-12-19T00:35 | 20670 | 49 | 286 | 9 | ||
| 2025-12-19T00:36 | 20820 | 48 | 258 | 11 | ||
| 2025-12-19T00:36 | 20833 | 48 | -63.8 | |||
| 2025-12-19T00:37 | 21150 | 45 | 345 | 6 | ||
| 2025-12-19T00:37 | 21164 | 45 | -62.5 | |||
| 2025-12-19T00:37 | 21288 | 44 | 26 | 2 | ||
| 2025-12-19T00:38 | 21484 | 43 | 161 | 4 | ||
| 2025-12-19T00:38 | 21631 | 42 | -62.5 | |||
| 2025-12-19T00:38 | 21705 | 41 | 220 | 4 | ||
| 2025-12-19T00:39 | 21810 | 41 | 308 | 4 | ||
| 2025-12-19T00:39 | 22025 | 39 | 355 | 8 | ||
| 2025-12-19T00:40 | 22105 | 39 | 360 | 7 | ||
| 2025-12-19T00:40 | 22122 | 39 | 1 | 6 | ||
| 2025-12-19T00:40 | 22201 | 38 | 33 | 3 | ||
| 2025-12-19T00:40 | 22364 | 37 | -61.9 | |||
| 2025-12-19T00:41 | 22398 | 37 | 246 | 1 | ||
| 2025-12-19T00:42 | 22743 | 35 | 323 | 3 | ||
| 2025-12-19T00:42 | 22851 | 34 | 12 | 5 | ||
| 2025-12-19T00:42 | 23000 | 34 | -59.1 | |||
| 2025-12-19T00:43 | 23150 | 33 | 24 | 4 | ||
| 2025-12-19T00:43 | 23381 | 32 | 0 | 0 | ||
| 2025-12-19T00:44 | 23503 | 31 | -59.2 | |||
| 2025-12-19T00:44 | 23603 | 31 | 209 | 3 | ||
| 2025-12-19T00:44 | 23666 | 30 | 231 | 3 | ||
| 2025-12-19T00:44 | 23729 | 30 | 292 | 4 | ||
| 2025-12-19T00:45 | 23771 | 30 | -58.4 | |||
| 2025-12-19T00:45 | 23965 | 29 | 313 | 8 | ||
| 2025-12-19T00:46 | 24189 | 28 | 335 | 1 | ||
| 2025-12-19T00:46 | 24328 | 27 | -57.4 | |||
| 2025-12-19T00:47 | 24537 | 26 | 303 | 3 | ||
| 2025-12-19T00:47 | 24611 | 26 | 278 | 2 | ||
| 2025-12-19T00:47 | 24708 | 26 | 190 | 3 | ||
| 2025-12-19T00:48 | 24834 | 25 | 221 | 5 | ||
| 2025-12-19T00:48 | 24857 | 25 | -55.5 | |||
| 2025-12-19T00:48 | 25040 | 24 | 288 | 9 | ||
| 2025-12-19T00:49 | 25198 | 24 | -55.0 | |||
| 2025-12-19T00:49 | 25390 | 23 | 296 | 12 | ||
| 2025-12-19T00:50 | 25671 | 22 | 293 | 7 | ||
| 2025-12-19T00:51 | 26025 | 21 | 319 | 5 | ||
| 2025-12-19T00:51 | 26117 | 21 | -56.9 | |||
| 2025-12-19T00:52 | 26211 | 20 | 291 | 5 | ||
| 2025-12-19T00:52 | 26471 | 19 | 313 | 4 | ||
| 2025-12-19T00:53 | 26570 | 19 | 348 | 1 | ||
| 2025-12-19T00:53 | 26604 | 19 | -53.5 | |||
| 2025-12-19T00:53 | 26639 | 19 | 288 | 3 | ||
| 2025-12-19T00:53 | 26845 | 18 | 246 | 6 | ||
| 2025-12-19T00:54 | 26990 | 18 | 262 | 6 | ||
| 2025-12-19T00:54 | 27135 | 18 | 256 | 7 | ||
| 2025-12-19T00:55 | 27358 | 17 | -52.7 | |||
| 2025-12-19T00:55 | 27513 | 17 | 319 | 5 | ||
| 2025-12-19T00:56 | 27670 | 16 | 322 | 3 | ||
| 2025-12-19T00:56 | 27752 | 16 | -52.7 | |||
| 2025-12-19T00:56 | 27853 | 16 | -51.7 | 246 | 3 | |
| 2025-12-19T11:31 | 8 | 1017 | 22.6 | 18.2 | 120 | 5 |
| 2025-12-19T11:31 | 13 | 1016 | 22.6 | 18.4 | 120 | 4 |
| 2025-12-19T11:31 | 58 | 1011 | 115 | 5 | ||
| 2025-12-19T11:31 | 143 | 1001 | 132 | 8 | ||
| 2025-12-19T11:32 | 305 | 983 | 20.3 | 16.3 | ||
| 2025-12-19T11:32 | 417 | 970 | 125 | 8 | ||
| 2025-12-19T11:32 | 467 | 965 | 18.5 | 16.8 | ||
| 2025-12-19T11:33 | 551 | 955 | 18.0 | 15.1 | ||
| 2025-12-19T11:33 | 579 | 952 | 125 | 6 | ||
| 2025-12-19T11:33 | 620 | 948 | 17.4 | 14.7 | ||
| 2025-12-19T11:33 | 660 | 943 | 17.5 | 12.0 | ||
| 2025-12-19T11:33 | 757 | 933 | 130 | 4 | ||
| 2025-12-19T11:34 | 853 | 922 | 135 | 5 | ||
| 2025-12-19T11:34 | 944 | 912 | 148 | 5 | ||
| 2025-12-19T11:34 | 950 | 912 | 16.0 | 10.5 | ||
| 2025-12-19T11:34 | 1054 | 901 | 167 | 4 | ||
| 2025-12-19T11:35 | 1065 | 900 | 15.6 | 10.2 | ||
| 2025-12-19T11:35 | 1259 | 879 | 139 | 4 | ||
| 2025-12-19T11:35 | 1281 | 877 | 14.8 | 10.0 | ||
| 2025-12-19T11:36 | 1493 | 855 | 13.3 | 10.8 | ||
| 2025-12-19T11:36 | 1567 | 848 | 193 | 4 | ||
| 2025-12-19T11:36 | 1666 | 838 | 200 | 4 | ||
| 2025-12-19T11:37 | 1728 | 832 | 12.3 | 10.5 | ||
| 2025-12-19T11:37 | 1786 | 826 | 222 | 6 | ||
| 2025-12-19T11:37 | 1895 | 815 | 203 | 2 | ||
| 2025-12-19T11:38 | 2037 | 802 | 11.1 | 8.3 | ||
| 2025-12-19T11:38 | 2206 | 786 | 202 | 3 | ||
| 2025-12-19T11:39 | 2361 | 771 | 221 | 6 | ||
| 2025-12-19T11:39 | 2558 | 753 | 8.0 | 7.4 | ||
| 2025-12-19T11:40 | 2657 | 744 | 224 | 5 | ||
| 2025-12-19T11:41 | 2952 | 718 | 231 | 5 | ||
| 2025-12-19T11:41 | 3045 | 710 | 5.5 | 4.8 | ||
| 2025-12-19T11:41 | 3113 | 704 | 227 | 4 | ||
| 2025-12-19T11:41 | 3197 | 697 | 229 | 3 | ||
| 2025-12-19T11:42 | 3303 | 688 | 236 | 4 | ||
| 2025-12-19T11:42 | 3509 | 671 | 242 | 4 | ||
| 2025-12-19T11:43 | 3591 | 664 | 260 | 4 | ||
| 2025-12-19T11:43 | 3647 | 659 | 2.0 | 0.5 | ||
| 2025-12-19T11:43 | 3702 | 655 | 246 | 5 | ||
| 2025-12-19T11:44 | 3879 | 641 | 252 | 8 | ||
| 2025-12-19T11:44 | 3889 | 640 | 0.4 | -0.6 | ||
| 2025-12-19T11:44 | 4102 | 623 | -0.7 | -1.5 | ||
| 2025-12-19T11:45 | 4123 | 621 | 262 | 11 | ||
| 2025-12-19T11:45 | 4273 | 610 | -1.5 | -2.5 | ||
| 2025-12-19T11:46 | 4435 | 598 | 264 | 16 | ||
| 2025-12-19T11:47 | 4728 | 576 | 259 | 15 | ||
| 2025-12-19T11:48 | 5016 | 555 | 242 | 16 | ||
| 2025-12-19T11:48 | 5026 | 554 | -4.5 | -5.3 | ||
| 2025-12-19T11:48 | 5327 | 534 | 240 | 15 | ||
| 2025-12-19T11:49 | 5567 | 517 | -7.6 | -9.2 | 248 | 16 |
| 2025-12-19T11:50 | 5744 | 506 | 246 | 20 | ||
| 2025-12-19T11:50 | 5794 | 502 | -9.2 | -10.5 | ||
| 2025-12-19T11:51 | 5974 | 491 | 250 | 20 | ||
| 2025-12-19T11:51 | 6088 | 484 | -10.8 | -12.5 | ||
| 2025-12-19T11:52 | 6292 | 471 | 236 | 24 | ||
| 2025-12-19T11:52 | 6335 | 468 | -11.3 | -12.8 | ||
| 2025-12-19T11:53 | 6621 | 451 | 235 | 24 | ||
| 2025-12-19T11:53 | 6870 | 437 | 228 | 27 | ||
| 2025-12-19T11:54 | 7210 | 417 | 227 | 28 | ||
| 2025-12-19T11:55 | 7307 | 412 | -16.9 | -18.7 | ||
| 2025-12-19T11:55 | 7548 | 399 | 228 | 29 | ||
| 2025-12-19T11:56 | 7680 | 392 | 230 | 27 | ||
| 2025-12-19T11:56 | 7778 | 387 | 233 | 29 | ||
| 2025-12-19T11:57 | 7939 | 378 | -21.1 | -23.4 | ||
| 2025-12-19T11:57 | 8058 | 372 | 233 | 30 | ||
| 2025-12-19T11:58 | 8390 | 356 | 233 | 32 | ||
| 2025-12-19T11:58 | 8434 | 354 | -24.8 | -27.1 | ||
| 2025-12-19T11:59 | 8672 | 342 | 233 | 38 | ||
| 2025-12-19T12:00 | 9009 | 326 | 229 | 37 | ||
| 2025-12-19T12:00 | 9195 | 318 | -31.2 | -33.6 | ||
| 2025-12-19T12:01 | 9325 | 312 | 229 | 37 | ||
| 2025-12-19T12:02 | 9616 | 300 | 234 | 38 | ||
| 2025-12-19T12:02 | 9656 | 298 | -34.8 | -36.9 | ||
| 2025-12-19T12:02 | 9742 | 294 | -33.9 | -40.6 | ||
| 2025-12-19T12:03 | 9823 | 291 | 235 | 44 | ||
| 2025-12-19T12:04 | 10064 | 281 | 236 | 44 | ||
| 2025-12-19T12:04 | 10103 | 279 | -35.1 | -43.1 | ||
| 2025-12-19T12:04 | 10309 | 271 | -36.3 | -46.8 | ||
| 2025-12-19T12:05 | 10342 | 270 | 241 | 44 | ||
| 2025-12-19T12:06 | 10616 | 259 | 242 | 44 | ||
| 2025-12-19T12:06 | 10675 | 257 | -39.3 | -49.8 | ||
| 2025-12-19T12:06 | 10761 | 254 | -40.0 | -50.1 | ||
| 2025-12-19T12:07 | 10893 | 249 | 244 | 44 | ||
| 2025-12-19T12:08 | 11196 | 238 | 242 | 46 | ||
| 2025-12-19T12:09 | 11462 | 229 | 242 | 46 | ||
| 2025-12-19T12:10 | 11720 | 220 | 240 | 46 | ||
| 2025-12-19T12:10 | 11921 | 213 | -50.7 | |||
| 2025-12-19T12:11 | 11980 | 212 | 240 | 49 | ||
| 2025-12-19T12:11 | 12080 | 208 | -50.8 | |||
| 2025-12-19T12:11 | 12246 | 203 | 237 | 50 | ||
| 2025-12-19T12:12 | 12506 | 195 | 235 | 52 | ||
| 2025-12-19T12:13 | 12799 | 186 | 231 | 52 | ||
| 2025-12-19T12:14 | 12920 | 183 | -57.2 | |||
| 2025-12-19T12:15 | 13118 | 177 | 236 | 52 | ||
| 2025-12-19T12:16 | 13414 | 169 | 239 | 50 | ||
| 2025-12-19T12:16 | 13546 | 165 | -62.3 | |||
| 2025-12-19T12:17 | 13719 | 161 | 242 | 51 | ||
| 2025-12-19T12:17 | 14011 | 153 | 244 | 51 | ||
| 2025-12-19T12:19 | 14323 | 145 | 244 | 50 | ||
| 2025-12-19T12:19 | 14425 | 143 | -70.1 | |||
| 2025-12-19T12:20 | 14645 | 138 | 246 | 46 | ||
| 2025-12-19T12:20 | 14728 | 136 | -69.1 | |||
| 2025-12-19T12:20 | 14916 | 132 | -69.9 | |||
| 2025-12-19T12:21 | 14939 | 131 | 253 | 45 | ||
| 2025-12-19T12:22 | 15207 | 125 | -69.6 | |||
| 2025-12-19T12:22 | 15214 | 125 | 255 | 39 | ||
| 2025-12-19T12:23 | 15487 | 120 | 256 | 39 | ||
| 2025-12-19T12:24 | 15768 | 114 | 261 | 39 | ||
| 2025-12-19T12:25 | 16056 | 108 | 265 | 39 | ||
| 2025-12-19T12:25 | 16163 | 106 | -76.9 | |||
| 2025-12-19T12:26 | 16348 | 103 | 276 | 37 | ||
| 2025-12-19T12:27 | 16617 | 98 | 272 | 29 | ||
| 2025-12-19T12:27 | 16659 | 98 | -77.5 | |||
| 2025-12-19T12:27 | 16786 | 95 | 266 | 29 | ||
| 2025-12-19T12:28 | 17054 | 91 | 261 | 32 | ||
| 2025-12-19T12:28 | 17102 | 90 | -79.9 | |||
| 2025-12-19T12:29 | 17167 | 89 | 264 | 30 | ||
| 2025-12-19T12:29 | 17303 | 87 | -78.4 | |||
| 2025-12-19T12:29 | 17348 | 86 | 259 | 23 | ||
| 2025-12-19T12:30 | 17555 | 83 | 248 | 21 | ||
| 2025-12-19T12:31 | 17747 | 81 | -80.2 | |||
| 2025-12-19T12:31 | 17805 | 80 | 253 | 22 | ||
| 2025-12-19T12:32 | 18054 | 76 | 254 | 18 | ||
| 2025-12-19T12:32 | 18158 | 75 | -77.4 | |||
| 2025-12-19T12:33 | 18304 | 73 | -77.4 | 239 | 17 | |
| 2025-12-19T12:34 | 18434 | 71 | -75.4 | |||
| 2025-12-19T12:34 | 18557 | 70 | 255 | 11 | ||
| 2025-12-19T12:34 | 18574 | 70 | -74.1 | |||
| 2025-12-19T12:35 | 18820 | 67 | 223 | 9 | ||
| 2025-12-19T12:35 | 18925 | 66 | -72.1 | |||
| 2025-12-19T12:36 | 18957 | 65 | 206 | 10 | ||
| 2025-12-19T12:36 | 19002 | 65 | -71.2 | |||
| 2025-12-19T12:37 | 19241 | 62 | 206 | 13 | ||
| 2025-12-19T12:37 | 19280 | 62 | -72.9 | |||
| 2025-12-19T12:37 | 19396 | 61 | 220 | 12 | ||
| 2025-12-19T12:38 | 19583 | 59 | 241 | 9 | ||
| 2025-12-19T12:39 | 19734 | 57 | 222 | 10 | ||
| 2025-12-19T12:39 | 19841 | 56 | 253 | 9 | ||
| 2025-12-19T12:39 | 19887 | 56 | -70.6 | 282 | 9 | |
| 2025-12-19T23:31 | 8 | 1018 | 20.0 | 18.7 | 320 | 3 |
| 2025-12-19T23:31 | 12 | 1018 | 20.1 | 18.9 | 0 | 0 |
| 2025-12-19T23:31 | 65 | 1011 | 310 | 5 | ||
| 2025-12-19T23:31 | 147 | 1002 | 19.9 | 17.7 | 289 | 2 |
| 2025-12-19T23:32 | 211 | 994 | 20.2 | 17.0 | ||
| 2025-12-19T23:32 | 233 | 992 | 125 | 3 | ||
| 2025-12-19T23:32 | 395 | 973 | 19.1 | 16.0 | ||
| 2025-12-19T23:33 | 557 | 955 | 131 | 3 | ||
| 2025-12-19T23:33 | 787 | 930 | 15.9 | 13.7 | ||
| 2025-12-19T23:34 | 849 | 923 | 143 | 6 | ||
| 2025-12-19T23:34 | 1002 | 907 | 14.2 | 13.2 | ||
| 2025-12-19T23:35 | 1098 | 896 | 128 | 6 | ||
| 2025-12-19T23:35 | 1155 | 890 | 14.1 | 13.8 | ||
| 2025-12-19T23:36 | 1364 | 869 | 132 | 5 | ||
| 2025-12-19T23:36 | 1485 | 857 | 129 | 2 | ||
| 2025-12-19T23:36 | 1549 | 850 | 140 | 4 | ||
| 2025-12-19T23:37 | 1656 | 839 | 133 | 4 | ||
| 2025-12-19T23:37 | 1746 | 830 | 155 | 2 | ||
| 2025-12-19T23:37 | 1850 | 820 | 164 | 3 | ||
| 2025-12-19T23:38 | 1931 | 812 | 181 | 1 | ||
| 2025-12-19T23:38 | 2097 | 796 | 9.9 | 9.4 | ||
| 2025-12-19T23:38 | 2127 | 793 | 255 | 3 | ||
| 2025-12-19T23:39 | 2235 | 783 | 258 | 6 | ||
| 2025-12-19T23:39 | 2317 | 775 | 245 | 6 | ||
| 2025-12-19T23:39 | 2378 | 770 | 233 | 5 | ||
| 2025-12-19T23:40 | 2449 | 763 | 245 | 7 | ||
| 2025-12-19T23:40 | 2531 | 756 | 225 | 7 | ||
| 2025-12-19T23:41 | 2728 | 738 | 227 | 6 | ||
| 2025-12-19T23:41 | 2944 | 719 | 234 | 7 | ||
| 2025-12-19T23:42 | 3194 | 697 | 241 | 9 | ||
| 2025-12-19T23:43 | 3325 | 686 | 3.2 | 2.9 | ||
| 2025-12-19T23:43 | 3519 | 670 | 245 | 10 | ||
| 2025-12-19T23:44 | 3635 | 660 | 247 | 8 | ||
| 2025-12-19T23:44 | 3773 | 649 | 264 | 7 | ||
| 2025-12-19T23:44 | 3795 | 647 | 0.4 | 0.1 | ||
| 2025-12-19T23:44 | 3894 | 639 | 238 | 9 | ||
| 2025-12-19T23:45 | 3984 | 632 | 268 | 7 | ||
| 2025-12-19T23:45 | 4015 | 630 | -0.4 | -1.0 | ||
| 2025-12-19T23:45 | 4140 | 620 | -0.9 | -1.5 | ||
| 2025-12-19T23:45 | 4148 | 619 | 266 | 10 | ||
| 2025-12-19T23:46 | 4392 | 601 | 263 | 11 | ||
| 2025-12-19T23:47 | 4509 | 592 | -3.0 | -3.0 | ||
| 2025-12-19T23:47 | 4558 | 588 | 267 | 11 | ||
| 2025-12-19T23:48 | 4759 | 574 | 272 | 12 | ||
| 2025-12-19T23:49 | 4968 | 559 | 265 | 13 | ||
| 2025-12-19T23:49 | 4987 | 557 | -5.1 | -5.9 | ||
| 2025-12-19T23:49 | 5125 | 548 | 249 | 13 | ||
| 2025-12-19T23:49 | 5208 | 542 | 256 | 11 | ||
| 2025-12-19T23:50 | 5512 | 521 | 235 | 10 | ||
| 2025-12-19T23:51 | 5625 | 514 | 237 | 10 | ||
| 2025-12-19T23:51 | 5751 | 505 | 225 | 11 | ||
| 2025-12-19T23:52 | 6056 | 486 | 233 | 11 | ||
| 2025-12-19T23:53 | 6355 | 467 | 230 | 16 | ||
| 2025-12-19T23:53 | 6380 | 466 | -11.8 | -13.0 | ||
| 2025-12-19T23:54 | 6665 | 449 | 233 | 21 | ||
| 2025-12-19T23:55 | 6945 | 433 | -14.4 | -15.8 | ||
| 2025-12-19T23:55 | 6989 | 430 | 229 | 26 | ||
| 2025-12-19T23:56 | 7326 | 411 | 238 | 33 | ||
| 2025-12-19T23:56 | 7438 | 405 | -18.5 | -19.9 | ||
| 2025-12-19T23:57 | 7678 | 392 | 236 | 34 | ||
| 2025-12-19T23:58 | 8024 | 374 | 230 | 34 | ||
| 2025-12-19T23:58 | 8042 | 373 | -22.5 | -24.5 | ||
| 2025-12-19T23:59 | 8354 | 358 | 227 | 36 | ||
| 2025-12-19T23:59 | 8412 | 355 | -25.2 | -27.0 | ||
| 2025-12-20T00:00 | 8545 | 348 | 227 | 30 | ||
| 2025-12-20T00:00 | 8615 | 345 | -26.5 | -28.0 | ||
| 2025-12-20T00:00 | 8753 | 338 | 224 | 32 | ||
| 2025-12-20T00:00 | 8869 | 333 | 227 | 34 | ||
| 2025-12-20T00:01 | 8982 | 328 | 225 | 35 | ||
| 2025-12-20T00:01 | 9082 | 323 | 224 | 39 | ||
| 2025-12-20T00:01 | 9147 | 320 | -30.1 | -32.1 | ||
| 2025-12-20T00:02 | 9397 | 309 | -31.9 | -33.8 | ||
| 2025-12-20T00:02 | 9418 | 308 | 227 | 42 | ||
| 2025-12-20T00:03 | 9606 | 300 | 230 | 43 | ||
| 2025-12-20T00:03 | 9703 | 296 | -33.9 | -37.1 | ||
| 2025-12-20T00:03 | 9810 | 292 | -34.4 | -40.8 | 233 | 45 |
| 2025-12-20T00:04 | 10021 | 283 | -35.9 | -42.2 | ||
| 2025-12-20T00:04 | 10110 | 279 | -36.3 | -43.0 | ||
| 2025-12-20T00:04 | 10121 | 279 | 234 | 46 | ||
| 2025-12-20T00:05 | 10202 | 276 | -36.6 | -43.7 | ||
| 2025-12-20T00:05 | 10378 | 269 | -37.7 | -44.1 | ||
| 2025-12-20T00:05 | 10461 | 266 | 239 | 48 | ||
| 2025-12-20T00:05 | 10523 | 263 | -38.5 | -45.2 | ||
| 2025-12-20T00:06 | 10688 | 257 | -39.0 | -44.5 | ||
| 2025-12-20T00:06 | 10789 | 253 | -40.0 | -47.2 | ||
| 2025-12-20T00:06 | 10795 | 253 | 240 | 50 | ||
| 2025-12-20T00:07 | 11114 | 241 | 240 | 50 | ||
| 2025-12-20T00:08 | 11374 | 232 | 240 | 50 | ||
| 2025-12-20T00:09 | 11658 | 222 | 238 | 50 | ||
| 2025-12-20T00:10 | 11975 | 212 | 232 | 51 | ||
| 2025-12-20T00:10 | 11980 | 212 | -50.5 | |||
| 2025-12-20T00:11 | 12248 | 203 | 227 | 54 | ||
| 2025-12-20T00:12 | 12466 | 196 | 226 | 55 | ||
| 2025-12-20T00:13 | 12731 | 188 | 228 | 56 | ||
| 2025-12-20T00:14 | 13093 | 178 | 235 | 53 | ||
| 2025-12-20T00:15 | 13320 | 172 | -60.6 | |||
| 2025-12-20T00:15 | 13416 | 169 | 238 | 51 | ||
| 2025-12-20T00:16 | 13708 | 161 | 240 | 51 | ||
| 2025-12-20T00:17 | 13968 | 154 | 242 | 53 | ||
| 2025-12-20T00:18 | 14211 | 148 | 245 | 53 | ||
| 2025-12-20T00:19 | 14404 | 144 | -70.3 | |||
| 2025-12-20T00:19 | 14471 | 142 | 254 | 52 | ||
| 2025-12-20T00:20 | 14594 | 139 | -69.6 | |||
| 2025-12-20T00:20 | 14717 | 136 | 256 | 46 | ||
| 2025-12-20T00:21 | 14825 | 134 | -70.3 | |||
| 2025-12-20T00:21 | 14951 | 131 | 250 | 46 | ||
| 2025-12-20T00:22 | 15203 | 125 | 247 | 45 | ||
| 2025-12-20T00:22 | 15240 | 125 | -73.3 | |||
| 2025-12-20T00:23 | 15452 | 120 | 256 | 43 | ||
| 2025-12-20T00:24 | 15686 | 115 | -74.6 | |||
| 2025-12-20T00:24 | 15696 | 115 | 260 | 41 | ||
| 2025-12-20T00:25 | 15926 | 111 | 263 | 39 | ||
| 2025-12-20T00:25 | 15937 | 111 | -75.6 | |||
| 2025-12-20T00:26 | 16151 | 107 | 259 | 37 | ||
| 2025-12-20T00:27 | 16343 | 103 | -77.3 | |||
| 2025-12-20T00:27 | 16389 | 102 | 264 | 36 | ||
| 2025-12-20T00:28 | 16612 | 98 | -78.2 | |||
| 2025-12-20T00:28 | 16630 | 98 | 263 | 36 | ||
| 2025-12-20T00:29 | 16861 | 94 | 265 | 34 | ||
| 2025-12-20T00:30 | 16941 | 93 | -77.4 | |||
| 2025-12-20T00:30 | 16959 | 93 | 267 | 31 | ||
| 2025-12-20T00:30 | 17002 | 92 | -75.6 | |||
| 2025-12-20T00:30 | 17175 | 89 | 256 | 24 | ||
| 2025-12-20T00:31 | 17432 | 85 | 241 | 23 | ||
| 2025-12-20T00:32 | 17548 | 84 | -78.4 | |||
| 2025-12-20T00:32 | 17672 | 82 | 249 | 27 | ||
| 2025-12-20T00:33 | 17755 | 81 | -78.8 | |||
| 2025-12-20T00:33 | 17908 | 78 | 262 | 24 | ||
| 2025-12-20T00:34 | 18084 | 76 | -77.8 | |||
| 2025-12-20T00:34 | 18147 | 75 | 269 | 19 | ||
| 2025-12-20T00:35 | 18216 | 74 | -75.9 | |||
| 2025-12-20T00:35 | 18398 | 72 | 279 | 11 | ||
| 2025-12-20T00:36 | 18504 | 71 | -74.3 | |||
| 2025-12-20T00:36 | 18552 | 70 | 237 | 5 | ||
| 2025-12-20T00:37 | 18687 | 69 | -73.4 | |||
| 2025-12-20T00:37 | 18737 | 68 | 253 | 10 | ||
| 2025-12-20T00:37 | 18897 | 66 | -72.4 | |||
| 2025-12-20T00:38 | 19002 | 65 | 257 | 13 | ||
| 2025-12-20T00:38 | 19058 | 64 | -71.5 | |||
| 2025-12-20T00:38 | 19152 | 63 | -69.5 | |||
| 2025-12-20T00:39 | 19255 | 62 | 286 | 7 | ||
| 2025-12-20T00:39 | 19293 | 62 | -69.4 | |||
| 2025-12-20T00:39 | 19360 | 61 | 296 | 4 | ||
| 2025-12-20T00:40 | 19469 | 60 | -67.9 | |||
| 2025-12-20T00:40 | 19548 | 59 | 277 | 4 | ||
| 2025-12-20T00:41 | 19681 | 58 | 288 | 3 | ||
| 2025-12-20T00:41 | 19724 | 58 | 233 | 2 | ||
| 2025-12-20T00:41 | 19734 | 57 | -68.3 | |||
| 2025-12-20T00:41 | 19775 | 57 | 181 | 5 | ||
| 2025-12-20T00:41 | 19870 | 56 | -67.2 | |||
| 2025-12-20T00:42 | 19924 | 56 | 151 | 4 | ||
| 2025-12-20T00:42 | 20066 | 54 | 144 | 2 | ||
| 2025-12-20T00:42 | 20167 | 53 | 175 | 4 | ||
| 2025-12-20T00:43 | 20391 | 51 | 188 | 3 | ||
| 2025-12-20T00:44 | 20450 | 51 | -70.4 | |||
| 2025-12-20T00:44 | 20590 | 50 | 239 | 3 | ||
| 2025-12-20T00:44 | 20677 | 49 | 223 | 5 | ||
| 2025-12-20T00:45 | 20939 | 47 | 232 | 12 | ||
| 2025-12-20T00:46 | 21201 | 45 | 254 | 8 | ||
| 2025-12-20T00:47 | 21321 | 44 | -67.4 | |||
| 2025-12-20T00:47 | 21361 | 44 | 274 | 6 | ||
| 2025-12-20T00:48 | 21516 | 43 | 309 | 9 | ||
| 2025-12-20T00:48 | 21714 | 41 | -66.8 | |||
| 2025-12-20T00:48 | 21729 | 41 | 333 | 5 | ||
| 2025-12-20T00:49 | 21897 | 40 | 355 | 5 | ||
| 2025-12-20T00:50 | 22017 | 39 | 20 | 4 | ||
| 2025-12-20T00:50 | 22095 | 39 | -65.0 | |||
| 2025-12-20T00:51 | 22305 | 37 | 21 | 8 | ||
| 2025-12-20T00:52 | 22576 | 36 | 40 | 5 | ||
| 2025-12-20T00:52 | 22646 | 35 | -62.7 | |||
| 2025-12-20T00:52 | 22695 | 35 | 44 | 4 | ||
| 2025-12-20T00:52 | 22823 | 34 | 28 | 5 | ||
| 2025-12-20T00:53 | 23023 | 33 | -60.0 | |||
| 2025-12-20T00:53 | 23098 | 33 | 59 | 7 | ||
| 2025-12-20T00:54 | 23212 | 32 | 50 | 6 | ||
| 2025-12-20T00:54 | 23349 | 32 | 21 | 7 | ||
| 2025-12-20T00:55 | 23529 | 31 | 77 | 7 | ||
| 2025-12-20T00:56 | 23760 | 30 | 48 | 6 | ||
| 2025-12-20T00:56 | 23932 | 29 | 63 | 4 | ||
| 2025-12-20T00:56 | 23976 | 29 | -58.5 | |||
| 2025-12-20T00:57 | 24044 | 28 | 63 | 3 | ||
| 2025-12-20T00:57 | 24155 | 28 | 62 | 3 | ||
| 2025-12-20T00:58 | 24455 | 27 | 14 | 2 | ||
| 2025-12-20T00:59 | 24768 | 25 | 21 | 7 | ||
| 2025-12-20T01:00 | 24946 | 25 | -59.0 | |||
| 2025-12-20T01:00 | 24971 | 24 | 11 | 4 | ||
| 2025-12-20T01:00 | 25164 | 24 | -58.9 | 28 | 8 | |
| 2025-12-20T11:37 | 8 | 1017 | 20.3 | 19.0 | 350 | 1 |
| 2025-12-20T11:37 | 12 | 1017 | 20.5 | 19.3 | 0 | 0 |
| 2025-12-20T11:37 | 63 | 1011 | 21.2 | 18.4 | ||
| 2025-12-20T11:37 | 161 | 1000 | 21.3 | 15.4 | ||
| 2025-12-20T11:38 | 359 | 977 | 297 | 2 | ||
| 2025-12-20T11:38 | 365 | 976 | 19.8 | 16.8 | ||
| 2025-12-20T11:39 | 662 | 943 | 18.6 | 14.3 | ||
| 2025-12-20T11:39 | 707 | 938 | 294 | 3 | ||
| 2025-12-20T11:39 | 792 | 929 | 18.0 | 14.1 | ||
| 2025-12-20T11:40 | 901 | 917 | 293 | 3 | ||
| 2025-12-20T11:40 | 906 | 917 | 17.4 | 12.3 | ||
| 2025-12-20T11:40 | 1090 | 897 | 270 | 2 | ||
| 2025-12-20T11:40 | 1191 | 887 | 15.8 | 11.6 | ||
| 2025-12-20T11:40 | 1197 | 886 | 226 | 2 | ||
| 2025-12-20T11:41 | 1538 | 851 | 172 | 1 | ||
| 2025-12-20T11:42 | 1702 | 835 | 12.1 | 10.0 | ||
| 2025-12-20T11:42 | 1765 | 828 | 195 | 2 | ||
| 2025-12-20T11:43 | 1918 | 813 | 216 | 5 | ||
| 2025-12-20T11:43 | 2011 | 804 | 9.9 | 8.3 | ||
| 2025-12-20T11:43 | 2119 | 794 | 9.6 | 8.0 | ||
| 2025-12-20T11:44 | 2191 | 787 | 155 | 5 | ||
| 2025-12-20T11:44 | 2304 | 777 | 8.9 | 6.7 | ||
| 2025-12-20T11:44 | 2362 | 771 | 132 | 6 | ||
| 2025-12-20T11:44 | 2384 | 769 | 9.6 | 5.4 | ||
| 2025-12-20T11:44 | 2469 | 761 | 157 | 2 | ||
| 2025-12-20T11:45 | 2662 | 744 | 8.4 | 3.4 | ||
| 2025-12-20T11:45 | 2805 | 731 | 296 | 1 | ||
| 2025-12-20T11:46 | 2840 | 728 | 7.4 | 2.7 | ||
| 2025-12-20T11:46 | 2881 | 724 | 323 | 3 | ||
| 2025-12-20T11:46 | 2980 | 716 | 306 | 3 | ||
| 2025-12-20T11:46 | 3083 | 707 | 6.1 | 1.6 | ||
| 2025-12-20T11:47 | 3234 | 694 | 5.3 | -1.0 | ||
| 2025-12-20T11:47 | 3279 | 690 | 264 | 2 | ||
| 2025-12-20T11:47 | 3354 | 684 | 324 | 3 | ||
| 2025-12-20T11:47 | 3410 | 679 | 4.2 | -1.8 | ||
| 2025-12-20T11:47 | 3465 | 674 | 334 | 4 | ||
| 2025-12-20T11:48 | 3576 | 665 | 3.2 | -3.0 | ||
| 2025-12-20T11:48 | 3708 | 655 | 284 | 6 | ||
| 2025-12-20T11:48 | 3718 | 654 | 2.8 | -3.1 | ||
| 2025-12-20T11:49 | 3876 | 641 | 274 | 9 | ||
| 2025-12-20T11:49 | 3960 | 634 | 1.7 | -6.9 | ||
| 2025-12-20T11:50 | 4159 | 619 | 273 | 10 | ||
| 2025-12-20T11:50 | 4395 | 601 | -1.9 | -9.5 | ||
| 2025-12-20T11:50 | 4487 | 594 | 282 | 16 | ||
| 2025-12-20T11:51 | 4568 | 588 | -3.1 | -10.2 | ||
| 2025-12-20T11:51 | 4599 | 586 | 276 | 18 | ||
| 2025-12-20T11:51 | 4770 | 573 | -5.1 | -9.7 | ||
| 2025-12-20T11:51 | 4829 | 569 | 264 | 17 | ||
| 2025-12-20T11:51 | 4835 | 568 | -5.1 | -6.8 | ||
| 2025-12-20T11:52 | 5059 | 552 | 247 | 14 | ||
| 2025-12-20T11:52 | 5103 | 549 | -5.4 | -6.1 | ||
| 2025-12-20T11:53 | 5254 | 539 | 235 | 8 | ||
| 2025-12-20T11:53 | 5482 | 523 | -7.1 | -7.8 | ||
| 2025-12-20T11:53 | 5505 | 522 | 234 | 11 | ||
| 2025-12-20T11:54 | 5678 | 510 | 228 | 18 | ||
| 2025-12-20T11:55 | 5905 | 496 | -8.2 | -8.5 | ||
| 2025-12-20T11:55 | 6009 | 489 | 227 | 19 | ||
| 2025-12-20T11:56 | 6347 | 468 | 227 | 21 | ||
| 2025-12-20T11:56 | 6428 | 463 | -11.0 | -11.9 | ||
| 2025-12-20T11:57 | 6688 | 448 | 226 | 23 | ||
| 2025-12-20T11:57 | 6820 | 440 | -13.2 | -14.6 | ||
| 2025-12-20T11:58 | 6965 | 432 | 225 | 27 | ||
| 2025-12-20T11:58 | 7010 | 429 | -14.1 | -15.4 | ||
| 2025-12-20T11:59 | 7235 | 417 | -15.5 | -17.4 | ||
| 2025-12-20T11:59 | 7259 | 415 | 223 | 30 | ||
| 2025-12-20T12:00 | 7536 | 400 | 223 | 31 | ||
| 2025-12-20T12:01 | 7806 | 386 | 221 | 31 | ||
| 2025-12-20T12:01 | 7856 | 384 | -20.0 | -21.9 | ||
| 2025-12-20T12:02 | 8086 | 372 | 219 | 31 | ||
| 2025-12-20T12:02 | 8299 | 361 | -23.5 | -25.2 | ||
| 2025-12-20T12:03 | 8361 | 358 | 217 | 32 | ||
| 2025-12-20T12:04 | 8621 | 345 | 212 | 32 | ||
| 2025-12-20T12:04 | 8816 | 336 | -27.6 | -29.6 | ||
| 2025-12-20T12:05 | 8893 | 333 | 213 | 35 | ||
| 2025-12-20T12:06 | 9150 | 321 | -30.8 | -40.3 | ||
| 2025-12-20T12:06 | 9154 | 321 | 223 | 36 | ||
| 2025-12-20T12:06 | 9193 | 319 | -30.9 | -40.9 | ||
| 2025-12-20T12:06 | 9297 | 314 | -31.3 | -41.2 | ||
| 2025-12-20T12:07 | 9378 | 311 | 226 | 37 | ||
| 2025-12-20T12:08 | 9597 | 301 | -32.1 | -43.6 | ||
| 2025-12-20T12:08 | 9601 | 301 | 229 | 39 | ||
| 2025-12-20T12:08 | 9679 | 298 | -32.1 | -43.9 | ||
| 2025-12-20T12:09 | 9824 | 292 | 234 | 39 | ||
| 2025-12-20T12:09 | 9902 | 289 | -33.5 | -46.1 | ||
| 2025-12-20T12:10 | 10029 | 284 | 233 | 38 | ||
| 2025-12-20T12:11 | 10219 | 276 | -35.9 | -48.9 | ||
| 2025-12-20T12:11 | 10229 | 275 | 236 | 38 | ||
| 2025-12-20T12:12 | 10420 | 268 | 236 | 39 | ||
| 2025-12-20T12:12 | 10537 | 263 | -37.6 | -51.1 | ||
| 2025-12-20T12:13 | 10618 | 260 | 242 | 44 | ||
| 2025-12-20T12:13 | 10686 | 258 | -38.5 | -49.9 | ||
| 2025-12-20T12:14 | 10815 | 253 | 242 | 44 | ||
| 2025-12-20T12:14 | 10853 | 251 | -40.0 | -51.0 | ||
| 2025-12-20T12:15 | 11019 | 245 | 243 | 44 | ||
| 2025-12-20T12:16 | 11224 | 238 | 243 | 44 | ||
| 2025-12-20T12:17 | 11425 | 231 | 244 | 44 | ||
| 2025-12-20T12:18 | 11633 | 224 | 240 | 45 | ||
| 2025-12-20T12:19 | 11870 | 216 | 236 | 46 | ||
| 2025-12-20T12:19 | 11910 | 215 | -49.9 | |||
| 2025-12-20T12:20 | 12090 | 209 | 234 | 46 | ||
| 2025-12-20T12:21 | 12306 | 202 | 230 | 48 | ||
| 2025-12-20T12:22 | 12525 | 195 | 229 | 49 | ||
| 2025-12-20T12:22 | 12624 | 192 | -55.4 | |||
| 2025-12-20T12:23 | 12744 | 189 | 232 | 49 | ||
| 2025-12-20T12:24 | 12955 | 182 | -56.6 | |||
| 2025-12-20T12:24 | 12976 | 182 | 239 | 47 | ||
| 2025-12-20T12:25 | 13165 | 176 | 238 | 47 | ||
| 2025-12-20T12:26 | 13332 | 172 | 237 | 46 | ||
| 2025-12-20T12:26 | 13510 | 167 | 237 | 47 | ||
| 2025-12-20T12:28 | 13708 | 162 | 238 | 47 | ||
| 2025-12-20T12:29 | 13913 | 156 | -66.0 | |||
| 2025-12-20T12:29 | 13945 | 156 | 238 | 47 | ||
| 2025-12-20T12:30 | 14170 | 150 | 239 | 47 | ||
| 2025-12-20T12:31 | 14383 | 145 | 239 | 48 | ||
| 2025-12-20T12:32 | 14577 | 140 | 241 | 49 | ||
| 2025-12-20T12:32 | 14633 | 139 | -72.2 | |||
| 2025-12-20T12:33 | 14759 | 136 | 244 | 46 | ||
| 2025-12-20T12:34 | 14938 | 132 | 247 | 46 | ||
| 2025-12-20T12:35 | 15128 | 127 | 250 | 45 | ||
| 2025-12-20T12:35 | 15196 | 126 | -74.9 | |||
| 2025-12-20T12:36 | 15311 | 124 | 255 | 42 | ||
| 2025-12-20T12:36 | 15334 | 123 | -73.8 | |||
| 2025-12-20T12:37 | 15480 | 120 | 256 | 40 | ||
| 2025-12-20T12:37 | 15572 | 118 | -75.2 | |||
| 2025-12-20T12:38 | 15658 | 116 | 258 | 39 | ||
| 2025-12-20T12:38 | 15673 | 116 | -75.4 | |||
| 2025-12-20T12:39 | 15835 | 113 | 257 | 39 | ||
| 2025-12-20T12:40 | 16008 | 110 | 256 | 38 | ||
| 2025-12-20T12:41 | 16152 | 107 | -76.7 | |||
| 2025-12-20T12:41 | 16180 | 106 | 251 | 37 | ||
| 2025-12-20T12:42 | 16343 | 103 | 257 | 36 | ||
| 2025-12-20T12:43 | 16496 | 101 | 261 | 35 | ||
| 2025-12-20T12:44 | 16655 | 98 | 260 | 34 | ||
| 2025-12-20T12:45 | 16822 | 95 | -79.2 | |||
| 2025-12-20T12:45 | 16828 | 95 | 258 | 32 | ||
| 2025-12-20T12:46 | 16955 | 93 | -78.4 | |||
| 2025-12-20T12:46 | 16992 | 92 | 253 | 30 | ||
| 2025-12-20T12:46 | 17068 | 91 | -75.7 | |||
| 2025-12-20T12:47 | 17132 | 90 | 252 | 27 | ||
| 2025-12-20T12:47 | 17145 | 90 | -74.7 | |||
| 2025-12-20T12:48 | 17262 | 88 | 253 | 28 | ||
| 2025-12-20T12:49 | 17396 | 86 | 258 | 27 | ||
| 2025-12-20T12:50 | 17538 | 84 | 247 | 25 | ||
| 2025-12-20T12:51 | 17692 | 82 | 239 | 24 | ||
| 2025-12-20T12:52 | 17835 | 80 | -77.8 | 227 | 25 | |
| 2025-12-20T12:53 | 17975 | 78 | 227 | 24 | ||
| 2025-12-20T12:54 | 18100 | 76 | 234 | 22 | ||
| 2025-12-20T12:55 | 18214 | 75 | 237 | 22 | ||
| 2025-12-20T12:56 | 18320 | 73 | 238 | 19 | ||
| 2025-12-20T12:56 | 18327 | 73 | -78.8 | |||
| 2025-12-20T12:57 | 18422 | 72 | 238 | 15 | ||
| 2025-12-20T12:58 | 18502 | 71 | 227 | 15 | ||
| 2025-12-20T12:59 | 18549 | 70 | -78.1 | |||
| 2025-12-20T12:59 | 18565 | 70 | 217 | 18 | ||
| 2025-12-20T13:01 | 18630 | 69 | 216 | 20 | ||
| 2025-12-20T13:02 | 18697 | 69 | 216 | 21 | ||
| 2025-12-20T13:03 | 18755 | 68 | 218 | 22 | ||
| 2025-12-20T13:04 | 18797 | 67 | 222 | 22 | ||
| 2025-12-20T13:04 | 18805 | 67 | -78.6 | |||
| 2025-12-20T13:05 | 18831 | 67 | -78.4 | 229 | 23 | |
| 2025-12-21T00:32 | 8 | 1018 | 21.0 | 19.7 | 50 | 3 |
| 2025-12-21T00:32 | 17 | 1017 | 21.1 | 19.8 | 0 | 0 |
| 2025-12-21T00:32 | 80 | 1010 | 30 | 4 | ||
| 2025-12-21T00:32 | 100 | 1008 | 21.6 | 18.8 | ||
| 2025-12-21T00:32 | 131 | 1004 | 22.1 | 18.7 | ||
| 2025-12-21T00:32 | 162 | 1000 | 51 | 9 | ||
| 2025-12-21T00:33 | 479 | 965 | 48 | 13 | ||
| 2025-12-21T00:34 | 576 | 954 | 18.3 | 17.3 | ||
| 2025-12-21T00:34 | 728 | 937 | 16.8 | 16.0 | ||
| 2025-12-21T00:34 | 795 | 930 | 17.1 | 13.6 | 47 | 11 |
| 2025-12-21T00:35 | 987 | 909 | 36 | 9 | ||
| 2025-12-21T00:35 | 1004 | 907 | 15.8 | 12.7 | ||
| 2025-12-21T00:36 | 1250 | 881 | 48 | 6 | ||
| 2025-12-21T00:36 | 1298 | 876 | 13.8 | 12.5 | ||
| 2025-12-21T00:36 | 1346 | 871 | 39 | 5 | ||
| 2025-12-21T00:36 | 1456 | 860 | 43 | 7 | ||
| 2025-12-21T00:37 | 1568 | 849 | 34 | 5 | ||
| 2025-12-21T00:37 | 1628 | 843 | 11.8 | 10.9 | ||
| 2025-12-21T00:37 | 1688 | 837 | 19 | 7 | ||
| 2025-12-21T00:37 | 1780 | 827 | 11.2 | 9.8 | ||
| 2025-12-21T00:38 | 1795 | 826 | 6 | 6 | ||
| 2025-12-21T00:38 | 1930 | 813 | 359 | 6 | ||
| 2025-12-21T00:38 | 2008 | 805 | 9.8 | 8.7 | ||
| 2025-12-21T00:38 | 2087 | 798 | 26 | 5 | ||
| 2025-12-21T00:39 | 2303 | 777 | 347 | 4 | ||
| 2025-12-21T00:39 | 2416 | 767 | 7.4 | 7.1 | ||
| 2025-12-21T00:39 | 2427 | 765 | 348 | 4 | ||
| 2025-12-21T00:40 | 2555 | 754 | 292 | 3 | ||
| 2025-12-21T00:40 | 2758 | 735 | 287 | 3 | ||
| 2025-12-21T00:41 | 2850 | 727 | 260 | 3 | ||
| 2025-12-21T00:41 | 2860 | 726 | 4.0 | 2.5 | ||
| 2025-12-21T00:41 | 2981 | 715 | 3.1 | -1.3 | 295 | 5 |
| 2025-12-21T00:41 | 3063 | 708 | 3.3 | -3.3 | ||
| 2025-12-21T00:42 | 3118 | 703 | 269 | 7 | ||
| 2025-12-21T00:42 | 3152 | 700 | 3.4 | -3.6 | ||
| 2025-12-21T00:42 | 3187 | 697 | 3.8 | -2.8 | ||
| 2025-12-21T00:43 | 3444 | 676 | 2.6 | -3.9 | ||
| 2025-12-21T00:43 | 3462 | 674 | 284 | 7 | ||
| 2025-12-21T00:43 | 3574 | 665 | 1.8 | -2.7 | ||
| 2025-12-21T00:43 | 3703 | 654 | 1.3 | -3.8 | ||
| 2025-12-21T00:44 | 3797 | 647 | 286 | 5 | ||
| 2025-12-21T00:44 | 3924 | 637 | 0.1 | -2.8 | ||
| 2025-12-21T00:44 | 3948 | 635 | 235 | 2 | ||
| 2025-12-21T00:44 | 4026 | 629 | 297 | 3 | ||
| 2025-12-21T00:44 | 4110 | 622 | -0.9 | -3.3 | ||
| 2025-12-21T00:45 | 4276 | 609 | 347 | 6 | ||
| 2025-12-21T00:45 | 4373 | 602 | -2.9 | -3.7 | ||
| 2025-12-21T00:45 | 4435 | 597 | 314 | 9 | ||
| 2025-12-21T00:46 | 4468 | 595 | -2.7 | -4.7 | ||
| 2025-12-21T00:46 | 4546 | 589 | 315 | 7 | ||
| 2025-12-21T00:46 | 4558 | 588 | -3.1 | -6.7 | ||
| 2025-12-21T00:46 | 4639 | 582 | 278 | 10 | ||
| 2025-12-21T00:46 | 4693 | 578 | -3.5 | -11.0 | ||
| 2025-12-21T00:46 | 4742 | 574 | -3.5 | -11.9 | ||
| 2025-12-21T00:47 | 4796 | 570 | -2.9 | -15.9 | ||
| 2025-12-21T00:47 | 4952 | 559 | -4.2 | -19.6 | 268 | 13 |
| 2025-12-21T00:48 | 5272 | 537 | 268 | 16 | ||
| 2025-12-21T00:48 | 5351 | 531 | -7.0 | -40.4 | ||
| 2025-12-21T00:49 | 5613 | 514 | 265 | 21 | ||
| 2025-12-21T00:50 | 5837 | 499 | -9.9 | -50.8 | ||
| 2025-12-21T00:50 | 5993 | 489 | 248 | 20 | ||
| 2025-12-21T00:50 | 6031 | 487 | -11.0 | -51.6 | ||
| 2025-12-21T00:51 | 6320 | 469 | -13.0 | -52.9 | ||
| 2025-12-21T00:51 | 6369 | 466 | 240 | 23 | ||
| 2025-12-21T00:52 | 6641 | 449 | -15.0 | -59.9 | ||
| 2025-12-21T00:52 | 6742 | 443 | 234 | 25 | ||
| 2025-12-21T00:52 | 6877 | 435 | -16.4 | -60.8 | ||
| 2025-12-21T00:53 | 6998 | 428 | -16.7 | -49.6 | ||
| 2025-12-21T00:53 | 7023 | 427 | 236 | 27 | ||
| 2025-12-21T00:53 | 7170 | 419 | -17.4 | -61.4 | ||
| 2025-12-21T00:53 | 7257 | 414 | 235 | 29 | ||
| 2025-12-21T00:54 | 7543 | 398 | -19.3 | -46.6 | ||
| 2025-12-21T00:54 | 7608 | 395 | 226 | 34 | ||
| 2025-12-21T00:55 | 7649 | 393 | -19.7 | -48.3 | ||
| 2025-12-21T00:55 | 7942 | 377 | 223 | 34 | ||
| 2025-12-21T00:56 | 8127 | 368 | -22.9 | -59.7 | ||
| 2025-12-21T00:56 | 8251 | 362 | 229 | 34 | ||
| 2025-12-21T00:57 | 8565 | 346 | 232 | 35 | ||
| 2025-12-21T00:58 | 8638 | 343 | -26.7 | -67.5 | ||
| 2025-12-21T00:58 | 8904 | 331 | -28.1 | -68.4 | ||
| 2025-12-21T00:58 | 8910 | 330 | 232 | 37 | ||
| 2025-12-21T00:59 | 9002 | 326 | -28.0 | -68.4 | ||
| 2025-12-21T00:59 | 9057 | 324 | 226 | 40 | ||
| 2025-12-21T00:59 | 9180 | 318 | -29.6 | -69.4 | ||
| 2025-12-21T01:00 | 9405 | 308 | 228 | 43 | ||
| 2025-12-21T01:00 | 9429 | 307 | -30.9 | -70.3 | ||
| 2025-12-21T01:01 | 9757 | 293 | 229 | 43 | ||
| 2025-12-21T01:02 | 10114 | 278 | 227 | 44 | ||
| 2025-12-21T01:03 | 10443 | 266 | 234 | 44 | ||
| 2025-12-21T01:03 | 10457 | 265 | -37.9 | -62.3 | ||
| 2025-12-21T01:04 | 10702 | 256 | -40.0 | -60.0 | ||
| 2025-12-21T01:04 | 10730 | 255 | 240 | 46 | ||
| 2025-12-21T01:05 | 10989 | 245 | 241 | 48 | ||
| 2025-12-21T01:06 | 11260 | 235 | 240 | 49 | ||
| 2025-12-21T01:07 | 11516 | 227 | -46.3 | |||
| 2025-12-21T01:07 | 11540 | 226 | 239 | 50 | ||
| 2025-12-21T01:08 | 11827 | 216 | 241 | 49 | ||
| 2025-12-21T01:09 | 12133 | 206 | 241 | 50 | ||
| 2025-12-21T01:10 | 12444 | 197 | 236 | 53 | ||
| 2025-12-21T01:10 | 12534 | 194 | -54.8 | |||
| 2025-12-21T01:11 | 12730 | 188 | 236 | 53 | ||
| 2025-12-21T01:12 | 12989 | 180 | 238 | 55 | ||
| 2025-12-21T01:12 | 13086 | 178 | -58.5 | |||
| 2025-12-21T01:13 | 13272 | 172 | 240 | 53 | ||
| 2025-12-21T01:14 | 13570 | 164 | 242 | 52 | ||
| 2025-12-21T01:15 | 13817 | 158 | 242 | 52 | ||
| 2025-12-21T01:16 | 14106 | 150 | 242 | 52 | ||
| 2025-12-21T01:17 | 14444 | 142 | 245 | 49 | ||
| 2025-12-21T01:17 | 14558 | 139 | -72.0 | |||
| 2025-12-21T01:18 | 14754 | 135 | 247 | 47 | ||
| 2025-12-21T01:18 | 14867 | 132 | -70.5 | |||
| 2025-12-21T01:19 | 15050 | 128 | 249 | 43 | ||
| 2025-12-21T01:20 | 15320 | 123 | 245 | 41 | ||
| 2025-12-21T01:20 | 15361 | 122 | -72.4 | |||
| 2025-12-21T01:21 | 15576 | 117 | -72.0 | |||
| 2025-12-21T01:21 | 15593 | 117 | 247 | 39 | ||
| 2025-12-21T01:22 | 15807 | 113 | -73.0 | |||
| 2025-12-21T01:22 | 15881 | 111 | 244 | 38 | ||
| 2025-12-21T01:23 | 16171 | 106 | 245 | 36 | ||
| 2025-12-21T01:24 | 16479 | 101 | 239 | 34 | ||
| 2025-12-21T01:24 | 16508 | 100 | -75.0 | |||
| 2025-12-21T01:24 | 16631 | 98 | -75.9 | |||
| 2025-12-21T01:25 | 16793 | 95 | 233 | 34 | ||
| 2025-12-21T01:26 | 17135 | 90 | 246 | 32 | ||
| 2025-12-21T01:27 | 17442 | 85 | 255 | 33 | ||
| 2025-12-21T01:27 | 17547 | 83 | -81.6 | |||
| 2025-12-21T01:28 | 17726 | 81 | 253 | 31 | ||
| 2025-12-21T01:28 | 17858 | 79 | -82.5 | |||
| 2025-12-21T01:28 | 17900 | 78 | 247 | 28 | ||
| 2025-12-21T01:29 | 17983 | 77 | -74.4 | |||
| 2025-12-21T01:29 | 18108 | 76 | -70.6 | |||
| 2025-12-21T01:29 | 18123 | 75 | 267 | 19 | ||
| 2025-12-21T01:30 | 18289 | 73 | -70.8 | |||
| 2025-12-21T01:30 | 18298 | 73 | 271 | 17 | ||
| 2025-12-21T01:30 | 18345 | 73 | -67.8 | |||
| 2025-12-21T01:30 | 18447 | 71 | 242 | 9 | ||
| 2025-12-21T01:31 | 18791 | 67 | 204 | 12 | ||
| 2025-12-21T01:32 | 19105 | 64 | 219 | 13 | ||
| 2025-12-21T01:32 | 19216 | 63 | -73.6 | |||
| 2025-12-21T01:33 | 19368 | 61 | 246 | 12 | ||
| 2025-12-21T01:33 | 19524 | 59 | 272 | 6 | ||
| 2025-12-21T01:34 | 19622 | 58 | -71.8 | |||
| 2025-12-21T01:34 | 19630 | 58 | 297 | 6 | ||
| 2025-12-21T01:35 | 19944 | 55 | 254 | 9 | ||
| 2025-12-21T01:35 | 20071 | 54 | -71.5 | |||
| 2025-12-21T01:35 | 20102 | 54 | 258 | 9 | ||
| 2025-12-21T01:36 | 20259 | 52 | 252 | 3 | ||
| 2025-12-21T01:36 | 20374 | 51 | -69.6 | |||
| 2025-12-21T01:36 | 20387 | 51 | 257 | 6 | ||
| 2025-12-21T01:37 | 20537 | 50 | 276 | 10 | ||
| 2025-12-21T01:37 | 20553 | 50 | -69.2 | |||
| 2025-12-21T01:37 | 20737 | 48 | 251 | 6 | ||
| 2025-12-21T01:38 | 20927 | 47 | -67.4 | |||
| 2025-12-21T01:38 | 20992 | 46 | 201 | 7 | ||
| 2025-12-21T01:39 | 21149 | 45 | -65.9 | |||
| 2025-12-21T01:39 | 21246 | 45 | 245 | 5 | ||
| 2025-12-21T01:39 | 21440 | 43 | 313 | 6 | ||
| 2025-12-21T01:40 | 21540 | 42 | 293 | 1 | ||
| 2025-12-21T01:40 | 21641 | 42 | 129 | 3 | ||
| 2025-12-21T01:40 | 21732 | 41 | -63.0 | |||
| 2025-12-21T01:40 | 21746 | 41 | 152 | 3 | ||
| 2025-12-21T01:41 | 21839 | 40 | 175 | 2 | ||
| 2025-12-21T01:41 | 22102 | 39 | 9 | 2 | ||
| 2025-12-21T01:42 | 22265 | 38 | 62 | 5 | ||
| 2025-12-21T01:42 | 22430 | 37 | -61.8 | |||
| 2025-12-21T01:43 | 22533 | 36 | 110 | 5 | ||
| 2025-12-21T01:43 | 22657 | 35 | 93 | 4 | ||
| 2025-12-21T01:43 | 22690 | 35 | -60.3 | |||
| 2025-12-21T01:44 | 22906 | 34 | 126 | 6 | ||
| 2025-12-21T01:44 | 23054 | 33 | 81 | 3 | ||
| 2025-12-21T01:45 | 23169 | 33 | -60.5 | 113 | 4 | |
| 2025-12-21T11:31 | 8 | 1020 | 20.4 | 14.8 | 20 | 9 |
| 2025-12-21T11:31 | 11 | 1020 | 20.5 | 15.1 | 356 | 2 |
| 2025-12-21T11:31 | 33 | 1017 | 24 | 7 | ||
| 2025-12-21T11:31 | 103 | 1009 | 20 | 11 | ||
| 2025-12-21T11:32 | 328 | 983 | 23 | 16 | ||
| 2025-12-21T11:32 | 409 | 974 | 16.9 | 13.8 | ||
| 2025-12-21T11:33 | 567 | 956 | 23 | 16 | ||
| 2025-12-21T11:34 | 904 | 918 | 25 | 17 | ||
| 2025-12-21T11:34 | 959 | 913 | 11.7 | 11.2 | ||
| 2025-12-21T11:34 | 1071 | 900 | 12.2 | 9.6 | ||
| 2025-12-21T11:34 | 1086 | 899 | 30 | 14 | ||
| 2025-12-21T11:35 | 1312 | 875 | 36 | 12 | ||
| 2025-12-21T11:36 | 1533 | 852 | 10.1 | 7.2 | ||
| 2025-12-21T11:36 | 1573 | 848 | 10.2 | 5.8 | ||
| 2025-12-21T11:36 | 1578 | 847 | 48 | 7 | ||
| 2025-12-21T11:36 | 1604 | 845 | 11.3 | 3.3 | ||
| 2025-12-21T11:36 | 1647 | 840 | 11.7 | 2.2 | ||
| 2025-12-21T11:36 | 1684 | 837 | 21 | 6 | ||
| 2025-12-21T11:36 | 1705 | 834 | 11.9 | 1.5 | ||
| 2025-12-21T11:37 | 1782 | 827 | 12.6 | 0.4 | ||
| 2025-12-21T11:37 | 1842 | 821 | 351 | 3 | ||
| 2025-12-21T11:38 | 2084 | 798 | 10.1 | 3.2 | ||
| 2025-12-21T11:38 | 2117 | 794 | 346 | 4 | ||
| 2025-12-21T11:38 | 2268 | 780 | 333 | 3 | ||
| 2025-12-21T11:38 | 2346 | 773 | 8.0 | 6.1 | ||
| 2025-12-21T11:38 | 2380 | 770 | 24 | 1 | ||
| 2025-12-21T11:39 | 2477 | 761 | 127 | 3 | ||
| 2025-12-21T11:39 | 2510 | 758 | 6.6 | 5.5 | ||
| 2025-12-21T11:39 | 2571 | 752 | 7.1 | 5.1 | ||
| 2025-12-21T11:39 | 2633 | 746 | 141 | 5 | ||
| 2025-12-21T11:40 | 2852 | 727 | 134 | 5 | ||
| 2025-12-21T11:40 | 2921 | 721 | 4.6 | 3.4 | ||
| 2025-12-21T11:40 | 2996 | 714 | 164 | 7 | ||
| 2025-12-21T11:41 | 3052 | 709 | 3.5 | 2.8 | ||
| 2025-12-21T11:41 | 3113 | 704 | 175 | 6 | ||
| 2025-12-21T11:41 | 3219 | 695 | 2.2 | 1.5 | ||
| 2025-12-21T11:41 | 3260 | 691 | 2.0 | -0.1 | ||
| 2025-12-21T11:42 | 3336 | 685 | 3.4 | -1.9 | ||
| 2025-12-21T11:42 | 3355 | 683 | 212 | 2 | ||
| 2025-12-21T11:42 | 3411 | 678 | 241 | 3 | ||
| 2025-12-21T11:42 | 3429 | 677 | 2.9 | -4.1 | ||
| 2025-12-21T11:42 | 3473 | 673 | 291 | 4 | ||
| 2025-12-21T11:43 | 3580 | 664 | 2.9 | -14.3 | ||
| 2025-12-21T11:43 | 3597 | 663 | 314 | 3 | ||
| 2025-12-21T11:43 | 3607 | 662 | 3.4 | -20.1 | ||
| 2025-12-21T11:43 | 3642 | 659 | 4.8 | -31.8 | ||
| 2025-12-21T11:43 | 3669 | 657 | 342 | 5 | ||
| 2025-12-21T11:43 | 3700 | 655 | 5.5 | -36.5 | ||
| 2025-12-21T11:44 | 3896 | 639 | 4.0 | -32.4 | ||
| 2025-12-21T11:44 | 3917 | 637 | 327 | 7 | ||
| 2025-12-21T11:44 | 4080 | 625 | 321 | 7 | ||
| 2025-12-21T11:45 | 4184 | 617 | 2.5 | -38.6 | ||
| 2025-12-21T11:45 | 4428 | 598 | 321 | 9 | ||
| 2025-12-21T11:46 | 4793 | 571 | 305 | 9 | ||
| 2025-12-21T11:47 | 5051 | 553 | -5.3 | -44.0 | ||
| 2025-12-21T11:47 | 5137 | 547 | 310 | 9 | ||
| 2025-12-21T11:48 | 5433 | 526 | 315 | 12 | ||
| 2025-12-21T11:49 | 5762 | 504 | 312 | 18 | ||
| 2025-12-21T11:50 | 5910 | 495 | -12.1 | -44.2 | ||
| 2025-12-21T11:50 | 6070 | 485 | 294 | 19 | ||
| 2025-12-21T11:51 | 6392 | 465 | 270 | 19 | ||
| 2025-12-21T11:52 | 6554 | 455 | -15.3 | -46.6 | ||
| 2025-12-21T11:52 | 6722 | 445 | 259 | 23 | ||
| 2025-12-21T11:52 | 6740 | 444 | -15.6 | -46.8 | ||
| 2025-12-21T11:53 | 6981 | 430 | -17.1 | -49.9 | ||
| 2025-12-21T11:53 | 7069 | 425 | 250 | 26 | ||
| 2025-12-21T11:54 | 7400 | 406 | 248 | 29 | ||
| 2025-12-21T11:55 | 7738 | 388 | 249 | 32 | ||
| 2025-12-21T11:56 | 8037 | 373 | -24.4 | -55.3 | ||
| 2025-12-21T11:56 | 8083 | 370 | 239 | 30 | ||
| 2025-12-21T11:57 | 8329 | 358 | 234 | 33 | ||
| 2025-12-21T11:57 | 8422 | 353 | -25.4 | -56.0 | ||
| 2025-12-21T11:58 | 8536 | 348 | -25.1 | -55.8 | ||
| 2025-12-21T11:58 | 8554 | 347 | 230 | 41 | ||
| 2025-12-21T11:59 | 8801 | 335 | 227 | 42 | ||
| 2025-12-21T11:59 | 8859 | 333 | -27.5 | -51.8 | ||
| 2025-12-21T12:00 | 8988 | 327 | -27.9 | -51.1 | ||
| 2025-12-21T12:00 | 9021 | 325 | -28.0 | -46.7 | ||
| 2025-12-21T12:00 | 9051 | 324 | 226 | 45 | ||
| 2025-12-21T12:00 | 9077 | 323 | -27.9 | -60.1 | ||
| 2025-12-21T12:01 | 9315 | 312 | 227 | 45 | ||
| 2025-12-21T12:02 | 9594 | 300 | 226 | 46 | ||
| 2025-12-21T12:02 | 9615 | 299 | -32.0 | -57.7 | ||
| 2025-12-21T12:02 | 9710 | 295 | -32.9 | -48.3 | ||
| 2025-12-21T12:03 | 9899 | 287 | -34.7 | -43.6 | ||
| 2025-12-21T12:03 | 9933 | 286 | 223 | 47 | ||
| 2025-12-21T12:03 | 9955 | 285 | -35.3 | -39.7 | ||
| 2025-12-21T12:03 | 10084 | 280 | -36.4 | -40.6 | ||
| 2025-12-21T12:04 | 10129 | 278 | -36.6 | -41.4 | ||
| 2025-12-21T12:04 | 10182 | 276 | -36.7 | -43.0 | ||
| 2025-12-21T12:04 | 10238 | 274 | 223 | 48 | ||
| 2025-12-21T12:04 | 10346 | 269 | -38.0 | -46.8 | ||
| 2025-12-21T12:05 | 10447 | 266 | -38.5 | -54.0 | ||
| 2025-12-21T12:05 | 10494 | 264 | 226 | 48 | ||
| 2025-12-21T12:05 | 10561 | 261 | -39.3 | -58.7 | ||
| 2025-12-21T12:05 | 10658 | 257 | -40.0 | -56.8 | ||
| 2025-12-21T12:06 | 10811 | 252 | 233 | 47 | ||
| 2025-12-21T12:06 | 10988 | 245 | -42.6 | |||
| 2025-12-21T12:07 | 11127 | 240 | 241 | 51 | ||
| 2025-12-21T12:08 | 11377 | 231 | 240 | 52 | ||
| 2025-12-21T12:09 | 11617 | 223 | 240 | 54 | ||
| 2025-12-21T12:10 | 11813 | 217 | -48.4 | |||
| 2025-12-21T12:10 | 11858 | 215 | 238 | 53 | ||
| 2025-12-21T12:11 | 12108 | 207 | 238 | 54 | ||
| 2025-12-21T12:12 | 12379 | 199 | 236 | 53 | ||
| 2025-12-21T12:13 | 12645 | 190 | 236 | 53 | ||
| 2025-12-21T12:14 | 12907 | 183 | 235 | 52 | ||
| 2025-12-21T12:15 | 13137 | 176 | -60.6 | |||
| 2025-12-21T12:15 | 13188 | 175 | 233 | 52 | ||
| 2025-12-21T12:16 | 13349 | 170 | -61.7 | |||
| 2025-12-21T12:16 | 13451 | 167 | 229 | 53 | ||
| 2025-12-21T12:16 | 13530 | 165 | -62.6 | |||
| 2025-12-21T12:17 | 13752 | 159 | 233 | 52 | ||
| 2025-12-21T12:18 | 14035 | 152 | 238 | 53 | ||
| 2025-12-21T12:19 | 14289 | 146 | 241 | 54 | ||
| 2025-12-21T12:20 | 14537 | 140 | -71.1 | |||
| 2025-12-21T12:20 | 14541 | 140 | 243 | 51 | ||
| 2025-12-21T12:21 | 14797 | 134 | 249 | 47 | ||
| 2025-12-21T12:22 | 15061 | 128 | 248 | 46 | ||
| 2025-12-21T12:22 | 15111 | 127 | -72.4 | |||
| 2025-12-21T12:23 | 15337 | 122 | 239 | 45 | ||
| 2025-12-21T12:23 | 15386 | 121 | -73.0 | |||
| 2025-12-21T12:24 | 15565 | 117 | -73.9 | |||
| 2025-12-21T12:24 | 15612 | 116 | 244 | 46 | ||
| 2025-12-21T12:25 | 15802 | 113 | -74.9 | |||
| 2025-12-21T12:25 | 15922 | 110 | 254 | 44 | ||
| 2025-12-21T12:25 | 15994 | 109 | -75.8 | |||
| 2025-12-21T12:26 | 16167 | 106 | -74.2 | |||
| 2025-12-21T12:26 | 16220 | 105 | 253 | 42 | ||
| 2025-12-21T12:26 | 16371 | 102 | -74.9 | |||
| 2025-12-21T12:27 | 16505 | 100 | 255 | 41 | ||
| 2025-12-21T12:28 | 16796 | 95 | 263 | 40 | ||
| 2025-12-21T12:28 | 16894 | 93 | -77.8 | |||
| 2025-12-21T12:29 | 17023 | 91 | 266 | 34 | ||
| 2025-12-21T12:30 | 17233 | 88 | 266 | 32 | ||
| 2025-12-21T12:30 | 17346 | 86 | -78.0 | |||
| 2025-12-21T12:31 | 17486 | 84 | 249 | 28 | ||
| 2025-12-21T12:31 | 17519 | 84 | -77.3 | |||
| 2025-12-21T12:31 | 17716 | 81 | 256 | 31 | ||
| 2025-12-21T12:32 | 17919 | 78 | -76.0 | 267 | 30 | |
| 2025-12-21T12:33 | 18209 | 74 | -73.3 | |||
| 2025-12-21T12:33 | 18224 | 74 | 258 | 16 | ||
| 2025-12-21T12:34 | 18517 | 70 | 247 | 17 | ||
| 2025-12-21T12:34 | 18573 | 70 | -74.9 | |||
| 2025-12-21T12:35 | 18780 | 67 | 256 | 19 | ||
| 2025-12-21T12:35 | 18843 | 67 | -72.2 | |||
| 2025-12-21T12:36 | 19040 | 64 | 270 | 17 | ||
| 2025-12-21T12:36 | 19095 | 64 | -69.7 | |||
| 2025-12-21T12:37 | 19160 | 63 | -69.1 | |||
| 2025-12-21T12:37 | 19237 | 62 | 256 | 9 | ||
| 2025-12-21T12:38 | 19270 | 62 | -69.5 | 217 | 7 | |
| 2025-12-21T23:31 | 8 | 1021 | 20.3 | 13.3 | 30 | 8 |
| 2025-12-21T23:31 | 12 | 1020 | 20.3 | 13.5 | 30 | 1 |
| 2025-12-21T23:31 | 71 | 1013 | 20 | 7 | ||
| 2025-12-21T23:32 | 270 | 990 | 38 | 15 | ||
| 2025-12-21T23:32 | 381 | 977 | 17.3 | 12.2 | ||
| 2025-12-21T23:33 | 599 | 953 | 37 | 15 | ||
| 2025-12-21T23:34 | 939 | 915 | 40 | 14 | ||
| 2025-12-21T23:34 | 1028 | 905 | 11.7 | 10.3 | ||
| 2025-12-21T23:35 | 1276 | 879 | 31 | 8 | ||
| 2025-12-21T23:35 | 1340 | 872 | 10.8 | 7.5 | ||
| 2025-12-21T23:36 | 1572 | 848 | 9.4 | 7.2 | ||
| 2025-12-21T23:36 | 1612 | 844 | 27 | 7 | ||
| 2025-12-21T23:36 | 1871 | 818 | 18 | 6 | ||
| 2025-12-21T23:37 | 1940 | 811 | 6.8 | 6.4 | ||
| 2025-12-21T23:37 | 2013 | 804 | 6.9 | 6.3 | 329 | 3 |
| 2025-12-21T23:37 | 2139 | 792 | 11 | 3 | ||
| 2025-12-21T23:38 | 2211 | 785 | 327 | 2 | ||
| 2025-12-21T23:38 | 2240 | 782 | 6.8 | 5.3 | ||
| 2025-12-21T23:38 | 2268 | 780 | 207 | 3 | ||
| 2025-12-21T23:38 | 2386 | 768 | 178 | 6 | ||
| 2025-12-21T23:38 | 2391 | 768 | 6.3 | 4.5 | ||
| 2025-12-21T23:39 | 2555 | 753 | 173 | 6 | ||
| 2025-12-21T23:39 | 2699 | 740 | 3.6 | 3.5 | ||
| 2025-12-21T23:39 | 2750 | 735 | 3.3 | 2.9 | ||
| 2025-12-21T23:39 | 2784 | 732 | 3.1 | -2.2 | ||
| 2025-12-21T23:39 | 2813 | 729 | 174 | 7 | ||
| 2025-12-21T23:39 | 2836 | 727 | 7.6 | -7.3 | ||
| 2025-12-21T23:39 | 2847 | 726 | 8.5 | -8.1 | ||
| 2025-12-21T23:40 | 2937 | 718 | 155 | 10 | ||
| 2025-12-21T23:40 | 2984 | 714 | 9.0 | -12.8 | ||
| 2025-12-21T23:40 | 3096 | 705 | 158 | 13 | ||
| 2025-12-21T23:40 | 3153 | 700 | 9.8 | -26.2 | ||
| 2025-12-21T23:41 | 3199 | 696 | 10.0 | -30.4 | ||
| 2025-12-21T23:41 | 3274 | 690 | 10.1 | -33.3 | ||
| 2025-12-21T23:41 | 3441 | 676 | 159 | 10 | ||
| 2025-12-21T23:42 | 3618 | 662 | 162 | 8 | ||
| 2025-12-21T23:43 | 3892 | 640 | 5.0 | -36.8 | ||
| 2025-12-21T23:43 | 3898 | 639 | 151 | 4 | ||
| 2025-12-21T23:43 | 4054 | 627 | 182 | 3 | ||
| 2025-12-21T23:44 | 4336 | 606 | 1.0 | -34.6 | ||
| 2025-12-21T23:44 | 4423 | 599 | 99 | 2 | ||
| 2025-12-21T23:45 | 4779 | 573 | 328 | 2 | ||
| 2025-12-21T23:46 | 5117 | 549 | 290 | 2 | ||
| 2025-12-21T23:46 | 5177 | 545 | -6.8 | -35.7 | ||
| 2025-12-21T23:47 | 5337 | 533 | 245 | 2 | ||
| 2025-12-21T23:47 | 5423 | 528 | 286 | 3 | ||
| 2025-12-21T23:47 | 5527 | 521 | -9.3 | -38.9 | ||
| 2025-12-21T23:48 | 5641 | 513 | 270 | 6 | ||
| 2025-12-21T23:48 | 5814 | 502 | 297 | 8 | ||
| 2025-12-21T23:49 | 6185 | 478 | 302 | 12 | ||
| 2025-12-21T23:49 | 6209 | 476 | -15.1 | -36.7 | ||
| 2025-12-21T23:50 | 6529 | 456 | 285 | 13 | ||
| 2025-12-21T23:50 | 6585 | 453 | -15.7 | -48.9 | ||
| 2025-12-21T23:51 | 6743 | 443 | 280 | 10 | ||
| 2025-12-21T23:51 | 6919 | 433 | -18.4 | -50.8 | ||
| 2025-12-21T23:52 | 7086 | 423 | 268 | 12 | ||
| 2025-12-21T23:53 | 7387 | 407 | 260 | 15 | ||
| 2025-12-21T23:53 | 7608 | 394 | -23.6 | -48.7 | ||
| 2025-12-21T23:54 | 7700 | 389 | 261 | 20 | ||
| 2025-12-21T23:54 | 7908 | 378 | -25.6 | -50.3 | ||
| 2025-12-21T23:55 | 8048 | 371 | -26.4 | -52.1 | ||
| 2025-12-21T23:55 | 8054 | 371 | 251 | 26 | ||
| 2025-12-21T23:55 | 8249 | 361 | -27.1 | -52.6 | ||
| 2025-12-21T23:56 | 8388 | 354 | 242 | 29 | ||
| 2025-12-21T23:57 | 8692 | 339 | 236 | 29 | ||
| 2025-12-21T23:57 | 8782 | 335 | -31.3 | -52.9 | ||
| 2025-12-21T23:58 | 8997 | 325 | 229 | 36 | ||
| 2025-12-21T23:58 | 9019 | 324 | -32.4 | -50.4 | ||
| 2025-12-21T23:58 | 9146 | 318 | -33.4 | -44.8 | ||
| 2025-12-21T23:59 | 9324 | 310 | 226 | 37 | ||
| 2025-12-21T23:59 | 9362 | 308 | -35.4 | -42.7 | ||
| 2025-12-21T23:59 | 9511 | 302 | -36.0 | -39.4 | ||
| 2025-12-21T23:59 | 9584 | 299 | -36.4 | -38.2 | ||
| 2025-12-22T00:00 | 9663 | 295 | 224 | 42 | ||
| 2025-12-22T00:00 | 9752 | 292 | -37.3 | -38.6 | ||
| 2025-12-22T00:01 | 9963 | 283 | -38.9 | -41.8 | ||
| 2025-12-22T00:01 | 9990 | 282 | 222 | 43 | ||
| 2025-12-22T00:01 | 9996 | 282 | -39.2 | -42.3 | ||
| 2025-12-22T00:01 | 10012 | 281 | -38.9 | -44.9 | ||
| 2025-12-22T00:01 | 10028 | 280 | -38.5 | -50.5 | ||
| 2025-12-22T00:01 | 10060 | 279 | -38.4 | -60.4 | ||
| 2025-12-22T00:02 | 10302 | 269 | 222 | 48 | ||
| 2025-12-22T00:02 | 10399 | 265 | -40.0 | -66.9 | ||
| 2025-12-22T00:03 | 10592 | 258 | 226 | 49 | ||
| 2025-12-22T00:03 | 10742 | 252 | -41.8 | |||
| 2025-12-22T00:04 | 10897 | 247 | 233 | 52 | ||
| 2025-12-22T00:05 | 11202 | 236 | 236 | 55 | ||
| 2025-12-22T00:06 | 11518 | 225 | -45.9 | 237 | 59 | |
| 2025-12-22T00:07 | 11816 | 215 | 237 | 59 | ||
| 2025-12-22T00:08 | 12120 | 205 | 238 | 59 | ||
| 2025-12-22T00:09 | 12433 | 195 | 238 | 58 | ||
| 2025-12-22T00:10 | 12739 | 186 | 236 | 59 | ||
| 2025-12-22T00:10 | 12814 | 184 | -57.9 | |||
| 2025-12-22T00:11 | 13055 | 177 | 240 | 62 | ||
| 2025-12-22T00:11 | 13226 | 172 | -60.9 | |||
| 2025-12-22T00:12 | 13365 | 168 | 243 | 61 | ||
| 2025-12-22T00:13 | 13643 | 161 | 244 | 58 | ||
| 2025-12-22T00:14 | 13921 | 154 | 245 | 53 | ||
| 2025-12-22T00:14 | 13949 | 153 | -65.8 | |||
| 2025-12-22T00:15 | 14203 | 147 | 247 | 48 | ||
| 2025-12-22T00:15 | 14275 | 145 | -67.5 | |||
| 2025-12-22T00:16 | 14490 | 140 | 250 | 47 | ||
| 2025-12-22T00:16 | 14500 | 140 | -68.3 | |||
| 2025-12-22T00:17 | 14781 | 133 | 246 | 46 | ||
| 2025-12-22T00:17 | 14976 | 129 | -71.3 | |||
| 2025-12-22T00:18 | 15074 | 127 | 246 | 46 | ||
| 2025-12-22T00:18 | 15280 | 123 | 248 | 42 | ||
| 2025-12-22T00:19 | 15355 | 121 | -73.8 | |||
| 2025-12-22T00:19 | 15509 | 118 | -74.6 | |||
| 2025-12-22T00:19 | 15560 | 117 | 249 | 42 | ||
| 2025-12-22T00:20 | 15697 | 114 | -74.4 | |||
| 2025-12-22T00:20 | 15779 | 113 | -73.5 | |||
| 2025-12-22T00:20 | 15841 | 111 | 252 | 44 | ||
| 2025-12-22T00:21 | 15939 | 109 | -74.3 | |||
| 2025-12-22T00:21 | 16126 | 106 | 260 | 43 | ||
| 2025-12-22T00:22 | 16402 | 101 | -76.0 | 269 | 41 | |
| 2025-12-22T00:23 | 16671 | 96 | 278 | 34 | ||
| 2025-12-22T00:24 | 16738 | 95 | -74.4 | |||
| 2025-12-22T00:24 | 16968 | 92 | 270 | 28 | ||
| 2025-12-22T00:24 | 16995 | 91 | -74.7 | |||
| 2025-12-22T00:25 | 17265 | 87 | 256 | 30 | ||
| 2025-12-22T00:26 | 17373 | 85 | -75.9 | |||
| 2025-12-22T00:26 | 17456 | 84 | 262 | 30 | ||
| 2025-12-22T00:26 | 17524 | 83 | -73.4 | |||
| 2025-12-22T00:27 | 17782 | 80 | 244 | 20 | ||
| 2025-12-22T00:27 | 17806 | 79 | -71.9 | |||
| 2025-12-22T00:27 | 17896 | 78 | -71.5 | |||
| 2025-12-22T00:28 | 17986 | 77 | 268 | 19 | ||
| 2025-12-22T00:28 | 18103 | 75 | -72.0 | |||
| 2025-12-22T00:29 | 18286 | 73 | 278 | 17 | ||
| 2025-12-22T00:29 | 18318 | 73 | -72.5 | |||
| 2025-12-22T00:29 | 18515 | 70 | 293 | 16 | ||
| 2025-12-22T00:30 | 18748 | 68 | -73.4 | |||
| 2025-12-22T00:30 | 18825 | 67 | 284 | 11 | ||
| 2025-12-22T00:31 | 18932 | 66 | -74.4 | |||
| 2025-12-22T00:31 | 19080 | 64 | -71.7 | |||
| 2025-12-22T00:31 | 19133 | 63 | 271 | 11 | ||
| 2025-12-22T00:32 | 19427 | 60 | 293 | 12 | ||
| 2025-12-22T00:33 | 19486 | 60 | -72.6 | |||
| 2025-12-22T00:33 | 19586 | 59 | 296 | 11 | ||
| 2025-12-22T00:33 | 19636 | 58 | -68.3 | |||
| 2025-12-22T00:34 | 19828 | 56 | 261 | 5 | ||
| 2025-12-22T00:34 | 19956 | 55 | -69.4 | |||
| 2025-12-22T00:35 | 20064 | 54 | 232 | 7 | ||
| 2025-12-22T00:35 | 20212 | 53 | 263 | 9 | ||
| 2025-12-22T00:35 | 20359 | 52 | -68.2 | |||
| 2025-12-22T00:36 | 20417 | 51 | 211 | 6 | ||
| 2025-12-22T00:36 | 20560 | 50 | -68.5 | |||
| 2025-12-22T00:36 | 20608 | 49 | 196 | 4 | ||
| 2025-12-22T00:37 | 20720 | 49 | -67.4 | 248 | 5 | |
| 2025-12-22T00:37 | 20896 | 47 | -66.6 | |||
| 2025-12-22T00:37 | 20986 | 46 | 279 | 8 | ||
| 2025-12-22T00:38 | 21080 | 46 | 251 | 4 | ||
| 2025-12-22T00:38 | 21163 | 45 | 231 | 5 | ||
| 2025-12-22T00:38 | 21244 | 45 | -64.1 | |||
| 2025-12-22T00:39 | 21369 | 44 | 215 | 6 | ||
| 2025-12-22T00:39 | 21584 | 42 | 280 | 3 | ||
| 2025-12-22T00:40 | 21911 | 40 | 201 | 2 | ||
| 2025-12-22T00:41 | 22115 | 39 | 222 | 6 | ||
| 2025-12-22T00:41 | 22131 | 39 | -63.2 | |||
| 2025-12-22T00:41 | 22292 | 38 | 323 | 6 | ||
| 2025-12-22T00:42 | 22423 | 37 | -62.4 | |||
| 2025-12-22T00:42 | 22539 | 36 | 354 | 5 | ||
| 2025-12-22T00:43 | 22750 | 35 | 11 | 3 | ||
| 2025-12-22T00:43 | 22861 | 34 | 20 | 3 | ||
| 2025-12-22T00:44 | 22989 | 34 | 322 | 3 | ||
| 2025-12-22T00:44 | 23006 | 33 | -60.8 | |||
| 2025-12-22T00:44 | 23139 | 33 | 1 | 3 | ||
| 2025-12-22T00:44 | 23294 | 32 | 3 | 1 | ||
| 2025-12-22T00:45 | 23575 | 31 | 303 | 3 | ||
| 2025-12-22T00:46 | 23805 | 29 | 344 | 6 | ||
| 2025-12-22T00:46 | 23953 | 29 | 36 | 4 | ||
| 2025-12-22T00:46 | 23976 | 29 | -59.9 | |||
| 2025-12-22T00:47 | 24154 | 28 | 39 | 3 | ||
| 2025-12-22T00:47 | 24264 | 27 | 67 | 5 | ||
| 2025-12-22T00:48 | 24382 | 27 | 39 | 2 | ||
| 2025-12-22T00:48 | 24500 | 26 | 76 | 5 | ||
| 2025-12-22T00:48 | 24524 | 26 | -57.8 | |||
| 2025-12-22T00:49 | 24719 | 25 | 81 | 5 | ||
| 2025-12-22T00:49 | 24845 | 25 | 43 | 4 | ||
| 2025-12-22T00:49 | 25052 | 24 | 112 | 6 | ||
| 2025-12-22T00:50 | 25214 | 24 | 63 | 5 | ||
| 2025-12-22T00:50 | 25379 | 23 | 104 | 6 | ||
| 2025-12-22T00:51 | 25575 | 22 | -56.7 | 145 | 10 | |
| 2025-12-22T00:52 | 25838 | 21 | 164 | 5 | ||
| 2025-12-22T00:52 | 26050 | 21 | -54.5 | 175 | 4 | |
| 2025-12-22T00:53 | 26306 | 20 | 221 | 6 | ||
| 2025-12-22T00:53 | 26470 | 19 | 222 | 9 | ||
| 2025-12-22T00:54 | 26743 | 19 | 246 | 6 | ||
| 2025-12-22T00:54 | 26850 | 18 | 202 | 3 | ||
| 2025-12-22T00:55 | 26995 | 18 | 158 | 3 | ||
| 2025-12-22T00:55 | 27070 | 18 | 117 | 3 | ||
| 2025-12-22T00:55 | 27179 | 17 | -51.0 | 140 | 3 | |
| 2025-12-22T00:56 | 27331 | 17 | 178 | 3 | ||
| 2025-12-22T00:56 | 27489 | 17 | 165 | 5 | ||
| 2025-12-22T00:57 | 27648 | 16 | -51.0 | |||
| 2025-12-22T00:57 | 27688 | 16 | 219 | 4 | ||
| 2025-12-22T00:57 | 27893 | 16 | 229 | 12 | ||
| 2025-12-22T00:58 | 27996 | 15 | -51.7 | 232 | 9 | |
| 2025-12-22T11:31 | 8 | 1019 | 21.2 | 15.5 | 40 | 3 |
| 2025-12-22T11:31 | 13 | 1019 | 21.2 | 15.7 | 0 | 0 |
| 2025-12-22T11:31 | 49 | 1015 | 57 | 3 | ||
| 2025-12-22T11:31 | 106 | 1008 | 32 | 5 | ||
| 2025-12-22T11:32 | 351 | 980 | 59 | 10 | ||
| 2025-12-22T11:33 | 544 | 958 | 17.0 | 13.7 | ||
| 2025-12-22T11:33 | 682 | 943 | 50 | 10 | ||
| 2025-12-22T11:34 | 963 | 912 | 13.3 | 12.2 | ||
| 2025-12-22T11:34 | 988 | 909 | 56 | 9 | ||
| 2025-12-22T11:35 | 1304 | 876 | 61 | 7 | ||
| 2025-12-22T11:36 | 1622 | 843 | 53 | 9 | ||
| 2025-12-22T11:36 | 1763 | 829 | 8.9 | 8.4 | ||
| 2025-12-22T11:37 | 1843 | 821 | 35 | 6 | ||
| 2025-12-22T11:37 | 1868 | 818 | 8.2 | 7.4 | ||
| 2025-12-22T11:37 | 1892 | 816 | 16 | 2 | ||
| 2025-12-22T11:37 | 1947 | 810 | 248 | 3 | ||
| 2025-12-22T11:37 | 1965 | 809 | 7.8 | 5.4 | ||
| 2025-12-22T11:37 | 2018 | 804 | 8.2 | 5.7 | ||
| 2025-12-22T11:37 | 2036 | 802 | 267 | 3 | ||
| 2025-12-22T11:37 | 2155 | 790 | 315 | 3 | ||
| 2025-12-22T11:38 | 2360 | 771 | 283 | 5 | ||
| 2025-12-22T11:38 | 2390 | 768 | 6.7 | 5.0 | ||
| 2025-12-22T11:39 | 2500 | 758 | 249 | 5 | ||
| 2025-12-22T11:39 | 2579 | 751 | 6.5 | 5.0 | ||
| 2025-12-22T11:39 | 2620 | 747 | 238 | 6 | ||
| 2025-12-22T11:39 | 2713 | 738 | 229 | 7 | ||
| 2025-12-22T11:40 | 2863 | 725 | 235 | 8 | ||
| 2025-12-22T11:40 | 3079 | 706 | 240 | 8 | ||
| 2025-12-22T11:41 | 3273 | 689 | 229 | 9 | ||
| 2025-12-22T11:41 | 3386 | 680 | 1.5 | 0.6 | ||
| 2025-12-22T11:41 | 3444 | 675 | 1.1 | -0.2 | ||
| 2025-12-22T11:41 | 3485 | 671 | 0.7 | -4.1 | ||
| 2025-12-22T11:42 | 3571 | 664 | 228 | 8 | ||
| 2025-12-22T11:42 | 3668 | 656 | -0.8 | -8.0 | ||
| 2025-12-22T11:43 | 3908 | 637 | -2.3 | -9.9 | 194 | 9 |
| 2025-12-22T11:43 | 4042 | 626 | -2.9 | -13.5 | ||
| 2025-12-22T11:43 | 4092 | 622 | -3.4 | -20.6 | ||
| 2025-12-22T11:43 | 4136 | 619 | 163 | 11 | ||
| 2025-12-22T11:44 | 4220 | 612 | -3.2 | -20.9 | ||
| 2025-12-22T11:44 | 4469 | 593 | 162 | 10 | ||
| 2025-12-22T11:45 | 4525 | 589 | -4.6 | -25.4 | ||
| 2025-12-22T11:45 | 4606 | 583 | -4.3 | -25.7 | ||
| 2025-12-22T11:45 | 4677 | 578 | -2.9 | -27.5 | ||
| 2025-12-22T11:45 | 4718 | 575 | -2.8 | -27.5 | ||
| 2025-12-22T11:45 | 4817 | 567 | 196 | 7 | ||
| 2025-12-22T11:46 | 5115 | 546 | -6.0 | -30.0 | ||
| 2025-12-22T11:46 | 5175 | 542 | 209 | 6 | ||
| 2025-12-22T11:47 | 5372 | 529 | -8.5 | -30.6 | ||
| 2025-12-22T11:47 | 5516 | 519 | 224 | 7 | ||
| 2025-12-22T11:48 | 5787 | 501 | -11.7 | -31.9 | ||
| 2025-12-22T11:48 | 5866 | 496 | 257 | 7 | ||
| 2025-12-22T11:49 | 6235 | 472 | 284 | 10 | ||
| 2025-12-22T11:50 | 6310 | 468 | -15.2 | -32.7 | ||
| 2025-12-22T11:50 | 6595 | 450 | 276 | 11 | ||
| 2025-12-22T11:51 | 6675 | 445 | -17.8 | -36.4 | ||
| 2025-12-22T11:51 | 6949 | 429 | 272 | 15 | ||
| 2025-12-22T11:52 | 7113 | 420 | -21.6 | -37.7 | ||
| 2025-12-22T11:52 | 7288 | 410 | 271 | 15 | ||
| 2025-12-22T11:53 | 7473 | 400 | -24.6 | -40.3 | ||
| 2025-12-22T11:53 | 7619 | 392 | 261 | 22 | ||
| 2025-12-22T11:54 | 7743 | 385 | -25.8 | -44.9 | ||
| 2025-12-22T11:54 | 7980 | 373 | 256 | 23 | ||
| 2025-12-22T11:54 | 8011 | 371 | -27.6 | -47.6 | ||
| 2025-12-22T11:55 | 8251 | 359 | -28.2 | -48.8 | ||
| 2025-12-22T11:55 | 8304 | 356 | 245 | 26 | ||
| 2025-12-22T11:56 | 8577 | 343 | -29.9 | -51.0 | ||
| 2025-12-22T11:56 | 8582 | 343 | 237 | 32 | ||
| 2025-12-22T11:57 | 8836 | 331 | -30.1 | -51.2 | ||
| 2025-12-22T11:57 | 8878 | 329 | 234 | 40 | ||
| 2025-12-22T11:58 | 9046 | 321 | -31.5 | -52.3 | ||
| 2025-12-22T11:58 | 9220 | 313 | 230 | 37 | ||
| 2025-12-22T11:59 | 9525 | 300 | 228 | 35 | ||
| 2025-12-22T12:00 | 9739 | 291 | -36.9 | -58.3 | ||
| 2025-12-22T12:00 | 9840 | 286 | 237 | 34 | ||
| 2025-12-22T12:01 | 10113 | 275 | -40.0 | -62.7 | ||
| 2025-12-22T12:01 | 10155 | 274 | 241 | 32 | ||
| 2025-12-22T12:02 | 10481 | 261 | 233 | 40 | ||
| 2025-12-22T12:03 | 10643 | 255 | 228 | 43 | ||
| 2025-12-22T12:03 | 10726 | 252 | 225 | 46 | ||
| 2025-12-22T12:03 | 10812 | 248 | 224 | 46 | ||
| 2025-12-22T12:03 | 10880 | 246 | 224 | 50 | ||
| 2025-12-22T12:04 | 10968 | 243 | 224 | 50 | ||
| 2025-12-22T12:04 | 11021 | 241 | -44.2 | |||
| 2025-12-22T12:04 | 11035 | 240 | 225 | 53 | ||
| 2025-12-22T12:04 | 11105 | 238 | 227 | 53 | ||
| 2025-12-22T12:05 | 11380 | 228 | 230 | 54 | ||
| 2025-12-22T12:05 | 11445 | 226 | -46.2 | |||
| 2025-12-22T12:06 | 11663 | 219 | 234 | 57 | ||
| 2025-12-22T12:07 | 11941 | 210 | 239 | 60 | ||
| 2025-12-22T12:08 | 12205 | 201 | 241 | 62 | ||
| 2025-12-22T12:09 | 12440 | 194 | 240 | 64 | ||
| 2025-12-22T12:09 | 12511 | 192 | -54.1 | 240 | 63 | |
| 2025-12-22T12:10 | 12601 | 189 | 240 | 63 | ||
| 2025-12-22T12:10 | 12787 | 184 | 240 | 65 | ||
| 2025-12-22T12:11 | 12879 | 181 | 240 | 61 | ||
| 2025-12-22T12:11 | 12968 | 179 | 240 | 64 | ||
| 2025-12-22T12:11 | 13113 | 175 | 239 | 58 | ||
| 2025-12-22T12:12 | 13397 | 167 | 241 | 56 | ||
| 2025-12-22T12:13 | 13580 | 162 | -62.5 | |||
| 2025-12-22T12:13 | 13671 | 160 | 241 | 52 | ||
| 2025-12-22T12:14 | 13926 | 153 | -64.0 | |||
| 2025-12-22T12:14 | 13939 | 153 | 241 | 52 | ||
| 2025-12-22T12:15 | 14197 | 146 | 241 | 50 | ||
| 2025-12-22T12:15 | 14219 | 146 | -64.6 | |||
| 2025-12-22T12:16 | 14467 | 140 | 241 | 52 | ||
| 2025-12-22T12:17 | 14745 | 134 | 245 | 46 | ||
| 2025-12-22T12:18 | 14867 | 131 | -67.7 | |||
| 2025-12-22T12:18 | 15032 | 127 | 252 | 46 | ||
| 2025-12-22T12:19 | 15110 | 126 | -68.1 | |||
| 2025-12-22T12:19 | 15324 | 121 | 259 | 43 | ||
| 2025-12-22T12:19 | 15349 | 121 | -68.7 | |||
| 2025-12-22T12:20 | 15621 | 116 | 263 | 43 | ||
| 2025-12-22T12:21 | 15703 | 114 | -70.9 | |||
| 2025-12-22T12:21 | 15877 | 111 | 271 | 36 | ||
| 2025-12-22T12:21 | 15916 | 110 | -70.9 | |||
| 2025-12-22T12:22 | 16180 | 105 | 276 | 38 | ||
| 2025-12-22T12:22 | 16251 | 104 | -73.4 | |||
| 2025-12-22T12:23 | 16476 | 100 | 286 | 34 | ||
| 2025-12-22T12:24 | 16772 | 95 | 285 | 23 | ||
| 2025-12-22T12:25 | 16921 | 93 | -73.0 | |||
| 2025-12-22T12:25 | 17069 | 90 | 259 | 20 | ||
| 2025-12-22T12:26 | 17364 | 86 | 243 | 26 | ||
| 2025-12-22T12:26 | 17420 | 85 | -75.6 | |||
| 2025-12-22T12:27 | 17577 | 83 | -73.4 | |||
| 2025-12-22T12:27 | 17607 | 82 | 253 | 26 | ||
| 2025-12-22T12:28 | 17906 | 78 | 254 | 25 | ||
| 2025-12-22T12:29 | 18093 | 76 | -73.0 | |||
| 2025-12-22T12:29 | 18142 | 75 | 269 | 21 | ||
| 2025-12-22T12:29 | 18228 | 74 | -71.5 | |||
| 2025-12-22T12:29 | 18276 | 73 | 254 | 15 | ||
| 2025-12-22T12:30 | 18581 | 70 | 244 | 14 | ||
| 2025-12-22T12:31 | 18791 | 67 | -73.9 | |||
| 2025-12-22T12:31 | 18817 | 67 | 245 | 13 | ||
| 2025-12-22T12:32 | 19060 | 64 | -72.3 | |||
| 2025-12-22T12:32 | 19116 | 64 | 235 | 13 | ||
| 2025-12-22T12:32 | 19266 | 62 | 225 | 10 | ||
| 2025-12-22T12:33 | 19361 | 61 | -71.6 | |||
| 2025-12-22T12:33 | 19401 | 61 | 231 | 9 | ||
| 2025-12-22T12:33 | 19508 | 60 | -70.9 | |||
| 2025-12-22T12:33 | 19528 | 59 | 273 | 11 | ||
| 2025-12-22T12:34 | 19650 | 58 | -70.4 | |||
| 2025-12-22T12:34 | 19765 | 57 | 292 | 8 | ||
| 2025-12-22T12:34 | 19806 | 57 | -70.4 | |||
| 2025-12-22T12:34 | 19879 | 56 | 292 | 8 | ||
| 2025-12-22T12:35 | 19986 | 55 | -68.8 | 276 | 9 | |
| 2025-12-22T12:35 | 20133 | 54 | 283 | 8 | ||
| 2025-12-22T12:36 | 20245 | 53 | -66.0 | |||
| 2025-12-22T12:36 | 20258 | 53 | 239 | 7 | ||
| 2025-12-22T12:36 | 20480 | 51 | 253 | 9 | ||
| 2025-12-22T12:37 | 20517 | 50 | -65.6 | |||
| 2025-12-22T12:37 | 20726 | 49 | 326 | 6 | ||
| 2025-12-22T12:38 | 20931 | 47 | -64.2 | |||
| 2025-12-22T12:38 | 21009 | 46 | 28 | 3 | ||
| 2025-12-22T12:39 | 21095 | 46 | -64.7 | 149 | 2 | |
| 2025-12-22T23:31 | 8 | 1018 | 21.1 | 16.1 | 50 | 3 |
| 2025-12-22T23:31 | 12 | 1017 | 21.3 | 16.3 | 0 | 0 |
| 2025-12-22T23:31 | 63 | 1012 | 58 | 4 | ||
| 2025-12-22T23:31 | 89 | 1009 | 21.6 | 15.2 | ||
| 2025-12-22T23:32 | 306 | 983 | 70 | 7 | ||
| 2025-12-22T23:32 | 408 | 972 | 19.0 | 13.2 | ||
| 2025-12-22T23:33 | 508 | 961 | 18.9 | 11.9 | ||
| 2025-12-22T23:33 | 524 | 959 | 73 | 4 | ||
| 2025-12-22T23:33 | 649 | 945 | 137 | 1 | ||
| 2025-12-22T23:33 | 717 | 937 | 17.8 | 11.6 | ||
| 2025-12-22T23:34 | 822 | 926 | 145 | 3 | ||
| 2025-12-22T23:34 | 1159 | 890 | 168 | 2 | ||
| 2025-12-22T23:35 | 1412 | 864 | 94 | 3 | ||
| 2025-12-22T23:36 | 1522 | 852 | 10.7 | 8.6 | ||
| 2025-12-22T23:36 | 1581 | 846 | 68 | 5 | ||
| 2025-12-22T23:36 | 1679 | 836 | 11.2 | 6.1 | ||
| 2025-12-22T23:36 | 1720 | 832 | 22 | 1 | ||
| 2025-12-22T23:37 | 1879 | 817 | 11.9 | 4.6 | ||
| 2025-12-22T23:37 | 1964 | 808 | 136 | 4 | ||
| 2025-12-22T23:37 | 2098 | 795 | 163 | 3 | ||
| 2025-12-22T23:38 | 2216 | 784 | 9.7 | 3.7 | ||
| 2025-12-22T23:38 | 2250 | 781 | 134 | 4 | ||
| 2025-12-22T23:38 | 2490 | 759 | 129 | 5 | ||
| 2025-12-22T23:38 | 2509 | 757 | 7.2 | 5.5 | ||
| 2025-12-22T23:39 | 2577 | 751 | 128 | 3 | ||
| 2025-12-22T23:39 | 2657 | 744 | 172 | 3 | ||
| 2025-12-22T23:39 | 2728 | 737 | 5.9 | 4.9 | ||
| 2025-12-22T23:39 | 2746 | 735 | 169 | 3 | ||
| 2025-12-22T23:39 | 2828 | 728 | 199 | 4 | ||
| 2025-12-22T23:40 | 2932 | 719 | 4.9 | 2.9 | ||
| 2025-12-22T23:40 | 3015 | 712 | 4.9 | 0.1 | ||
| 2025-12-22T23:40 | 3028 | 711 | 214 | 7 | ||
| 2025-12-22T23:41 | 3290 | 688 | 207 | 7 | ||
| 2025-12-22T23:41 | 3511 | 669 | 226 | 6 | ||
| 2025-12-22T23:41 | 3628 | 660 | 206 | 7 | ||
| 2025-12-22T23:42 | 3759 | 649 | -2.3 | -2.4 | ||
| 2025-12-22T23:42 | 3833 | 643 | 205 | 7 | ||
| 2025-12-22T23:42 | 3844 | 642 | -2.9 | -3.6 | ||
| 2025-12-22T23:42 | 3865 | 640 | -3.1 | -5.9 | ||
| 2025-12-22T23:42 | 3887 | 639 | -3.3 | -12.0 | ||
| 2025-12-22T23:42 | 3910 | 637 | -1.3 | -18.8 | ||
| 2025-12-22T23:42 | 3938 | 635 | 261 | 5 | ||
| 2025-12-22T23:42 | 3961 | 633 | 2.9 | -27.0 | ||
| 2025-12-22T23:43 | 4101 | 622 | 245 | 5 | ||
| 2025-12-22T23:43 | 4250 | 610 | 250 | 6 | ||
| 2025-12-22T23:43 | 4282 | 608 | 1.2 | -32.5 | ||
| 2025-12-22T23:44 | 4513 | 591 | 0.1 | -33.4 | ||
| 2025-12-22T23:44 | 4559 | 587 | 228 | 10 | ||
| 2025-12-22T23:45 | 4757 | 573 | 230 | 8 | ||
| 2025-12-22T23:45 | 4885 | 564 | 244 | 9 | ||
| 2025-12-22T23:45 | 5032 | 553 | 244 | 7 | ||
| 2025-12-22T23:46 | 5330 | 533 | 251 | 11 | ||
| 2025-12-22T23:47 | 5664 | 510 | 262 | 13 | ||
| 2025-12-22T23:47 | 5747 | 505 | -11.1 | -35.9 | ||
| 2025-12-22T23:48 | 5871 | 497 | 264 | 15 | ||
| 2025-12-22T23:49 | 6234 | 473 | 263 | 13 | ||
| 2025-12-22T23:49 | 6527 | 455 | -18.3 | -38.0 | ||
| 2025-12-22T23:50 | 6607 | 450 | 269 | 14 | ||
| 2025-12-22T23:50 | 6667 | 447 | -18.8 | -42.9 | ||
| 2025-12-22T23:50 | 6902 | 433 | 275 | 18 | ||
| 2025-12-22T23:51 | 7200 | 416 | -21.9 | -47.4 | ||
| 2025-12-22T23:51 | 7239 | 414 | 273 | 22 | ||
| 2025-12-22T23:52 | 7534 | 397 | -24.5 | -50.6 | ||
| 2025-12-22T23:52 | 7579 | 395 | 267 | 23 | ||
| 2025-12-22T23:53 | 7653 | 391 | -25.2 | -52.5 | ||
| 2025-12-22T23:53 | 7857 | 380 | 270 | 21 | ||
| 2025-12-22T23:54 | 8196 | 362 | 278 | 22 | ||
| 2025-12-22T23:55 | 8274 | 358 | -30.4 | -56.5 | ||
| 2025-12-22T23:55 | 8376 | 353 | -30.6 | -58.1 | ||
| 2025-12-22T23:55 | 8505 | 347 | -31.2 | -60.3 | ||
| 2025-12-22T23:55 | 8515 | 346 | 283 | 27 | ||
| 2025-12-22T23:56 | 8698 | 338 | -31.7 | -62.9 | ||
| 2025-12-22T23:56 | 8815 | 332 | 275 | 27 | ||
| 2025-12-22T23:57 | 8920 | 327 | -33.5 | -64.2 | ||
| 2025-12-22T23:57 | 9089 | 319 | 267 | 29 | ||
| 2025-12-22T23:58 | 9190 | 315 | -34.5 | -67.9 | ||
| 2025-12-22T23:58 | 9358 | 307 | 270 | 28 | ||
| 2025-12-22T23:59 | 9417 | 305 | -36.0 | -68.9 | ||
| 2025-12-22T23:59 | 9625 | 296 | 278 | 28 | ||
| 2025-12-23T00:00 | 9937 | 283 | 266 | 29 | ||
| 2025-12-23T00:01 | 10030 | 279 | -40.0 | -71.8 | ||
| 2025-12-23T00:01 | 10272 | 269 | 256 | 34 | ||
| 2025-12-23T00:02 | 10597 | 256 | 254 | 42 | ||
| 2025-12-23T00:03 | 10730 | 251 | 252 | 46 | ||
| 2025-12-23T00:03 | 10865 | 246 | -45.4 | |||
| 2025-12-23T00:04 | 11058 | 239 | 244 | 49 | ||
| 2025-12-23T00:04 | 11232 | 233 | 241 | 57 | ||
| 2025-12-23T00:04 | 11308 | 231 | -44.4 | |||
| 2025-12-23T00:05 | 11558 | 222 | 241 | 59 | ||
| 2025-12-23T00:06 | 11926 | 210 | 243 | 58 | ||
| 2025-12-23T00:06 | 11932 | 210 | -49.8 | |||
| 2025-12-23T00:07 | 12246 | 200 | 244 | 56 | ||
| 2025-12-23T00:08 | 12512 | 192 | 249 | 56 | ||
| 2025-12-23T00:09 | 12772 | 184 | 253 | 55 | ||
| 2025-12-23T00:09 | 12845 | 182 | -56.9 | |||
| 2025-12-23T00:10 | 13027 | 177 | 257 | 50 | ||
| 2025-12-23T00:11 | 13284 | 170 | 258 | 48 | ||
| 2025-12-23T00:12 | 13513 | 164 | -59.6 | |||
| 2025-12-23T00:12 | 13556 | 163 | 256 | 44 | ||
| 2025-12-23T00:13 | 13846 | 155 | 255 | 42 | ||
| 2025-12-23T00:14 | 14151 | 148 | 255 | 41 | ||
| 2025-12-23T00:15 | 14457 | 140 | 257 | 41 | ||
| 2025-12-23T00:16 | 14764 | 133 | 259 | 39 | ||
| 2025-12-23T00:16 | 14789 | 133 | -68.7 | |||
| 2025-12-23T00:17 | 15066 | 127 | 253 | 40 | ||
| 2025-12-23T00:18 | 15373 | 120 | 247 | 42 | ||
| 2025-12-23T00:19 | 15649 | 115 | -74.5 | |||
| 2025-12-23T00:19 | 15680 | 114 | 246 | 46 | ||
| 2025-12-23T00:19 | 15711 | 114 | -70.4 | |||
| 2025-12-23T00:20 | 15981 | 109 | 264 | 43 | ||
| 2025-12-23T00:21 | 16078 | 107 | -70.7 | |||
| 2025-12-23T00:21 | 16106 | 106 | 268 | 44 | ||
| 2025-12-23T00:21 | 16258 | 104 | 271 | 43 | ||
| 2025-12-23T00:21 | 16388 | 101 | -71.3 | |||
| 2025-12-23T00:22 | 16479 | 100 | 277 | 31 | ||
| 2025-12-23T00:22 | 16596 | 98 | -70.9 | |||
| 2025-12-23T00:23 | 16783 | 95 | 280 | 26 | ||
| 2025-12-23T00:23 | 17063 | 90 | 265 | 21 | ||
| 2025-12-23T00:24 | 17087 | 90 | -73.2 | |||
| 2025-12-23T00:24 | 17379 | 86 | 259 | 22 | ||
| 2025-12-23T00:25 | 17668 | 81 | -77.5 | |||
| 2025-12-23T00:25 | 17683 | 81 | 261 | 27 | ||
| 2025-12-23T00:26 | 17958 | 77 | -74.5 | |||
| 2025-12-23T00:26 | 17979 | 77 | 273 | 28 | ||
| 2025-12-23T00:27 | 18210 | 74 | -75.3 | |||
| 2025-12-23T00:27 | 18248 | 74 | 279 | 25 | ||
| 2025-12-23T00:28 | 18352 | 72 | -74.0 | |||
| 2025-12-23T00:28 | 18548 | 70 | 270 | 22 | ||
| 2025-12-23T00:29 | 18615 | 69 | -75.4 | |||
| 2025-12-23T00:29 | 18714 | 68 | 279 | 18 | ||
| 2025-12-23T00:29 | 18800 | 67 | -72.0 | |||
| 2025-12-23T00:30 | 19016 | 65 | 299 | 8 | ||
| 2025-12-23T00:31 | 19182 | 63 | -70.6 | |||
| 2025-12-23T00:31 | 19213 | 62 | 295 | 6 | ||
| 2025-12-23T00:31 | 19280 | 62 | -70.6 | |||
| 2025-12-23T00:31 | 19318 | 61 | 272 | 4 | ||
| 2025-12-23T00:31 | 19435 | 60 | 283 | 3 | ||
| 2025-12-23T00:32 | 19543 | 59 | 204 | 3 | ||
| 2025-12-23T00:32 | 19586 | 59 | -70.6 | |||
| 2025-12-23T00:32 | 19697 | 58 | 215 | 5 | ||
| 2025-12-23T00:33 | 19896 | 56 | 207 | 10 | ||
| 2025-12-23T00:33 | 20048 | 54 | -70.8 | |||
| 2025-12-23T00:34 | 20214 | 53 | 255 | 9 | ||
| 2025-12-23T00:35 | 20541 | 50 | 282 | 12 | ||
| 2025-12-23T00:35 | 20628 | 49 | -66.4 | |||
| 2025-12-23T00:35 | 20651 | 49 | 273 | 8 | ||
| 2025-12-23T00:36 | 20789 | 48 | 224 | 5 | ||
| 2025-12-23T00:36 | 20891 | 47 | -65.5 | |||
| 2025-12-23T00:36 | 20918 | 47 | 202 | 8 | ||
| 2025-12-23T00:37 | 21088 | 46 | 242 | 5 | ||
| 2025-12-23T00:37 | 21210 | 45 | 296 | 7 | ||
| 2025-12-23T00:38 | 21405 | 43 | 310 | 7 | ||
| 2025-12-23T00:38 | 21504 | 43 | -65.1 | |||
| 2025-12-23T00:39 | 21751 | 41 | 303 | 6 | ||
| 2025-12-23T00:39 | 21813 | 41 | -65.4 | |||
| 2025-12-23T00:39 | 21962 | 40 | 321 | 8 | ||
| 2025-12-23T00:40 | 22119 | 39 | 333 | 2 | ||
| 2025-12-23T00:40 | 22251 | 38 | 253 | 3 | ||
| 2025-12-23T00:40 | 22330 | 37 | 304 | 5 | ||
| 2025-12-23T00:41 | 22552 | 36 | 323 | 11 | ||
| 2025-12-23T00:42 | 22832 | 34 | 340 | 8 | ||
| 2025-12-23T00:42 | 22901 | 34 | -62.1 | |||
| 2025-12-23T00:42 | 23013 | 33 | 8 | 7 | ||
| 2025-12-23T00:43 | 23237 | 32 | 338 | 4 | ||
| 2025-12-23T00:44 | 23454 | 31 | 352 | 6 | ||
| 2025-12-23T00:44 | 23615 | 30 | 28 | 3 | ||
| 2025-12-23T00:45 | 23823 | 29 | -61.3 | |||
| 2025-12-23T00:45 | 23845 | 29 | 341 | 6 | ||
| 2025-12-23T00:46 | 24109 | 28 | -58.4 | |||
| 2025-12-23T00:46 | 24200 | 28 | 31 | 3 | ||
| 2025-12-23T00:46 | 24320 | 27 | -55.9 | |||
| 2025-12-23T00:47 | 24389 | 27 | 48 | 3 | ||
| 2025-12-23T00:47 | 24539 | 26 | 68 | 5 | ||
| 2025-12-23T00:47 | 24664 | 26 | -51.1 | |||
| 2025-12-23T00:48 | 24789 | 25 | 58 | 10 | ||
| 2025-12-23T00:49 | 25163 | 24 | 110 | 12 | ||
| 2025-12-23T00:49 | 25396 | 23 | -53.5 | 136 | 16 | |
| 2025-12-23T11:31 | 8 | 1015 | 21.6 | 16.6 | 40 | 3 |
| 2025-12-23T11:31 | 9 | 1015 | 21.7 | 17.1 | 0 | 0 |
| 2025-12-23T11:31 | 28 | 1013 | 84 | 4 | ||
| 2025-12-23T11:31 | 97 | 1005 | 21.9 | 17.1 | ||
| 2025-12-23T11:31 | 126 | 1002 | 51 | 7 | ||
| 2025-12-23T11:32 | 286 | 983 | 76 | 7 | ||
| 2025-12-23T11:32 | 339 | 977 | 20.2 | 15.2 | ||
| 2025-12-23T11:32 | 440 | 966 | 20.0 | 12.5 | ||
| 2025-12-23T11:32 | 492 | 960 | 20.3 | 12.0 | ||
| 2025-12-23T11:33 | 522 | 957 | 26 | 3 | ||
| 2025-12-23T11:33 | 683 | 939 | 19.0 | 10.8 | ||
| 2025-12-23T11:33 | 738 | 933 | 103 | 3 | ||
| 2025-12-23T11:34 | 801 | 926 | 128 | 2 | ||
| 2025-12-23T11:34 | 811 | 925 | 17.9 | 12.6 | ||
| 2025-12-23T11:34 | 859 | 920 | 145 | 3 | ||
| 2025-12-23T11:34 | 929 | 913 | 158 | 2 | ||
| 2025-12-23T11:34 | 989 | 906 | 149 | 3 | ||
| 2025-12-23T11:34 | 1026 | 902 | 16.5 | 12.3 | ||
| 2025-12-23T11:34 | 1078 | 897 | 129 | 2 | ||
| 2025-12-23T11:35 | 1137 | 891 | 15.9 | 12.1 | ||
| 2025-12-23T11:35 | 1182 | 886 | 16.0 | 11.4 | ||
| 2025-12-23T11:35 | 1317 | 872 | 15.4 | 10.4 | ||
| 2025-12-23T11:35 | 1334 | 870 | 228 | 2 | ||
| 2025-12-23T11:36 | 1499 | 854 | 14.2 | 11.0 | ||
| 2025-12-23T11:36 | 1613 | 842 | 209 | 3 | ||
| 2025-12-23T11:36 | 1691 | 834 | 14.4 | 3.8 | ||
| 2025-12-23T11:36 | 1696 | 834 | 207 | 2 | ||
| 2025-12-23T11:37 | 1923 | 812 | 268 | 2 | ||
| 2025-12-23T11:37 | 2005 | 804 | 12.2 | 5.1 | ||
| 2025-12-23T11:38 | 2099 | 795 | 191 | 4 | ||
| 2025-12-23T11:38 | 2282 | 778 | 213 | 3 | ||
| 2025-12-23T11:38 | 2340 | 772 | 9.7 | 6.2 | ||
| 2025-12-23T11:39 | 2476 | 760 | 224 | 2 | ||
| 2025-12-23T11:39 | 2556 | 752 | 235 | 6 | ||
| 2025-12-23T11:40 | 2799 | 730 | 256 | 4 | ||
| 2025-12-23T11:40 | 2841 | 727 | 5.1 | 3.9 | ||
| 2025-12-23T11:40 | 2877 | 724 | 249 | 3 | ||
| 2025-12-23T11:40 | 2950 | 717 | 4.7 | 1.0 | ||
| 2025-12-23T11:40 | 2980 | 715 | 211 | 4 | ||
| 2025-12-23T11:41 | 3141 | 701 | 216 | 4 | ||
| 2025-12-23T11:41 | 3216 | 694 | 172 | 4 | ||
| 2025-12-23T11:41 | 3336 | 684 | 218 | 5 | ||
| 2025-12-23T11:42 | 3518 | 669 | -0.6 | -1.4 | ||
| 2025-12-23T11:42 | 3541 | 667 | -0.5 | -3.0 | ||
| 2025-12-23T11:42 | 3558 | 665 | 217 | 6 | ||
| 2025-12-23T11:42 | 3576 | 664 | -0.1 | -5.5 | ||
| 2025-12-23T11:42 | 3612 | 661 | 0.4 | -8.3 | ||
| 2025-12-23T11:42 | 3642 | 658 | 1.3 | -11.8 | ||
| 2025-12-23T11:42 | 3701 | 653 | 2.7 | -27.1 | ||
| 2025-12-23T11:43 | 3817 | 644 | 244 | 8 | ||
| 2025-12-23T11:43 | 3920 | 636 | 2.4 | -28.6 | ||
| 2025-12-23T11:43 | 4064 | 625 | 1.9 | -29.0 | ||
| 2025-12-23T11:44 | 4141 | 619 | 233 | 6 | ||
| 2025-12-23T11:45 | 4447 | 596 | 253 | 6 | ||
| 2025-12-23T11:45 | 4496 | 592 | -1.2 | -24.6 | ||
| 2025-12-23T11:45 | 4678 | 579 | -2.3 | -26.2 | ||
| 2025-12-23T11:46 | 4785 | 571 | 290 | 10 | ||
| 2025-12-23T11:46 | 4949 | 559 | -2.7 | -39.5 | ||
| 2025-12-23T11:46 | 5025 | 554 | -2.2 | -39.1 | ||
| 2025-12-23T11:46 | 5059 | 551 | 270 | 14 | ||
| 2025-12-23T11:47 | 5279 | 536 | 259 | 11 | ||
| 2025-12-23T11:48 | 5595 | 515 | 264 | 14 | ||
| 2025-12-23T11:49 | 5765 | 504 | 267 | 17 | ||
| 2025-12-23T11:49 | 5799 | 502 | -8.1 | -43.3 | ||
| 2025-12-23T11:49 | 6021 | 488 | 264 | 21 | ||
| 2025-12-23T11:50 | 6086 | 483 | -10.0 | -42.6 | ||
| 2025-12-23T11:50 | 6359 | 467 | 260 | 19 | ||
| 2025-12-23T11:51 | 6685 | 447 | 259 | 19 | ||
| 2025-12-23T11:52 | 7036 | 426 | 258 | 18 | ||
| 2025-12-23T11:53 | 7388 | 407 | -22.6 | -40.0 | 257 | 17 |
| 2025-12-23T11:54 | 7708 | 389 | 269 | 20 | ||
| 2025-12-23T11:55 | 7951 | 376 | 280 | 24 | ||
| 2025-12-23T11:55 | 8015 | 373 | -27.3 | -40.0 | ||
| 2025-12-23T11:56 | 8266 | 360 | 278 | 26 | ||
| 2025-12-23T11:56 | 8389 | 354 | -30.8 | -42.1 | ||
| 2025-12-23T11:57 | 8463 | 350 | -30.4 | -51.4 | ||
| 2025-12-23T11:57 | 8528 | 347 | 279 | 31 | ||
| 2025-12-23T11:58 | 8800 | 334 | 280 | 35 | ||
| 2025-12-23T11:58 | 8805 | 334 | -31.4 | -60.4 | ||
| 2025-12-23T11:59 | 9107 | 320 | 280 | 36 | ||
| 2025-12-23T12:00 | 9407 | 306 | 280 | 34 | ||
| 2025-12-23T12:00 | 9412 | 306 | -36.0 | -62.2 | ||
| 2025-12-23T12:01 | 9725 | 292 | 281 | 33 | ||
| 2025-12-23T12:01 | 9862 | 286 | -40.0 | -61.7 | ||
| 2025-12-23T12:02 | 9989 | 281 | 287 | 35 | ||
| 2025-12-23T12:03 | 10274 | 270 | 279 | 38 | ||
| 2025-12-23T12:04 | 10459 | 262 | -43.4 | |||
| 2025-12-23T12:04 | 10532 | 259 | 277 | 40 | ||
| 2025-12-23T12:05 | 10793 | 250 | 276 | 40 | ||
| 2025-12-23T12:06 | 11057 | 240 | -47.9 | 274 | 42 | |
| 2025-12-23T12:07 | 11334 | 230 | 279 | 40 | ||
| 2025-12-23T12:07 | 11388 | 228 | -47.9 | |||
| 2025-12-23T12:08 | 11576 | 222 | -47.5 | |||
| 2025-12-23T12:08 | 11624 | 220 | 266 | 40 | ||
| 2025-12-23T12:09 | 11974 | 209 | 253 | 44 | ||
| 2025-12-23T12:10 | 12256 | 200 | 256 | 47 | ||
| 2025-12-23T12:10 | 12317 | 198 | -52.2 | |||
| 2025-12-23T12:11 | 12543 | 191 | 257 | 50 | ||
| 2025-12-23T12:12 | 12836 | 182 | 262 | 49 | ||
| 2025-12-23T12:12 | 12944 | 179 | -55.9 | |||
| 2025-12-23T12:13 | 13140 | 174 | 268 | 55 | ||
| 2025-12-23T12:13 | 13343 | 168 | -58.9 | |||
| 2025-12-23T12:14 | 13442 | 166 | 270 | 55 | ||
| 2025-12-23T12:15 | 13718 | 159 | 271 | 56 | ||
| 2025-12-23T12:16 | 13973 | 152 | 271 | 57 | ||
| 2025-12-23T12:16 | 14116 | 149 | -65.8 | |||
| 2025-12-23T12:17 | 14217 | 146 | 276 | 59 | ||
| 2025-12-23T12:18 | 14469 | 140 | 283 | 56 | ||
| 2025-12-23T12:18 | 14502 | 139 | -65.8 | |||
| 2025-12-23T12:19 | 14719 | 135 | 282 | 51 | ||
| 2025-12-23T12:19 | 14735 | 134 | -67.0 | |||
| 2025-12-23T12:19 | 14919 | 130 | 281 | 47 | ||
| 2025-12-23T12:20 | 15046 | 127 | -65.9 | |||
| 2025-12-23T12:21 | 15195 | 124 | 282 | 44 | ||
| 2025-12-23T12:21 | 15417 | 120 | 275 | 40 | ||
| 2025-12-23T12:22 | 15489 | 118 | -66.1 | |||
| 2025-12-23T12:22 | 15710 | 114 | 265 | 41 | ||
| 2025-12-23T12:23 | 15902 | 111 | -68.8 | |||
| 2025-12-23T12:23 | 16008 | 109 | 262 | 43 | ||
| 2025-12-23T12:24 | 16242 | 104 | -71.7 | |||
| 2025-12-23T12:24 | 16319 | 103 | 267 | 42 | ||
| 2025-12-23T12:25 | 16559 | 99 | -72.8 | |||
| 2025-12-23T12:25 | 16650 | 97 | 275 | 36 | ||
| 2025-12-23T12:26 | 16964 | 92 | 275 | 25 | ||
| 2025-12-23T12:27 | 17190 | 89 | -75.1 | |||
| 2025-12-23T12:27 | 17234 | 88 | 287 | 25 | ||
| 2025-12-23T12:28 | 17415 | 85 | 282 | 20 | ||
| 2025-12-23T12:29 | 17743 | 81 | 284 | 25 | ||
| 2025-12-23T12:29 | 17964 | 78 | -79.0 | |||
| 2025-12-23T12:30 | 18046 | 77 | 269 | 25 | ||
| 2025-12-23T12:30 | 18105 | 76 | -78.1 | |||
| 2025-12-23T12:30 | 18171 | 75 | 281 | 27 | ||
| 2025-12-23T12:30 | 18217 | 74 | -75.4 | |||
| 2025-12-23T12:31 | 18319 | 73 | 292 | 17 | ||
| 2025-12-23T12:31 | 18343 | 73 | -73.6 | |||
| 2025-12-23T12:31 | 18523 | 70 | 275 | 8 | ||
| 2025-12-23T12:32 | 18659 | 69 | 232 | 10 | ||
| 2025-12-23T12:32 | 18734 | 68 | -73.0 | |||
| 2025-12-23T12:33 | 18936 | 66 | 235 | 13 | ||
| 2025-12-23T12:34 | 19216 | 63 | 250 | 12 | ||
| 2025-12-23T12:34 | 19244 | 62 | -74.5 | |||
| 2025-12-23T12:35 | 19504 | 60 | 267 | 12 | ||
| 2025-12-23T12:35 | 19565 | 59 | -69.7 | |||
| 2025-12-23T12:36 | 19720 | 57 | -68.9 | |||
| 2025-12-23T12:36 | 19824 | 56 | 303 | 11 | ||
| 2025-12-23T12:36 | 19950 | 55 | 314 | 10 | ||
| 2025-12-23T12:37 | 20053 | 54 | 291 | 6 | ||
| 2025-12-23T12:37 | 20084 | 54 | -67.5 | |||
| 2025-12-23T12:37 | 20242 | 53 | -67.8 | |||
| 2025-12-23T12:37 | 20300 | 52 | 213 | 8 | ||
| 2025-12-23T12:38 | 20382 | 51 | -66.8 | |||
| 2025-12-23T12:38 | 20419 | 51 | 246 | 7 | ||
| 2025-12-23T12:38 | 20502 | 50 | -66.1 | |||
| 2025-12-23T12:38 | 20586 | 50 | 292 | 8 | ||
| 2025-12-23T12:39 | 20747 | 48 | 252 | 8 | ||
| 2025-12-23T12:39 | 20887 | 47 | -66.9 | |||
| 2025-12-23T12:40 | 21016 | 46 | 260 | 12 | ||
| 2025-12-23T12:41 | 21313 | 44 | 296 | 5 | ||
| 2025-12-23T12:41 | 21343 | 44 | -63.8 | |||
| 2025-12-23T12:41 | 21498 | 43 | 292 | 4 | ||
| 2025-12-23T12:42 | 21646 | 42 | -63.1 | |||
| 2025-12-23T12:42 | 21662 | 42 | 325 | 6 | ||
| 2025-12-23T12:42 | 21765 | 41 | -62.8 | |||
| 2025-12-23T12:42 | 21809 | 41 | 335 | 3 | ||
| 2025-12-23T12:42 | 21856 | 40 | -61.2 | |||
| 2025-12-23T12:42 | 21902 | 40 | 203 | 1 | ||
| 2025-12-23T12:43 | 21994 | 40 | 266 | 3 | ||
| 2025-12-23T12:43 | 22124 | 39 | 252 | 2 | ||
| 2025-12-23T12:44 | 22349 | 37 | 130 | 3 | ||
| 2025-12-23T12:44 | 22437 | 37 | -60.5 | |||
| 2025-12-23T12:44 | 22504 | 36 | 186 | 3 | ||
| 2025-12-23T12:45 | 22607 | 36 | 168 | 3 | ||
| 2025-12-23T12:45 | 22767 | 35 | 220 | 3 | ||
| 2025-12-23T12:45 | 22872 | 34 | 256 | 5 | ||
| 2025-12-23T12:45 | 22913 | 34 | -60.7 | |||
| 2025-12-23T12:46 | 23077 | 33 | 264 | 5 | ||
| 2025-12-23T12:46 | 23208 | 33 | 265 | 2 | ||
| 2025-12-23T12:47 | 23361 | 32 | -60.1 | |||
| 2025-12-23T12:47 | 23404 | 32 | 268 | 4 | ||
| 2025-12-23T12:48 | 23584 | 31 | 266 | 8 | ||
| 2025-12-23T12:48 | 23752 | 30 | 245 | 4 | ||
| 2025-12-23T12:49 | 23944 | 29 | -57.8 | |||
| 2025-12-23T12:49 | 24077 | 28 | 262 | 8 | ||
| 2025-12-23T12:49 | 24211 | 28 | 270 | 6 | ||
| 2025-12-23T12:50 | 24372 | 27 | 251 | 10 | ||
| 2025-12-23T12:50 | 24586 | 26 | 269 | 12 | ||
| 2025-12-23T12:51 | 24634 | 26 | -58.2 | |||
| 2025-12-23T12:51 | 24884 | 25 | 280 | 9 | ||
| 2025-12-23T12:52 | 25063 | 24 | 260 | 10 | ||
| 2025-12-23T12:52 | 25219 | 24 | 269 | 10 | ||
| 2025-12-23T12:53 | 25576 | 22 | 266 | 12 | ||
| 2025-12-23T12:54 | 25633 | 22 | -56.8 | |||
| 2025-12-23T12:54 | 25927 | 21 | 295 | 14 | ||
| 2025-12-23T12:55 | 26114 | 21 | -53.6 | |||
| 2025-12-23T12:55 | 26305 | 20 | 312 | 15 | ||
| 2025-12-23T12:56 | 26604 | 19 | 330 | 9 | ||
| 2025-12-23T12:57 | 26847 | 18 | -51.3 | |||
| 2025-12-23T12:57 | 26882 | 18 | 297 | 7 | ||
| 2025-12-23T12:58 | 27098 | 18 | 320 | 11 | ||
| 2025-12-23T12:59 | 27478 | 17 | 317 | 7 | ||
| 2025-12-23T12:59 | 27638 | 16 | -50.9 | 329 | 5 | |
| 2025-12-23T13:00 | 28009 | 15 | 83 | 5 | ||
| 2025-12-23T13:01 | 28143 | 15 | -51.8 | 130 | 5 | |
| 2025-12-23T23:31 | 8 | 1015 | 22.1 | 18.1 | 30 | 4 |
| 2025-12-23T23:31 | 13 | 1014 | 22.1 | 18.3 | 32 | 1 |
| 2025-12-23T23:31 | 50 | 1010 | 13 | 4 | ||
| 2025-12-23T23:31 | 127 | 1001 | 41 | 8 | ||
| 2025-12-23T23:32 | 269 | 985 | 29 | 11 | ||
| 2025-12-23T23:32 | 275 | 984 | 20.4 | 17.0 | ||
| 2025-12-23T23:32 | 460 | 963 | 29 | 9 | ||
| 2025-12-23T23:33 | 596 | 948 | 17.7 | 15.3 | ||
| 2025-12-23T23:33 | 601 | 947 | 16 | 9 | ||
| 2025-12-23T23:33 | 680 | 939 | 17.9 | 13.4 | ||
| 2025-12-23T23:34 | 921 | 913 | 359 | 4 | ||
| 2025-12-23T23:34 | 1040 | 900 | 2 | 3 | ||
| 2025-12-23T23:34 | 1045 | 900 | 16.2 | 9.8 | ||
| 2025-12-23T23:34 | 1112 | 892 | 336 | 2 | ||
| 2025-12-23T23:35 | 1164 | 887 | 15.6 | 8.6 | ||
| 2025-12-23T23:35 | 1200 | 883 | 22 | 3 | ||
| 2025-12-23T23:35 | 1335 | 869 | 34 | 4 | ||
| 2025-12-23T23:36 | 1419 | 861 | 14.5 | 5.0 | ||
| 2025-12-23T23:36 | 1439 | 859 | 16 | 5 | ||
| 2025-12-23T23:36 | 1593 | 843 | 16 | 4 | ||
| 2025-12-23T23:36 | 1681 | 834 | 13.0 | 4.9 | ||
| 2025-12-23T23:37 | 1788 | 824 | 12.7 | 6.3 | ||
| 2025-12-23T23:37 | 1843 | 818 | 281 | 3 | ||
| 2025-12-23T23:37 | 1943 | 809 | 256 | 4 | ||
| 2025-12-23T23:38 | 2109 | 793 | 230 | 4 | ||
| 2025-12-23T23:38 | 2156 | 788 | 9.7 | 6.1 | ||
| 2025-12-23T23:38 | 2238 | 781 | 9.2 | 3.4 | ||
| 2025-12-23T23:38 | 2280 | 777 | 247 | 4 | ||
| 2025-12-23T23:39 | 2390 | 766 | 230 | 4 | ||
| 2025-12-23T23:39 | 2463 | 760 | 246 | 4 | ||
| 2025-12-23T23:39 | 2590 | 748 | 230 | 5 | ||
| 2025-12-23T23:40 | 2755 | 733 | 259 | 6 | ||
| 2025-12-23T23:41 | 2956 | 715 | 2.5 | 0.4 | ||
| 2025-12-23T23:41 | 3059 | 706 | 261 | 6 | ||
| 2025-12-23T23:41 | 3147 | 698 | 3.3 | -9.3 | ||
| 2025-12-23T23:41 | 3168 | 697 | 281 | 6 | ||
| 2025-12-23T23:41 | 3209 | 693 | 4.7 | -16.4 | ||
| 2025-12-23T23:41 | 3256 | 689 | 5.4 | -20.0 | ||
| 2025-12-23T23:42 | 3281 | 687 | 253 | 7 | ||
| 2025-12-23T23:42 | 3327 | 683 | 6.1 | -28.9 | ||
| 2025-12-23T23:42 | 3369 | 680 | 6.4 | -28.7 | ||
| 2025-12-23T23:42 | 3400 | 677 | 249 | 10 | ||
| 2025-12-23T23:43 | 3731 | 650 | 228 | 11 | ||
| 2025-12-23T23:43 | 3877 | 639 | 3.4 | -30.9 | ||
| 2025-12-23T23:44 | 3962 | 632 | 217 | 8 | ||
| 2025-12-23T23:44 | 4246 | 610 | 206 | 10 | ||
| 2025-12-23T23:45 | 4386 | 599 | 215 | 9 | ||
| 2025-12-23T23:45 | 4545 | 588 | -1.3 | -28.1 | ||
| 2025-12-23T23:46 | 4601 | 584 | 232 | 11 | ||
| 2025-12-23T23:46 | 4739 | 573 | 229 | 11 | ||
| 2025-12-23T23:47 | 4914 | 561 | -3.4 | -30.7 | ||
| 2025-12-23T23:47 | 5057 | 551 | 250 | 12 | ||
| 2025-12-23T23:48 | 5355 | 530 | 275 | 15 | ||
| 2025-12-23T23:48 | 5580 | 515 | -8.6 | -34.8 | ||
| 2025-12-23T23:49 | 5708 | 507 | 284 | 17 | ||
| 2025-12-23T23:50 | 5928 | 492 | 276 | 21 | ||
| 2025-12-23T23:50 | 5944 | 491 | -9.4 | -37.7 | ||
| 2025-12-23T23:51 | 6241 | 473 | 271 | 22 | ||
| 2025-12-23T23:51 | 6461 | 459 | -13.5 | -36.1 | ||
| 2025-12-23T23:52 | 6567 | 453 | 276 | 22 | ||
| 2025-12-23T23:52 | 6672 | 447 | -14.9 | -38.9 | ||
| 2025-12-23T23:53 | 6912 | 433 | 288 | 19 | ||
| 2025-12-23T23:53 | 7017 | 427 | -17.3 | -38.5 | ||
| 2025-12-23T23:54 | 7250 | 414 | 279 | 24 | ||
| 2025-12-23T23:54 | 7302 | 411 | -19.3 | -40.1 | ||
| 2025-12-23T23:54 | 7580 | 396 | 292 | 29 | ||
| 2025-12-23T23:55 | 7697 | 389 | -21.1 | -43.9 | ||
| 2025-12-23T23:55 | 7876 | 380 | -22.3 | -44.8 | ||
| 2025-12-23T23:55 | 7947 | 376 | 282 | 33 | ||
| 2025-12-23T23:56 | 7982 | 375 | -22.4 | -41.4 | ||
| 2025-12-23T23:56 | 8293 | 359 | 282 | 35 | ||
| 2025-12-23T23:57 | 8631 | 342 | 283 | 35 | ||
| 2025-12-23T23:58 | 8988 | 326 | 283 | 35 | ||
| 2025-12-23T23:59 | 9010 | 325 | -32.5 | -43.4 | ||
| 2025-12-23T23:59 | 9087 | 321 | -32.1 | -55.4 | ||
| 2025-12-23T23:59 | 9274 | 313 | -33.0 | -59.9 | ||
| 2025-12-23T23:59 | 9306 | 311 | 282 | 33 | ||
| 2025-12-24T00:00 | 9565 | 300 | 282 | 36 | ||
| 2025-12-24T00:00 | 9594 | 299 | -35.5 | -61.8 | ||
| 2025-12-24T00:01 | 9841 | 288 | 285 | 39 | ||
| 2025-12-24T00:02 | 10119 | 277 | 285 | 43 | ||
| 2025-12-24T00:03 | 10213 | 273 | -40.0 | -62.7 | ||
| 2025-12-24T00:03 | 10398 | 266 | 281 | 43 | ||
| 2025-12-24T00:04 | 10691 | 255 | 287 | 44 | ||
| 2025-12-24T00:05 | 10987 | 244 | 282 | 43 | ||
| 2025-12-24T00:06 | 11276 | 233 | -46.3 | |||
| 2025-12-24T00:06 | 11286 | 233 | 281 | 41 | ||
| 2025-12-24T00:07 | 11582 | 223 | 282 | 40 | ||
| 2025-12-24T00:08 | 11863 | 213 | 275 | 41 | ||
| 2025-12-24T00:09 | 12137 | 205 | 270 | 41 | ||
| 2025-12-24T00:09 | 12155 | 204 | -51.5 | |||
| 2025-12-24T00:10 | 12419 | 196 | 270 | 41 | ||
| 2025-12-24T00:11 | 12476 | 194 | -53.0 | |||
| 2025-12-24T00:11 | 12696 | 188 | -53.4 | 269 | 48 | |
| 2025-12-24T00:12 | 12966 | 180 | 267 | 46 | ||
| 2025-12-24T00:13 | 13230 | 173 | 268 | 47 | ||
| 2025-12-24T00:14 | 13496 | 165 | 267 | 48 | ||
| 2025-12-24T00:15 | 13760 | 158 | 269 | 51 | ||
| 2025-12-24T00:15 | 13782 | 158 | -63.3 | |||
| 2025-12-24T00:16 | 14036 | 152 | 270 | 47 | ||
| 2025-12-24T00:17 | 14153 | 149 | -64.0 | |||
| 2025-12-24T00:17 | 14317 | 145 | 275 | 42 | ||
| 2025-12-24T00:18 | 14606 | 138 | 271 | 39 | ||
| 2025-12-24T00:19 | 14907 | 131 | 267 | 37 | ||
| 2025-12-24T00:19 | 14948 | 130 | -68.6 | |||
| 2025-12-24T00:20 | 15221 | 125 | 263 | 38 | ||
| 2025-12-24T00:21 | 15525 | 118 | 267 | 38 | ||
| 2025-12-24T00:22 | 15815 | 112 | -76.0 | |||
| 2025-12-24T00:22 | 15820 | 112 | 270 | 37 | ||
| 2025-12-24T00:23 | 16121 | 107 | 281 | 37 | ||
| 2025-12-24T00:24 | 16263 | 104 | -76.4 | |||
| 2025-12-24T00:24 | 16405 | 102 | 287 | 40 | ||
| 2025-12-24T00:25 | 16675 | 97 | 291 | 40 | ||
| 2025-12-24T00:25 | 16682 | 97 | -77.9 | |||
| 2025-12-24T00:26 | 16946 | 92 | 290 | 41 | ||
| 2025-12-24T00:27 | 17149 | 89 | 301 | 38 | ||
| 2025-12-24T00:28 | 17385 | 86 | -76.9 | |||
| 2025-12-24T00:28 | 17433 | 85 | 303 | 27 | ||
| 2025-12-24T00:29 | 17732 | 81 | 291 | 16 | ||
| 2025-12-24T00:30 | 17987 | 77 | -77.3 | |||
| 2025-12-24T00:30 | 18045 | 76 | 261 | 16 | ||
| 2025-12-24T00:31 | 18328 | 73 | -79.6 | |||
| 2025-12-24T00:31 | 18345 | 72 | 264 | 19 | ||
| 2025-12-24T00:31 | 18415 | 71 | -78.3 | |||
| 2025-12-24T00:32 | 18472 | 71 | -73.1 | 278 | 14 | |
| 2025-12-24T00:32 | 18667 | 68 | 264 | 17 | ||
| 2025-12-24T00:33 | 18768 | 67 | -72.9 | |||
| 2025-12-24T00:33 | 18932 | 65 | 288 | 17 | ||
| 2025-12-24T00:33 | 19013 | 65 | -70.9 | |||
| 2025-12-24T00:34 | 19222 | 62 | 318 | 14 | ||
| 2025-12-24T00:35 | 19443 | 60 | 321 | 8 | ||
| 2025-12-24T00:35 | 19474 | 60 | -69.9 | |||
| 2025-12-24T00:35 | 19612 | 58 | 318 | 2 | ||
| 2025-12-24T00:36 | 19676 | 58 | 275 | 4 | ||
| 2025-12-24T00:36 | 19747 | 57 | -70.1 | |||
| 2025-12-24T00:36 | 19861 | 56 | 283 | 4 | ||
| 2025-12-24T00:37 | 19982 | 55 | -68.6 | |||
| 2025-12-24T00:37 | 20090 | 54 | 242 | 7 | ||
| 2025-12-24T00:38 | 20306 | 52 | 258 | 9 | ||
| 2025-12-24T00:38 | 20507 | 50 | -69.3 | |||
| 2025-12-24T00:39 | 20625 | 49 | 307 | 10 | ||
| 2025-12-24T00:39 | 20796 | 48 | 299 | 5 | ||
| 2025-12-24T00:40 | 21014 | 46 | 261 | 5 | ||
| 2025-12-24T00:40 | 21041 | 46 | -67.8 | |||
| 2025-12-24T00:41 | 21160 | 45 | 303 | 7 | ||
| 2025-12-24T00:41 | 21228 | 45 | -64.3 | |||
| 2025-12-24T00:41 | 21244 | 44 | 283 | 3 | ||
| 2025-12-24T00:41 | 21341 | 44 | 226 | 4 | ||
| 2025-12-24T00:42 | 21654 | 42 | 245 | 6 | ||
| 2025-12-24T00:42 | 21756 | 41 | 243 | 5 | ||
| 2025-12-24T00:43 | 21771 | 41 | -65.7 | |||
| 2025-12-24T00:43 | 21862 | 40 | 234 | 6 | ||
| 2025-12-24T00:43 | 22050 | 39 | 310 | 5 | ||
| 2025-12-24T00:44 | 22257 | 38 | 321 | 5 | ||
| 2025-12-24T00:44 | 22343 | 37 | -62.1 | |||
| 2025-12-24T00:45 | 22507 | 36 | 252 | 6 | ||
| 2025-12-24T00:45 | 22682 | 35 | 242 | 5 | ||
| 2025-12-24T00:46 | 22787 | 35 | 244 | 4 | ||
| 2025-12-24T00:46 | 22917 | 34 | 310 | 2 | ||
| 2025-12-24T00:46 | 22935 | 34 | -60.3 | |||
| 2025-12-24T00:46 | 23044 | 33 | 240 | 3 | ||
| 2025-12-24T00:47 | 23239 | 32 | 253 | 3 | ||
| 2025-12-24T00:48 | 23535 | 31 | 327 | 6 | ||
| 2025-12-24T00:49 | 23806 | 29 | 14 | 6 | ||
| 2025-12-24T00:49 | 24090 | 28 | 346 | 7 | ||
| 2025-12-24T00:50 | 24178 | 28 | -60.1 | |||
| 2025-12-24T00:50 | 24364 | 27 | 360 | 8 | ||
| 2025-12-24T00:51 | 24503 | 26 | 27 | 4 | ||
| 2025-12-24T00:51 | 24625 | 26 | -57.8 | 75 | 4 | |
| 2025-12-24T00:52 | 24900 | 25 | -56.5 | 79 | 5 | |
| 2025-12-24T00:52 | 25111 | 24 | 34 | 6 | ||
| 2025-12-24T00:53 | 25328 | 23 | 53 | 6 | ||
| 2025-12-24T00:53 | 25468 | 23 | 115 | 5 | ||
| 2025-12-24T00:54 | 25727 | 22 | 154 | 8 | ||
| 2025-12-24T00:54 | 25872 | 21 | 173 | 8 | ||
| 2025-12-24T00:55 | 25963 | 21 | -55.6 | |||
| 2025-12-24T00:55 | 26059 | 21 | 207 | 5 | ||
| 2025-12-24T00:56 | 26346 | 20 | -53.0 | |||
| 2025-12-24T00:56 | 26414 | 19 | 210 | 10 | ||
| 2025-12-24T00:57 | 26757 | 18 | 247 | 8 | ||
| 2025-12-24T00:58 | 27114 | 17 | 212 | 6 | ||
| 2025-12-24T00:58 | 27263 | 17 | -52.3 | |||
| 2025-12-24T00:59 | 27340 | 17 | 235 | 5 | ||
| 2025-12-24T00:59 | 27536 | 16 | 282 | 3 | ||
| 2025-12-24T01:00 | 27821 | 16 | 289 | 9 | ||
| 2025-12-24T01:01 | 28083 | 15 | 281 | 3 | ||
| 2025-12-24T01:01 | 28257 | 15 | 242 | 3 | ||
| 2025-12-24T01:01 | 28302 | 15 | -49.6 | 216 | 3 | |
| 2025-12-24T01:02 | 28438 | 14 | 231 | 3 | ||
| 2025-12-24T01:02 | 28551 | 14 | -49.2 | 228 | 2 | |
| 2025-12-24T11:31 | 8 | 1014 | 21.1 | 16.3 | 20 | 3 |
| 2025-12-24T11:31 | 15 | 1013 | 21.2 | 17.0 | 0 | 0 |
| 2025-12-24T11:31 | 92 | 1004 | 21.3 | 16.5 | ||
| 2025-12-24T11:31 | 170 | 995 | 20 | 6 | ||
| 2025-12-24T11:32 | 276 | 983 | 43 | 8 | ||
| 2025-12-24T11:32 | 382 | 971 | 19.3 | 15.2 | ||
| 2025-12-24T11:33 | 590 | 948 | 39 | 9 | ||
| 2025-12-24T11:34 | 844 | 920 | 15.1 | 13.5 | ||
| 2025-12-24T11:34 | 889 | 915 | 57 | 7 | ||
| 2025-12-24T11:34 | 1089 | 894 | 62 | 7 | ||
| 2025-12-24T11:35 | 1191 | 883 | 12.2 | 11.3 | ||
| 2025-12-24T11:35 | 1231 | 879 | 12.6 | 9.1 | ||
| 2025-12-24T11:35 | 1270 | 875 | 67 | 3 | ||
| 2025-12-24T11:35 | 1284 | 873 | 15.1 | 1.6 | ||
| 2025-12-24T11:36 | 1537 | 848 | 14.0 | 1.6 | ||
| 2025-12-24T11:36 | 1557 | 846 | 133 | 1 | ||
| 2025-12-24T11:36 | 1623 | 839 | 226 | 3 | ||
| 2025-12-24T11:36 | 1675 | 834 | 13.2 | 1.2 | ||
| 2025-12-24T11:37 | 1695 | 832 | 207 | 1 | ||
| 2025-12-24T11:37 | 1747 | 827 | 12.7 | 2.3 | ||
| 2025-12-24T11:37 | 1800 | 821 | 307 | 3 | ||
| 2025-12-24T11:38 | 2000 | 802 | 305 | 4 | ||
| 2025-12-24T11:38 | 2155 | 787 | 296 | 2 | ||
| 2025-12-24T11:39 | 2294 | 774 | 8.1 | 1.7 | ||
| 2025-12-24T11:39 | 2414 | 763 | 301 | 4 | ||
| 2025-12-24T11:40 | 2672 | 739 | 5.7 | 2.2 | ||
| 2025-12-24T11:40 | 2718 | 735 | 296 | 11 | ||
| 2025-12-24T11:40 | 2797 | 728 | 6.2 | 1.1 | ||
| 2025-12-24T11:40 | 2955 | 714 | 5.3 | 0.3 | ||
| 2025-12-24T11:41 | 3076 | 704 | 282 | 12 | ||
| 2025-12-24T11:42 | 3433 | 673 | 275 | 12 | ||
| 2025-12-24T11:42 | 3568 | 662 | 0.6 | -3.1 | ||
| 2025-12-24T11:43 | 3772 | 645 | 269 | 15 | ||
| 2025-12-24T11:43 | 3938 | 632 | -2.7 | -4.7 | ||
| 2025-12-24T11:44 | 4050 | 623 | -2.8 | -6.8 | ||
| 2025-12-24T11:44 | 4096 | 620 | 266 | 18 | ||
| 2025-12-24T11:45 | 4329 | 602 | -5.1 | -6.9 | ||
| 2025-12-24T11:45 | 4374 | 598 | -4.9 | -9.7 | ||
| 2025-12-24T11:45 | 4409 | 596 | -3.5 | -14.3 | ||
| 2025-12-24T11:45 | 4420 | 595 | 273 | 23 | ||
| 2025-12-24T11:45 | 4473 | 591 | -2.2 | -22.2 | ||
| 2025-12-24T11:45 | 4572 | 583 | -1.0 | -28.9 | ||
| 2025-12-24T11:46 | 4682 | 575 | -0.9 | -32.5 | ||
| 2025-12-24T11:46 | 4735 | 572 | -0.1 | -40.4 | ||
| 2025-12-24T11:46 | 4770 | 569 | 271 | 30 | ||
| 2025-12-24T11:46 | 4903 | 560 | -0.4 | -40.6 | ||
| 2025-12-24T11:47 | 5135 | 544 | -1.1 | -51.0 | ||
| 2025-12-24T11:47 | 5141 | 543 | 266 | 28 | ||
| 2025-12-24T11:48 | 5499 | 519 | -3.7 | -40.2 | 261 | 25 |
| 2025-12-24T11:49 | 5866 | 496 | 256 | 24 | ||
| 2025-12-24T11:50 | 6242 | 472 | 256 | 26 | ||
| 2025-12-24T11:51 | 6624 | 449 | 258 | 28 | ||
| 2025-12-24T11:51 | 6673 | 446 | -13.4 | -53.2 | ||
| 2025-12-24T11:52 | 6979 | 429 | 263 | 29 | ||
| 2025-12-24T11:52 | 7008 | 427 | -15.5 | -51.2 | ||
| 2025-12-24T11:53 | 7314 | 410 | 268 | 29 | ||
| 2025-12-24T11:53 | 7407 | 405 | -18.8 | -51.1 | ||
| 2025-12-24T11:54 | 7641 | 392 | -20.1 | -47.2 | ||
| 2025-12-24T11:54 | 7646 | 392 | 269 | 29 | ||
| 2025-12-24T11:54 | 7691 | 390 | -20.5 | -34.3 | ||
| 2025-12-24T11:54 | 7847 | 382 | -21.5 | -34.5 | ||
| 2025-12-24T11:55 | 7933 | 377 | -22.1 | -39.0 | ||
| 2025-12-24T11:55 | 7975 | 375 | 272 | 31 | ||
| 2025-12-24T11:55 | 8037 | 372 | -22.9 | -38.4 | ||
| 2025-12-24T11:55 | 8092 | 369 | -22.9 | -50.7 | ||
| 2025-12-24T11:56 | 8199 | 364 | -23.2 | -50.9 | ||
| 2025-12-24T11:56 | 8254 | 361 | -23.5 | -35.9 | ||
| 2025-12-24T11:56 | 8275 | 360 | 275 | 38 | ||
| 2025-12-24T11:56 | 8401 | 354 | -24.9 | -32.5 | ||
| 2025-12-24T11:56 | 8436 | 352 | 278 | 39 | ||
| 2025-12-24T11:57 | 8689 | 340 | 278 | 41 | ||
| 2025-12-24T11:58 | 8927 | 329 | 280 | 42 | ||
| 2025-12-24T11:59 | 9042 | 323 | -30.7 | -36.8 | ||
| 2025-12-24T11:59 | 9160 | 318 | -31.7 | -39.1 | ||
| 2025-12-24T11:59 | 9173 | 317 | 281 | 44 | ||
| 2025-12-24T12:00 | 9268 | 313 | -31.9 | -41.3 | ||
| 2025-12-24T12:00 | 9397 | 308 | -32.8 | -43.9 | ||
| 2025-12-24T12:00 | 9422 | 306 | 278 | 50 | ||
| 2025-12-24T12:01 | 9680 | 295 | 279 | 50 | ||
| 2025-12-24T12:02 | 9778 | 291 | -36.3 | -45.5 | ||
| 2025-12-24T12:02 | 9843 | 289 | -35.7 | -55.7 | ||
| 2025-12-24T12:02 | 9974 | 283 | 273 | 49 | ||
| 2025-12-24T12:03 | 10122 | 277 | -37.3 | -61.8 | ||
| 2025-12-24T12:03 | 10242 | 272 | 277 | 49 | ||
| 2025-12-24T12:04 | 10479 | 263 | -40.0 | -62.7 | ||
| 2025-12-24T12:04 | 10510 | 262 | 279 | 50 | ||
| 2025-12-24T12:05 | 10784 | 252 | 281 | 51 | ||
| 2025-12-24T12:06 | 11067 | 241 | 280 | 50 | ||
| 2025-12-24T12:07 | 11349 | 231 | 280 | 51 | ||
| 2025-12-24T12:08 | 11626 | 222 | 279 | 49 | ||
| 2025-12-24T12:09 | 11856 | 214 | -49.6 | |||
| 2025-12-24T12:09 | 11899 | 213 | 278 | 49 | ||
| 2025-12-24T12:10 | 12176 | 204 | 273 | 50 | ||
| 2025-12-24T12:11 | 12429 | 196 | 272 | 49 | ||
| 2025-12-24T12:11 | 12465 | 195 | -54.6 | |||
| 2025-12-24T12:12 | 12671 | 189 | 273 | 49 | ||
| 2025-12-24T12:13 | 12946 | 181 | 268 | 47 | ||
| 2025-12-24T12:14 | 13011 | 179 | -58.1 | |||
| 2025-12-24T12:14 | 13197 | 174 | 267 | 48 | ||
| 2025-12-24T12:15 | 13451 | 167 | 264 | 48 | ||
| 2025-12-24T12:16 | 13717 | 160 | 263 | 50 | ||
| 2025-12-24T12:17 | 13987 | 153 | 266 | 50 | ||
| 2025-12-24T12:17 | 14005 | 152 | -65.5 | |||
| 2025-12-24T12:18 | 14261 | 146 | 268 | 49 | ||
| 2025-12-24T12:18 | 14284 | 145 | -66.1 | |||
| 2025-12-24T12:19 | 14507 | 140 | 275 | 47 | ||
| 2025-12-24T12:20 | 14615 | 138 | -66.6 | |||
| 2025-12-24T12:20 | 14784 | 134 | 277 | 39 | ||
| 2025-12-24T12:21 | 14911 | 131 | -67.7 | |||
| 2025-12-24T12:21 | 15056 | 128 | 269 | 39 | ||
| 2025-12-24T12:22 | 15198 | 125 | -68.1 | |||
| 2025-12-24T12:22 | 15282 | 123 | -67.1 | |||
| 2025-12-24T12:22 | 15326 | 122 | 269 | 37 | ||
| 2025-12-24T12:22 | 15409 | 121 | -67.4 | |||
| 2025-12-24T12:23 | 15583 | 117 | 267 | 36 | ||
| 2025-12-24T12:24 | 15835 | 112 | 264 | 35 | ||
| 2025-12-24T12:25 | 16093 | 108 | 260 | 33 | ||
| 2025-12-24T12:26 | 16271 | 104 | -73.7 | |||
| 2025-12-24T12:26 | 16367 | 103 | 260 | 33 | ||
| 2025-12-24T12:27 | 16649 | 98 | 259 | 31 | ||
| 2025-12-24T12:28 | 16865 | 94 | -78.0 | |||
| 2025-12-24T12:28 | 16944 | 93 | 261 | 29 | ||
| 2025-12-24T12:29 | 17241 | 88 | 268 | 21 | ||
| 2025-12-24T12:29 | 17273 | 88 | -78.7 | |||
| 2025-12-24T12:30 | 17536 | 84 | 241 | 14 | ||
| 2025-12-24T12:31 | 17660 | 82 | -79.1 | |||
| 2025-12-24T12:31 | 17823 | 80 | -77.5 | 240 | 17 | |
| 2025-12-24T12:32 | 18102 | 76 | 241 | 19 | ||
| 2025-12-24T12:33 | 18245 | 74 | -79.9 | |||
| 2025-12-24T12:33 | 18328 | 73 | 259 | 22 | ||
| 2025-12-24T12:33 | 18425 | 72 | -76.9 | |||
| 2025-12-24T12:34 | 18565 | 70 | 263 | 14 | ||
| 2025-12-24T12:34 | 18605 | 69 | -74.6 | |||
| 2025-12-24T12:35 | 18853 | 66 | 272 | 14 | ||
| 2025-12-24T12:36 | 19068 | 64 | 269 | 10 | ||
| 2025-12-24T12:36 | 19135 | 63 | -74.4 | |||
| 2025-12-24T12:36 | 19283 | 62 | 255 | 6 | ||
| 2025-12-24T12:37 | 19400 | 61 | -73.9 | |||
| 2025-12-24T12:37 | 19478 | 60 | 305 | 8 | ||
| 2025-12-24T12:37 | 19565 | 59 | -71.1 | |||
| 2025-12-24T12:38 | 19627 | 58 | 260 | 9 | ||
| 2025-12-24T12:38 | 19757 | 57 | -70.6 | |||
| 2025-12-24T12:39 | 19937 | 55 | 282 | 9 | ||
| 2025-12-24T12:39 | 20037 | 54 | 254 | 5 | ||
| 2025-12-24T12:39 | 20095 | 54 | 252 | 5 | ||
| 2025-12-24T12:39 | 20138 | 53 | -64.5 | |||
| 2025-12-24T12:39 | 20174 | 53 | 295 | 5 | ||
| 2025-12-24T12:40 | 20221 | 53 | -63.0 | |||
| 2025-12-24T12:40 | 20290 | 52 | 283 | 6 | ||
| 2025-12-24T12:40 | 20422 | 51 | 298 | 3 | ||
| 2025-12-24T12:41 | 20628 | 49 | -63.7 | |||
| 2025-12-24T12:41 | 20742 | 48 | 208 | 3 | ||
| 2025-12-24T12:42 | 20856 | 48 | 245 | 4 | ||
| 2025-12-24T12:42 | 21065 | 46 | 186 | 3 | ||
| 2025-12-24T12:43 | 21213 | 45 | 174 | 6 | ||
| 2025-12-24T12:43 | 21363 | 44 | 194 | 6 | ||
| 2025-12-24T12:44 | 21545 | 42 | 220 | 8 | ||
| 2025-12-24T12:44 | 21677 | 42 | 245 | 6 | ||
| 2025-12-24T12:44 | 21734 | 41 | -66.8 | |||
| 2025-12-24T12:45 | 21791 | 41 | 279 | 7 | ||
| 2025-12-24T12:45 | 21958 | 40 | 278 | 7 | ||
| 2025-12-24T12:46 | 22147 | 38 | -65.5 | 300 | 3 | |
| 2025-12-24T12:46 | 22261 | 38 | 253 | 3 | ||
| 2025-12-24T12:46 | 22392 | 37 | 262 | 5 | ||
| 2025-12-24T12:47 | 22510 | 36 | 289 | 8 | ||
| 2025-12-24T12:47 | 22684 | 35 | 323 | 8 | ||
| 2025-12-24T12:48 | 22826 | 34 | 323 | 6 | ||
| 2025-12-24T12:48 | 22842 | 34 | -60.8 | |||
| 2025-12-24T12:48 | 22954 | 34 | 256 | 3 | ||
| 2025-12-24T12:49 | 23122 | 33 | 296 | 4 | ||
| 2025-12-24T12:49 | 23279 | 32 | 286 | 5 | ||
| 2025-12-24T12:50 | 23436 | 31 | 276 | 3 | ||
| 2025-12-24T12:50 | 23537 | 31 | 200 | 4 | ||
| 2025-12-24T12:51 | 23786 | 30 | 233 | 7 | ||
| 2025-12-24T12:51 | 23915 | 29 | 248 | 6 | ||
| 2025-12-24T12:52 | 24201 | 28 | -58.5 | 236 | 6 | |
| 2025-12-24T23:31 | 8 | 1014 | 21.2 | 16.0 | 20 | 4 |
| 2025-12-24T23:31 | 12 | 1013 | 21.2 | 16.4 | 0 | 0 |
| 2025-12-24T23:31 | 52 | 1009 | 31 | 4 | ||
| 2025-12-24T23:31 | 92 | 1004 | 20.8 | 15.6 | ||
| 2025-12-24T23:31 | 164 | 996 | 34 | 8 | ||
| 2025-12-24T23:32 | 500 | 958 | 37 | 8 | ||
| 2025-12-24T23:33 | 776 | 927 | 36 | 5 | ||
| 2025-12-24T23:34 | 1019 | 901 | 47 | 3 | ||
| 2025-12-24T23:34 | 1109 | 892 | 8 | 3 | ||
| 2025-12-24T23:35 | 1226 | 879 | 11.7 | 11.1 | ||
| 2025-12-24T23:35 | 1445 | 856 | 185 | 1 | ||
| 2025-12-24T23:36 | 1527 | 848 | 244 | 3 | ||
| 2025-12-24T23:36 | 1555 | 845 | 9.3 | 8.7 | ||
| 2025-12-24T23:36 | 1643 | 836 | 8.9 | 6.2 | ||
| 2025-12-24T23:36 | 1710 | 829 | 9.7 | 3.9 | ||
| 2025-12-24T23:36 | 1830 | 818 | 247 | 5 | ||
| 2025-12-24T23:37 | 1894 | 811 | 8.7 | 4.3 | ||
| 2025-12-24T23:37 | 1982 | 803 | 8.3 | 4.1 | ||
| 2025-12-24T23:37 | 2064 | 795 | 7.9 | 6.2 | ||
| 2025-12-24T23:37 | 2094 | 792 | 259 | 3 | ||
| 2025-12-24T23:38 | 2182 | 784 | 7.4 | 7.1 | ||
| 2025-12-24T23:38 | 2270 | 775 | 264 | 6 | ||
| 2025-12-24T23:38 | 2378 | 765 | 283 | 7 | ||
| 2025-12-24T23:38 | 2451 | 758 | 6.2 | 5.2 | ||
| 2025-12-24T23:39 | 2693 | 736 | 287 | 10 | ||
| 2025-12-24T23:40 | 2928 | 715 | 3.4 | 1.8 | ||
| 2025-12-24T23:40 | 3009 | 708 | 279 | 12 | ||
| 2025-12-24T23:41 | 3299 | 683 | 0.7 | -0.2 | 264 | 12 |
| 2025-12-24T23:42 | 3502 | 666 | -0.4 | -1.1 | ||
| 2025-12-24T23:42 | 3567 | 661 | 255 | 15 | ||
| 2025-12-24T23:42 | 3682 | 651 | 0.2 | -2.8 | ||
| 2025-12-24T23:42 | 3732 | 647 | -0.1 | -4.5 | ||
| 2025-12-24T23:43 | 3795 | 642 | 0.1 | -7.9 | ||
| 2025-12-24T23:43 | 3819 | 640 | 267 | 17 | ||
| 2025-12-24T23:44 | 4153 | 614 | -2.6 | -7.5 | ||
| 2025-12-24T23:44 | 4177 | 612 | 277 | 13 | ||
| 2025-12-24T23:44 | 4327 | 600 | -4.0 | -10.2 | ||
| 2025-12-24T23:44 | 4402 | 595 | -4.4 | -10.2 | ||
| 2025-12-24T23:44 | 4446 | 591 | 278 | 16 | ||
| 2025-12-24T23:45 | 4582 | 581 | -5.6 | -13.4 | ||
| 2025-12-24T23:45 | 4792 | 566 | 274 | 22 | ||
| 2025-12-24T23:46 | 4853 | 561 | -6.4 | -18.7 | ||
| 2025-12-24T23:46 | 5005 | 551 | -6.6 | -30.5 | 267 | 27 |
| 2025-12-24T23:46 | 5101 | 544 | -6.9 | -27.3 | ||
| 2025-12-24T23:47 | 5206 | 537 | -7.1 | -38.7 | ||
| 2025-12-24T23:47 | 5338 | 528 | 265 | 30 | ||
| 2025-12-24T23:47 | 5434 | 521 | -8.2 | -46.1 | ||
| 2025-12-24T23:48 | 5607 | 510 | -8.4 | -46.2 | ||
| 2025-12-24T23:48 | 5672 | 505 | 266 | 35 | ||
| 2025-12-24T23:49 | 5947 | 488 | -9.3 | -50.4 | ||
| 2025-12-24T23:49 | 5961 | 487 | 265 | 36 | ||
| 2025-12-24T23:49 | 6077 | 480 | -10.0 | -50.9 | ||
| 2025-12-24T23:50 | 6252 | 469 | 267 | 37 | ||
| 2025-12-24T23:51 | 6409 | 459 | -11.4 | -43.7 | ||
| 2025-12-24T23:51 | 6520 | 453 | -11.5 | -48.4 | ||
| 2025-12-24T23:51 | 6534 | 452 | 271 | 39 | ||
| 2025-12-24T23:52 | 6807 | 436 | 269 | 40 | ||
| 2025-12-24T23:53 | 7043 | 423 | -14.8 | -41.9 | ||
| 2025-12-24T23:53 | 7088 | 420 | 266 | 40 | ||
| 2025-12-24T23:54 | 7298 | 409 | -16.8 | -41.3 | ||
| 2025-12-24T23:54 | 7337 | 407 | 269 | 42 | ||
| 2025-12-24T23:54 | 7380 | 404 | -16.5 | -49.4 | ||
| 2025-12-24T23:55 | 7579 | 394 | 272 | 42 | ||
| 2025-12-24T23:55 | 7651 | 390 | -18.0 | -50.5 | ||
| 2025-12-24T23:56 | 7827 | 381 | 272 | 43 | ||
| 2025-12-24T23:56 | 7835 | 380 | -19.3 | -53.9 | ||
| 2025-12-24T23:57 | 8032 | 371 | -20.5 | -47.5 | ||
| 2025-12-24T23:57 | 8080 | 368 | 275 | 46 | ||
| 2025-12-24T23:58 | 8332 | 356 | -22.5 | -42.8 | ||
| 2025-12-24T23:58 | 8336 | 356 | 275 | 49 | ||
| 2025-12-24T23:59 | 8594 | 343 | 273 | 50 | ||
| 2025-12-25T00:00 | 8858 | 331 | 276 | 51 | ||
| 2025-12-25T00:00 | 8867 | 330 | -26.7 | -46.9 | ||
| 2025-12-25T00:01 | 9138 | 318 | 277 | 51 | ||
| 2025-12-25T00:02 | 9410 | 306 | -31.2 | -46.8 | ||
| 2025-12-25T00:02 | 9419 | 306 | 279 | 52 | ||
| 2025-12-25T00:03 | 9683 | 295 | 281 | 51 | ||
| 2025-12-25T00:03 | 9691 | 294 | -33.6 | -46.5 | ||
| 2025-12-25T00:04 | 9931 | 284 | 281 | 51 | ||
| 2025-12-25T00:05 | 10181 | 274 | 281 | 51 | ||
| 2025-12-25T00:06 | 10437 | 264 | 281 | 51 | ||
| 2025-12-25T00:06 | 10476 | 263 | -40.0 | -55.3 | ||
| 2025-12-25T00:07 | 10710 | 254 | 275 | 49 | ||
| 2025-12-25T00:08 | 10960 | 245 | -42.8 | |||
| 2025-12-25T00:08 | 10982 | 244 | 271 | 50 | ||
| 2025-12-25T00:09 | 11248 | 234 | 270 | 52 | ||
| 2025-12-25T00:10 | 11452 | 227 | -46.5 | |||
| 2025-12-25T00:10 | 11516 | 225 | 268 | 54 | ||
| 2025-12-25T00:11 | 11792 | 216 | 265 | 54 | ||
| 2025-12-25T00:11 | 11810 | 215 | -48.9 | |||
| 2025-12-25T00:12 | 12074 | 207 | 263 | 54 | ||
| 2025-12-25T00:13 | 12350 | 198 | 264 | 53 | ||
| 2025-12-25T00:14 | 12609 | 190 | 264 | 53 | ||
| 2025-12-25T00:15 | 12856 | 183 | 263 | 51 | ||
| 2025-12-25T00:15 | 12920 | 181 | -57.5 | |||
| 2025-12-25T00:16 | 13145 | 175 | 258 | 50 | ||
| 2025-12-25T00:17 | 13419 | 167 | 254 | 51 | ||
| 2025-12-25T00:18 | 13683 | 160 | 256 | 53 | ||
| 2025-12-25T00:19 | 13908 | 155 | -64.9 | |||
| 2025-12-25T00:19 | 13954 | 153 | 258 | 53 | ||
| 2025-12-25T00:20 | 14183 | 148 | -66.9 | |||
| 2025-12-25T00:20 | 14234 | 146 | 257 | 53 | ||
| 2025-12-25T00:21 | 14513 | 140 | 258 | 54 | ||
| 2025-12-25T00:22 | 14729 | 135 | -71.1 | |||
| 2025-12-25T00:22 | 14782 | 134 | 265 | 52 | ||
| 2025-12-25T00:23 | 15068 | 127 | 270 | 46 | ||
| 2025-12-25T00:24 | 15334 | 122 | -71.7 | |||
| 2025-12-25T00:24 | 15353 | 121 | 266 | 40 | ||
| 2025-12-25T00:25 | 15548 | 117 | -72.4 | |||
| 2025-12-25T00:25 | 15632 | 116 | 260 | 43 | ||
| 2025-12-25T00:25 | 15729 | 114 | -73.2 | |||
| 2025-12-25T00:26 | 15906 | 110 | 262 | 44 | ||
| 2025-12-25T00:26 | 15924 | 110 | -73.3 | |||
| 2025-12-25T00:27 | 16178 | 105 | 269 | 42 | ||
| 2025-12-25T00:28 | 16347 | 102 | -75.7 | |||
| 2025-12-25T00:28 | 16461 | 100 | 263 | 36 | ||
| 2025-12-25T00:29 | 16751 | 95 | 261 | 35 | ||
| 2025-12-25T00:29 | 16812 | 94 | -76.3 | |||
| 2025-12-25T00:30 | 17048 | 91 | 269 | 33 | ||
| 2025-12-25T00:31 | 17321 | 86 | -79.3 | |||
| 2025-12-25T00:31 | 17348 | 86 | 260 | 29 | ||
| 2025-12-25T00:32 | 17590 | 82 | -80.0 | |||
| 2025-12-25T00:32 | 17644 | 82 | 249 | 28 | ||
| 2025-12-25T00:33 | 17853 | 79 | -81.6 | |||
| 2025-12-25T00:33 | 17932 | 78 | 258 | 30 | ||
| 2025-12-25T00:33 | 17999 | 77 | -78.6 | |||
| 2025-12-25T00:34 | 18077 | 76 | -75.2 | |||
| 2025-12-25T00:34 | 18191 | 74 | 270 | 23 | ||
| 2025-12-25T00:35 | 18407 | 71 | -75.4 | |||
| 2025-12-25T00:35 | 18430 | 71 | 283 | 21 | ||
| 2025-12-25T00:35 | 18598 | 69 | 264 | 12 | ||
| 2025-12-25T00:36 | 18691 | 68 | -72.5 | |||
| 2025-12-25T00:36 | 18904 | 66 | 229 | 14 | ||
| 2025-12-25T00:37 | 19205 | 62 | -71.8 | 251 | 15 | |
| 2025-12-25T00:38 | 19359 | 61 | 238 | 9 | ||
| 2025-12-25T00:38 | 19469 | 60 | -69.2 | |||
| 2025-12-25T00:38 | 19529 | 59 | 272 | 6 | ||
| 2025-12-25T00:39 | 19681 | 58 | -69.0 | |||
| 2025-12-25T00:39 | 19765 | 57 | -66.9 | |||
| 2025-12-25T00:39 | 19838 | 56 | 233 | 4 | ||
| 2025-12-25T00:40 | 19948 | 55 | 236 | 3 | ||
| 2025-12-25T00:40 | 20159 | 53 | -68.7 | |||
| 2025-12-25T00:40 | 20205 | 53 | 235 | 4 | ||
| 2025-12-25T00:41 | 20414 | 51 | 273 | 8 | ||
| 2025-12-25T00:42 | 20661 | 49 | 271 | 6 | ||
| 2025-12-25T00:42 | 20812 | 48 | -67.6 | |||
| 2025-12-25T00:42 | 20850 | 47 | 254 | 8 | ||
| 2025-12-25T00:43 | 21020 | 46 | 278 | 8 | ||
| 2025-12-25T00:43 | 21100 | 45 | -65.4 | |||
| 2025-12-25T00:44 | 21179 | 45 | 264 | 10 | ||
| 2025-12-25T00:44 | 21318 | 44 | 267 | 7 | ||
| 2025-12-25T00:44 | 21416 | 43 | 245 | 5 | ||
| 2025-12-25T00:45 | 21545 | 42 | 280 | 2 | ||
| 2025-12-25T00:46 | 21827 | 40 | -62.1 | 236 | 7 | |
| 2025-12-25T00:46 | 22062 | 39 | -61.2 | |||
| 2025-12-25T00:47 | 22159 | 38 | 282 | 4 | ||
| 2025-12-25T00:47 | 22388 | 37 | 343 | 4 | ||
| 2025-12-25T00:47 | 22461 | 36 | 11 | 2 | ||
| 2025-12-25T00:48 | 22562 | 36 | 107 | 3 | ||
| 2025-12-25T00:48 | 22629 | 35 | -62.3 | |||
| 2025-12-25T00:48 | 22768 | 35 | 169 | 2 | ||
| 2025-12-25T00:49 | 22915 | 34 | 221 | 3 | ||
| 2025-12-25T00:49 | 22950 | 34 | -61.9 | |||
| 2025-12-25T00:49 | 23025 | 33 | 292 | 5 | ||
| 2025-12-25T00:49 | 23121 | 33 | 289 | 5 | ||
| 2025-12-25T00:50 | 23217 | 32 | 284 | 4 | ||
| 2025-12-25T00:50 | 23391 | 31 | 284 | 4 | ||
| 2025-12-25T00:51 | 23512 | 31 | 252 | 5 | ||
| 2025-12-25T00:51 | 23715 | 30 | 327 | 4 | ||
| 2025-12-25T00:52 | 23823 | 29 | 339 | 2 | ||
| 2025-12-25T00:52 | 24104 | 28 | -60.3 | |||
| 2025-12-25T00:53 | 24197 | 28 | 160 | 1 | ||
| 2025-12-25T00:54 | 24547 | 26 | 55 | 2 | ||
| 2025-12-25T00:54 | 24644 | 26 | 36 | 4 | ||
| 2025-12-25T00:55 | 24918 | 25 | 153 | 2 | ||
| 2025-12-25T00:56 | 25286 | 23 | 300 | 1 | ||
| 2025-12-25T00:56 | 25449 | 23 | 301 | 3 | ||
| 2025-12-25T00:57 | 25764 | 21 | -59.3 | |||
| 2025-12-25T00:57 | 25824 | 21 | 0 | 0 | ||
| 2025-12-25T00:57 | 25884 | 21 | 162 | 3 | ||
| 2025-12-25T00:58 | 26004 | 21 | 175 | 6 | ||
| 2025-12-25T00:58 | 26162 | 20 | 218 | 6 | ||
| 2025-12-25T00:59 | 26296 | 20 | -54.6 | 238 | 5 | |
| 2025-12-25T11:31 | 8 | 1018 | 16.7 | 13.0 | 10 | 6 |
| 2025-12-25T11:31 | 10 | 1018 | 17.0 | 12.7 | 13 | 1 |
| 2025-12-25T11:31 | 19 | 1017 | 18.0 | 13.3 | ||
| 2025-12-25T11:31 | 30 | 1016 | 16.8 | 12.5 | ||
| 2025-12-25T11:31 | 50 | 1013 | 10 | 4 | ||
| 2025-12-25T11:31 | 117 | 1005 | 16.6 | 11.5 | ||
| 2025-12-25T11:31 | 149 | 1001 | 17.2 | 10.8 | ||
| 2025-12-25T11:32 | 218 | 993 | 15 | 14 | ||
| 2025-12-25T11:33 | 532 | 957 | 12 | 15 | ||
| 2025-12-25T11:33 | 590 | 951 | 13.0 | 9.4 | ||
| 2025-12-25T11:33 | 704 | 938 | 14 | 18 | ||
| 2025-12-25T11:34 | 1046 | 900 | 13 | 17 | ||
| 2025-12-25T11:34 | 1105 | 894 | 8.9 | 7.8 | ||
| 2025-12-25T11:35 | 1354 | 867 | 3 | 16 | ||
| 2025-12-25T11:36 | 1512 | 851 | 6.6 | 6.5 | ||
| 2025-12-25T11:36 | 1585 | 843 | 1 | 10 | ||
| 2025-12-25T11:36 | 1732 | 828 | 2 | 9 | ||
| 2025-12-25T11:36 | 1797 | 822 | 5.7 | 5.6 | ||
| 2025-12-25T11:37 | 2108 | 791 | 329 | 5 | ||
| 2025-12-25T11:38 | 2197 | 782 | 4.3 | 4.0 | ||
| 2025-12-25T11:38 | 2449 | 758 | 3.9 | 3.6 | ||
| 2025-12-25T11:38 | 2461 | 757 | 256 | 9 | ||
| 2025-12-25T11:39 | 2680 | 737 | 245 | 13 | ||
| 2025-12-25T11:40 | 2894 | 718 | 235 | 14 | ||
| 2025-12-25T11:40 | 2899 | 718 | 1.6 | 1.2 | ||
| 2025-12-25T11:41 | 3225 | 689 | 249 | 16 | ||
| 2025-12-25T11:41 | 3279 | 685 | -0.2 | -1.9 | ||
| 2025-12-25T11:41 | 3385 | 675 | -0.3 | -1.9 | ||
| 2025-12-25T11:42 | 3575 | 660 | 258 | 17 | ||
| 2025-12-25T11:43 | 3917 | 632 | 256 | 17 | ||
| 2025-12-25T11:44 | 4248 | 606 | 266 | 15 | ||
| 2025-12-25T11:44 | 4275 | 604 | -5.7 | -8.3 | ||
| 2025-12-25T11:45 | 4570 | 581 | 274 | 17 | ||
| 2025-12-25T11:46 | 4883 | 558 | 271 | 19 | ||
| 2025-12-25T11:46 | 4888 | 558 | -9.8 | -11.3 | ||
| 2025-12-25T11:46 | 5076 | 545 | -10.9 | -12.5 | ||
| 2025-12-25T11:46 | 5130 | 541 | 260 | 23 | ||
| 2025-12-25T11:47 | 5242 | 533 | -11.0 | -16.7 | ||
| 2025-12-25T11:47 | 5356 | 525 | -9.2 | -24.4 | ||
| 2025-12-25T11:47 | 5411 | 522 | -8.4 | -25.4 | ||
| 2025-12-25T11:47 | 5428 | 520 | 258 | 40 | ||
| 2025-12-25T11:47 | 5477 | 517 | -7.1 | -26.3 | ||
| 2025-12-25T11:47 | 5538 | 513 | -6.2 | -27.3 | ||
| 2025-12-25T11:48 | 5651 | 506 | 264 | 38 | ||
| 2025-12-25T11:48 | 5889 | 491 | -8.0 | -28.8 | ||
| 2025-12-25T11:49 | 5961 | 486 | 265 | 41 | ||
| 2025-12-25T11:50 | 6294 | 466 | -11.7 | -31.9 | ||
| 2025-12-25T11:50 | 6318 | 464 | 266 | 41 | ||
| 2025-12-25T11:51 | 6635 | 445 | -13.9 | -36.4 | ||
| 2025-12-25T11:51 | 6664 | 444 | 263 | 43 | ||
| 2025-12-25T11:51 | 6792 | 436 | -14.1 | -36.6 | ||
| 2025-12-25T11:52 | 6996 | 425 | -15.5 | -39.4 | ||
| 2025-12-25T11:52 | 7002 | 424 | 269 | 45 | ||
| 2025-12-25T11:52 | 7127 | 417 | -16.0 | -38.1 | ||
| 2025-12-25T11:53 | 7335 | 406 | 267 | 47 | ||
| 2025-12-25T11:53 | 7412 | 402 | -18.2 | -39.2 | ||
| 2025-12-25T11:54 | 7640 | 390 | -19.2 | -45.3 | ||
| 2025-12-25T11:54 | 7673 | 388 | 270 | 49 | ||
| 2025-12-25T11:54 | 7820 | 380 | 271 | 48 | ||
| 2025-12-25T11:54 | 7836 | 379 | -19.9 | -48.4 | ||
| 2025-12-25T11:54 | 7900 | 376 | 272 | 49 | ||
| 2025-12-25T11:55 | 7993 | 371 | 271 | 49 | ||
| 2025-12-25T11:55 | 8081 | 367 | 272 | 49 | ||
| 2025-12-25T11:55 | 8148 | 364 | -22.3 | -44.0 | ||
| 2025-12-25T11:55 | 8249 | 359 | -22.7 | -41.1 | ||
| 2025-12-25T11:55 | 8261 | 358 | 273 | 51 | ||
| 2025-12-25T11:56 | 8428 | 350 | -23.1 | -42.6 | ||
| 2025-12-25T11:56 | 8600 | 342 | 275 | 54 | ||
| 2025-12-25T11:57 | 8645 | 340 | -24.9 | -44.1 | ||
| 2025-12-25T11:57 | 8890 | 329 | -26.7 | -51.2 | ||
| 2025-12-25T11:57 | 8943 | 326 | 272 | 54 | ||
| 2025-12-25T11:58 | 9225 | 314 | -29.2 | -53.1 | ||
| 2025-12-25T11:58 | 9294 | 311 | 272 | 55 | ||
| 2025-12-25T11:59 | 9350 | 308 | -29.7 | -54.7 | ||
| 2025-12-25T11:59 | 9624 | 296 | 267 | 55 | ||
| 2025-12-25T12:00 | 9763 | 291 | -32.8 | -52.6 | ||
| 2025-12-25T12:00 | 9937 | 284 | 268 | 56 | ||
| 2025-12-25T12:00 | 9972 | 282 | -33.9 | -54.2 | ||
| 2025-12-25T12:01 | 10242 | 271 | 269 | 56 | ||
| 2025-12-25T12:02 | 10544 | 260 | 269 | 56 | ||
| 2025-12-25T12:03 | 10597 | 258 | -40.0 | -55.3 | ||
| 2025-12-25T12:03 | 10841 | 249 | 270 | 58 | ||
| 2025-12-25T12:04 | 11104 | 239 | -44.4 | |||
| 2025-12-25T12:04 | 11135 | 238 | 273 | 57 | ||
| 2025-12-25T12:05 | 11375 | 230 | 276 | 58 | ||
| 2025-12-25T12:06 | 11629 | 221 | 279 | 60 | ||
| 2025-12-25T12:07 | 11874 | 213 | -49.1 | |||
| 2025-12-25T12:07 | 11959 | 210 | 275 | 58 | ||
| 2025-12-25T12:07 | 11995 | 209 | -49.5 | |||
| 2025-12-25T12:08 | 12167 | 204 | 269 | 55 | ||
| 2025-12-25T12:09 | 12647 | 189 | 262 | 55 | ||
| 2025-12-25T12:10 | 13057 | 177 | -58.9 | |||
| 2025-12-25T12:10 | 13063 | 177 | 259 | 58 | ||
| 2025-12-25T12:11 | 13412 | 167 | 259 | 58 | ||
| 2025-12-25T12:11 | 13489 | 165 | -62.2 | |||
| 2025-12-25T12:12 | 13737 | 159 | 263 | 59 | ||
| 2025-12-25T12:12 | 14011 | 152 | 259 | 57 | ||
| 2025-12-25T12:13 | 14024 | 152 | -64.6 | |||
| 2025-12-25T12:14 | 14339 | 144 | 259 | 57 | ||
| 2025-12-25T12:14 | 14388 | 143 | -67.3 | |||
| 2025-12-25T12:14 | 14629 | 137 | 257 | 54 | ||
| 2025-12-25T12:15 | 14920 | 131 | 257 | 55 | ||
| 2025-12-25T12:16 | 15058 | 128 | -72.2 | |||
| 2025-12-25T12:17 | 15215 | 124 | 261 | 54 | ||
| 2025-12-25T12:17 | 15505 | 118 | 262 | 49 | ||
| 2025-12-25T12:18 | 15515 | 118 | -73.8 | |||
| 2025-12-25T12:18 | 15721 | 114 | -74.0 | |||
| 2025-12-25T12:19 | 15805 | 112 | 260 | 45 | ||
| 2025-12-25T12:19 | 15827 | 112 | -73.0 | |||
| 2025-12-25T12:20 | 16094 | 107 | 265 | 42 | ||
| 2025-12-25T12:20 | 16156 | 106 | -73.6 | |||
| 2025-12-25T12:21 | 16368 | 102 | 268 | 41 | ||
| 2025-12-25T12:21 | 16556 | 99 | -76.0 | |||
| 2025-12-25T12:22 | 16645 | 97 | 268 | 39 | ||
| 2025-12-25T12:23 | 16933 | 92 | 268 | 37 | ||
| 2025-12-25T12:23 | 17147 | 89 | -77.0 | |||
| 2025-12-25T12:24 | 17226 | 88 | 261 | 32 | ||
| 2025-12-25T12:24 | 17266 | 87 | -76.1 | |||
| 2025-12-25T12:25 | 17514 | 84 | 265 | 29 | ||
| 2025-12-25T12:25 | 17674 | 81 | -77.3 | |||
| 2025-12-25T12:26 | 17802 | 79 | 253 | 25 | ||
| 2025-12-25T12:26 | 17926 | 78 | -76.8 | |||
| 2025-12-25T12:27 | 18094 | 76 | 268 | 26 | ||
| 2025-12-25T12:28 | 18384 | 72 | 267 | 22 | ||
| 2025-12-25T12:28 | 18408 | 72 | -75.4 | |||
| 2025-12-25T12:28 | 18573 | 70 | -73.5 | |||
| 2025-12-25T12:28 | 18589 | 69 | 249 | 18 | ||
| 2025-12-25T12:29 | 18849 | 66 | 236 | 21 | ||
| 2025-12-25T12:29 | 18886 | 66 | -73.4 | |||
| 2025-12-25T12:30 | 19109 | 63 | -72.6 | |||
| 2025-12-25T12:30 | 19164 | 63 | 262 | 18 | ||
| 2025-12-25T12:30 | 19233 | 62 | -70.4 | |||
| 2025-12-25T12:31 | 19348 | 61 | 244 | 11 | ||
| 2025-12-25T12:31 | 19517 | 59 | 250 | 13 | ||
| 2025-12-25T12:32 | 19736 | 57 | -68.3 | |||
| 2025-12-25T12:32 | 19757 | 57 | 225 | 9 | ||
| 2025-12-25T12:32 | 19857 | 56 | -69.2 | 222 | 10 | |
| 2025-12-25T23:41 | 8 | 1021 | 16.7 | 9.9 | 20 | 7 |
| 2025-12-25T23:41 | 12 | 1020 | 16.9 | 10.1 | 6 | 1 |
| 2025-12-25T23:41 | 35 | 1018 | 348 | 3 | ||
| 2025-12-25T23:41 | 58 | 1015 | 23 | 9 | ||
| 2025-12-25T23:42 | 270 | 990 | 14.8 | 8.5 | ||
| 2025-12-25T23:42 | 299 | 986 | 36 | 9 | ||
| 2025-12-25T23:42 | 492 | 964 | 32 | 14 | ||
| 2025-12-25T23:43 | 497 | 963 | 12.6 | 7.3 | ||
| 2025-12-25T23:44 | 794 | 930 | 36 | 13 | ||
| 2025-12-25T23:44 | 1065 | 900 | 7.7 | 5.7 | ||
| 2025-12-25T23:44 | 1075 | 899 | 35 | 12 | ||
| 2025-12-25T23:45 | 1209 | 884 | 6.8 | 5.0 | ||
| 2025-12-25T23:45 | 1364 | 868 | 43 | 8 | ||
| 2025-12-25T23:46 | 1535 | 850 | 31 | 7 | ||
| 2025-12-25T23:46 | 1687 | 834 | 3.2 | 3.1 | ||
| 2025-12-25T23:46 | 1692 | 833 | 45 | 8 | ||
| 2025-12-25T23:47 | 1830 | 819 | 49 | 7 | ||
| 2025-12-25T23:48 | 2073 | 795 | 36 | 9 | ||
| 2025-12-25T23:49 | 2350 | 768 | 0.1 | 0.0 | ||
| 2025-12-25T23:49 | 2369 | 766 | 8 | 9 | ||
| 2025-12-25T23:49 | 2471 | 756 | 3 | 8 | ||
| 2025-12-25T23:49 | 2523 | 751 | 0.1 | -0.2 | ||
| 2025-12-25T23:49 | 2587 | 746 | 309 | 9 | ||
| 2025-12-25T23:50 | 2694 | 736 | 0.4 | 0.0 | 301 | 10 |
| 2025-12-25T23:50 | 2723 | 733 | 1.9 | 1.0 | ||
| 2025-12-25T23:50 | 2816 | 725 | 281 | 13 | ||
| 2025-12-25T23:51 | 3101 | 699 | 273 | 15 | ||
| 2025-12-25T23:52 | 3372 | 676 | 268 | 15 | ||
| 2025-12-25T23:53 | 3698 | 649 | 268 | 15 | ||
| 2025-12-25T23:53 | 3709 | 648 | -3.7 | -3.8 | ||
| 2025-12-25T23:54 | 3976 | 626 | 271 | 15 | ||
| 2025-12-25T23:54 | 4040 | 621 | -5.6 | -6.6 | ||
| 2025-12-25T23:55 | 4213 | 608 | 270 | 12 | ||
| 2025-12-25T23:56 | 4507 | 585 | 266 | 11 | ||
| 2025-12-25T23:56 | 4621 | 577 | -9.7 | -10.5 | ||
| 2025-12-25T23:56 | 4656 | 574 | -9.7 | -11.9 | ||
| 2025-12-25T23:56 | 4666 | 573 | 263 | 14 | ||
| 2025-12-25T23:56 | 4691 | 572 | -9.7 | -14.9 | ||
| 2025-12-25T23:56 | 4751 | 567 | -10.3 | -17.6 | ||
| 2025-12-25T23:57 | 4809 | 563 | -10.6 | -15.7 | ||
| 2025-12-25T23:57 | 4840 | 561 | 282 | 7 | ||
| 2025-12-25T23:57 | 4861 | 559 | -10.9 | -19.3 | ||
| 2025-12-25T23:57 | 4934 | 554 | -11.0 | -19.9 | ||
| 2025-12-25T23:57 | 5084 | 543 | -10.9 | -21.6 | ||
| 2025-12-25T23:57 | 5112 | 541 | 274 | 16 | ||
| 2025-12-25T23:58 | 5194 | 535 | -11.1 | -23.6 | ||
| 2025-12-25T23:58 | 5216 | 534 | -11.3 | -24.1 | ||
| 2025-12-25T23:58 | 5256 | 531 | -11.3 | -22.2 | ||
| 2025-12-25T23:58 | 5296 | 528 | -11.5 | -23.3 | ||
| 2025-12-25T23:58 | 5325 | 526 | -11.4 | -22.6 | ||
| 2025-12-25T23:58 | 5388 | 522 | -11.7 | -26.2 | ||
| 2025-12-25T23:58 | 5422 | 520 | -11.6 | -26.9 | ||
| 2025-12-25T23:58 | 5450 | 518 | 269 | 26 | ||
| 2025-12-25T23:58 | 5456 | 517 | -11.8 | -28.8 | ||
| 2025-12-25T23:59 | 5626 | 506 | -12.1 | -25.1 | ||
| 2025-12-25T23:59 | 5672 | 503 | -12.2 | -26.3 | ||
| 2025-12-25T23:59 | 5777 | 496 | 267 | 32 | ||
| 2025-12-25T23:59 | 5801 | 495 | -12.5 | -28.5 | ||
| 2025-12-26T00:00 | 5897 | 488 | -12.9 | -29.7 | ||
| 2025-12-26T00:00 | 5960 | 484 | -12.8 | -30.6 | ||
| 2025-12-26T00:00 | 6004 | 482 | 269 | 33 | ||
| 2025-12-26T00:00 | 6160 | 472 | -13.0 | -29.8 | ||
| 2025-12-26T00:01 | 6230 | 467 | -13.4 | -33.3 | ||
| 2025-12-26T00:01 | 6337 | 461 | -13.7 | -32.4 | ||
| 2025-12-26T00:01 | 6353 | 460 | 268 | 36 | ||
| 2025-12-26T00:01 | 6386 | 458 | -13.3 | -33.9 | ||
| 2025-12-26T00:01 | 6436 | 455 | -12.7 | -34.7 | ||
| 2025-12-26T00:02 | 6515 | 450 | -12.8 | -29.6 | ||
| 2025-12-26T00:02 | 6572 | 447 | -13.1 | -33.7 | ||
| 2025-12-26T00:02 | 6665 | 441 | -13.6 | -34.8 | ||
| 2025-12-26T00:02 | 6694 | 440 | 264 | 40 | ||
| 2025-12-26T00:03 | 6944 | 425 | -15.8 | -37.3 | ||
| 2025-12-26T00:03 | 7048 | 420 | 269 | 39 | ||
| 2025-12-26T00:04 | 7223 | 410 | -17.3 | -37.8 | ||
| 2025-12-26T00:04 | 7347 | 403 | 267 | 44 | ||
| 2025-12-26T00:04 | 7375 | 402 | -18.0 | -37.2 | ||
| 2025-12-26T00:05 | 7604 | 390 | -19.5 | -39.6 | ||
| 2025-12-26T00:05 | 7686 | 385 | 268 | 44 | ||
| 2025-12-26T00:06 | 7962 | 371 | -21.8 | -41.5 | ||
| 2025-12-26T00:06 | 8034 | 368 | 272 | 47 | ||
| 2025-12-26T00:06 | 8153 | 362 | -23.4 | -42.9 | ||
| 2025-12-26T00:07 | 8219 | 358 | -23.9 | -42.1 | ||
| 2025-12-26T00:07 | 8279 | 355 | -24.2 | -42.4 | ||
| 2025-12-26T00:07 | 8322 | 353 | 270 | 48 | ||
| 2025-12-26T00:08 | 8558 | 342 | -26.1 | -45.7 | ||
| 2025-12-26T00:08 | 8617 | 339 | 269 | 50 | ||
| 2025-12-26T00:08 | 8725 | 334 | -26.6 | -45.5 | ||
| 2025-12-26T00:09 | 8941 | 324 | 267 | 53 | ||
| 2025-12-26T00:09 | 8974 | 323 | -28.2 | -46.9 | ||
| 2025-12-26T00:09 | 9132 | 316 | -29.5 | -46.8 | ||
| 2025-12-26T00:10 | 9263 | 310 | 270 | 54 | ||
| 2025-12-26T00:10 | 9274 | 310 | -30.4 | -44.9 | ||
| 2025-12-26T00:10 | 9325 | 307 | -30.6 | -41.7 | ||
| 2025-12-26T00:11 | 9536 | 298 | -31.9 | -44.4 | ||
| 2025-12-26T00:11 | 9571 | 297 | 268 | 55 | ||
| 2025-12-26T00:12 | 9862 | 285 | 267 | 55 | ||
| 2025-12-26T00:12 | 9867 | 285 | -34.2 | -49.0 | ||
| 2025-12-26T00:12 | 9944 | 281 | -34.3 | -48.6 | ||
| 2025-12-26T00:12 | 9990 | 280 | -34.4 | -48.7 | ||
| 2025-12-26T00:13 | 10176 | 272 | 268 | 57 | ||
| 2025-12-26T00:13 | 10234 | 270 | -36.6 | -47.6 | ||
| 2025-12-26T00:13 | 10350 | 265 | -37.8 | -47.9 | ||
| 2025-12-26T00:14 | 10468 | 261 | 269 | 58 | ||
| 2025-12-26T00:14 | 10493 | 260 | -39.1 | -45.4 | ||
| 2025-12-26T00:15 | 10650 | 254 | -40.0 | -49.1 | ||
| 2025-12-26T00:15 | 10746 | 251 | 267 | 58 | ||
| 2025-12-26T00:16 | 11061 | 239 | 268 | 59 | ||
| 2025-12-26T00:16 | 11108 | 238 | -43.3 | |||
| 2025-12-26T00:17 | 11371 | 228 | 267 | 58 | ||
| 2025-12-26T00:18 | 11559 | 222 | -47.1 | |||
| 2025-12-26T00:18 | 11636 | 220 | 266 | 61 | ||
| 2025-12-26T00:19 | 11907 | 211 | 263 | 63 | ||
| 2025-12-26T00:19 | 12074 | 205 | -49.3 | |||
| 2025-12-26T00:20 | 12166 | 203 | 262 | 62 | ||
| 2025-12-26T00:21 | 12528 | 192 | 259 | 62 | ||
| 2025-12-26T00:22 | 12888 | 181 | 257 | 63 | ||
| 2025-12-26T00:22 | 13058 | 176 | -58.3 | |||
| 2025-12-26T00:23 | 13253 | 171 | 261 | 63 | ||
| 2025-12-26T00:24 | 13529 | 163 | 262 | 63 | ||
| 2025-12-26T00:25 | 13794 | 157 | 263 | 63 | ||
| 2025-12-26T00:25 | 13884 | 154 | -65.4 | |||
| 2025-12-26T00:26 | 14062 | 150 | 265 | 62 | ||
| 2025-12-26T00:27 | 14339 | 143 | 265 | 60 | ||
| 2025-12-26T00:27 | 14517 | 139 | -69.3 | |||
| 2025-12-26T00:28 | 14694 | 135 | 259 | 58 | ||
| 2025-12-26T00:29 | 14965 | 129 | 259 | 59 | ||
| 2025-12-26T00:30 | 15229 | 123 | 261 | 58 | ||
| 2025-12-26T00:30 | 15403 | 119 | -76.1 | |||
| 2025-12-26T00:31 | 15505 | 117 | 264 | 58 | ||
| 2025-12-26T00:31 | 15651 | 114 | -75.1 | |||
| 2025-12-26T00:31 | 15721 | 113 | -73.4 | |||
| 2025-12-26T00:32 | 15786 | 112 | 267 | 51 | ||
| 2025-12-26T00:32 | 15837 | 111 | -72.2 | |||
| 2025-12-26T00:32 | 15895 | 110 | -71.6 | |||
| 2025-12-26T00:32 | 15939 | 109 | 265 | 48 | ||
| 2025-12-26T00:33 | 16199 | 104 | 269 | 46 | ||
| 2025-12-26T00:33 | 16239 | 103 | -74.3 | |||
| 2025-12-26T00:34 | 16446 | 100 | 269 | 44 | ||
| 2025-12-26T00:35 | 16534 | 98 | -74.7 | |||
| 2025-12-26T00:35 | 16672 | 96 | 267 | 41 | ||
| 2025-12-26T00:36 | 16911 | 92 | -75.4 | |||
| 2025-12-26T00:36 | 16925 | 92 | 274 | 36 | ||
| 2025-12-26T00:37 | 17201 | 88 | 266 | 35 | ||
| 2025-12-26T00:38 | 17404 | 85 | -75.3 | |||
| 2025-12-26T00:38 | 17458 | 84 | 275 | 34 | ||
| 2025-12-26T00:39 | 17763 | 79 | 284 | 24 | ||
| 2025-12-26T00:40 | 18037 | 76 | 263 | 19 | ||
| 2025-12-26T00:40 | 18083 | 75 | -75.5 | |||
| 2025-12-26T00:41 | 18207 | 74 | 258 | 24 | ||
| 2025-12-26T00:41 | 18423 | 71 | -77.1 | |||
| 2025-12-26T00:41 | 18471 | 70 | 259 | 26 | ||
| 2025-12-26T00:42 | 18722 | 67 | 253 | 18 | ||
| 2025-12-26T00:43 | 18794 | 66 | -74.8 | |||
| 2025-12-26T00:43 | 18898 | 65 | 260 | 23 | ||
| 2025-12-26T00:44 | 19033 | 64 | -72.6 | |||
| 2025-12-26T00:44 | 19118 | 63 | 267 | 17 | ||
| 2025-12-26T00:44 | 19202 | 62 | -69.6 | |||
| 2025-12-26T00:44 | 19221 | 62 | 256 | 11 | ||
| 2025-12-26T00:45 | 19490 | 59 | 257 | 15 | ||
| 2025-12-26T00:46 | 19583 | 58 | -68.9 | |||
| 2025-12-26T00:46 | 19718 | 57 | 252 | 16 | ||
| 2025-12-26T00:47 | 19997 | 54 | 262 | 14 | ||
| 2025-12-26T00:47 | 20166 | 53 | 276 | 10 | ||
| 2025-12-26T00:48 | 20247 | 52 | -66.6 | |||
| 2025-12-26T00:48 | 20365 | 51 | 294 | 10 | ||
| 2025-12-26T00:48 | 20474 | 50 | 285 | 7 | ||
| 2025-12-26T00:49 | 20611 | 49 | 244 | 7 | ||
| 2025-12-26T00:49 | 20735 | 48 | -64.3 | 262 | 11 | |
| 2025-12-26T00:50 | 20970 | 46 | 242 | 12 | ||
| 2025-12-26T00:50 | 21119 | 45 | -63.5 | |||
| 2025-12-26T00:51 | 21312 | 44 | 253 | 11 | ||
| 2025-12-26T00:52 | 21561 | 42 | -61.0 | |||
| 2025-12-26T00:52 | 21649 | 41 | 294 | 8 | ||
| 2025-12-26T00:53 | 21879 | 40 | 251 | 6 | ||
| 2025-12-26T00:53 | 22069 | 39 | 251 | 7 | ||
| 2025-12-26T00:54 | 22213 | 38 | -62.8 | |||
| 2025-12-26T00:54 | 22245 | 38 | 279 | 7 | ||
| 2025-12-26T00:54 | 22377 | 37 | 288 | 7 | ||
| 2025-12-26T00:55 | 22463 | 36 | 292 | 6 | ||
| 2025-12-26T00:55 | 22564 | 36 | -63.2 | |||
| 2025-12-26T00:55 | 22583 | 36 | 277 | 9 | ||
| 2025-12-26T00:56 | 22845 | 34 | 300 | 7 | ||
| 2025-12-26T00:56 | 22880 | 34 | -61.9 | |||
| 2025-12-26T00:56 | 23066 | 33 | -61.4 | |||
| 2025-12-26T00:57 | 23123 | 33 | 349 | 1 | ||
| 2025-12-26T00:57 | 23295 | 32 | 305 | 3 | ||
| 2025-12-26T00:58 | 23431 | 31 | 311 | 4 | ||
| 2025-12-26T00:58 | 23511 | 31 | -62.0 | |||
| 2025-12-26T00:58 | 23553 | 30 | 295 | 3 | ||
| 2025-12-26T00:59 | 23845 | 29 | 6 | 3 | ||
| 2025-12-26T00:59 | 24063 | 28 | -61.5 | |||
| 2025-12-26T01:00 | 24200 | 27 | 289 | 2 | ||
| 2025-12-26T01:01 | 24544 | 26 | 234 | 3 | ||
| 2025-12-26T01:01 | 24569 | 26 | -61.1 | |||
| 2025-12-26T01:01 | 24692 | 25 | 292 | 3 | ||
| 2025-12-26T01:02 | 24815 | 25 | 276 | 6 | ||
| 2025-12-26T01:02 | 24867 | 25 | -58.7 | |||
| 2025-12-26T01:02 | 25023 | 24 | 310 | 5 | ||
| 2025-12-26T01:03 | 25158 | 24 | -56.8 | 313 | 4 | |
| 2025-12-26T01:04 | 25487 | 22 | 1 | 3 | ||
| 2025-12-26T01:04 | 25545 | 22 | -55.7 | |||
| 2025-12-26T01:04 | 25573 | 22 | 63 | 4 | ||
| 2025-12-26T01:04 | 25664 | 22 | 86 | 3 | ||
| 2025-12-26T01:05 | 25967 | 21 | 250 | 1 | ||
| 2025-12-26T01:05 | 26028 | 21 | 24 | 3 | ||
| 2025-12-26T01:05 | 26059 | 20 | -52.6 | |||
| 2025-12-26T01:06 | 26191 | 20 | 57 | 6 | ||
| 2025-12-26T01:06 | 26349 | 20 | -53.6 | |||
| 2025-12-26T01:06 | 26416 | 19 | 81 | 3 | ||
| 2025-12-26T01:07 | 26517 | 19 | 120 | 3 | ||
| 2025-12-26T01:07 | 26584 | 19 | 101 | 2 | ||
| 2025-12-26T01:08 | 26974 | 18 | 143 | 3 | ||
| 2025-12-26T01:08 | 27082 | 17 | 131 | 6 | ||
| 2025-12-26T01:08 | 27119 | 17 | -54.4 | |||
| 2025-12-26T01:09 | 27271 | 17 | 170 | 5 | ||
| 2025-12-26T01:09 | 27460 | 16 | 271 | 3 | ||
| 2025-12-26T01:09 | 27539 | 16 | 283 | 3 | ||
| 2025-12-26T01:10 | 27618 | 16 | 273 | 3 | ||
| 2025-12-26T01:10 | 27661 | 16 | -52.3 | |||
| 2025-12-26T01:10 | 27703 | 16 | 41 | 3 | ||
| 2025-12-26T01:10 | 27782 | 16 | 24 | 2 | ||
| 2025-12-26T01:11 | 27946 | 15 | -52.1 | 339 | 1 | |
| 2025-12-26T12:33 | 8 | 1020 | 16.8 | 10.9 | 20 | 4 |
| 2025-12-26T12:33 | 12 | 1019 | 16.8 | 11.1 | 0 | 0 |
| 2025-12-26T12:33 | 36 | 1017 | 30 | 4 | ||
| 2025-12-26T12:33 | 137 | 1005 | 41 | 6 | ||
| 2025-12-26T12:33 | 177 | 1000 | 16.1 | 9.8 | ||
| 2025-12-26T12:34 | 346 | 980 | 52 | 12 | ||
| 2025-12-26T12:34 | 358 | 979 | 15.2 | 8.2 | ||
| 2025-12-26T12:35 | 693 | 941 | 58 | 12 | ||
| 2025-12-26T12:36 | 1013 | 905 | 52 | 10 | ||
| 2025-12-26T12:37 | 1205 | 884 | 7.5 | 6.0 | ||
| 2025-12-26T12:37 | 1255 | 879 | 61 | 9 | ||
| 2025-12-26T12:37 | 1428 | 860 | 63 | 9 | ||
| 2025-12-26T12:38 | 1474 | 856 | 5.8 | 5.2 | ||
| 2025-12-26T12:38 | 1620 | 840 | 59 | 7 | ||
| 2025-12-26T12:38 | 1792 | 823 | 37 | 4 | ||
| 2025-12-26T12:39 | 1912 | 811 | 24 | 2 | ||
| 2025-12-26T12:40 | 2114 | 791 | 280 | 3 | ||
| 2025-12-26T12:40 | 2263 | 777 | 1.9 | 1.5 | ||
| 2025-12-26T12:40 | 2307 | 772 | 253 | 6 | ||
| 2025-12-26T12:40 | 2405 | 763 | 242 | 6 | ||
| 2025-12-26T12:41 | 2501 | 754 | 248 | 7 | ||
| 2025-12-26T12:41 | 2581 | 746 | 0.6 | 0.0 | ||
| 2025-12-26T12:41 | 2753 | 731 | 266 | 17 | ||
| 2025-12-26T12:42 | 2811 | 725 | 0.5 | -3.2 | ||
| 2025-12-26T12:42 | 2950 | 713 | 0.5 | -4.7 | ||
| 2025-12-26T12:43 | 3066 | 703 | 264 | 12 | ||
| 2025-12-26T12:43 | 3080 | 701 | 0.5 | -5.1 | ||
| 2025-12-26T12:43 | 3295 | 683 | -0.4 | -6.2 | ||
| 2025-12-26T12:44 | 3372 | 676 | 264 | 12 | ||
| 2025-12-26T12:44 | 3569 | 660 | 263 | 10 | ||
| 2025-12-26T12:45 | 3699 | 649 | 279 | 9 | ||
| 2025-12-26T12:45 | 3862 | 636 | 261 | 7 | ||
| 2025-12-26T12:45 | 3962 | 628 | 289 | 10 | ||
| 2025-12-26T12:46 | 4112 | 616 | -8.2 | -8.9 | ||
| 2025-12-26T12:46 | 4126 | 615 | 273 | 9 | ||
| 2025-12-26T12:47 | 4339 | 598 | -9.9 | -11.0 | ||
| 2025-12-26T12:47 | 4355 | 597 | 273 | 11 | ||
| 2025-12-26T12:47 | 4376 | 595 | -9.4 | -15.1 | ||
| 2025-12-26T12:47 | 4425 | 591 | -5.7 | -19.4 | ||
| 2025-12-26T12:47 | 4447 | 590 | -4.3 | -21.9 | ||
| 2025-12-26T12:47 | 4481 | 587 | -3.9 | -24.8 | ||
| 2025-12-26T12:47 | 4515 | 585 | -3.2 | -28.6 | ||
| 2025-12-26T12:48 | 4619 | 577 | 269 | 22 | ||
| 2025-12-26T12:48 | 4795 | 564 | -3.8 | -40.2 | ||
| 2025-12-26T12:48 | 4854 | 560 | -3.5 | -40.0 | ||
| 2025-12-26T12:49 | 4938 | 554 | 266 | 28 | ||
| 2025-12-26T12:50 | 5231 | 534 | 269 | 28 | ||
| 2025-12-26T12:51 | 5509 | 515 | -7.6 | -45.6 | ||
| 2025-12-26T12:51 | 5523 | 514 | 267 | 29 | ||
| 2025-12-26T12:51 | 5593 | 509 | -7.6 | -49.3 | ||
| 2025-12-26T12:51 | 5769 | 498 | 263 | 31 | ||
| 2025-12-26T12:52 | 6016 | 483 | -9.7 | -50.7 | ||
| 2025-12-26T12:52 | 6083 | 478 | 266 | 34 | ||
| 2025-12-26T12:53 | 6365 | 461 | 268 | 40 | ||
| 2025-12-26T12:53 | 6419 | 458 | -11.6 | -48.5 | ||
| 2025-12-26T12:54 | 6691 | 442 | 262 | 43 | ||
| 2025-12-26T12:55 | 6987 | 425 | 261 | 44 | ||
| 2025-12-26T12:56 | 7084 | 420 | -16.2 | -43.0 | ||
| 2025-12-26T12:56 | 7249 | 410 | 261 | 46 | ||
| 2025-12-26T12:57 | 7333 | 406 | -17.6 | -56.1 | ||
| 2025-12-26T12:57 | 7532 | 395 | 263 | 45 | ||
| 2025-12-26T12:57 | 7603 | 391 | -19.1 | -57.1 | ||
| 2025-12-26T12:58 | 7817 | 380 | 266 | 46 | ||
| 2025-12-26T12:59 | 8054 | 368 | -21.3 | -58.6 | ||
| 2025-12-26T12:59 | 8092 | 366 | 265 | 49 | ||
| 2025-12-26T13:00 | 8229 | 360 | -22.2 | -53.6 | ||
| 2025-12-26T13:00 | 8379 | 352 | 263 | 51 | ||
| 2025-12-26T13:01 | 8541 | 345 | -24.6 | -46.7 | ||
| 2025-12-26T13:01 | 8554 | 344 | 262 | 53 | ||
| 2025-12-26T13:01 | 8636 | 340 | -25.3 | -46.5 | ||
| 2025-12-26T13:02 | 8797 | 333 | 261 | 53 | ||
| 2025-12-26T13:02 | 8856 | 330 | -27.1 | -47.9 | ||
| 2025-12-26T13:02 | 8908 | 328 | -27.2 | -54.0 | ||
| 2025-12-26T13:03 | 9003 | 323 | -27.9 | -50.2 | ||
| 2025-12-26T13:03 | 9035 | 322 | 256 | 53 | ||
| 2025-12-26T13:04 | 9275 | 311 | 255 | 54 | ||
| 2025-12-26T13:04 | 9346 | 308 | -30.9 | -48.5 | ||
| 2025-12-26T13:04 | 9369 | 307 | 256 | 53 | ||
| 2025-12-26T13:05 | 9468 | 303 | 257 | 53 | ||
| 2025-12-26T13:05 | 9554 | 299 | 258 | 55 | ||
| 2025-12-26T13:05 | 9604 | 297 | 259 | 53 | ||
| 2025-12-26T13:05 | 9628 | 296 | -33.0 | -50.9 | ||
| 2025-12-26T13:06 | 9727 | 292 | -33.3 | -53.0 | ||
| 2025-12-26T13:06 | 9842 | 287 | 263 | 56 | ||
| 2025-12-26T13:07 | 10051 | 279 | -34.7 | -56.5 | ||
| 2025-12-26T13:07 | 10079 | 278 | 263 | 55 | ||
| 2025-12-26T13:08 | 10279 | 270 | 262 | 55 | ||
| 2025-12-26T13:08 | 10351 | 267 | 262 | 55 | ||
| 2025-12-26T13:09 | 10608 | 257 | 260 | 56 | ||
| 2025-12-26T13:10 | 10661 | 255 | -40.0 | -56.8 | ||
| 2025-12-26T13:10 | 10878 | 247 | 263 | 58 | ||
| 2025-12-26T13:11 | 11041 | 241 | 264 | 57 | ||
| 2025-12-26T13:11 | 11115 | 239 | 266 | 57 | ||
| 2025-12-26T13:11 | 11160 | 237 | -42.9 | |||
| 2025-12-26T13:11 | 11174 | 237 | 265 | 60 | ||
| 2025-12-26T13:12 | 11259 | 234 | 265 | 57 | ||
| 2025-12-26T13:12 | 11333 | 231 | 267 | 61 | ||
| 2025-12-26T13:12 | 11407 | 229 | 267 | 56 | ||
| 2025-12-26T13:13 | 11503 | 225 | 267 | 60 | ||
| 2025-12-26T13:13 | 11579 | 223 | -45.7 | |||
| 2025-12-26T13:14 | 11776 | 216 | 264 | 61 | ||
| 2025-12-26T13:15 | 12046 | 208 | 264 | 62 | ||
| 2025-12-26T13:16 | 12311 | 199 | 263 | 62 | ||
| 2025-12-26T13:17 | 12584 | 191 | 263 | 62 | ||
| 2025-12-26T13:18 | 12858 | 183 | 262 | 65 | ||
| 2025-12-26T13:18 | 12936 | 181 | -57.0 | |||
| 2025-12-26T13:19 | 13130 | 175 | 262 | 64 | ||
| 2025-12-26T13:20 | 13394 | 168 | 261 | 63 | ||
| 2025-12-26T13:21 | 13647 | 161 | 262 | 64 | ||
| 2025-12-26T13:21 | 13685 | 160 | -63.2 | |||
| 2025-12-26T13:22 | 13896 | 155 | 263 | 64 | ||
| 2025-12-26T13:22 | 14078 | 150 | 264 | 63 | ||
| 2025-12-26T13:23 | 14176 | 148 | -67.1 | |||
| 2025-12-26T13:23 | 14205 | 147 | 265 | 61 | ||
| 2025-12-26T13:23 | 14366 | 143 | -66.8 | |||
| 2025-12-26T13:24 | 14468 | 141 | 267 | 55 | ||
| 2025-12-26T13:24 | 14631 | 137 | -68.3 | |||
| 2025-12-26T13:25 | 14702 | 136 | -67.4 | |||
| 2025-12-26T13:25 | 14734 | 135 | 258 | 52 | ||
| 2025-12-26T13:26 | 15015 | 129 | 262 | 50 | ||
| 2025-12-26T13:27 | 15272 | 123 | -71.2 | |||
| 2025-12-26T13:27 | 15317 | 122 | 267 | 50 | ||
| 2025-12-26T13:28 | 15544 | 118 | -71.8 | |||
| 2025-12-26T13:28 | 15602 | 116 | 275 | 47 | ||
| 2025-12-26T13:29 | 15876 | 111 | 281 | 47 | ||
| 2025-12-26T13:30 | 16066 | 108 | -74.5 | |||
| 2025-12-26T13:30 | 16144 | 106 | 280 | 42 | ||
| 2025-12-26T13:31 | 16338 | 103 | -75.6 | |||
| 2025-12-26T13:31 | 16416 | 101 | 275 | 41 | ||
| 2025-12-26T13:32 | 16688 | 97 | 274 | 42 | ||
| 2025-12-26T13:32 | 16783 | 95 | -78.1 | |||
| 2025-12-26T13:33 | 16955 | 92 | 277 | 40 | ||
| 2025-12-26T13:34 | 17211 | 88 | 282 | 37 | ||
| 2025-12-26T13:34 | 17322 | 86 | 279 | 34 | ||
| 2025-12-26T13:34 | 17374 | 86 | -80.3 | |||
| 2025-12-26T13:35 | 17480 | 84 | 280 | 36 | ||
| 2025-12-26T13:35 | 17674 | 81 | -77.3 | |||
| 2025-12-26T13:36 | 17766 | 80 | 276 | 27 | ||
| 2025-12-26T13:36 | 17893 | 78 | -75.2 | |||
| 2025-12-26T13:37 | 17980 | 77 | 261 | 23 | ||
| 2025-12-26T13:38 | 18269 | 73 | 260 | 25 | ||
| 2025-12-26T13:38 | 18283 | 73 | -75.3 | |||
| 2025-12-26T13:39 | 18551 | 70 | 275 | 24 | ||
| 2025-12-26T13:39 | 18733 | 68 | -75.6 | |||
| 2025-12-26T13:39 | 18760 | 67 | 283 | 20 | ||
| 2025-12-26T13:40 | 18838 | 66 | -74.1 | |||
| 2025-12-26T13:40 | 18937 | 65 | 275 | 16 | ||
| 2025-12-26T13:40 | 19025 | 64 | -74.4 | |||
| 2025-12-26T13:41 | 19102 | 63 | -70.8 | |||
| 2025-12-26T13:41 | 19212 | 62 | 245 | 17 | ||
| 2025-12-26T13:41 | 19308 | 61 | -71.5 | |||
| 2025-12-26T13:42 | 19426 | 60 | -67.4 | 262 | 17 | |
| 2025-12-26T13:42 | 19547 | 59 | -66.3 | |||
| 2025-12-26T13:43 | 19631 | 58 | -65.5 | |||
| 2025-12-26T13:43 | 19663 | 58 | 284 | 10 | ||
| 2025-12-26T13:44 | 19943 | 55 | 283 | 6 | ||
| 2025-12-26T13:44 | 20003 | 55 | -67.2 | 250 | 6 | |
| 2025-12-26T23:31 | 8 | 1019 | 19.1 | 11.9 | 70 | 5 |
| 2025-12-26T23:31 | 13 | 1018 | 19.3 | 12.1 | 77 | 1 |
| 2025-12-26T23:31 | 37 | 1015 | 96 | 5 | ||
| 2025-12-26T23:31 | 103 | 1007 | 76 | 8 | ||
| 2025-12-26T23:32 | 334 | 980 | 16.4 | 10.0 | ||
| 2025-12-26T23:32 | 398 | 973 | 76 | 12 | ||
| 2025-12-26T23:33 | 611 | 949 | 73 | 11 | ||
| 2025-12-26T23:34 | 819 | 926 | 72 | 9 | ||
| 2025-12-26T23:34 | 963 | 910 | 10.8 | 7.9 | ||
| 2025-12-26T23:35 | 1051 | 900 | 79 | 8 | ||
| 2025-12-26T23:35 | 1263 | 878 | 8.9 | 5.5 | ||
| 2025-12-26T23:35 | 1294 | 874 | 97 | 4 | ||
| 2025-12-26T23:36 | 1378 | 866 | 116 | 3 | ||
| 2025-12-26T23:36 | 1403 | 863 | 8.4 | 5.0 | ||
| 2025-12-26T23:36 | 1598 | 843 | 226 | 4 | ||
| 2025-12-26T23:37 | 1767 | 826 | 5.8 | 3.6 | ||
| 2025-12-26T23:37 | 1773 | 825 | 230 | 3 | ||
| 2025-12-26T23:37 | 1849 | 817 | 284 | 4 | ||
| 2025-12-26T23:37 | 1888 | 814 | 5.7 | 2.3 | ||
| 2025-12-26T23:38 | 2046 | 798 | 280 | 5 | ||
| 2025-12-26T23:38 | 2115 | 791 | 3.8 | 1.5 | ||
| 2025-12-26T23:38 | 2121 | 791 | 289 | 4 | ||
| 2025-12-26T23:38 | 2207 | 782 | 239 | 4 | ||
| 2025-12-26T23:39 | 2319 | 772 | 277 | 7 | ||
| 2025-12-26T23:39 | 2360 | 768 | 3.7 | 0.2 | ||
| 2025-12-26T23:39 | 2571 | 748 | 272 | 11 | ||
| 2025-12-26T23:39 | 2604 | 745 | 1.9 | -0.4 | ||
| 2025-12-26T23:40 | 2875 | 721 | 273 | 15 | ||
| 2025-12-26T23:41 | 2927 | 716 | -0.4 | -1.7 | ||
| 2025-12-26T23:41 | 3037 | 706 | 0.3 | -2.7 | ||
| 2025-12-26T23:41 | 3048 | 705 | 261 | 19 | ||
| 2025-12-26T23:41 | 3169 | 695 | 0.1 | -4.0 | ||
| 2025-12-26T23:42 | 3378 | 677 | 263 | 22 | ||
| 2025-12-26T23:42 | 3501 | 666 | -2.1 | -5.8 | ||
| 2025-12-26T23:43 | 3656 | 654 | -2.3 | -7.2 | ||
| 2025-12-26T23:43 | 3683 | 651 | 256 | 22 | ||
| 2025-12-26T23:43 | 3805 | 641 | 262 | 24 | ||
| 2025-12-26T23:44 | 4016 | 624 | 258 | 23 | ||
| 2025-12-26T23:44 | 4109 | 617 | -5.5 | -10.3 | ||
| 2025-12-26T23:44 | 4176 | 612 | -4.1 | -15.4 | ||
| 2025-12-26T23:44 | 4203 | 610 | -2.4 | -19.3 | ||
| 2025-12-26T23:45 | 4294 | 603 | -0.9 | -29.9 | ||
| 2025-12-26T23:45 | 4350 | 599 | 257 | 23 | ||
| 2025-12-26T23:46 | 4562 | 583 | -2.2 | -41.8 | ||
| 2025-12-26T23:46 | 4607 | 579 | 262 | 22 | ||
| 2025-12-26T23:46 | 4858 | 561 | -4.7 | -38.7 | ||
| 2025-12-26T23:47 | 4959 | 554 | 265 | 23 | ||
| 2025-12-26T23:47 | 5239 | 535 | -7.6 | -43.0 | ||
| 2025-12-26T23:48 | 5324 | 529 | 262 | 26 | ||
| 2025-12-26T23:49 | 5665 | 506 | -11.1 | -43.5 | ||
| 2025-12-26T23:49 | 5682 | 505 | 264 | 27 | ||
| 2025-12-26T23:49 | 5780 | 499 | -11.2 | -48.2 | ||
| 2025-12-26T23:50 | 6045 | 482 | 264 | 30 | ||
| 2025-12-26T23:50 | 6083 | 479 | -13.3 | -42.0 | ||
| 2025-12-26T23:50 | 6170 | 474 | -13.0 | -43.2 | ||
| 2025-12-26T23:51 | 6423 | 458 | 263 | 33 | ||
| 2025-12-26T23:52 | 6787 | 436 | 258 | 35 | ||
| 2025-12-26T23:52 | 6938 | 428 | -19.7 | -44.6 | ||
| 2025-12-26T23:53 | 7150 | 415 | 256 | 37 | ||
| 2025-12-26T23:53 | 7278 | 408 | -22.0 | -47.5 | ||
| 2025-12-26T23:53 | 7408 | 401 | -21.8 | -53.3 | ||
| 2025-12-26T23:54 | 7498 | 396 | 253 | 45 | ||
| 2025-12-26T23:54 | 7537 | 394 | -21.2 | -55.3 | ||
| 2025-12-26T23:55 | 7821 | 379 | -22.7 | -52.1 | ||
| 2025-12-26T23:55 | 7826 | 379 | 255 | 50 | ||
| 2025-12-26T23:55 | 8099 | 365 | -23.8 | -54.8 | ||
| 2025-12-26T23:56 | 8140 | 363 | 257 | 52 | ||
| 2025-12-26T23:56 | 8303 | 355 | -25.3 | -55.9 | ||
| 2025-12-26T23:56 | 8374 | 351 | -24.9 | -55.6 | ||
| 2025-12-26T23:57 | 8448 | 348 | 260 | 55 | ||
| 2025-12-26T23:57 | 8651 | 338 | -26.6 | -56.9 | ||
| 2025-12-26T23:57 | 8684 | 337 | 256 | 58 | ||
| 2025-12-26T23:58 | 8986 | 323 | -29.6 | -53.5 | ||
| 2025-12-26T23:58 | 9020 | 321 | 253 | 58 | ||
| 2025-12-26T23:59 | 9150 | 315 | -30.3 | -56.4 | ||
| 2025-12-26T23:59 | 9356 | 306 | 257 | 60 | ||
| 2025-12-26T23:59 | 9373 | 306 | -32.0 | -57.7 | ||
| 2025-12-27T00:00 | 9675 | 293 | 260 | 62 | ||
| 2025-12-27T00:00 | 9696 | 292 | -33.3 | -61.9 | ||
| 2025-12-27T00:01 | 9880 | 284 | -33.3 | -67.0 | ||
| 2025-12-27T00:01 | 9974 | 281 | 255 | 61 | ||
| 2025-12-27T00:02 | 10238 | 270 | 257 | 62 | ||
| 2025-12-27T00:03 | 10285 | 268 | -35.5 | -61.8 | ||
| 2025-12-27T00:03 | 10497 | 260 | 261 | 63 | ||
| 2025-12-27T00:04 | 10738 | 251 | 263 | 64 | ||
| 2025-12-27T00:05 | 10865 | 247 | -40.0 | -61.7 | ||
| 2025-12-27T00:05 | 10971 | 243 | 263 | 64 | ||
| 2025-12-27T00:06 | 11218 | 234 | 262 | 63 | ||
| 2025-12-27T00:07 | 11475 | 225 | 260 | 62 | ||
| 2025-12-27T00:08 | 11754 | 216 | 259 | 63 | ||
| 2025-12-27T00:09 | 11929 | 210 | 257 | 63 | ||
| 2025-12-27T00:09 | 11967 | 209 | -49.0 | |||
| 2025-12-27T00:10 | 12224 | 201 | -50.3 | |||
| 2025-12-27T00:10 | 12234 | 201 | 258 | 68 | ||
| 2025-12-27T00:11 | 12505 | 193 | 258 | 67 | ||
| 2025-12-27T00:12 | 12775 | 185 | 259 | 65 | ||
| 2025-12-27T00:13 | 13050 | 177 | 258 | 65 | ||
| 2025-12-27T00:13 | 13146 | 174 | -58.3 | |||
| 2025-12-27T00:14 | 13320 | 169 | 255 | 65 | ||
| 2025-12-27T00:15 | 13506 | 164 | -60.7 | |||
| 2025-12-27T00:15 | 13603 | 162 | 258 | 65 | ||
| 2025-12-27T00:16 | 13842 | 156 | 259 | 64 | ||
| 2025-12-27T00:16 | 13850 | 156 | -63.5 | |||
| 2025-12-27T00:16 | 13971 | 153 | -62.1 | |||
| 2025-12-27T00:17 | 14001 | 152 | 260 | 57 | ||
| 2025-12-27T00:17 | 14272 | 145 | 258 | 56 | ||
| 2025-12-27T00:18 | 14422 | 142 | -65.2 | |||
| 2025-12-27T00:19 | 14617 | 137 | 263 | 53 | ||
| 2025-12-27T00:19 | 14881 | 131 | -66.8 | |||
| 2025-12-27T00:20 | 14972 | 129 | 273 | 51 | ||
| 2025-12-27T00:21 | 15271 | 123 | 280 | 50 | ||
| 2025-12-27T00:21 | 15388 | 121 | -70.2 | |||
| 2025-12-27T00:22 | 15597 | 117 | 281 | 46 | ||
| 2025-12-27T00:22 | 15783 | 113 | -72.4 | |||
| 2025-12-27T00:23 | 15922 | 110 | 279 | 43 | ||
| 2025-12-27T00:23 | 16137 | 106 | -74.7 | |||
| 2025-12-27T00:24 | 16237 | 104 | 274 | 41 | ||
| 2025-12-27T00:25 | 16541 | 99 | 268 | 40 | ||
| 2025-12-27T00:25 | 16625 | 98 | -77.0 | |||
| 2025-12-27T00:25 | 16800 | 95 | 276 | 38 | ||
| 2025-12-27T00:26 | 17100 | 90 | 289 | 28 | ||
| 2025-12-27T00:26 | 17119 | 90 | -77.0 | |||
| 2025-12-27T00:27 | 17367 | 86 | 281 | 28 | ||
| 2025-12-27T00:28 | 17608 | 82 | -77.2 | |||
| 2025-12-27T00:28 | 17658 | 82 | 289 | 27 | ||
| 2025-12-27T00:29 | 17792 | 80 | 286 | 24 | ||
| 2025-12-27T00:29 | 17926 | 78 | 293 | 23 | ||
| 2025-12-27T00:29 | 17940 | 78 | -74.8 | |||
| 2025-12-27T00:30 | 18199 | 74 | 275 | 14 | ||
| 2025-12-27T00:30 | 18224 | 74 | -73.4 | |||
| 2025-12-27T00:31 | 18312 | 73 | 248 | 12 | ||
| 2025-12-27T00:31 | 18574 | 70 | 226 | 13 | ||
| 2025-12-27T00:32 | 18868 | 66 | 265 | 14 | ||
| 2025-12-27T00:33 | 18904 | 66 | -76.4 | |||
| 2025-12-27T00:33 | 19047 | 64 | 271 | 14 | ||
| 2025-12-27T00:33 | 19156 | 63 | -76.4 | |||
| 2025-12-27T00:34 | 19350 | 61 | 278 | 17 | ||
| 2025-12-27T00:34 | 19361 | 61 | -74.1 | |||
| 2025-12-27T00:35 | 19547 | 59 | -73.6 | |||
| 2025-12-27T00:35 | 19614 | 58 | -72.3 | |||
| 2025-12-27T00:35 | 19659 | 58 | 278 | 16 | ||
| 2025-12-27T00:35 | 19733 | 57 | -65.5 | |||
| 2025-12-27T00:35 | 19795 | 57 | 283 | 9 | ||
| 2025-12-27T00:36 | 20002 | 55 | 264 | 7 | ||
| 2025-12-27T00:37 | 20160 | 53 | -66.9 | |||
| 2025-12-27T00:37 | 20286 | 52 | 259 | 9 | ||
| 2025-12-27T00:37 | 20404 | 51 | -66.5 | |||
| 2025-12-27T00:38 | 20511 | 50 | -65.2 | |||
| 2025-12-27T00:38 | 20534 | 50 | 286 | 11 | ||
| 2025-12-27T00:38 | 20683 | 49 | 307 | 9 | ||
| 2025-12-27T00:39 | 20796 | 48 | 304 | 6 | ||
| 2025-12-27T00:39 | 20912 | 47 | 267 | 6 | ||
| 2025-12-27T00:40 | 21192 | 45 | 302 | 7 | ||
| 2025-12-27T00:40 | 21232 | 45 | -65.1 | |||
| 2025-12-27T00:40 | 21328 | 44 | -64.6 | |||
| 2025-12-27T00:41 | 21400 | 43 | -60.8 | |||
| 2025-12-27T00:41 | 21440 | 43 | 261 | 9 | ||
| 2025-12-27T00:42 | 21780 | 41 | 277 | 11 | ||
| 2025-12-27T00:43 | 22059 | 39 | 275 | 6 | ||
| 2025-12-27T00:43 | 22075 | 39 | -63.1 | |||
| 2025-12-27T00:43 | 22247 | 38 | 291 | 5 | ||
| 2025-12-27T00:44 | 22583 | 36 | 255 | 4 | ||
| 2025-12-27T00:45 | 22741 | 35 | 209 | 6 | ||
| 2025-12-27T00:45 | 22898 | 34 | 239 | 8 | ||
| 2025-12-27T00:45 | 22953 | 34 | -63.3 | |||
| 2025-12-27T00:46 | 23122 | 33 | 249 | 6 | ||
| 2025-12-27T00:46 | 23139 | 33 | -60.1 | |||
| 2025-12-27T00:47 | 23375 | 32 | 207 | 3 | ||
| 2025-12-27T00:47 | 23475 | 31 | -60.0 | |||
| 2025-12-27T00:47 | 23556 | 31 | 220 | 5 | ||
| 2025-12-27T00:47 | 23699 | 30 | 226 | 6 | ||
| 2025-12-27T00:48 | 23849 | 29 | 211 | 3 | ||
| 2025-12-27T00:48 | 23980 | 29 | 127 | 3 | ||
| 2025-12-27T00:48 | 24047 | 28 | -58.8 | |||
| 2025-12-27T00:49 | 24317 | 27 | 157 | 5 | ||
| 2025-12-27T00:49 | 24387 | 27 | -59.0 | |||
| 2025-12-27T00:50 | 24601 | 26 | 181 | 3 | ||
| 2025-12-27T00:50 | 24675 | 26 | -57.9 | 184 | 4 | |
| 2025-12-27T11:31 | 8 | 1019 | 18.1 | 15.9 | 60 | 5 |
| 2025-12-27T11:31 | 13 | 1018 | 18.3 | 16.5 | 58 | 1 |
| 2025-12-27T11:31 | 44 | 1014 | 67 | 5 | ||
| 2025-12-27T11:32 | 240 | 991 | 72 | 8 | ||
| 2025-12-27T11:32 | 452 | 967 | 16.0 | 12.9 | ||
| 2025-12-27T11:33 | 493 | 963 | 82 | 7 | ||
| 2025-12-27T11:34 | 790 | 930 | 93 | 6 | ||
| 2025-12-27T11:34 | 913 | 916 | 99 | 6 | ||
| 2025-12-27T11:34 | 923 | 915 | 12.4 | 10.8 | ||
| 2025-12-27T11:34 | 1008 | 906 | 90 | 4 | ||
| 2025-12-27T11:35 | 1096 | 897 | 98 | 4 | ||
| 2025-12-27T11:35 | 1207 | 885 | 127 | 3 | ||
| 2025-12-27T11:35 | 1327 | 872 | 112 | 5 | ||
| 2025-12-27T11:36 | 1484 | 856 | 135 | 5 | ||
| 2025-12-27T11:36 | 1614 | 842 | 111 | 4 | ||
| 2025-12-27T11:36 | 1625 | 841 | 8.2 | 7.9 | ||
| 2025-12-27T11:37 | 1762 | 827 | 118 | 5 | ||
| 2025-12-27T11:37 | 1921 | 811 | 89 | 4 | ||
| 2025-12-27T11:38 | 2081 | 796 | 111 | 4 | ||
| 2025-12-27T11:38 | 2142 | 790 | 108 | 1 | ||
| 2025-12-27T11:39 | 2462 | 759 | 285 | 3 | ||
| 2025-12-27T11:39 | 2615 | 745 | 251 | 5 | ||
| 2025-12-27T11:39 | 2641 | 743 | 3.1 | 2.4 | ||
| 2025-12-27T11:40 | 2933 | 716 | 233 | 7 | ||
| 2025-12-27T11:41 | 3068 | 704 | 270 | 11 | ||
| 2025-12-27T11:41 | 3230 | 690 | 264 | 13 | ||
| 2025-12-27T11:42 | 3398 | 676 | -0.8 | -1.8 | ||
| 2025-12-27T11:42 | 3565 | 662 | 246 | 16 | ||
| 2025-12-27T11:42 | 3688 | 652 | -2.1 | -3.2 | ||
| 2025-12-27T11:43 | 3756 | 646 | 250 | 19 | ||
| 2025-12-27T11:43 | 3888 | 636 | 249 | 19 | ||
| 2025-12-27T11:43 | 3940 | 632 | -4.0 | -5.5 | ||
| 2025-12-27T11:44 | 4033 | 624 | -4.3 | -7.9 | ||
| 2025-12-27T11:44 | 4070 | 621 | 255 | 22 | ||
| 2025-12-27T11:44 | 4194 | 612 | -3.7 | -18.4 | ||
| 2025-12-27T11:44 | 4251 | 607 | -2.5 | -19.9 | ||
| 2025-12-27T11:44 | 4282 | 605 | -0.9 | -21.1 | ||
| 2025-12-27T11:44 | 4292 | 604 | 279 | 19 | ||
| 2025-12-27T11:45 | 4616 | 580 | 293 | 19 | ||
| 2025-12-27T11:46 | 4898 | 559 | -6.4 | -28.8 | ||
| 2025-12-27T11:46 | 4956 | 555 | 293 | 20 | ||
| 2025-12-27T11:47 | 5271 | 533 | 286 | 22 | ||
| 2025-12-27T11:48 | 5385 | 525 | -10.0 | -32.5 | ||
| 2025-12-27T11:48 | 5565 | 513 | 275 | 25 | ||
| 2025-12-27T11:49 | 5854 | 494 | 270 | 29 | ||
| 2025-12-27T11:50 | 5893 | 492 | -12.3 | -41.2 | ||
| 2025-12-27T11:50 | 6092 | 479 | -13.6 | -49.9 | ||
| 2025-12-27T11:50 | 6148 | 476 | 285 | 34 | ||
| 2025-12-27T11:50 | 6153 | 475 | -12.6 | -58.3 | ||
| 2025-12-27T11:51 | 6428 | 458 | 290 | 36 | ||
| 2025-12-27T11:52 | 6534 | 452 | -15.2 | -51.0 | ||
| 2025-12-27T11:52 | 6723 | 441 | 293 | 38 | ||
| 2025-12-27T11:53 | 6768 | 438 | -16.5 | -51.9 | ||
| 2025-12-27T11:53 | 7019 | 424 | 286 | 40 | ||
| 2025-12-27T11:54 | 7318 | 407 | 281 | 45 | ||
| 2025-12-27T11:55 | 7483 | 398 | -21.7 | -38.7 | ||
| 2025-12-27T11:55 | 7626 | 390 | 282 | 46 | ||
| 2025-12-27T11:56 | 7905 | 376 | 282 | 47 | ||
| 2025-12-27T11:57 | 8127 | 364 | -27.4 | -47.5 | ||
| 2025-12-27T11:57 | 8173 | 362 | 284 | 49 | ||
| 2025-12-27T11:57 | 8178 | 362 | -26.9 | -48.6 | ||
| 2025-12-27T11:58 | 8306 | 355 | -25.9 | -54.5 | ||
| 2025-12-27T11:58 | 8383 | 352 | -24.9 | -58.0 | ||
| 2025-12-27T11:58 | 8471 | 347 | 273 | 52 | ||
| 2025-12-27T11:59 | 8499 | 346 | -25.6 | -58.5 | ||
| 2025-12-27T11:59 | 8780 | 333 | 270 | 53 | ||
| 2025-12-27T12:00 | 8924 | 326 | -28.9 | -58.6 | ||
| 2025-12-27T12:00 | 9042 | 321 | 265 | 55 | ||
| 2025-12-27T12:01 | 9128 | 317 | -29.2 | -64.1 | ||
| 2025-12-27T12:01 | 9299 | 310 | 264 | 58 | ||
| 2025-12-27T12:02 | 9333 | 308 | -29.6 | -64.4 | ||
| 2025-12-27T12:02 | 9435 | 304 | -29.5 | -64.4 | ||
| 2025-12-27T12:02 | 9555 | 299 | 260 | 60 | ||
| 2025-12-27T12:03 | 9819 | 288 | 260 | 61 | ||
| 2025-12-27T12:04 | 10093 | 277 | 263 | 61 | ||
| 2025-12-27T12:05 | 10231 | 271 | -34.8 | -68.1 | ||
| 2025-12-27T12:05 | 10376 | 266 | 263 | 60 | ||
| 2025-12-27T12:06 | 10612 | 257 | -36.4 | -69.2 | ||
| 2025-12-27T12:06 | 10653 | 255 | 264 | 62 | ||
| 2025-12-27T12:07 | 10935 | 245 | 260 | 63 | ||
| 2025-12-27T12:08 | 11009 | 242 | -38.8 | -70.9 | ||
| 2025-12-27T12:08 | 11146 | 238 | -40.0 | -68.9 | ||
| 2025-12-27T12:08 | 11208 | 235 | 258 | 64 | ||
| 2025-12-27T12:09 | 11478 | 226 | 258 | 64 | ||
| 2025-12-27T12:10 | 11750 | 217 | 259 | 64 | ||
| 2025-12-27T12:11 | 12028 | 208 | 262 | 65 | ||
| 2025-12-27T12:12 | 12304 | 200 | 261 | 66 | ||
| 2025-12-27T12:13 | 12515 | 193 | -51.9 | |||
| 2025-12-27T12:13 | 12579 | 191 | 263 | 65 | ||
| 2025-12-27T12:14 | 12851 | 183 | 263 | 66 | ||
| 2025-12-27T12:15 | 13125 | 176 | 265 | 64 | ||
| 2025-12-27T12:16 | 13409 | 168 | 265 | 63 | ||
| 2025-12-27T12:17 | 13703 | 160 | 266 | 62 | ||
| 2025-12-27T12:18 | 13884 | 155 | -63.4 | |||
| 2025-12-27T12:18 | 13985 | 153 | 264 | 57 | ||
| 2025-12-27T12:19 | 14062 | 151 | -64.0 | |||
| 2025-12-27T12:19 | 14244 | 147 | 262 | 57 | ||
| 2025-12-27T12:20 | 14507 | 140 | 264 | 56 | ||
| 2025-12-27T12:21 | 14593 | 138 | -66.2 | |||
| 2025-12-27T12:21 | 14774 | 134 | 266 | 54 | ||
| 2025-12-27T12:22 | 14942 | 131 | -68.1 | |||
| 2025-12-27T12:22 | 15053 | 128 | 265 | 54 | ||
| 2025-12-27T12:23 | 15393 | 121 | 272 | 53 | ||
| 2025-12-27T12:24 | 15619 | 116 | -73.3 | |||
| 2025-12-27T12:24 | 15690 | 115 | 273 | 53 | ||
| 2025-12-27T12:25 | 15957 | 110 | -75.9 | |||
| 2025-12-27T12:25 | 15974 | 110 | 276 | 50 | ||
| 2025-12-27T12:26 | 16255 | 104 | 271 | 46 | ||
| 2025-12-27T12:27 | 16298 | 104 | -75.9 | |||
| 2025-12-27T12:27 | 16557 | 99 | 278 | 41 | ||
| 2025-12-27T12:28 | 16611 | 98 | -74.2 | |||
| 2025-12-27T12:29 | 16876 | 94 | 281 | 29 | ||
| 2025-12-27T12:30 | 17168 | 89 | 265 | 26 | ||
| 2025-12-27T12:30 | 17399 | 86 | -77.1 | |||
| 2025-12-27T12:30 | 17445 | 85 | 265 | 28 | ||
| 2025-12-27T12:31 | 17567 | 83 | 264 | 24 | ||
| 2025-12-27T12:32 | 17780 | 80 | -77.5 | |||
| 2025-12-27T12:32 | 17902 | 78 | 240 | 22 | ||
| 2025-12-27T12:33 | 18219 | 74 | 236 | 24 | ||
| 2025-12-27T12:33 | 18242 | 74 | -80.6 | |||
| 2025-12-27T12:33 | 18377 | 72 | 246 | 23 | ||
| 2025-12-27T12:34 | 18520 | 70 | -77.1 | |||
| 2025-12-27T12:34 | 18529 | 70 | 228 | 17 | ||
| 2025-12-27T12:35 | 18786 | 67 | -78.0 | |||
| 2025-12-27T12:35 | 18814 | 67 | 248 | 15 | ||
| 2025-12-27T12:36 | 19096 | 64 | 277 | 16 | ||
| 2025-12-27T12:36 | 19166 | 63 | -76.9 | |||
| 2025-12-27T12:37 | 19371 | 61 | 294 | 17 | ||
| 2025-12-27T12:37 | 19414 | 60 | -75.3 | |||
| 2025-12-27T12:37 | 19481 | 60 | -71.4 | |||
| 2025-12-27T12:38 | 19539 | 59 | -66.6 | |||
| 2025-12-27T12:38 | 19562 | 59 | 320 | 13 | ||
| 2025-12-27T12:38 | 19686 | 58 | -63.3 | 324 | 12 | |
| 2025-12-27T23:31 | 8 | 1018 | 18.4 | 16.9 | 60 | 5 |
| 2025-12-27T23:31 | 11 | 1018 | 18.6 | 17.3 | 57 | 1 |
| 2025-12-27T23:31 | 25 | 1016 | 34 | 3 | ||
| 2025-12-27T23:31 | 61 | 1012 | 56 | 8 | ||
| 2025-12-27T23:31 | 120 | 1005 | 17.9 | 16.2 | ||
| 2025-12-27T23:32 | 187 | 997 | 68 | 12 | ||
| 2025-12-27T23:32 | 343 | 979 | 16.8 | 15.7 | ||
| 2025-12-27T23:32 | 369 | 976 | 74 | 11 | ||
| 2025-12-27T23:33 | 685 | 940 | 102 | 11 | ||
| 2025-12-27T23:34 | 901 | 917 | 13.3 | 11.2 | ||
| 2025-12-27T23:34 | 1002 | 906 | 108 | 10 | ||
| 2025-12-27T23:35 | 1168 | 888 | 11.0 | 10.1 | ||
| 2025-12-27T23:35 | 1244 | 880 | 115 | 9 | ||
| 2025-12-27T23:36 | 1492 | 854 | 98 | 8 | ||
| 2025-12-27T23:36 | 1729 | 830 | 8.5 | 8.4 | ||
| 2025-12-27T23:36 | 1735 | 829 | 96 | 5 | ||
| 2025-12-27T23:37 | 1844 | 819 | 122 | 2 | ||
| 2025-12-27T23:38 | 2136 | 790 | 247 | 3 | ||
| 2025-12-27T23:38 | 2265 | 778 | 235 | 4 | ||
| 2025-12-27T23:38 | 2365 | 768 | 5.6 | 5.3 | ||
| 2025-12-27T23:39 | 2402 | 765 | 238 | 5 | ||
| 2025-12-27T23:39 | 2520 | 754 | 252 | 8 | ||
| 2025-12-27T23:40 | 2737 | 734 | 242 | 7 | ||
| 2025-12-27T23:40 | 2933 | 717 | 2.3 | 1.9 | ||
| 2025-12-27T23:41 | 3077 | 704 | 240 | 10 | ||
| 2025-12-27T23:41 | 3373 | 679 | 243 | 14 | ||
| 2025-12-27T23:42 | 3692 | 652 | 243 | 15 | ||
| 2025-12-27T23:43 | 3763 | 646 | -2.6 | -3.4 | ||
| 2025-12-27T23:43 | 3816 | 642 | -3.1 | -7.8 | ||
| 2025-12-27T23:43 | 3848 | 639 | -3.4 | -15.7 | ||
| 2025-12-27T23:43 | 3864 | 638 | -3.6 | -17.6 | ||
| 2025-12-27T23:43 | 3922 | 633 | -0.2 | -18.4 | ||
| 2025-12-27T23:43 | 3949 | 631 | 1.9 | -18.2 | ||
| 2025-12-27T23:43 | 3970 | 630 | 265 | 10 | ||
| 2025-12-27T23:44 | 4292 | 605 | 262 | 10 | ||
| 2025-12-27T23:45 | 4448 | 593 | -2.1 | -25.3 | ||
| 2025-12-27T23:45 | 4602 | 582 | 254 | 14 | ||
| 2025-12-27T23:46 | 4903 | 560 | 246 | 17 | ||
| 2025-12-27T23:47 | 4973 | 555 | -6.2 | -30.2 | ||
| 2025-12-27T23:47 | 5113 | 545 | 242 | 20 | ||
| 2025-12-27T23:47 | 5246 | 536 | -7.6 | -35.1 | ||
| 2025-12-27T23:48 | 5363 | 528 | -8.3 | -35.7 | ||
| 2025-12-27T23:48 | 5407 | 524 | 243 | 23 | ||
| 2025-12-27T23:48 | 5533 | 516 | -7.6 | -43.0 | ||
| 2025-12-27T23:49 | 5619 | 510 | 252 | 27 | ||
| 2025-12-27T23:49 | 5785 | 500 | -9.5 | -37.8 | ||
| 2025-12-27T23:50 | 5919 | 491 | 254 | 27 | ||
| 2025-12-27T23:50 | 6130 | 478 | -12.5 | -37.0 | ||
| 2025-12-27T23:51 | 6215 | 472 | 255 | 29 | ||
| 2025-12-27T23:52 | 6501 | 455 | -14.6 | -40.6 | 259 | 29 |
| 2025-12-27T23:52 | 6613 | 448 | -14.9 | -39.8 | ||
| 2025-12-27T23:53 | 6788 | 438 | 262 | 33 | ||
| 2025-12-27T23:53 | 6927 | 430 | -16.9 | -43.5 | ||
| 2025-12-27T23:54 | 7065 | 422 | 264 | 34 | ||
| 2025-12-27T23:55 | 7339 | 407 | 264 | 37 | ||
| 2025-12-27T23:56 | 7563 | 395 | -21.8 | -47.3 | ||
| 2025-12-27T23:56 | 7588 | 394 | 264 | 38 | ||
| 2025-12-27T23:57 | 7842 | 380 | 264 | 40 | ||
| 2025-12-27T23:57 | 7881 | 378 | -24.4 | -47.4 | ||
| 2025-12-27T23:58 | 8092 | 367 | 264 | 40 | ||
| 2025-12-27T23:59 | 8336 | 355 | 265 | 41 | ||
| 2025-12-28T00:00 | 8577 | 343 | 267 | 42 | ||
| 2025-12-28T00:00 | 8603 | 342 | -30.6 | -48.3 | ||
| 2025-12-28T00:01 | 8794 | 333 | 269 | 46 | ||
| 2025-12-28T00:01 | 8837 | 331 | -31.2 | -52.0 | ||
| 2025-12-28T00:02 | 9010 | 323 | -32.7 | -53.3 | ||
| 2025-12-28T00:02 | 9018 | 323 | 274 | 48 | ||
| 2025-12-28T00:03 | 9237 | 313 | 274 | 51 | ||
| 2025-12-28T00:03 | 9376 | 307 | -32.3 | -59.4 | ||
| 2025-12-28T00:04 | 9431 | 304 | -31.6 | -60.6 | ||
| 2025-12-28T00:04 | 9453 | 303 | 267 | 56 | ||
| 2025-12-28T00:05 | 9691 | 293 | 271 | 55 | ||
| 2025-12-28T00:05 | 9741 | 291 | -32.2 | -63.2 | ||
| 2025-12-28T00:05 | 9860 | 286 | -31.5 | -65.8 | ||
| 2025-12-28T00:06 | 9894 | 285 | 270 | 57 | ||
| 2025-12-28T00:07 | 10151 | 275 | 269 | 58 | ||
| 2025-12-28T00:08 | 10408 | 265 | 267 | 59 | ||
| 2025-12-28T00:08 | 10529 | 260 | -36.2 | -69.1 | ||
| 2025-12-28T00:09 | 10657 | 256 | 272 | 59 | ||
| 2025-12-28T00:10 | 10905 | 247 | 270 | 59 | ||
| 2025-12-28T00:11 | 11159 | 238 | 271 | 62 | ||
| 2025-12-28T00:11 | 11214 | 236 | -40.0 | -76.4 | ||
| 2025-12-28T00:12 | 11412 | 229 | 270 | 61 | ||
| 2025-12-28T00:13 | 11661 | 221 | 269 | 61 | ||
| 2025-12-28T00:14 | 11904 | 213 | 267 | 62 | ||
| 2025-12-28T00:15 | 12153 | 205 | 267 | 63 | ||
| 2025-12-28T00:16 | 12404 | 197 | 266 | 62 | ||
| 2025-12-28T00:16 | 12458 | 195 | -50.3 | |||
| 2025-12-28T00:17 | 12647 | 190 | 265 | 60 | ||
| 2025-12-28T00:18 | 12874 | 183 | 263 | 60 | ||
| 2025-12-28T00:19 | 13091 | 177 | 261 | 60 | ||
| 2025-12-28T00:20 | 13314 | 171 | 258 | 59 | ||
| 2025-12-28T00:21 | 13538 | 165 | 257 | 60 | ||
| 2025-12-28T00:21 | 13587 | 164 | -60.0 | |||
| 2025-12-28T00:21 | 13784 | 159 | 256 | 60 | ||
| 2025-12-28T00:22 | 13929 | 155 | -62.4 | |||
| 2025-12-28T00:23 | 14113 | 151 | 262 | 55 | ||
| 2025-12-28T00:23 | 14118 | 150 | -63.1 | |||
| 2025-12-28T00:23 | 14326 | 145 | -64.3 | |||
| 2025-12-28T00:24 | 14393 | 144 | 270 | 54 | ||
| 2025-12-28T00:24 | 14517 | 141 | -65.0 | |||
| 2025-12-28T00:25 | 14659 | 138 | 274 | 54 | ||
| 2025-12-28T00:26 | 14915 | 132 | 277 | 53 | ||
| 2025-12-28T00:27 | 15152 | 127 | -70.2 | |||
| 2025-12-28T00:27 | 15162 | 127 | 276 | 53 | ||
| 2025-12-28T00:28 | 15413 | 121 | 279 | 51 | ||
| 2025-12-28T00:29 | 15662 | 116 | 282 | 49 | ||
| 2025-12-28T00:30 | 15918 | 111 | 283 | 49 | ||
| 2025-12-28T00:30 | 16081 | 108 | -77.1 | |||
| 2025-12-28T00:31 | 16181 | 106 | 275 | 44 | ||
| 2025-12-28T00:31 | 16321 | 104 | -77.4 | |||
| 2025-12-28T00:31 | 16392 | 102 | -76.9 | |||
| 2025-12-28T00:32 | 16438 | 102 | 272 | 44 | ||
| 2025-12-28T00:33 | 16681 | 97 | -76.9 | 281 | 43 | |
| 2025-12-28T00:33 | 16795 | 95 | -73.7 | |||
| 2025-12-28T00:33 | 16839 | 95 | 283 | 34 | ||
| 2025-12-28T00:34 | 17154 | 90 | 267 | 32 | ||
| 2025-12-28T00:35 | 17415 | 86 | -76.9 | |||
| 2025-12-28T00:35 | 17455 | 85 | 257 | 30 | ||
| 2025-12-28T00:36 | 17661 | 82 | 263 | 26 | ||
| 2025-12-28T00:36 | 17717 | 81 | -76.8 | |||
| 2025-12-28T00:37 | 17934 | 78 | 268 | 28 | ||
| 2025-12-28T00:37 | 18030 | 77 | -78.6 | |||
| 2025-12-28T00:37 | 18112 | 76 | 281 | 27 | ||
| 2025-12-28T00:38 | 18211 | 75 | -74.3 | |||
| 2025-12-28T00:39 | 18387 | 72 | -71.8 | 287 | 16 | |
| 2025-12-28T00:39 | 18543 | 71 | 264 | 7 | ||
| 2025-12-28T00:39 | 18638 | 69 | -69.7 | |||
| 2025-12-28T00:40 | 18681 | 69 | 227 | 8 | ||
| 2025-12-28T00:40 | 18901 | 66 | -70.4 | |||
| 2025-12-28T00:41 | 18954 | 66 | 203 | 9 | ||
| 2025-12-28T00:41 | 19211 | 63 | 180 | 9 | ||
| 2025-12-28T00:42 | 19414 | 61 | -70.4 | |||
| 2025-12-28T00:42 | 19432 | 61 | 201 | 12 | ||
| 2025-12-28T00:43 | 19555 | 60 | -69.9 | |||
| 2025-12-28T00:43 | 19655 | 59 | -69.8 | 205 | 17 | |
| 2025-12-28T00:44 | 19927 | 56 | 231 | 11 | ||
| 2025-12-28T00:45 | 20101 | 54 | -68.4 | |||
| 2025-12-28T00:45 | 20202 | 53 | 257 | 7 | ||
| 2025-12-28T00:46 | 20315 | 52 | 268 | 7 | ||
| 2025-12-28T00:46 | 20432 | 51 | -67.2 | |||
| 2025-12-28T00:46 | 20502 | 51 | 251 | 12 | ||
| 2025-12-28T00:47 | 20784 | 49 | 298 | 12 | ||
| 2025-12-28T00:48 | 20911 | 48 | -65.0 | |||
| 2025-12-28T00:48 | 20934 | 47 | 312 | 11 | ||
| 2025-12-28T00:48 | 21024 | 47 | 313 | 7 | ||
| 2025-12-28T00:49 | 21237 | 45 | 309 | 7 | ||
| 2025-12-28T00:50 | 21421 | 44 | 270 | 7 | ||
| 2025-12-28T00:50 | 21487 | 43 | -62.2 | |||
| 2025-12-28T00:50 | 21603 | 42 | -61.3 | |||
| 2025-12-28T00:50 | 21664 | 42 | 244 | 9 | ||
| 2025-12-28T00:51 | 21888 | 41 | 270 | 9 | ||
| 2025-12-28T00:52 | 22060 | 39 | 296 | 7 | ||
| 2025-12-28T00:52 | 22204 | 39 | -61.1 | |||
| 2025-12-28T00:53 | 22365 | 38 | 273 | 5 | ||
| 2025-12-28T00:53 | 22481 | 37 | 266 | 3 | ||
| 2025-12-28T00:54 | 22671 | 36 | -60.9 | |||
| 2025-12-28T00:54 | 22687 | 36 | 326 | 4 | ||
| 2025-12-28T00:54 | 22776 | 35 | 319 | 4 | ||
| 2025-12-28T00:54 | 22865 | 35 | 227 | 3 | ||
| 2025-12-28T00:55 | 23012 | 34 | 213 | 8 | ||
| 2025-12-28T00:55 | 23141 | 33 | 232 | 7 | ||
| 2025-12-28T00:56 | 23452 | 32 | 286 | 5 | ||
| 2025-12-28T00:57 | 23571 | 31 | 310 | 5 | ||
| 2025-12-28T00:57 | 23694 | 30 | 322 | 4 | ||
| 2025-12-28T00:58 | 23901 | 29 | 360 | 4 | ||
| 2025-12-28T00:58 | 24030 | 29 | -60.2 | |||
| 2025-12-28T00:59 | 24119 | 28 | 311 | 4 | ||
| 2025-12-28T00:59 | 24208 | 28 | 328 | 3 | ||
| 2025-12-28T00:59 | 24343 | 27 | 48 | 4 | ||
| 2025-12-28T01:00 | 24412 | 27 | 34 | 3 | ||
| 2025-12-28T01:00 | 24503 | 27 | 326 | 3 | ||
| 2025-12-28T01:00 | 24576 | 26 | 328 | 3 | ||
| 2025-12-28T01:01 | 24744 | 26 | 351 | 1 | ||
| 2025-12-28T01:02 | 25044 | 24 | 262 | 1 | ||
| 2025-12-28T01:02 | 25228 | 24 | 344 | 3 | ||
| 2025-12-28T01:03 | 25307 | 23 | 332 | 2 | ||
| 2025-12-28T01:03 | 25386 | 23 | 314 | 3 | ||
| 2025-12-28T01:03 | 25525 | 23 | -58.6 | 30 | 4 | |
| 2025-12-28T01:04 | 25839 | 22 | 75 | 7 | ||
| 2025-12-28T01:05 | 25911 | 21 | -59.3 | 86 | 6 | |
| 2025-12-28T11:31 | 8 | 1016 | 19.3 | 18.5 | 60 | 5 |
| 2025-12-28T11:31 | 15 | 1015 | 19.4 | 19.1 | 60 | 1 |
| 2025-12-28T11:31 | 50 | 1011 | 41 | 4 | ||
| 2025-12-28T11:32 | 177 | 996 | 74 | 8 | ||
| 2025-12-28T11:32 | 337 | 978 | 18.6 | 17.1 | ||
| 2025-12-28T11:33 | 445 | 965 | 113 | 8 | ||
| 2025-12-28T11:34 | 741 | 933 | 125 | 9 | ||
| 2025-12-28T11:35 | 1040 | 900 | 148 | 9 | ||
| 2025-12-28T11:35 | 1128 | 891 | 13.5 | 13.3 | ||
| 2025-12-28T11:35 | 1258 | 877 | 161 | 7 | ||
| 2025-12-28T11:36 | 1378 | 865 | 161 | 6 | ||
| 2025-12-28T11:36 | 1412 | 861 | 12.1 | 11.9 | ||
| 2025-12-28T11:36 | 1502 | 852 | 185 | 5 | ||
| 2025-12-28T11:37 | 1823 | 820 | 199 | 4 | ||
| 2025-12-28T11:38 | 1956 | 807 | 232 | 4 | ||
| 2025-12-28T11:38 | 1998 | 803 | 9.4 | 9.1 | ||
| 2025-12-28T11:38 | 2163 | 787 | 232 | 8 | ||
| 2025-12-28T11:39 | 2331 | 771 | 8.0 | 7.4 | ||
| 2025-12-28T11:39 | 2353 | 769 | 203 | 12 | ||
| 2025-12-28T11:39 | 2567 | 750 | 230 | 13 | ||
| 2025-12-28T11:39 | 2582 | 748 | 6.4 | 4.2 | ||
| 2025-12-28T11:40 | 2723 | 736 | 5.8 | 3.5 | ||
| 2025-12-28T11:40 | 2865 | 723 | 228 | 14 | ||
| 2025-12-28T11:41 | 2933 | 717 | 4.5 | 2.5 | ||
| 2025-12-28T11:41 | 3136 | 700 | 4.0 | 0.0 | ||
| 2025-12-28T11:41 | 3202 | 694 | 216 | 14 | ||
| 2025-12-28T11:42 | 3363 | 680 | 2.6 | -1.6 | ||
| 2025-12-28T11:42 | 3568 | 663 | 223 | 16 | ||
| 2025-12-28T11:43 | 3666 | 655 | -0.1 | -3.6 | ||
| 2025-12-28T11:43 | 3727 | 650 | 0.4 | -6.2 | ||
| 2025-12-28T11:43 | 3756 | 648 | 224 | 19 | ||
| 2025-12-28T11:44 | 3959 | 632 | -1.3 | -6.4 | ||
| 2025-12-28T11:44 | 4055 | 624 | 228 | 15 | ||
| 2025-12-28T11:44 | 4172 | 615 | -2.8 | -5.9 | ||
| 2025-12-28T11:45 | 4263 | 608 | -3.1 | -7.4 | ||
| 2025-12-28T11:45 | 4324 | 603 | 237 | 16 | ||
| 2025-12-28T11:45 | 4406 | 597 | -3.5 | -11.7 | ||
| 2025-12-28T11:46 | 4512 | 589 | -3.9 | -11.6 | ||
| 2025-12-28T11:46 | 4613 | 582 | -4.0 | -13.4 | ||
| 2025-12-28T11:46 | 4629 | 580 | 250 | 21 | ||
| 2025-12-28T11:46 | 4671 | 577 | -3.3 | -17.7 | ||
| 2025-12-28T11:46 | 4811 | 567 | 251 | 29 | ||
| 2025-12-28T11:47 | 4862 | 563 | -2.6 | -23.1 | ||
| 2025-12-28T11:47 | 5168 | 542 | 251 | 30 | ||
| 2025-12-28T11:48 | 5270 | 535 | -6.0 | -27.8 | ||
| 2025-12-28T11:48 | 5551 | 516 | 251 | 34 | ||
| 2025-12-28T11:48 | 5557 | 516 | -8.2 | -29.6 | ||
| 2025-12-28T11:49 | 5904 | 493 | -11.1 | -31.4 | ||
| 2025-12-28T11:49 | 5922 | 492 | 249 | 34 | ||
| 2025-12-28T11:50 | 6118 | 479 | -12.5 | -31.4 | ||
| 2025-12-28T11:50 | 6294 | 468 | 252 | 36 | ||
| 2025-12-28T11:51 | 6409 | 461 | -15.0 | -34.6 | ||
| 2025-12-28T11:51 | 6497 | 456 | -15.1 | -36.0 | ||
| 2025-12-28T11:51 | 6658 | 446 | 258 | 39 | ||
| 2025-12-28T11:52 | 6886 | 433 | 261 | 39 | ||
| 2025-12-28T11:53 | 7112 | 420 | -19.6 | -39.1 | ||
| 2025-12-28T11:53 | 7241 | 413 | 265 | 41 | ||
| 2025-12-28T11:53 | 7328 | 408 | -20.5 | -42.6 | ||
| 2025-12-28T11:54 | 7505 | 398 | -20.6 | -44.4 | ||
| 2025-12-28T11:54 | 7593 | 394 | 262 | 46 | ||
| 2025-12-28T11:55 | 7828 | 381 | -22.6 | -48.0 | ||
| 2025-12-28T11:55 | 7916 | 377 | 265 | 47 | ||
| 2025-12-28T11:56 | 8237 | 361 | -24.9 | -52.2 | ||
| 2025-12-28T11:56 | 8243 | 360 | 269 | 50 | ||
| 2025-12-28T11:57 | 8536 | 346 | -27.0 | -52.5 | ||
| 2025-12-28T11:57 | 8557 | 345 | 269 | 52 | ||
| 2025-12-28T11:57 | 8642 | 341 | -27.3 | -54.1 | ||
| 2025-12-28T11:58 | 8847 | 331 | -28.5 | -56.5 | ||
| 2025-12-28T11:58 | 8881 | 330 | 269 | 49 | ||
| 2025-12-28T11:58 | 8914 | 328 | -27.9 | -60.1 | ||
| 2025-12-28T11:58 | 8964 | 326 | -26.4 | -62.2 | ||
| 2025-12-28T11:59 | 9083 | 321 | -25.9 | -58.7 | ||
| 2025-12-28T11:59 | 9203 | 315 | 272 | 55 | ||
| 2025-12-28T11:59 | 9344 | 309 | -27.7 | -60.0 | ||
| 2025-12-28T12:00 | 9565 | 300 | 266 | 56 | ||
| 2025-12-28T12:00 | 9654 | 296 | -29.5 | -64.4 | ||
| 2025-12-28T12:01 | 9914 | 286 | 265 | 57 | ||
| 2025-12-28T12:02 | 10249 | 272 | 265 | 57 | ||
| 2025-12-28T12:02 | 10419 | 266 | -34.4 | -72.6 | ||
| 2025-12-28T12:03 | 10627 | 258 | 270 | 56 | ||
| 2025-12-28T12:04 | 11024 | 243 | 269 | 56 | ||
| 2025-12-28T12:04 | 11037 | 243 | -39.2 | -71.2 | ||
| 2025-12-28T12:04 | 11136 | 240 | -40.0 | -71.8 | ||
| 2025-12-28T12:05 | 11393 | 231 | 266 | 58 | ||
| 2025-12-28T12:06 | 11714 | 220 | 269 | 60 | ||
| 2025-12-28T12:06 | 11742 | 219 | -44.2 | |||
| 2025-12-28T12:07 | 12002 | 211 | 270 | 60 | ||
| 2025-12-28T12:08 | 12311 | 201 | 269 | 59 | ||
| 2025-12-28T12:09 | 12592 | 192 | 268 | 57 | ||
| 2025-12-28T12:10 | 12883 | 184 | 266 | 57 | ||
| 2025-12-28T12:11 | 13189 | 175 | 263 | 55 | ||
| 2025-12-28T12:11 | 13218 | 175 | -56.9 | |||
| 2025-12-28T12:12 | 13478 | 168 | 264 | 54 | ||
| 2025-12-28T12:13 | 13774 | 160 | 264 | 53 | ||
| 2025-12-28T12:14 | 14065 | 152 | 264 | 54 | ||
| 2025-12-28T12:15 | 14284 | 147 | -65.7 | |||
| 2025-12-28T12:15 | 14368 | 145 | 255 | 52 | ||
| 2025-12-28T12:16 | 14656 | 138 | -68.8 | |||
| 2025-12-28T12:16 | 14709 | 137 | 252 | 53 | ||
| 2025-12-28T12:16 | 14812 | 135 | -69.6 | |||
| 2025-12-28T12:17 | 15055 | 129 | 261 | 50 | ||
| 2025-12-28T12:17 | 15184 | 126 | -71.3 | |||
| 2025-12-28T12:18 | 15392 | 122 | 266 | 45 | ||
| 2025-12-28T12:18 | 15401 | 122 | -72.5 | |||
| 2025-12-28T12:19 | 15600 | 118 | -72.9 | |||
| 2025-12-28T12:19 | 15661 | 117 | 263 | 39 | ||
| 2025-12-28T12:20 | 15924 | 111 | -74.2 | |||
| 2025-12-28T12:20 | 15950 | 111 | 262 | 37 | ||
| 2025-12-28T12:21 | 16302 | 104 | 275 | 35 | ||
| 2025-12-28T12:22 | 16546 | 100 | -77.7 | |||
| 2025-12-28T12:22 | 16686 | 98 | 290 | 35 | ||
| 2025-12-28T12:22 | 16783 | 96 | -78.9 | |||
| 2025-12-28T12:23 | 16952 | 93 | 287 | 29 | ||
| 2025-12-28T12:24 | 17242 | 89 | 293 | 24 | ||
| 2025-12-28T12:24 | 17370 | 87 | -79.1 | |||
| 2025-12-28T12:25 | 17510 | 84 | 283 | 20 | ||
| 2025-12-28T12:25 | 17658 | 82 | -79.6 | |||
| 2025-12-28T12:26 | 17792 | 80 | 263 | 17 | ||
| 2025-12-28T12:26 | 18008 | 77 | 263 | 21 | ||
| 2025-12-28T12:26 | 18023 | 77 | -81.0 | |||
| 2025-12-28T12:27 | 18139 | 76 | -79.1 | |||
| 2025-12-28T12:27 | 18293 | 74 | 283 | 21 | ||
| 2025-12-28T12:28 | 18339 | 73 | -78.5 | |||
| 2025-12-28T12:28 | 18475 | 71 | -76.5 | |||
| 2025-12-28T12:28 | 18523 | 71 | 290 | 13 | ||
| 2025-12-28T12:28 | 18579 | 70 | -74.9 | |||
| 2025-12-28T12:29 | 18647 | 69 | 254 | 11 | ||
| 2025-12-28T12:29 | 18758 | 68 | -74.6 | |||
| 2025-12-28T12:30 | 18924 | 66 | 257 | 16 | ||
| 2025-12-28T12:30 | 19048 | 65 | -74.9 | |||
| 2025-12-28T12:31 | 19166 | 63 | -73.2 | |||
| 2025-12-28T12:31 | 19186 | 63 | 282 | 16 | ||
| 2025-12-28T12:31 | 19249 | 62 | -70.9 | |||
| 2025-12-28T12:31 | 19384 | 61 | 310 | 8 | ||
| 2025-12-28T12:32 | 19573 | 59 | 310 | 7 | ||
| 2025-12-28T12:32 | 19612 | 59 | -69.9 | 298 | 9 | |
| 2025-12-28T23:31 | 8 | 1016 | 19.8 | 15.7 | 40 | 8 |
| 2025-12-28T23:31 | 13 | 1015 | 19.9 | 16.0 | 44 | 1 |
| 2025-12-28T23:31 | 40 | 1012 | 59 | 5 | ||
| 2025-12-28T23:31 | 142 | 1000 | 41 | 13 | ||
| 2025-12-28T23:32 | 251 | 987 | 18.0 | 14.3 | ||
| 2025-12-28T23:32 | 258 | 987 | 40 | 18 | ||
| 2025-12-28T23:33 | 592 | 949 | 49 | 18 | ||
| 2025-12-28T23:33 | 724 | 934 | 14.0 | 13.8 | ||
| 2025-12-28T23:34 | 901 | 914 | 53 | 17 | ||
| 2025-12-28T23:34 | 929 | 911 | 13.1 | 13.1 | ||
| 2025-12-28T23:34 | 1035 | 900 | 13.5 | 12.9 | ||
| 2025-12-28T23:34 | 1061 | 897 | 13.9 | 13.1 | ||
| 2025-12-28T23:34 | 1126 | 890 | 61 | 11 | ||
| 2025-12-28T23:34 | 1138 | 889 | 13.6 | 13.0 | ||
| 2025-12-28T23:35 | 1180 | 885 | 14.4 | 13.3 | ||
| 2025-12-28T23:35 | 1261 | 876 | 83 | 6 | ||
| 2025-12-28T23:35 | 1361 | 866 | 13.0 | 12.8 | ||
| 2025-12-28T23:35 | 1399 | 862 | 103 | 2 | ||
| 2025-12-28T23:36 | 1524 | 849 | 12.7 | 12.2 | ||
| 2025-12-28T23:36 | 1651 | 837 | 146 | 2 | ||
| 2025-12-28T23:36 | 1676 | 834 | 12.3 | 11.8 | ||
| 2025-12-28T23:37 | 1874 | 815 | 11.8 | 11.3 | ||
| 2025-12-28T23:37 | 1897 | 812 | 173 | 4 | ||
| 2025-12-28T23:37 | 1982 | 804 | 11.8 | 10.2 | ||
| 2025-12-28T23:37 | 2040 | 798 | 221 | 2 | ||
| 2025-12-28T23:37 | 2069 | 796 | 11.6 | 7.1 | ||
| 2025-12-28T23:38 | 2202 | 783 | 219 | 4 | ||
| 2025-12-28T23:38 | 2441 | 761 | 8.7 | 6.1 | 231 | 6 |
| 2025-12-28T23:39 | 2770 | 731 | 5.9 | 5.5 | ||
| 2025-12-28T23:39 | 2776 | 731 | 231 | 11 | ||
| 2025-12-28T23:40 | 3073 | 705 | 3.8 | 3.1 | ||
| 2025-12-28T23:40 | 3125 | 700 | 219 | 14 | ||
| 2025-12-28T23:41 | 3256 | 689 | 2.9 | 2.2 | ||
| 2025-12-28T23:41 | 3479 | 670 | 210 | 18 | ||
| 2025-12-28T23:42 | 3560 | 664 | 0.8 | -0.7 | ||
| 2025-12-28T23:42 | 3767 | 647 | -0.8 | -2.8 | ||
| 2025-12-28T23:42 | 3808 | 643 | -0.6 | -4.7 | ||
| 2025-12-28T23:42 | 3842 | 641 | 216 | 18 | ||
| 2025-12-28T23:43 | 3934 | 633 | 0.9 | -16.0 | ||
| 2025-12-28T23:43 | 3969 | 631 | 1.4 | -22.5 | ||
| 2025-12-28T23:43 | 4141 | 617 | 231 | 17 | ||
| 2025-12-28T23:43 | 4248 | 609 | -0.5 | -24.0 | ||
| 2025-12-28T23:44 | 4400 | 598 | -0.8 | -26.7 | ||
| 2025-12-28T23:44 | 4502 | 590 | 239 | 13 | ||
| 2025-12-28T23:45 | 4839 | 566 | 239 | 16 | ||
| 2025-12-28T23:45 | 4872 | 563 | -2.8 | -32.6 | ||
| 2025-12-28T23:46 | 5101 | 547 | 246 | 16 | ||
| 2025-12-28T23:46 | 5146 | 544 | -4.7 | -35.4 | ||
| 2025-12-28T23:47 | 5327 | 531 | -5.5 | -36.0 | ||
| 2025-12-28T23:47 | 5440 | 524 | 251 | 20 | ||
| 2025-12-28T23:48 | 5786 | 501 | 250 | 20 | ||
| 2025-12-28T23:49 | 6064 | 483 | -12.1 | -35.8 | ||
| 2025-12-28T23:49 | 6149 | 478 | 252 | 21 | ||
| 2025-12-28T23:50 | 6513 | 455 | 250 | 21 | ||
| 2025-12-28T23:50 | 6677 | 446 | -16.7 | -40.3 | ||
| 2025-12-28T23:51 | 6804 | 438 | 259 | 25 | ||
| 2025-12-28T23:51 | 6953 | 430 | -17.3 | -42.7 | ||
| 2025-12-28T23:52 | 7073 | 423 | -18.0 | -43.3 | ||
| 2025-12-28T23:52 | 7132 | 419 | -17.4 | -48.1 | ||
| 2025-12-28T23:52 | 7138 | 419 | 269 | 32 | ||
| 2025-12-28T23:53 | 7430 | 403 | -17.6 | -56.1 | ||
| 2025-12-28T23:53 | 7464 | 401 | 277 | 39 | ||
| 2025-12-28T23:54 | 7812 | 383 | 275 | 39 | ||
| 2025-12-28T23:54 | 7854 | 381 | -20.7 | -54.9 | ||
| 2025-12-28T23:55 | 8166 | 365 | 271 | 42 | ||
| 2025-12-28T23:55 | 8242 | 361 | -23.0 | -56.6 | ||
| 2025-12-28T23:56 | 8510 | 348 | 269 | 42 | ||
| 2025-12-28T23:56 | 8659 | 341 | -26.4 | -59.0 | ||
| 2025-12-28T23:57 | 8816 | 334 | 272 | 43 | ||
| 2025-12-28T23:57 | 8925 | 329 | -26.1 | -62.0 | ||
| 2025-12-28T23:57 | 9092 | 321 | -26.7 | -62.4 | ||
| 2025-12-28T23:58 | 9140 | 319 | 273 | 49 | ||
| 2025-12-28T23:59 | 9467 | 305 | 271 | 52 | ||
| 2025-12-28T23:59 | 9620 | 298 | -31.1 | -62.4 | ||
| 2025-12-29T00:00 | 9790 | 291 | 273 | 52 | ||
| 2025-12-29T00:00 | 9956 | 284 | -32.9 | -66.7 | ||
| 2025-12-29T00:01 | 10093 | 279 | 273 | 51 | ||
| 2025-12-29T00:01 | 10354 | 269 | -35.4 | -63.4 | ||
| 2025-12-29T00:02 | 10406 | 267 | 277 | 52 | ||
| 2025-12-29T00:02 | 10612 | 259 | -36.6 | -66.4 | ||
| 2025-12-29T00:03 | 10700 | 256 | 273 | 52 | ||
| 2025-12-29T00:04 | 11022 | 244 | -39.4 | -68.5 | 264 | 49 |
| 2025-12-29T00:04 | 11088 | 242 | -40.0 | -68.9 | ||
| 2025-12-29T00:05 | 11345 | 233 | 269 | 49 | ||
| 2025-12-29T00:06 | 11671 | 222 | 271 | 49 | ||
| 2025-12-29T00:06 | 11780 | 218 | -46.0 | |||
| 2025-12-29T00:07 | 11975 | 212 | 273 | 49 | ||
| 2025-12-29T00:07 | 12025 | 210 | -47.4 | |||
| 2025-12-29T00:08 | 12266 | 203 | 269 | 51 | ||
| 2025-12-29T00:09 | 12519 | 195 | -50.9 | |||
| 2025-12-29T00:09 | 12554 | 194 | 272 | 52 | ||
| 2025-12-29T00:10 | 12862 | 185 | 270 | 53 | ||
| 2025-12-29T00:10 | 12911 | 183 | -53.9 | |||
| 2025-12-29T00:11 | 13186 | 176 | 266 | 52 | ||
| 2025-12-29T00:12 | 13494 | 167 | 259 | 49 | ||
| 2025-12-29T00:12 | 13529 | 166 | -59.0 | |||
| 2025-12-29T00:13 | 13787 | 160 | 258 | 47 | ||
| 2025-12-29T00:13 | 14029 | 153 | -62.8 | |||
| 2025-12-29T00:14 | 14083 | 152 | 260 | 46 | ||
| 2025-12-29T00:15 | 14364 | 145 | 261 | 46 | ||
| 2025-12-29T00:16 | 14651 | 139 | 264 | 46 | ||
| 2025-12-29T00:16 | 14772 | 136 | -69.8 | |||
| 2025-12-29T00:17 | 14937 | 132 | 265 | 47 | ||
| 2025-12-29T00:18 | 15221 | 126 | 262 | 46 | ||
| 2025-12-29T00:18 | 15314 | 124 | -73.6 | |||
| 2025-12-29T00:18 | 15454 | 121 | -73.8 | |||
| 2025-12-29T00:18 | 15459 | 121 | 268 | 45 | ||
| 2025-12-29T00:19 | 15575 | 118 | -72.8 | |||
| 2025-12-29T00:19 | 15654 | 117 | 275 | 38 | ||
| 2025-12-29T00:19 | 15721 | 116 | -73.2 | |||
| 2025-12-29T00:20 | 15947 | 111 | 278 | 40 | ||
| 2025-12-29T00:20 | 16002 | 110 | -73.1 | |||
| 2025-12-29T00:21 | 16231 | 106 | 288 | 35 | ||
| 2025-12-29T00:21 | 16332 | 104 | -74.5 | |||
| 2025-12-29T00:22 | 16525 | 101 | 283 | 29 | ||
| 2025-12-29T00:23 | 16715 | 97 | -75.2 | |||
| 2025-12-29T00:23 | 16825 | 96 | 272 | 20 | ||
| 2025-12-29T00:24 | 17021 | 92 | -74.9 | |||
| 2025-12-29T00:24 | 17122 | 91 | 264 | 17 | ||
| 2025-12-29T00:24 | 17135 | 91 | -74.8 | |||
| 2025-12-29T00:25 | 17419 | 86 | 274 | 16 | ||
| 2025-12-29T00:25 | 17471 | 86 | -75.4 | |||
| 2025-12-29T00:26 | 17711 | 82 | 273 | 16 | ||
| 2025-12-29T00:26 | 17776 | 81 | -75.8 | |||
| 2025-12-29T00:27 | 18000 | 78 | 269 | 16 | ||
| 2025-12-29T00:28 | 18315 | 74 | 285 | 13 | ||
| 2025-12-29T00:29 | 18484 | 72 | -80.1 | |||
| 2025-12-29T00:29 | 18627 | 70 | 321 | 12 | ||
| 2025-12-29T00:30 | 18938 | 66 | 293 | 10 | ||
| 2025-12-29T00:30 | 18982 | 66 | -82.4 | |||
| 2025-12-29T00:31 | 19074 | 64 | -81.3 | |||
| 2025-12-29T00:31 | 19092 | 64 | 305 | 15 | ||
| 2025-12-29T00:31 | 19146 | 64 | -78.3 | |||
| 2025-12-29T00:31 | 19282 | 62 | 323 | 13 | ||
| 2025-12-29T00:32 | 19453 | 60 | 311 | 13 | ||
| 2025-12-29T00:32 | 19464 | 60 | -76.3 | |||
| 2025-12-29T00:32 | 19559 | 59 | -70.9 | |||
| 2025-12-29T00:32 | 19600 | 59 | 317 | 4 | ||
| 2025-12-29T00:33 | 19731 | 58 | 260 | 3 | ||
| 2025-12-29T00:33 | 19888 | 56 | 279 | 3 | ||
| 2025-12-29T00:33 | 19909 | 56 | -70.4 | |||
| 2025-12-29T00:34 | 20022 | 55 | -68.2 | |||
| 2025-12-29T00:34 | 20126 | 54 | -67.3 | |||
| 2025-12-29T00:34 | 20149 | 54 | 297 | 5 | ||
| 2025-12-29T00:35 | 20371 | 52 | -65.6 | |||
| 2025-12-29T00:35 | 20394 | 52 | 343 | 2 | ||
| 2025-12-29T00:35 | 20468 | 51 | 130 | 3 | ||
| 2025-12-29T00:35 | 20562 | 50 | -65.9 | |||
| 2025-12-29T00:36 | 20722 | 49 | 143 | 7 | ||
| 2025-12-29T00:36 | 20910 | 47 | -66.1 | |||
| 2025-12-29T00:37 | 21041 | 46 | 265 | 4 | ||
| 2025-12-29T00:37 | 21254 | 45 | -64.1 | 264 | 2 | |
| 2025-12-29T00:38 | 21531 | 43 | 167 | 3 | ||
| 2025-12-29T00:39 | 21766 | 41 | 195 | 8 | ||
| 2025-12-29T00:39 | 21870 | 40 | -64.7 | |||
| 2025-12-29T00:39 | 21914 | 40 | 260 | 5 | ||
| 2025-12-29T00:40 | 22008 | 40 | 285 | 5 | ||
| 2025-12-29T00:41 | 22343 | 37 | -62.7 | 258 | 5 | |
| 2025-12-29T00:41 | 22457 | 37 | 260 | 5 | ||
| 2025-12-29T00:41 | 22611 | 36 | -59.8 | |||
| 2025-12-29T00:41 | 22632 | 36 | 301 | 9 | ||
| 2025-12-29T00:42 | 22936 | 34 | 311 | 9 | ||
| 2025-12-29T00:43 | 23029 | 34 | -60.5 | |||
| 2025-12-29T00:43 | 23083 | 33 | 286 | 4 | ||
| 2025-12-29T00:43 | 23297 | 32 | -58.3 | |||
| 2025-12-29T00:44 | 23355 | 32 | 268 | 5 | ||
| 2025-12-29T00:44 | 23554 | 31 | 300 | 6 | ||
| 2025-12-29T00:45 | 23699 | 30 | 252 | 5 | ||
| 2025-12-29T00:46 | 24064 | 28 | 327 | 5 | ||
| 2025-12-29T00:47 | 24426 | 27 | 356 | 6 | ||
| 2025-12-29T00:47 | 24448 | 27 | 358 | 7 | ||
| 2025-12-29T00:47 | 24472 | 27 | 1 | 7 | ||
| 2025-12-29T00:47 | 24613 | 26 | -60.7 | |||
| 2025-12-29T00:48 | 24784 | 25 | 32 | 4 | ||
| 2025-12-29T00:48 | 24934 | 25 | 328 | 5 | ||
| 2025-12-29T00:48 | 25088 | 24 | -60.6 | |||
| 2025-12-29T00:49 | 25243 | 24 | 317 | 5 | ||
| 2025-12-29T00:49 | 25460 | 23 | 313 | 7 | ||
| 2025-12-29T00:50 | 25658 | 22 | 346 | 3 | ||
| 2025-12-29T00:50 | 25772 | 22 | 77 | 3 | ||
| 2025-12-29T00:50 | 25864 | 21 | 88 | 3 | ||
| 2025-12-29T00:51 | 26046 | 21 | 120 | 4 | ||
| 2025-12-29T00:51 | 26140 | 20 | -55.3 | |||
| 2025-12-29T00:52 | 26244 | 20 | -55.5 | 84 | 4 | |
| 2025-12-29T11:31 | 8 | 1014 | 20.0 | 18.8 | 70 | 8 |
| 2025-12-29T11:31 | 12 | 1014 | 20.1 | 19.3 | 68 | 1 |
| 2025-12-29T11:31 | 36 | 1011 | 75 | 2 | ||
| 2025-12-29T11:31 | 81 | 1006 | 74 | 12 | ||
| 2025-12-29T11:32 | 189 | 993 | 18.9 | 18.4 | ||
| 2025-12-29T11:32 | 288 | 982 | 84 | 17 | ||
| 2025-12-29T11:33 | 560 | 951 | 83 | 17 | ||
| 2025-12-29T11:33 | 569 | 950 | 16.3 | 16.1 | ||
| 2025-12-29T11:34 | 784 | 927 | 15.1 | 14.9 | ||
| 2025-12-29T11:34 | 826 | 922 | 96 | 15 | ||
| 2025-12-29T11:35 | 1074 | 896 | 99 | 14 | ||
| 2025-12-29T11:36 | 1355 | 866 | 106 | 12 | ||
| 2025-12-29T11:36 | 1469 | 855 | 12.6 | 12.3 | ||
| 2025-12-29T11:37 | 1664 | 835 | 134 | 10 | ||
| 2025-12-29T11:38 | 1942 | 808 | 144 | 6 | ||
| 2025-12-29T11:38 | 2077 | 795 | 144 | 6 | ||
| 2025-12-29T11:39 | 2222 | 781 | 9.5 | 9.0 | ||
| 2025-12-29T11:39 | 2256 | 778 | 181 | 4 | ||
| 2025-12-29T11:39 | 2345 | 770 | 197 | 4 | ||
| 2025-12-29T11:40 | 2516 | 754 | 165 | 4 | ||
| 2025-12-29T11:40 | 2711 | 736 | 200 | 4 | ||
| 2025-12-29T11:41 | 2989 | 712 | 215 | 5 | ||
| 2025-12-29T11:42 | 3086 | 704 | 224 | 10 | ||
| 2025-12-29T11:42 | 3113 | 701 | 5.1 | 4.8 | ||
| 2025-12-29T11:42 | 3247 | 690 | 200 | 11 | ||
| 2025-12-29T11:43 | 3568 | 663 | 2.9 | 2.6 | ||
| 2025-12-29T11:43 | 3573 | 663 | 187 | 12 | ||
| 2025-12-29T11:44 | 3837 | 642 | 187 | 15 | ||
| 2025-12-29T11:44 | 3861 | 640 | 0.0 | -0.8 | ||
| 2025-12-29T11:44 | 3977 | 630 | -0.7 | -2.6 | ||
| 2025-12-29T11:45 | 4051 | 625 | -1.5 | -4.5 | ||
| 2025-12-29T11:45 | 4129 | 619 | 189 | 12 | ||
| 2025-12-29T11:45 | 4242 | 610 | -3.3 | -6.6 | ||
| 2025-12-29T11:46 | 4345 | 602 | 213 | 12 | ||
| 2025-12-29T11:46 | 4396 | 598 | -4.8 | -12.7 | ||
| 2025-12-29T11:46 | 4575 | 584 | -6.6 | -14.4 | ||
| 2025-12-29T11:46 | 4630 | 580 | -7.1 | -15.1 | ||
| 2025-12-29T11:47 | 4663 | 578 | 236 | 12 | ||
| 2025-12-29T11:47 | 4739 | 572 | -7.9 | -18.3 | ||
| 2025-12-29T11:47 | 4840 | 565 | -8.7 | -18.5 | ||
| 2025-12-29T11:47 | 4911 | 560 | -9.3 | -18.3 | ||
| 2025-12-29T11:47 | 4956 | 556 | -9.5 | -19.8 | ||
| 2025-12-29T11:48 | 4966 | 556 | 242 | 17 | ||
| 2025-12-29T11:48 | 5014 | 552 | -9.9 | -20.7 | ||
| 2025-12-29T11:48 | 5053 | 550 | -9.9 | -21.6 | ||
| 2025-12-29T11:48 | 5157 | 542 | -10.6 | -20.8 | ||
| 2025-12-29T11:48 | 5221 | 538 | -11.0 | -21.7 | ||
| 2025-12-29T11:49 | 5261 | 535 | 252 | 16 | ||
| 2025-12-29T11:49 | 5324 | 530 | -11.1 | -22.3 | ||
| 2025-12-29T11:49 | 5417 | 524 | 253 | 18 | ||
| 2025-12-29T11:50 | 5722 | 503 | 266 | 23 | ||
| 2025-12-29T11:50 | 5733 | 503 | -12.6 | -27.0 | ||
| 2025-12-29T11:51 | 6030 | 484 | -13.0 | -28.9 | ||
| 2025-12-29T11:51 | 6040 | 483 | 263 | 28 | ||
| 2025-12-29T11:51 | 6133 | 477 | -12.5 | -30.9 | ||
| 2025-12-29T11:52 | 6332 | 465 | -13.4 | -28.9 | 266 | 30 |
| 2025-12-29T11:52 | 6389 | 461 | -12.4 | -31.9 | ||
| 2025-12-29T11:53 | 6596 | 449 | 269 | 36 | ||
| 2025-12-29T11:53 | 6686 | 444 | -13.4 | -33.3 | ||
| 2025-12-29T11:54 | 6939 | 429 | 273 | 36 | ||
| 2025-12-29T11:54 | 7123 | 419 | -17.1 | -36.4 | ||
| 2025-12-29T11:55 | 7275 | 410 | 270 | 36 | ||
| 2025-12-29T11:55 | 7399 | 404 | -18.2 | -37.9 | ||
| 2025-12-29T11:56 | 7547 | 396 | -18.7 | -39.0 | ||
| 2025-12-29T11:56 | 7644 | 391 | 273 | 38 | ||
| 2025-12-29T11:57 | 7999 | 372 | 265 | 38 | ||
| 2025-12-29T11:57 | 8033 | 371 | -21.6 | -41.4 | ||
| 2025-12-29T11:58 | 8237 | 360 | -22.7 | -42.9 | ||
| 2025-12-29T11:58 | 8314 | 357 | 271 | 39 | ||
| 2025-12-29T11:58 | 8320 | 356 | -22.3 | -43.3 | ||
| 2025-12-29T11:58 | 8499 | 348 | 271 | 41 | ||
| 2025-12-29T11:59 | 8782 | 334 | -26.1 | -46.4 | ||
| 2025-12-29T11:59 | 8842 | 332 | 271 | 42 | ||
| 2025-12-29T12:00 | 9155 | 317 | -29.2 | -49.0 | ||
| 2025-12-29T12:00 | 9172 | 317 | 269 | 43 | ||
| 2025-12-29T12:01 | 9342 | 309 | -30.3 | -49.2 | ||
| 2025-12-29T12:01 | 9472 | 304 | 266 | 44 | ||
| 2025-12-29T12:02 | 9796 | 290 | 271 | 49 | ||
| 2025-12-29T12:03 | 9877 | 287 | -32.0 | -48.4 | ||
| 2025-12-29T12:03 | 10139 | 276 | 270 | 50 | ||
| 2025-12-29T12:04 | 10337 | 269 | 266 | 49 | ||
| 2025-12-29T12:04 | 10532 | 261 | -36.7 | -52.9 | ||
| 2025-12-29T12:05 | 10670 | 256 | 264 | 48 | ||
| 2025-12-29T12:06 | 10920 | 247 | -39.3 | -55.6 | ||
| 2025-12-29T12:06 | 10988 | 244 | 267 | 48 | ||
| 2025-12-29T12:06 | 11004 | 244 | -40.0 | -55.7 | ||
| 2025-12-29T12:07 | 11277 | 234 | 269 | 48 | ||
| 2025-12-29T12:08 | 11557 | 225 | 265 | 48 | ||
| 2025-12-29T12:08 | 11637 | 222 | -44.7 | |||
| 2025-12-29T12:08 | 11722 | 219 | -44.2 | |||
| 2025-12-29T12:09 | 11847 | 215 | 267 | 47 | ||
| 2025-12-29T12:10 | 12093 | 207 | 265 | 48 | ||
| 2025-12-29T12:11 | 12330 | 200 | 266 | 49 | ||
| 2025-12-29T12:12 | 12562 | 193 | 267 | 49 | ||
| 2025-12-29T12:13 | 12799 | 186 | 266 | 49 | ||
| 2025-12-29T12:13 | 12929 | 182 | -55.7 | |||
| 2025-12-29T12:14 | 13037 | 179 | 265 | 48 | ||
| 2025-12-29T12:15 | 13281 | 172 | 262 | 48 | ||
| 2025-12-29T12:15 | 13389 | 169 | -59.6 | |||
| 2025-12-29T12:16 | 13509 | 166 | 259 | 49 | ||
| 2025-12-29T12:17 | 13733 | 160 | 252 | 47 | ||
| 2025-12-29T12:18 | 13957 | 155 | 257 | 45 | ||
| 2025-12-29T12:18 | 13989 | 154 | -62.1 | |||
| 2025-12-29T12:19 | 14179 | 149 | 254 | 40 | ||
| 2025-12-29T12:20 | 14403 | 144 | 258 | 39 | ||
| 2025-12-29T12:20 | 14418 | 143 | -65.4 | |||
| 2025-12-29T12:21 | 14647 | 138 | 260 | 39 | ||
| 2025-12-29T12:22 | 14908 | 132 | 262 | 40 | ||
| 2025-12-29T12:23 | 15169 | 126 | 263 | 40 | ||
| 2025-12-29T12:24 | 15372 | 122 | -73.7 | |||
| 2025-12-29T12:24 | 15428 | 121 | 255 | 38 | ||
| 2025-12-29T12:25 | 15686 | 116 | 252 | 31 | ||
| 2025-12-29T12:25 | 15690 | 116 | -73.0 | |||
| 2025-12-29T12:26 | 15944 | 111 | 256 | 29 | ||
| 2025-12-29T12:26 | 16091 | 108 | -75.3 | |||
| 2025-12-29T12:27 | 16140 | 107 | 260 | 27 | ||
| 2025-12-29T12:28 | 16365 | 103 | -75.6 | |||
| 2025-12-29T12:28 | 16394 | 102 | 271 | 22 | ||
| 2025-12-29T12:28 | 16503 | 101 | -75.3 | |||
| 2025-12-29T12:29 | 16646 | 98 | 253 | 22 | ||
| 2025-12-29T12:30 | 16913 | 94 | 255 | 21 | ||
| 2025-12-29T12:31 | 17166 | 90 | 255 | 23 | ||
| 2025-12-29T12:31 | 17211 | 89 | -79.9 | |||
| 2025-12-29T12:32 | 17416 | 86 | 270 | 20 | ||
| 2025-12-29T12:32 | 17443 | 85 | -80.6 | |||
| 2025-12-29T12:33 | 17659 | 82 | 271 | 18 | ||
| 2025-12-29T12:33 | 17792 | 80 | 268 | 17 | ||
| 2025-12-29T12:33 | 17800 | 80 | -81.8 | |||
| 2025-12-29T12:34 | 18034 | 77 | 273 | 15 | ||
| 2025-12-29T12:35 | 18188 | 75 | 281 | 11 | ||
| 2025-12-29T12:36 | 18417 | 72 | -82.6 | |||
| 2025-12-29T12:36 | 18447 | 71 | 285 | 11 | ||
| 2025-12-29T12:36 | 18537 | 70 | -80.0 | |||
| 2025-12-29T12:37 | 18705 | 68 | 289 | 11 | ||
| 2025-12-29T12:37 | 18798 | 67 | -79.0 | |||
| 2025-12-29T12:37 | 18831 | 67 | 303 | 10 | ||
| 2025-12-29T12:38 | 18917 | 66 | 330 | 7 | ||
| 2025-12-29T12:38 | 19015 | 65 | -75.0 | |||
| 2025-12-29T12:38 | 19040 | 64 | 285 | 7 | ||
| 2025-12-29T12:39 | 19124 | 63 | 267 | 3 | ||
| 2025-12-29T12:39 | 19142 | 63 | -71.1 | |||
| 2025-12-29T12:39 | 19199 | 63 | 220 | 4 | ||
| 2025-12-29T12:39 | 19303 | 61 | -71.4 | |||
| 2025-12-29T12:40 | 19402 | 60 | 192 | 7 | ||
| 2025-12-29T12:40 | 19523 | 59 | -70.7 | |||
| 2025-12-29T12:41 | 19664 | 58 | -71.3 | |||
| 2025-12-29T12:41 | 19673 | 58 | 247 | 6 | ||
| 2025-12-29T12:41 | 19830 | 56 | -69.3 | 252 | 4 | |
| 2025-12-29T12:42 | 19914 | 55 | -67.7 | |||
| 2025-12-29T12:42 | 19982 | 55 | 248 | 7 | ||
| 2025-12-29T12:42 | 20149 | 53 | -68.0 | |||
| 2025-12-29T12:43 | 20252 | 52 | 245 | 7 | ||
| 2025-12-29T12:43 | 20355 | 52 | 220 | 7 | ||
| 2025-12-29T12:43 | 20448 | 51 | 206 | 8 | ||
| 2025-12-29T12:45 | 20752 | 48 | 219 | 7 | ||
| 2025-12-29T12:45 | 20878 | 47 | -68.7 | |||
| 2025-12-29T12:45 | 20916 | 47 | 229 | 7 | ||
| 2025-12-29T12:45 | 21005 | 46 | 296 | 9 | ||
| 2025-12-29T12:46 | 21180 | 45 | 327 | 8 | ||
| 2025-12-29T12:47 | 21370 | 44 | -65.4 | |||
| 2025-12-29T12:47 | 21400 | 43 | 302 | 4 | ||
| 2025-12-29T12:47 | 21484 | 43 | 277 | 5 | ||
| 2025-12-29T12:48 | 21794 | 41 | 352 | 5 | ||
| 2025-12-29T12:49 | 21979 | 39 | 93 | 1 | ||
| 2025-12-29T12:49 | 22089 | 39 | 268 | 3 | ||
| 2025-12-29T12:49 | 22201 | 38 | -61.8 | 286 | 3 | |
| 2025-12-29T12:50 | 22316 | 37 | 280 | 4 | ||
| 2025-12-29T12:50 | 22415 | 37 | 285 | 6 | ||
| 2025-12-29T12:50 | 22532 | 36 | 310 | 4 | ||
| 2025-12-29T12:51 | 22623 | 36 | 261 | 1 | ||
| 2025-12-29T12:51 | 22727 | 35 | -60.7 | 260 | 2 | |
| 2025-12-29T23:31 | 8 | 1013 | 19.2 | 18.2 | 60 | 6 |
| 2025-12-29T23:31 | 11 | 1013 | 19.3 | 18.6 | 61 | 1 |
| 2025-12-29T23:31 | 32 | 1010 | 77 | 2 | ||
| 2025-12-29T23:31 | 118 | 1000 | 68 | 14 | ||
| 2025-12-29T23:32 | 271 | 982 | 18.3 | 17.8 | ||
| 2025-12-29T23:32 | 386 | 969 | 67 | 14 | ||
| 2025-12-29T23:33 | 563 | 950 | 17.2 | 16.1 | ||
| 2025-12-29T23:33 | 624 | 943 | 86 | 12 | ||
| 2025-12-29T23:34 | 753 | 929 | 85 | 9 | ||
| 2025-12-29T23:34 | 906 | 912 | 16.0 | 14.9 | ||
| 2025-12-29T23:35 | 1065 | 895 | 107 | 7 | ||
| 2025-12-29T23:35 | 1166 | 885 | 14.8 | 13.7 | ||
| 2025-12-29T23:36 | 1339 | 867 | 107 | 6 | ||
| 2025-12-29T23:36 | 1399 | 861 | 100 | 2 | ||
| 2025-12-29T23:36 | 1426 | 858 | 13.8 | 12.4 | ||
| 2025-12-29T23:36 | 1452 | 855 | 187 | 3 | ||
| 2025-12-29T23:36 | 1534 | 847 | 186 | 3 | ||
| 2025-12-29T23:37 | 1584 | 842 | 154 | 3 | ||
| 2025-12-29T23:37 | 1672 | 833 | 231 | 3 | ||
| 2025-12-29T23:37 | 1726 | 828 | 260 | 4 | ||
| 2025-12-29T23:37 | 1820 | 819 | 246 | 6 | ||
| 2025-12-29T23:38 | 1861 | 815 | 10.8 | 10.5 | ||
| 2025-12-29T23:38 | 2020 | 800 | 254 | 9 | ||
| 2025-12-29T23:39 | 2138 | 788 | 9.6 | 9.3 | ||
| 2025-12-29T23:39 | 2180 | 784 | 237 | 8 | ||
| 2025-12-29T23:39 | 2317 | 771 | 9.3 | 9.0 | ||
| 2025-12-29T23:40 | 2459 | 758 | 194 | 5 | ||
| 2025-12-29T23:41 | 2753 | 732 | 172 | 7 | ||
| 2025-12-29T23:42 | 2999 | 710 | 6.1 | 6.0 | ||
| 2025-12-29T23:42 | 3095 | 702 | 197 | 9 | ||
| 2025-12-29T23:42 | 3272 | 687 | 3.8 | 3.2 | ||
| 2025-12-29T23:43 | 3432 | 674 | 211 | 9 | ||
| 2025-12-29T23:43 | 3610 | 659 | 1.0 | -1.6 | ||
| 2025-12-29T23:44 | 3709 | 651 | 230 | 10 | ||
| 2025-12-29T23:44 | 3850 | 639 | -0.5 | -5.7 | ||
| 2025-12-29T23:44 | 3955 | 631 | -1.0 | -8.2 | ||
| 2025-12-29T23:45 | 3984 | 629 | 252 | 9 | ||
| 2025-12-29T23:45 | 3996 | 628 | -1.2 | -9.1 | ||
| 2025-12-29T23:45 | 4025 | 626 | -1.3 | -8.3 | ||
| 2025-12-29T23:45 | 4074 | 622 | -1.6 | -10.9 | ||
| 2025-12-29T23:45 | 4141 | 617 | -2.1 | -10.2 | 243 | 11 |
| 2025-12-29T23:45 | 4186 | 613 | -2.0 | -14.4 | ||
| 2025-12-29T23:46 | 4392 | 597 | 267 | 17 | ||
| 2025-12-29T23:46 | 4408 | 596 | -2.9 | -16.2 | ||
| 2025-12-29T23:47 | 4699 | 575 | 272 | 20 | ||
| 2025-12-29T23:47 | 4734 | 572 | -5.4 | -19.9 | ||
| 2025-12-29T23:47 | 4788 | 568 | -4.2 | -22.3 | ||
| 2025-12-29T23:47 | 4833 | 565 | 277 | 21 | ||
| 2025-12-29T23:47 | 4895 | 560 | -3.1 | -23.5 | ||
| 2025-12-29T23:48 | 5126 | 544 | -3.5 | -26.5 | ||
| 2025-12-29T23:48 | 5141 | 543 | 274 | 24 | ||
| 2025-12-29T23:49 | 5433 | 523 | -4.7 | -28.2 | ||
| 2025-12-29T23:49 | 5450 | 522 | 276 | 25 | ||
| 2025-12-29T23:50 | 5570 | 514 | -5.0 | -29.2 | ||
| 2025-12-29T23:50 | 5615 | 511 | 276 | 29 | ||
| 2025-12-29T23:51 | 5905 | 493 | -6.4 | -33.1 | ||
| 2025-12-29T23:51 | 5951 | 490 | 274 | 30 | ||
| 2025-12-29T23:52 | 6315 | 468 | 271 | 31 | ||
| 2025-12-29T23:53 | 6678 | 446 | -12.5 | -37.0 | 271 | 31 |
| 2025-12-29T23:54 | 7059 | 424 | 277 | 33 | ||
| 2025-12-29T23:55 | 7379 | 406 | 273 | 35 | ||
| 2025-12-29T23:55 | 7553 | 397 | -19.4 | -43.4 | ||
| 2025-12-29T23:55 | 7685 | 390 | 266 | 38 | ||
| 2025-12-29T23:56 | 7877 | 380 | -20.2 | -44.0 | 271 | 41 |
| 2025-12-29T23:57 | 8249 | 361 | 268 | 41 | ||
| 2025-12-29T23:57 | 8273 | 360 | -22.7 | -48.0 | ||
| 2025-12-29T23:58 | 8515 | 349 | -23.7 | -45.2 | ||
| 2025-12-29T23:58 | 8541 | 347 | 270 | 42 | ||
| 2025-12-29T23:58 | 8734 | 338 | -25.2 | -39.9 | ||
| 2025-12-29T23:58 | 8761 | 337 | 273 | 44 | ||
| 2025-12-29T23:59 | 8939 | 329 | -26.3 | -43.1 | ||
| 2025-12-29T23:59 | 9168 | 318 | 272 | 47 | ||
| 2025-12-29T23:59 | 9229 | 316 | -28.8 | -43.9 | ||
| 2025-12-30T00:00 | 9458 | 306 | -30.2 | -44.3 | ||
| 2025-12-30T00:00 | 9568 | 301 | 265 | 48 | ||
| 2025-12-30T00:01 | 9851 | 289 | -32.2 | -50.2 | ||
| 2025-12-30T00:01 | 9955 | 285 | 268 | 46 | ||
| 2025-12-30T00:02 | 10314 | 271 | 259 | 45 | ||
| 2025-12-30T00:03 | 10459 | 265 | -36.4 | -56.3 | ||
| 2025-12-30T00:03 | 10672 | 257 | -36.4 | -58.8 | ||
| 2025-12-30T00:03 | 10691 | 256 | 252 | 45 | ||
| 2025-12-30T00:04 | 11047 | 244 | 254 | 44 | ||
| 2025-12-30T00:04 | 11093 | 242 | -40.0 | -61.7 | ||
| 2025-12-30T00:05 | 11394 | 231 | 258 | 47 | ||
| 2025-12-30T00:06 | 11573 | 225 | -42.9 | |||
| 2025-12-30T00:06 | 11754 | 219 | 260 | 45 | ||
| 2025-12-30T00:07 | 12102 | 208 | 257 | 44 | ||
| 2025-12-30T00:08 | 12445 | 198 | 254 | 45 | ||
| 2025-12-30T00:09 | 12787 | 187 | 252 | 45 | ||
| 2025-12-30T00:10 | 13125 | 178 | 255 | 44 | ||
| 2025-12-30T00:11 | 13303 | 173 | -58.4 | |||
| 2025-12-30T00:11 | 13485 | 168 | 252 | 42 | ||
| 2025-12-30T00:12 | 13731 | 161 | -61.2 | |||
| 2025-12-30T00:12 | 13845 | 158 | 251 | 41 | ||
| 2025-12-30T00:13 | 14200 | 149 | 244 | 40 | ||
| 2025-12-30T00:14 | 14505 | 142 | 247 | 41 | ||
| 2025-12-30T00:14 | 14540 | 141 | -67.7 | |||
| 2025-12-30T00:15 | 14703 | 138 | -68.3 | |||
| 2025-12-30T00:15 | 14800 | 135 | 239 | 39 | ||
| 2025-12-30T00:16 | 15070 | 129 | 242 | 38 | ||
| 2025-12-30T00:17 | 15423 | 122 | 251 | 34 | ||
| 2025-12-30T00:17 | 15584 | 118 | 257 | 31 | ||
| 2025-12-30T00:18 | 15711 | 116 | -76.2 | |||
| 2025-12-30T00:18 | 15891 | 112 | 255 | 33 | ||
| 2025-12-30T00:19 | 16162 | 107 | 254 | 33 | ||
| 2025-12-30T00:20 | 16196 | 106 | -80.4 | |||
| 2025-12-30T00:20 | 16418 | 102 | 263 | 32 | ||
| 2025-12-30T00:21 | 16677 | 98 | 276 | 26 | ||
| 2025-12-30T00:22 | 16833 | 95 | -81.6 | |||
| 2025-12-30T00:22 | 16873 | 94 | 264 | 23 | ||
| 2025-12-30T00:23 | 17150 | 90 | 264 | 20 | ||
| 2025-12-30T00:23 | 17190 | 89 | -79.6 | |||
| 2025-12-30T00:24 | 17435 | 85 | 286 | 20 | ||
| 2025-12-30T00:25 | 17720 | 81 | 291 | 13 | ||
| 2025-12-30T00:26 | 17882 | 79 | -79.8 | |||
| 2025-12-30T00:26 | 17911 | 79 | 273 | 13 | ||
| 2025-12-30T00:26 | 18050 | 77 | -80.3 | |||
| 2025-12-30T00:27 | 18209 | 75 | -78.5 | |||
| 2025-12-30T00:27 | 18238 | 74 | 228 | 17 | ||
| 2025-12-30T00:28 | 18535 | 70 | 229 | 12 | ||
| 2025-12-30T00:29 | 18799 | 67 | 216 | 9 | ||
| 2025-12-30T00:29 | 18875 | 66 | -81.1 | |||
| 2025-12-30T00:30 | 18922 | 66 | -79.9 | 218 | 14 | |
| 2025-12-30T11:31 | 8 | 1012 | 21.5 | 18.3 | 350 | 4 |
| 2025-12-30T11:31 | 14 | 1011 | 21.4 | 18.8 | 36 | 1 |
| 2025-12-30T11:31 | 58 | 1006 | 360 | 3 | ||
| 2025-12-30T11:31 | 124 | 998 | 8 | 8 | ||
| 2025-12-30T11:32 | 343 | 973 | 19.2 | 17.5 | ||
| 2025-12-30T11:32 | 394 | 967 | 19 | 9 | ||
| 2025-12-30T11:33 | 589 | 946 | 17.2 | 16.4 | ||
| 2025-12-30T11:33 | 636 | 940 | 45 | 6 | ||
| 2025-12-30T11:33 | 755 | 928 | 52 | 6 | ||
| 2025-12-30T11:34 | 1077 | 893 | 41 | 6 | ||
| 2025-12-30T11:35 | 1242 | 875 | 37 | 6 | ||
| 2025-12-30T11:35 | 1301 | 869 | 13.1 | 12.6 | ||
| 2025-12-30T11:35 | 1375 | 862 | 22 | 4 | ||
| 2025-12-30T11:36 | 1586 | 840 | 30 | 4 | ||
| 2025-12-30T11:36 | 1637 | 835 | 11.7 | 11.2 | ||
| 2025-12-30T11:36 | 1698 | 829 | 13 | 5 | ||
| 2025-12-30T11:37 | 1926 | 807 | 342 | 6 | ||
| 2025-12-30T11:37 | 2024 | 797 | 292 | 3 | ||
| 2025-12-30T11:38 | 2079 | 792 | 260 | 2 | ||
| 2025-12-30T11:38 | 2173 | 783 | 146 | 3 | ||
| 2025-12-30T11:39 | 2396 | 763 | 9.0 | 8.4 | ||
| 2025-12-30T11:39 | 2416 | 761 | 147 | 8 | ||
| 2025-12-30T11:39 | 2685 | 736 | 6.8 | 6.2 | ||
| 2025-12-30T11:40 | 2753 | 730 | 193 | 7 | ||
| 2025-12-30T11:40 | 2970 | 711 | 4.1 | 2.0 | 229 | 6 |
| 2025-12-30T11:41 | 3118 | 698 | 241 | 8 | ||
| 2025-12-30T11:41 | 3214 | 690 | 2.1 | -3.2 | ||
| 2025-12-30T11:41 | 3328 | 681 | 1.6 | -7.7 | ||
| 2025-12-30T11:41 | 3352 | 679 | 260 | 9 | ||
| 2025-12-30T11:42 | 3588 | 659 | 247 | 17 | ||
| 2025-12-30T11:42 | 3637 | 655 | 2.3 | -15.7 | ||
| 2025-12-30T11:42 | 3670 | 652 | 4.1 | -15.7 | ||
| 2025-12-30T11:43 | 3785 | 643 | 3.5 | -16.2 | ||
| 2025-12-30T11:43 | 3909 | 633 | 258 | 20 | ||
| 2025-12-30T11:44 | 4057 | 622 | 263 | 20 | ||
| 2025-12-30T11:44 | 4119 | 617 | 0.6 | -18.7 | ||
| 2025-12-30T11:44 | 4191 | 611 | 1.3 | -22.5 | ||
| 2025-12-30T11:44 | 4234 | 608 | 2.1 | -26.4 | ||
| 2025-12-30T11:44 | 4314 | 602 | 3.0 | -26.9 | ||
| 2025-12-30T11:45 | 4342 | 600 | 258 | 18 | ||
| 2025-12-30T11:45 | 4487 | 590 | 263 | 19 | ||
| 2025-12-30T11:46 | 4706 | 574 | 1.6 | -30.6 | ||
| 2025-12-30T11:46 | 4798 | 567 | 258 | 20 | ||
| 2025-12-30T11:47 | 4936 | 558 | 0.7 | -29.9 | ||
| 2025-12-30T11:47 | 5108 | 546 | 274 | 23 | ||
| 2025-12-30T11:48 | 5460 | 522 | 272 | 23 | ||
| 2025-12-30T11:48 | 5563 | 515 | -3.1 | -35.8 | ||
| 2025-12-30T11:49 | 5824 | 499 | 273 | 24 | ||
| 2025-12-30T11:50 | 6196 | 475 | 268 | 23 | ||
| 2025-12-30T11:51 | 6566 | 453 | 263 | 26 | ||
| 2025-12-30T11:51 | 6628 | 449 | -11.6 | -38.2 | ||
| 2025-12-30T11:52 | 6952 | 431 | 261 | 28 | ||
| 2025-12-30T11:53 | 7332 | 409 | 262 | 27 | ||
| 2025-12-30T11:53 | 7431 | 404 | -18.0 | -39.8 | ||
| 2025-12-30T11:54 | 7634 | 393 | -18.7 | -43.8 | ||
| 2025-12-30T11:54 | 7694 | 390 | 259 | 33 | ||
| 2025-12-30T11:55 | 8032 | 373 | 264 | 35 | ||
| 2025-12-30T11:56 | 8277 | 360 | -23.2 | -47.4 | ||
| 2025-12-30T11:56 | 8359 | 356 | 264 | 37 | ||
| 2025-12-30T11:57 | 8657 | 342 | -26.2 | -44.0 | ||
| 2025-12-30T11:57 | 8682 | 341 | 261 | 38 | ||
| 2025-12-30T11:58 | 8935 | 329 | -27.7 | -44.8 | ||
| 2025-12-30T11:58 | 8963 | 328 | 263 | 40 | ||
| 2025-12-30T11:58 | 8991 | 327 | -27.9 | -40.2 | ||
| 2025-12-30T11:59 | 9095 | 322 | -28.8 | -40.1 | ||
| 2025-12-30T11:59 | 9232 | 316 | -30.0 | -40.3 | ||
| 2025-12-30T11:59 | 9241 | 315 | 268 | 39 | ||
| 2025-12-30T12:00 | 9356 | 310 | -31.1 | -37.6 | ||
| 2025-12-30T12:00 | 9416 | 308 | -31.6 | -35.1 | ||
| 2025-12-30T12:00 | 9450 | 306 | -31.7 | -36.9 | ||
| 2025-12-30T12:00 | 9498 | 304 | -31.5 | -42.5 | ||
| 2025-12-30T12:00 | 9502 | 304 | 266 | 41 | ||
| 2025-12-30T12:00 | 9604 | 300 | -31.8 | -44.6 | ||
| 2025-12-30T12:01 | 9717 | 295 | -32.8 | -42.3 | ||
| 2025-12-30T12:01 | 9754 | 293 | 261 | 42 | ||
| 2025-12-30T12:02 | 9882 | 288 | -34.1 | -43.8 | ||
| 2025-12-30T12:02 | 10002 | 283 | 260 | 43 | ||
| 2025-12-30T12:02 | 10027 | 282 | -34.7 | -48.2 | ||
| 2025-12-30T12:03 | 10265 | 273 | 260 | 45 | ||
| 2025-12-30T12:04 | 10418 | 267 | -37.4 | -53.5 | ||
| 2025-12-30T12:04 | 10565 | 261 | 255 | 44 | ||
| 2025-12-30T12:05 | 10779 | 253 | -40.0 | -56.2 | ||
| 2025-12-30T12:05 | 10834 | 251 | 257 | 46 | ||
| 2025-12-30T12:06 | 11076 | 242 | 253 | 46 | ||
| 2025-12-30T12:07 | 11319 | 234 | -44.1 | |||
| 2025-12-30T12:07 | 11324 | 234 | 253 | 45 | ||
| 2025-12-30T12:08 | 11537 | 226 | -45.1 | |||
| 2025-12-30T12:08 | 11579 | 225 | 252 | 44 | ||
| 2025-12-30T12:09 | 11821 | 217 | -46.4 | |||
| 2025-12-30T12:09 | 11844 | 216 | 250 | 44 | ||
| 2025-12-30T12:10 | 12124 | 207 | 257 | 42 | ||
| 2025-12-30T12:11 | 12351 | 200 | -50.0 | |||
| 2025-12-30T12:11 | 12409 | 198 | 260 | 42 | ||
| 2025-12-30T12:12 | 12686 | 190 | 261 | 42 | ||
| 2025-12-30T12:13 | 12969 | 182 | 261 | 43 | ||
| 2025-12-30T12:14 | 13245 | 174 | 262 | 43 | ||
| 2025-12-30T12:14 | 13324 | 172 | -58.8 | |||
| 2025-12-30T12:15 | 13401 | 170 | -58.3 | |||
| 2025-12-30T12:15 | 13518 | 167 | 258 | 45 | ||
| 2025-12-30T12:16 | 13799 | 159 | 259 | 43 | ||
| 2025-12-30T12:17 | 14124 | 151 | 253 | 45 | ||
| 2025-12-30T12:18 | 14365 | 145 | -66.7 | |||
| 2025-12-30T12:18 | 14447 | 143 | 250 | 45 | ||
| 2025-12-30T12:19 | 14613 | 139 | -67.6 | |||
| 2025-12-30T12:19 | 14744 | 136 | 243 | 45 | ||
| 2025-12-30T12:20 | 15036 | 130 | 241 | 45 | ||
| 2025-12-30T12:21 | 15334 | 123 | 244 | 41 | ||
| 2025-12-30T12:21 | 15339 | 123 | -71.4 | |||
| 2025-12-30T12:22 | 15624 | 117 | 247 | 38 | ||
| 2025-12-30T12:23 | 15775 | 114 | -74.4 | |||
| 2025-12-30T12:23 | 15917 | 112 | 251 | 35 | ||
| 2025-12-30T12:24 | 16206 | 106 | 261 | 32 | ||
| 2025-12-30T12:25 | 16424 | 102 | -79.1 | |||
| 2025-12-30T12:25 | 16506 | 101 | 266 | 31 | ||
| 2025-12-30T12:26 | 16823 | 95 | 263 | 29 | ||
| 2025-12-30T12:27 | 16965 | 93 | 257 | 28 | ||
| 2025-12-30T12:27 | 16987 | 92 | -83.1 | |||
| 2025-12-30T12:27 | 17229 | 89 | -82.2 | |||
| 2025-12-30T12:28 | 17250 | 88 | 244 | 25 | ||
| 2025-12-30T12:28 | 17410 | 86 | -81.8 | |||
| 2025-12-30T12:28 | 17456 | 85 | 243 | 21 | ||
| 2025-12-30T12:29 | 17638 | 82 | -81.2 | |||
| 2025-12-30T12:29 | 17680 | 82 | 224 | 16 | ||
| 2025-12-30T12:29 | 17728 | 81 | -78.8 | |||
| 2025-12-30T12:30 | 17963 | 78 | 228 | 17 | ||
| 2025-12-30T12:31 | 18248 | 74 | 235 | 19 | ||
| 2025-12-30T12:32 | 18364 | 72 | -80.3 | |||
| 2025-12-30T12:32 | 18530 | 70 | 256 | 12 | ||
| 2025-12-30T12:33 | 18821 | 67 | 263 | 12 | ||
| 2025-12-30T12:33 | 18864 | 66 | -78.4 | |||
| 2025-12-30T12:34 | 19054 | 64 | 275 | 12 | ||
| 2025-12-30T12:34 | 19118 | 63 | -74.8 | |||
| 2025-12-30T12:35 | 19195 | 63 | 264 | 6 | ||
| 2025-12-30T12:35 | 19213 | 62 | -74.1 | |||
| 2025-12-30T12:35 | 19270 | 62 | -72.8 | 278 | 3 | |
| 2025-12-30T12:35 | 19326 | 61 | -70.8 | |||
| 2025-12-30T12:35 | 19345 | 61 | 176 | 3 | ||
| 2025-12-30T12:36 | 19504 | 59 | -71.6 | 165 | 7 | |
| 2025-12-30T23:31 | 8 | 1012 | 21.0 | 19.3 | 30 | 4 |
| 2025-12-30T23:31 | 15 | 1011 | 21.0 | 19.7 | 0 | 0 |
| 2025-12-30T23:31 | 59 | 1006 | 68 | 3 | ||
| 2025-12-30T23:31 | 106 | 1000 | 36 | 6 | ||
| 2025-12-30T23:31 | 157 | 995 | 19.9 | 18.7 | ||
| 2025-12-30T23:32 | 229 | 986 | 20.0 | 18.3 | ||
| 2025-12-30T23:32 | 249 | 984 | 41 | 6 | ||
| 2025-12-30T23:32 | 334 | 975 | 46 | 7 | ||
| 2025-12-30T23:32 | 452 | 961 | 50 | 6 | ||
| 2025-12-30T23:33 | 663 | 938 | 17.1 | 16.6 | ||
| 2025-12-30T23:33 | 720 | 931 | 53 | 4 | ||
| 2025-12-30T23:34 | 962 | 906 | 15.5 | 15.0 | ||
| 2025-12-30T23:34 | 993 | 902 | 43 | 3 | ||
| 2025-12-30T23:34 | 1077 | 893 | 15.2 | 14.2 | ||
| 2025-12-30T23:35 | 1178 | 883 | 73 | 2 | ||
| 2025-12-30T23:36 | 1501 | 850 | 9 | 1 | ||
| 2025-12-30T23:36 | 1594 | 840 | 11.8 | 11.3 | ||
| 2025-12-30T23:37 | 1826 | 817 | 261 | 2 | ||
| 2025-12-30T23:37 | 2010 | 800 | 10.1 | 9.5 | ||
| 2025-12-30T23:38 | 2140 | 787 | 230 | 3 | ||
| 2025-12-30T23:38 | 2227 | 779 | 230 | 3 | ||
| 2025-12-30T23:38 | 2253 | 777 | 9.2 | 7.5 | ||
| 2025-12-30T23:38 | 2347 | 768 | 256 | 4 | ||
| 2025-12-30T23:39 | 2496 | 754 | 247 | 4 | ||
| 2025-12-30T23:39 | 2513 | 753 | 7.2 | 5.3 | ||
| 2025-12-30T23:39 | 2616 | 743 | 233 | 4 | ||
| 2025-12-30T23:39 | 2667 | 739 | 6.0 | 4.5 | ||
| 2025-12-30T23:40 | 2736 | 732 | 237 | 3 | ||
| 2025-12-30T23:40 | 2771 | 729 | 5.7 | 2.5 | ||
| 2025-12-30T23:40 | 2805 | 726 | 252 | 3 | ||
| 2025-12-30T23:40 | 2878 | 720 | 317 | 5 | ||
| 2025-12-30T23:40 | 3012 | 708 | 314 | 7 | ||
| 2025-12-30T23:40 | 3028 | 707 | 3.9 | 1.1 | ||
| 2025-12-30T23:41 | 3087 | 702 | 5.0 | -5.7 | ||
| 2025-12-30T23:41 | 3143 | 697 | 298 | 10 | ||
| 2025-12-30T23:41 | 3183 | 693 | 4.9 | -9.7 | ||
| 2025-12-30T23:42 | 3487 | 668 | 2.7 | -15.4 | 284 | 14 |
| 2025-12-30T23:42 | 3669 | 653 | 3.8 | -20.5 | ||
| 2025-12-30T23:42 | 3704 | 650 | 4.5 | -23.5 | ||
| 2025-12-30T23:43 | 3733 | 648 | 5.9 | -27.4 | ||
| 2025-12-30T23:43 | 3840 | 639 | 284 | 18 | ||
| 2025-12-30T23:43 | 3875 | 637 | 5.3 | -27.9 | ||
| 2025-12-30T23:44 | 4194 | 612 | 273 | 20 | ||
| 2025-12-30T23:44 | 4201 | 612 | 3.1 | -35.3 | ||
| 2025-12-30T23:45 | 4564 | 585 | 1.5 | -32.3 | 260 | 17 |
| 2025-12-30T23:46 | 4891 | 561 | 259 | 20 | ||
| 2025-12-30T23:46 | 5047 | 550 | -2.1 | -39.0 | ||
| 2025-12-30T23:47 | 5236 | 537 | 260 | 21 | ||
| 2025-12-30T23:48 | 5578 | 514 | 257 | 24 | ||
| 2025-12-30T23:48 | 5659 | 509 | -6.3 | -38.1 | ||
| 2025-12-30T23:49 | 5933 | 491 | 248 | 25 | ||
| 2025-12-30T23:49 | 5987 | 488 | -8.5 | -41.5 | ||
| 2025-12-30T23:49 | 6140 | 478 | -9.2 | -42.1 | ||
| 2025-12-30T23:50 | 6283 | 470 | 252 | 22 | ||
| 2025-12-30T23:50 | 6422 | 461 | -11.3 | -45.7 | ||
| 2025-12-30T23:51 | 6620 | 449 | 251 | 26 | ||
| 2025-12-30T23:52 | 6964 | 430 | 249 | 27 | ||
| 2025-12-30T23:52 | 7004 | 427 | -15.4 | -42.3 | ||
| 2025-12-30T23:52 | 7231 | 415 | 251 | 29 | ||
| 2025-12-30T23:53 | 7434 | 404 | 251 | 31 | ||
| 2025-12-30T23:53 | 7506 | 400 | -19.0 | -46.4 | ||
| 2025-12-30T23:54 | 7701 | 389 | -19.9 | -38.2 | ||
| 2025-12-30T23:54 | 7779 | 385 | 249 | 32 | ||
| 2025-12-30T23:55 | 7938 | 377 | -21.4 | -34.1 | ||
| 2025-12-30T23:55 | 8072 | 370 | -22.2 | -39.6 | ||
| 2025-12-30T23:55 | 8112 | 368 | -22.6 | -34.2 | ||
| 2025-12-30T23:55 | 8129 | 367 | 252 | 34 | ||
| 2025-12-30T23:55 | 8158 | 366 | -23.0 | -28.4 | ||
| 2025-12-30T23:55 | 8250 | 361 | -23.9 | -28.3 | ||
| 2025-12-30T23:56 | 8395 | 354 | -24.6 | -32.7 | ||
| 2025-12-30T23:56 | 8466 | 351 | 249 | 36 | ||
| 2025-12-30T23:57 | 8635 | 343 | -26.5 | -31.9 | ||
| 2025-12-30T23:57 | 8798 | 335 | -27.9 | -33.5 | ||
| 2025-12-30T23:57 | 8816 | 334 | 252 | 35 | ||
| 2025-12-30T23:57 | 8895 | 330 | -28.5 | -35.3 | ||
| 2025-12-30T23:57 | 8956 | 328 | -28.6 | -37.3 | ||
| 2025-12-30T23:58 | 9166 | 318 | 251 | 41 | ||
| 2025-12-30T23:58 | 9201 | 317 | -29.1 | -43.0 | ||
| 2025-12-30T23:59 | 9330 | 311 | -29.9 | -43.7 | ||
| 2025-12-30T23:59 | 9398 | 308 | 249 | 42 | ||
| 2025-12-30T23:59 | 9619 | 298 | -32.2 | -46.0 | ||
| 2025-12-31T00:00 | 9741 | 293 | 251 | 43 | ||
| 2025-12-31T00:01 | 10097 | 279 | 253 | 45 | ||
| 2025-12-31T00:02 | 10409 | 266 | 253 | 45 | ||
| 2025-12-31T00:02 | 10481 | 264 | -39.3 | -50.1 | ||
| 2025-12-31T00:03 | 10606 | 259 | -40.0 | -53.6 | ||
| 2025-12-31T00:03 | 10669 | 257 | 255 | 45 | ||
| 2025-12-31T00:04 | 10940 | 246 | 255 | 46 | ||
| 2025-12-31T00:04 | 10950 | 246 | -42.1 | |||
| 2025-12-31T00:05 | 11258 | 235 | 251 | 47 | ||
| 2025-12-31T00:05 | 11273 | 235 | -44.4 | |||
| 2025-12-31T00:05 | 11430 | 229 | -43.8 | |||
| 2025-12-31T00:06 | 11537 | 226 | 253 | 48 | ||
| 2025-12-31T00:07 | 11833 | 216 | 250 | 45 | ||
| 2025-12-31T00:08 | 12111 | 207 | 250 | 44 | ||
| 2025-12-31T00:08 | 12144 | 206 | -49.1 | |||
| 2025-12-31T00:09 | 12394 | 198 | 251 | 44 | ||
| 2025-12-31T00:10 | 12682 | 189 | 252 | 46 | ||
| 2025-12-31T00:11 | 12977 | 181 | 253 | 46 | ||
| 2025-12-31T00:12 | 13274 | 172 | 254 | 47 | ||
| 2025-12-31T00:12 | 13343 | 171 | -59.4 | |||
| 2025-12-31T00:13 | 13569 | 164 | 253 | 47 | ||
| 2025-12-31T00:14 | 13853 | 157 | 252 | 48 | ||
| 2025-12-31T00:15 | 14073 | 151 | -65.6 | |||
| 2025-12-31T00:15 | 14134 | 150 | 250 | 51 | ||
| 2025-12-31T00:16 | 14404 | 143 | 248 | 51 | ||
| 2025-12-31T00:17 | 14606 | 139 | -68.8 | |||
| 2025-12-31T00:17 | 14668 | 137 | 244 | 51 | ||
| 2025-12-31T00:18 | 14890 | 132 | -69.7 | |||
| 2025-12-31T00:18 | 14915 | 132 | 236 | 48 | ||
| 2025-12-31T00:18 | 14984 | 130 | -68.1 | |||
| 2025-12-31T00:18 | 15074 | 128 | 242 | 42 | ||
| 2025-12-31T00:19 | 15384 | 122 | -70.7 | |||
| 2025-12-31T00:19 | 15421 | 121 | 256 | 38 | ||
| 2025-12-31T00:20 | 15756 | 114 | 260 | 36 | ||
| 2025-12-31T00:21 | 16061 | 108 | 263 | 36 | ||
| 2025-12-31T00:22 | 16363 | 103 | 266 | 35 | ||
| 2025-12-31T00:22 | 16409 | 102 | -80.0 | |||
| 2025-12-31T00:23 | 16632 | 98 | 251 | 25 | ||
| 2025-12-31T00:23 | 16701 | 97 | -79.8 | |||
| 2025-12-31T00:24 | 16779 | 96 | -78.9 | |||
| 2025-12-31T00:24 | 16916 | 93 | 240 | 22 | ||
| 2025-12-31T00:25 | 17107 | 90 | -78.8 | |||
| 2025-12-31T00:25 | 17224 | 88 | 238 | 20 | ||
| 2025-12-31T00:26 | 17510 | 84 | -81.4 | |||
| 2025-12-31T00:26 | 17525 | 84 | 231 | 22 | ||
| 2025-12-31T00:27 | 17828 | 79 | 234 | 21 | ||
| 2025-12-31T00:28 | 18076 | 76 | -80.7 | |||
| 2025-12-31T00:28 | 18135 | 75 | 250 | 18 | ||
| 2025-12-31T00:29 | 18288 | 73 | -80.1 | |||
| 2025-12-31T00:29 | 18428 | 71 | 253 | 15 | ||
| 2025-12-31T00:29 | 18530 | 70 | -81.2 | |||
| 2025-12-31T00:30 | 18721 | 68 | 238 | 13 | ||
| 2025-12-31T00:30 | 18830 | 66 | -79.3 | |||
| 2025-12-31T00:31 | 18955 | 65 | -73.4 | |||
| 2025-12-31T00:31 | 18999 | 65 | 260 | 12 | ||
| 2025-12-31T00:32 | 19182 | 63 | 257 | 12 | ||
| 2025-12-31T00:32 | 19318 | 61 | -71.6 | |||
| 2025-12-31T00:33 | 19501 | 59 | -72.4 | 255 | 17 | |
| 2025-12-31T00:33 | 19695 | 57 | -69.2 | |||
| 2025-12-31T00:34 | 19812 | 56 | -69.1 | 293 | 12 | |
| 2025-12-31T00:34 | 19886 | 56 | -66.1 | |||
| 2025-12-31T00:34 | 20009 | 54 | 321 | 5 | ||
| 2025-12-31T00:35 | 20260 | 52 | 342 | 4 | ||
| 2025-12-31T00:35 | 20353 | 51 | -65.6 | |||
| 2025-12-31T00:35 | 20390 | 51 | 261 | 1 | ||
| 2025-12-31T00:36 | 20484 | 50 | 205 | 3 | ||
| 2025-12-31T00:36 | 20581 | 50 | 219 | 4 | ||
| 2025-12-31T00:36 | 20705 | 49 | -66.3 | |||
| 2025-12-31T00:37 | 20756 | 48 | 309 | 3 | ||
| 2025-12-31T00:37 | 21041 | 46 | 85 | 2 | ||
| 2025-12-31T00:38 | 21118 | 45 | 116 | 4 | ||
| 2025-12-31T00:38 | 21172 | 45 | -65.1 | |||
| 2025-12-31T00:38 | 21322 | 44 | 158 | 7 | ||
| 2025-12-31T00:39 | 21451 | 43 | 190 | 1 | ||
| 2025-12-31T00:39 | 21538 | 42 | 346 | 3 | ||
| 2025-12-31T00:39 | 21639 | 42 | -63.5 | |||
| 2025-12-31T00:39 | 21652 | 42 | 141 | 3 | ||
| 2025-12-31T00:40 | 21802 | 41 | 167 | 8 | ||
| 2025-12-31T00:41 | 22051 | 39 | 193 | 7 | ||
| 2025-12-31T00:41 | 22244 | 38 | 198 | 4 | ||
| 2025-12-31T00:42 | 22428 | 37 | 196 | 3 | ||
| 2025-12-31T00:42 | 22649 | 35 | 233 | 7 | ||
| 2025-12-31T00:43 | 22863 | 34 | 282 | 3 | ||
| 2025-12-31T00:43 | 22937 | 34 | -60.6 | |||
| 2025-12-31T00:43 | 22975 | 34 | 280 | 2 | ||
| 2025-12-31T00:44 | 23321 | 32 | 174 | 1 | ||
| 2025-12-31T00:45 | 23503 | 31 | 227 | 3 | ||
| 2025-12-31T00:45 | 23691 | 30 | 76 | 3 | ||
| 2025-12-31T00:45 | 23734 | 30 | -55.6 | |||
| 2025-12-31T00:46 | 23865 | 29 | 78 | 2 | ||
| 2025-12-31T00:46 | 24108 | 28 | 121 | 3 | ||
| 2025-12-31T00:47 | 24178 | 28 | -56.5 | 119 | 4 | |
| 2025-12-31T11:31 | 8 | 1011 | 20.6 | 19.3 | 30 | 8 |
| 2025-12-31T11:31 | 10 | 1011 | 20.6 | 19.8 | 30 | 1 |
| 2025-12-31T11:31 | 68 | 1004 | 26 | 10 | ||
| 2025-12-31T11:31 | 126 | 998 | 19.7 | 19.0 | ||
| 2025-12-31T11:32 | 173 | 992 | 39 | 14 | ||
| 2025-12-31T11:32 | 346 | 972 | 18.1 | 18.1 | ||
| 2025-12-31T11:33 | 456 | 960 | 48 | 17 | ||
| 2025-12-31T11:33 | 584 | 946 | 52 | 16 | ||
| 2025-12-31T11:33 | 607 | 943 | 16.9 | 16.7 | ||
| 2025-12-31T11:34 | 784 | 924 | 57 | 15 | ||
| 2025-12-31T11:35 | 897 | 912 | 57 | 12 | ||
| 2025-12-31T11:35 | 910 | 910 | 16.0 | 15.0 | ||
| 2025-12-31T11:35 | 1025 | 898 | 59 | 8 | ||
| 2025-12-31T11:36 | 1224 | 877 | 59 | 7 | ||
| 2025-12-31T11:36 | 1356 | 864 | 36 | 5 | ||
| 2025-12-31T11:37 | 1531 | 846 | 13.0 | 11.6 | ||
| 2025-12-31T11:37 | 1627 | 837 | 56 | 3 | ||
| 2025-12-31T11:38 | 1938 | 806 | 10.3 | 10.1 | ||
| 2025-12-31T11:38 | 1989 | 801 | 61 | 2 | ||
| 2025-12-31T11:38 | 2040 | 796 | 9.6 | 9.3 | ||
| 2025-12-31T11:38 | 2079 | 793 | 8.9 | 8.8 | ||
| 2025-12-31T11:38 | 2180 | 783 | 216 | 3 | ||
| 2025-12-31T11:39 | 2262 | 775 | 7.5 | 6.1 | ||
| 2025-12-31T11:39 | 2302 | 772 | 219 | 6 | ||
| 2025-12-31T11:39 | 2405 | 762 | 6.7 | 3.8 | ||
| 2025-12-31T11:40 | 2567 | 747 | 6.7 | 4.2 | 184 | 5 |
| 2025-12-31T11:40 | 2754 | 730 | 6.5 | 6.1 | ||
| 2025-12-31T11:40 | 2811 | 725 | 6.3 | 5.1 | 159 | 7 |
| 2025-12-31T11:40 | 2899 | 718 | 5.6 | 0.6 | ||
| 2025-12-31T11:41 | 2959 | 712 | 195 | 3 | ||
| 2025-12-31T11:41 | 3048 | 705 | 5.4 | -1.7 | ||
| 2025-12-31T11:41 | 3065 | 703 | 203 | 4 | ||
| 2025-12-31T11:41 | 3149 | 696 | 174 | 3 | ||
| 2025-12-31T11:41 | 3201 | 692 | 212 | 2 | ||
| 2025-12-31T11:42 | 3269 | 686 | 284 | 3 | ||
| 2025-12-31T11:42 | 3304 | 683 | 3.2 | -3.6 | ||
| 2025-12-31T11:42 | 3357 | 678 | 3.4 | -5.0 | ||
| 2025-12-31T11:42 | 3375 | 677 | 3.2 | -5.7 | ||
| 2025-12-31T11:42 | 3404 | 674 | 3.9 | -7.5 | ||
| 2025-12-31T11:42 | 3476 | 668 | 265 | 10 | ||
| 2025-12-31T11:42 | 3548 | 662 | 2.8 | -10.1 | ||
| 2025-12-31T11:43 | 3617 | 657 | 3.8 | -15.5 | ||
| 2025-12-31T11:43 | 3699 | 650 | 268 | 18 | ||
| 2025-12-31T11:43 | 3835 | 639 | 3.8 | -19.1 | ||
| 2025-12-31T11:44 | 4020 | 625 | 266 | 17 | ||
| 2025-12-31T11:44 | 4244 | 608 | 1.1 | -22.0 | ||
| 2025-12-31T11:45 | 4382 | 598 | 264 | 19 | ||
| 2025-12-31T11:45 | 4602 | 581 | 257 | 21 | ||
| 2025-12-31T11:46 | 4685 | 575 | -1.6 | -27.4 | ||
| 2025-12-31T11:46 | 4941 | 557 | 253 | 24 | ||
| 2025-12-31T11:46 | 4977 | 554 | -3.1 | -29.5 | ||
| 2025-12-31T11:47 | 5308 | 532 | 247 | 25 | ||
| 2025-12-31T11:48 | 5525 | 517 | 244 | 25 | ||
| 2025-12-31T11:48 | 5592 | 513 | -7.9 | -28.7 | ||
| 2025-12-31T11:49 | 5908 | 492 | 239 | 29 | ||
| 2025-12-31T11:49 | 6108 | 479 | -11.4 | -37.0 | ||
| 2025-12-31T11:50 | 6243 | 471 | 236 | 29 | ||
| 2025-12-31T11:51 | 6630 | 448 | 241 | 33 | ||
| 2025-12-31T11:51 | 6648 | 447 | -13.8 | -37.2 | ||
| 2025-12-31T11:52 | 6857 | 435 | -15.0 | -36.6 | ||
| 2025-12-31T11:52 | 6901 | 432 | -15.3 | -25.1 | ||
| 2025-12-31T11:52 | 6936 | 430 | -15.4 | -20.1 | ||
| 2025-12-31T11:52 | 6941 | 430 | 240 | 34 | ||
| 2025-12-31T11:52 | 7032 | 425 | -16.3 | -17.3 | ||
| 2025-12-31T11:52 | 7166 | 417 | 240 | 36 | ||
| 2025-12-31T11:53 | 7178 | 417 | -17.6 | -18.1 | ||
| 2025-12-31T11:53 | 7218 | 414 | -18.0 | -25.7 | ||
| 2025-12-31T11:53 | 7253 | 412 | -16.7 | -27.1 | ||
| 2025-12-31T11:53 | 7494 | 399 | -18.6 | -28.6 | ||
| 2025-12-31T11:53 | 7500 | 399 | 244 | 37 | ||
| 2025-12-31T11:54 | 7823 | 382 | 252 | 39 | ||
| 2025-12-31T11:55 | 7921 | 377 | -22.1 | -25.2 | ||
| 2025-12-31T11:55 | 8138 | 366 | 250 | 40 | ||
| 2025-12-31T11:56 | 8323 | 357 | -25.5 | -27.3 | ||
| 2025-12-31T11:56 | 8445 | 351 | 246 | 42 | ||
| 2025-12-31T11:57 | 8577 | 344 | -27.5 | -30.0 | ||
| 2025-12-31T11:57 | 8680 | 339 | -28.2 | -31.1 | ||
| 2025-12-31T11:57 | 8710 | 338 | 244 | 44 | ||
| 2025-12-31T11:57 | 8733 | 337 | -27.8 | -32.2 | ||
| 2025-12-31T11:58 | 8844 | 332 | -28.3 | -31.6 | ||
| 2025-12-31T11:58 | 8895 | 329 | 242 | 49 | ||
| 2025-12-31T11:58 | 8960 | 326 | -29.1 | -33.8 | ||
| 2025-12-31T11:58 | 9058 | 322 | -29.0 | -42.5 | ||
| 2025-12-31T11:59 | 9220 | 315 | 250 | 50 | ||
| 2025-12-31T11:59 | 9252 | 313 | -29.6 | -50.0 | ||
| 2025-12-31T12:00 | 9514 | 302 | 247 | 49 | ||
| 2025-12-31T12:01 | 9755 | 292 | -33.1 | -53.6 | ||
| 2025-12-31T12:01 | 9807 | 290 | 248 | 49 | ||
| 2025-12-31T12:02 | 9987 | 282 | -34.0 | -55.1 | ||
| 2025-12-31T12:02 | 10060 | 279 | 251 | 50 | ||
| 2025-12-31T12:03 | 10316 | 269 | 251 | 51 | ||
| 2025-12-31T12:04 | 10595 | 259 | 249 | 51 | ||
| 2025-12-31T12:04 | 10689 | 255 | -39.6 | -59.7 | ||
| 2025-12-31T12:05 | 10838 | 250 | -40.0 | -59.2 | ||
| 2025-12-31T12:05 | 10858 | 249 | 244 | 55 | ||
| 2025-12-31T12:06 | 11105 | 240 | 244 | 56 | ||
| 2025-12-31T12:07 | 11358 | 231 | 244 | 56 | ||
| 2025-12-31T12:08 | 11611 | 222 | 244 | 54 | ||
| 2025-12-31T12:09 | 11886 | 213 | 243 | 55 | ||
| 2025-12-31T12:10 | 12173 | 204 | -50.3 | |||
| 2025-12-31T12:10 | 12200 | 203 | 249 | 55 | ||
| 2025-12-31T12:11 | 12485 | 195 | 251 | 55 | ||
| 2025-12-31T12:12 | 12745 | 187 | 252 | 54 | ||
| 2025-12-31T12:12 | 12799 | 185 | -54.2 | |||
| 2025-12-31T12:13 | 12992 | 180 | 258 | 57 | ||
| 2025-12-31T12:14 | 13239 | 173 | 255 | 56 | ||
| 2025-12-31T12:15 | 13485 | 166 | -58.8 | |||
| 2025-12-31T12:15 | 13489 | 166 | 254 | 56 | ||
| 2025-12-31T12:16 | 13770 | 159 | 252 | 55 | ||
| 2025-12-31T12:17 | 14055 | 152 | 249 | 55 | ||
| 2025-12-31T12:18 | 14351 | 145 | 247 | 57 | ||
| 2025-12-31T12:18 | 14474 | 142 | -66.9 | |||
| 2025-12-31T12:19 | 14642 | 138 | 246 | 58 | ||
| 2025-12-31T12:20 | 14919 | 132 | 245 | 58 | ||
| 2025-12-31T12:21 | 15183 | 126 | -73.0 | 246 | 57 | |
| 2025-12-31T12:22 | 15455 | 120 | 242 | 54 | ||
| 2025-12-31T12:22 | 15619 | 117 | -75.0 | |||
| 2025-12-31T12:23 | 15751 | 114 | 242 | 52 | ||
| 2025-12-31T12:23 | 15883 | 111 | -76.9 | |||
| 2025-12-31T12:24 | 16099 | 107 | -76.2 | 250 | 44 | |
| 2025-12-31T12:25 | 16426 | 101 | 252 | 40 | ||
| 2025-12-31T12:25 | 16514 | 100 | -78.4 | |||
| 2025-12-31T12:26 | 16715 | 96 | 242 | 35 | ||
| 2025-12-31T12:26 | 16829 | 95 | -77.1 | |||
| 2025-12-31T12:27 | 16943 | 93 | 243 | 29 | ||
| 2025-12-31T12:27 | 17006 | 92 | -77.4 | |||
| 2025-12-31T12:27 | 17166 | 89 | -76.6 | |||
| 2025-12-31T12:28 | 17211 | 88 | 241 | 26 | ||
| 2025-12-31T12:29 | 17504 | 84 | 262 | 24 | ||
| 2025-12-31T12:29 | 17531 | 84 | -77.6 | |||
| 2025-12-31T12:30 | 17796 | 80 | 266 | 22 | ||
| 2025-12-31T12:31 | 18063 | 76 | 263 | 21 | ||
| 2025-12-31T12:31 | 18252 | 74 | -81.6 | |||
| 2025-12-31T12:31 | 18259 | 74 | 253 | 19 | ||
| 2025-12-31T12:32 | 18399 | 72 | 224 | 18 | ||
| 2025-12-31T12:33 | 18597 | 69 | -79.0 | |||
| 2025-12-31T12:33 | 18641 | 69 | 232 | 20 | ||
| 2025-12-31T12:33 | 18688 | 68 | -77.7 | |||
| 2025-12-31T12:33 | 18757 | 67 | -74.9 | |||
| 2025-12-31T12:33 | 18818 | 67 | 238 | 23 | ||
| 2025-12-31T12:34 | 18898 | 66 | -73.2 | |||
| 2025-12-31T12:34 | 19088 | 64 | -73.1 | |||
| 2025-12-31T12:34 | 19136 | 63 | 253 | 21 | ||
| 2025-12-31T12:35 | 19372 | 61 | -71.8 | 259 | 20 | |
| 2025-12-31T12:36 | 19494 | 59 | -69.1 | |||
| 2025-12-31T12:36 | 19615 | 58 | 274 | 7 | ||
| 2025-12-31T12:36 | 19687 | 58 | -67.0 | |||
| 2025-12-31T12:37 | 19719 | 57 | 261 | 8 | ||
| 2025-12-31T12:37 | 19761 | 57 | 254 | 9 | ||
| 2025-12-31T12:38 | 19787 | 57 | -67.5 | 233 | 13 | |
| 2025-12-31T23:31 | 8 | 1013 | 18.9 | 17.6 | 50 | 8 |
| 2025-12-31T23:31 | 14 | 1012 | 19.0 | 18.0 | 50 | 4 |
| 2025-12-31T23:31 | 42 | 1009 | 47 | 1 | ||
| 2025-12-31T23:31 | 92 | 1003 | 55 | 9 | ||
| 2025-12-31T23:32 | 217 | 988 | 17.4 | 16.8 | ||
| 2025-12-31T23:32 | 247 | 985 | 50 | 17 | ||
| 2025-12-31T23:33 | 560 | 949 | 15.3 | 14.8 | ||
| 2025-12-31T23:33 | 617 | 943 | 53 | 15 | ||
| 2025-12-31T23:33 | 706 | 933 | 14.9 | 13.9 | ||
| 2025-12-31T23:34 | 990 | 903 | 49 | 13 | ||
| 2025-12-31T23:34 | 1176 | 883 | 12.0 | 11.8 | ||
| 2025-12-31T23:34 | 1266 | 873 | 11.8 | 11.2 | ||
| 2025-12-31T23:35 | 1333 | 866 | 67 | 11 | ||
| 2025-12-31T23:35 | 1553 | 844 | 76 | 7 | ||
| 2025-12-31T23:35 | 1558 | 843 | 10.3 | 10.3 | ||
| 2025-12-31T23:36 | 1691 | 830 | 76 | 7 | ||
| 2025-12-31T23:36 | 1877 | 812 | 97 | 5 | ||
| 2025-12-31T23:36 | 1901 | 809 | 9.5 | 9.5 | ||
| 2025-12-31T23:37 | 2056 | 794 | 153 | 3 | ||
| 2025-12-31T23:37 | 2254 | 776 | 215 | 3 | ||
| 2025-12-31T23:37 | 2296 | 772 | 7.5 | 7.5 | ||
| 2025-12-31T23:38 | 2418 | 760 | 215 | 5 | ||
| 2025-12-31T23:38 | 2532 | 750 | 196 | 5 | ||
| 2025-12-31T23:39 | 2691 | 735 | 217 | 8 | ||
| 2025-12-31T23:39 | 2741 | 731 | 4.9 | 4.8 | ||
| 2025-12-31T23:39 | 2953 | 712 | 201 | 9 | ||
| 2025-12-31T23:40 | 3268 | 685 | 218 | 9 | ||
| 2025-12-31T23:40 | 3279 | 684 | -0.1 | -1.4 | ||
| 2025-12-31T23:41 | 3420 | 672 | 235 | 12 | ||
| 2025-12-31T23:41 | 3481 | 667 | -2.0 | -6.7 | ||
| 2025-12-31T23:41 | 3532 | 663 | -2.5 | -9.6 | ||
| 2025-12-31T23:41 | 3616 | 656 | 231 | 18 | ||
| 2025-12-31T23:42 | 3653 | 653 | -3.5 | -11.5 | ||
| 2025-12-31T23:42 | 3769 | 643 | -3.3 | -12.5 | ||
| 2025-12-31T23:42 | 3830 | 638 | -2.8 | -10.1 | ||
| 2025-12-31T23:42 | 3835 | 638 | 241 | 15 | ||
| 2025-12-31T23:42 | 3929 | 630 | -2.5 | -11.0 | ||
| 2025-12-31T23:43 | 4076 | 619 | -3.1 | -13.9 | ||
| 2025-12-31T23:43 | 4172 | 611 | -3.3 | -15.6 | 251 | 19 |
| 2025-12-31T23:44 | 4371 | 596 | -3.5 | -18.6 | ||
| 2025-12-31T23:44 | 4412 | 593 | -2.3 | -18.8 | ||
| 2025-12-31T23:44 | 4517 | 585 | 252 | 21 | ||
| 2025-12-31T23:45 | 4850 | 561 | 251 | 22 | ||
| 2025-12-31T23:46 | 5017 | 549 | -6.1 | -23.4 | ||
| 2025-12-31T23:46 | 5189 | 537 | 252 | 26 | ||
| 2025-12-31T23:46 | 5297 | 530 | -8.0 | -26.5 | ||
| 2025-12-31T23:47 | 5552 | 513 | 253 | 25 | ||
| 2025-12-31T23:48 | 5818 | 495 | -12.3 | -29.7 | ||
| 2025-12-31T23:48 | 5893 | 490 | 245 | 27 | ||
| 2025-12-31T23:49 | 6118 | 476 | -13.3 | -33.2 | ||
| 2025-12-31T23:49 | 6266 | 467 | 241 | 33 | ||
| 2025-12-31T23:50 | 6413 | 458 | 240 | 36 | ||
| 2025-12-31T23:50 | 6426 | 457 | -15.0 | -33.5 | ||
| 2025-12-31T23:50 | 6612 | 446 | -15.3 | -29.0 | ||
| 2025-12-31T23:50 | 6663 | 443 | -15.5 | -31.1 | ||
| 2025-12-31T23:50 | 6747 | 438 | -15.6 | -25.6 | ||
| 2025-12-31T23:50 | 6766 | 437 | 238 | 42 | ||
| 2025-12-31T23:51 | 6797 | 435 | -15.2 | -19.3 | ||
| 2025-12-31T23:51 | 6864 | 431 | -15.0 | -18.8 | ||
| 2025-12-31T23:51 | 6934 | 427 | 239 | 45 | ||
| 2025-12-31T23:51 | 6956 | 426 | -15.4 | -21.4 | ||
| 2025-12-31T23:51 | 7111 | 417 | -16.8 | -22.7 | ||
| 2025-12-31T23:52 | 7253 | 409 | 241 | 45 | ||
| 2025-12-31T23:52 | 7296 | 407 | -18.2 | -23.2 | ||
| 2025-12-31T23:53 | 7558 | 393 | 242 | 45 | ||
| 2025-12-31T23:53 | 7696 | 386 | 243 | 46 | ||
| 2025-12-31T23:54 | 7955 | 372 | -24.2 | -25.7 | ||
| 2025-12-31T23:54 | 8001 | 370 | -24.6 | -26.5 | ||
| 2025-12-31T23:54 | 8037 | 368 | 243 | 48 | ||
| 2025-12-31T23:55 | 8183 | 361 | -26.3 | -27.7 | ||
| 2025-12-31T23:55 | 8258 | 357 | -26.6 | -30.6 | ||
| 2025-12-31T23:55 | 8301 | 355 | -26.4 | -33.7 | ||
| 2025-12-31T23:55 | 8388 | 351 | -27.0 | -34.5 | ||
| 2025-12-31T23:55 | 8406 | 350 | 235 | 51 | ||
| 2025-12-31T23:55 | 8449 | 348 | -26.4 | -39.2 | ||
| 2025-12-31T23:55 | 8503 | 345 | -26.3 | -40.1 | ||
| 2025-12-31T23:56 | 8570 | 342 | -25.1 | -44.3 | ||
| 2025-12-31T23:56 | 8780 | 332 | 241 | 52 | ||
| 2025-12-31T23:57 | 9123 | 317 | 250 | 55 | ||
| 2025-12-31T23:57 | 9204 | 313 | -29.0 | -46.4 | ||
| 2025-12-31T23:58 | 9370 | 306 | -29.7 | -46.5 | ||
| 2025-12-31T23:58 | 9375 | 306 | 254 | 58 | ||
| 2025-12-31T23:58 | 9433 | 303 | -28.5 | -48.4 | ||
| 2025-12-31T23:59 | 9660 | 294 | 250 | 60 |
